<?xml version="1.0" encoding="UTF-8"?>
<gpx creator="Garmin Connect" version="1.1"
  xsi:schemaLocation="http://www.topografix.com/GPX/1/1 http://www.topografix.com/GPX/11.xsd"
  xmlns:ns3="http://www.garmin.com/xmlschemas/TrackPointExtension/v1"
  xmlns="http://www.topografix.com/GPX/1/1"
  xmlns:xsi="http://www.w3.org/2001/XMLSchema-instance" xmlns:ns2="http://www.garmin.com/xmlschemas/GpxExtensions/v3">
  <metadata>
    <link href="connect.garmin.com">
      <text>Garmin Connect</text>
    </link>
    <time>2020-05-09T11:18:15.000Z</time>
  </metadata>
  <trk>
    <name>Cupra Marittima Mountain bike</name>
    <type>mountain_biking</type>
    <trkseg>
      <trkpt lat="43.027624189853668212890625" lon="13.86049747467041015625">
        <ele>-4</ele>
        <time>2020-05-09T11:18:15.000Z</time>
        <extensions>
          <ns3:TrackPointExtension>
            <ns3:atemp>28.0</ns3:atemp>
            <ns3:hr>76</ns3:hr>
          </ns3:TrackPointExtension>
        </extensions>
      </trkpt>
      <trkpt lat="43.0276394449174404144287109375" lon="13.86051951907575130462646484375">
        <ele>-4.400000095367431640625</ele>
        <time>2020-05-09T11:18:16.000Z</time>
        <extensions>
          <ns3:TrackPointExtension>
            <ns3:atemp>28.0</ns3:atemp>
            <ns3:hr>76</ns3:hr>
          </ns3:TrackPointExtension>
        </extensions>
      </trkpt>
      <trkpt lat="43.027697615325450897216796875" lon="13.86052069254219532012939453125">
        <ele>-3.599999904632568359375</ele>
        <time>2020-05-09T11:18:18.000Z</time>
        <extensions>
          <ns3:TrackPointExtension>
            <ns3:atemp>28.0</ns3:atemp>
            <ns3:hr>77</ns3:hr>
          </ns3:TrackPointExtension>
        </extensions>
      </trkpt>
      <trkpt lat="43.02789752371609210968017578125" lon="13.86043938808143138885498046875">
        <ele>-3.599999904632568359375</ele>
        <time>2020-05-09T11:18:24.000Z</time>
        <extensions>
          <ns3:TrackPointExtension>
            <ns3:atemp>28.0</ns3:atemp>
            <ns3:hr>76</ns3:hr>
          </ns3:TrackPointExtension>
        </extensions>
      </trkpt>
      <trkpt lat="43.02808083593845367431640625" lon="13.86035037226974964141845703125">
        <ele>-3.400000095367431640625</ele>
        <time>2020-05-09T11:18:29.000Z</time>
        <extensions>
          <ns3:TrackPointExtension>
            <ns3:atemp>28.0</ns3:atemp>
            <ns3:hr>73</ns3:hr>
          </ns3:TrackPointExtension>
        </extensions>
      </trkpt>
      <trkpt lat="43.0281219072639942169189453125" lon="13.8603269867599010467529296875">
        <ele>-3.400000095367431640625</ele>
        <time>2020-05-09T11:18:30.000Z</time>
        <extensions>
          <ns3:TrackPointExtension>
            <ns3:atemp>28.0</ns3:atemp>
            <ns3:hr>76</ns3:hr>
          </ns3:TrackPointExtension>
        </extensions>
      </trkpt>
      <trkpt lat="43.02816876210272312164306640625" lon="13.86030695401132106781005859375">
        <ele>-3.400000095367431640625</ele>
        <time>2020-05-09T11:18:31.000Z</time>
        <extensions>
          <ns3:TrackPointExtension>
            <ns3:atemp>28.0</ns3:atemp>
            <ns3:hr>74</ns3:hr>
          </ns3:TrackPointExtension>
        </extensions>
      </trkpt>
      <trkpt lat="43.02835886366665363311767578125" lon="13.86023000814020633697509765625">
        <ele>-3.599999904632568359375</ele>
        <time>2020-05-09T11:18:35.000Z</time>
        <extensions>
          <ns3:TrackPointExtension>
            <ns3:atemp>28.0</ns3:atemp>
            <ns3:hr>77</ns3:hr>
          </ns3:TrackPointExtension>
        </extensions>
      </trkpt>
      <trkpt lat="43.028404712677001953125" lon="13.86020435951650142669677734375">
        <ele>-3.599999904632568359375</ele>
        <time>2020-05-09T11:18:36.000Z</time>
        <extensions>
          <ns3:TrackPointExtension>
            <ns3:atemp>28.0</ns3:atemp>
            <ns3:hr>80</ns3:hr>
          </ns3:TrackPointExtension>
        </extensions>
      </trkpt>
      <trkpt lat="43.028455339372158050537109375" lon="13.86018323712050914764404296875">
        <ele>-3.7999999523162841796875</ele>
        <time>2020-05-09T11:18:37.000Z</time>
        <extensions>
          <ns3:TrackPointExtension>
            <ns3:atemp>28.0</ns3:atemp>
            <ns3:hr>80</ns3:hr>
          </ns3:TrackPointExtension>
        </extensions>
      </trkpt>
      <trkpt lat="43.02850588224828243255615234375" lon="13.8601635396480560302734375">
        <ele>-3.7999999523162841796875</ele>
        <time>2020-05-09T11:18:38.000Z</time>
        <extensions>
          <ns3:TrackPointExtension>
            <ns3:atemp>28.0</ns3:atemp>
            <ns3:hr>82</ns3:hr>
          </ns3:TrackPointExtension>
        </extensions>
      </trkpt>
      <trkpt lat="43.0285562574863433837890625" lon="13.86014400981366634368896484375">
        <ele>-3.7999999523162841796875</ele>
        <time>2020-05-09T11:18:39.000Z</time>
        <extensions>
          <ns3:TrackPointExtension>
            <ns3:atemp>28.0</ns3:atemp>
            <ns3:hr>85</ns3:hr>
          </ns3:TrackPointExtension>
        </extensions>
      </trkpt>
      <trkpt lat="43.02873202599585056304931640625" lon="13.86010578833520412445068359375">
        <ele>-3.2000000476837158203125</ele>
        <time>2020-05-09T11:18:42.000Z</time>
        <extensions>
          <ns3:TrackPointExtension>
            <ns3:atemp>28.0</ns3:atemp>
            <ns3:hr>88</ns3:hr>
          </ns3:TrackPointExtension>
        </extensions>
      </trkpt>
      <trkpt lat="43.02884249947965145111083984375" lon="13.86008399538695812225341796875">
        <ele>-3</ele>
        <time>2020-05-09T11:18:44.000Z</time>
        <extensions>
          <ns3:TrackPointExtension>
            <ns3:atemp>28.0</ns3:atemp>
            <ns3:hr>92</ns3:hr>
          </ns3:TrackPointExtension>
        </extensions>
      </trkpt>
      <trkpt lat="43.02889748476445674896240234375" lon="13.86007242836058139801025390625">
        <ele>-2.7999999523162841796875</ele>
        <time>2020-05-09T11:18:45.000Z</time>
        <extensions>
          <ns3:TrackPointExtension>
            <ns3:atemp>28.0</ns3:atemp>
            <ns3:hr>93</ns3:hr>
          </ns3:TrackPointExtension>
        </extensions>
      </trkpt>
      <trkpt lat="43.0290060304105281829833984375" lon="13.86004753410816192626953125">
        <ele>-2.7999999523162841796875</ele>
        <time>2020-05-09T11:18:47.000Z</time>
        <extensions>
          <ns3:TrackPointExtension>
            <ns3:atemp>28.0</ns3:atemp>
            <ns3:hr>96</ns3:hr>
          </ns3:TrackPointExtension>
        </extensions>
      </trkpt>
      <trkpt lat="43.02931657992303371429443359375" lon="13.8599555008113384246826171875">
        <ele>-2.599999904632568359375</ele>
        <time>2020-05-09T11:18:53.000Z</time>
        <extensions>
          <ns3:TrackPointExtension>
            <ns3:atemp>28.0</ns3:atemp>
            <ns3:hr>98</ns3:hr>
          </ns3:TrackPointExtension>
        </extensions>
      </trkpt>
      <trkpt lat="43.029360584914684295654296875" lon="13.85993982665240764617919921875">
        <ele>-2.599999904632568359375</ele>
        <time>2020-05-09T11:18:54.000Z</time>
        <extensions>
          <ns3:TrackPointExtension>
            <ns3:atemp>28.0</ns3:atemp>
            <ns3:hr>99</ns3:hr>
          </ns3:TrackPointExtension>
        </extensions>
      </trkpt>
      <trkpt lat="43.02946309559047222137451171875" lon="13.85990445502102375030517578125">
        <ele>-2.599999904632568359375</ele>
        <time>2020-05-09T11:18:56.000Z</time>
        <extensions>
          <ns3:TrackPointExtension>
            <ns3:atemp>28.0</ns3:atemp>
            <ns3:hr>96</ns3:hr>
          </ns3:TrackPointExtension>
        </extensions>
      </trkpt>
      <trkpt lat="43.0295176617801189422607421875" lon="13.85988651774823665618896484375">
        <ele>-2.599999904632568359375</ele>
        <time>2020-05-09T11:18:57.000Z</time>
        <extensions>
          <ns3:TrackPointExtension>
            <ns3:atemp>28.0</ns3:atemp>
            <ns3:hr>95</ns3:hr>
          </ns3:TrackPointExtension>
        </extensions>
      </trkpt>
      <trkpt lat="43.0296272970736026763916015625" lon="13.85984997265040874481201171875">
        <ele>-2.599999904632568359375</ele>
        <time>2020-05-09T11:18:59.000Z</time>
        <extensions>
          <ns3:TrackPointExtension>
            <ns3:atemp>28.0</ns3:atemp>
            <ns3:hr>98</ns3:hr>
          </ns3:TrackPointExtension>
        </extensions>
      </trkpt>
      <trkpt lat="43.0296806059777736663818359375" lon="13.8598311133682727813720703125">
        <ele>-2.7999999523162841796875</ele>
        <time>2020-05-09T11:19:00.000Z</time>
        <extensions>
          <ns3:TrackPointExtension>
            <ns3:atemp>28.0</ns3:atemp>
            <ns3:hr>101</ns3:hr>
          </ns3:TrackPointExtension>
        </extensions>
      </trkpt>
      <trkpt lat="43.0299389362335205078125" lon="13.85972927324473857879638671875">
        <ele>-2.599999904632568359375</ele>
        <time>2020-05-09T11:19:04.000Z</time>
        <extensions>
          <ns3:TrackPointExtension>
            <ns3:atemp>28.0</ns3:atemp>
            <ns3:hr>104</ns3:hr>
          </ns3:TrackPointExtension>
        </extensions>
      </trkpt>
      <trkpt lat="43.03005401976406574249267578125" lon="13.85970060713589191436767578125">
        <ele>-2.599999904632568359375</ele>
        <time>2020-05-09T11:19:06.000Z</time>
        <extensions>
          <ns3:TrackPointExtension>
            <ns3:atemp>28.0</ns3:atemp>
            <ns3:hr>106</ns3:hr>
          </ns3:TrackPointExtension>
        </extensions>
      </trkpt>
      <trkpt lat="43.030407316982746124267578125" lon="13.85959717445075511932373046875">
        <ele>-3.2000000476837158203125</ele>
        <time>2020-05-09T11:19:13.000Z</time>
        <extensions>
          <ns3:TrackPointExtension>
            <ns3:atemp>28.0</ns3:atemp>
            <ns3:hr>105</ns3:hr>
          </ns3:TrackPointExtension>
        </extensions>
      </trkpt>
      <trkpt lat="43.0308736860752105712890625" lon="13.8594948314130306243896484375">
        <ele>-2.7999999523162841796875</ele>
        <time>2020-05-09T11:19:22.000Z</time>
        <extensions>
          <ns3:TrackPointExtension>
            <ns3:atemp>28.0</ns3:atemp>
            <ns3:hr>106</ns3:hr>
          </ns3:TrackPointExtension>
        </extensions>
      </trkpt>
      <trkpt lat="43.03118859417736530303955078125" lon="13.85941260494291782379150390625">
        <ele>-2.7999999523162841796875</ele>
        <time>2020-05-09T11:19:28.000Z</time>
        <extensions>
          <ns3:TrackPointExtension>
            <ns3:atemp>28.0</ns3:atemp>
            <ns3:hr>102</ns3:hr>
          </ns3:TrackPointExtension>
        </extensions>
      </trkpt>
      <trkpt lat="43.0312403105199337005615234375" lon="13.8593952544033527374267578125">
        <ele>-2.599999904632568359375</ele>
        <time>2020-05-09T11:19:29.000Z</time>
        <extensions>
          <ns3:TrackPointExtension>
            <ns3:atemp>28.0</ns3:atemp>
            <ns3:hr>102</ns3:hr>
          </ns3:TrackPointExtension>
        </extensions>
      </trkpt>
      <trkpt lat="43.0315112136304378509521484375" lon="13.85932199656963348388671875">
        <ele>-2.7999999523162841796875</ele>
        <time>2020-05-09T11:19:34.000Z</time>
        <extensions>
          <ns3:TrackPointExtension>
            <ns3:atemp>28.0</ns3:atemp>
            <ns3:hr>101</ns3:hr>
          </ns3:TrackPointExtension>
        </extensions>
      </trkpt>
      <trkpt lat="43.03179795853793621063232421875" lon="13.85924630798399448394775390625">
        <ele>-2.599999904632568359375</ele>
        <time>2020-05-09T11:19:39.000Z</time>
        <extensions>
          <ns3:TrackPointExtension>
            <ns3:atemp>28.0</ns3:atemp>
            <ns3:hr>104</ns3:hr>
          </ns3:TrackPointExtension>
        </extensions>
      </trkpt>
      <trkpt lat="43.031958639621734619140625" lon="13.85920557193458080291748046875">
        <ele>-2.599999904632568359375</ele>
        <time>2020-05-09T11:19:42.000Z</time>
        <extensions>
          <ns3:TrackPointExtension>
            <ns3:atemp>28.0</ns3:atemp>
            <ns3:hr>103</ns3:hr>
          </ns3:TrackPointExtension>
        </extensions>
      </trkpt>
      <trkpt lat="43.032315708696842193603515625" lon="13.8590871356427669525146484375">
        <ele>-3.400000095367431640625</ele>
        <time>2020-05-09T11:19:49.000Z</time>
        <extensions>
          <ns3:TrackPointExtension>
            <ns3:atemp>28.0</ns3:atemp>
            <ns3:hr>103</ns3:hr>
          </ns3:TrackPointExtension>
        </extensions>
      </trkpt>
      <trkpt lat="43.032532632350921630859375" lon="13.85903106071054935455322265625">
        <ele>-3.400000095367431640625</ele>
        <time>2020-05-09T11:19:53.000Z</time>
        <extensions>
          <ns3:TrackPointExtension>
            <ns3:atemp>28.0</ns3:atemp>
            <ns3:hr>106</ns3:hr>
          </ns3:TrackPointExtension>
        </extensions>
      </trkpt>
      <trkpt lat="43.03269825875759124755859375" lon="13.8589848764240741729736328125">
        <ele>-3.400000095367431640625</ele>
        <time>2020-05-09T11:19:56.000Z</time>
        <extensions>
          <ns3:TrackPointExtension>
            <ns3:atemp>28.0</ns3:atemp>
            <ns3:hr>106</ns3:hr>
          </ns3:TrackPointExtension>
        </extensions>
      </trkpt>
      <trkpt lat="43.03302875719964504241943359375" lon="13.85891321115195751190185546875">
        <ele>-3.2000000476837158203125</ele>
        <time>2020-05-09T11:20:02.000Z</time>
        <extensions>
          <ns3:TrackPointExtension>
            <ns3:atemp>28.0</ns3:atemp>
            <ns3:hr>110</ns3:hr>
          </ns3:TrackPointExtension>
        </extensions>
      </trkpt>
      <trkpt lat="43.03308575414121150970458984375" lon="13.858902566134929656982421875">
        <ele>-3</ele>
        <time>2020-05-09T11:20:03.000Z</time>
        <extensions>
          <ns3:TrackPointExtension>
            <ns3:atemp>28.0</ns3:atemp>
            <ns3:hr>106</ns3:hr>
          </ns3:TrackPointExtension>
        </extensions>
      </trkpt>
      <trkpt lat="43.03313939832150936126708984375" lon="13.8588899932801723480224609375">
        <ele>-3</ele>
        <time>2020-05-09T11:20:04.000Z</time>
        <extensions>
          <ns3:TrackPointExtension>
            <ns3:atemp>28.0</ns3:atemp>
            <ns3:hr>105</ns3:hr>
          </ns3:TrackPointExtension>
        </extensions>
      </trkpt>
      <trkpt lat="43.0335805378854274749755859375" lon="13.858802653849124908447265625">
        <ele>-3.2000000476837158203125</ele>
        <time>2020-05-09T11:20:12.000Z</time>
        <extensions>
          <ns3:TrackPointExtension>
            <ns3:atemp>29.0</ns3:atemp>
            <ns3:hr>103</ns3:hr>
          </ns3:TrackPointExtension>
        </extensions>
      </trkpt>
      <trkpt lat="43.0340438894927501678466796875" lon="13.85865940712392330169677734375">
        <ele>-2.599999904632568359375</ele>
        <time>2020-05-09T11:20:21.000Z</time>
        <extensions>
          <ns3:TrackPointExtension>
            <ns3:atemp>29.0</ns3:atemp>
            <ns3:hr>103</ns3:hr>
          </ns3:TrackPointExtension>
        </extensions>
      </trkpt>
      <trkpt lat="43.03438939154148101806640625" lon="13.85853770188987255096435546875">
        <ele>-4</ele>
        <time>2020-05-09T11:20:28.000Z</time>
        <extensions>
          <ns3:TrackPointExtension>
            <ns3:atemp>28.0</ns3:atemp>
            <ns3:hr>105</ns3:hr>
          </ns3:TrackPointExtension>
        </extensions>
      </trkpt>
      <trkpt lat="43.034488968551158905029296875" lon="13.85850953869521617889404296875">
        <ele>-4</ele>
        <time>2020-05-09T11:20:30.000Z</time>
        <extensions>
          <ns3:TrackPointExtension>
            <ns3:atemp>28.0</ns3:atemp>
            <ns3:hr>102</ns3:hr>
          </ns3:TrackPointExtension>
        </extensions>
      </trkpt>
      <trkpt lat="43.03474922664463520050048828125" lon="13.85846528224647045135498046875">
        <ele>-3.599999904632568359375</ele>
        <time>2020-05-09T11:20:35.000Z</time>
        <extensions>
          <ns3:TrackPointExtension>
            <ns3:atemp>28.0</ns3:atemp>
            <ns3:hr>105</ns3:hr>
          </ns3:TrackPointExtension>
        </extensions>
      </trkpt>
      <trkpt lat="43.03480186499655246734619140625" lon="13.85846159420907497406005859375">
        <ele>-3.599999904632568359375</ele>
        <time>2020-05-09T11:20:36.000Z</time>
        <extensions>
          <ns3:TrackPointExtension>
            <ns3:atemp>28.0</ns3:atemp>
            <ns3:hr>106</ns3:hr>
          </ns3:TrackPointExtension>
        </extensions>
      </trkpt>
      <trkpt lat="43.0351590178906917572021484375" lon="13.8583900965750217437744140625">
        <ele>-3.7999999523162841796875</ele>
        <time>2020-05-09T11:20:43.000Z</time>
        <extensions>
          <ns3:TrackPointExtension>
            <ns3:atemp>28.0</ns3:atemp>
            <ns3:hr>107</ns3:hr>
          </ns3:TrackPointExtension>
        </extensions>
      </trkpt>
      <trkpt lat="43.03552488796412944793701171875" lon="13.85830543935298919677734375">
        <ele>-3.7999999523162841796875</ele>
        <time>2020-05-09T11:20:50.000Z</time>
        <extensions>
          <ns3:TrackPointExtension>
            <ns3:atemp>28.0</ns3:atemp>
            <ns3:hr>104</ns3:hr>
          </ns3:TrackPointExtension>
        </extensions>
      </trkpt>
      <trkpt lat="43.035575933754444122314453125" lon="13.85829244740307331085205078125">
        <ele>-3.7999999523162841796875</ele>
        <time>2020-05-09T11:20:51.000Z</time>
        <extensions>
          <ns3:TrackPointExtension>
            <ns3:atemp>28.0</ns3:atemp>
            <ns3:hr>104</ns3:hr>
          </ns3:TrackPointExtension>
        </extensions>
      </trkpt>
      <trkpt lat="43.0358979664742946624755859375" lon="13.85819639079272747039794921875">
        <ele>-4</ele>
        <time>2020-05-09T11:20:58.000Z</time>
        <extensions>
          <ns3:TrackPointExtension>
            <ns3:atemp>28.0</ns3:atemp>
            <ns3:hr>103</ns3:hr>
          </ns3:TrackPointExtension>
        </extensions>
      </trkpt>
      <trkpt lat="43.035944066941738128662109375" lon="13.85818415321409702301025390625">
        <ele>-4</ele>
        <time>2020-05-09T11:20:59.000Z</time>
        <extensions>
          <ns3:TrackPointExtension>
            <ns3:atemp>28.0</ns3:atemp>
            <ns3:hr>108</ns3:hr>
          </ns3:TrackPointExtension>
        </extensions>
      </trkpt>
      <trkpt lat="43.03611950017511844635009765625" lon="13.85813335888087749481201171875">
        <ele>-3.7999999523162841796875</ele>
        <time>2020-05-09T11:21:03.000Z</time>
        <extensions>
          <ns3:TrackPointExtension>
            <ns3:atemp>28.0</ns3:atemp>
            <ns3:hr>108</ns3:hr>
          </ns3:TrackPointExtension>
        </extensions>
      </trkpt>
      <trkpt lat="43.036459386348724365234375" lon="13.85800628922879695892333984375">
        <ele>-3.7999999523162841796875</ele>
        <time>2020-05-09T11:21:11.000Z</time>
        <extensions>
          <ns3:TrackPointExtension>
            <ns3:atemp>28.0</ns3:atemp>
            <ns3:hr>107</ns3:hr>
          </ns3:TrackPointExtension>
        </extensions>
      </trkpt>
      <trkpt lat="43.03662911988794803619384765625" lon="13.85795331560075283050537109375">
        <ele>-3.7999999523162841796875</ele>
        <time>2020-05-09T11:21:15.000Z</time>
        <extensions>
          <ns3:TrackPointExtension>
            <ns3:atemp>28.0</ns3:atemp>
            <ns3:hr>107</ns3:hr>
          </ns3:TrackPointExtension>
        </extensions>
      </trkpt>
      <trkpt lat="43.03671914152801036834716796875" lon="13.85793655179440975189208984375">
        <ele>-3.7999999523162841796875</ele>
        <time>2020-05-09T11:21:17.000Z</time>
        <extensions>
          <ns3:TrackPointExtension>
            <ns3:atemp>28.0</ns3:atemp>
            <ns3:hr>106</ns3:hr>
          </ns3:TrackPointExtension>
        </extensions>
      </trkpt>
      <trkpt lat="43.03689633496105670928955078125" lon="13.85789900086820125579833984375">
        <ele>-4</ele>
        <time>2020-05-09T11:21:21.000Z</time>
        <extensions>
          <ns3:TrackPointExtension>
            <ns3:atemp>28.0</ns3:atemp>
            <ns3:hr>109</ns3:hr>
          </ns3:TrackPointExtension>
        </extensions>
      </trkpt>
      <trkpt lat="43.03708543069660663604736328125" lon="13.85784837417304515838623046875">
        <ele>-3.7999999523162841796875</ele>
        <time>2020-05-09T11:21:25.000Z</time>
        <extensions>
          <ns3:TrackPointExtension>
            <ns3:atemp>28.0</ns3:atemp>
            <ns3:hr>112</ns3:hr>
          </ns3:TrackPointExtension>
        </extensions>
      </trkpt>
      <trkpt lat="43.03748122416436672210693359375" lon="13.85780830867588520050048828125">
        <ele>-3.7999999523162841796875</ele>
        <time>2020-05-09T11:21:33.000Z</time>
        <extensions>
          <ns3:TrackPointExtension>
            <ns3:atemp>28.0</ns3:atemp>
            <ns3:hr>113</ns3:hr>
          </ns3:TrackPointExtension>
        </extensions>
      </trkpt>
      <trkpt lat="43.03752363659441471099853515625" lon="13.8578016869723796844482421875">
        <ele>-3.7999999523162841796875</ele>
        <time>2020-05-09T11:21:34.000Z</time>
        <extensions>
          <ns3:TrackPointExtension>
            <ns3:atemp>28.0</ns3:atemp>
            <ns3:hr>108</ns3:hr>
          </ns3:TrackPointExtension>
        </extensions>
      </trkpt>
      <trkpt lat="43.037670738995075225830078125" lon="13.8577805645763874053955078125">
        <ele>-3.400000095367431640625</ele>
        <time>2020-05-09T11:21:37.000Z</time>
        <extensions>
          <ns3:TrackPointExtension>
            <ns3:atemp>28.0</ns3:atemp>
            <ns3:hr>111</ns3:hr>
          </ns3:TrackPointExtension>
        </extensions>
      </trkpt>
      <trkpt lat="43.03771876730024814605712890625" lon="13.857771344482898712158203125">
        <ele>-3.400000095367431640625</ele>
        <time>2020-05-09T11:21:38.000Z</time>
        <extensions>
          <ns3:TrackPointExtension>
            <ns3:atemp>28.0</ns3:atemp>
            <ns3:hr>110</ns3:hr>
          </ns3:TrackPointExtension>
        </extensions>
      </trkpt>
      <trkpt lat="43.0379109643399715423583984375" lon="13.85773144662380218505859375">
        <ele>-3</ele>
        <time>2020-05-09T11:21:42.000Z</time>
        <extensions>
          <ns3:TrackPointExtension>
            <ns3:atemp>28.0</ns3:atemp>
            <ns3:hr>112</ns3:hr>
          </ns3:TrackPointExtension>
        </extensions>
      </trkpt>
      <trkpt lat="43.038079775869846343994140625" lon="13.85769096203148365020751953125">
        <ele>-2.400000095367431640625</ele>
        <time>2020-05-09T11:21:46.000Z</time>
        <extensions>
          <ns3:TrackPointExtension>
            <ns3:atemp>28.0</ns3:atemp>
            <ns3:hr>113</ns3:hr>
          </ns3:TrackPointExtension>
        </extensions>
      </trkpt>
      <trkpt lat="43.038168288767337799072265625" lon="13.85767989791929721832275390625">
        <ele>-2.599999904632568359375</ele>
        <time>2020-05-09T11:21:48.000Z</time>
        <extensions>
          <ns3:TrackPointExtension>
            <ns3:atemp>28.0</ns3:atemp>
            <ns3:hr>110</ns3:hr>
          </ns3:TrackPointExtension>
        </extensions>
      </trkpt>
      <trkpt lat="43.0382552929222583770751953125" lon="13.8576213084161281585693359375">
        <ele>-3</ele>
        <time>2020-05-09T11:21:50.000Z</time>
        <extensions>
          <ns3:TrackPointExtension>
            <ns3:atemp>28.0</ns3:atemp>
            <ns3:hr>110</ns3:hr>
          </ns3:TrackPointExtension>
        </extensions>
      </trkpt>
      <trkpt lat="43.03829669952392578125" lon="13.8575844280421733856201171875">
        <ele>-3</ele>
        <time>2020-05-09T11:21:51.000Z</time>
        <extensions>
          <ns3:TrackPointExtension>
            <ns3:atemp>28.0</ns3:atemp>
            <ns3:hr>109</ns3:hr>
          </ns3:TrackPointExtension>
        </extensions>
      </trkpt>
      <trkpt lat="43.0383350886404514312744140625" lon="13.857541345059871673583984375">
        <ele>-3</ele>
        <time>2020-05-09T11:21:52.000Z</time>
        <extensions>
          <ns3:TrackPointExtension>
            <ns3:atemp>28.0</ns3:atemp>
            <ns3:hr>106</ns3:hr>
          </ns3:TrackPointExtension>
        </extensions>
      </trkpt>
      <trkpt lat="43.03837942890822887420654296875" lon="13.85743849910795688629150390625">
        <ele>-3.2000000476837158203125</ele>
        <time>2020-05-09T11:21:54.000Z</time>
        <extensions>
          <ns3:TrackPointExtension>
            <ns3:atemp>28.0</ns3:atemp>
            <ns3:hr>105</ns3:hr>
          </ns3:TrackPointExtension>
        </extensions>
      </trkpt>
      <trkpt lat="43.03835830651223659515380859375" lon="13.8572478108108043670654296875">
        <ele>-3.400000095367431640625</ele>
        <time>2020-05-09T11:21:57.000Z</time>
        <extensions>
          <ns3:TrackPointExtension>
            <ns3:atemp>28.0</ns3:atemp>
            <ns3:hr>106</ns3:hr>
          </ns3:TrackPointExtension>
        </extensions>
      </trkpt>
      <trkpt lat="43.0382712185382843017578125" lon="13.8568655960261821746826171875">
        <ele>-3.599999904632568359375</ele>
        <time>2020-05-09T11:22:03.000Z</time>
        <extensions>
          <ns3:TrackPointExtension>
            <ns3:atemp>28.0</ns3:atemp>
            <ns3:hr>108</ns3:hr>
          </ns3:TrackPointExtension>
        </extensions>
      </trkpt>
      <trkpt lat="43.03825638256967067718505859375" lon="13.8567992113530635833740234375">
        <ele>-3.599999904632568359375</ele>
        <time>2020-05-09T11:22:04.000Z</time>
        <extensions>
          <ns3:TrackPointExtension>
            <ns3:atemp>28.0</ns3:atemp>
            <ns3:hr>103</ns3:hr>
          </ns3:TrackPointExtension>
        </extensions>
      </trkpt>
      <trkpt lat="43.03822763264179229736328125" lon="13.85666049085557460784912109375">
        <ele>-4</ele>
        <time>2020-05-09T11:22:06.000Z</time>
        <extensions>
          <ns3:TrackPointExtension>
            <ns3:atemp>28.0</ns3:atemp>
            <ns3:hr>102</ns3:hr>
          </ns3:TrackPointExtension>
        </extensions>
      </trkpt>
      <trkpt lat="43.0382137186825275421142578125" lon="13.85652587749063968658447265625">
        <ele>-4.400000095367431640625</ele>
        <time>2020-05-09T11:22:08.000Z</time>
        <extensions>
          <ns3:TrackPointExtension>
            <ns3:atemp>28.0</ns3:atemp>
            <ns3:hr>103</ns3:hr>
          </ns3:TrackPointExtension>
        </extensions>
      </trkpt>
      <trkpt lat="43.0381580628454685211181640625" lon="13.85607426054775714874267578125">
        <ele>-4.19999980926513671875</ele>
        <time>2020-05-09T11:22:15.000Z</time>
        <extensions>
          <ns3:TrackPointExtension>
            <ns3:atemp>28.0</ns3:atemp>
            <ns3:hr>100</ns3:hr>
          </ns3:TrackPointExtension>
        </extensions>
      </trkpt>
      <trkpt lat="43.03814825601875782012939453125" lon="13.856004439294338226318359375">
        <ele>-4.19999980926513671875</ele>
        <time>2020-05-09T11:22:16.000Z</time>
        <extensions>
          <ns3:TrackPointExtension>
            <ns3:atemp>28.0</ns3:atemp>
            <ns3:hr>102</ns3:hr>
          </ns3:TrackPointExtension>
        </extensions>
      </trkpt>
      <trkpt lat="43.03811405785381793975830078125" lon="13.8557970710098743438720703125">
        <ele>-3.599999904632568359375</ele>
        <time>2020-05-09T11:22:19.000Z</time>
        <extensions>
          <ns3:TrackPointExtension>
            <ns3:atemp>28.0</ns3:atemp>
            <ns3:hr>99</ns3:hr>
          </ns3:TrackPointExtension>
        </extensions>
      </trkpt>
      <trkpt lat="43.03807483054697513580322265625" lon="13.8555231504142284393310546875">
        <ele>-3.2000000476837158203125</ele>
        <time>2020-05-09T11:22:23.000Z</time>
        <extensions>
          <ns3:TrackPointExtension>
            <ns3:atemp>28.0</ns3:atemp>
            <ns3:hr>102</ns3:hr>
          </ns3:TrackPointExtension>
        </extensions>
      </trkpt>
      <trkpt lat="43.03806510753929615020751953125" lon="13.8554562628269195556640625">
        <ele>-3</ele>
        <time>2020-05-09T11:22:24.000Z</time>
        <extensions>
          <ns3:TrackPointExtension>
            <ns3:atemp>28.0</ns3:atemp>
            <ns3:hr>102</ns3:hr>
          </ns3:TrackPointExtension>
        </extensions>
      </trkpt>
      <trkpt lat="43.03805672563612461090087890625" lon="13.85539499111473560333251953125">
        <ele>-2.7999999523162841796875</ele>
        <time>2020-05-09T11:22:25.000Z</time>
        <extensions>
          <ns3:TrackPointExtension>
            <ns3:atemp>28.0</ns3:atemp>
            <ns3:hr>102</ns3:hr>
          </ns3:TrackPointExtension>
        </extensions>
      </trkpt>
      <trkpt lat="43.0380407162010669708251953125" lon="13.85526381433010101318359375">
        <ele>-1.60000002384185791015625</ele>
        <time>2020-05-09T11:22:28.000Z</time>
        <extensions>
          <ns3:TrackPointExtension>
            <ns3:atemp>28.0</ns3:atemp>
            <ns3:hr>102</ns3:hr>
          </ns3:TrackPointExtension>
        </extensions>
      </trkpt>
      <trkpt lat="43.03803811781108379364013671875" lon="13.85519617237150669097900390625">
        <ele>-0.60000002384185791015625</ele>
        <time>2020-05-09T11:22:30.000Z</time>
        <extensions>
          <ns3:TrackPointExtension>
            <ns3:atemp>28.0</ns3:atemp>
            <ns3:hr>101</ns3:hr>
          </ns3:TrackPointExtension>
        </extensions>
      </trkpt>
      <trkpt lat="43.03805018775165081024169921875" lon="13.85517069138586521148681640625">
        <ele>0</ele>
        <time>2020-05-09T11:22:31.000Z</time>
        <extensions>
          <ns3:TrackPointExtension>
            <ns3:atemp>28.0</ns3:atemp>
            <ns3:hr>100</ns3:hr>
          </ns3:TrackPointExtension>
        </extensions>
      </trkpt>
      <trkpt lat="43.03806846030056476593017578125" lon="13.85514688678085803985595703125">
        <ele>0.20000000298023223876953125</ele>
        <time>2020-05-09T11:22:32.000Z</time>
        <extensions>
          <ns3:TrackPointExtension>
            <ns3:atemp>28.0</ns3:atemp>
            <ns3:hr>104</ns3:hr>
          </ns3:TrackPointExtension>
        </extensions>
      </trkpt>
      <trkpt lat="43.03809813223779201507568359375" lon="13.8551328890025615692138671875">
        <ele>0.20000000298023223876953125</ele>
        <time>2020-05-09T11:22:33.000Z</time>
        <extensions>
          <ns3:TrackPointExtension>
            <ns3:atemp>28.0</ns3:atemp>
            <ns3:hr>110</ns3:hr>
          </ns3:TrackPointExtension>
        </extensions>
      </trkpt>
      <trkpt lat="43.03813300095498561859130859375" lon="13.85512442328035831451416015625">
        <ele>0.4000000059604644775390625</ele>
        <time>2020-05-09T11:22:34.000Z</time>
        <extensions>
          <ns3:TrackPointExtension>
            <ns3:atemp>28.0</ns3:atemp>
            <ns3:hr>113</ns3:hr>
          </ns3:TrackPointExtension>
        </extensions>
      </trkpt>
      <trkpt lat="43.0381711386144161224365234375" lon="13.85511637665331363677978515625">
        <ele>0.4000000059604644775390625</ele>
        <time>2020-05-09T11:22:35.000Z</time>
        <extensions>
          <ns3:TrackPointExtension>
            <ns3:atemp>28.0</ns3:atemp>
            <ns3:hr>117</ns3:hr>
          </ns3:TrackPointExtension>
        </extensions>
      </trkpt>
      <trkpt lat="43.03820810280740261077880859375" lon="13.85510623455047607421875">
        <ele>0.20000000298023223876953125</ele>
        <time>2020-05-09T11:22:36.000Z</time>
        <extensions>
          <ns3:TrackPointExtension>
            <ns3:atemp>28.0</ns3:atemp>
            <ns3:hr>121</ns3:hr>
          </ns3:TrackPointExtension>
        </extensions>
      </trkpt>
      <trkpt lat="43.03825017996132373809814453125" lon="13.855097182095050811767578125">
        <ele>0.20000000298023223876953125</ele>
        <time>2020-05-09T11:22:37.000Z</time>
        <extensions>
          <ns3:TrackPointExtension>
            <ns3:atemp>28.0</ns3:atemp>
            <ns3:hr>125</ns3:hr>
          </ns3:TrackPointExtension>
        </extensions>
      </trkpt>
      <trkpt lat="43.03834539838135242462158203125" lon="13.85507396422326564788818359375">
        <ele>0</ele>
        <time>2020-05-09T11:22:39.000Z</time>
        <extensions>
          <ns3:TrackPointExtension>
            <ns3:atemp>28.0</ns3:atemp>
            <ns3:hr>128</ns3:hr>
          </ns3:TrackPointExtension>
        </extensions>
      </trkpt>
      <trkpt lat="43.0384953506290912628173828125" lon="13.85503314435482025146484375">
        <ele>-0.20000000298023223876953125</ele>
        <time>2020-05-09T11:22:42.000Z</time>
        <extensions>
          <ns3:TrackPointExtension>
            <ns3:atemp>28.0</ns3:atemp>
            <ns3:hr>131</ns3:hr>
          </ns3:TrackPointExtension>
        </extensions>
      </trkpt>
      <trkpt lat="43.03869844414293766021728515625" lon="13.85498494841158390045166015625">
        <ele>-0.20000000298023223876953125</ele>
        <time>2020-05-09T11:22:46.000Z</time>
        <extensions>
          <ns3:TrackPointExtension>
            <ns3:atemp>28.0</ns3:atemp>
            <ns3:hr>127</ns3:hr>
          </ns3:TrackPointExtension>
        </extensions>
      </trkpt>
      <trkpt lat="43.03875007666647434234619140625" lon="13.85497069917619228363037109375">
        <ele>-0.20000000298023223876953125</ele>
        <time>2020-05-09T11:22:47.000Z</time>
        <extensions>
          <ns3:TrackPointExtension>
            <ns3:atemp>28.0</ns3:atemp>
            <ns3:hr>123</ns3:hr>
          </ns3:TrackPointExtension>
        </extensions>
      </trkpt>
      <trkpt lat="43.0388011224567890167236328125" lon="13.85495661757886409759521484375">
        <ele>0</ele>
        <time>2020-05-09T11:22:48.000Z</time>
        <extensions>
          <ns3:TrackPointExtension>
            <ns3:atemp>28.0</ns3:atemp>
            <ns3:hr>117</ns3:hr>
          </ns3:TrackPointExtension>
        </extensions>
      </trkpt>
      <trkpt lat="43.03896297700703144073486328125" lon="13.8549196533858776092529296875">
        <ele>-0.20000000298023223876953125</ele>
        <time>2020-05-09T11:22:51.000Z</time>
        <extensions>
          <ns3:TrackPointExtension>
            <ns3:atemp>28.0</ns3:atemp>
            <ns3:hr>117</ns3:hr>
          </ns3:TrackPointExtension>
        </extensions>
      </trkpt>
      <trkpt lat="43.03916866891086101531982421875" lon="13.8548634946346282958984375">
        <ele>-0.60000002384185791015625</ele>
        <time>2020-05-09T11:22:55.000Z</time>
        <extensions>
          <ns3:TrackPointExtension>
            <ns3:atemp>28.0</ns3:atemp>
            <ns3:hr>120</ns3:hr>
          </ns3:TrackPointExtension>
        </extensions>
      </trkpt>
      <trkpt lat="43.03942129947245121002197265625" lon="13.85478965006768703460693359375">
        <ele>-0.20000000298023223876953125</ele>
        <time>2020-05-09T11:23:00.000Z</time>
        <extensions>
          <ns3:TrackPointExtension>
            <ns3:atemp>28.0</ns3:atemp>
            <ns3:hr>120</ns3:hr>
          </ns3:TrackPointExtension>
        </extensions>
      </trkpt>
      <trkpt lat="43.03979479707777500152587890625" lon="13.854679428040981292724609375">
        <ele>-0.60000002384185791015625</ele>
        <time>2020-05-09T11:23:07.000Z</time>
        <extensions>
          <ns3:TrackPointExtension>
            <ns3:atemp>28.0</ns3:atemp>
            <ns3:hr>123</ns3:hr>
          </ns3:TrackPointExtension>
        </extensions>
      </trkpt>
      <trkpt lat="43.03995455615222454071044921875" lon="13.8546396978199481964111328125">
        <ele>-0.4000000059604644775390625</ele>
        <time>2020-05-09T11:23:10.000Z</time>
        <extensions>
          <ns3:TrackPointExtension>
            <ns3:atemp>28.0</ns3:atemp>
            <ns3:hr>123</ns3:hr>
          </ns3:TrackPointExtension>
        </extensions>
      </trkpt>
      <trkpt lat="43.04005044512450695037841796875" lon="13.85460264980792999267578125">
        <ele>-0.20000000298023223876953125</ele>
        <time>2020-05-09T11:23:12.000Z</time>
        <extensions>
          <ns3:TrackPointExtension>
            <ns3:atemp>28.0</ns3:atemp>
            <ns3:hr>123</ns3:hr>
          </ns3:TrackPointExtension>
        </extensions>
      </trkpt>
      <trkpt lat="43.04013602435588836669921875" lon="13.8545374386012554168701171875">
        <ele>-0.20000000298023223876953125</ele>
        <time>2020-05-09T11:23:14.000Z</time>
        <extensions>
          <ns3:TrackPointExtension>
            <ns3:atemp>28.0</ns3:atemp>
            <ns3:hr>122</ns3:hr>
          </ns3:TrackPointExtension>
        </extensions>
      </trkpt>
      <trkpt lat="43.04017952643334865570068359375" lon="13.8545122928917407989501953125">
        <ele>-0.20000000298023223876953125</ele>
        <time>2020-05-09T11:23:15.000Z</time>
        <extensions>
          <ns3:TrackPointExtension>
            <ns3:atemp>28.0</ns3:atemp>
            <ns3:hr>122</ns3:hr>
          </ns3:TrackPointExtension>
        </extensions>
      </trkpt>
      <trkpt lat="43.04039888083934783935546875" lon="13.854411877691745758056640625">
        <ele>-0.20000000298023223876953125</ele>
        <time>2020-05-09T11:23:20.000Z</time>
        <extensions>
          <ns3:TrackPointExtension>
            <ns3:atemp>28.0</ns3:atemp>
            <ns3:hr>125</ns3:hr>
          </ns3:TrackPointExtension>
        </extensions>
      </trkpt>
      <trkpt lat="43.04043685086071491241455078125" lon="13.85438136756420135498046875">
        <ele>0</ele>
        <time>2020-05-09T11:23:21.000Z</time>
        <extensions>
          <ns3:TrackPointExtension>
            <ns3:atemp>28.0</ns3:atemp>
            <ns3:hr>122</ns3:hr>
          </ns3:TrackPointExtension>
        </extensions>
      </trkpt>
      <trkpt lat="43.04047456942498683929443359375" lon="13.85434356518089771270751953125">
        <ele>0</ele>
        <time>2020-05-09T11:23:22.000Z</time>
        <extensions>
          <ns3:TrackPointExtension>
            <ns3:atemp>28.0</ns3:atemp>
            <ns3:hr>123</ns3:hr>
          </ns3:TrackPointExtension>
        </extensions>
      </trkpt>
      <trkpt lat="43.04052201099693775177001953125" lon="13.85424516163766384124755859375">
        <ele>0</ele>
        <time>2020-05-09T11:23:24.000Z</time>
        <extensions>
          <ns3:TrackPointExtension>
            <ns3:atemp>28.0</ns3:atemp>
            <ns3:hr>121</ns3:hr>
          </ns3:TrackPointExtension>
        </extensions>
      </trkpt>
      <trkpt lat="43.04051983170211315155029296875" lon="13.8541250489652156829833984375">
        <ele>0</ele>
        <time>2020-05-09T11:23:26.000Z</time>
        <extensions>
          <ns3:TrackPointExtension>
            <ns3:atemp>28.0</ns3:atemp>
            <ns3:hr>120</ns3:hr>
          </ns3:TrackPointExtension>
        </extensions>
      </trkpt>
      <trkpt lat="43.0405003018677234649658203125" lon="13.8540006615221500396728515625">
        <ele>0</ele>
        <time>2020-05-09T11:23:28.000Z</time>
        <extensions>
          <ns3:TrackPointExtension>
            <ns3:atemp>28.0</ns3:atemp>
            <ns3:hr>119</ns3:hr>
          </ns3:TrackPointExtension>
        </extensions>
      </trkpt>
      <trkpt lat="43.0404114536941051483154296875" lon="13.8534794747829437255859375">
        <ele>-0.800000011920928955078125</ele>
        <time>2020-05-09T11:23:36.000Z</time>
        <extensions>
          <ns3:TrackPointExtension>
            <ns3:atemp>28.0</ns3:atemp>
            <ns3:hr>121</ns3:hr>
          </ns3:TrackPointExtension>
        </extensions>
      </trkpt>
      <trkpt lat="43.0404000543057918548583984375" lon="13.8533507287502288818359375">
        <ele>-1</ele>
        <time>2020-05-09T11:23:38.000Z</time>
        <extensions>
          <ns3:TrackPointExtension>
            <ns3:atemp>28.0</ns3:atemp>
            <ns3:hr>124</ns3:hr>
          </ns3:TrackPointExtension>
        </extensions>
      </trkpt>
      <trkpt lat="43.04038622416555881500244140625" lon="13.85315903462469577789306640625">
        <ele>-1.2000000476837158203125</ele>
        <time>2020-05-09T11:23:42.000Z</time>
        <extensions>
          <ns3:TrackPointExtension>
            <ns3:atemp>28.0</ns3:atemp>
            <ns3:hr>122</ns3:hr>
          </ns3:TrackPointExtension>
        </extensions>
      </trkpt>
      <trkpt lat="43.04034666158258914947509765625" lon="13.85300405323505401611328125">
        <ele>-0.800000011920928955078125</ele>
        <time>2020-05-09T11:23:47.000Z</time>
        <extensions>
          <ns3:TrackPointExtension>
            <ns3:atemp>28.0</ns3:atemp>
            <ns3:hr>119</ns3:hr>
          </ns3:TrackPointExtension>
        </extensions>
      </trkpt>
      <trkpt lat="43.0403418838977813720703125" lon="13.85292828083038330078125">
        <ele>-1</ele>
        <time>2020-05-09T11:23:49.000Z</time>
        <extensions>
          <ns3:TrackPointExtension>
            <ns3:atemp>28.0</ns3:atemp>
            <ns3:hr>119</ns3:hr>
          </ns3:TrackPointExtension>
        </extensions>
      </trkpt>
      <trkpt lat="43.04032134823501110076904296875" lon="13.85275217704474925994873046875">
        <ele>-1.39999997615814208984375</ele>
        <time>2020-05-09T11:23:53.000Z</time>
        <extensions>
          <ns3:TrackPointExtension>
            <ns3:atemp>28.0</ns3:atemp>
            <ns3:hr>123</ns3:hr>
          </ns3:TrackPointExtension>
        </extensions>
      </trkpt>
      <trkpt lat="43.04030391387641429901123046875" lon="13.8526085950434207916259765625">
        <ele>-1.39999997615814208984375</ele>
        <time>2020-05-09T11:23:56.000Z</time>
        <extensions>
          <ns3:TrackPointExtension>
            <ns3:atemp>28.0</ns3:atemp>
            <ns3:hr>126</ns3:hr>
          </ns3:TrackPointExtension>
        </extensions>
      </trkpt>
      <trkpt lat="43.04026250727474689483642578125" lon="13.85225194506347179412841796875">
        <ele>-1.60000002384185791015625</ele>
        <time>2020-05-09T11:24:03.000Z</time>
        <extensions>
          <ns3:TrackPointExtension>
            <ns3:atemp>28.0</ns3:atemp>
            <ns3:hr>119</ns3:hr>
          </ns3:TrackPointExtension>
        </extensions>
      </trkpt>
      <trkpt lat="43.04025563411414623260498046875" lon="13.852197043597698211669921875">
        <ele>-1.60000002384185791015625</ele>
        <time>2020-05-09T11:24:04.000Z</time>
        <extensions>
          <ns3:TrackPointExtension>
            <ns3:atemp>28.0</ns3:atemp>
            <ns3:hr>116</ns3:hr>
          </ns3:TrackPointExtension>
        </extensions>
      </trkpt>
      <trkpt lat="43.04024859331548213958740234375" lon="13.85214172303676605224609375">
        <ele>-1.60000002384185791015625</ele>
        <time>2020-05-09T11:24:05.000Z</time>
        <extensions>
          <ns3:TrackPointExtension>
            <ns3:atemp>28.0</ns3:atemp>
            <ns3:hr>115</ns3:hr>
          </ns3:TrackPointExtension>
        </extensions>
      </trkpt>
      <trkpt lat="43.04024071432650089263916015625" lon="13.85208615101873874664306640625">
        <ele>-1.60000002384185791015625</ele>
        <time>2020-05-09T11:24:06.000Z</time>
        <extensions>
          <ns3:TrackPointExtension>
            <ns3:atemp>28.0</ns3:atemp>
            <ns3:hr>108</ns3:hr>
          </ns3:TrackPointExtension>
        </extensions>
      </trkpt>
      <trkpt lat="43.04021774791181087493896484375" lon="13.85191683657467365264892578125">
        <ele>-1.60000002384185791015625</ele>
        <time>2020-05-09T11:24:09.000Z</time>
        <extensions>
          <ns3:TrackPointExtension>
            <ns3:atemp>28.0</ns3:atemp>
            <ns3:hr>105</ns3:hr>
          </ns3:TrackPointExtension>
        </extensions>
      </trkpt>
      <trkpt lat="43.04017315618693828582763671875" lon="13.851624391973018646240234375">
        <ele>-1.7999999523162841796875</ele>
        <time>2020-05-09T11:24:14.000Z</time>
        <extensions>
          <ns3:TrackPointExtension>
            <ns3:atemp>29.0</ns3:atemp>
            <ns3:hr>108</ns3:hr>
          </ns3:TrackPointExtension>
        </extensions>
      </trkpt>
      <trkpt lat="43.0401579849421977996826171875" lon="13.85150796733796596527099609375">
        <ele>-1.7999999523162841796875</ele>
        <time>2020-05-09T11:24:16.000Z</time>
        <extensions>
          <ns3:TrackPointExtension>
            <ns3:atemp>29.0</ns3:atemp>
            <ns3:hr>107</ns3:hr>
          </ns3:TrackPointExtension>
        </extensions>
      </trkpt>
      <trkpt lat="43.04013669490814208984375" lon="13.85133446194231510162353515625">
        <ele>-1.60000002384185791015625</ele>
        <time>2020-05-09T11:24:19.000Z</time>
        <extensions>
          <ns3:TrackPointExtension>
            <ns3:atemp>29.0</ns3:atemp>
            <ns3:hr>110</ns3:hr>
          </ns3:TrackPointExtension>
        </extensions>
      </trkpt>
      <trkpt lat="43.04009713232517242431640625" lon="13.85104000568389892578125">
        <ele>-1.2000000476837158203125</ele>
        <time>2020-05-09T11:24:24.000Z</time>
        <extensions>
          <ns3:TrackPointExtension>
            <ns3:atemp>29.0</ns3:atemp>
            <ns3:hr>113</ns3:hr>
          </ns3:TrackPointExtension>
        </extensions>
      </trkpt>
      <trkpt lat="43.04008061997592449188232421875" lon="13.85091637261211872100830078125">
        <ele>-1.2000000476837158203125</ele>
        <time>2020-05-09T11:24:26.000Z</time>
        <extensions>
          <ns3:TrackPointExtension>
            <ns3:atemp>29.0</ns3:atemp>
            <ns3:hr>111</ns3:hr>
          </ns3:TrackPointExtension>
        </extensions>
      </trkpt>
      <trkpt lat="43.0400173366069793701171875" lon="13.85037280619144439697265625">
        <ele>-1.2000000476837158203125</ele>
        <time>2020-05-09T11:24:35.000Z</time>
        <extensions>
          <ns3:TrackPointExtension>
            <ns3:atemp>29.0</ns3:atemp>
            <ns3:hr>116</ns3:hr>
          </ns3:TrackPointExtension>
        </extensions>
      </trkpt>
      <trkpt lat="43.0400084517896175384521484375" lon="13.85025478899478912353515625">
        <ele>-1</ele>
        <time>2020-05-09T11:24:37.000Z</time>
        <extensions>
          <ns3:TrackPointExtension>
            <ns3:atemp>29.0</ns3:atemp>
            <ns3:hr>113</ns3:hr>
          </ns3:TrackPointExtension>
        </extensions>
      </trkpt>
      <trkpt lat="43.039962686598300933837890625" lon="13.84981532581150531768798828125">
        <ele>-1</ele>
        <time>2020-05-09T11:24:45.000Z</time>
        <extensions>
          <ns3:TrackPointExtension>
            <ns3:atemp>29.0</ns3:atemp>
            <ns3:hr>113</ns3:hr>
          </ns3:TrackPointExtension>
        </extensions>
      </trkpt>
      <trkpt lat="43.03996008820831775665283203125" lon="13.84971390478312969207763671875">
        <ele>-0.800000011920928955078125</ele>
        <time>2020-05-09T11:24:47.000Z</time>
        <extensions>
          <ns3:TrackPointExtension>
            <ns3:atemp>29.0</ns3:atemp>
            <ns3:hr>114</ns3:hr>
          </ns3:TrackPointExtension>
        </extensions>
      </trkpt>
      <trkpt lat="43.03992689587175846099853515625" lon="13.84959622286260128021240234375">
        <ele>-0.60000002384185791015625</ele>
        <time>2020-05-09T11:24:49.000Z</time>
        <extensions>
          <ns3:TrackPointExtension>
            <ns3:atemp>29.0</ns3:atemp>
            <ns3:hr>114</ns3:hr>
          </ns3:TrackPointExtension>
        </extensions>
      </trkpt>
      <trkpt lat="43.0399145744740962982177734375" lon="13.8495317660272121429443359375">
        <ele>-0.4000000059604644775390625</ele>
        <time>2020-05-09T11:24:50.000Z</time>
        <extensions>
          <ns3:TrackPointExtension>
            <ns3:atemp>29.0</ns3:atemp>
            <ns3:hr>114</ns3:hr>
          </ns3:TrackPointExtension>
        </extensions>
      </trkpt>
      <trkpt lat="43.03990401327610015869140625" lon="13.84947133250534534454345703125">
        <ele>-0.20000000298023223876953125</ele>
        <time>2020-05-09T11:24:51.000Z</time>
        <extensions>
          <ns3:TrackPointExtension>
            <ns3:atemp>29.0</ns3:atemp>
            <ns3:hr>116</ns3:hr>
          </ns3:TrackPointExtension>
        </extensions>
      </trkpt>
      <trkpt lat="43.039893619716167449951171875" lon="13.84941215626895427703857421875">
        <ele>-0.20000000298023223876953125</ele>
        <time>2020-05-09T11:24:52.000Z</time>
        <extensions>
          <ns3:TrackPointExtension>
            <ns3:atemp>29.0</ns3:atemp>
            <ns3:hr>115</ns3:hr>
          </ns3:TrackPointExtension>
        </extensions>
      </trkpt>
      <trkpt lat="43.03985011763870716094970703125" lon="13.84909733198583126068115234375">
        <ele>0.20000000298023223876953125</ele>
        <time>2020-05-09T11:24:57.000Z</time>
        <extensions>
          <ns3:TrackPointExtension>
            <ns3:atemp>29.0</ns3:atemp>
            <ns3:hr>115</ns3:hr>
          </ns3:TrackPointExtension>
        </extensions>
      </trkpt>
      <trkpt lat="43.03978490643203258514404296875" lon="13.848599530756473541259765625">
        <ele>0.4000000059604644775390625</ele>
        <time>2020-05-09T11:25:05.000Z</time>
        <extensions>
          <ns3:TrackPointExtension>
            <ns3:atemp>29.0</ns3:atemp>
            <ns3:hr>116</ns3:hr>
          </ns3:TrackPointExtension>
        </extensions>
      </trkpt>
      <trkpt lat="43.039756156504154205322265625" lon="13.8483036495745182037353515625">
        <ele>0.60000002384185791015625</ele>
        <time>2020-05-09T11:25:10.000Z</time>
        <extensions>
          <ns3:TrackPointExtension>
            <ns3:atemp>29.0</ns3:atemp>
            <ns3:hr>114</ns3:hr>
          </ns3:TrackPointExtension>
        </extensions>
      </trkpt>
      <trkpt lat="43.0397677235305309295654296875" lon="13.84824891574680805206298828125">
        <ele>0.800000011920928955078125</ele>
        <time>2020-05-09T11:25:11.000Z</time>
        <extensions>
          <ns3:TrackPointExtension>
            <ns3:atemp>29.0</ns3:atemp>
            <ns3:hr>111</ns3:hr>
          </ns3:TrackPointExtension>
        </extensions>
      </trkpt>
      <trkpt lat="43.03980049677193164825439453125" lon="13.848221339285373687744140625">
        <ele>1</ele>
        <time>2020-05-09T11:25:12.000Z</time>
        <extensions>
          <ns3:TrackPointExtension>
            <ns3:atemp>29.0</ns3:atemp>
            <ns3:hr>111</ns3:hr>
          </ns3:TrackPointExtension>
        </extensions>
      </trkpt>
      <trkpt lat="43.03988121449947357177734375" lon="13.8482168130576610565185546875">
        <ele>1.39999997615814208984375</ele>
        <time>2020-05-09T11:25:14.000Z</time>
        <extensions>
          <ns3:TrackPointExtension>
            <ns3:atemp>28.0</ns3:atemp>
            <ns3:hr>106</ns3:hr>
          </ns3:TrackPointExtension>
        </extensions>
      </trkpt>
      <trkpt lat="43.0399212799966335296630859375" lon="13.8482201658189296722412109375">
        <ele>1.60000002384185791015625</ele>
        <time>2020-05-09T11:25:15.000Z</time>
        <extensions>
          <ns3:TrackPointExtension>
            <ns3:atemp>28.0</ns3:atemp>
            <ns3:hr>105</ns3:hr>
          </ns3:TrackPointExtension>
        </extensions>
      </trkpt>
      <trkpt lat="43.03995807655155658721923828125" lon="13.84821957908570766448974609375">
        <ele>1.7999999523162841796875</ele>
        <time>2020-05-09T11:25:16.000Z</time>
        <extensions>
          <ns3:TrackPointExtension>
            <ns3:atemp>28.0</ns3:atemp>
            <ns3:hr>103</ns3:hr>
          </ns3:TrackPointExtension>
        </extensions>
      </trkpt>
      <trkpt lat="43.04014164023101329803466796875" lon="13.848205246031284332275390625">
        <ele>2.2000000476837158203125</ele>
        <time>2020-05-09T11:25:21.000Z</time>
        <extensions>
          <ns3:TrackPointExtension>
            <ns3:atemp>28.0</ns3:atemp>
            <ns3:hr>99</ns3:hr>
          </ns3:TrackPointExtension>
        </extensions>
      </trkpt>
      <trkpt lat="43.040206097066402435302734375" lon="13.8481909967958927154541015625">
        <ele>2.400000095367431640625</ele>
        <time>2020-05-09T11:25:23.000Z</time>
        <extensions>
          <ns3:TrackPointExtension>
            <ns3:atemp>28.0</ns3:atemp>
            <ns3:hr>99</ns3:hr>
          </ns3:TrackPointExtension>
        </extensions>
      </trkpt>
      <trkpt lat="43.04027306847274303436279296875" lon="13.848176412284374237060546875">
        <ele>2.2000000476837158203125</ele>
        <time>2020-05-09T11:25:25.000Z</time>
        <extensions>
          <ns3:TrackPointExtension>
            <ns3:atemp>28.0</ns3:atemp>
            <ns3:hr>95</ns3:hr>
          </ns3:TrackPointExtension>
        </extensions>
      </trkpt>
      <trkpt lat="43.04033584892749786376953125" lon="13.84816342033445835113525390625">
        <ele>2.2000000476837158203125</ele>
        <time>2020-05-09T11:25:27.000Z</time>
        <extensions>
          <ns3:TrackPointExtension>
            <ns3:atemp>28.0</ns3:atemp>
            <ns3:hr>98</ns3:hr>
          </ns3:TrackPointExtension>
        </extensions>
      </trkpt>
      <trkpt lat="43.0404550395905971527099609375" lon="13.84812369011342525482177734375">
        <ele>3</ele>
        <time>2020-05-09T11:25:31.000Z</time>
        <extensions>
          <ns3:TrackPointExtension>
            <ns3:atemp>28.0</ns3:atemp>
            <ns3:hr>100</ns3:hr>
          </ns3:TrackPointExtension>
        </extensions>
      </trkpt>
      <trkpt lat="43.040607087314128875732421875" lon="13.84809837676584720611572265625">
        <ele>4.19999980926513671875</ele>
        <time>2020-05-09T11:25:36.000Z</time>
        <extensions>
          <ns3:TrackPointExtension>
            <ns3:atemp>28.0</ns3:atemp>
            <ns3:hr>99</ns3:hr>
          </ns3:TrackPointExtension>
        </extensions>
      </trkpt>
      <trkpt lat="43.04065276868641376495361328125" lon="13.8480947725474834442138671875">
        <ele>4.599999904632568359375</ele>
        <time>2020-05-09T11:25:38.000Z</time>
        <extensions>
          <ns3:TrackPointExtension>
            <ns3:atemp>28.0</ns3:atemp>
            <ns3:hr>97</ns3:hr>
          </ns3:TrackPointExtension>
        </extensions>
      </trkpt>
      <trkpt lat="43.0407229252159595489501953125" lon="13.8480786792933940887451171875">
        <ele>5</ele>
        <time>2020-05-09T11:25:41.000Z</time>
        <extensions>
          <ns3:TrackPointExtension>
            <ns3:atemp>28.0</ns3:atemp>
            <ns3:hr>94</ns3:hr>
          </ns3:TrackPointExtension>
        </extensions>
      </trkpt>
      <trkpt lat="43.0407737195491790771484375" lon="13.84806971065700054168701171875">
        <ele>5.19999980926513671875</ele>
        <time>2020-05-09T11:25:43.000Z</time>
        <extensions>
          <ns3:TrackPointExtension>
            <ns3:atemp>28.0</ns3:atemp>
            <ns3:hr>95</ns3:hr>
          </ns3:TrackPointExtension>
        </extensions>
      </trkpt>
      <trkpt lat="43.04082803428173065185546875" lon="13.84805671870708465576171875">
        <ele>5.400000095367431640625</ele>
        <time>2020-05-09T11:25:45.000Z</time>
        <extensions>
          <ns3:TrackPointExtension>
            <ns3:atemp>28.0</ns3:atemp>
            <ns3:hr>96</ns3:hr>
          </ns3:TrackPointExtension>
        </extensions>
      </trkpt>
      <trkpt lat="43.04097689688205718994140625" lon="13.84801506064832210540771484375">
        <ele>6.19999980926513671875</ele>
        <time>2020-05-09T11:25:51.000Z</time>
        <extensions>
          <ns3:TrackPointExtension>
            <ns3:atemp>29.0</ns3:atemp>
            <ns3:hr>97</ns3:hr>
          </ns3:TrackPointExtension>
        </extensions>
      </trkpt>
      <trkpt lat="43.04099927656352519989013671875" lon="13.84800785221159458160400390625">
        <ele>6.400000095367431640625</ele>
        <time>2020-05-09T11:25:52.000Z</time>
        <extensions>
          <ns3:TrackPointExtension>
            <ns3:atemp>29.0</ns3:atemp>
            <ns3:hr>95</ns3:hr>
          </ns3:TrackPointExtension>
        </extensions>
      </trkpt>
      <trkpt lat="43.04113104008138179779052734375" lon="13.8479951955378055572509765625">
        <ele>6.80000019073486328125</ele>
        <time>2020-05-09T11:25:58.000Z</time>
        <extensions>
          <ns3:TrackPointExtension>
            <ns3:atemp>29.0</ns3:atemp>
            <ns3:hr>95</ns3:hr>
          </ns3:TrackPointExtension>
        </extensions>
      </trkpt>
      <trkpt lat="43.04130538366734981536865234375" lon="13.8479710556566715240478515625">
        <ele>7.400000095367431640625</ele>
        <time>2020-05-09T11:26:02.000Z</time>
        <extensions>
          <ns3:TrackPointExtension>
            <ns3:atemp>29.0</ns3:atemp>
            <ns3:hr>96</ns3:hr>
          </ns3:TrackPointExtension>
        </extensions>
      </trkpt>
      <trkpt lat="43.0413798987865447998046875" lon="13.847955130040645599365234375">
        <ele>7.80000019073486328125</ele>
        <time>2020-05-09T11:26:04.000Z</time>
        <extensions>
          <ns3:TrackPointExtension>
            <ns3:atemp>29.0</ns3:atemp>
            <ns3:hr>95</ns3:hr>
          </ns3:TrackPointExtension>
        </extensions>
      </trkpt>
      <trkpt lat="43.04145357571542263031005859375" lon="13.84794012643396854400634765625">
        <ele>8.6000003814697265625</ele>
        <time>2020-05-09T11:26:06.000Z</time>
        <extensions>
          <ns3:TrackPointExtension>
            <ns3:atemp>29.0</ns3:atemp>
            <ns3:hr>92</ns3:hr>
          </ns3:TrackPointExtension>
        </extensions>
      </trkpt>
      <trkpt lat="43.04155667312443256378173828125" lon="13.84791799820959568023681640625">
        <ele>9.6000003814697265625</ele>
        <time>2020-05-09T11:26:09.000Z</time>
        <extensions>
          <ns3:TrackPointExtension>
            <ns3:atemp>29.0</ns3:atemp>
            <ns3:hr>93</ns3:hr>
          </ns3:TrackPointExtension>
        </extensions>
      </trkpt>
      <trkpt lat="43.041749037802219390869140625" lon="13.84788773953914642333984375">
        <ele>9.80000019073486328125</ele>
        <time>2020-05-09T11:26:15.000Z</time>
        <extensions>
          <ns3:TrackPointExtension>
            <ns3:atemp>29.0</ns3:atemp>
            <ns3:hr>96</ns3:hr>
          </ns3:TrackPointExtension>
        </extensions>
      </trkpt>
      <trkpt lat="43.04181232117116451263427734375" lon="13.84788698516786098480224609375">
        <ele>9.80000019073486328125</ele>
        <time>2020-05-09T11:26:17.000Z</time>
        <extensions>
          <ns3:TrackPointExtension>
            <ns3:atemp>29.0</ns3:atemp>
            <ns3:hr>99</ns3:hr>
          </ns3:TrackPointExtension>
        </extensions>
      </trkpt>
      <trkpt lat="43.04196118377149105072021484375" lon="13.84789452888071537017822265625">
        <ele>10.3999996185302734375</ele>
        <time>2020-05-09T11:26:22.000Z</time>
        <extensions>
          <ns3:TrackPointExtension>
            <ns3:atemp>28.0</ns3:atemp>
            <ns3:hr>103</ns3:hr>
          </ns3:TrackPointExtension>
        </extensions>
      </trkpt>
      <trkpt lat="43.04202253930270671844482421875" lon="13.84790291078388690948486328125">
        <ele>10.6000003814697265625</ele>
        <time>2020-05-09T11:26:24.000Z</time>
        <extensions>
          <ns3:TrackPointExtension>
            <ns3:atemp>28.0</ns3:atemp>
            <ns3:hr>108</ns3:hr>
          </ns3:TrackPointExtension>
        </extensions>
      </trkpt>
      <trkpt lat="43.04205388762056827545166015625" lon="13.84790458716452121734619140625">
        <ele>10.80000019073486328125</ele>
        <time>2020-05-09T11:26:25.000Z</time>
        <extensions>
          <ns3:TrackPointExtension>
            <ns3:atemp>28.0</ns3:atemp>
            <ns3:hr>108</ns3:hr>
          </ns3:TrackPointExtension>
        </extensions>
      </trkpt>
      <trkpt lat="43.04214474745094776153564453125" lon="13.84791456162929534912109375">
        <ele>11.80000019073486328125</ele>
        <time>2020-05-09T11:26:28.000Z</time>
        <extensions>
          <ns3:TrackPointExtension>
            <ns3:atemp>28.0</ns3:atemp>
            <ns3:hr>114</ns3:hr>
          </ns3:TrackPointExtension>
        </extensions>
      </trkpt>
      <trkpt lat="43.04222588427364826202392578125" lon="13.84792386554181575775146484375">
        <ele>12.6000003814697265625</ele>
        <time>2020-05-09T11:26:31.000Z</time>
        <extensions>
          <ns3:TrackPointExtension>
            <ns3:atemp>28.0</ns3:atemp>
            <ns3:hr>116</ns3:hr>
          </ns3:TrackPointExtension>
        </extensions>
      </trkpt>
      <trkpt lat="43.04225228726863861083984375" lon="13.847925961017608642578125">
        <ele>12.80000019073486328125</ele>
        <time>2020-05-09T11:26:32.000Z</time>
        <extensions>
          <ns3:TrackPointExtension>
            <ns3:atemp>28.0</ns3:atemp>
            <ns3:hr>118</ns3:hr>
          </ns3:TrackPointExtension>
        </extensions>
      </trkpt>
      <trkpt lat="43.04238430224359035491943359375" lon="13.8479438982903957366943359375">
        <ele>13.6000003814697265625</ele>
        <time>2020-05-09T11:26:37.000Z</time>
        <extensions>
          <ns3:TrackPointExtension>
            <ns3:atemp>28.0</ns3:atemp>
            <ns3:hr>121</ns3:hr>
          </ns3:TrackPointExtension>
        </extensions>
      </trkpt>
      <trkpt lat="43.042435012757778167724609375" lon="13.8479514420032501220703125">
        <ele>13.80000019073486328125</ele>
        <time>2020-05-09T11:26:39.000Z</time>
        <extensions>
          <ns3:TrackPointExtension>
            <ns3:atemp>28.0</ns3:atemp>
            <ns3:hr>121</ns3:hr>
          </ns3:TrackPointExtension>
        </extensions>
      </trkpt>
      <trkpt lat="43.04265704937279224395751953125" lon="13.84797357022762298583984375">
        <ele>14.6000003814697265625</ele>
        <time>2020-05-09T11:26:46.000Z</time>
        <extensions>
          <ns3:TrackPointExtension>
            <ns3:atemp>28.0</ns3:atemp>
            <ns3:hr>120</ns3:hr>
          </ns3:TrackPointExtension>
        </extensions>
      </trkpt>
      <trkpt lat="43.04271505214273929595947265625" lon="13.84797700680792331695556640625">
        <ele>14.80000019073486328125</ele>
        <time>2020-05-09T11:26:48.000Z</time>
        <extensions>
          <ns3:TrackPointExtension>
            <ns3:atemp>28.0</ns3:atemp>
            <ns3:hr>120</ns3:hr>
          </ns3:TrackPointExtension>
        </extensions>
      </trkpt>
      <trkpt lat="43.0429035611450672149658203125" lon="13.8479921780526638031005859375">
        <ele>15.3999996185302734375</ele>
        <time>2020-05-09T11:26:54.000Z</time>
        <extensions>
          <ns3:TrackPointExtension>
            <ns3:atemp>28.0</ns3:atemp>
            <ns3:hr>122</ns3:hr>
          </ns3:TrackPointExtension>
        </extensions>
      </trkpt>
      <trkpt lat="43.04297204129397869110107421875" lon="13.84800709784030914306640625">
        <ele>15.80000019073486328125</ele>
        <time>2020-05-09T11:26:56.000Z</time>
        <extensions>
          <ns3:TrackPointExtension>
            <ns3:atemp>28.0</ns3:atemp>
            <ns3:hr>120</ns3:hr>
          </ns3:TrackPointExtension>
        </extensions>
      </trkpt>
      <trkpt lat="43.04315728135406970977783203125" lon="13.848049007356166839599609375">
        <ele>16.3999996185302734375</ele>
        <time>2020-05-09T11:27:02.000Z</time>
        <extensions>
          <ns3:TrackPointExtension>
            <ns3:atemp>28.0</ns3:atemp>
            <ns3:hr>120</ns3:hr>
          </ns3:TrackPointExtension>
        </extensions>
      </trkpt>
      <trkpt lat="43.04333564825356006622314453125" lon="13.84808111004531383514404296875">
        <ele>16.799999237060546875</ele>
        <time>2020-05-09T11:27:07.000Z</time>
        <extensions>
          <ns3:TrackPointExtension>
            <ns3:atemp>28.0</ns3:atemp>
            <ns3:hr>121</ns3:hr>
          </ns3:TrackPointExtension>
        </extensions>
      </trkpt>
      <trkpt lat="43.04344126023352146148681640625" lon="13.84809703566133975982666015625">
        <ele>17.3999996185302734375</ele>
        <time>2020-05-09T11:27:10.000Z</time>
        <extensions>
          <ns3:TrackPointExtension>
            <ns3:atemp>28.0</ns3:atemp>
            <ns3:hr>122</ns3:hr>
          </ns3:TrackPointExtension>
        </extensions>
      </trkpt>
      <trkpt lat="43.043539412319660186767578125" lon="13.84811849333345890045166015625">
        <ele>18</ele>
        <time>2020-05-09T11:27:13.000Z</time>
        <extensions>
          <ns3:TrackPointExtension>
            <ns3:atemp>28.0</ns3:atemp>
            <ns3:hr>123</ns3:hr>
          </ns3:TrackPointExtension>
        </extensions>
      </trkpt>
      <trkpt lat="43.043630607426166534423828125" lon="13.84814112447202205657958984375">
        <ele>18.6000003814697265625</ele>
        <time>2020-05-09T11:27:16.000Z</time>
        <extensions>
          <ns3:TrackPointExtension>
            <ns3:atemp>28.0</ns3:atemp>
            <ns3:hr>126</ns3:hr>
          </ns3:TrackPointExtension>
        </extensions>
      </trkpt>
      <trkpt lat="43.04371635429561138153076171875" lon="13.84814565069973468780517578125">
        <ele>19</ele>
        <time>2020-05-09T11:27:19.000Z</time>
        <extensions>
          <ns3:TrackPointExtension>
            <ns3:atemp>28.0</ns3:atemp>
            <ns3:hr>123</ns3:hr>
          </ns3:TrackPointExtension>
        </extensions>
      </trkpt>
      <trkpt lat="43.04374150000512599945068359375" lon="13.8481527753174304962158203125">
        <ele>19</ele>
        <time>2020-05-09T11:27:20.000Z</time>
        <extensions>
          <ns3:TrackPointExtension>
            <ns3:atemp>28.0</ns3:atemp>
            <ns3:hr>123</ns3:hr>
          </ns3:TrackPointExtension>
        </extensions>
      </trkpt>
      <trkpt lat="43.04378651082515716552734375" lon="13.8481794297695159912109375">
        <ele>19</ele>
        <time>2020-05-09T11:27:22.000Z</time>
        <extensions>
          <ns3:TrackPointExtension>
            <ns3:atemp>28.0</ns3:atemp>
            <ns3:hr>121</ns3:hr>
          </ns3:TrackPointExtension>
        </extensions>
      </trkpt>
      <trkpt lat="43.04382045753300189971923828125" lon="13.84822075255215167999267578125">
        <ele>19.200000762939453125</ele>
        <time>2020-05-09T11:27:24.000Z</time>
        <extensions>
          <ns3:TrackPointExtension>
            <ns3:atemp>28.0</ns3:atemp>
            <ns3:hr>124</ns3:hr>
          </ns3:TrackPointExtension>
        </extensions>
      </trkpt>
      <trkpt lat="43.043829761445522308349609375" lon="13.8482466526329517364501953125">
        <ele>19.200000762939453125</ele>
        <time>2020-05-09T11:27:25.000Z</time>
        <extensions>
          <ns3:TrackPointExtension>
            <ns3:atemp>28.0</ns3:atemp>
            <ns3:hr>121</ns3:hr>
          </ns3:TrackPointExtension>
        </extensions>
      </trkpt>
      <trkpt lat="43.04383479058742523193359375" lon="13.848281688988208770751953125">
        <ele>19.200000762939453125</ele>
        <time>2020-05-09T11:27:26.000Z</time>
        <extensions>
          <ns3:TrackPointExtension>
            <ns3:atemp>28.0</ns3:atemp>
            <ns3:hr>123</ns3:hr>
          </ns3:TrackPointExtension>
        </extensions>
      </trkpt>
      <trkpt lat="43.0438346229493618011474609375" lon="13.8484394364058971405029296875">
        <ele>19.3999996185302734375</ele>
        <time>2020-05-09T11:27:30.000Z</time>
        <extensions>
          <ns3:TrackPointExtension>
            <ns3:atemp>28.0</ns3:atemp>
            <ns3:hr>120</ns3:hr>
          </ns3:TrackPointExtension>
        </extensions>
      </trkpt>
      <trkpt lat="43.04382330738008022308349609375" lon="13.84852233342826366424560546875">
        <ele>19.3999996185302734375</ele>
        <time>2020-05-09T11:27:32.000Z</time>
        <extensions>
          <ns3:TrackPointExtension>
            <ns3:atemp>28.0</ns3:atemp>
            <ns3:hr>118</ns3:hr>
          </ns3:TrackPointExtension>
        </extensions>
      </trkpt>
      <trkpt lat="43.043878376483917236328125" lon="13.848570697009563446044921875">
        <ele>19.3999996185302734375</ele>
        <time>2020-05-09T11:27:33.000Z</time>
        <extensions>
          <ns3:TrackPointExtension>
            <ns3:atemp>28.0</ns3:atemp>
            <ns3:hr>118</ns3:hr>
          </ns3:TrackPointExtension>
        </extensions>
      </trkpt>
      <trkpt lat="43.04390561766922473907470703125" lon="13.84864806197583675384521484375">
        <ele>19.799999237060546875</ele>
        <time>2020-05-09T11:27:36.000Z</time>
        <extensions>
          <ns3:TrackPointExtension>
            <ns3:atemp>28.0</ns3:atemp>
            <ns3:hr>118</ns3:hr>
          </ns3:TrackPointExtension>
        </extensions>
      </trkpt>
      <trkpt lat="43.04395490325987339019775390625" lon="13.848714865744113922119140625">
        <ele>20</ele>
        <time>2020-05-09T11:27:39.000Z</time>
        <extensions>
          <ns3:TrackPointExtension>
            <ns3:atemp>28.0</ns3:atemp>
            <ns3:hr>119</ns3:hr>
          </ns3:TrackPointExtension>
        </extensions>
      </trkpt>
      <trkpt lat="43.04399061016738414764404296875" lon="13.84871545247733592987060546875">
        <ele>20.6000003814697265625</ele>
        <time>2020-05-09T11:27:41.000Z</time>
        <extensions>
          <ns3:TrackPointExtension>
            <ns3:atemp>28.0</ns3:atemp>
            <ns3:hr>118</ns3:hr>
          </ns3:TrackPointExtension>
        </extensions>
      </trkpt>
      <trkpt lat="43.04403788410127162933349609375" lon="13.84871277026832103729248046875">
        <ele>21.3999996185302734375</ele>
        <time>2020-05-09T11:27:43.000Z</time>
        <extensions>
          <ns3:TrackPointExtension>
            <ns3:atemp>28.0</ns3:atemp>
            <ns3:hr>117</ns3:hr>
          </ns3:TrackPointExtension>
        </extensions>
      </trkpt>
      <trkpt lat="43.0440830625593662261962890625" lon="13.84869835339486598968505859375">
        <ele>21.799999237060546875</ele>
        <time>2020-05-09T11:27:45.000Z</time>
        <extensions>
          <ns3:TrackPointExtension>
            <ns3:atemp>28.0</ns3:atemp>
            <ns3:hr>113</ns3:hr>
          </ns3:TrackPointExtension>
        </extensions>
      </trkpt>
      <trkpt lat="43.0441273190081119537353515625" lon="13.848674632608890533447265625">
        <ele>22.200000762939453125</ele>
        <time>2020-05-09T11:27:47.000Z</time>
        <extensions>
          <ns3:TrackPointExtension>
            <ns3:atemp>28.0</ns3:atemp>
            <ns3:hr>112</ns3:hr>
          </ns3:TrackPointExtension>
        </extensions>
      </trkpt>
      <trkpt lat="43.04415120743215084075927734375" lon="13.84866155683994293212890625">
        <ele>22.3999996185302734375</ele>
        <time>2020-05-09T11:27:48.000Z</time>
        <extensions>
          <ns3:TrackPointExtension>
            <ns3:atemp>28.0</ns3:atemp>
            <ns3:hr>114</ns3:hr>
          </ns3:TrackPointExtension>
        </extensions>
      </trkpt>
      <trkpt lat="43.04427827708423137664794921875" lon="13.8486114330589771270751953125">
        <ele>23.3999996185302734375</ele>
        <time>2020-05-09T11:27:53.000Z</time>
        <extensions>
          <ns3:TrackPointExtension>
            <ns3:atemp>28.0</ns3:atemp>
            <ns3:hr>115</ns3:hr>
          </ns3:TrackPointExtension>
        </extensions>
      </trkpt>
      <trkpt lat="43.04432437755167484283447265625" lon="13.8485879637300968170166015625">
        <ele>23.6000003814697265625</ele>
        <time>2020-05-09T11:27:55.000Z</time>
        <extensions>
          <ns3:TrackPointExtension>
            <ns3:atemp>28.0</ns3:atemp>
            <ns3:hr>115</ns3:hr>
          </ns3:TrackPointExtension>
        </extensions>
      </trkpt>
      <trkpt lat="43.0444443225860595703125" lon="13.8485316373407840728759765625">
        <ele>24.3999996185302734375</ele>
        <time>2020-05-09T11:28:00.000Z</time>
        <extensions>
          <ns3:TrackPointExtension>
            <ns3:atemp>28.0</ns3:atemp>
            <ns3:hr>116</ns3:hr>
          </ns3:TrackPointExtension>
        </extensions>
      </trkpt>
      <trkpt lat="43.0444671213626861572265625" lon="13.84852283634245395660400390625">
        <ele>24.6000003814697265625</ele>
        <time>2020-05-09T11:28:01.000Z</time>
        <extensions>
          <ns3:TrackPointExtension>
            <ns3:atemp>28.0</ns3:atemp>
            <ns3:hr>117</ns3:hr>
          </ns3:TrackPointExtension>
        </extensions>
      </trkpt>
      <trkpt lat="43.044569380581378936767578125" lon="13.84846801869571208953857421875">
        <ele>25.799999237060546875</ele>
        <time>2020-05-09T11:28:07.000Z</time>
        <extensions>
          <ns3:TrackPointExtension>
            <ns3:atemp>28.0</ns3:atemp>
            <ns3:hr>117</ns3:hr>
          </ns3:TrackPointExtension>
        </extensions>
      </trkpt>
      <trkpt lat="43.0446614138782024383544921875" lon="13.84841990657150745391845703125">
        <ele>27</ele>
        <time>2020-05-09T11:28:12.000Z</time>
        <extensions>
          <ns3:TrackPointExtension>
            <ns3:atemp>28.0</ns3:atemp>
            <ns3:hr>117</ns3:hr>
          </ns3:TrackPointExtension>
        </extensions>
      </trkpt>
      <trkpt lat="43.0447231046855449676513671875" lon="13.8483847863972187042236328125">
        <ele>28</ele>
        <time>2020-05-09T11:28:15.000Z</time>
        <extensions>
          <ns3:TrackPointExtension>
            <ns3:atemp>28.0</ns3:atemp>
            <ns3:hr>119</ns3:hr>
          </ns3:TrackPointExtension>
        </extensions>
      </trkpt>
      <trkpt lat="43.04474615491926670074462890625" lon="13.84837933816015720367431640625">
        <ele>28.200000762939453125</ele>
        <time>2020-05-09T11:28:16.000Z</time>
        <extensions>
          <ns3:TrackPointExtension>
            <ns3:atemp>28.0</ns3:atemp>
            <ns3:hr>120</ns3:hr>
          </ns3:TrackPointExtension>
        </extensions>
      </trkpt>
      <trkpt lat="43.0447941832244396209716796875" lon="13.84836575947701930999755859375">
        <ele>28.6000003814697265625</ele>
        <time>2020-05-09T11:28:18.000Z</time>
        <extensions>
          <ns3:TrackPointExtension>
            <ns3:atemp>28.0</ns3:atemp>
            <ns3:hr>123</ns3:hr>
          </ns3:TrackPointExtension>
        </extensions>
      </trkpt>
      <trkpt lat="43.0448635853826999664306640625" lon="13.84834547527134418487548828125">
        <ele>29.200000762939453125</ele>
        <time>2020-05-09T11:28:21.000Z</time>
        <extensions>
          <ns3:TrackPointExtension>
            <ns3:atemp>28.0</ns3:atemp>
            <ns3:hr>125</ns3:hr>
          </ns3:TrackPointExtension>
        </extensions>
      </trkpt>
      <trkpt lat="43.04493491537868976593017578125" lon="13.84833189658820629119873046875">
        <ele>30</ele>
        <time>2020-05-09T11:28:24.000Z</time>
        <extensions>
          <ns3:TrackPointExtension>
            <ns3:atemp>28.0</ns3:atemp>
            <ns3:hr>128</ns3:hr>
          </ns3:TrackPointExtension>
        </extensions>
      </trkpt>
      <trkpt lat="43.04496073164045810699462890625" lon="13.84832904674112796783447265625">
        <ele>30.3999996185302734375</ele>
        <time>2020-05-09T11:28:25.000Z</time>
        <extensions>
          <ns3:TrackPointExtension>
            <ns3:atemp>28.0</ns3:atemp>
            <ns3:hr>129</ns3:hr>
          </ns3:TrackPointExtension>
        </extensions>
      </trkpt>
      <trkpt lat="43.04505653679370880126953125" lon="13.8483241014182567596435546875">
        <ele>31.3999996185302734375</ele>
        <time>2020-05-09T11:28:29.000Z</time>
        <extensions>
          <ns3:TrackPointExtension>
            <ns3:atemp>28.0</ns3:atemp>
            <ns3:hr>130</ns3:hr>
          </ns3:TrackPointExtension>
        </extensions>
      </trkpt>
      <trkpt lat="43.04512283764779567718505859375" lon="13.84834195487201213836669921875">
        <ele>31.799999237060546875</ele>
        <time>2020-05-09T11:28:32.000Z</time>
        <extensions>
          <ns3:TrackPointExtension>
            <ns3:atemp>28.0</ns3:atemp>
            <ns3:hr>132</ns3:hr>
          </ns3:TrackPointExtension>
        </extensions>
      </trkpt>
      <trkpt lat="43.045203052461147308349609375" lon="13.84841890074312686920166015625">
        <ele>32.59999847412109375</ele>
        <time>2020-05-09T11:28:36.000Z</time>
        <extensions>
          <ns3:TrackPointExtension>
            <ns3:atemp>28.0</ns3:atemp>
            <ns3:hr>134</ns3:hr>
          </ns3:TrackPointExtension>
        </extensions>
      </trkpt>
      <trkpt lat="43.045231886208057403564453125" lon="13.8484743051230907440185546875">
        <ele>33.200000762939453125</ele>
        <time>2020-05-09T11:28:38.000Z</time>
        <extensions>
          <ns3:TrackPointExtension>
            <ns3:atemp>28.0</ns3:atemp>
            <ns3:hr>134</ns3:hr>
          </ns3:TrackPointExtension>
        </extensions>
      </trkpt>
      <trkpt lat="43.04527840577065944671630859375" lon="13.84858603589236736297607421875">
        <ele>33.59999847412109375</ele>
        <time>2020-05-09T11:28:42.000Z</time>
        <extensions>
          <ns3:TrackPointExtension>
            <ns3:atemp>28.0</ns3:atemp>
            <ns3:hr>132</ns3:hr>
          </ns3:TrackPointExtension>
        </extensions>
      </trkpt>
      <trkpt lat="43.045351244509220123291015625" lon="13.84879675693809986114501953125">
        <ele>34</ele>
        <time>2020-05-09T11:28:48.000Z</time>
        <extensions>
          <ns3:TrackPointExtension>
            <ns3:atemp>28.0</ns3:atemp>
            <ns3:hr>132</ns3:hr>
          </ns3:TrackPointExtension>
        </extensions>
      </trkpt>
      <trkpt lat="43.04545752704143524169921875" lon="13.84903882630169391632080078125">
        <ele>33.40000152587890625</ele>
        <time>2020-05-09T11:28:54.000Z</time>
        <extensions>
          <ns3:TrackPointExtension>
            <ns3:atemp>28.0</ns3:atemp>
            <ns3:hr>128</ns3:hr>
          </ns3:TrackPointExtension>
        </extensions>
      </trkpt>
      <trkpt lat="43.045471943914890289306640625" lon="13.8490752875804901123046875">
        <ele>33.200000762939453125</ele>
        <time>2020-05-09T11:28:55.000Z</time>
        <extensions>
          <ns3:TrackPointExtension>
            <ns3:atemp>28.0</ns3:atemp>
            <ns3:hr>123</ns3:hr>
          </ns3:TrackPointExtension>
        </extensions>
      </trkpt>
      <trkpt lat="43.045486025512218475341796875" lon="13.84910940192639827728271484375">
        <ele>33.200000762939453125</ele>
        <time>2020-05-09T11:28:56.000Z</time>
        <extensions>
          <ns3:TrackPointExtension>
            <ns3:atemp>28.0</ns3:atemp>
            <ns3:hr>120</ns3:hr>
          </ns3:TrackPointExtension>
        </extensions>
      </trkpt>
      <trkpt lat="43.04551108740270137786865234375" lon="13.84917343966662883758544921875">
        <ele>33</ele>
        <time>2020-05-09T11:28:58.000Z</time>
        <extensions>
          <ns3:TrackPointExtension>
            <ns3:atemp>28.0</ns3:atemp>
            <ns3:hr>117</ns3:hr>
          </ns3:TrackPointExtension>
        </extensions>
      </trkpt>
      <trkpt lat="43.04557361640036106109619140625" lon="13.849331773817539215087890625">
        <ele>33</ele>
        <time>2020-05-09T11:29:03.000Z</time>
        <extensions>
          <ns3:TrackPointExtension>
            <ns3:atemp>28.0</ns3:atemp>
            <ns3:hr>115</ns3:hr>
          </ns3:TrackPointExtension>
        </extensions>
      </trkpt>
      <trkpt lat="43.04558618925511837005615234375" lon="13.84937812574207782745361328125">
        <ele>33.200000762939453125</ele>
        <time>2020-05-09T11:29:07.000Z</time>
        <extensions>
          <ns3:TrackPointExtension>
            <ns3:atemp>28.0</ns3:atemp>
            <ns3:hr>114</ns3:hr>
          </ns3:TrackPointExtension>
        </extensions>
      </trkpt>
      <trkpt lat="43.0456005223095417022705078125" lon="13.84937427006661891937255859375">
        <ele>32.799999237060546875</ele>
        <time>2020-05-09T11:29:16.000Z</time>
        <extensions>
          <ns3:TrackPointExtension>
            <ns3:atemp>28.0</ns3:atemp>
            <ns3:hr>116</ns3:hr>
          </ns3:TrackPointExtension>
        </extensions>
      </trkpt>
      <trkpt lat="43.0456038750708103179931640625" lon="13.849379718303680419921875">
        <ele>33</ele>
        <time>2020-05-09T11:29:23.000Z</time>
        <extensions>
          <ns3:TrackPointExtension>
            <ns3:atemp>28.0</ns3:atemp>
            <ns3:hr>117</ns3:hr>
          </ns3:TrackPointExtension>
        </extensions>
      </trkpt>
      <trkpt lat="43.04561183787882328033447265625" lon="13.84940008632838726043701171875">
        <ele>32.799999237060546875</ele>
        <time>2020-05-09T11:29:25.000Z</time>
        <extensions>
          <ns3:TrackPointExtension>
            <ns3:atemp>28.0</ns3:atemp>
            <ns3:hr>119</ns3:hr>
          </ns3:TrackPointExtension>
        </extensions>
      </trkpt>
      <trkpt lat="43.04564134217798709869384765625" lon="13.849440403282642364501953125">
        <ele>32.59999847412109375</ele>
        <time>2020-05-09T11:29:27.000Z</time>
        <extensions>
          <ns3:TrackPointExtension>
            <ns3:atemp>28.0</ns3:atemp>
            <ns3:hr>116</ns3:hr>
          </ns3:TrackPointExtension>
        </extensions>
      </trkpt>
      <trkpt lat="43.045666404068470001220703125" lon="13.8494710810482501983642578125">
        <ele>32.40000152587890625</ele>
        <time>2020-05-09T11:29:28.000Z</time>
        <extensions>
          <ns3:TrackPointExtension>
            <ns3:atemp>28.0</ns3:atemp>
            <ns3:hr>115</ns3:hr>
          </ns3:TrackPointExtension>
        </extensions>
      </trkpt>
      <trkpt lat="43.045783080160617828369140625" lon="13.8496296666562557220458984375">
        <ele>31.3999996185302734375</ele>
        <time>2020-05-09T11:29:32.000Z</time>
        <extensions>
          <ns3:TrackPointExtension>
            <ns3:atemp>28.0</ns3:atemp>
            <ns3:hr>111</ns3:hr>
          </ns3:TrackPointExtension>
        </extensions>
      </trkpt>
      <trkpt lat="43.04585943929851055145263671875" lon="13.849705271422863006591796875">
        <ele>31.200000762939453125</ele>
        <time>2020-05-09T11:29:34.000Z</time>
        <extensions>
          <ns3:TrackPointExtension>
            <ns3:atemp>28.0</ns3:atemp>
            <ns3:hr>106</ns3:hr>
          </ns3:TrackPointExtension>
        </extensions>
      </trkpt>
      <trkpt lat="43.046143837273120880126953125" lon="13.84992462582886219024658203125">
        <ele>30.6000003814697265625</ele>
        <time>2020-05-09T11:29:40.000Z</time>
        <extensions>
          <ns3:TrackPointExtension>
            <ns3:atemp>28.0</ns3:atemp>
            <ns3:hr>104</ns3:hr>
          </ns3:TrackPointExtension>
        </extensions>
      </trkpt>
      <trkpt lat="43.04619907401502132415771484375" lon="13.849953711032867431640625">
        <ele>30.3999996185302734375</ele>
        <time>2020-05-09T11:29:41.000Z</time>
        <extensions>
          <ns3:TrackPointExtension>
            <ns3:atemp>28.0</ns3:atemp>
            <ns3:hr>104</ns3:hr>
          </ns3:TrackPointExtension>
        </extensions>
      </trkpt>
      <trkpt lat="43.0464251339435577392578125" lon="13.850007355213165283203125">
        <ele>29.6000003814697265625</ele>
        <time>2020-05-09T11:29:45.000Z</time>
        <extensions>
          <ns3:TrackPointExtension>
            <ns3:atemp>28.0</ns3:atemp>
            <ns3:hr>103</ns3:hr>
          </ns3:TrackPointExtension>
        </extensions>
      </trkpt>
      <trkpt lat="43.0465329252183437347412109375" lon="13.85001800023019313812255859375">
        <ele>29.799999237060546875</ele>
        <time>2020-05-09T11:29:47.000Z</time>
        <extensions>
          <ns3:TrackPointExtension>
            <ns3:atemp>28.0</ns3:atemp>
            <ns3:hr>103</ns3:hr>
          </ns3:TrackPointExtension>
        </extensions>
      </trkpt>
      <trkpt lat="43.04662219248712062835693359375" lon="13.8500051759183406829833984375">
        <ele>30.3999996185302734375</ele>
        <time>2020-05-09T11:29:49.000Z</time>
        <extensions>
          <ns3:TrackPointExtension>
            <ns3:atemp>28.0</ns3:atemp>
            <ns3:hr>103</ns3:hr>
          </ns3:TrackPointExtension>
        </extensions>
      </trkpt>
      <trkpt lat="43.04665387608110904693603515625" lon="13.8499914295971393585205078125">
        <ele>30.6000003814697265625</ele>
        <time>2020-05-09T11:29:50.000Z</time>
        <extensions>
          <ns3:TrackPointExtension>
            <ns3:atemp>28.0</ns3:atemp>
            <ns3:hr>103</ns3:hr>
          </ns3:TrackPointExtension>
        </extensions>
      </trkpt>
      <trkpt lat="43.046705424785614013671875" lon="13.84997106157243251800537109375">
        <ele>31.3999996185302734375</ele>
        <time>2020-05-09T11:29:52.000Z</time>
        <extensions>
          <ns3:TrackPointExtension>
            <ns3:atemp>28.0</ns3:atemp>
            <ns3:hr>103</ns3:hr>
          </ns3:TrackPointExtension>
        </extensions>
      </trkpt>
      <trkpt lat="43.04672612808644771575927734375" lon="13.849965445697307586669921875">
        <ele>32.200000762939453125</ele>
        <time>2020-05-09T11:29:54.000Z</time>
        <extensions>
          <ns3:TrackPointExtension>
            <ns3:atemp>28.0</ns3:atemp>
            <ns3:hr>103</ns3:hr>
          </ns3:TrackPointExtension>
        </extensions>
      </trkpt>
      <trkpt lat="43.04673157632350921630859375" lon="13.849961757659912109375">
        <ele>32.59999847412109375</ele>
        <time>2020-05-09T11:29:55.000Z</time>
        <extensions>
          <ns3:TrackPointExtension>
            <ns3:atemp>28.0</ns3:atemp>
            <ns3:hr>102</ns3:hr>
          </ns3:TrackPointExtension>
        </extensions>
      </trkpt>
      <trkpt lat="43.04670936428010463714599609375" lon="13.84994558058679103851318359375">
        <ele>32.59999847412109375</ele>
        <time>2020-05-09T11:30:00.000Z</time>
        <extensions>
          <ns3:TrackPointExtension>
            <ns3:atemp>28.0</ns3:atemp>
            <ns3:hr>103</ns3:hr>
          </ns3:TrackPointExtension>
        </extensions>
      </trkpt>
      <trkpt lat="43.04660492576658725738525390625" lon="13.8499833829700946807861328125">
        <ele>32</ele>
        <time>2020-05-09T11:30:04.000Z</time>
        <extensions>
          <ns3:TrackPointExtension>
            <ns3:atemp>28.0</ns3:atemp>
            <ns3:hr>102</ns3:hr>
          </ns3:TrackPointExtension>
        </extensions>
      </trkpt>
      <trkpt lat="43.04654172621667385101318359375" lon="13.85001741349697113037109375">
        <ele>31.6000003814697265625</ele>
        <time>2020-05-09T11:30:06.000Z</time>
        <extensions>
          <ns3:TrackPointExtension>
            <ns3:atemp>28.0</ns3:atemp>
            <ns3:hr>99</ns3:hr>
          </ns3:TrackPointExtension>
        </extensions>
      </trkpt>
      <trkpt lat="43.04652060382068157196044921875" lon="13.85002219118177890777587890625">
        <ele>31.3999996185302734375</ele>
        <time>2020-05-09T11:30:07.000Z</time>
        <extensions>
          <ns3:TrackPointExtension>
            <ns3:atemp>28.0</ns3:atemp>
            <ns3:hr>100</ns3:hr>
          </ns3:TrackPointExtension>
        </extensions>
      </trkpt>
      <trkpt lat="43.04650719277560710906982421875" lon="13.850019760429859161376953125">
        <ele>31.3999996185302734375</ele>
        <time>2020-05-09T11:30:08.000Z</time>
        <extensions>
          <ns3:TrackPointExtension>
            <ns3:atemp>28.0</ns3:atemp>
            <ns3:hr>100</ns3:hr>
          </ns3:TrackPointExtension>
        </extensions>
      </trkpt>
      <trkpt lat="43.046492524445056915283203125" lon="13.8500216044485569000244140625">
        <ele>31.799999237060546875</ele>
        <time>2020-05-09T11:30:14.000Z</time>
        <extensions>
          <ns3:TrackPointExtension>
            <ns3:atemp>28.0</ns3:atemp>
            <ns3:hr>100</ns3:hr>
          </ns3:TrackPointExtension>
        </extensions>
      </trkpt>
      <trkpt lat="43.0464906804263591766357421875" lon="13.8500113785266876220703125">
        <ele>31.799999237060546875</ele>
        <time>2020-05-09T11:30:22.000Z</time>
        <extensions>
          <ns3:TrackPointExtension>
            <ns3:atemp>28.0</ns3:atemp>
            <ns3:hr>103</ns3:hr>
          </ns3:TrackPointExtension>
        </extensions>
      </trkpt>
      <trkpt lat="43.04657332599163055419921875" lon="13.84997910819947719573974609375">
        <ele>31.799999237060546875</ele>
        <time>2020-05-09T11:30:26.000Z</time>
        <extensions>
          <ns3:TrackPointExtension>
            <ns3:atemp>28.0</ns3:atemp>
            <ns3:hr>103</ns3:hr>
          </ns3:TrackPointExtension>
        </extensions>
      </trkpt>
      <trkpt lat="43.0467790178954601287841796875" lon="13.8499129749834537506103515625">
        <ele>31.799999237060546875</ele>
        <time>2020-05-09T11:30:32.000Z</time>
        <extensions>
          <ns3:TrackPointExtension>
            <ns3:atemp>28.0</ns3:atemp>
            <ns3:hr>103</ns3:hr>
          </ns3:TrackPointExtension>
        </extensions>
      </trkpt>
      <trkpt lat="43.0468547903001308441162109375" lon="13.84988070465624332427978515625">
        <ele>32</ele>
        <time>2020-05-09T11:30:34.000Z</time>
        <extensions>
          <ns3:TrackPointExtension>
            <ns3:atemp>28.0</ns3:atemp>
            <ns3:hr>106</ns3:hr>
          </ns3:TrackPointExtension>
        </extensions>
      </trkpt>
      <trkpt lat="43.04692695848643779754638671875" lon="13.84984684176743030548095703125">
        <ele>32.59999847412109375</ele>
        <time>2020-05-09T11:30:36.000Z</time>
        <extensions>
          <ns3:TrackPointExtension>
            <ns3:atemp>28.0</ns3:atemp>
            <ns3:hr>108</ns3:hr>
          </ns3:TrackPointExtension>
        </extensions>
      </trkpt>
      <trkpt lat="43.04703005589544773101806640625" lon="13.84979990310966968536376953125">
        <ele>33.40000152587890625</ele>
        <time>2020-05-09T11:30:39.000Z</time>
        <extensions>
          <ns3:TrackPointExtension>
            <ns3:atemp>28.0</ns3:atemp>
            <ns3:hr>110</ns3:hr>
          </ns3:TrackPointExtension>
        </extensions>
      </trkpt>
      <trkpt lat="43.047100044786930084228515625" lon="13.84976620785892009735107421875">
        <ele>33.799999237060546875</ele>
        <time>2020-05-09T11:30:41.000Z</time>
        <extensions>
          <ns3:TrackPointExtension>
            <ns3:atemp>28.0</ns3:atemp>
            <ns3:hr>114</ns3:hr>
          </ns3:TrackPointExtension>
        </extensions>
      </trkpt>
      <trkpt lat="43.04724731482565402984619140625" lon="13.84970837272703647613525390625">
        <ele>34</ele>
        <time>2020-05-09T11:30:45.000Z</time>
        <extensions>
          <ns3:TrackPointExtension>
            <ns3:atemp>28.0</ns3:atemp>
            <ns3:hr>116</ns3:hr>
          </ns3:TrackPointExtension>
        </extensions>
      </trkpt>
      <trkpt lat="43.0474631488323211669921875" lon="13.84962170384824275970458984375">
        <ele>35</ele>
        <time>2020-05-09T11:30:51.000Z</time>
        <extensions>
          <ns3:TrackPointExtension>
            <ns3:atemp>28.0</ns3:atemp>
            <ns3:hr>117</ns3:hr>
          </ns3:TrackPointExtension>
        </extensions>
      </trkpt>
      <trkpt lat="43.04749592207372188568115234375" lon="13.84960209019482135772705078125">
        <ele>35.200000762939453125</ele>
        <time>2020-05-09T11:30:52.000Z</time>
        <extensions>
          <ns3:TrackPointExtension>
            <ns3:atemp>28.0</ns3:atemp>
            <ns3:hr>117</ns3:hr>
          </ns3:TrackPointExtension>
        </extensions>
      </trkpt>
      <trkpt lat="43.04760924540460109710693359375" lon="13.849556408822536468505859375">
        <ele>35.59999847412109375</ele>
        <time>2020-05-09T11:30:55.000Z</time>
        <extensions>
          <ns3:TrackPointExtension>
            <ns3:atemp>28.0</ns3:atemp>
            <ns3:hr>120</ns3:hr>
          </ns3:TrackPointExtension>
        </extensions>
      </trkpt>
      <trkpt lat="43.0477466247975826263427734375" lon="13.84947753511369228363037109375">
        <ele>36.200000762939453125</ele>
        <time>2020-05-09T11:30:59.000Z</time>
        <extensions>
          <ns3:TrackPointExtension>
            <ns3:atemp>28.0</ns3:atemp>
            <ns3:hr>121</ns3:hr>
          </ns3:TrackPointExtension>
        </extensions>
      </trkpt>
      <trkpt lat="43.04794116877019405364990234375" lon="13.84938164614140987396240234375">
        <ele>37.40000152587890625</ele>
        <time>2020-05-09T11:31:05.000Z</time>
        <extensions>
          <ns3:TrackPointExtension>
            <ns3:atemp>28.0</ns3:atemp>
            <ns3:hr>121</ns3:hr>
          </ns3:TrackPointExtension>
        </extensions>
      </trkpt>
      <trkpt lat="43.0480128340423107147216796875" lon="13.8493487052619457244873046875">
        <ele>37.40000152587890625</ele>
        <time>2020-05-09T11:31:07.000Z</time>
        <extensions>
          <ns3:TrackPointExtension>
            <ns3:atemp>28.0</ns3:atemp>
            <ns3:hr>122</ns3:hr>
          </ns3:TrackPointExtension>
        </extensions>
      </trkpt>
      <trkpt lat="43.0481798015534877777099609375" lon="13.84925809688866138458251953125">
        <ele>38.40000152587890625</ele>
        <time>2020-05-09T11:31:12.000Z</time>
        <extensions>
          <ns3:TrackPointExtension>
            <ns3:atemp>28.0</ns3:atemp>
            <ns3:hr>123</ns3:hr>
          </ns3:TrackPointExtension>
        </extensions>
      </trkpt>
      <trkpt lat="43.048219196498394012451171875" lon="13.8492430932819843292236328125">
        <ele>38.59999847412109375</ele>
        <time>2020-05-09T11:31:13.000Z</time>
        <extensions>
          <ns3:TrackPointExtension>
            <ns3:atemp>28.0</ns3:atemp>
            <ns3:hr>123</ns3:hr>
          </ns3:TrackPointExtension>
        </extensions>
      </trkpt>
      <trkpt lat="43.0483635328710079193115234375" lon="13.8491787202656269073486328125">
        <ele>39.40000152587890625</ele>
        <time>2020-05-09T11:31:17.000Z</time>
        <extensions>
          <ns3:TrackPointExtension>
            <ns3:atemp>28.0</ns3:atemp>
            <ns3:hr>122</ns3:hr>
          </ns3:TrackPointExtension>
        </extensions>
      </trkpt>
      <trkpt lat="43.04843536578118801116943359375" lon="13.8491428457200527191162109375">
        <ele>39.799999237060546875</ele>
        <time>2020-05-09T11:31:19.000Z</time>
        <extensions>
          <ns3:TrackPointExtension>
            <ns3:atemp>28.0</ns3:atemp>
            <ns3:hr>123</ns3:hr>
          </ns3:TrackPointExtension>
        </extensions>
      </trkpt>
      <trkpt lat="43.04863393306732177734375" lon="13.849050812423229217529296875">
        <ele>40</ele>
        <time>2020-05-09T11:31:25.000Z</time>
        <extensions>
          <ns3:TrackPointExtension>
            <ns3:atemp>27.0</ns3:atemp>
            <ns3:hr>127</ns3:hr>
          </ns3:TrackPointExtension>
        </extensions>
      </trkpt>
      <trkpt lat="43.048659749329090118408203125" lon="13.849036395549774169921875">
        <ele>40</ele>
        <time>2020-05-09T11:31:26.000Z</time>
        <extensions>
          <ns3:TrackPointExtension>
            <ns3:atemp>27.0</ns3:atemp>
            <ns3:hr>128</ns3:hr>
          </ns3:TrackPointExtension>
        </extensions>
      </trkpt>
      <trkpt lat="43.0487088672816753387451171875" lon="13.84901334531605243682861328125">
        <ele>40.40000152587890625</ele>
        <time>2020-05-09T11:31:28.000Z</time>
        <extensions>
          <ns3:TrackPointExtension>
            <ns3:atemp>27.0</ns3:atemp>
            <ns3:hr>130</ns3:hr>
          </ns3:TrackPointExtension>
        </extensions>
      </trkpt>
      <trkpt lat="43.04884691722691059112548828125" lon="13.84897244162857532501220703125">
        <ele>41.200000762939453125</ele>
        <time>2020-05-09T11:31:33.000Z</time>
        <extensions>
          <ns3:TrackPointExtension>
            <ns3:atemp>27.0</ns3:atemp>
            <ns3:hr>135</ns3:hr>
          </ns3:TrackPointExtension>
        </extensions>
      </trkpt>
      <trkpt lat="43.0488684587180614471435546875" lon="13.84896741248667240142822265625">
        <ele>41.40000152587890625</ele>
        <time>2020-05-09T11:31:34.000Z</time>
        <extensions>
          <ns3:TrackPointExtension>
            <ns3:atemp>27.0</ns3:atemp>
            <ns3:hr>135</ns3:hr>
          </ns3:TrackPointExtension>
        </extensions>
      </trkpt>
      <trkpt lat="43.04889553226530551910400390625" lon="13.84895215742290019989013671875">
        <ele>41.59999847412109375</ele>
        <time>2020-05-09T11:31:35.000Z</time>
        <extensions>
          <ns3:TrackPointExtension>
            <ns3:atemp>27.0</ns3:atemp>
            <ns3:hr>136</ns3:hr>
          </ns3:TrackPointExtension>
        </extensions>
      </trkpt>
      <trkpt lat="43.0490032397210597991943359375" lon="13.8489224016666412353515625">
        <ele>42</ele>
        <time>2020-05-09T11:31:39.000Z</time>
        <extensions>
          <ns3:TrackPointExtension>
            <ns3:atemp>27.0</ns3:atemp>
            <ns3:hr>138</ns3:hr>
          </ns3:TrackPointExtension>
        </extensions>
      </trkpt>
      <trkpt lat="43.04915403015911579132080078125" lon="13.8488732837140560150146484375">
        <ele>42.59999847412109375</ele>
        <time>2020-05-09T11:31:45.000Z</time>
        <extensions>
          <ns3:TrackPointExtension>
            <ns3:atemp>27.0</ns3:atemp>
            <ns3:hr>140</ns3:hr>
          </ns3:TrackPointExtension>
        </extensions>
      </trkpt>
      <trkpt lat="43.04929333738982677459716796875" lon="13.848800361156463623046875">
        <ele>43.59999847412109375</ele>
        <time>2020-05-09T11:31:51.000Z</time>
        <extensions>
          <ns3:TrackPointExtension>
            <ns3:atemp>27.0</ns3:atemp>
            <ns3:hr>140</ns3:hr>
          </ns3:TrackPointExtension>
        </extensions>
      </trkpt>
      <trkpt lat="43.04934932850301265716552734375" lon="13.8487757183611392974853515625">
        <ele>43.799999237060546875</ele>
        <time>2020-05-09T11:31:53.000Z</time>
        <extensions>
          <ns3:TrackPointExtension>
            <ns3:atemp>27.0</ns3:atemp>
            <ns3:hr>139</ns3:hr>
          </ns3:TrackPointExtension>
        </extensions>
      </trkpt>
      <trkpt lat="43.04947254247963428497314453125" lon="13.848696090281009674072265625">
        <ele>44.200000762939453125</ele>
        <time>2020-05-09T11:31:58.000Z</time>
        <extensions>
          <ns3:TrackPointExtension>
            <ns3:atemp>27.0</ns3:atemp>
            <ns3:hr>137</ns3:hr>
          </ns3:TrackPointExtension>
        </extensions>
      </trkpt>
      <trkpt lat="43.0495500750839710235595703125" lon="13.848660551011562347412109375">
        <ele>45</ele>
        <time>2020-05-09T11:32:01.000Z</time>
        <extensions>
          <ns3:TrackPointExtension>
            <ns3:atemp>27.0</ns3:atemp>
            <ns3:hr>136</ns3:hr>
          </ns3:TrackPointExtension>
        </extensions>
      </trkpt>
      <trkpt lat="43.04961101152002811431884765625" lon="13.84864605031907558441162109375">
        <ele>45.40000152587890625</ele>
        <time>2020-05-09T11:32:04.000Z</time>
        <extensions>
          <ns3:TrackPointExtension>
            <ns3:atemp>27.0</ns3:atemp>
            <ns3:hr>133</ns3:hr>
          </ns3:TrackPointExtension>
        </extensions>
      </trkpt>
      <trkpt lat="43.0496791563928127288818359375" lon="13.84861059486865997314453125">
        <ele>46</ele>
        <time>2020-05-09T11:32:08.000Z</time>
        <extensions>
          <ns3:TrackPointExtension>
            <ns3:atemp>27.0</ns3:atemp>
            <ns3:hr>132</ns3:hr>
          </ns3:TrackPointExtension>
        </extensions>
      </trkpt>
      <trkpt lat="43.04969650693237781524658203125" lon="13.8486007042229175567626953125">
        <ele>46.200000762939453125</ele>
        <time>2020-05-09T11:32:09.000Z</time>
        <extensions>
          <ns3:TrackPointExtension>
            <ns3:atemp>27.0</ns3:atemp>
            <ns3:hr>131</ns3:hr>
          </ns3:TrackPointExtension>
        </extensions>
      </trkpt>
      <trkpt lat="43.04976356215775012969970703125" lon="13.84856943972408771514892578125">
        <ele>46.40000152587890625</ele>
        <time>2020-05-09T11:32:12.000Z</time>
        <extensions>
          <ns3:TrackPointExtension>
            <ns3:atemp>27.0</ns3:atemp>
            <ns3:hr>128</ns3:hr>
          </ns3:TrackPointExtension>
        </extensions>
      </trkpt>
      <trkpt lat="43.0498712696135044097900390625" lon="13.8485400192439556121826171875">
        <ele>47.200000762939453125</ele>
        <time>2020-05-09T11:32:16.000Z</time>
        <extensions>
          <ns3:TrackPointExtension>
            <ns3:atemp>27.0</ns3:atemp>
            <ns3:hr>129</ns3:hr>
          </ns3:TrackPointExtension>
        </extensions>
      </trkpt>
      <trkpt lat="43.049952574074268341064453125" lon="13.84852233342826366424560546875">
        <ele>48.200000762939453125</ele>
        <time>2020-05-09T11:32:20.000Z</time>
        <extensions>
          <ns3:TrackPointExtension>
            <ns3:atemp>27.0</ns3:atemp>
            <ns3:hr>130</ns3:hr>
          </ns3:TrackPointExtension>
        </extensions>
      </trkpt>
      <trkpt lat="43.0500516481697559356689453125" lon="13.84848830290138721466064453125">
        <ele>49.40000152587890625</ele>
        <time>2020-05-09T11:32:24.000Z</time>
        <extensions>
          <ns3:TrackPointExtension>
            <ns3:atemp>27.0</ns3:atemp>
            <ns3:hr>131</ns3:hr>
          </ns3:TrackPointExtension>
        </extensions>
      </trkpt>
      <trkpt lat="43.05012666620314121246337890625" lon="13.84845444001257419586181640625">
        <ele>50.40000152587890625</ele>
        <time>2020-05-09T11:32:27.000Z</time>
        <extensions>
          <ns3:TrackPointExtension>
            <ns3:atemp>27.0</ns3:atemp>
            <ns3:hr>130</ns3:hr>
          </ns3:TrackPointExtension>
        </extensions>
      </trkpt>
      <trkpt lat="43.05021920241415500640869140625" lon="13.848414458334445953369140625">
        <ele>51.200000762939453125</ele>
        <time>2020-05-09T11:32:31.000Z</time>
        <extensions>
          <ns3:TrackPointExtension>
            <ns3:atemp>27.0</ns3:atemp>
            <ns3:hr>130</ns3:hr>
          </ns3:TrackPointExtension>
        </extensions>
      </trkpt>
      <trkpt lat="43.05027686990797519683837890625" lon="13.848386965692043304443359375">
        <ele>51.59999847412109375</ele>
        <time>2020-05-09T11:32:33.000Z</time>
        <extensions>
          <ns3:TrackPointExtension>
            <ns3:atemp>27.0</ns3:atemp>
            <ns3:hr>131</ns3:hr>
          </ns3:TrackPointExtension>
        </extensions>
      </trkpt>
      <trkpt lat="43.05038952268660068511962890625" lon="13.84832586161792278289794921875">
        <ele>52.200000762939453125</ele>
        <time>2020-05-09T11:32:37.000Z</time>
        <extensions>
          <ns3:TrackPointExtension>
            <ns3:atemp>27.0</ns3:atemp>
            <ns3:hr>134</ns3:hr>
          </ns3:TrackPointExtension>
        </extensions>
      </trkpt>
      <trkpt lat="43.05046630091965198516845703125" lon="13.84830188937485218048095703125">
        <ele>52.59999847412109375</ele>
        <time>2020-05-09T11:32:40.000Z</time>
        <extensions>
          <ns3:TrackPointExtension>
            <ns3:atemp>27.0</ns3:atemp>
            <ns3:hr>134</ns3:hr>
          </ns3:TrackPointExtension>
        </extensions>
      </trkpt>
      <trkpt lat="43.0505364574491977691650390625" lon="13.84828738868236541748046875">
        <ele>53.200000762939453125</ele>
        <time>2020-05-09T11:32:43.000Z</time>
        <extensions>
          <ns3:TrackPointExtension>
            <ns3:atemp>27.0</ns3:atemp>
            <ns3:hr>133</ns3:hr>
          </ns3:TrackPointExtension>
        </extensions>
      </trkpt>
      <trkpt lat="43.050595633685588836669921875" lon="13.8482738099992275238037109375">
        <ele>53.799999237060546875</ele>
        <time>2020-05-09T11:32:46.000Z</time>
        <extensions>
          <ns3:TrackPointExtension>
            <ns3:atemp>27.0</ns3:atemp>
            <ns3:hr>132</ns3:hr>
          </ns3:TrackPointExtension>
        </extensions>
      </trkpt>
      <trkpt lat="43.0506973899900913238525390625" lon="13.84824355132877826690673828125">
        <ele>55.200000762939453125</ele>
        <time>2020-05-09T11:32:51.000Z</time>
        <extensions>
          <ns3:TrackPointExtension>
            <ns3:atemp>28.0</ns3:atemp>
            <ns3:hr>131</ns3:hr>
          </ns3:TrackPointExtension>
        </extensions>
      </trkpt>
      <trkpt lat="43.0507517047226428985595703125" lon="13.84821002371609210968017578125">
        <ele>55.59999847412109375</ele>
        <time>2020-05-09T11:32:54.000Z</time>
        <extensions>
          <ns3:TrackPointExtension>
            <ns3:atemp>28.0</ns3:atemp>
            <ns3:hr>134</ns3:hr>
          </ns3:TrackPointExtension>
        </extensions>
      </trkpt>
      <trkpt lat="43.050799481570720672607421875" lon="13.84815604425966739654541015625">
        <ele>56.200000762939453125</ele>
        <time>2020-05-09T11:32:57.000Z</time>
        <extensions>
          <ns3:TrackPointExtension>
            <ns3:atemp>28.0</ns3:atemp>
            <ns3:hr>129</ns3:hr>
          </ns3:TrackPointExtension>
        </extensions>
      </trkpt>
      <trkpt lat="43.05081079714000225067138671875" lon="13.84813626296818256378173828125">
        <ele>56.40000152587890625</ele>
        <time>2020-05-09T11:32:58.000Z</time>
        <extensions>
          <ns3:TrackPointExtension>
            <ns3:atemp>28.0</ns3:atemp>
            <ns3:hr>128</ns3:hr>
          </ns3:TrackPointExtension>
        </extensions>
      </trkpt>
      <trkpt lat="43.05084667168557643890380859375" lon="13.8480625860393047332763671875">
        <ele>57</ele>
        <time>2020-05-09T11:33:01.000Z</time>
        <extensions>
          <ns3:TrackPointExtension>
            <ns3:atemp>28.0</ns3:atemp>
            <ns3:hr>124</ns3:hr>
          </ns3:TrackPointExtension>
        </extensions>
      </trkpt>
      <trkpt lat="43.05085287429392337799072265625" lon="13.848031572997570037841796875">
        <ele>57.40000152587890625</ele>
        <time>2020-05-09T11:33:02.000Z</time>
        <extensions>
          <ns3:TrackPointExtension>
            <ns3:atemp>28.0</ns3:atemp>
            <ns3:hr>124</ns3:hr>
          </ns3:TrackPointExtension>
        </extensions>
      </trkpt>
      <trkpt lat="43.05086175911128520965576171875" lon="13.84792118333280086517333984375">
        <ele>58</ele>
        <time>2020-05-09T11:33:05.000Z</time>
        <extensions>
          <ns3:TrackPointExtension>
            <ns3:atemp>28.0</ns3:atemp>
            <ns3:hr>125</ns3:hr>
          </ns3:TrackPointExtension>
        </extensions>
      </trkpt>
      <trkpt lat="43.05084231309592723846435546875" lon="13.84776812978088855743408203125">
        <ele>58.59999847412109375</ele>
        <time>2020-05-09T11:33:09.000Z</time>
        <extensions>
          <ns3:TrackPointExtension>
            <ns3:atemp>28.0</ns3:atemp>
            <ns3:hr>127</ns3:hr>
          </ns3:TrackPointExtension>
        </extensions>
      </trkpt>
      <trkpt lat="43.05085270665585994720458984375" lon="13.847698979079723358154296875">
        <ele>59</ele>
        <time>2020-05-09T11:33:11.000Z</time>
        <extensions>
          <ns3:TrackPointExtension>
            <ns3:atemp>28.0</ns3:atemp>
            <ns3:hr>125</ns3:hr>
          </ns3:TrackPointExtension>
        </extensions>
      </trkpt>
      <trkpt lat="43.05093032307922840118408203125" lon="13.84759210981428623199462890625">
        <ele>59.59999847412109375</ele>
        <time>2020-05-09T11:33:16.000Z</time>
        <extensions>
          <ns3:TrackPointExtension>
            <ns3:atemp>28.0</ns3:atemp>
            <ns3:hr>124</ns3:hr>
          </ns3:TrackPointExtension>
        </extensions>
      </trkpt>
      <trkpt lat="43.05095069110393524169921875" lon="13.8475750945508480072021484375">
        <ele>59.799999237060546875</ele>
        <time>2020-05-09T11:33:17.000Z</time>
        <extensions>
          <ns3:TrackPointExtension>
            <ns3:atemp>28.0</ns3:atemp>
            <ns3:hr>126</ns3:hr>
          </ns3:TrackPointExtension>
        </extensions>
      </trkpt>
      <trkpt lat="43.05104683153331279754638671875" lon="13.8475103862583637237548828125">
        <ele>60.799999237060546875</ele>
        <time>2020-05-09T11:33:22.000Z</time>
        <extensions>
          <ns3:TrackPointExtension>
            <ns3:atemp>28.0</ns3:atemp>
            <ns3:hr>122</ns3:hr>
          </ns3:TrackPointExtension>
        </extensions>
      </trkpt>
      <trkpt lat="43.05112176574766635894775390625" lon="13.84749219752848148345947265625">
        <ele>61.799999237060546875</ele>
        <time>2020-05-09T11:33:25.000Z</time>
        <extensions>
          <ns3:TrackPointExtension>
            <ns3:atemp>28.0</ns3:atemp>
            <ns3:hr>124</ns3:hr>
          </ns3:TrackPointExtension>
        </extensions>
      </trkpt>
      <trkpt lat="43.05121614597737789154052734375" lon="13.84749739430844783782958984375">
        <ele>62.799999237060546875</ele>
        <time>2020-05-09T11:33:29.000Z</time>
        <extensions>
          <ns3:TrackPointExtension>
            <ns3:atemp>28.0</ns3:atemp>
            <ns3:hr>126</ns3:hr>
          </ns3:TrackPointExtension>
        </extensions>
      </trkpt>
      <trkpt lat="43.05128999054431915283203125" lon="13.84752555750310420989990234375">
        <ele>63</ele>
        <time>2020-05-09T11:33:32.000Z</time>
        <extensions>
          <ns3:TrackPointExtension>
            <ns3:atemp>28.0</ns3:atemp>
            <ns3:hr>124</ns3:hr>
          </ns3:TrackPointExtension>
        </extensions>
      </trkpt>
      <trkpt lat="43.051468022167682647705078125" lon="13.84754978120326995849609375">
        <ele>64</ele>
        <time>2020-05-09T11:33:39.000Z</time>
        <extensions>
          <ns3:TrackPointExtension>
            <ns3:atemp>28.0</ns3:atemp>
            <ns3:hr>127</ns3:hr>
          </ns3:TrackPointExtension>
        </extensions>
      </trkpt>
      <trkpt lat="43.05149442516267299652099609375" lon="13.847538046538829803466796875">
        <ele>64</ele>
        <time>2020-05-09T11:33:40.000Z</time>
        <extensions>
          <ns3:TrackPointExtension>
            <ns3:atemp>28.0</ns3:atemp>
            <ns3:hr>128</ns3:hr>
          </ns3:TrackPointExtension>
        </extensions>
      </trkpt>
      <trkpt lat="43.0515768192708492279052734375" lon="13.84742715395987033843994140625">
        <ele>65</ele>
        <time>2020-05-09T11:33:45.000Z</time>
        <extensions>
          <ns3:TrackPointExtension>
            <ns3:atemp>28.0</ns3:atemp>
            <ns3:hr>130</ns3:hr>
          </ns3:TrackPointExtension>
        </extensions>
      </trkpt>
      <trkpt lat="43.05159718729555606842041015625" lon="13.8473786227405071258544921875">
        <ele>65.40000152587890625</ele>
        <time>2020-05-09T11:33:47.000Z</time>
        <extensions>
          <ns3:TrackPointExtension>
            <ns3:atemp>28.0</ns3:atemp>
            <ns3:hr>134</ns3:hr>
          </ns3:TrackPointExtension>
        </extensions>
      </trkpt>
      <trkpt lat="43.05166357196867465972900390625" lon="13.847233951091766357421875">
        <ele>66</ele>
        <time>2020-05-09T11:33:53.000Z</time>
        <extensions>
          <ns3:TrackPointExtension>
            <ns3:atemp>28.0</ns3:atemp>
            <ns3:hr>135</ns3:hr>
          </ns3:TrackPointExtension>
        </extensions>
      </trkpt>
      <trkpt lat="43.05177002213895320892333984375" lon="13.84705357253551483154296875">
        <ele>66</ele>
        <time>2020-05-09T11:34:00.000Z</time>
        <extensions>
          <ns3:TrackPointExtension>
            <ns3:atemp>28.0</ns3:atemp>
            <ns3:hr>133</ns3:hr>
          </ns3:TrackPointExtension>
        </extensions>
      </trkpt>
      <trkpt lat="43.05183724500238895416259765625" lon="13.84693010710179805755615234375">
        <ele>65.59999847412109375</ele>
        <time>2020-05-09T11:34:04.000Z</time>
        <extensions>
          <ns3:TrackPointExtension>
            <ns3:atemp>28.0</ns3:atemp>
            <ns3:hr>130</ns3:hr>
          </ns3:TrackPointExtension>
        </extensions>
      </trkpt>
      <trkpt lat="43.05185987614095211029052734375" lon="13.84686757810413837432861328125">
        <ele>65.40000152587890625</ele>
        <time>2020-05-09T11:34:06.000Z</time>
        <extensions>
          <ns3:TrackPointExtension>
            <ns3:atemp>28.0</ns3:atemp>
            <ns3:hr>126</ns3:hr>
          </ns3:TrackPointExtension>
        </extensions>
      </trkpt>
      <trkpt lat="43.05187471210956573486328125" lon="13.84680815041065216064453125">
        <ele>65.1999969482421875</ele>
        <time>2020-05-09T11:34:08.000Z</time>
        <extensions>
          <ns3:TrackPointExtension>
            <ns3:atemp>28.0</ns3:atemp>
            <ns3:hr>123</ns3:hr>
          </ns3:TrackPointExtension>
        </extensions>
      </trkpt>
      <trkpt lat="43.0518943257629871368408203125" lon="13.846748806536197662353515625">
        <ele>65</ele>
        <time>2020-05-09T11:34:10.000Z</time>
        <extensions>
          <ns3:TrackPointExtension>
            <ns3:atemp>28.0</ns3:atemp>
            <ns3:hr>120</ns3:hr>
          </ns3:TrackPointExtension>
        </extensions>
      </trkpt>
      <trkpt lat="43.05193279869854450225830078125" lon="13.8466316275298595428466796875">
        <ele>64.1999969482421875</ele>
        <time>2020-05-09T11:34:13.000Z</time>
        <extensions>
          <ns3:TrackPointExtension>
            <ns3:atemp>28.0</ns3:atemp>
            <ns3:hr>117</ns3:hr>
          </ns3:TrackPointExtension>
        </extensions>
      </trkpt>
      <trkpt lat="43.05195811204612255096435546875" lon="13.84655459783971309661865234375">
        <ele>64</ele>
        <time>2020-05-09T11:34:15.000Z</time>
        <extensions>
          <ns3:TrackPointExtension>
            <ns3:atemp>28.0</ns3:atemp>
            <ns3:hr>114</ns3:hr>
          </ns3:TrackPointExtension>
        </extensions>
      </trkpt>
      <trkpt lat="43.05199096910655498504638671875" lon="13.846473880112171173095703125">
        <ele>64</ele>
        <time>2020-05-09T11:34:17.000Z</time>
        <extensions>
          <ns3:TrackPointExtension>
            <ns3:atemp>28.0</ns3:atemp>
            <ns3:hr>113</ns3:hr>
          </ns3:TrackPointExtension>
        </extensions>
      </trkpt>
      <trkpt lat="43.0520364828407764434814453125" lon="13.84632376022636890411376953125">
        <ele>63.799999237060546875</ele>
        <time>2020-05-09T11:34:20.000Z</time>
        <extensions>
          <ns3:TrackPointExtension>
            <ns3:atemp>28.0</ns3:atemp>
            <ns3:hr>113</ns3:hr>
          </ns3:TrackPointExtension>
        </extensions>
      </trkpt>
      <trkpt lat="43.05203874595463275909423828125" lon="13.8461806811392307281494140625">
        <ele>63.59999847412109375</ele>
        <time>2020-05-09T11:34:23.000Z</time>
        <extensions>
          <ns3:TrackPointExtension>
            <ns3:atemp>28.0</ns3:atemp>
            <ns3:hr>113</ns3:hr>
          </ns3:TrackPointExtension>
        </extensions>
      </trkpt>
      <trkpt lat="43.05208501406013965606689453125" lon="13.84599401615560054779052734375">
        <ele>64.8000030517578125</ele>
        <time>2020-05-09T11:34:27.000Z</time>
        <extensions>
          <ns3:TrackPointExtension>
            <ns3:atemp>28.0</ns3:atemp>
            <ns3:hr>112</ns3:hr>
          </ns3:TrackPointExtension>
        </extensions>
      </trkpt>
      <trkpt lat="43.05219498462975025177001953125" lon="13.84590365923941135406494140625">
        <ele>66</ele>
        <time>2020-05-09T11:34:30.000Z</time>
        <extensions>
          <ns3:TrackPointExtension>
            <ns3:atemp>28.0</ns3:atemp>
            <ns3:hr>112</ns3:hr>
          </ns3:TrackPointExtension>
        </extensions>
      </trkpt>
      <trkpt lat="43.05227410979568958282470703125" lon="13.84577943943440914154052734375">
        <ele>67.1999969482421875</ele>
        <time>2020-05-09T11:34:34.000Z</time>
        <extensions>
          <ns3:TrackPointExtension>
            <ns3:atemp>28.0</ns3:atemp>
            <ns3:hr>115</ns3:hr>
          </ns3:TrackPointExtension>
        </extensions>
      </trkpt>
      <trkpt lat="43.052294813096523284912109375" lon="13.845710121095180511474609375">
        <ele>68</ele>
        <time>2020-05-09T11:34:36.000Z</time>
        <extensions>
          <ns3:TrackPointExtension>
            <ns3:atemp>28.0</ns3:atemp>
            <ns3:hr>114</ns3:hr>
          </ns3:TrackPointExtension>
        </extensions>
      </trkpt>
      <trkpt lat="43.0522969923913478851318359375" lon="13.84567919187247753143310546875">
        <ele>68.40000152587890625</ele>
        <time>2020-05-09T11:34:37.000Z</time>
        <extensions>
          <ns3:TrackPointExtension>
            <ns3:atemp>28.0</ns3:atemp>
            <ns3:hr>116</ns3:hr>
          </ns3:TrackPointExtension>
        </extensions>
      </trkpt>
      <trkpt lat="43.05231216363608837127685546875" lon="13.8455869071185588836669921875">
        <ele>69.8000030517578125</ele>
        <time>2020-05-09T11:34:40.000Z</time>
        <extensions>
          <ns3:TrackPointExtension>
            <ns3:atemp>28.0</ns3:atemp>
            <ns3:hr>117</ns3:hr>
          </ns3:TrackPointExtension>
        </extensions>
      </trkpt>
      <trkpt lat="43.05232289247214794158935546875" lon="13.8455289043486118316650390625">
        <ele>70.59999847412109375</ele>
        <time>2020-05-09T11:34:42.000Z</time>
        <extensions>
          <ns3:TrackPointExtension>
            <ns3:atemp>28.0</ns3:atemp>
            <ns3:hr>114</ns3:hr>
          </ns3:TrackPointExtension>
        </extensions>
      </trkpt>
      <trkpt lat="43.0523315258324146270751953125" lon="13.84549814276397228240966796875">
        <ele>70.8000030517578125</ele>
        <time>2020-05-09T11:34:43.000Z</time>
        <extensions>
          <ns3:TrackPointExtension>
            <ns3:atemp>28.0</ns3:atemp>
            <ns3:hr>114</ns3:hr>
          </ns3:TrackPointExtension>
        </extensions>
      </trkpt>
      <trkpt lat="43.05235776118934154510498046875" lon="13.8453991524875164031982421875">
        <ele>72.1999969482421875</ele>
        <time>2020-05-09T11:34:46.000Z</time>
        <extensions>
          <ns3:TrackPointExtension>
            <ns3:atemp>28.0</ns3:atemp>
            <ns3:hr>116</ns3:hr>
          </ns3:TrackPointExtension>
        </extensions>
      </trkpt>
      <trkpt lat="43.0523482896387577056884765625" lon="13.8453287445008754730224609375">
        <ele>73.1999969482421875</ele>
        <time>2020-05-09T11:34:48.000Z</time>
        <extensions>
          <ns3:TrackPointExtension>
            <ns3:atemp>28.0</ns3:atemp>
            <ns3:hr>114</ns3:hr>
          </ns3:TrackPointExtension>
        </extensions>
      </trkpt>
      <trkpt lat="43.0523446016013622283935546875" lon="13.845291696488857269287109375">
        <ele>73.40000152587890625</ele>
        <time>2020-05-09T11:34:49.000Z</time>
        <extensions>
          <ns3:TrackPointExtension>
            <ns3:atemp>27.0</ns3:atemp>
            <ns3:hr>113</ns3:hr>
          </ns3:TrackPointExtension>
        </extensions>
      </trkpt>
      <trkpt lat="43.05233781225979328155517578125" lon="13.845100589096546173095703125">
        <ele>74.59999847412109375</ele>
        <time>2020-05-09T11:34:54.000Z</time>
        <extensions>
          <ns3:TrackPointExtension>
            <ns3:atemp>27.0</ns3:atemp>
            <ns3:hr>115</ns3:hr>
          </ns3:TrackPointExtension>
        </extensions>
      </trkpt>
      <trkpt lat="43.05234384723007678985595703125" lon="13.8450648821890354156494140625">
        <ele>74.8000030517578125</ele>
        <time>2020-05-09T11:34:55.000Z</time>
        <extensions>
          <ns3:TrackPointExtension>
            <ns3:atemp>27.0</ns3:atemp>
            <ns3:hr>116</ns3:hr>
          </ns3:TrackPointExtension>
        </extensions>
      </trkpt>
      <trkpt lat="43.05235214531421661376953125" lon="13.84495834819972515106201171875">
        <ele>75.59999847412109375</ele>
        <time>2020-05-09T11:34:58.000Z</time>
        <extensions>
          <ns3:TrackPointExtension>
            <ns3:atemp>27.0</ns3:atemp>
            <ns3:hr>116</ns3:hr>
          </ns3:TrackPointExtension>
        </extensions>
      </trkpt>
      <trkpt lat="43.052348792552947998046875" lon="13.84488894604146480560302734375">
        <ele>76</ele>
        <time>2020-05-09T11:35:00.000Z</time>
        <extensions>
          <ns3:TrackPointExtension>
            <ns3:atemp>27.0</ns3:atemp>
            <ns3:hr>123</ns3:hr>
          </ns3:TrackPointExtension>
        </extensions>
      </trkpt>
      <trkpt lat="43.05235306732356548309326171875" lon="13.84485575370490550994873046875">
        <ele>76.1999969482421875</ele>
        <time>2020-05-09T11:35:01.000Z</time>
        <extensions>
          <ns3:TrackPointExtension>
            <ns3:atemp>27.0</ns3:atemp>
            <ns3:hr>126</ns3:hr>
          </ns3:TrackPointExtension>
        </extensions>
      </trkpt>
      <trkpt lat="43.05237720720469951629638671875" lon="13.84482658468186855316162109375">
        <ele>76.1999969482421875</ele>
        <time>2020-05-09T11:35:02.000Z</time>
        <extensions>
          <ns3:TrackPointExtension>
            <ns3:atemp>27.0</ns3:atemp>
            <ns3:hr>131</ns3:hr>
          </ns3:TrackPointExtension>
        </extensions>
      </trkpt>
      <trkpt lat="43.05238223634660243988037109375" lon="13.84478568099439144134521484375">
        <ele>76.1999969482421875</ele>
        <time>2020-05-09T11:35:03.000Z</time>
        <extensions>
          <ns3:TrackPointExtension>
            <ns3:atemp>27.0</ns3:atemp>
            <ns3:hr>134</ns3:hr>
          </ns3:TrackPointExtension>
        </extensions>
      </trkpt>
      <trkpt lat="43.05238273926079273223876953125" lon="13.84474595077335834503173828125">
        <ele>76.1999969482421875</ele>
        <time>2020-05-09T11:35:04.000Z</time>
        <extensions>
          <ns3:TrackPointExtension>
            <ns3:atemp>27.0</ns3:atemp>
            <ns3:hr>138</ns3:hr>
          </ns3:TrackPointExtension>
        </extensions>
      </trkpt>
      <trkpt lat="43.0524019338190555572509765625" lon="13.84471158497035503387451171875">
        <ele>76.1999969482421875</ele>
        <time>2020-05-09T11:35:05.000Z</time>
        <extensions>
          <ns3:TrackPointExtension>
            <ns3:atemp>27.0</ns3:atemp>
            <ns3:hr>142</ns3:hr>
          </ns3:TrackPointExtension>
        </extensions>
      </trkpt>
      <trkpt lat="43.05241526104509830474853515625" lon="13.84459323249757289886474609375">
        <ele>76.59999847412109375</ele>
        <time>2020-05-09T11:35:08.000Z</time>
        <extensions>
          <ns3:TrackPointExtension>
            <ns3:atemp>27.0</ns3:atemp>
            <ns3:hr>145</ns3:hr>
          </ns3:TrackPointExtension>
        </extensions>
      </trkpt>
      <trkpt lat="43.052413165569305419921875" lon="13.84455601684749126434326171875">
        <ele>76.59999847412109375</ele>
        <time>2020-05-09T11:35:09.000Z</time>
        <extensions>
          <ns3:TrackPointExtension>
            <ns3:atemp>28.0</ns3:atemp>
            <ns3:hr>145</ns3:hr>
          </ns3:TrackPointExtension>
        </extensions>
      </trkpt>
      <trkpt lat="43.0524840764701366424560546875" lon="13.84438745677471160888671875">
        <ele>77</ele>
        <time>2020-05-09T11:35:15.000Z</time>
        <extensions>
          <ns3:TrackPointExtension>
            <ns3:atemp>28.0</ns3:atemp>
            <ns3:hr>145</ns3:hr>
          </ns3:TrackPointExtension>
        </extensions>
      </trkpt>
      <trkpt lat="43.052541911602020263671875" lon="13.84424990974366664886474609375">
        <ele>76.8000030517578125</ele>
        <time>2020-05-09T11:35:20.000Z</time>
        <extensions>
          <ns3:TrackPointExtension>
            <ns3:atemp>28.0</ns3:atemp>
            <ns3:hr>145</ns3:hr>
          </ns3:TrackPointExtension>
        </extensions>
      </trkpt>
      <trkpt lat="43.05264224298298358917236328125" lon="13.84404589422047138214111328125">
        <ele>76.59999847412109375</ele>
        <time>2020-05-09T11:35:27.000Z</time>
        <extensions>
          <ns3:TrackPointExtension>
            <ns3:atemp>28.0</ns3:atemp>
            <ns3:hr>144</ns3:hr>
          </ns3:TrackPointExtension>
        </extensions>
      </trkpt>
      <trkpt lat="43.05284374393522739410400390625" lon="13.84380835108458995819091796875">
        <ele>76.8000030517578125</ele>
        <time>2020-05-09T11:35:34.000Z</time>
        <extensions>
          <ns3:TrackPointExtension>
            <ns3:atemp>28.0</ns3:atemp>
            <ns3:hr>144</ns3:hr>
          </ns3:TrackPointExtension>
        </extensions>
      </trkpt>
      <trkpt lat="43.05303267203271389007568359375" lon="13.843599222600460052490234375">
        <ele>77.8000030517578125</ele>
        <time>2020-05-09T11:35:39.000Z</time>
        <extensions>
          <ns3:TrackPointExtension>
            <ns3:atemp>28.0</ns3:atemp>
            <ns3:hr>145</ns3:hr>
          </ns3:TrackPointExtension>
        </extensions>
      </trkpt>
      <trkpt lat="43.0530694685876369476318359375" lon="13.84355597198009490966796875">
        <ele>77.8000030517578125</ele>
        <time>2020-05-09T11:35:40.000Z</time>
        <extensions>
          <ns3:TrackPointExtension>
            <ns3:atemp>28.0</ns3:atemp>
            <ns3:hr>145</ns3:hr>
          </ns3:TrackPointExtension>
        </extensions>
      </trkpt>
      <trkpt lat="43.053170554339885711669921875" lon="13.843355141580104827880859375">
        <ele>79</ele>
        <time>2020-05-09T11:35:46.000Z</time>
        <extensions>
          <ns3:TrackPointExtension>
            <ns3:atemp>28.0</ns3:atemp>
            <ns3:hr>144</ns3:hr>
          </ns3:TrackPointExtension>
        </extensions>
      </trkpt>
      <trkpt lat="43.05317935533821582794189453125" lon="13.8431199453771114349365234375">
        <ele>80</ele>
        <time>2020-05-09T11:35:53.000Z</time>
        <extensions>
          <ns3:TrackPointExtension>
            <ns3:atemp>28.0</ns3:atemp>
            <ns3:hr>143</ns3:hr>
          </ns3:TrackPointExtension>
        </extensions>
      </trkpt>
      <trkpt lat="43.05316845886409282684326171875" lon="13.8430207036435604095458984375">
        <ele>80.1999969482421875</ele>
        <time>2020-05-09T11:35:56.000Z</time>
        <extensions>
          <ns3:TrackPointExtension>
            <ns3:atemp>28.0</ns3:atemp>
            <ns3:hr>146</ns3:hr>
          </ns3:TrackPointExtension>
        </extensions>
      </trkpt>
      <trkpt lat="43.05312034673988819122314453125" lon="13.84293445385992527008056640625">
        <ele>81.1999969482421875</ele>
        <time>2020-05-09T11:35:59.000Z</time>
        <extensions>
          <ns3:TrackPointExtension>
            <ns3:atemp>28.0</ns3:atemp>
            <ns3:hr>149</ns3:hr>
          </ns3:TrackPointExtension>
        </extensions>
      </trkpt>
      <trkpt lat="43.05311012081801891326904296875" lon="13.8428993336856365203857421875">
        <ele>81.1999969482421875</ele>
        <time>2020-05-09T11:36:00.000Z</time>
        <extensions>
          <ns3:TrackPointExtension>
            <ns3:atemp>28.0</ns3:atemp>
            <ns3:hr>149</ns3:hr>
          </ns3:TrackPointExtension>
        </extensions>
      </trkpt>
      <trkpt lat="43.05316979996860027313232421875" lon="13.84269691072404384613037109375">
        <ele>82</ele>
        <time>2020-05-09T11:36:06.000Z</time>
        <extensions>
          <ns3:TrackPointExtension>
            <ns3:atemp>27.0</ns3:atemp>
            <ns3:hr>149</ns3:hr>
          </ns3:TrackPointExtension>
        </extensions>
      </trkpt>
      <trkpt lat="43.05317382328212261199951171875" lon="13.84265718050301074981689453125">
        <ele>82.1999969482421875</ele>
        <time>2020-05-09T11:36:07.000Z</time>
        <extensions>
          <ns3:TrackPointExtension>
            <ns3:atemp>27.0</ns3:atemp>
            <ns3:hr>149</ns3:hr>
          </ns3:TrackPointExtension>
        </extensions>
      </trkpt>
      <trkpt lat="43.053188323974609375" lon="13.842527680099010467529296875">
        <ele>82.40000152587890625</ele>
        <time>2020-05-09T11:36:11.000Z</time>
        <extensions>
          <ns3:TrackPointExtension>
            <ns3:atemp>27.0</ns3:atemp>
            <ns3:hr>145</ns3:hr>
          </ns3:TrackPointExtension>
        </extensions>
      </trkpt>
      <trkpt lat="43.05319947190582752227783203125" lon="13.842505551874637603759765625">
        <ele>82.40000152587890625</ele>
        <time>2020-05-09T11:36:12.000Z</time>
        <extensions>
          <ns3:TrackPointExtension>
            <ns3:atemp>27.0</ns3:atemp>
            <ns3:hr>142</ns3:hr>
          </ns3:TrackPointExtension>
        </extensions>
      </trkpt>
      <trkpt lat="43.0532300658524036407470703125" lon="13.8424745388329029083251953125">
        <ele>82.40000152587890625</ele>
        <time>2020-05-09T11:36:13.000Z</time>
        <extensions>
          <ns3:TrackPointExtension>
            <ns3:atemp>27.0</ns3:atemp>
            <ns3:hr>137</ns3:hr>
          </ns3:TrackPointExtension>
        </extensions>
      </trkpt>
      <trkpt lat="43.0532501824200153350830078125" lon="13.84245199151337146759033203125">
        <ele>82.40000152587890625</ele>
        <time>2020-05-09T11:36:14.000Z</time>
        <extensions>
          <ns3:TrackPointExtension>
            <ns3:atemp>27.0</ns3:atemp>
            <ns3:hr>133</ns3:hr>
          </ns3:TrackPointExtension>
        </extensions>
      </trkpt>
      <trkpt lat="43.05325848050415515899658203125" lon="13.8424314558506011962890625">
        <ele>82.40000152587890625</ele>
        <time>2020-05-09T11:36:15.000Z</time>
        <extensions>
          <ns3:TrackPointExtension>
            <ns3:atemp>27.0</ns3:atemp>
            <ns3:hr>128</ns3:hr>
          </ns3:TrackPointExtension>
        </extensions>
      </trkpt>
      <trkpt lat="43.053287565708160400390625" lon="13.84232408367097377777099609375">
        <ele>82.8000030517578125</ele>
        <time>2020-05-09T11:36:18.000Z</time>
        <extensions>
          <ns3:TrackPointExtension>
            <ns3:atemp>27.0</ns3:atemp>
            <ns3:hr>125</ns3:hr>
          </ns3:TrackPointExtension>
        </extensions>
      </trkpt>
      <trkpt lat="43.0533023178577423095703125" lon="13.84222685359418392181396484375">
        <ele>83.1999969482421875</ele>
        <time>2020-05-09T11:36:20.000Z</time>
        <extensions>
          <ns3:TrackPointExtension>
            <ns3:atemp>27.0</ns3:atemp>
            <ns3:hr>124</ns3:hr>
          </ns3:TrackPointExtension>
        </extensions>
      </trkpt>
      <trkpt lat="43.0534500069916248321533203125" lon="13.8419518433511257171630859375">
        <ele>83.40000152587890625</ele>
        <time>2020-05-09T11:36:27.000Z</time>
        <extensions>
          <ns3:TrackPointExtension>
            <ns3:atemp>27.0</ns3:atemp>
            <ns3:hr>123</ns3:hr>
          </ns3:TrackPointExtension>
        </extensions>
      </trkpt>
      <trkpt lat="43.05352234281599521636962890625" lon="13.8417112827301025390625">
        <ele>84.40000152587890625</ele>
        <time>2020-05-09T11:36:34.000Z</time>
        <extensions>
          <ns3:TrackPointExtension>
            <ns3:atemp>27.0</ns3:atemp>
            <ns3:hr>125</ns3:hr>
          </ns3:TrackPointExtension>
        </extensions>
      </trkpt>
      <trkpt lat="43.0535043217241764068603515625" lon="13.84167515672743320465087890625">
        <ele>84.59999847412109375</ele>
        <time>2020-05-09T11:36:35.000Z</time>
        <extensions>
          <ns3:TrackPointExtension>
            <ns3:atemp>27.0</ns3:atemp>
            <ns3:hr>126</ns3:hr>
          </ns3:TrackPointExtension>
        </extensions>
      </trkpt>
      <trkpt lat="43.05353877134621143341064453125" lon="13.84156116284430027008056640625">
        <ele>85.59999847412109375</ele>
        <time>2020-05-09T11:36:39.000Z</time>
        <extensions>
          <ns3:TrackPointExtension>
            <ns3:atemp>27.0</ns3:atemp>
            <ns3:hr>127</ns3:hr>
          </ns3:TrackPointExtension>
        </extensions>
      </trkpt>
      <trkpt lat="43.05356391705572605133056640625" lon="13.84146946482360363006591796875">
        <ele>86.59999847412109375</ele>
        <time>2020-05-09T11:36:42.000Z</time>
        <extensions>
          <ns3:TrackPointExtension>
            <ns3:atemp>27.0</ns3:atemp>
            <ns3:hr>127</ns3:hr>
          </ns3:TrackPointExtension>
        </extensions>
      </trkpt>
      <trkpt lat="43.05334992706775665283203125" lon="13.8413969613611698150634765625">
        <ele>86.8000030517578125</ele>
        <time>2020-05-09T11:36:43.000Z</time>
        <extensions>
          <ns3:TrackPointExtension>
            <ns3:atemp>27.0</ns3:atemp>
            <ns3:hr>126</ns3:hr>
          </ns3:TrackPointExtension>
        </extensions>
      </trkpt>
      <trkpt lat="43.0533179081976413726806640625" lon="13.841338790953159332275390625">
        <ele>87.59999847412109375</ele>
        <time>2020-05-09T11:36:45.000Z</time>
        <extensions>
          <ns3:TrackPointExtension>
            <ns3:atemp>27.0</ns3:atemp>
            <ns3:hr>124</ns3:hr>
          </ns3:TrackPointExtension>
        </extensions>
      </trkpt>
      <trkpt lat="43.053260408341884613037109375" lon="13.84123946540057659149169921875">
        <ele>88.59999847412109375</ele>
        <time>2020-05-09T11:36:48.000Z</time>
        <extensions>
          <ns3:TrackPointExtension>
            <ns3:atemp>27.0</ns3:atemp>
            <ns3:hr>124</ns3:hr>
          </ns3:TrackPointExtension>
        </extensions>
      </trkpt>
      <trkpt lat="43.0531043373048305511474609375" lon="13.8410965539515018463134765625">
        <ele>89.8000030517578125</ele>
        <time>2020-05-09T11:36:51.000Z</time>
        <extensions>
          <ns3:TrackPointExtension>
            <ns3:atemp>27.0</ns3:atemp>
            <ns3:hr>125</ns3:hr>
          </ns3:TrackPointExtension>
        </extensions>
      </trkpt>
      <trkpt lat="43.05312219075858592987060546875" lon="13.84101717732846736907958984375">
        <ele>91</ele>
        <time>2020-05-09T11:36:54.000Z</time>
        <extensions>
          <ns3:TrackPointExtension>
            <ns3:atemp>27.0</ns3:atemp>
            <ns3:hr>125</ns3:hr>
          </ns3:TrackPointExtension>
        </extensions>
      </trkpt>
      <trkpt lat="43.05312118493020534515380859375" lon="13.84092715568840503692626953125">
        <ele>92.1999969482421875</ele>
        <time>2020-05-09T11:36:57.000Z</time>
        <extensions>
          <ns3:TrackPointExtension>
            <ns3:atemp>27.0</ns3:atemp>
            <ns3:hr>124</ns3:hr>
          </ns3:TrackPointExtension>
        </extensions>
      </trkpt>
      <trkpt lat="43.05311582051217555999755859375" lon="13.84090016596019268035888671875">
        <ele>92.40000152587890625</ele>
        <time>2020-05-09T11:36:58.000Z</time>
        <extensions>
          <ns3:TrackPointExtension>
            <ns3:atemp>27.0</ns3:atemp>
            <ns3:hr>120</ns3:hr>
          </ns3:TrackPointExtension>
        </extensions>
      </trkpt>
      <trkpt lat="43.05308547802269458770751953125" lon="13.8408409059047698974609375">
        <ele>93</ele>
        <time>2020-05-09T11:37:00.000Z</time>
        <extensions>
          <ns3:TrackPointExtension>
            <ns3:atemp>27.0</ns3:atemp>
            <ns3:hr>123</ns3:hr>
          </ns3:TrackPointExtension>
        </extensions>
      </trkpt>
      <trkpt lat="43.05305597372353076934814453125" lon="13.84078147821128368377685546875">
        <ele>93.1999969482421875</ele>
        <time>2020-05-09T11:37:02.000Z</time>
        <extensions>
          <ns3:TrackPointExtension>
            <ns3:atemp>27.0</ns3:atemp>
            <ns3:hr>123</ns3:hr>
          </ns3:TrackPointExtension>
        </extensions>
      </trkpt>
      <trkpt lat="43.053026385605335235595703125" lon="13.8407518900930881500244140625">
        <ele>93.40000152587890625</ele>
        <time>2020-05-09T11:37:03.000Z</time>
        <extensions>
          <ns3:TrackPointExtension>
            <ns3:atemp>27.0</ns3:atemp>
            <ns3:hr>123</ns3:hr>
          </ns3:TrackPointExtension>
        </extensions>
      </trkpt>
      <trkpt lat="43.05297039449214935302734375" lon="13.8406504690647125244140625">
        <ele>93.59999847412109375</ele>
        <time>2020-05-09T11:37:06.000Z</time>
        <extensions>
          <ns3:TrackPointExtension>
            <ns3:atemp>27.0</ns3:atemp>
            <ns3:hr>126</ns3:hr>
          </ns3:TrackPointExtension>
        </extensions>
      </trkpt>
      <trkpt lat="43.0529014952480792999267578125" lon="13.84048241190612316131591796875">
        <ele>94</ele>
        <time>2020-05-09T11:37:11.000Z</time>
        <extensions>
          <ns3:TrackPointExtension>
            <ns3:atemp>27.0</ns3:atemp>
            <ns3:hr>125</ns3:hr>
          </ns3:TrackPointExtension>
        </extensions>
      </trkpt>
      <trkpt lat="43.052893616259098052978515625" lon="13.8404565118253231048583984375">
        <ele>94</ele>
        <time>2020-05-09T11:37:12.000Z</time>
        <extensions>
          <ns3:TrackPointExtension>
            <ns3:atemp>27.0</ns3:atemp>
            <ns3:hr>129</ns3:hr>
          </ns3:TrackPointExtension>
        </extensions>
      </trkpt>
      <trkpt lat="43.0528867430984973907470703125" lon="13.8404273428022861480712890625">
        <ele>94.1999969482421875</ele>
        <time>2020-05-09T11:37:13.000Z</time>
        <extensions>
          <ns3:TrackPointExtension>
            <ns3:atemp>27.0</ns3:atemp>
            <ns3:hr>133</ns3:hr>
          </ns3:TrackPointExtension>
        </extensions>
      </trkpt>
      <trkpt lat="43.0528797022998332977294921875" lon="13.84039943106472492218017578125">
        <ele>94.1999969482421875</ele>
        <time>2020-05-09T11:37:14.000Z</time>
        <extensions>
          <ns3:TrackPointExtension>
            <ns3:atemp>27.0</ns3:atemp>
            <ns3:hr>137</ns3:hr>
          </ns3:TrackPointExtension>
        </extensions>
      </trkpt>
      <trkpt lat="43.0528713203966617584228515625" lon="13.84036120958626270294189453125">
        <ele>94.40000152587890625</ele>
        <time>2020-05-09T11:37:15.000Z</time>
        <extensions>
          <ns3:TrackPointExtension>
            <ns3:atemp>27.0</ns3:atemp>
            <ns3:hr>140</ns3:hr>
          </ns3:TrackPointExtension>
        </extensions>
      </trkpt>
      <trkpt lat="43.05286671034991741180419921875" lon="13.84032525122165679931640625">
        <ele>94.40000152587890625</ele>
        <time>2020-05-09T11:37:16.000Z</time>
        <extensions>
          <ns3:TrackPointExtension>
            <ns3:atemp>27.0</ns3:atemp>
            <ns3:hr>145</ns3:hr>
          </ns3:TrackPointExtension>
        </extensions>
      </trkpt>
      <trkpt lat="43.0528686381876468658447265625" lon="13.84028594009578227996826171875">
        <ele>94.1999969482421875</ele>
        <time>2020-05-09T11:37:17.000Z</time>
        <extensions>
          <ns3:TrackPointExtension>
            <ns3:atemp>27.0</ns3:atemp>
            <ns3:hr>148</ns3:hr>
          </ns3:TrackPointExtension>
        </extensions>
      </trkpt>
      <trkpt lat="43.05287023074924945831298828125" lon="13.840249143540859222412109375">
        <ele>94.1999969482421875</ele>
        <time>2020-05-09T11:37:18.000Z</time>
        <extensions>
          <ns3:TrackPointExtension>
            <ns3:atemp>27.0</ns3:atemp>
            <ns3:hr>148</ns3:hr>
          </ns3:TrackPointExtension>
        </extensions>
      </trkpt>
      <trkpt lat="43.0528780259191989898681640625" lon="13.84011763148009777069091796875">
        <ele>93.1999969482421875</ele>
        <time>2020-05-09T11:37:21.000Z</time>
        <extensions>
          <ns3:TrackPointExtension>
            <ns3:atemp>27.0</ns3:atemp>
            <ns3:hr>148</ns3:hr>
          </ns3:TrackPointExtension>
        </extensions>
      </trkpt>
      <trkpt lat="43.05294449441134929656982421875" lon="13.84000984020531177520751953125">
        <ele>92.8000030517578125</ele>
        <time>2020-05-09T11:37:24.000Z</time>
        <extensions>
          <ns3:TrackPointExtension>
            <ns3:atemp>27.0</ns3:atemp>
            <ns3:hr>148</ns3:hr>
          </ns3:TrackPointExtension>
        </extensions>
      </trkpt>
      <trkpt lat="43.0528927780687808990478515625" lon="13.8398458063602447509765625">
        <ele>92.8000030517578125</ele>
        <time>2020-05-09T11:37:28.000Z</time>
        <extensions>
          <ns3:TrackPointExtension>
            <ns3:atemp>27.0</ns3:atemp>
            <ns3:hr>145</ns3:hr>
          </ns3:TrackPointExtension>
        </extensions>
      </trkpt>
      <trkpt lat="43.05286444723606109619140625" lon="13.839808590710163116455078125">
        <ele>92.59999847412109375</ele>
        <time>2020-05-09T11:37:29.000Z</time>
        <extensions>
          <ns3:TrackPointExtension>
            <ns3:atemp>27.0</ns3:atemp>
            <ns3:hr>145</ns3:hr>
          </ns3:TrackPointExtension>
        </extensions>
      </trkpt>
      <trkpt lat="43.05264048278331756591796875" lon="13.83944691158831119537353515625">
        <ele>92.40000152587890625</ele>
        <time>2020-05-09T11:37:35.000Z</time>
        <extensions>
          <ns3:TrackPointExtension>
            <ns3:atemp>27.0</ns3:atemp>
            <ns3:hr>144</ns3:hr>
          </ns3:TrackPointExtension>
        </extensions>
      </trkpt>
      <trkpt lat="43.052466809749603271484375" lon="13.839108534157276153564453125">
        <ele>93.40000152587890625</ele>
        <time>2020-05-09T11:37:41.000Z</time>
        <extensions>
          <ns3:TrackPointExtension>
            <ns3:atemp>27.0</ns3:atemp>
            <ns3:hr>144</ns3:hr>
          </ns3:TrackPointExtension>
        </extensions>
      </trkpt>
      <trkpt lat="43.05240302346646785736083984375" lon="13.83886420167982578277587890625">
        <ele>94.1999969482421875</ele>
        <time>2020-05-09T11:37:47.000Z</time>
        <extensions>
          <ns3:TrackPointExtension>
            <ns3:atemp>27.0</ns3:atemp>
            <ns3:hr>143</ns3:hr>
          </ns3:TrackPointExtension>
        </extensions>
      </trkpt>
      <trkpt lat="43.05239128880202770233154296875" lon="13.83882765658199787139892578125">
        <ele>94.40000152587890625</ele>
        <time>2020-05-09T11:37:48.000Z</time>
        <extensions>
          <ns3:TrackPointExtension>
            <ns3:atemp>27.0</ns3:atemp>
            <ns3:hr>144</ns3:hr>
          </ns3:TrackPointExtension>
        </extensions>
      </trkpt>
      <trkpt lat="43.0523796379566192626953125" lon="13.8387995772063732147216796875">
        <ele>94.59999847412109375</ele>
        <time>2020-05-09T11:37:49.000Z</time>
        <extensions>
          <ns3:TrackPointExtension>
            <ns3:atemp>27.0</ns3:atemp>
            <ns3:hr>139</ns3:hr>
          </ns3:TrackPointExtension>
        </extensions>
      </trkpt>
      <trkpt lat="43.05234787054359912872314453125" lon="13.8387596793472766876220703125">
        <ele>95</ele>
        <time>2020-05-09T11:37:51.000Z</time>
        <extensions>
          <ns3:TrackPointExtension>
            <ns3:atemp>27.0</ns3:atemp>
            <ns3:hr>132</ns3:hr>
          </ns3:TrackPointExtension>
        </extensions>
      </trkpt>
      <trkpt lat="43.05233328603208065032958984375" lon="13.83874450810253620147705078125">
        <ele>95.1999969482421875</ele>
        <time>2020-05-09T11:37:52.000Z</time>
        <extensions>
          <ns3:TrackPointExtension>
            <ns3:atemp>27.0</ns3:atemp>
            <ns3:hr>128</ns3:hr>
          </ns3:TrackPointExtension>
        </extensions>
      </trkpt>
      <trkpt lat="43.0523224733769893646240234375" lon="13.83872355334460735321044921875">
        <ele>95.1999969482421875</ele>
        <time>2020-05-09T11:37:53.000Z</time>
        <extensions>
          <ns3:TrackPointExtension>
            <ns3:atemp>27.0</ns3:atemp>
            <ns3:hr>125</ns3:hr>
          </ns3:TrackPointExtension>
        </extensions>
      </trkpt>
      <trkpt lat="43.052306212484836578369140625" lon="13.8386951386928558349609375">
        <ele>95.1999969482421875</ele>
        <time>2020-05-09T11:37:54.000Z</time>
        <extensions>
          <ns3:TrackPointExtension>
            <ns3:atemp>27.0</ns3:atemp>
            <ns3:hr>124</ns3:hr>
          </ns3:TrackPointExtension>
        </extensions>
      </trkpt>
      <trkpt lat="43.05230864323675632476806640625" lon="13.8385756127536296844482421875">
        <ele>95.59999847412109375</ele>
        <time>2020-05-09T11:37:59.000Z</time>
        <extensions>
          <ns3:TrackPointExtension>
            <ns3:atemp>27.0</ns3:atemp>
            <ns3:hr>125</ns3:hr>
          </ns3:TrackPointExtension>
        </extensions>
      </trkpt>
      <trkpt lat="43.05231249891221523284912109375" lon="13.83848114870488643646240234375">
        <ele>96.40000152587890625</ele>
        <time>2020-05-09T11:38:03.000Z</time>
        <extensions>
          <ns3:TrackPointExtension>
            <ns3:atemp>27.0</ns3:atemp>
            <ns3:hr>125</ns3:hr>
          </ns3:TrackPointExtension>
        </extensions>
      </trkpt>
      <trkpt lat="43.05230445228517055511474609375" lon="13.8383623771369457244873046875">
        <ele>97.40000152587890625</ele>
        <time>2020-05-09T11:38:08.000Z</time>
        <extensions>
          <ns3:TrackPointExtension>
            <ns3:atemp>27.0</ns3:atemp>
            <ns3:hr>122</ns3:hr>
          </ns3:TrackPointExtension>
        </extensions>
      </trkpt>
      <trkpt lat="43.05229657329618930816650390625" lon="13.8383405841886997222900390625">
        <ele>97.59999847412109375</ele>
        <time>2020-05-09T11:38:09.000Z</time>
        <extensions>
          <ns3:TrackPointExtension>
            <ns3:atemp>27.0</ns3:atemp>
            <ns3:hr>121</ns3:hr>
          </ns3:TrackPointExtension>
        </extensions>
      </trkpt>
      <trkpt lat="43.05226740427315235137939453125" lon="13.8382255844771862030029296875">
        <ele>98.59999847412109375</ele>
        <time>2020-05-09T11:38:14.000Z</time>
        <extensions>
          <ns3:TrackPointExtension>
            <ns3:atemp>27.0</ns3:atemp>
            <ns3:hr>123</ns3:hr>
          </ns3:TrackPointExtension>
        </extensions>
      </trkpt>
      <trkpt lat="43.05227863602340221405029296875" lon="13.838198594748973846435546875">
        <ele>98.59999847412109375</ele>
        <time>2020-05-09T11:38:15.000Z</time>
        <extensions>
          <ns3:TrackPointExtension>
            <ns3:atemp>27.0</ns3:atemp>
            <ns3:hr>124</ns3:hr>
          </ns3:TrackPointExtension>
        </extensions>
      </trkpt>
      <trkpt lat="43.05226237513124942779541015625" lon="13.838114440441131591796875">
        <ele>99.59999847412109375</ele>
        <time>2020-05-09T11:38:19.000Z</time>
        <extensions>
          <ns3:TrackPointExtension>
            <ns3:atemp>27.0</ns3:atemp>
            <ns3:hr>126</ns3:hr>
          </ns3:TrackPointExtension>
        </extensions>
      </trkpt>
      <trkpt lat="43.0522187054157257080078125" lon="13.83805065415799617767333984375">
        <ele>100.59999847412109375</ele>
        <time>2020-05-09T11:38:22.000Z</time>
        <extensions>
          <ns3:TrackPointExtension>
            <ns3:atemp>27.0</ns3:atemp>
            <ns3:hr>126</ns3:hr>
          </ns3:TrackPointExtension>
        </extensions>
      </trkpt>
      <trkpt lat="43.05218559689819812774658203125" lon="13.8379727862775325775146484375">
        <ele>101.59999847412109375</ele>
        <time>2020-05-09T11:38:26.000Z</time>
        <extensions>
          <ns3:TrackPointExtension>
            <ns3:atemp>27.0</ns3:atemp>
            <ns3:hr>126</ns3:hr>
          </ns3:TrackPointExtension>
        </extensions>
      </trkpt>
      <trkpt lat="43.05218375287950038909912109375" lon="13.83795057423412799835205078125">
        <ele>101.8000030517578125</ele>
        <time>2020-05-09T11:38:27.000Z</time>
        <extensions>
          <ns3:TrackPointExtension>
            <ns3:atemp>27.0</ns3:atemp>
            <ns3:hr>126</ns3:hr>
          </ns3:TrackPointExtension>
        </extensions>
      </trkpt>
      <trkpt lat="43.05216732434928417205810546875" lon="13.83787882514297962188720703125">
        <ele>103</ele>
        <time>2020-05-09T11:38:30.000Z</time>
        <extensions>
          <ns3:TrackPointExtension>
            <ns3:atemp>27.0</ns3:atemp>
            <ns3:hr>127</ns3:hr>
          </ns3:TrackPointExtension>
        </extensions>
      </trkpt>
      <trkpt lat="43.05214150808751583099365234375" lon="13.8378259353339672088623046875">
        <ele>103.8000030517578125</ele>
        <time>2020-05-09T11:38:32.000Z</time>
        <extensions>
          <ns3:TrackPointExtension>
            <ns3:atemp>27.0</ns3:atemp>
            <ns3:hr>127</ns3:hr>
          </ns3:TrackPointExtension>
        </extensions>
      </trkpt>
      <trkpt lat="43.05213128216564655303955078125" lon="13.83780389092862606048583984375">
        <ele>104.1999969482421875</ele>
        <time>2020-05-09T11:38:33.000Z</time>
        <extensions>
          <ns3:TrackPointExtension>
            <ns3:atemp>27.0</ns3:atemp>
            <ns3:hr>127</ns3:hr>
          </ns3:TrackPointExtension>
        </extensions>
      </trkpt>
      <trkpt lat="43.05209071375429630279541015625" lon="13.837704397737979888916015625">
        <ele>105.40000152587890625</ele>
        <time>2020-05-09T11:38:37.000Z</time>
        <extensions>
          <ns3:TrackPointExtension>
            <ns3:atemp>26.0</ns3:atemp>
            <ns3:hr>132</ns3:hr>
          </ns3:TrackPointExtension>
        </extensions>
      </trkpt>
      <trkpt lat="43.05207881145179271697998046875" lon="13.83765603415668010711669921875">
        <ele>106.1999969482421875</ele>
        <time>2020-05-09T11:38:39.000Z</time>
        <extensions>
          <ns3:TrackPointExtension>
            <ns3:atemp>26.0</ns3:atemp>
            <ns3:hr>134</ns3:hr>
          </ns3:TrackPointExtension>
        </extensions>
      </trkpt>
      <trkpt lat="43.05207059718668460845947265625" lon="13.83763424120843410491943359375">
        <ele>106.8000030517578125</ele>
        <time>2020-05-09T11:38:40.000Z</time>
        <extensions>
          <ns3:TrackPointExtension>
            <ns3:atemp>26.0</ns3:atemp>
            <ns3:hr>134</ns3:hr>
          </ns3:TrackPointExtension>
        </extensions>
      </trkpt>
      <trkpt lat="43.05204494856297969818115234375" lon="13.8375717960298061370849609375">
        <ele>108.1999969482421875</ele>
        <time>2020-05-09T11:38:43.000Z</time>
        <extensions>
          <ns3:TrackPointExtension>
            <ns3:atemp>26.0</ns3:atemp>
            <ns3:hr>134</ns3:hr>
          </ns3:TrackPointExtension>
        </extensions>
      </trkpt>
      <trkpt lat="43.0520175397396087646484375" lon="13.83750113658607006072998046875">
        <ele>109.40000152587890625</ele>
        <time>2020-05-09T11:38:46.000Z</time>
        <extensions>
          <ns3:TrackPointExtension>
            <ns3:atemp>26.0</ns3:atemp>
            <ns3:hr>134</ns3:hr>
          </ns3:TrackPointExtension>
        </extensions>
      </trkpt>
      <trkpt lat="43.0520083196461200714111328125" lon="13.83744346909224987030029296875">
        <ele>110.40000152587890625</ele>
        <time>2020-05-09T11:38:48.000Z</time>
        <extensions>
          <ns3:TrackPointExtension>
            <ns3:atemp>26.0</ns3:atemp>
            <ns3:hr>133</ns3:hr>
          </ns3:TrackPointExtension>
        </extensions>
      </trkpt>
      <trkpt lat="43.05200505070388317108154296875" lon="13.83742234669625759124755859375">
        <ele>111</ele>
        <time>2020-05-09T11:38:49.000Z</time>
        <extensions>
          <ns3:TrackPointExtension>
            <ns3:atemp>26.0</ns3:atemp>
            <ns3:hr>134</ns3:hr>
          </ns3:TrackPointExtension>
        </extensions>
      </trkpt>
      <trkpt lat="43.05197722278535366058349609375" lon="13.8373593986034393310546875">
        <ele>112</ele>
        <time>2020-05-09T11:38:52.000Z</time>
        <extensions>
          <ns3:TrackPointExtension>
            <ns3:atemp>26.0</ns3:atemp>
            <ns3:hr>130</ns3:hr>
          </ns3:TrackPointExtension>
        </extensions>
      </trkpt>
      <trkpt lat="43.05195308290421962738037109375" lon="13.8372898288071155548095703125">
        <ele>113.40000152587890625</ele>
        <time>2020-05-09T11:38:55.000Z</time>
        <extensions>
          <ns3:TrackPointExtension>
            <ns3:atemp>26.0</ns3:atemp>
            <ns3:hr>132</ns3:hr>
          </ns3:TrackPointExtension>
        </extensions>
      </trkpt>
      <trkpt lat="43.0519486404955387115478515625" lon="13.83717709220945835113525390625">
        <ele>114.40000152587890625</ele>
        <time>2020-05-09T11:39:00.000Z</time>
        <extensions>
          <ns3:TrackPointExtension>
            <ns3:atemp>26.0</ns3:atemp>
            <ns3:hr>133</ns3:hr>
          </ns3:TrackPointExtension>
        </extensions>
      </trkpt>
      <trkpt lat="43.0519442819058895111083984375" lon="13.83713350631296634674072265625">
        <ele>114.8000030517578125</ele>
        <time>2020-05-09T11:39:02.000Z</time>
        <extensions>
          <ns3:TrackPointExtension>
            <ns3:atemp>26.0</ns3:atemp>
            <ns3:hr>133</ns3:hr>
          </ns3:TrackPointExtension>
        </extensions>
      </trkpt>
      <trkpt lat="43.05194168351590633392333984375" lon="13.83705840446054935455322265625">
        <ele>115.40000152587890625</ele>
        <time>2020-05-09T11:39:05.000Z</time>
        <extensions>
          <ns3:TrackPointExtension>
            <ns3:atemp>26.0</ns3:atemp>
            <ns3:hr>137</ns3:hr>
          </ns3:TrackPointExtension>
        </extensions>
      </trkpt>
      <trkpt lat="43.051936738193035125732421875" lon="13.8370377011597156524658203125">
        <ele>115.59999847412109375</ele>
        <time>2020-05-09T11:39:06.000Z</time>
        <extensions>
          <ns3:TrackPointExtension>
            <ns3:atemp>26.0</ns3:atemp>
            <ns3:hr>137</ns3:hr>
          </ns3:TrackPointExtension>
        </extensions>
      </trkpt>
      <trkpt lat="43.0519154481589794158935546875" lon="13.83695061318576335906982421875">
        <ele>115.8000030517578125</ele>
        <time>2020-05-09T11:39:11.000Z</time>
        <extensions>
          <ns3:TrackPointExtension>
            <ns3:atemp>26.0</ns3:atemp>
            <ns3:hr>139</ns3:hr>
          </ns3:TrackPointExtension>
        </extensions>
      </trkpt>
      <trkpt lat="43.0519124306738376617431640625" lon="13.8368576578795909881591796875">
        <ele>115.8000030517578125</ele>
        <time>2020-05-09T11:39:15.000Z</time>
        <extensions>
          <ns3:TrackPointExtension>
            <ns3:atemp>26.0</ns3:atemp>
            <ns3:hr>136</ns3:hr>
          </ns3:TrackPointExtension>
        </extensions>
      </trkpt>
      <trkpt lat="43.0518953315913677215576171875" lon="13.8367235474288463592529296875">
        <ele>116</ele>
        <time>2020-05-09T11:39:19.000Z</time>
        <extensions>
          <ns3:TrackPointExtension>
            <ns3:atemp>27.0</ns3:atemp>
            <ns3:hr>137</ns3:hr>
          </ns3:TrackPointExtension>
        </extensions>
      </trkpt>
      <trkpt lat="43.05188032798469066619873046875" lon="13.83646898902952671051025390625">
        <ele>116.1999969482421875</ele>
        <time>2020-05-09T11:39:27.000Z</time>
        <extensions>
          <ns3:TrackPointExtension>
            <ns3:atemp>27.0</ns3:atemp>
            <ns3:hr>137</ns3:hr>
          </ns3:TrackPointExtension>
        </extensions>
      </trkpt>
      <trkpt lat="43.05188133381307125091552734375" lon="13.8363919593393802642822265625">
        <ele>116.59999847412109375</ele>
        <time>2020-05-09T11:39:30.000Z</time>
        <extensions>
          <ns3:TrackPointExtension>
            <ns3:atemp>27.0</ns3:atemp>
            <ns3:hr>137</ns3:hr>
          </ns3:TrackPointExtension>
        </extensions>
      </trkpt>
      <trkpt lat="43.05188586004078388214111328125" lon="13.83627570234239101409912109375">
        <ele>117.40000152587890625</ele>
        <time>2020-05-09T11:39:34.000Z</time>
        <extensions>
          <ns3:TrackPointExtension>
            <ns3:atemp>27.0</ns3:atemp>
            <ns3:hr>136</ns3:hr>
          </ns3:TrackPointExtension>
        </extensions>
      </trkpt>
      <trkpt lat="43.0518834292888641357421875" lon="13.8362132571637630462646484375">
        <ele>117.8000030517578125</ele>
        <time>2020-05-09T11:39:36.000Z</time>
        <extensions>
          <ns3:TrackPointExtension>
            <ns3:atemp>27.0</ns3:atemp>
            <ns3:hr>133</ns3:hr>
          </ns3:TrackPointExtension>
        </extensions>
      </trkpt>
      <trkpt lat="43.05189994163811206817626953125" lon="13.8360692560672760009765625">
        <ele>119.1999969482421875</ele>
        <time>2020-05-09T11:39:41.000Z</time>
        <extensions>
          <ns3:TrackPointExtension>
            <ns3:atemp>27.0</ns3:atemp>
            <ns3:hr>134</ns3:hr>
          </ns3:TrackPointExtension>
        </extensions>
      </trkpt>
      <trkpt lat="43.05190983228385448455810546875" lon="13.8359726965427398681640625">
        <ele>120.40000152587890625</ele>
        <time>2020-05-09T11:39:46.000Z</time>
        <extensions>
          <ns3:TrackPointExtension>
            <ns3:atemp>27.0</ns3:atemp>
            <ns3:hr>136</ns3:hr>
          </ns3:TrackPointExtension>
        </extensions>
      </trkpt>
      <trkpt lat="43.05190865881741046905517578125" lon="13.83590421639382839202880859375">
        <ele>120.8000030517578125</ele>
        <time>2020-05-09T11:39:49.000Z</time>
        <extensions>
          <ns3:TrackPointExtension>
            <ns3:atemp>27.0</ns3:atemp>
            <ns3:hr>136</ns3:hr>
          </ns3:TrackPointExtension>
        </extensions>
      </trkpt>
      <trkpt lat="43.05190882645547389984130859375" lon="13.8358491472899913787841796875">
        <ele>121.40000152587890625</ele>
        <time>2020-05-09T11:39:51.000Z</time>
        <extensions>
          <ns3:TrackPointExtension>
            <ns3:atemp>27.0</ns3:atemp>
            <ns3:hr>135</ns3:hr>
          </ns3:TrackPointExtension>
        </extensions>
      </trkpt>
      <trkpt lat="43.05190798826515674591064453125" lon="13.835799358785152435302734375">
        <ele>122</ele>
        <time>2020-05-09T11:39:53.000Z</time>
        <extensions>
          <ns3:TrackPointExtension>
            <ns3:atemp>27.0</ns3:atemp>
            <ns3:hr>139</ns3:hr>
          </ns3:TrackPointExtension>
        </extensions>
      </trkpt>
      <trkpt lat="43.05190999992191791534423828125" lon="13.83576138876378536224365234375">
        <ele>122.40000152587890625</ele>
        <time>2020-05-09T11:39:54.000Z</time>
        <extensions>
          <ns3:TrackPointExtension>
            <ns3:atemp>27.0</ns3:atemp>
            <ns3:hr>136</ns3:hr>
          </ns3:TrackPointExtension>
        </extensions>
      </trkpt>
      <trkpt lat="43.0519117601215839385986328125" lon="13.83569031022489070892333984375">
        <ele>123.59999847412109375</ele>
        <time>2020-05-09T11:39:56.000Z</time>
        <extensions>
          <ns3:TrackPointExtension>
            <ns3:atemp>27.0</ns3:atemp>
            <ns3:hr>139</ns3:hr>
          </ns3:TrackPointExtension>
        </extensions>
      </trkpt>
      <trkpt lat="43.05190530605614185333251953125" lon="13.83563750423491001129150390625">
        <ele>124.8000030517578125</ele>
        <time>2020-05-09T11:39:58.000Z</time>
        <extensions>
          <ns3:TrackPointExtension>
            <ns3:atemp>27.0</ns3:atemp>
            <ns3:hr>140</ns3:hr>
          </ns3:TrackPointExtension>
        </extensions>
      </trkpt>
      <trkpt lat="43.05188535712659358978271484375" lon="13.8355484046041965484619140625">
        <ele>126.1999969482421875</ele>
        <time>2020-05-09T11:40:02.000Z</time>
        <extensions>
          <ns3:TrackPointExtension>
            <ns3:atemp>27.0</ns3:atemp>
            <ns3:hr>139</ns3:hr>
          </ns3:TrackPointExtension>
        </extensions>
      </trkpt>
      <trkpt lat="43.0518646538257598876953125" lon="13.83549853228032588958740234375">
        <ele>127.59999847412109375</ele>
        <time>2020-05-09T11:40:04.000Z</time>
        <extensions>
          <ns3:TrackPointExtension>
            <ns3:atemp>27.0</ns3:atemp>
            <ns3:hr>139</ns3:hr>
          </ns3:TrackPointExtension>
        </extensions>
      </trkpt>
      <trkpt lat="43.051848225295543670654296875" lon="13.8354471512138843536376953125">
        <ele>128.600006103515625</ele>
        <time>2020-05-09T11:40:06.000Z</time>
        <extensions>
          <ns3:TrackPointExtension>
            <ns3:atemp>27.0</ns3:atemp>
            <ns3:hr>139</ns3:hr>
          </ns3:TrackPointExtension>
        </extensions>
      </trkpt>
      <trkpt lat="43.0518306232988834381103515625" lon="13.83536492474377155303955078125">
        <ele>129</ele>
        <time>2020-05-09T11:40:09.000Z</time>
        <extensions>
          <ns3:TrackPointExtension>
            <ns3:atemp>27.0</ns3:atemp>
            <ns3:hr>137</ns3:hr>
          </ns3:TrackPointExtension>
        </extensions>
      </trkpt>
      <trkpt lat="43.0517873726785182952880859375" lon="13.83512017317116260528564453125">
        <ele>129.600006103515625</ele>
        <time>2020-05-09T11:40:18.000Z</time>
        <extensions>
          <ns3:TrackPointExtension>
            <ns3:atemp>27.0</ns3:atemp>
            <ns3:hr>143</ns3:hr>
          </ns3:TrackPointExtension>
        </extensions>
      </trkpt>
      <trkpt lat="43.05178217589855194091796875" lon="13.83509402163326740264892578125">
        <ele>129.8000030517578125</ele>
        <time>2020-05-09T11:40:19.000Z</time>
        <extensions>
          <ns3:TrackPointExtension>
            <ns3:atemp>27.0</ns3:atemp>
            <ns3:hr>146</ns3:hr>
          </ns3:TrackPointExtension>
        </extensions>
      </trkpt>
      <trkpt lat="43.05177588947117328643798828125" lon="13.83506971411406993865966796875">
        <ele>129.8000030517578125</ele>
        <time>2020-05-09T11:40:20.000Z</time>
        <extensions>
          <ns3:TrackPointExtension>
            <ns3:atemp>27.0</ns3:atemp>
            <ns3:hr>150</ns3:hr>
          </ns3:TrackPointExtension>
        </extensions>
      </trkpt>
      <trkpt lat="43.0517709441483020782470703125" lon="13.83504875935614109039306640625">
        <ele>130</ele>
        <time>2020-05-09T11:40:21.000Z</time>
        <extensions>
          <ns3:TrackPointExtension>
            <ns3:atemp>27.0</ns3:atemp>
            <ns3:hr>153</ns3:hr>
          </ns3:TrackPointExtension>
        </extensions>
      </trkpt>
      <trkpt lat="43.05175761692225933074951171875" lon="13.83500299416482448577880859375">
        <ele>130.1999969482421875</ele>
        <time>2020-05-09T11:40:23.000Z</time>
        <extensions>
          <ns3:TrackPointExtension>
            <ns3:atemp>27.0</ns3:atemp>
            <ns3:hr>159</ns3:hr>
          </ns3:TrackPointExtension>
        </extensions>
      </trkpt>
      <trkpt lat="43.05174470879137516021728515625" lon="13.8349566422402858734130859375">
        <ele>130.399993896484375</ele>
        <time>2020-05-09T11:40:25.000Z</time>
        <extensions>
          <ns3:TrackPointExtension>
            <ns3:atemp>27.0</ns3:atemp>
            <ns3:hr>156</ns3:hr>
          </ns3:TrackPointExtension>
        </extensions>
      </trkpt>
      <trkpt lat="43.051724173128604888916015625" lon="13.8348993100225925445556640625">
        <ele>130.8000030517578125</ele>
        <time>2020-05-09T11:40:28.000Z</time>
        <extensions>
          <ns3:TrackPointExtension>
            <ns3:atemp>27.0</ns3:atemp>
            <ns3:hr>156</ns3:hr>
          </ns3:TrackPointExtension>
        </extensions>
      </trkpt>
      <trkpt lat="43.05168938823044300079345703125" lon="13.8348315842449665069580078125">
        <ele>131.1999969482421875</ele>
        <time>2020-05-09T11:40:33.000Z</time>
        <extensions>
          <ns3:TrackPointExtension>
            <ns3:atemp>27.0</ns3:atemp>
            <ns3:hr>155</ns3:hr>
          </ns3:TrackPointExtension>
        </extensions>
      </trkpt>
      <trkpt lat="43.05168829858303070068359375" lon="13.83481331169605255126953125">
        <ele>131.399993896484375</ele>
        <time>2020-05-09T11:40:34.000Z</time>
        <extensions>
          <ns3:TrackPointExtension>
            <ns3:atemp>27.0</ns3:atemp>
            <ns3:hr>155</ns3:hr>
          </ns3:TrackPointExtension>
        </extensions>
      </trkpt>
      <trkpt lat="43.05169793777167797088623046875" lon="13.8347672112286090850830078125">
        <ele>131.8000030517578125</ele>
        <time>2020-05-09T11:40:36.000Z</time>
        <extensions>
          <ns3:TrackPointExtension>
            <ns3:atemp>27.0</ns3:atemp>
            <ns3:hr>157</ns3:hr>
          </ns3:TrackPointExtension>
        </extensions>
      </trkpt>
      <trkpt lat="43.0517310462892055511474609375" lon="13.8347112201154232025146484375">
        <ele>132</ele>
        <time>2020-05-09T11:40:39.000Z</time>
        <extensions>
          <ns3:TrackPointExtension>
            <ns3:atemp>27.0</ns3:atemp>
            <ns3:hr>157</ns3:hr>
          </ns3:TrackPointExtension>
        </extensions>
      </trkpt>
      <trkpt lat="43.051779828965663909912109375" lon="13.83458591066300868988037109375">
        <ele>132.399993896484375</ele>
        <time>2020-05-09T11:40:44.000Z</time>
        <extensions>
          <ns3:TrackPointExtension>
            <ns3:atemp>27.0</ns3:atemp>
            <ns3:hr>154</ns3:hr>
          </ns3:TrackPointExtension>
        </extensions>
      </trkpt>
      <trkpt lat="43.0518198944628238677978515625" lon="13.83452774025499820709228515625">
        <ele>132.600006103515625</ele>
        <time>2020-05-09T11:40:47.000Z</time>
        <extensions>
          <ns3:TrackPointExtension>
            <ns3:atemp>27.0</ns3:atemp>
            <ns3:hr>152</ns3:hr>
          </ns3:TrackPointExtension>
        </extensions>
      </trkpt>
      <trkpt lat="43.051882423460483551025390625" lon="13.83442481048405170440673828125">
        <ele>132.8000030517578125</ele>
        <time>2020-05-09T11:40:52.000Z</time>
        <extensions>
          <ns3:TrackPointExtension>
            <ns3:atemp>27.0</ns3:atemp>
            <ns3:hr>150</ns3:hr>
          </ns3:TrackPointExtension>
        </extensions>
      </trkpt>
      <trkpt lat="43.05192844010889530181884765625" lon="13.83432774804532527923583984375">
        <ele>133.399993896484375</ele>
        <time>2020-05-09T11:40:56.000Z</time>
        <extensions>
          <ns3:TrackPointExtension>
            <ns3:atemp>27.0</ns3:atemp>
            <ns3:hr>149</ns3:hr>
          </ns3:TrackPointExtension>
        </extensions>
      </trkpt>
      <trkpt lat="43.05199516005814075469970703125" lon="13.83425407111644744873046875">
        <ele>133.600006103515625</ele>
        <time>2020-05-09T11:41:00.000Z</time>
        <extensions>
          <ns3:TrackPointExtension>
            <ns3:atemp>28.0</ns3:atemp>
            <ns3:hr>152</ns3:hr>
          </ns3:TrackPointExtension>
        </extensions>
      </trkpt>
      <trkpt lat="43.05205131880939006805419921875" lon="13.8341684080660343170166015625">
        <ele>134</ele>
        <time>2020-05-09T11:41:04.000Z</time>
        <extensions>
          <ns3:TrackPointExtension>
            <ns3:atemp>28.0</ns3:atemp>
            <ns3:hr>154</ns3:hr>
          </ns3:TrackPointExtension>
        </extensions>
      </trkpt>
      <trkpt lat="43.0521596968173980712890625" lon="13.83397185243666172027587890625">
        <ele>135</ele>
        <time>2020-05-09T11:41:12.000Z</time>
        <extensions>
          <ns3:TrackPointExtension>
            <ns3:atemp>28.0</ns3:atemp>
            <ns3:hr>154</ns3:hr>
          </ns3:TrackPointExtension>
        </extensions>
      </trkpt>
      <trkpt lat="43.0521910451352596282958984375" lon="13.833932541310787200927734375">
        <ele>135.1999969482421875</ele>
        <time>2020-05-09T11:41:14.000Z</time>
        <extensions>
          <ns3:TrackPointExtension>
            <ns3:atemp>28.0</ns3:atemp>
            <ns3:hr>157</ns3:hr>
          </ns3:TrackPointExtension>
        </extensions>
      </trkpt>
      <trkpt lat="43.0522584356367588043212890625" lon="13.83385048247873783111572265625">
        <ele>135.600006103515625</ele>
        <time>2020-05-09T11:41:18.000Z</time>
        <extensions>
          <ns3:TrackPointExtension>
            <ns3:atemp>28.0</ns3:atemp>
            <ns3:hr>157</ns3:hr>
          </ns3:TrackPointExtension>
        </extensions>
      </trkpt>
      <trkpt lat="43.0522892810404300689697265625" lon="13.83379952050745487213134765625">
        <ele>136.1999969482421875</ele>
        <time>2020-05-09T11:41:20.000Z</time>
        <extensions>
          <ns3:TrackPointExtension>
            <ns3:atemp>28.0</ns3:atemp>
            <ns3:hr>157</ns3:hr>
          </ns3:TrackPointExtension>
        </extensions>
      </trkpt>
      <trkpt lat="43.05240101180970668792724609375" lon="13.8336329720914363861083984375">
        <ele>137.1999969482421875</ele>
        <time>2020-05-09T11:41:27.000Z</time>
        <extensions>
          <ns3:TrackPointExtension>
            <ns3:atemp>28.0</ns3:atemp>
            <ns3:hr>157</ns3:hr>
          </ns3:TrackPointExtension>
        </extensions>
      </trkpt>
      <trkpt lat="43.05248348973691463470458984375" lon="13.83354068733751773834228515625">
        <ele>137</ele>
        <time>2020-05-09T11:41:31.000Z</time>
        <extensions>
          <ns3:TrackPointExtension>
            <ns3:atemp>28.0</ns3:atemp>
            <ns3:hr>154</ns3:hr>
          </ns3:TrackPointExtension>
        </extensions>
      </trkpt>
      <trkpt lat="43.0525333620607852935791015625" lon="13.83347245864570140838623046875">
        <ele>137.1999969482421875</ele>
        <time>2020-05-09T11:41:34.000Z</time>
        <extensions>
          <ns3:TrackPointExtension>
            <ns3:atemp>28.0</ns3:atemp>
            <ns3:hr>151</ns3:hr>
          </ns3:TrackPointExtension>
        </extensions>
      </trkpt>
      <trkpt lat="43.05259865708649158477783203125" lon="13.83332057856023311614990234375">
        <ele>138.399993896484375</ele>
        <time>2020-05-09T11:41:39.000Z</time>
        <extensions>
          <ns3:TrackPointExtension>
            <ns3:atemp>28.0</ns3:atemp>
            <ns3:hr>150</ns3:hr>
          </ns3:TrackPointExtension>
        </extensions>
      </trkpt>
      <trkpt lat="43.0526084639132022857666015625" lon="13.833254612982273101806640625">
        <ele>138.600006103515625</ele>
        <time>2020-05-09T11:41:41.000Z</time>
        <extensions>
          <ns3:TrackPointExtension>
            <ns3:atemp>28.0</ns3:atemp>
            <ns3:hr>149</ns3:hr>
          </ns3:TrackPointExtension>
        </extensions>
      </trkpt>
      <trkpt lat="43.052618689835071563720703125" lon="13.83318931795656681060791015625">
        <ele>138.600006103515625</ele>
        <time>2020-05-09T11:41:43.000Z</time>
        <extensions>
          <ns3:TrackPointExtension>
            <ns3:atemp>28.0</ns3:atemp>
            <ns3:hr>144</ns3:hr>
          </ns3:TrackPointExtension>
        </extensions>
      </trkpt>
      <trkpt lat="43.05263285525143146514892578125" lon="13.83311706595122814178466796875">
        <ele>138.8000030517578125</ele>
        <time>2020-05-09T11:41:46.000Z</time>
        <extensions>
          <ns3:TrackPointExtension>
            <ns3:atemp>28.0</ns3:atemp>
            <ns3:hr>141</ns3:hr>
          </ns3:TrackPointExtension>
        </extensions>
      </trkpt>
      <trkpt lat="43.0526612699031829833984375" lon="13.83307163603603839874267578125">
        <ele>139.1999969482421875</ele>
        <time>2020-05-09T11:41:48.000Z</time>
        <extensions>
          <ns3:TrackPointExtension>
            <ns3:atemp>28.0</ns3:atemp>
            <ns3:hr>138</ns3:hr>
          </ns3:TrackPointExtension>
        </extensions>
      </trkpt>
      <trkpt lat="43.052669651806354522705078125" lon="13.833045065402984619140625">
        <ele>139.600006103515625</ele>
        <time>2020-05-09T11:41:49.000Z</time>
        <extensions>
          <ns3:TrackPointExtension>
            <ns3:atemp>28.0</ns3:atemp>
            <ns3:hr>135</ns3:hr>
          </ns3:TrackPointExtension>
        </extensions>
      </trkpt>
      <trkpt lat="43.05268197320401668548583984375" lon="13.83290131576359272003173828125">
        <ele>140.8000030517578125</ele>
        <time>2020-05-09T11:41:53.000Z</time>
        <extensions>
          <ns3:TrackPointExtension>
            <ns3:atemp>28.0</ns3:atemp>
            <ns3:hr>133</ns3:hr>
          </ns3:TrackPointExtension>
        </extensions>
      </trkpt>
      <trkpt lat="43.05270024575293064117431640625" lon="13.8328004814684391021728515625">
        <ele>141.600006103515625</ele>
        <time>2020-05-09T11:41:56.000Z</time>
        <extensions>
          <ns3:TrackPointExtension>
            <ns3:atemp>28.0</ns3:atemp>
            <ns3:hr>132</ns3:hr>
          </ns3:TrackPointExtension>
        </extensions>
      </trkpt>
      <trkpt lat="43.0527063645422458648681640625" lon="13.8327662833034992218017578125">
        <ele>142</ele>
        <time>2020-05-09T11:41:57.000Z</time>
        <extensions>
          <ns3:TrackPointExtension>
            <ns3:atemp>28.0</ns3:atemp>
            <ns3:hr>131</ns3:hr>
          </ns3:TrackPointExtension>
        </extensions>
      </trkpt>
      <trkpt lat="43.05274265818297863006591796875" lon="13.8326663710176944732666015625">
        <ele>143.1999969482421875</ele>
        <time>2020-05-09T11:42:00.000Z</time>
        <extensions>
          <ns3:TrackPointExtension>
            <ns3:atemp>28.0</ns3:atemp>
            <ns3:hr>130</ns3:hr>
          </ns3:TrackPointExtension>
        </extensions>
      </trkpt>
      <trkpt lat="43.05275154300034046173095703125" lon="13.83262999355792999267578125">
        <ele>143.399993896484375</ele>
        <time>2020-05-09T11:42:01.000Z</time>
        <extensions>
          <ns3:TrackPointExtension>
            <ns3:atemp>28.0</ns3:atemp>
            <ns3:hr>130</ns3:hr>
          </ns3:TrackPointExtension>
        </extensions>
      </trkpt>
      <trkpt lat="43.0527992360293865203857421875" lon="13.8324823044240474700927734375">
        <ele>144.399993896484375</ele>
        <time>2020-05-09T11:42:06.000Z</time>
        <extensions>
          <ns3:TrackPointExtension>
            <ns3:atemp>28.0</ns3:atemp>
            <ns3:hr>130</ns3:hr>
          </ns3:TrackPointExtension>
        </extensions>
      </trkpt>
      <trkpt lat="43.0528257228434085845947265625" lon="13.83240141905844211578369140625">
        <ele>145.1999969482421875</ele>
        <time>2020-05-09T11:42:09.000Z</time>
        <extensions>
          <ns3:TrackPointExtension>
            <ns3:atemp>28.0</ns3:atemp>
            <ns3:hr>130</ns3:hr>
          </ns3:TrackPointExtension>
        </extensions>
      </trkpt>
      <trkpt lat="43.0528354458510875701904296875" lon="13.8323699869215488433837890625">
        <ele>145.600006103515625</ele>
        <time>2020-05-09T11:42:10.000Z</time>
        <extensions>
          <ns3:TrackPointExtension>
            <ns3:atemp>28.0</ns3:atemp>
            <ns3:hr>132</ns3:hr>
          </ns3:TrackPointExtension>
        </extensions>
      </trkpt>
      <trkpt lat="43.052900321781635284423828125" lon="13.83217670023441314697265625">
        <ele>146.600006103515625</ele>
        <time>2020-05-09T11:42:16.000Z</time>
        <extensions>
          <ns3:TrackPointExtension>
            <ns3:atemp>28.0</ns3:atemp>
            <ns3:hr>134</ns3:hr>
          </ns3:TrackPointExtension>
        </extensions>
      </trkpt>
      <trkpt lat="43.0529611743986606597900390625" lon="13.8320035301148891448974609375">
        <ele>147.600006103515625</ele>
        <time>2020-05-09T11:42:21.000Z</time>
        <extensions>
          <ns3:TrackPointExtension>
            <ns3:atemp>28.0</ns3:atemp>
            <ns3:hr>136</ns3:hr>
          </ns3:TrackPointExtension>
        </extensions>
      </trkpt>
      <trkpt lat="43.05298439227044582366943359375" lon="13.83188006468117237091064453125">
        <ele>148</ele>
        <time>2020-05-09T11:42:24.000Z</time>
        <extensions>
          <ns3:TrackPointExtension>
            <ns3:atemp>28.0</ns3:atemp>
            <ns3:hr>138</ns3:hr>
          </ns3:TrackPointExtension>
        </extensions>
      </trkpt>
      <trkpt lat="43.053034432232379913330078125" lon="13.8316568545997142791748046875">
        <ele>148.8000030517578125</ele>
        <time>2020-05-09T11:42:30.000Z</time>
        <extensions>
          <ns3:TrackPointExtension>
            <ns3:atemp>28.0</ns3:atemp>
            <ns3:hr>139</ns3:hr>
          </ns3:TrackPointExtension>
        </extensions>
      </trkpt>
      <trkpt lat="43.0530426464974880218505859375" lon="13.83161989040672779083251953125">
        <ele>148.8000030517578125</ele>
        <time>2020-05-09T11:42:31.000Z</time>
        <extensions>
          <ns3:TrackPointExtension>
            <ns3:atemp>28.0</ns3:atemp>
            <ns3:hr>134</ns3:hr>
          </ns3:TrackPointExtension>
        </extensions>
      </trkpt>
      <trkpt lat="43.05305211804807186126708984375" lon="13.83158502168953418731689453125">
        <ele>149</ele>
        <time>2020-05-09T11:42:32.000Z</time>
        <extensions>
          <ns3:TrackPointExtension>
            <ns3:atemp>28.0</ns3:atemp>
            <ns3:hr>129</ns3:hr>
          </ns3:TrackPointExtension>
        </extensions>
      </trkpt>
      <trkpt lat="43.0530600808560848236083984375" lon="13.8315497338771820068359375">
        <ele>149.1999969482421875</ele>
        <time>2020-05-09T11:42:33.000Z</time>
        <extensions>
          <ns3:TrackPointExtension>
            <ns3:atemp>28.0</ns3:atemp>
            <ns3:hr>123</ns3:hr>
          </ns3:TrackPointExtension>
        </extensions>
      </trkpt>
      <trkpt lat="43.05307340808212757110595703125" lon="13.83147471584379673004150390625">
        <ele>149.1999969482421875</ele>
        <time>2020-05-09T11:42:35.000Z</time>
        <extensions>
          <ns3:TrackPointExtension>
            <ns3:atemp>28.0</ns3:atemp>
            <ns3:hr>115</ns3:hr>
          </ns3:TrackPointExtension>
        </extensions>
      </trkpt>
      <trkpt lat="43.0530832149088382720947265625" lon="13.8314473070204257965087890625">
        <ele>149.1999969482421875</ele>
        <time>2020-05-09T11:42:36.000Z</time>
        <extensions>
          <ns3:TrackPointExtension>
            <ns3:atemp>28.0</ns3:atemp>
            <ns3:hr>111</ns3:hr>
          </ns3:TrackPointExtension>
        </extensions>
      </trkpt>
      <trkpt lat="43.053092770278453826904296875" lon="13.8314107619225978851318359375">
        <ele>149.1999969482421875</ele>
        <time>2020-05-09T11:42:37.000Z</time>
        <extensions>
          <ns3:TrackPointExtension>
            <ns3:atemp>28.0</ns3:atemp>
            <ns3:hr>106</ns3:hr>
          </ns3:TrackPointExtension>
        </extensions>
      </trkpt>
      <trkpt lat="43.05310123600065708160400390625" lon="13.831373713910579681396484375">
        <ele>149.1999969482421875</ele>
        <time>2020-05-09T11:42:38.000Z</time>
        <extensions>
          <ns3:TrackPointExtension>
            <ns3:atemp>28.0</ns3:atemp>
            <ns3:hr>100</ns3:hr>
          </ns3:TrackPointExtension>
        </extensions>
      </trkpt>
      <trkpt lat="43.05310911498963832855224609375" lon="13.8313378393650054931640625">
        <ele>149.1999969482421875</ele>
        <time>2020-05-09T11:42:39.000Z</time>
        <extensions>
          <ns3:TrackPointExtension>
            <ns3:atemp>28.0</ns3:atemp>
            <ns3:hr>95</ns3:hr>
          </ns3:TrackPointExtension>
        </extensions>
      </trkpt>
      <trkpt lat="43.0531164072453975677490234375" lon="13.8313024677336215972900390625">
        <ele>149.1999969482421875</ele>
        <time>2020-05-09T11:42:40.000Z</time>
        <extensions>
          <ns3:TrackPointExtension>
            <ns3:atemp>28.0</ns3:atemp>
            <ns3:hr>91</ns3:hr>
          </ns3:TrackPointExtension>
        </extensions>
      </trkpt>
      <trkpt lat="43.0531227774918079376220703125" lon="13.8312672637403011322021484375">
        <ele>149.399993896484375</ele>
        <time>2020-05-09T11:42:41.000Z</time>
        <extensions>
          <ns3:TrackPointExtension>
            <ns3:atemp>28.0</ns3:atemp>
            <ns3:hr>87</ns3:hr>
          </ns3:TrackPointExtension>
        </extensions>
      </trkpt>
      <trkpt lat="43.05313023738563060760498046875" lon="13.83123298175632953643798828125">
        <ele>149.8000030517578125</ele>
        <time>2020-05-09T11:42:42.000Z</time>
        <extensions>
          <ns3:TrackPointExtension>
            <ns3:atemp>28.0</ns3:atemp>
            <ns3:hr>87</ns3:hr>
          </ns3:TrackPointExtension>
        </extensions>
      </trkpt>
      <trkpt lat="43.0531385354697704315185546875" lon="13.83120037615299224853515625">
        <ele>149.8000030517578125</ele>
        <time>2020-05-09T11:42:43.000Z</time>
        <extensions>
          <ns3:TrackPointExtension>
            <ns3:atemp>28.0</ns3:atemp>
            <ns3:hr>86</ns3:hr>
          </ns3:TrackPointExtension>
        </extensions>
      </trkpt>
      <trkpt lat="43.05316510610282421112060546875" lon="13.83110255934298038482666015625">
        <ele>150.399993896484375</ele>
        <time>2020-05-09T11:42:46.000Z</time>
        <extensions>
          <ns3:TrackPointExtension>
            <ns3:atemp>28.0</ns3:atemp>
            <ns3:hr>83</ns3:hr>
          </ns3:TrackPointExtension>
        </extensions>
      </trkpt>
      <trkpt lat="43.0531854741275310516357421875" lon="13.83096425794064998626708984375">
        <ele>151</ele>
        <time>2020-05-09T11:42:50.000Z</time>
        <extensions>
          <ns3:TrackPointExtension>
            <ns3:atemp>28.0</ns3:atemp>
            <ns3:hr>83</ns3:hr>
          </ns3:TrackPointExtension>
        </extensions>
      </trkpt>
      <trkpt lat="43.053191006183624267578125" lon="13.83089284412562847137451171875">
        <ele>151.399993896484375</ele>
        <time>2020-05-09T11:42:52.000Z</time>
        <extensions>
          <ns3:TrackPointExtension>
            <ns3:atemp>28.0</ns3:atemp>
            <ns3:hr>83</ns3:hr>
          </ns3:TrackPointExtension>
        </extensions>
      </trkpt>
      <trkpt lat="43.05321187712252140045166015625" lon="13.83065295405685901641845703125">
        <ele>151.8000030517578125</ele>
        <time>2020-05-09T11:42:59.000Z</time>
        <extensions>
          <ns3:TrackPointExtension>
            <ns3:atemp>28.0</ns3:atemp>
            <ns3:hr>86</ns3:hr>
          </ns3:TrackPointExtension>
        </extensions>
      </trkpt>
      <trkpt lat="43.0532230250537395477294921875" lon="13.830546252429485321044921875">
        <ele>152</ele>
        <time>2020-05-09T11:43:02.000Z</time>
        <extensions>
          <ns3:TrackPointExtension>
            <ns3:atemp>28.0</ns3:atemp>
            <ns3:hr>89</ns3:hr>
          </ns3:TrackPointExtension>
        </extensions>
      </trkpt>
      <trkpt lat="43.0532354302704334259033203125" lon="13.8304366171360015869140625">
        <ele>152.1999969482421875</ele>
        <time>2020-05-09T11:43:05.000Z</time>
        <extensions>
          <ns3:TrackPointExtension>
            <ns3:atemp>29.0</ns3:atemp>
            <ns3:hr>92</ns3:hr>
          </ns3:TrackPointExtension>
        </extensions>
      </trkpt>
      <trkpt lat="43.05323995649814605712890625" lon="13.8303653709590435028076171875">
        <ele>152.399993896484375</ele>
        <time>2020-05-09T11:43:07.000Z</time>
        <extensions>
          <ns3:TrackPointExtension>
            <ns3:atemp>29.0</ns3:atemp>
            <ns3:hr>89</ns3:hr>
          </ns3:TrackPointExtension>
        </extensions>
      </trkpt>
      <trkpt lat="43.0532431416213512420654296875" lon="13.8302912749350070953369140625">
        <ele>152.1999969482421875</ele>
        <time>2020-05-09T11:43:09.000Z</time>
        <extensions>
          <ns3:TrackPointExtension>
            <ns3:atemp>29.0</ns3:atemp>
            <ns3:hr>92</ns3:hr>
          </ns3:TrackPointExtension>
        </extensions>
      </trkpt>
      <trkpt lat="43.05324305780231952667236328125" lon="13.83025355637073516845703125">
        <ele>152.1999969482421875</ele>
        <time>2020-05-09T11:43:10.000Z</time>
        <extensions>
          <ns3:TrackPointExtension>
            <ns3:atemp>29.0</ns3:atemp>
            <ns3:hr>97</ns3:hr>
          </ns3:TrackPointExtension>
        </extensions>
      </trkpt>
      <trkpt lat="43.0532471649348735809326171875" lon="13.830216340720653533935546875">
        <ele>152.1999969482421875</ele>
        <time>2020-05-09T11:43:11.000Z</time>
        <extensions>
          <ns3:TrackPointExtension>
            <ns3:atemp>29.0</ns3:atemp>
            <ns3:hr>100</ns3:hr>
          </ns3:TrackPointExtension>
        </extensions>
      </trkpt>
      <trkpt lat="43.0532486736774444580078125" lon="13.83017241954803466796875">
        <ele>152.1999969482421875</ele>
        <time>2020-05-09T11:43:12.000Z</time>
        <extensions>
          <ns3:TrackPointExtension>
            <ns3:atemp>29.0</ns3:atemp>
            <ns3:hr>107</ns3:hr>
          </ns3:TrackPointExtension>
        </extensions>
      </trkpt>
      <trkpt lat="43.05325110442936420440673828125" lon="13.830131851136684417724609375">
        <ele>152.1999969482421875</ele>
        <time>2020-05-09T11:43:13.000Z</time>
        <extensions>
          <ns3:TrackPointExtension>
            <ns3:atemp>29.0</ns3:atemp>
            <ns3:hr>112</ns3:hr>
          </ns3:TrackPointExtension>
        </extensions>
      </trkpt>
      <trkpt lat="43.05325395427644252777099609375" lon="13.8300907798111438751220703125">
        <ele>152.1999969482421875</ele>
        <time>2020-05-09T11:43:14.000Z</time>
        <extensions>
          <ns3:TrackPointExtension>
            <ns3:atemp>29.0</ns3:atemp>
            <ns3:hr>117</ns3:hr>
          </ns3:TrackPointExtension>
        </extensions>
      </trkpt>
      <trkpt lat="43.0532575584948062896728515625" lon="13.8300481997430324554443359375">
        <ele>152.399993896484375</ele>
        <time>2020-05-09T11:43:15.000Z</time>
        <extensions>
          <ns3:TrackPointExtension>
            <ns3:atemp>29.0</ns3:atemp>
            <ns3:hr>122</ns3:hr>
          </ns3:TrackPointExtension>
        </extensions>
      </trkpt>
      <trkpt lat="43.0532585643231868743896484375" lon="13.83000411093235015869140625">
        <ele>152.399993896484375</ele>
        <time>2020-05-09T11:43:16.000Z</time>
        <extensions>
          <ns3:TrackPointExtension>
            <ns3:atemp>29.0</ns3:atemp>
            <ns3:hr>126</ns3:hr>
          </ns3:TrackPointExtension>
        </extensions>
      </trkpt>
      <trkpt lat="43.05325873196125030517578125" lon="13.82996748201549053192138671875">
        <ele>152.8000030517578125</ele>
        <time>2020-05-09T11:43:17.000Z</time>
        <extensions>
          <ns3:TrackPointExtension>
            <ns3:atemp>29.0</ns3:atemp>
            <ns3:hr>129</ns3:hr>
          </ns3:TrackPointExtension>
        </extensions>
      </trkpt>
      <trkpt lat="43.05325604975223541259765625" lon="13.829843513667583465576171875">
        <ele>153</ele>
        <time>2020-05-09T11:43:20.000Z</time>
        <extensions>
          <ns3:TrackPointExtension>
            <ns3:atemp>29.0</ns3:atemp>
            <ns3:hr>128</ns3:hr>
          </ns3:TrackPointExtension>
        </extensions>
      </trkpt>
      <trkpt lat="43.053259067237377166748046875" lon="13.8297605328261852264404296875">
        <ele>153</ele>
        <time>2020-05-09T11:43:22.000Z</time>
        <extensions>
          <ns3:TrackPointExtension>
            <ns3:atemp>29.0</ns3:atemp>
            <ns3:hr>128</ns3:hr>
          </ns3:TrackPointExtension>
        </extensions>
      </trkpt>
      <trkpt lat="43.05328446440398693084716796875" lon="13.829529695212841033935546875">
        <ele>153</ele>
        <time>2020-05-09T11:43:28.000Z</time>
        <extensions>
          <ns3:TrackPointExtension>
            <ns3:atemp>29.0</ns3:atemp>
            <ns3:hr>127</ns3:hr>
          </ns3:TrackPointExtension>
        </extensions>
      </trkpt>
      <trkpt lat="43.05328865535557270050048828125" lon="13.8293154537677764892578125">
        <ele>152.8000030517578125</ele>
        <time>2020-05-09T11:43:33.000Z</time>
        <extensions>
          <ns3:TrackPointExtension>
            <ns3:atemp>29.0</ns3:atemp>
            <ns3:hr>127</ns3:hr>
          </ns3:TrackPointExtension>
        </extensions>
      </trkpt>
      <trkpt lat="43.0532914213836193084716796875" lon="13.8292658329010009765625">
        <ele>152.8000030517578125</ele>
        <time>2020-05-09T11:43:34.000Z</time>
        <extensions>
          <ns3:TrackPointExtension>
            <ns3:atemp>29.0</ns3:atemp>
            <ns3:hr>127</ns3:hr>
          </ns3:TrackPointExtension>
        </extensions>
      </trkpt>
      <trkpt lat="43.05335336364805698394775390625" lon="13.82874573580920696258544921875">
        <ele>152.399993896484375</ele>
        <time>2020-05-09T11:43:44.000Z</time>
        <extensions>
          <ns3:TrackPointExtension>
            <ns3:atemp>29.0</ns3:atemp>
            <ns3:hr>128</ns3:hr>
          </ns3:TrackPointExtension>
        </extensions>
      </trkpt>
      <trkpt lat="43.05337582714855670928955078125" lon="13.82865361869335174560546875">
        <ele>152.399993896484375</ele>
        <time>2020-05-09T11:43:46.000Z</time>
        <extensions>
          <ns3:TrackPointExtension>
            <ns3:atemp>29.0</ns3:atemp>
            <ns3:hr>125</ns3:hr>
          </ns3:TrackPointExtension>
        </extensions>
      </trkpt>
      <trkpt lat="43.05339929647743701934814453125" lon="13.8285045884549617767333984375">
        <ele>152.399993896484375</ele>
        <time>2020-05-09T11:43:49.000Z</time>
        <extensions>
          <ns3:TrackPointExtension>
            <ns3:atemp>29.0</ns3:atemp>
            <ns3:hr>122</ns3:hr>
          </ns3:TrackPointExtension>
        </extensions>
      </trkpt>
      <trkpt lat="43.05340097285807132720947265625" lon="13.82835145108401775360107421875">
        <ele>152.399993896484375</ele>
        <time>2020-05-09T11:43:52.000Z</time>
        <extensions>
          <ns3:TrackPointExtension>
            <ns3:atemp>29.0</ns3:atemp>
            <ns3:hr>122</ns3:hr>
          </ns3:TrackPointExtension>
        </extensions>
      </trkpt>
      <trkpt lat="43.053375743329524993896484375" lon="13.82804685272276401519775390625">
        <ele>152.399993896484375</ele>
        <time>2020-05-09T11:43:58.000Z</time>
        <extensions>
          <ns3:TrackPointExtension>
            <ns3:atemp>29.0</ns3:atemp>
            <ns3:hr>120</ns3:hr>
          </ns3:TrackPointExtension>
        </extensions>
      </trkpt>
      <trkpt lat="43.0533470772206783294677734375" lon="13.827854655683040618896484375">
        <ele>152.600006103515625</ele>
        <time>2020-05-09T11:44:02.000Z</time>
        <extensions>
          <ns3:TrackPointExtension>
            <ns3:atemp>29.0</ns3:atemp>
            <ns3:hr>117</ns3:hr>
          </ns3:TrackPointExtension>
        </extensions>
      </trkpt>
      <trkpt lat="43.05332100950181484222412109375" lon="13.827619291841983795166015625">
        <ele>153.1999969482421875</ele>
        <time>2020-05-09T11:44:07.000Z</time>
        <extensions>
          <ns3:TrackPointExtension>
            <ns3:atemp>29.0</ns3:atemp>
            <ns3:hr>116</ns3:hr>
          </ns3:TrackPointExtension>
        </extensions>
      </trkpt>
      <trkpt lat="43.0533061735332012176513671875" lon="13.82737898267805576324462890625">
        <ele>154</ele>
        <time>2020-05-09T11:44:12.000Z</time>
        <extensions>
          <ns3:TrackPointExtension>
            <ns3:atemp>29.0</ns3:atemp>
            <ns3:hr>115</ns3:hr>
          </ns3:TrackPointExtension>
        </extensions>
      </trkpt>
      <trkpt lat="43.05329234339296817779541015625" lon="13.82709651254117488861083984375">
        <ele>154.8000030517578125</ele>
        <time>2020-05-09T11:44:18.000Z</time>
        <extensions>
          <ns3:TrackPointExtension>
            <ns3:atemp>29.0</ns3:atemp>
            <ns3:hr>115</ns3:hr>
          </ns3:TrackPointExtension>
        </extensions>
      </trkpt>
      <trkpt lat="43.05328379385173320770263671875" lon="13.8269985280930995941162109375">
        <ele>155.1999969482421875</ele>
        <time>2020-05-09T11:44:20.000Z</time>
        <extensions>
          <ns3:TrackPointExtension>
            <ns3:atemp>29.0</ns3:atemp>
            <ns3:hr>116</ns3:hr>
          </ns3:TrackPointExtension>
        </extensions>
      </trkpt>
      <trkpt lat="43.053266443312168121337890625" lon="13.826775066554546356201171875">
        <ele>155.399993896484375</ele>
        <time>2020-05-09T11:44:25.000Z</time>
        <extensions>
          <ns3:TrackPointExtension>
            <ns3:atemp>29.0</ns3:atemp>
            <ns3:hr>117</ns3:hr>
          </ns3:TrackPointExtension>
        </extensions>
      </trkpt>
      <trkpt lat="43.05324272252619266510009765625" lon="13.82647097110748291015625">
        <ele>155.399993896484375</ele>
        <time>2020-05-09T11:44:32.000Z</time>
        <extensions>
          <ns3:TrackPointExtension>
            <ns3:atemp>29.0</ns3:atemp>
            <ns3:hr>120</ns3:hr>
          </ns3:TrackPointExtension>
        </extensions>
      </trkpt>
      <trkpt lat="43.053206093609333038330078125" lon="13.82612337358295917510986328125">
        <ele>155.8000030517578125</ele>
        <time>2020-05-09T11:44:40.000Z</time>
        <extensions>
          <ns3:TrackPointExtension>
            <ns3:atemp>29.0</ns3:atemp>
            <ns3:hr>117</ns3:hr>
          </ns3:TrackPointExtension>
        </extensions>
      </trkpt>
      <trkpt lat="43.0532008968293666839599609375" lon="13.82603636942803859710693359375">
        <ele>156.1999969482421875</ele>
        <time>2020-05-09T11:44:42.000Z</time>
        <extensions>
          <ns3:TrackPointExtension>
            <ns3:atemp>30.0</ns3:atemp>
            <ns3:hr>119</ns3:hr>
          </ns3:TrackPointExtension>
        </extensions>
      </trkpt>
      <trkpt lat="43.0531977117061614990234375" lon="13.82599228061735630035400390625">
        <ele>156.1999969482421875</ele>
        <time>2020-05-09T11:44:43.000Z</time>
        <extensions>
          <ns3:TrackPointExtension>
            <ns3:atemp>30.0</ns3:atemp>
            <ns3:hr>119</ns3:hr>
          </ns3:TrackPointExtension>
        </extensions>
      </trkpt>
      <trkpt lat="43.05319444276392459869384765625" lon="13.82595003582537174224853515625">
        <ele>156.399993896484375</ele>
        <time>2020-05-09T11:44:44.000Z</time>
        <extensions>
          <ns3:TrackPointExtension>
            <ns3:atemp>30.0</ns3:atemp>
            <ns3:hr>124</ns3:hr>
          </ns3:TrackPointExtension>
        </extensions>
      </trkpt>
      <trkpt lat="43.053191006183624267578125" lon="13.8259055279195308685302734375">
        <ele>156.399993896484375</ele>
        <time>2020-05-09T11:44:45.000Z</time>
        <extensions>
          <ns3:TrackPointExtension>
            <ns3:atemp>30.0</ns3:atemp>
            <ns3:hr>127</ns3:hr>
          </ns3:TrackPointExtension>
        </extensions>
      </trkpt>
      <trkpt lat="43.0531898327171802520751953125" lon="13.82586454041302204132080078125">
        <ele>156.600006103515625</ele>
        <time>2020-05-09T11:44:46.000Z</time>
        <extensions>
          <ns3:TrackPointExtension>
            <ns3:atemp>30.0</ns3:atemp>
            <ns3:hr>132</ns3:hr>
          </ns3:TrackPointExtension>
        </extensions>
      </trkpt>
      <trkpt lat="43.05318094789981842041015625" lon="13.8257851637899875640869140625">
        <ele>156.8000030517578125</ele>
        <time>2020-05-09T11:44:48.000Z</time>
        <extensions>
          <ns3:TrackPointExtension>
            <ns3:atemp>30.0</ns3:atemp>
            <ns3:hr>136</ns3:hr>
          </ns3:TrackPointExtension>
        </extensions>
      </trkpt>
      <trkpt lat="43.0531737394630908966064453125" lon="13.82574903778731822967529296875">
        <ele>156.8000030517578125</ele>
        <time>2020-05-09T11:44:49.000Z</time>
        <extensions>
          <ns3:TrackPointExtension>
            <ns3:atemp>30.0</ns3:atemp>
            <ns3:hr>140</ns3:hr>
          </ns3:TrackPointExtension>
        </extensions>
      </trkpt>
      <trkpt lat="43.05316753685474395751953125" lon="13.82570846937596797943115234375">
        <ele>157</ele>
        <time>2020-05-09T11:44:50.000Z</time>
        <extensions>
          <ns3:TrackPointExtension>
            <ns3:atemp>30.0</ns3:atemp>
            <ns3:hr>139</ns3:hr>
          </ns3:TrackPointExtension>
        </extensions>
      </trkpt>
      <trkpt lat="43.05315420962870121002197265625" lon="13.82562674582004547119140625">
        <ele>157.1999969482421875</ele>
        <time>2020-05-09T11:44:52.000Z</time>
        <extensions>
          <ns3:TrackPointExtension>
            <ns3:atemp>30.0</ns3:atemp>
            <ns3:hr>137</ns3:hr>
          </ns3:TrackPointExtension>
        </extensions>
      </trkpt>
      <trkpt lat="43.05311925709247589111328125" lon="13.8254745304584503173828125">
        <ele>157.8000030517578125</ele>
        <time>2020-05-09T11:44:56.000Z</time>
        <extensions>
          <ns3:TrackPointExtension>
            <ns3:atemp>30.0</ns3:atemp>
            <ns3:hr>136</ns3:hr>
          </ns3:TrackPointExtension>
        </extensions>
      </trkpt>
      <trkpt lat="43.05309955962002277374267578125" lon="13.8253573514521121978759765625">
        <ele>158.399993896484375</ele>
        <time>2020-05-09T11:44:59.000Z</time>
        <extensions>
          <ns3:TrackPointExtension>
            <ns3:atemp>30.0</ns3:atemp>
            <ns3:hr>137</ns3:hr>
          </ns3:TrackPointExtension>
        </extensions>
      </trkpt>
      <trkpt lat="43.05307810194790363311767578125" lon="13.82523623295128345489501953125">
        <ele>159</ele>
        <time>2020-05-09T11:45:02.000Z</time>
        <extensions>
          <ns3:TrackPointExtension>
            <ns3:atemp>30.0</ns3:atemp>
            <ns3:hr>133</ns3:hr>
          </ns3:TrackPointExtension>
        </extensions>
      </trkpt>
      <trkpt lat="43.05306904949247837066650390625" lon="13.8251491449773311614990234375">
        <ele>159.1999969482421875</ele>
        <time>2020-05-09T11:45:04.000Z</time>
        <extensions>
          <ns3:TrackPointExtension>
            <ns3:atemp>30.0</ns3:atemp>
            <ns3:hr>133</ns3:hr>
          </ns3:TrackPointExtension>
        </extensions>
      </trkpt>
      <trkpt lat="43.05306427180767059326171875" lon="13.8251038827002048492431640625">
        <ele>159.399993896484375</ele>
        <time>2020-05-09T11:45:05.000Z</time>
        <extensions>
          <ns3:TrackPointExtension>
            <ns3:atemp>30.0</ns3:atemp>
            <ns3:hr>133</ns3:hr>
          </ns3:TrackPointExtension>
        </extensions>
      </trkpt>
      <trkpt lat="43.053030408918857574462890625" lon="13.82473968900740146636962890625">
        <ele>159.8000030517578125</ele>
        <time>2020-05-09T11:45:13.000Z</time>
        <extensions>
          <ns3:TrackPointExtension>
            <ns3:atemp>30.0</ns3:atemp>
            <ns3:hr>134</ns3:hr>
          </ns3:TrackPointExtension>
        </extensions>
      </trkpt>
      <trkpt lat="43.052995540201663970947265625" lon="13.82439837791025638580322265625">
        <ele>160.399993896484375</ele>
        <time>2020-05-09T11:45:20.000Z</time>
        <extensions>
          <ns3:TrackPointExtension>
            <ns3:atemp>30.0</ns3:atemp>
            <ns3:hr>133</ns3:hr>
          </ns3:TrackPointExtension>
        </extensions>
      </trkpt>
      <trkpt lat="43.05290878750383853912353515625" lon="13.82403812371194362640380859375">
        <ele>160.1999969482421875</ele>
        <time>2020-05-09T11:45:28.000Z</time>
        <extensions>
          <ns3:TrackPointExtension>
            <ns3:atemp>30.0</ns3:atemp>
            <ns3:hr>132</ns3:hr>
          </ns3:TrackPointExtension>
        </extensions>
      </trkpt>
      <trkpt lat="43.052899651229381561279296875" lon="13.8239957951009273529052734375">
        <ele>160.399993896484375</ele>
        <time>2020-05-09T11:45:29.000Z</time>
        <extensions>
          <ns3:TrackPointExtension>
            <ns3:atemp>30.0</ns3:atemp>
            <ns3:hr>131</ns3:hr>
          </ns3:TrackPointExtension>
        </extensions>
      </trkpt>
      <trkpt lat="43.05286821909248828887939453125" lon="13.82373469881713390350341796875">
        <ele>161.1999969482421875</ele>
        <time>2020-05-09T11:45:35.000Z</time>
        <extensions>
          <ns3:TrackPointExtension>
            <ns3:atemp>30.0</ns3:atemp>
            <ns3:hr>130</ns3:hr>
          </ns3:TrackPointExtension>
        </extensions>
      </trkpt>
      <trkpt lat="43.05286218412220478057861328125" lon="13.8236112333834171295166015625">
        <ele>161.600006103515625</ele>
        <time>2020-05-09T11:45:38.000Z</time>
        <extensions>
          <ns3:TrackPointExtension>
            <ns3:atemp>30.0</ns3:atemp>
            <ns3:hr>131</ns3:hr>
          </ns3:TrackPointExtension>
        </extensions>
      </trkpt>
      <trkpt lat="43.05282496847212314605712890625" lon="13.8234191201627254486083984375">
        <ele>161.399993896484375</ele>
        <time>2020-05-09T11:45:42.000Z</time>
        <extensions>
          <ns3:TrackPointExtension>
            <ns3:atemp>30.0</ns3:atemp>
            <ns3:hr>131</ns3:hr>
          </ns3:TrackPointExtension>
        </extensions>
      </trkpt>
      <trkpt lat="43.05277191102504730224609375" lon="13.8230506516993045806884765625">
        <ele>161.8000030517578125</ele>
        <time>2020-05-09T11:45:49.000Z</time>
        <extensions>
          <ns3:TrackPointExtension>
            <ns3:atemp>30.0</ns3:atemp>
            <ns3:hr>128</ns3:hr>
          </ns3:TrackPointExtension>
        </extensions>
      </trkpt>
      <trkpt lat="43.05276461876928806304931640625" lon="13.82299675606191158294677734375">
        <ele>162</ele>
        <time>2020-05-09T11:45:50.000Z</time>
        <extensions>
          <ns3:TrackPointExtension>
            <ns3:atemp>30.0</ns3:atemp>
            <ns3:hr>125</ns3:hr>
          </ns3:TrackPointExtension>
        </extensions>
      </trkpt>
      <trkpt lat="43.05275690741837024688720703125" lon="13.82294612936675548553466796875">
        <ele>162</ele>
        <time>2020-05-09T11:45:51.000Z</time>
        <extensions>
          <ns3:TrackPointExtension>
            <ns3:atemp>30.0</ns3:atemp>
            <ns3:hr>125</ns3:hr>
          </ns3:TrackPointExtension>
        </extensions>
      </trkpt>
      <trkpt lat="43.05274768732488155364990234375" lon="13.82289667613804340362548828125">
        <ele>162.1999969482421875</ele>
        <time>2020-05-09T11:45:52.000Z</time>
        <extensions>
          <ns3:TrackPointExtension>
            <ns3:atemp>30.0</ns3:atemp>
            <ns3:hr>122</ns3:hr>
          </ns3:TrackPointExtension>
        </extensions>
      </trkpt>
      <trkpt lat="43.052715919911861419677734375" lon="13.82260859012603759765625">
        <ele>162.8000030517578125</ele>
        <time>2020-05-09T11:45:58.000Z</time>
        <extensions>
          <ns3:TrackPointExtension>
            <ns3:atemp>30.0</ns3:atemp>
            <ns3:hr>121</ns3:hr>
          </ns3:TrackPointExtension>
        </extensions>
      </trkpt>
      <trkpt lat="43.052711226046085357666015625" lon="13.82256031036376953125">
        <ele>163</ele>
        <time>2020-05-09T11:45:59.000Z</time>
        <extensions>
          <ns3:TrackPointExtension>
            <ns3:atemp>30.0</ns3:atemp>
            <ns3:hr>121</ns3:hr>
          </ns3:TrackPointExtension>
        </extensions>
      </trkpt>
      <trkpt lat="43.05270619690418243408203125" lon="13.82241874001920223236083984375">
        <ele>164</ele>
        <time>2020-05-09T11:46:02.000Z</time>
        <extensions>
          <ns3:TrackPointExtension>
            <ns3:atemp>30.0</ns3:atemp>
            <ns3:hr>119</ns3:hr>
          </ns3:TrackPointExtension>
        </extensions>
      </trkpt>
      <trkpt lat="43.05271080695092678070068359375" lon="13.8222902454435825347900390625">
        <ele>164.600006103515625</ele>
        <time>2020-05-09T11:46:05.000Z</time>
        <extensions>
          <ns3:TrackPointExtension>
            <ns3:atemp>30.0</ns3:atemp>
            <ns3:hr>119</ns3:hr>
          </ns3:TrackPointExtension>
        </extensions>
      </trkpt>
      <trkpt lat="43.05271332152187824249267578125" lon="13.82220114581286907196044921875">
        <ele>165</ele>
        <time>2020-05-09T11:46:07.000Z</time>
        <extensions>
          <ns3:TrackPointExtension>
            <ns3:atemp>30.0</ns3:atemp>
            <ns3:hr>120</ns3:hr>
          </ns3:TrackPointExtension>
        </extensions>
      </trkpt>
      <trkpt lat="43.052718937397003173828125" lon="13.82195614278316497802734375">
        <ele>165.8000030517578125</ele>
        <time>2020-05-09T11:46:12.000Z</time>
        <extensions>
          <ns3:TrackPointExtension>
            <ns3:atemp>30.0</ns3:atemp>
            <ns3:hr>123</ns3:hr>
          </ns3:TrackPointExtension>
        </extensions>
      </trkpt>
      <trkpt lat="43.052722625434398651123046875" lon="13.821861259639263153076171875">
        <ele>166.1999969482421875</ele>
        <time>2020-05-09T11:46:14.000Z</time>
        <extensions>
          <ns3:TrackPointExtension>
            <ns3:atemp>30.0</ns3:atemp>
            <ns3:hr>123</ns3:hr>
          </ns3:TrackPointExtension>
        </extensions>
      </trkpt>
      <trkpt lat="43.05272723548114299774169921875" lon="13.82157619111239910125732421875">
        <ele>167.1999969482421875</ele>
        <time>2020-05-09T11:46:20.000Z</time>
        <extensions>
          <ns3:TrackPointExtension>
            <ns3:atemp>30.0</ns3:atemp>
            <ns3:hr>125</ns3:hr>
          </ns3:TrackPointExtension>
        </extensions>
      </trkpt>
      <trkpt lat="43.0527180992066860198974609375" lon="13.8214761950075626373291015625">
        <ele>167.8000030517578125</ele>
        <time>2020-05-09T11:46:22.000Z</time>
        <extensions>
          <ns3:TrackPointExtension>
            <ns3:atemp>30.0</ns3:atemp>
            <ns3:hr>129</ns3:hr>
          </ns3:TrackPointExtension>
        </extensions>
      </trkpt>
      <trkpt lat="43.05272136814892292022705078125" lon="13.82137921638786792755126953125">
        <ele>168.1999969482421875</ele>
        <time>2020-05-09T11:46:24.000Z</time>
        <extensions>
          <ns3:TrackPointExtension>
            <ns3:atemp>30.0</ns3:atemp>
            <ns3:hr>130</ns3:hr>
          </ns3:TrackPointExtension>
        </extensions>
      </trkpt>
      <trkpt lat="43.05272656492888927459716796875" lon="13.82128181867301464080810546875">
        <ele>168.1999969482421875</ele>
        <time>2020-05-09T11:46:26.000Z</time>
        <extensions>
          <ns3:TrackPointExtension>
            <ns3:atemp>30.0</ns3:atemp>
            <ns3:hr>131</ns3:hr>
          </ns3:TrackPointExtension>
        </extensions>
      </trkpt>
      <trkpt lat="43.0527730844914913177490234375" lon="13.8210138492286205291748046875">
        <ele>168.399993896484375</ele>
        <time>2020-05-09T11:46:32.000Z</time>
        <extensions>
          <ns3:TrackPointExtension>
            <ns3:atemp>30.0</ns3:atemp>
            <ns3:hr>131</ns3:hr>
          </ns3:TrackPointExtension>
        </extensions>
      </trkpt>
      <trkpt lat="43.0528116412460803985595703125" lon="13.82070044986903667449951171875">
        <ele>168.399993896484375</ele>
        <time>2020-05-09T11:46:38.000Z</time>
        <extensions>
          <ns3:TrackPointExtension>
            <ns3:atemp>30.0</ns3:atemp>
            <ns3:hr>131</ns3:hr>
          </ns3:TrackPointExtension>
        </extensions>
      </trkpt>
      <trkpt lat="43.05278557352721691131591796875" lon="13.8202522695064544677734375">
        <ele>168.600006103515625</ele>
        <time>2020-05-09T11:46:46.000Z</time>
        <extensions>
          <ns3:TrackPointExtension>
            <ns3:atemp>30.0</ns3:atemp>
            <ns3:hr>130</ns3:hr>
          </ns3:TrackPointExtension>
        </extensions>
      </trkpt>
      <trkpt lat="43.052778951823711395263671875" lon="13.82014296948909759521484375">
        <ele>168.1999969482421875</ele>
        <time>2020-05-09T11:46:48.000Z</time>
        <extensions>
          <ns3:TrackPointExtension>
            <ns3:atemp>30.0</ns3:atemp>
            <ns3:hr>129</ns3:hr>
          </ns3:TrackPointExtension>
        </extensions>
      </trkpt>
      <trkpt lat="43.05277652107179164886474609375" lon="13.8198769278824329376220703125">
        <ele>167.600006103515625</ele>
        <time>2020-05-09T11:46:52.000Z</time>
        <extensions>
          <ns3:TrackPointExtension>
            <ns3:atemp>30.0</ns3:atemp>
            <ns3:hr>127</ns3:hr>
          </ns3:TrackPointExtension>
        </extensions>
      </trkpt>
      <trkpt lat="43.05277484469115734100341796875" lon="13.8198078610002994537353515625">
        <ele>167.399993896484375</ele>
        <time>2020-05-09T11:46:53.000Z</time>
        <extensions>
          <ns3:TrackPointExtension>
            <ns3:atemp>30.0</ns3:atemp>
            <ns3:hr>127</ns3:hr>
          </ns3:TrackPointExtension>
        </extensions>
      </trkpt>
      <trkpt lat="43.05276780389249324798583984375" lon="13.81967199034988880157470703125">
        <ele>167.1999969482421875</ele>
        <time>2020-05-09T11:46:55.000Z</time>
        <extensions>
          <ns3:TrackPointExtension>
            <ns3:atemp>30.0</ns3:atemp>
            <ns3:hr>127</ns3:hr>
          </ns3:TrackPointExtension>
        </extensions>
      </trkpt>
      <trkpt lat="43.05274911224842071533203125" lon="13.81948180496692657470703125">
        <ele>167</ele>
        <time>2020-05-09T11:46:58.000Z</time>
        <extensions>
          <ns3:TrackPointExtension>
            <ns3:atemp>30.0</ns3:atemp>
            <ns3:hr>127</ns3:hr>
          </ns3:TrackPointExtension>
        </extensions>
      </trkpt>
      <trkpt lat="43.05272840894758701324462890625" lon="13.819230012595653533935546875">
        <ele>166.8000030517578125</ele>
        <time>2020-05-09T11:47:02.000Z</time>
        <extensions>
          <ns3:TrackPointExtension>
            <ns3:atemp>30.0</ns3:atemp>
            <ns3:hr>124</ns3:hr>
          </ns3:TrackPointExtension>
        </extensions>
      </trkpt>
      <trkpt lat="43.05272907949984073638916015625" lon="13.8191661424934864044189453125">
        <ele>166.8000030517578125</ele>
        <time>2020-05-09T11:47:03.000Z</time>
        <extensions>
          <ns3:TrackPointExtension>
            <ns3:atemp>30.0</ns3:atemp>
            <ns3:hr>123</ns3:hr>
          </ns3:TrackPointExtension>
        </extensions>
      </trkpt>
      <trkpt lat="43.05273125879466533660888671875" lon="13.8190967403352260589599609375">
        <ele>166.600006103515625</ele>
        <time>2020-05-09T11:47:04.000Z</time>
        <extensions>
          <ns3:TrackPointExtension>
            <ns3:atemp>30.0</ns3:atemp>
            <ns3:hr>122</ns3:hr>
          </ns3:TrackPointExtension>
        </extensions>
      </trkpt>
      <trkpt lat="43.05274081416428089141845703125" lon="13.819027505815029144287109375">
        <ele>166.600006103515625</ele>
        <time>2020-05-09T11:47:05.000Z</time>
        <extensions>
          <ns3:TrackPointExtension>
            <ns3:atemp>30.0</ns3:atemp>
            <ns3:hr>121</ns3:hr>
          </ns3:TrackPointExtension>
        </extensions>
      </trkpt>
      <trkpt lat="43.052772246301174163818359375" lon="13.8188982568681240081787109375">
        <ele>166.1999969482421875</ele>
        <time>2020-05-09T11:47:07.000Z</time>
        <extensions>
          <ns3:TrackPointExtension>
            <ns3:atemp>30.0</ns3:atemp>
            <ns3:hr>119</ns3:hr>
          </ns3:TrackPointExtension>
        </extensions>
      </trkpt>
      <trkpt lat="43.0527945421636104583740234375" lon="13.81883631460368633270263671875">
        <ele>166.1999969482421875</ele>
        <time>2020-05-09T11:47:08.000Z</time>
        <extensions>
          <ns3:TrackPointExtension>
            <ns3:atemp>30.0</ns3:atemp>
            <ns3:hr>119</ns3:hr>
          </ns3:TrackPointExtension>
        </extensions>
      </trkpt>
      <trkpt lat="43.05282421410083770751953125" lon="13.818776719272136688232421875">
        <ele>166</ele>
        <time>2020-05-09T11:47:09.000Z</time>
        <extensions>
          <ns3:TrackPointExtension>
            <ns3:atemp>30.0</ns3:atemp>
            <ns3:hr>119</ns3:hr>
          </ns3:TrackPointExtension>
        </extensions>
      </trkpt>
      <trkpt lat="43.05289202369749546051025390625" lon="13.818670772016048431396484375">
        <ele>165.600006103515625</ele>
        <time>2020-05-09T11:47:11.000Z</time>
        <extensions>
          <ns3:TrackPointExtension>
            <ns3:atemp>30.0</ns3:atemp>
            <ns3:hr>119</ns3:hr>
          </ns3:TrackPointExtension>
        </extensions>
      </trkpt>
      <trkpt lat="43.053027726709842681884765625" lon="13.818572200834751129150390625">
        <ele>165.399993896484375</ele>
        <time>2020-05-09T11:47:14.000Z</time>
        <extensions>
          <ns3:TrackPointExtension>
            <ns3:atemp>30.0</ns3:atemp>
            <ns3:hr>119</ns3:hr>
          </ns3:TrackPointExtension>
        </extensions>
      </trkpt>
      <trkpt lat="43.05307877250015735626220703125" lon="13.81854194216430187225341796875">
        <ele>165</ele>
        <time>2020-05-09T11:47:16.000Z</time>
        <extensions>
          <ns3:TrackPointExtension>
            <ns3:atemp>30.0</ns3:atemp>
            <ns3:hr>118</ns3:hr>
          </ns3:TrackPointExtension>
        </extensions>
      </trkpt>
      <trkpt lat="43.053080700337886810302734375" lon="13.81854294799268245697021484375">
        <ele>165.1999969482421875</ele>
        <time>2020-05-09T11:47:17.000Z</time>
        <extensions>
          <ns3:TrackPointExtension>
            <ns3:atemp>30.0</ns3:atemp>
            <ns3:hr>119</ns3:hr>
          </ns3:TrackPointExtension>
        </extensions>
      </trkpt>
      <trkpt lat="43.05308162234723567962646484375" lon="13.81857412867248058319091796875">
        <ele>165.8000030517578125</ele>
        <time>2020-05-09T11:47:20.000Z</time>
        <extensions>
          <ns3:TrackPointExtension>
            <ns3:atemp>30.0</ns3:atemp>
            <ns3:hr>115</ns3:hr>
          </ns3:TrackPointExtension>
        </extensions>
      </trkpt>
      <trkpt lat="43.053083717823028564453125" lon="13.81857060827314853668212890625">
        <ele>165.8000030517578125</ele>
        <time>2020-05-09T11:47:21.000Z</time>
        <extensions>
          <ns3:TrackPointExtension>
            <ns3:atemp>30.0</ns3:atemp>
            <ns3:hr>112</ns3:hr>
          </ns3:TrackPointExtension>
        </extensions>
      </trkpt>
      <trkpt lat="43.05308514274656772613525390625" lon="13.81857144646346569061279296875">
        <ele>165.8000030517578125</ele>
        <time>2020-05-09T11:47:23.000Z</time>
        <extensions>
          <ns3:TrackPointExtension>
            <ns3:atemp>30.0</ns3:atemp>
            <ns3:hr>109</ns3:hr>
          </ns3:TrackPointExtension>
        </extensions>
      </trkpt>
      <trkpt lat="43.05308279581367969512939453125" lon="13.8185683451592922210693359375">
        <ele>165.8000030517578125</ele>
        <time>2020-05-09T11:47:24.000Z</time>
        <extensions>
          <ns3:TrackPointExtension>
            <ns3:atemp>30.0</ns3:atemp>
            <ns3:hr>109</ns3:hr>
          </ns3:TrackPointExtension>
        </extensions>
      </trkpt>
      <trkpt lat="43.0530869029462337493896484375" lon="13.81856423802673816680908203125">
        <ele>165.399993896484375</ele>
        <time>2020-05-09T11:47:31.000Z</time>
        <extensions>
          <ns3:TrackPointExtension>
            <ns3:atemp>30.0</ns3:atemp>
            <ns3:hr>106</ns3:hr>
          </ns3:TrackPointExtension>
        </extensions>
      </trkpt>
      <trkpt lat="43.05308581329882144927978515625" lon="13.8185623101890087127685546875">
        <ele>165.399993896484375</ele>
        <time>2020-05-09T11:47:34.000Z</time>
        <extensions>
          <ns3:TrackPointExtension>
            <ns3:atemp>30.0</ns3:atemp>
            <ns3:hr>103</ns3:hr>
          </ns3:TrackPointExtension>
        </extensions>
      </trkpt>
      <trkpt lat="43.05308765731751918792724609375" lon="13.81855786778032779693603515625">
        <ele>165.399993896484375</ele>
        <time>2020-05-09T11:47:35.000Z</time>
        <extensions>
          <ns3:TrackPointExtension>
            <ns3:atemp>30.0</ns3:atemp>
            <ns3:hr>102</ns3:hr>
          </ns3:TrackPointExtension>
        </extensions>
      </trkpt>
      <trkpt lat="43.053094111382961273193359375" lon="13.8185495696961879730224609375">
        <ele>165.399993896484375</ele>
        <time>2020-05-09T11:47:36.000Z</time>
        <extensions>
          <ns3:TrackPointExtension>
            <ns3:atemp>30.0</ns3:atemp>
            <ns3:hr>102</ns3:hr>
          </ns3:TrackPointExtension>
        </extensions>
      </trkpt>
      <trkpt lat="43.05311984382569789886474609375" lon="13.8185462169349193572998046875">
        <ele>165.399993896484375</ele>
        <time>2020-05-09T11:47:38.000Z</time>
        <extensions>
          <ns3:TrackPointExtension>
            <ns3:atemp>30.0</ns3:atemp>
            <ns3:hr>104</ns3:hr>
          </ns3:TrackPointExtension>
        </extensions>
      </trkpt>
      <trkpt lat="43.053124956786632537841796875" lon="13.818556107580661773681640625">
        <ele>165.399993896484375</ele>
        <time>2020-05-09T11:47:39.000Z</time>
        <extensions>
          <ns3:TrackPointExtension>
            <ns3:atemp>30.0</ns3:atemp>
            <ns3:hr>102</ns3:hr>
          </ns3:TrackPointExtension>
        </extensions>
      </trkpt>
      <trkpt lat="43.05312051437795162200927734375" lon="13.81856725551187992095947265625">
        <ele>165.399993896484375</ele>
        <time>2020-05-09T11:47:40.000Z</time>
        <extensions>
          <ns3:TrackPointExtension>
            <ns3:atemp>30.0</ns3:atemp>
            <ns3:hr>101</ns3:hr>
          </ns3:TrackPointExtension>
        </extensions>
      </trkpt>
      <trkpt lat="43.053081035614013671875" lon="13.818595670163631439208984375">
        <ele>165</ele>
        <time>2020-05-09T11:47:43.000Z</time>
        <extensions>
          <ns3:TrackPointExtension>
            <ns3:atemp>30.0</ns3:atemp>
            <ns3:hr>100</ns3:hr>
          </ns3:TrackPointExtension>
        </extensions>
      </trkpt>
      <trkpt lat="43.05301708169281482696533203125" lon="13.8186456263065338134765625">
        <ele>164.8000030517578125</ele>
        <time>2020-05-09T11:47:46.000Z</time>
        <extensions>
          <ns3:TrackPointExtension>
            <ns3:atemp>30.0</ns3:atemp>
            <ns3:hr>105</ns3:hr>
          </ns3:TrackPointExtension>
        </extensions>
      </trkpt>
      <trkpt lat="43.052999563515186309814453125" lon="13.8186649046838283538818359375">
        <ele>164.8000030517578125</ele>
        <time>2020-05-09T11:47:47.000Z</time>
        <extensions>
          <ns3:TrackPointExtension>
            <ns3:atemp>30.0</ns3:atemp>
            <ns3:hr>108</ns3:hr>
          </ns3:TrackPointExtension>
        </extensions>
      </trkpt>
      <trkpt lat="43.05298724211752414703369140625" lon="13.81868309341371059417724609375">
        <ele>164.8000030517578125</ele>
        <time>2020-05-09T11:47:48.000Z</time>
        <extensions>
          <ns3:TrackPointExtension>
            <ns3:atemp>30.0</ns3:atemp>
            <ns3:hr>111</ns3:hr>
          </ns3:TrackPointExtension>
        </extensions>
      </trkpt>
      <trkpt lat="43.05297844111919403076171875" lon="13.818698264658451080322265625">
        <ele>165</ele>
        <time>2020-05-09T11:47:49.000Z</time>
        <extensions>
          <ns3:TrackPointExtension>
            <ns3:atemp>30.0</ns3:atemp>
            <ns3:hr>113</ns3:hr>
          </ns3:TrackPointExtension>
        </extensions>
      </trkpt>
      <trkpt lat="43.05297550745308399200439453125" lon="13.81874327547848224639892578125">
        <ele>165.8000030517578125</ele>
        <time>2020-05-09T11:47:54.000Z</time>
        <extensions>
          <ns3:TrackPointExtension>
            <ns3:atemp>30.0</ns3:atemp>
            <ns3:hr>115</ns3:hr>
          </ns3:TrackPointExtension>
        </extensions>
      </trkpt>
      <trkpt lat="43.05295891128480434417724609375" lon="13.81879381835460662841796875">
        <ele>165.600006103515625</ele>
        <time>2020-05-09T11:47:58.000Z</time>
        <extensions>
          <ns3:TrackPointExtension>
            <ns3:atemp>30.0</ns3:atemp>
            <ns3:hr>118</ns3:hr>
          </ns3:TrackPointExtension>
        </extensions>
      </trkpt>
      <trkpt lat="43.05295773781836032867431640625" lon="13.818798176944255828857421875">
        <ele>165</ele>
        <time>2020-05-09T11:48:02.000Z</time>
        <extensions>
          <ns3:TrackPointExtension>
            <ns3:atemp>30.0</ns3:atemp>
            <ns3:hr>117</ns3:hr>
          </ns3:TrackPointExtension>
        </extensions>
      </trkpt>
      <trkpt lat="43.05295589379966259002685546875" lon="13.8187956623733043670654296875">
        <ele>165</ele>
        <time>2020-05-09T11:48:08.000Z</time>
        <extensions>
          <ns3:TrackPointExtension>
            <ns3:atemp>30.0</ns3:atemp>
            <ns3:hr>113</ns3:hr>
          </ns3:TrackPointExtension>
        </extensions>
      </trkpt>
      <trkpt lat="43.05295438505709171295166015625" lon="13.8187946565449237823486328125">
        <ele>165</ele>
        <time>2020-05-09T11:48:12.000Z</time>
        <extensions>
          <ns3:TrackPointExtension>
            <ns3:atemp>30.0</ns3:atemp>
            <ns3:hr>114</ns3:hr>
          </ns3:TrackPointExtension>
        </extensions>
      </trkpt>
      <trkpt lat="43.0529561452567577362060546875" lon="13.81877847947180271148681640625">
        <ele>165.8000030517578125</ele>
        <time>2020-05-09T11:48:25.000Z</time>
        <extensions>
          <ns3:TrackPointExtension>
            <ns3:atemp>30.0</ns3:atemp>
            <ns3:hr>115</ns3:hr>
          </ns3:TrackPointExtension>
        </extensions>
      </trkpt>
      <trkpt lat="43.0529544688761234283447265625" lon="13.8187829218804836273193359375">
        <ele>165.8000030517578125</ele>
        <time>2020-05-09T11:48:26.000Z</time>
        <extensions>
          <ns3:TrackPointExtension>
            <ns3:atemp>30.0</ns3:atemp>
            <ns3:hr>112</ns3:hr>
          </ns3:TrackPointExtension>
        </extensions>
      </trkpt>
      <trkpt lat="43.052955977618694305419921875" lon="13.81876573897898197174072265625">
        <ele>165.8000030517578125</ele>
        <time>2020-05-09T11:48:32.000Z</time>
        <extensions>
          <ns3:TrackPointExtension>
            <ns3:atemp>30.0</ns3:atemp>
            <ns3:hr>111</ns3:hr>
          </ns3:TrackPointExtension>
        </extensions>
      </trkpt>
      <trkpt lat="43.05301456712186336517333984375" lon="13.8186813332140445709228515625">
        <ele>165.8000030517578125</ele>
        <time>2020-05-09T11:48:35.000Z</time>
        <extensions>
          <ns3:TrackPointExtension>
            <ns3:atemp>30.0</ns3:atemp>
            <ns3:hr>114</ns3:hr>
          </ns3:TrackPointExtension>
        </extensions>
      </trkpt>
      <trkpt lat="43.05304474197328090667724609375" lon="13.8186501525342464447021484375">
        <ele>165.8000030517578125</ele>
        <time>2020-05-09T11:48:36.000Z</time>
        <extensions>
          <ns3:TrackPointExtension>
            <ns3:atemp>30.0</ns3:atemp>
            <ns3:hr>115</ns3:hr>
          </ns3:TrackPointExtension>
        </extensions>
      </trkpt>
      <trkpt lat="43.05322562344372272491455078125" lon="13.8184979371726512908935546875">
        <ele>165.600006103515625</ele>
        <time>2020-05-09T11:48:42.000Z</time>
        <extensions>
          <ns3:TrackPointExtension>
            <ns3:atemp>30.0</ns3:atemp>
            <ns3:hr>115</ns3:hr>
          </ns3:TrackPointExtension>
        </extensions>
      </trkpt>
      <trkpt lat="43.05328060872852802276611328125" lon="13.818454183638095855712890625">
        <ele>166.1999969482421875</ele>
        <time>2020-05-09T11:48:45.000Z</time>
        <extensions>
          <ns3:TrackPointExtension>
            <ns3:atemp>30.0</ns3:atemp>
            <ns3:hr>114</ns3:hr>
          </ns3:TrackPointExtension>
        </extensions>
      </trkpt>
      <trkpt lat="43.05335319600999355316162109375" lon="13.8183973543345928192138671875">
        <ele>166.8000030517578125</ele>
        <time>2020-05-09T11:48:49.000Z</time>
        <extensions>
          <ns3:TrackPointExtension>
            <ns3:atemp>30.0</ns3:atemp>
            <ns3:hr>115</ns3:hr>
          </ns3:TrackPointExtension>
        </extensions>
      </trkpt>
      <trkpt lat="43.05337280966341495513916015625" lon="13.8183805905282497406005859375">
        <ele>167.1999969482421875</ele>
        <time>2020-05-09T11:48:50.000Z</time>
        <extensions>
          <ns3:TrackPointExtension>
            <ns3:atemp>30.0</ns3:atemp>
            <ns3:hr>115</ns3:hr>
          </ns3:TrackPointExtension>
        </extensions>
      </trkpt>
      <trkpt lat="43.0535036511719226837158203125" lon="13.81826802156865596771240234375">
        <ele>168</ele>
        <time>2020-05-09T11:48:56.000Z</time>
        <extensions>
          <ns3:TrackPointExtension>
            <ns3:atemp>30.0</ns3:atemp>
            <ns3:hr>114</ns3:hr>
          </ns3:TrackPointExtension>
        </extensions>
      </trkpt>
      <trkpt lat="43.0535276234149932861328125" lon="13.8182511739432811737060546875">
        <ele>168.1999969482421875</ele>
        <time>2020-05-09T11:48:57.000Z</time>
        <extensions>
          <ns3:TrackPointExtension>
            <ns3:atemp>30.0</ns3:atemp>
            <ns3:hr>112</ns3:hr>
          </ns3:TrackPointExtension>
        </extensions>
      </trkpt>
      <trkpt lat="43.05354983545839786529541015625" lon="13.81823097355663776397705078125">
        <ele>168.600006103515625</ele>
        <time>2020-05-09T11:48:58.000Z</time>
        <extensions>
          <ns3:TrackPointExtension>
            <ns3:atemp>30.0</ns3:atemp>
            <ns3:hr>115</ns3:hr>
          </ns3:TrackPointExtension>
        </extensions>
      </trkpt>
      <trkpt lat="43.05361370556056499481201171875" lon="13.81814179010689258575439453125">
        <ele>169.399993896484375</ele>
        <time>2020-05-09T11:49:02.000Z</time>
        <extensions>
          <ns3:TrackPointExtension>
            <ns3:atemp>29.0</ns3:atemp>
            <ns3:hr>118</ns3:hr>
          </ns3:TrackPointExtension>
        </extensions>
      </trkpt>
      <trkpt lat="43.053629882633686065673828125" lon="13.81811924278736114501953125">
        <ele>169.600006103515625</ele>
        <time>2020-05-09T11:49:03.000Z</time>
        <extensions>
          <ns3:TrackPointExtension>
            <ns3:atemp>29.0</ns3:atemp>
            <ns3:hr>118</ns3:hr>
          </ns3:TrackPointExtension>
        </extensions>
      </trkpt>
      <trkpt lat="43.053696267306804656982421875" lon="13.818059228360652923583984375">
        <ele>170.399993896484375</ele>
        <time>2020-05-09T11:49:06.000Z</time>
        <extensions>
          <ns3:TrackPointExtension>
            <ns3:atemp>29.0</ns3:atemp>
            <ns3:hr>117</ns3:hr>
          </ns3:TrackPointExtension>
        </extensions>
      </trkpt>
      <trkpt lat="43.05375787429511547088623046875" lon="13.8179933466017246246337890625">
        <ele>171.399993896484375</ele>
        <time>2020-05-09T11:49:10.000Z</time>
        <extensions>
          <ns3:TrackPointExtension>
            <ns3:atemp>29.0</ns3:atemp>
            <ns3:hr>118</ns3:hr>
          </ns3:TrackPointExtension>
        </extensions>
      </trkpt>
      <trkpt lat="43.0537631548941135406494140625" lon="13.81796769797801971435546875">
        <ele>171.399993896484375</ele>
        <time>2020-05-09T11:49:11.000Z</time>
        <extensions>
          <ns3:TrackPointExtension>
            <ns3:atemp>29.0</ns3:atemp>
            <ns3:hr>118</ns3:hr>
          </ns3:TrackPointExtension>
        </extensions>
      </trkpt>
      <trkpt lat="43.053845129907131195068359375" lon="13.8178944401443004608154296875">
        <ele>172.399993896484375</ele>
        <time>2020-05-09T11:49:15.000Z</time>
        <extensions>
          <ns3:TrackPointExtension>
            <ns3:atemp>29.0</ns3:atemp>
            <ns3:hr>118</ns3:hr>
          </ns3:TrackPointExtension>
        </extensions>
      </trkpt>
      <trkpt lat="43.05386566556990146636962890625" lon="13.817876838147640228271484375">
        <ele>172.600006103515625</ele>
        <time>2020-05-09T11:49:16.000Z</time>
        <extensions>
          <ns3:TrackPointExtension>
            <ns3:atemp>29.0</ns3:atemp>
            <ns3:hr>118</ns3:hr>
          </ns3:TrackPointExtension>
        </extensions>
      </trkpt>
      <trkpt lat="43.053915202617645263671875" lon="13.817829228937625885009765625">
        <ele>173.600006103515625</ele>
        <time>2020-05-09T11:49:19.000Z</time>
        <extensions>
          <ns3:TrackPointExtension>
            <ns3:atemp>29.0</ns3:atemp>
            <ns3:hr>118</ns3:hr>
          </ns3:TrackPointExtension>
        </extensions>
      </trkpt>
      <trkpt lat="43.053949736058712005615234375" lon="13.81779192946851253509521484375">
        <ele>175</ele>
        <time>2020-05-09T11:49:22.000Z</time>
        <extensions>
          <ns3:TrackPointExtension>
            <ns3:atemp>29.0</ns3:atemp>
            <ns3:hr>117</ns3:hr>
          </ns3:TrackPointExtension>
        </extensions>
      </trkpt>
      <trkpt lat="43.05397295393049716949462890625" lon="13.817772231996059417724609375">
        <ele>175.600006103515625</ele>
        <time>2020-05-09T11:49:24.000Z</time>
        <extensions>
          <ns3:TrackPointExtension>
            <ns3:atemp>29.0</ns3:atemp>
            <ns3:hr>115</ns3:hr>
          </ns3:TrackPointExtension>
        </extensions>
      </trkpt>
      <trkpt lat="43.05399038828909397125244140625" lon="13.8177455775439739227294921875">
        <ele>176.399993896484375</ele>
        <time>2020-05-09T11:49:26.000Z</time>
        <extensions>
          <ns3:TrackPointExtension>
            <ns3:atemp>29.0</ns3:atemp>
            <ns3:hr>117</ns3:hr>
          </ns3:TrackPointExtension>
        </extensions>
      </trkpt>
      <trkpt lat="43.05399994365870952606201171875" lon="13.81773141212761402130126953125">
        <ele>176.8000030517578125</ele>
        <time>2020-05-09T11:49:27.000Z</time>
        <extensions>
          <ns3:TrackPointExtension>
            <ns3:atemp>29.0</ns3:atemp>
            <ns3:hr>117</ns3:hr>
          </ns3:TrackPointExtension>
        </extensions>
      </trkpt>
      <trkpt lat="43.0540179647505283355712890625" lon="13.817704506218433380126953125">
        <ele>177.399993896484375</ele>
        <time>2020-05-09T11:49:29.000Z</time>
        <extensions>
          <ns3:TrackPointExtension>
            <ns3:atemp>29.0</ns3:atemp>
            <ns3:hr>118</ns3:hr>
          </ns3:TrackPointExtension>
        </extensions>
      </trkpt>
      <trkpt lat="43.054077140986919403076171875" lon="13.8176389597356319427490234375">
        <ele>178.1999969482421875</ele>
        <time>2020-05-09T11:49:33.000Z</time>
        <extensions>
          <ns3:TrackPointExtension>
            <ns3:atemp>29.0</ns3:atemp>
            <ns3:hr>116</ns3:hr>
          </ns3:TrackPointExtension>
        </extensions>
      </trkpt>
      <trkpt lat="43.054099269211292266845703125" lon="13.81762311793863773345947265625">
        <ele>178.600006103515625</ele>
        <time>2020-05-09T11:49:35.000Z</time>
        <extensions>
          <ns3:TrackPointExtension>
            <ns3:atemp>29.0</ns3:atemp>
            <ns3:hr>116</ns3:hr>
          </ns3:TrackPointExtension>
        </extensions>
      </trkpt>
      <trkpt lat="43.05413640104234218597412109375" lon="13.81758011877536773681640625">
        <ele>179.399993896484375</ele>
        <time>2020-05-09T11:49:38.000Z</time>
        <extensions>
          <ns3:TrackPointExtension>
            <ns3:atemp>29.0</ns3:atemp>
            <ns3:hr>114</ns3:hr>
          </ns3:TrackPointExtension>
        </extensions>
      </trkpt>
      <trkpt lat="43.0541445314884185791015625" lon="13.8175641931593418121337890625">
        <ele>179.600006103515625</ele>
        <time>2020-05-09T11:49:39.000Z</time>
        <extensions>
          <ns3:TrackPointExtension>
            <ns3:atemp>29.0</ns3:atemp>
            <ns3:hr>115</ns3:hr>
          </ns3:TrackPointExtension>
        </extensions>
      </trkpt>
      <trkpt lat="43.054164983332157135009765625" lon="13.81751968525350093841552734375">
        <ele>180.600006103515625</ele>
        <time>2020-05-09T11:49:41.000Z</time>
        <extensions>
          <ns3:TrackPointExtension>
            <ns3:atemp>29.0</ns3:atemp>
            <ns3:hr>116</ns3:hr>
          </ns3:TrackPointExtension>
        </extensions>
      </trkpt>
      <trkpt lat="43.05417093448340892791748046875" lon="13.81749671883881092071533203125">
        <ele>180.8000030517578125</ele>
        <time>2020-05-09T11:49:42.000Z</time>
        <extensions>
          <ns3:TrackPointExtension>
            <ns3:atemp>29.0</ns3:atemp>
            <ns3:hr>116</ns3:hr>
          </ns3:TrackPointExtension>
        </extensions>
      </trkpt>
      <trkpt lat="43.0541954934597015380859375" lon="13.81744558922946453094482421875">
        <ele>181.1999969482421875</ele>
        <time>2020-05-09T11:49:44.000Z</time>
        <extensions>
          <ns3:TrackPointExtension>
            <ns3:atemp>29.0</ns3:atemp>
            <ns3:hr>122</ns3:hr>
          </ns3:TrackPointExtension>
        </extensions>
      </trkpt>
      <trkpt lat="43.054209239780902862548828125" lon="13.81741876713931560516357421875">
        <ele>181.1999969482421875</ele>
        <time>2020-05-09T11:49:45.000Z</time>
        <extensions>
          <ns3:TrackPointExtension>
            <ns3:atemp>29.0</ns3:atemp>
            <ns3:hr>126</ns3:hr>
          </ns3:TrackPointExtension>
        </extensions>
      </trkpt>
      <trkpt lat="43.05422239936888217926025390625" lon="13.81738591007888317108154296875">
        <ele>181.1999969482421875</ele>
        <time>2020-05-09T11:49:46.000Z</time>
        <extensions>
          <ns3:TrackPointExtension>
            <ns3:atemp>29.0</ns3:atemp>
            <ns3:hr>132</ns3:hr>
          </ns3:TrackPointExtension>
        </extensions>
      </trkpt>
      <trkpt lat="43.05423681624233722686767578125" lon="13.8173596747219562530517578125">
        <ele>181.399993896484375</ele>
        <time>2020-05-09T11:49:47.000Z</time>
        <extensions>
          <ns3:TrackPointExtension>
            <ns3:atemp>29.0</ns3:atemp>
            <ns3:hr>138</ns3:hr>
          </ns3:TrackPointExtension>
        </extensions>
      </trkpt>
      <trkpt lat="43.054250143468379974365234375" lon="13.81733729504048824310302734375">
        <ele>181.600006103515625</ele>
        <time>2020-05-09T11:49:48.000Z</time>
        <extensions>
          <ns3:TrackPointExtension>
            <ns3:atemp>29.0</ns3:atemp>
            <ns3:hr>143</ns3:hr>
          </ns3:TrackPointExtension>
        </extensions>
      </trkpt>
      <trkpt lat="43.05426564998924732208251953125" lon="13.8173125684261322021484375">
        <ele>182</ele>
        <time>2020-05-09T11:49:49.000Z</time>
        <extensions>
          <ns3:TrackPointExtension>
            <ns3:atemp>29.0</ns3:atemp>
            <ns3:hr>147</ns3:hr>
          </ns3:TrackPointExtension>
        </extensions>
      </trkpt>
      <trkpt lat="43.05428006686270236968994140625" lon="13.81728767417371273040771484375">
        <ele>182</ele>
        <time>2020-05-09T11:49:50.000Z</time>
        <extensions>
          <ns3:TrackPointExtension>
            <ns3:atemp>29.0</ns3:atemp>
            <ns3:hr>153</ns3:hr>
          </ns3:TrackPointExtension>
        </extensions>
      </trkpt>
      <trkpt lat="43.0542918853461742401123046875" lon="13.81726495921611785888671875">
        <ele>182.1999969482421875</ele>
        <time>2020-05-09T11:49:51.000Z</time>
        <extensions>
          <ns3:TrackPointExtension>
            <ns3:atemp>29.0</ns3:atemp>
            <ns3:hr>156</ns3:hr>
          </ns3:TrackPointExtension>
        </extensions>
      </trkpt>
      <trkpt lat="43.05430906824767589569091796875" lon="13.8172419928014278411865234375">
        <ele>182.1999969482421875</ele>
        <time>2020-05-09T11:49:52.000Z</time>
        <extensions>
          <ns3:TrackPointExtension>
            <ns3:atemp>29.0</ns3:atemp>
            <ns3:hr>157</ns3:hr>
          </ns3:TrackPointExtension>
        </extensions>
      </trkpt>
      <trkpt lat="43.05436003021895885467529296875" lon="13.81716747768223285675048828125">
        <ele>183</ele>
        <time>2020-05-09T11:49:55.000Z</time>
        <extensions>
          <ns3:TrackPointExtension>
            <ns3:atemp>29.0</ns3:atemp>
            <ns3:hr>159</ns3:hr>
          </ns3:TrackPointExtension>
        </extensions>
      </trkpt>
      <trkpt lat="43.05441602133214473724365234375" lon="13.8170653022825717926025390625">
        <ele>184.1999969482421875</ele>
        <time>2020-05-09T11:50:00.000Z</time>
        <extensions>
          <ns3:TrackPointExtension>
            <ns3:atemp>29.0</ns3:atemp>
            <ns3:hr>160</ns3:hr>
          </ns3:TrackPointExtension>
        </extensions>
      </trkpt>
      <trkpt lat="43.05446731857955455780029296875" lon="13.816979639232158660888671875">
        <ele>185.1999969482421875</ele>
        <time>2020-05-09T11:50:04.000Z</time>
        <extensions>
          <ns3:TrackPointExtension>
            <ns3:atemp>29.0</ns3:atemp>
            <ns3:hr>161</ns3:hr>
          </ns3:TrackPointExtension>
        </extensions>
      </trkpt>
      <trkpt lat="43.05450017563998699188232421875" lon="13.81692289374768733978271484375">
        <ele>185.600006103515625</ele>
        <time>2020-05-09T11:50:06.000Z</time>
        <extensions>
          <ns3:TrackPointExtension>
            <ns3:atemp>29.0</ns3:atemp>
            <ns3:hr>162</ns3:hr>
          </ns3:TrackPointExtension>
        </extensions>
      </trkpt>
      <trkpt lat="43.05456052534282207489013671875" lon="13.81677067838609218597412109375">
        <ele>186.1999969482421875</ele>
        <time>2020-05-09T11:50:11.000Z</time>
        <extensions>
          <ns3:TrackPointExtension>
            <ns3:atemp>29.0</ns3:atemp>
            <ns3:hr>162</ns3:hr>
          </ns3:TrackPointExtension>
        </extensions>
      </trkpt>
      <trkpt lat="43.05457301437854766845703125" lon="13.81674134172499179840087890625">
        <ele>186.399993896484375</ele>
        <time>2020-05-09T11:50:12.000Z</time>
        <extensions>
          <ns3:TrackPointExtension>
            <ns3:atemp>29.0</ns3:atemp>
            <ns3:hr>162</ns3:hr>
          </ns3:TrackPointExtension>
        </extensions>
      </trkpt>
      <trkpt lat="43.05464752949774265289306640625" lon="13.816604800522327423095703125">
        <ele>187.399993896484375</ele>
        <time>2020-05-09T11:50:17.000Z</time>
        <extensions>
          <ns3:TrackPointExtension>
            <ns3:atemp>29.0</ns3:atemp>
            <ns3:hr>163</ns3:hr>
          </ns3:TrackPointExtension>
        </extensions>
      </trkpt>
      <trkpt lat="43.05467493832111358642578125" lon="13.81649273447692394256591796875">
        <ele>188.600006103515625</ele>
        <time>2020-05-09T11:50:20.000Z</time>
        <extensions>
          <ns3:TrackPointExtension>
            <ns3:atemp>29.0</ns3:atemp>
            <ns3:hr>164</ns3:hr>
          </ns3:TrackPointExtension>
        </extensions>
      </trkpt>
      <trkpt lat="43.0547317676246166229248046875" lon="13.8162410259246826171875">
        <ele>189.600006103515625</ele>
        <time>2020-05-09T11:50:27.000Z</time>
        <extensions>
          <ns3:TrackPointExtension>
            <ns3:atemp>29.0</ns3:atemp>
            <ns3:hr>163</ns3:hr>
          </ns3:TrackPointExtension>
        </extensions>
      </trkpt>
      <trkpt lat="43.0547274090349674224853515625" lon="13.8161898963153362274169921875">
        <ele>189.8000030517578125</ele>
        <time>2020-05-09T11:50:28.000Z</time>
        <extensions>
          <ns3:TrackPointExtension>
            <ns3:atemp>29.0</ns3:atemp>
            <ns3:hr>163</ns3:hr>
          </ns3:TrackPointExtension>
        </extensions>
      </trkpt>
      <trkpt lat="43.05474643595516681671142578125" lon="13.81597138009965419769287109375">
        <ele>190.8000030517578125</ele>
        <time>2020-05-09T11:50:34.000Z</time>
        <extensions>
          <ns3:TrackPointExtension>
            <ns3:atemp>29.0</ns3:atemp>
            <ns3:hr>162</ns3:hr>
          </ns3:TrackPointExtension>
        </extensions>
      </trkpt>
      <trkpt lat="43.05475498549640178680419921875" lon="13.815914131700992584228515625">
        <ele>191</ele>
        <time>2020-05-09T11:50:36.000Z</time>
        <extensions>
          <ns3:TrackPointExtension>
            <ns3:atemp>29.0</ns3:atemp>
            <ns3:hr>162</ns3:hr>
          </ns3:TrackPointExtension>
        </extensions>
      </trkpt>
      <trkpt lat="43.05479957722127437591552734375" lon="13.81574146449565887451171875">
        <ele>191.1999969482421875</ele>
        <time>2020-05-09T11:50:42.000Z</time>
        <extensions>
          <ns3:TrackPointExtension>
            <ns3:atemp>29.0</ns3:atemp>
            <ns3:hr>160</ns3:hr>
          </ns3:TrackPointExtension>
        </extensions>
      </trkpt>
      <trkpt lat="43.0547887645661830902099609375" lon="13.81544910371303558349609375">
        <ele>191.8000030517578125</ele>
        <time>2020-05-09T11:50:48.000Z</time>
        <extensions>
          <ns3:TrackPointExtension>
            <ns3:atemp>29.0</ns3:atemp>
            <ns3:hr>161</ns3:hr>
          </ns3:TrackPointExtension>
        </extensions>
      </trkpt>
      <trkpt lat="43.0547857470810413360595703125" lon="13.81534893997013568878173828125">
        <ele>192</ele>
        <time>2020-05-09T11:50:50.000Z</time>
        <extensions>
          <ns3:TrackPointExtension>
            <ns3:atemp>29.0</ns3:atemp>
            <ns3:hr>158</ns3:hr>
          </ns3:TrackPointExtension>
        </extensions>
      </trkpt>
      <trkpt lat="43.054783232510089874267578125" lon="13.81529848091304302215576171875">
        <ele>192</ele>
        <time>2020-05-09T11:50:51.000Z</time>
        <extensions>
          <ns3:TrackPointExtension>
            <ns3:atemp>29.0</ns3:atemp>
            <ns3:hr>155</ns3:hr>
          </ns3:TrackPointExtension>
        </extensions>
      </trkpt>
      <trkpt lat="43.0547783710062503814697265625" lon="13.81520946510136127471923828125">
        <ele>192</ele>
        <time>2020-05-09T11:50:53.000Z</time>
        <extensions>
          <ns3:TrackPointExtension>
            <ns3:atemp>29.0</ns3:atemp>
            <ns3:hr>154</ns3:hr>
          </ns3:TrackPointExtension>
        </extensions>
      </trkpt>
      <trkpt lat="43.054775856435298919677734375" lon="13.815096728503704071044921875">
        <ele>192.399993896484375</ele>
        <time>2020-05-09T11:50:56.000Z</time>
        <extensions>
          <ns3:TrackPointExtension>
            <ns3:atemp>29.0</ns3:atemp>
            <ns3:hr>152</ns3:hr>
          </ns3:TrackPointExtension>
        </extensions>
      </trkpt>
      <trkpt lat="43.0547830648720264434814453125" lon="13.8149889372289180755615234375">
        <ele>192.8000030517578125</ele>
        <time>2020-05-09T11:50:59.000Z</time>
        <extensions>
          <ns3:TrackPointExtension>
            <ns3:atemp>29.0</ns3:atemp>
            <ns3:hr>149</ns3:hr>
          </ns3:TrackPointExtension>
        </extensions>
      </trkpt>
      <trkpt lat="43.05479337461292743682861328125" lon="13.81492917425930500030517578125">
        <ele>193.1999969482421875</ele>
        <time>2020-05-09T11:51:01.000Z</time>
        <extensions>
          <ns3:TrackPointExtension>
            <ns3:atemp>29.0</ns3:atemp>
            <ns3:hr>147</ns3:hr>
          </ns3:TrackPointExtension>
        </extensions>
      </trkpt>
      <trkpt lat="43.054800331592559814453125" lon="13.814857006072998046875">
        <ele>193.600006103515625</ele>
        <time>2020-05-09T11:51:03.000Z</time>
        <extensions>
          <ns3:TrackPointExtension>
            <ns3:atemp>29.0</ns3:atemp>
            <ns3:hr>147</ns3:hr>
          </ns3:TrackPointExtension>
        </extensions>
      </trkpt>
      <trkpt lat="43.05481416173279285430908203125" lon="13.81473655812442302703857421875">
        <ele>193.8000030517578125</ele>
        <time>2020-05-09T11:51:07.000Z</time>
        <extensions>
          <ns3:TrackPointExtension>
            <ns3:atemp>29.0</ns3:atemp>
            <ns3:hr>144</ns3:hr>
          </ns3:TrackPointExtension>
        </extensions>
      </trkpt>
      <trkpt lat="43.05483327247202396392822265625" lon="13.81466447375714778900146484375">
        <ele>194</ele>
        <time>2020-05-09T11:51:10.000Z</time>
        <extensions>
          <ns3:TrackPointExtension>
            <ns3:atemp>29.0</ns3:atemp>
            <ns3:hr>143</ns3:hr>
          </ns3:TrackPointExtension>
        </extensions>
      </trkpt>
      <trkpt lat="43.0548427440226078033447265625" lon="13.81461284123361110687255859375">
        <ele>194.399993896484375</ele>
        <time>2020-05-09T11:51:12.000Z</time>
        <extensions>
          <ns3:TrackPointExtension>
            <ns3:atemp>29.0</ns3:atemp>
            <ns3:hr>143</ns3:hr>
          </ns3:TrackPointExtension>
        </extensions>
      </trkpt>
      <trkpt lat="43.0549064464867115020751953125" lon="13.8144380785524845123291015625">
        <ele>194.600006103515625</ele>
        <time>2020-05-09T11:51:19.000Z</time>
        <extensions>
          <ns3:TrackPointExtension>
            <ns3:atemp>29.0</ns3:atemp>
            <ns3:hr>142</ns3:hr>
          </ns3:TrackPointExtension>
        </extensions>
      </trkpt>
      <trkpt lat="43.05495388805866241455078125" lon="13.8143713586032390594482421875">
        <ele>194.600006103515625</ele>
        <time>2020-05-09T11:51:22.000Z</time>
        <extensions>
          <ns3:TrackPointExtension>
            <ns3:atemp>29.0</ns3:atemp>
            <ns3:hr>139</ns3:hr>
          </ns3:TrackPointExtension>
        </extensions>
      </trkpt>
      <trkpt lat="43.05500862188637256622314453125" lon="13.8143056444823741912841796875">
        <ele>194.600006103515625</ele>
        <time>2020-05-09T11:51:27.000Z</time>
        <extensions>
          <ns3:TrackPointExtension>
            <ns3:atemp>29.0</ns3:atemp>
            <ns3:hr>136</ns3:hr>
          </ns3:TrackPointExtension>
        </extensions>
      </trkpt>
      <trkpt lat="43.0550023354589939117431640625" lon="13.8142469711601734161376953125">
        <ele>195</ele>
        <time>2020-05-09T11:51:33.000Z</time>
        <extensions>
          <ns3:TrackPointExtension>
            <ns3:atemp>29.0</ns3:atemp>
            <ns3:hr>136</ns3:hr>
          </ns3:TrackPointExtension>
        </extensions>
      </trkpt>
      <trkpt lat="43.05500107817351818084716796875" lon="13.8142328895628452301025390625">
        <ele>195</ele>
        <time>2020-05-09T11:51:34.000Z</time>
        <extensions>
          <ns3:TrackPointExtension>
            <ns3:atemp>29.0</ns3:atemp>
            <ns3:hr>137</ns3:hr>
          </ns3:TrackPointExtension>
        </extensions>
      </trkpt>
      <trkpt lat="43.05500778369605541229248046875" lon="13.81419424898922443389892578125">
        <ele>195.399993896484375</ele>
        <time>2020-05-09T11:51:36.000Z</time>
        <extensions>
          <ns3:TrackPointExtension>
            <ns3:atemp>29.0</ns3:atemp>
            <ns3:hr>138</ns3:hr>
          </ns3:TrackPointExtension>
        </extensions>
      </trkpt>
      <trkpt lat="43.05503125302493572235107421875" lon="13.81414446048438549041748046875">
        <ele>195.8000030517578125</ele>
        <time>2020-05-09T11:51:39.000Z</time>
        <extensions>
          <ns3:TrackPointExtension>
            <ns3:atemp>29.0</ns3:atemp>
            <ns3:hr>139</ns3:hr>
          </ns3:TrackPointExtension>
        </extensions>
      </trkpt>
      <trkpt lat="43.05505002848803997039794921875" lon="13.8140965998172760009765625">
        <ele>196.399993896484375</ele>
        <time>2020-05-09T11:51:44.000Z</time>
        <extensions>
          <ns3:TrackPointExtension>
            <ns3:atemp>29.0</ns3:atemp>
            <ns3:hr>139</ns3:hr>
          </ns3:TrackPointExtension>
        </extensions>
      </trkpt>
      <trkpt lat="43.05504868738353252410888671875" lon="13.81409735418856143951416015625">
        <ele>196.1999969482421875</ele>
        <time>2020-05-09T11:51:47.000Z</time>
        <extensions>
          <ns3:TrackPointExtension>
            <ns3:atemp>29.0</ns3:atemp>
            <ns3:hr>142</ns3:hr>
          </ns3:TrackPointExtension>
        </extensions>
      </trkpt>
      <trkpt lat="43.05503997020423412322998046875" lon="13.8141071610152721405029296875">
        <ele>196.1999969482421875</ele>
        <time>2020-05-09T11:51:51.000Z</time>
        <extensions>
          <ns3:TrackPointExtension>
            <ns3:atemp>29.0</ns3:atemp>
            <ns3:hr>143</ns3:hr>
          </ns3:TrackPointExtension>
        </extensions>
      </trkpt>
      <trkpt lat="43.05503376759588718414306640625" lon="13.81410607136785984039306640625">
        <ele>196.1999969482421875</ele>
        <time>2020-05-09T11:51:54.000Z</time>
        <extensions>
          <ns3:TrackPointExtension>
            <ns3:atemp>29.0</ns3:atemp>
            <ns3:hr>140</ns3:hr>
          </ns3:TrackPointExtension>
        </extensions>
      </trkpt>
      <trkpt lat="43.0550350248813629150390625" lon="13.81410062313079833984375">
        <ele>196.1999969482421875</ele>
        <time>2020-05-09T11:52:00.000Z</time>
        <extensions>
          <ns3:TrackPointExtension>
            <ns3:atemp>29.0</ns3:atemp>
            <ns3:hr>138</ns3:hr>
          </ns3:TrackPointExtension>
        </extensions>
      </trkpt>
      <trkpt lat="43.0549909360706806182861328125" lon="13.8140483200550079345703125">
        <ele>195.8000030517578125</ele>
        <time>2020-05-09T11:52:05.000Z</time>
        <extensions>
          <ns3:TrackPointExtension>
            <ns3:atemp>29.0</ns3:atemp>
            <ns3:hr>138</ns3:hr>
          </ns3:TrackPointExtension>
        </extensions>
      </trkpt>
      <trkpt lat="43.054975010454654693603515625" lon="13.814029879868030548095703125">
        <ele>195.600006103515625</ele>
        <time>2020-05-09T11:52:06.000Z</time>
        <extensions>
          <ns3:TrackPointExtension>
            <ns3:atemp>29.0</ns3:atemp>
            <ns3:hr>135</ns3:hr>
          </ns3:TrackPointExtension>
        </extensions>
      </trkpt>
      <trkpt lat="43.05492782033979892730712890625" lon="13.81394564174115657806396484375">
        <ele>194.1999969482421875</ele>
        <time>2020-05-09T11:52:09.000Z</time>
        <extensions>
          <ns3:TrackPointExtension>
            <ns3:atemp>29.0</ns3:atemp>
            <ns3:hr>132</ns3:hr>
          </ns3:TrackPointExtension>
        </extensions>
      </trkpt>
      <trkpt lat="43.05492044426500797271728515625" lon="13.8139224238693714141845703125">
        <ele>193.600006103515625</ele>
        <time>2020-05-09T11:52:10.000Z</time>
        <extensions>
          <ns3:TrackPointExtension>
            <ns3:atemp>29.0</ns3:atemp>
            <ns3:hr>131</ns3:hr>
          </ns3:TrackPointExtension>
        </extensions>
      </trkpt>
      <trkpt lat="43.0549138225615024566650390625" lon="13.81389602087438106536865234375">
        <ele>193</ele>
        <time>2020-05-09T11:52:11.000Z</time>
        <extensions>
          <ns3:TrackPointExtension>
            <ns3:atemp>29.0</ns3:atemp>
            <ns3:hr>132</ns3:hr>
          </ns3:TrackPointExtension>
        </extensions>
      </trkpt>
      <trkpt lat="43.05487249977886676788330078125" lon="13.813773058354854583740234375">
        <ele>191.8000030517578125</ele>
        <time>2020-05-09T11:52:15.000Z</time>
        <extensions>
          <ns3:TrackPointExtension>
            <ns3:atemp>30.0</ns3:atemp>
            <ns3:hr>133</ns3:hr>
          </ns3:TrackPointExtension>
        </extensions>
      </trkpt>
      <trkpt lat="43.0548608489334583282470703125" lon="13.81374045275151729583740234375">
        <ele>191.600006103515625</ele>
        <time>2020-05-09T11:52:16.000Z</time>
        <extensions>
          <ns3:TrackPointExtension>
            <ns3:atemp>30.0</ns3:atemp>
            <ns3:hr>133</ns3:hr>
          </ns3:TrackPointExtension>
        </extensions>
      </trkpt>
      <trkpt lat="43.0548363737761974334716796875" lon="13.81367607973515987396240234375">
        <ele>190.8000030517578125</ele>
        <time>2020-05-09T11:52:18.000Z</time>
        <extensions>
          <ns3:TrackPointExtension>
            <ns3:atemp>30.0</ns3:atemp>
            <ns3:hr>136</ns3:hr>
          </ns3:TrackPointExtension>
        </extensions>
      </trkpt>
      <trkpt lat="43.054824136197566986083984375" lon="13.8136468268930912017822265625">
        <ele>190.399993896484375</ele>
        <time>2020-05-09T11:52:19.000Z</time>
        <extensions>
          <ns3:TrackPointExtension>
            <ns3:atemp>30.0</ns3:atemp>
            <ns3:hr>136</ns3:hr>
          </ns3:TrackPointExtension>
        </extensions>
      </trkpt>
      <trkpt lat="43.0547963082790374755859375" lon="13.8135519437491893768310546875">
        <ele>189.399993896484375</ele>
        <time>2020-05-09T11:52:22.000Z</time>
        <extensions>
          <ns3:TrackPointExtension>
            <ns3:atemp>30.0</ns3:atemp>
            <ns3:hr>136</ns3:hr>
          </ns3:TrackPointExtension>
        </extensions>
      </trkpt>
      <trkpt lat="43.05480628274381160736083984375" lon="13.81350927986204624176025390625">
        <ele>189</ele>
        <time>2020-05-09T11:52:23.000Z</time>
        <extensions>
          <ns3:TrackPointExtension>
            <ns3:atemp>30.0</ns3:atemp>
            <ns3:hr>133</ns3:hr>
          </ns3:TrackPointExtension>
        </extensions>
      </trkpt>
      <trkpt lat="43.05480527691543102264404296875" lon="13.81346954964101314544677734375">
        <ele>188.8000030517578125</ele>
        <time>2020-05-09T11:52:24.000Z</time>
        <extensions>
          <ns3:TrackPointExtension>
            <ns3:atemp>30.0</ns3:atemp>
            <ns3:hr>135</ns3:hr>
          </ns3:TrackPointExtension>
        </extensions>
      </trkpt>
      <trkpt lat="43.0548097193241119384765625" lon="13.8134114630520343780517578125">
        <ele>188</ele>
        <time>2020-05-09T11:52:27.000Z</time>
        <extensions>
          <ns3:TrackPointExtension>
            <ns3:atemp>30.0</ns3:atemp>
            <ns3:hr>134</ns3:hr>
          </ns3:TrackPointExtension>
        </extensions>
      </trkpt>
      <trkpt lat="43.05481097660958766937255859375" lon="13.81341054104268550872802734375">
        <ele>187.600006103515625</ele>
        <time>2020-05-09T11:52:28.000Z</time>
        <extensions>
          <ns3:TrackPointExtension>
            <ns3:atemp>30.0</ns3:atemp>
            <ns3:hr>134</ns3:hr>
          </ns3:TrackPointExtension>
        </extensions>
      </trkpt>
      <trkpt lat="43.054798655211925506591796875" lon="13.8134225271642208099365234375">
        <ele>187.1999969482421875</ele>
        <time>2020-05-09T11:52:38.000Z</time>
        <extensions>
          <ns3:TrackPointExtension>
            <ns3:atemp>30.0</ns3:atemp>
            <ns3:hr>133</ns3:hr>
          </ns3:TrackPointExtension>
        </extensions>
      </trkpt>
      <trkpt lat="43.05479706265032291412353515625" lon="13.8134225271642208099365234375">
        <ele>187</ele>
        <time>2020-05-09T11:52:40.000Z</time>
        <extensions>
          <ns3:TrackPointExtension>
            <ns3:atemp>30.0</ns3:atemp>
            <ns3:hr>133</ns3:hr>
          </ns3:TrackPointExtension>
        </extensions>
      </trkpt>
      <trkpt lat="43.05479924194514751434326171875" lon="13.813408277928829193115234375">
        <ele>187.1999969482421875</ele>
        <time>2020-05-09T11:52:48.000Z</time>
        <extensions>
          <ns3:TrackPointExtension>
            <ns3:atemp>30.0</ns3:atemp>
            <ns3:hr>133</ns3:hr>
          </ns3:TrackPointExtension>
        </extensions>
      </trkpt>
      <trkpt lat="43.054799325764179229736328125" lon="13.81340769119560718536376953125">
        <ele>186.8000030517578125</ele>
        <time>2020-05-09T11:52:53.000Z</time>
        <extensions>
          <ns3:TrackPointExtension>
            <ns3:atemp>30.0</ns3:atemp>
            <ns3:hr>132</ns3:hr>
          </ns3:TrackPointExtension>
        </extensions>
      </trkpt>
      <trkpt lat="43.0548068694770336151123046875" lon="13.81340601481497287750244140625">
        <ele>186.600006103515625</ele>
        <time>2020-05-09T11:52:59.000Z</time>
        <extensions>
          <ns3:TrackPointExtension>
            <ns3:atemp>30.0</ns3:atemp>
            <ns3:hr>126</ns3:hr>
          </ns3:TrackPointExtension>
        </extensions>
      </trkpt>
      <trkpt lat="43.0548085458576679229736328125" lon="13.813405930995941162109375">
        <ele>186.600006103515625</ele>
        <time>2020-05-09T11:53:00.000Z</time>
        <extensions>
          <ns3:TrackPointExtension>
            <ns3:atemp>30.0</ns3:atemp>
            <ns3:hr>120</ns3:hr>
          </ns3:TrackPointExtension>
        </extensions>
      </trkpt>
      <trkpt lat="43.054811395704746246337890625" lon="13.81340534426271915435791015625">
        <ele>186.8000030517578125</ele>
        <time>2020-05-09T11:53:01.000Z</time>
        <extensions>
          <ns3:TrackPointExtension>
            <ns3:atemp>30.0</ns3:atemp>
            <ns3:hr>114</ns3:hr>
          </ns3:TrackPointExtension>
        </extensions>
      </trkpt>
      <trkpt lat="43.05481198243796825408935546875" lon="13.81340551190078258514404296875">
        <ele>186.8000030517578125</ele>
        <time>2020-05-09T11:53:02.000Z</time>
        <extensions>
          <ns3:TrackPointExtension>
            <ns3:atemp>30.0</ns3:atemp>
            <ns3:hr>109</ns3:hr>
          </ns3:TrackPointExtension>
        </extensions>
      </trkpt>
      <trkpt lat="43.05481231771409511566162109375" lon="13.81340567953884601593017578125">
        <ele>186.600006103515625</ele>
        <time>2020-05-09T11:53:03.000Z</time>
        <extensions>
          <ns3:TrackPointExtension>
            <ns3:atemp>30.0</ns3:atemp>
            <ns3:hr>110</ns3:hr>
          </ns3:TrackPointExtension>
        </extensions>
      </trkpt>
      <trkpt lat="43.05480561219155788421630859375" lon="13.81339629180729389190673828125">
        <ele>186.1999969482421875</ele>
        <time>2020-05-09T11:53:09.000Z</time>
        <extensions>
          <ns3:TrackPointExtension>
            <ns3:atemp>30.0</ns3:atemp>
            <ns3:hr>111</ns3:hr>
          </ns3:TrackPointExtension>
        </extensions>
      </trkpt>
      <trkpt lat="43.05481114424765110015869140625" lon="13.81339562125504016876220703125">
        <ele>186.1999969482421875</ele>
        <time>2020-05-09T11:53:12.000Z</time>
        <extensions>
          <ns3:TrackPointExtension>
            <ns3:atemp>30.0</ns3:atemp>
            <ns3:hr>108</ns3:hr>
          </ns3:TrackPointExtension>
        </extensions>
      </trkpt>
      <trkpt lat="43.05482187308371067047119140625" lon="13.81339411251246929168701171875">
        <ele>186.8000030517578125</ele>
        <time>2020-05-09T11:53:15.000Z</time>
        <extensions>
          <ns3:TrackPointExtension>
            <ns3:atemp>30.0</ns3:atemp>
            <ns3:hr>112</ns3:hr>
          </ns3:TrackPointExtension>
        </extensions>
      </trkpt>
      <trkpt lat="43.05482706986367702484130859375" lon="13.81338992156088352203369140625">
        <ele>186.8000030517578125</ele>
        <time>2020-05-09T11:53:18.000Z</time>
        <extensions>
          <ns3:TrackPointExtension>
            <ns3:atemp>30.0</ns3:atemp>
            <ns3:hr>117</ns3:hr>
          </ns3:TrackPointExtension>
        </extensions>
      </trkpt>
      <trkpt lat="43.054827488958835601806640625" lon="13.81339008919894695281982421875">
        <ele>186.8000030517578125</ele>
        <time>2020-05-09T11:53:19.000Z</time>
        <extensions>
          <ns3:TrackPointExtension>
            <ns3:atemp>30.0</ns3:atemp>
            <ns3:hr>113</ns3:hr>
          </ns3:TrackPointExtension>
        </extensions>
      </trkpt>
      <trkpt lat="43.0548279918730258941650390625" lon="13.81339008919894695281982421875">
        <ele>186.8000030517578125</ele>
        <time>2020-05-09T11:53:20.000Z</time>
        <extensions>
          <ns3:TrackPointExtension>
            <ns3:atemp>30.0</ns3:atemp>
            <ns3:hr>116</ns3:hr>
          </ns3:TrackPointExtension>
        </extensions>
      </trkpt>
      <trkpt lat="43.05482958443462848663330078125" lon="13.81338858045637607574462890625">
        <ele>186.8000030517578125</ele>
        <time>2020-05-09T11:53:21.000Z</time>
        <extensions>
          <ns3:TrackPointExtension>
            <ns3:atemp>30.0</ns3:atemp>
            <ns3:hr>113</ns3:hr>
          </ns3:TrackPointExtension>
        </extensions>
      </trkpt>
      <trkpt lat="43.05484165437519550323486328125" lon="13.813378103077411651611328125">
        <ele>186.600006103515625</ele>
        <time>2020-05-09T11:53:29.000Z</time>
        <extensions>
          <ns3:TrackPointExtension>
            <ns3:atemp>31.0</ns3:atemp>
            <ns3:hr>109</ns3:hr>
          </ns3:TrackPointExtension>
        </extensions>
      </trkpt>
      <trkpt lat="43.05484148673713207244873046875" lon="13.8133779354393482208251953125">
        <ele>186.399993896484375</ele>
        <time>2020-05-09T11:53:30.000Z</time>
        <extensions>
          <ns3:TrackPointExtension>
            <ns3:atemp>31.0</ns3:atemp>
            <ns3:hr>103</ns3:hr>
          </ns3:TrackPointExtension>
        </extensions>
      </trkpt>
      <trkpt lat="43.05484123528003692626953125" lon="13.8133779354393482208251953125">
        <ele>186.600006103515625</ele>
        <time>2020-05-09T11:53:31.000Z</time>
        <extensions>
          <ns3:TrackPointExtension>
            <ns3:atemp>31.0</ns3:atemp>
            <ns3:hr>99</ns3:hr>
          </ns3:TrackPointExtension>
        </extensions>
      </trkpt>
      <trkpt lat="43.05484098382294178009033203125" lon="13.8133776001632213592529296875">
        <ele>186.600006103515625</ele>
        <time>2020-05-09T11:53:32.000Z</time>
        <extensions>
          <ns3:TrackPointExtension>
            <ns3:atemp>31.0</ns3:atemp>
            <ns3:hr>94</ns3:hr>
          </ns3:TrackPointExtension>
        </extensions>
      </trkpt>
      <trkpt lat="43.05484115146100521087646484375" lon="13.81337768398225307464599609375">
        <ele>186.600006103515625</ele>
        <time>2020-05-09T11:53:33.000Z</time>
        <extensions>
          <ns3:TrackPointExtension>
            <ns3:atemp>31.0</ns3:atemp>
            <ns3:hr>91</ns3:hr>
          </ns3:TrackPointExtension>
        </extensions>
      </trkpt>
      <trkpt lat="43.05482405237853527069091796875" lon="13.81338925100862979888916015625">
        <ele>186.8000030517578125</ele>
        <time>2020-05-09T11:53:39.000Z</time>
        <extensions>
          <ns3:TrackPointExtension>
            <ns3:atemp>31.0</ns3:atemp>
            <ns3:hr>90</ns3:hr>
          </ns3:TrackPointExtension>
        </extensions>
      </trkpt>
      <trkpt lat="43.0548169277608394622802734375" lon="13.813384138047695159912109375">
        <ele>186.8000030517578125</ele>
        <time>2020-05-09T11:53:40.000Z</time>
        <extensions>
          <ns3:TrackPointExtension>
            <ns3:atemp>31.0</ns3:atemp>
            <ns3:hr>90</ns3:hr>
          </ns3:TrackPointExtension>
        </extensions>
      </trkpt>
      <trkpt lat="43.05479689501225948333740234375" lon="13.81331808865070343017578125">
        <ele>186.600006103515625</ele>
        <time>2020-05-09T11:53:43.000Z</time>
        <extensions>
          <ns3:TrackPointExtension>
            <ns3:atemp>31.0</ns3:atemp>
            <ns3:hr>91</ns3:hr>
          </ns3:TrackPointExtension>
        </extensions>
      </trkpt>
      <trkpt lat="43.0547679774463176727294921875" lon="13.8131683878600597381591796875">
        <ele>186.399993896484375</ele>
        <time>2020-05-09T11:53:47.000Z</time>
        <extensions>
          <ns3:TrackPointExtension>
            <ns3:atemp>31.0</ns3:atemp>
            <ns3:hr>94</ns3:hr>
          </ns3:TrackPointExtension>
        </extensions>
      </trkpt>
      <trkpt lat="43.054759092628955841064453125" lon="13.81308465264737606048583984375">
        <ele>186</ele>
        <time>2020-05-09T11:53:49.000Z</time>
        <extensions>
          <ns3:TrackPointExtension>
            <ns3:atemp>31.0</ns3:atemp>
            <ns3:hr>98</ns3:hr>
          </ns3:TrackPointExtension>
        </extensions>
      </trkpt>
      <trkpt lat="43.05475314147770404815673828125" lon="13.81304240785539150238037109375">
        <ele>185.8000030517578125</ele>
        <time>2020-05-09T11:53:50.000Z</time>
        <extensions>
          <ns3:TrackPointExtension>
            <ns3:atemp>31.0</ns3:atemp>
            <ns3:hr>96</ns3:hr>
          </ns3:TrackPointExtension>
        </extensions>
      </trkpt>
      <trkpt lat="43.05470712482929229736328125" lon="13.81285272538661956787109375">
        <ele>185</ele>
        <time>2020-05-09T11:53:55.000Z</time>
        <extensions>
          <ns3:TrackPointExtension>
            <ns3:atemp>31.0</ns3:atemp>
            <ns3:hr>99</ns3:hr>
          </ns3:TrackPointExtension>
        </extensions>
      </trkpt>
      <trkpt lat="43.05465959943830966949462890625" lon="13.81276882253587245941162109375">
        <ele>184.399993896484375</ele>
        <time>2020-05-09T11:53:57.000Z</time>
        <extensions>
          <ns3:TrackPointExtension>
            <ns3:atemp>31.0</ns3:atemp>
            <ns3:hr>99</ns3:hr>
          </ns3:TrackPointExtension>
        </extensions>
      </trkpt>
      <trkpt lat="43.05456991307437419891357421875" lon="13.81263948976993560791015625">
        <ele>183.8000030517578125</ele>
        <time>2020-05-09T11:54:01.000Z</time>
        <extensions>
          <ns3:TrackPointExtension>
            <ns3:atemp>31.0</ns3:atemp>
            <ns3:hr>98</ns3:hr>
          </ns3:TrackPointExtension>
        </extensions>
      </trkpt>
      <trkpt lat="43.0545051209628582000732421875" lon="13.81255340762436389923095703125">
        <ele>183.1999969482421875</ele>
        <time>2020-05-09T11:54:04.000Z</time>
        <extensions>
          <ns3:TrackPointExtension>
            <ns3:atemp>31.0</ns3:atemp>
            <ns3:hr>98</ns3:hr>
          </ns3:TrackPointExtension>
        </extensions>
      </trkpt>
      <trkpt lat="43.05446413345634937286376953125" lon="13.812492303550243377685546875">
        <ele>182.8000030517578125</ele>
        <time>2020-05-09T11:54:06.000Z</time>
        <extensions>
          <ns3:TrackPointExtension>
            <ns3:atemp>31.0</ns3:atemp>
            <ns3:hr>101</ns3:hr>
          </ns3:TrackPointExtension>
        </extensions>
      </trkpt>
      <trkpt lat="43.05440562777221202850341796875" lon="13.812359534204006195068359375">
        <ele>182.1999969482421875</ele>
        <time>2020-05-09T11:54:09.000Z</time>
        <extensions>
          <ns3:TrackPointExtension>
            <ns3:atemp>31.0</ns3:atemp>
            <ns3:hr>101</ns3:hr>
          </ns3:TrackPointExtension>
        </extensions>
      </trkpt>
      <trkpt lat="43.054357431828975677490234375" lon="13.8122326321899890899658203125">
        <ele>181.399993896484375</ele>
        <time>2020-05-09T11:54:11.000Z</time>
        <extensions>
          <ns3:TrackPointExtension>
            <ns3:atemp>31.0</ns3:atemp>
            <ns3:hr>101</ns3:hr>
          </ns3:TrackPointExtension>
        </extensions>
      </trkpt>
      <trkpt lat="43.0543394945561885833740234375" lon="13.81215744651854038238525390625">
        <ele>181</ele>
        <time>2020-05-09T11:54:12.000Z</time>
        <extensions>
          <ns3:TrackPointExtension>
            <ns3:atemp>31.0</ns3:atemp>
            <ns3:hr>101</ns3:hr>
          </ns3:TrackPointExtension>
        </extensions>
      </trkpt>
      <trkpt lat="43.05429917760193347930908203125" lon="13.811946809291839599609375">
        <ele>180.399993896484375</ele>
        <time>2020-05-09T11:54:15.000Z</time>
        <extensions>
          <ns3:TrackPointExtension>
            <ns3:atemp>31.0</ns3:atemp>
            <ns3:hr>101</ns3:hr>
          </ns3:TrackPointExtension>
        </extensions>
      </trkpt>
      <trkpt lat="43.05428844876587390899658203125" lon="13.81181999109685420989990234375">
        <ele>180.399993896484375</ele>
        <time>2020-05-09T11:54:17.000Z</time>
        <extensions>
          <ns3:TrackPointExtension>
            <ns3:atemp>31.0</ns3:atemp>
            <ns3:hr>104</ns3:hr>
          </ns3:TrackPointExtension>
        </extensions>
      </trkpt>
      <trkpt lat="43.05428040213882923126220703125" lon="13.81169929169118404388427734375">
        <ele>180.399993896484375</ele>
        <time>2020-05-09T11:54:19.000Z</time>
        <extensions>
          <ns3:TrackPointExtension>
            <ns3:atemp>31.0</ns3:atemp>
            <ns3:hr>107</ns3:hr>
          </ns3:TrackPointExtension>
        </extensions>
      </trkpt>
      <trkpt lat="43.05428006686270236968994140625" lon="13.81165243685245513916015625">
        <ele>180.399993896484375</ele>
        <time>2020-05-09T11:54:20.000Z</time>
        <extensions>
          <ns3:TrackPointExtension>
            <ns3:atemp>31.0</ns3:atemp>
            <ns3:hr>107</ns3:hr>
          </ns3:TrackPointExtension>
        </extensions>
      </trkpt>
      <trkpt lat="43.05428727529942989349365234375" lon="13.81160139106214046478271484375">
        <ele>180.600006103515625</ele>
        <time>2020-05-09T11:54:23.000Z</time>
        <extensions>
          <ns3:TrackPointExtension>
            <ns3:atemp>31.0</ns3:atemp>
            <ns3:hr>109</ns3:hr>
          </ns3:TrackPointExtension>
        </extensions>
      </trkpt>
      <trkpt lat="43.0542972497642040252685546875" lon="13.81166341714560985565185546875">
        <ele>180.600006103515625</ele>
        <time>2020-05-09T11:54:29.000Z</time>
        <extensions>
          <ns3:TrackPointExtension>
            <ns3:atemp>31.0</ns3:atemp>
            <ns3:hr>108</ns3:hr>
          </ns3:TrackPointExtension>
        </extensions>
      </trkpt>
      <trkpt lat="43.05430353619158267974853515625" lon="13.81184815429151058197021484375">
        <ele>181</ele>
        <time>2020-05-09T11:54:34.000Z</time>
        <extensions>
          <ns3:TrackPointExtension>
            <ns3:atemp>31.0</ns3:atemp>
            <ns3:hr>108</ns3:hr>
          </ns3:TrackPointExtension>
        </extensions>
      </trkpt>
      <trkpt lat="43.05431284010410308837890625" lon="13.81188084371387958526611328125">
        <ele>181</ele>
        <time>2020-05-09T11:54:35.000Z</time>
        <extensions>
          <ns3:TrackPointExtension>
            <ns3:atemp>31.0</ns3:atemp>
            <ns3:hr>108</ns3:hr>
          </ns3:TrackPointExtension>
        </extensions>
      </trkpt>
      <trkpt lat="43.05434443987905979156494140625" lon="13.81196399219334125518798828125">
        <ele>181</ele>
        <time>2020-05-09T11:54:38.000Z</time>
        <extensions>
          <ns3:TrackPointExtension>
            <ns3:atemp>31.0</ns3:atemp>
            <ns3:hr>108</ns3:hr>
          </ns3:TrackPointExtension>
        </extensions>
      </trkpt>
      <trkpt lat="43.0544015206396579742431640625" lon="13.81213380955159664154052734375">
        <ele>180.8000030517578125</ele>
        <time>2020-05-09T11:54:44.000Z</time>
        <extensions>
          <ns3:TrackPointExtension>
            <ns3:atemp>31.0</ns3:atemp>
            <ns3:hr>108</ns3:hr>
          </ns3:TrackPointExtension>
        </extensions>
      </trkpt>
      <trkpt lat="43.05442088283598423004150390625" lon="13.8121900521218776702880859375">
        <ele>180.8000030517578125</ele>
        <time>2020-05-09T11:54:48.000Z</time>
        <extensions>
          <ns3:TrackPointExtension>
            <ns3:atemp>31.0</ns3:atemp>
            <ns3:hr>104</ns3:hr>
          </ns3:TrackPointExtension>
        </extensions>
      </trkpt>
      <trkpt lat="43.05441065691411495208740234375" lon="13.81219114176928997039794921875">
        <ele>181</ele>
        <time>2020-05-09T11:54:49.000Z</time>
        <extensions>
          <ns3:TrackPointExtension>
            <ns3:atemp>31.0</ns3:atemp>
            <ns3:hr>104</ns3:hr>
          </ns3:TrackPointExtension>
        </extensions>
      </trkpt>
      <trkpt lat="43.05439238436520099639892578125" lon="13.8121707737445831298828125">
        <ele>181.1999969482421875</ele>
        <time>2020-05-09T11:54:52.000Z</time>
        <extensions>
          <ns3:TrackPointExtension>
            <ns3:atemp>31.0</ns3:atemp>
            <ns3:hr>106</ns3:hr>
          </ns3:TrackPointExtension>
        </extensions>
      </trkpt>
      <trkpt lat="43.0543904565274715423583984375" lon="13.81213246844708919525146484375">
        <ele>181</ele>
        <time>2020-05-09T11:54:54.000Z</time>
        <extensions>
          <ns3:TrackPointExtension>
            <ns3:atemp>31.0</ns3:atemp>
            <ns3:hr>109</ns3:hr>
          </ns3:TrackPointExtension>
        </extensions>
      </trkpt>
      <trkpt lat="43.05438299663364887237548828125" lon="13.81207630969583988189697265625">
        <ele>181</ele>
        <time>2020-05-09T11:54:56.000Z</time>
        <extensions>
          <ns3:TrackPointExtension>
            <ns3:atemp>31.0</ns3:atemp>
            <ns3:hr>110</ns3:hr>
          </ns3:TrackPointExtension>
        </extensions>
      </trkpt>
      <trkpt lat="43.0543743632733821868896484375" lon="13.81204596720635890960693359375">
        <ele>181</ele>
        <time>2020-05-09T11:54:57.000Z</time>
        <extensions>
          <ns3:TrackPointExtension>
            <ns3:atemp>31.0</ns3:atemp>
            <ns3:hr>111</ns3:hr>
          </ns3:TrackPointExtension>
        </extensions>
      </trkpt>
      <trkpt lat="43.0543495528399944305419921875" lon="13.81187899969518184661865234375">
        <ele>181.399993896484375</ele>
        <time>2020-05-09T11:55:02.000Z</time>
        <extensions>
          <ns3:TrackPointExtension>
            <ns3:atemp>31.0</ns3:atemp>
            <ns3:hr>112</ns3:hr>
          </ns3:TrackPointExtension>
        </extensions>
      </trkpt>
      <trkpt lat="43.05434695445001125335693359375" lon="13.81183038465678691864013671875">
        <ele>181.600006103515625</ele>
        <time>2020-05-09T11:55:04.000Z</time>
        <extensions>
          <ns3:TrackPointExtension>
            <ns3:atemp>31.0</ns3:atemp>
            <ns3:hr>112</ns3:hr>
          </ns3:TrackPointExtension>
        </extensions>
      </trkpt>
      <trkpt lat="43.05434477515518665313720703125" lon="13.8118235953152179718017578125">
        <ele>181.600006103515625</ele>
        <time>2020-05-09T11:55:06.000Z</time>
        <extensions>
          <ns3:TrackPointExtension>
            <ns3:atemp>31.0</ns3:atemp>
            <ns3:hr>113</ns3:hr>
          </ns3:TrackPointExtension>
        </extensions>
      </trkpt>
      <trkpt lat="43.05431778542697429656982421875" lon="13.8118420355021953582763671875">
        <ele>181.1999969482421875</ele>
        <time>2020-05-09T11:55:13.000Z</time>
        <extensions>
          <ns3:TrackPointExtension>
            <ns3:atemp>31.0</ns3:atemp>
            <ns3:hr>113</ns3:hr>
          </ns3:TrackPointExtension>
        </extensions>
      </trkpt>
      <trkpt lat="43.0543156899511814117431640625" lon="13.81184597499668598175048828125">
        <ele>180.8000030517578125</ele>
        <time>2020-05-09T11:55:19.000Z</time>
        <extensions>
          <ns3:TrackPointExtension>
            <ns3:atemp>31.0</ns3:atemp>
            <ns3:hr>116</ns3:hr>
          </ns3:TrackPointExtension>
        </extensions>
      </trkpt>
      <trkpt lat="43.054315857589244842529296875" lon="13.81184496916830539703369140625">
        <ele>180.8000030517578125</ele>
        <time>2020-05-09T11:55:22.000Z</time>
        <extensions>
          <ns3:TrackPointExtension>
            <ns3:atemp>31.0</ns3:atemp>
            <ns3:hr>119</ns3:hr>
          </ns3:TrackPointExtension>
        </extensions>
      </trkpt>
      <trkpt lat="43.05431728251278400421142578125" lon="13.81184480153024196624755859375">
        <ele>180.8000030517578125</ele>
        <time>2020-05-09T11:55:23.000Z</time>
        <extensions>
          <ns3:TrackPointExtension>
            <ns3:atemp>31.0</ns3:atemp>
            <ns3:hr>119</ns3:hr>
          </ns3:TrackPointExtension>
        </extensions>
      </trkpt>
      <trkpt lat="43.0543166957795619964599609375" lon="13.81185184232890605926513671875">
        <ele>181</ele>
        <time>2020-05-09T11:55:25.000Z</time>
        <extensions>
          <ns3:TrackPointExtension>
            <ns3:atemp>31.0</ns3:atemp>
            <ns3:hr>120</ns3:hr>
          </ns3:TrackPointExtension>
        </extensions>
      </trkpt>
      <trkpt lat="43.05431342683732509613037109375" lon="13.8118453882634639739990234375">
        <ele>181.1999969482421875</ele>
        <time>2020-05-09T11:55:28.000Z</time>
        <extensions>
          <ns3:TrackPointExtension>
            <ns3:atemp>31.0</ns3:atemp>
            <ns3:hr>120</ns3:hr>
          </ns3:TrackPointExtension>
        </extensions>
      </trkpt>
      <trkpt lat="43.05430755950510501861572265625" lon="13.811811022460460662841796875">
        <ele>181.1999969482421875</ele>
        <time>2020-05-09T11:55:30.000Z</time>
        <extensions>
          <ns3:TrackPointExtension>
            <ns3:atemp>31.0</ns3:atemp>
            <ns3:hr>120</ns3:hr>
          </ns3:TrackPointExtension>
        </extensions>
      </trkpt>
      <trkpt lat="43.05430286563932895660400390625" lon="13.81171136163175106048583984375">
        <ele>181.8000030517578125</ele>
        <time>2020-05-09T11:55:34.000Z</time>
        <extensions>
          <ns3:TrackPointExtension>
            <ns3:atemp>31.0</ns3:atemp>
            <ns3:hr>123</ns3:hr>
          </ns3:TrackPointExtension>
        </extensions>
      </trkpt>
      <trkpt lat="43.05430655367672443389892578125" lon="13.81168822757899761199951171875">
        <ele>181.8000030517578125</ele>
        <time>2020-05-09T11:55:35.000Z</time>
        <extensions>
          <ns3:TrackPointExtension>
            <ns3:atemp>31.0</ns3:atemp>
            <ns3:hr>128</ns3:hr>
          </ns3:TrackPointExtension>
        </extensions>
      </trkpt>
      <trkpt lat="43.0543116666376590728759765625" lon="13.81167045794427394866943359375">
        <ele>181.8000030517578125</ele>
        <time>2020-05-09T11:55:36.000Z</time>
        <extensions>
          <ns3:TrackPointExtension>
            <ns3:atemp>31.0</ns3:atemp>
            <ns3:hr>128</ns3:hr>
          </ns3:TrackPointExtension>
        </extensions>
      </trkpt>
      <trkpt lat="43.05431677959859371185302734375" lon="13.81161865778267383575439453125">
        <ele>181.1999969482421875</ele>
        <time>2020-05-09T11:55:40.000Z</time>
        <extensions>
          <ns3:TrackPointExtension>
            <ns3:atemp>31.0</ns3:atemp>
            <ns3:hr>131</ns3:hr>
          </ns3:TrackPointExtension>
        </extensions>
      </trkpt>
      <trkpt lat="43.054311834275722503662109375" lon="13.8115590624511241912841796875">
        <ele>181</ele>
        <time>2020-05-09T11:55:44.000Z</time>
        <extensions>
          <ns3:TrackPointExtension>
            <ns3:atemp>31.0</ns3:atemp>
            <ns3:hr>130</ns3:hr>
          </ns3:TrackPointExtension>
        </extensions>
      </trkpt>
      <trkpt lat="43.054309152066707611083984375" lon="13.8114611618220806121826171875">
        <ele>181.1999969482421875</ele>
        <time>2020-05-09T11:55:48.000Z</time>
        <extensions>
          <ns3:TrackPointExtension>
            <ns3:atemp>31.0</ns3:atemp>
            <ns3:hr>127</ns3:hr>
          </ns3:TrackPointExtension>
        </extensions>
      </trkpt>
      <trkpt lat="43.0543046258389949798583984375" lon="13.81140978075563907623291015625">
        <ele>181.399993896484375</ele>
        <time>2020-05-09T11:55:50.000Z</time>
        <extensions>
          <ns3:TrackPointExtension>
            <ns3:atemp>31.0</ns3:atemp>
            <ns3:hr>122</ns3:hr>
          </ns3:TrackPointExtension>
        </extensions>
      </trkpt>
      <trkpt lat="43.05430102162063121795654296875" lon="13.81137960590422153472900390625">
        <ele>181.600006103515625</ele>
        <time>2020-05-09T11:55:51.000Z</time>
        <extensions>
          <ns3:TrackPointExtension>
            <ns3:atemp>31.0</ns3:atemp>
            <ns3:hr>118</ns3:hr>
          </ns3:TrackPointExtension>
        </extensions>
      </trkpt>
      <trkpt lat="43.05430102162063121795654296875" lon="13.81134406663477420806884765625">
        <ele>181.600006103515625</ele>
        <time>2020-05-09T11:55:52.000Z</time>
        <extensions>
          <ns3:TrackPointExtension>
            <ns3:atemp>32.0</ns3:atemp>
            <ns3:hr>113</ns3:hr>
          </ns3:TrackPointExtension>
        </extensions>
      </trkpt>
      <trkpt lat="43.05430345237255096435546875" lon="13.811271227896213531494140625">
        <ele>181.600006103515625</ele>
        <time>2020-05-09T11:55:54.000Z</time>
        <extensions>
          <ns3:TrackPointExtension>
            <ns3:atemp>32.0</ns3:atemp>
            <ns3:hr>109</ns3:hr>
          </ns3:TrackPointExtension>
        </extensions>
      </trkpt>
      <trkpt lat="43.0543083138763904571533203125" lon="13.81118514575064182281494140625">
        <ele>181.600006103515625</ele>
        <time>2020-05-09T11:55:57.000Z</time>
        <extensions>
          <ns3:TrackPointExtension>
            <ns3:atemp>32.0</ns3:atemp>
            <ns3:hr>106</ns3:hr>
          </ns3:TrackPointExtension>
        </extensions>
      </trkpt>
      <trkpt lat="43.05431208573281764984130859375" lon="13.81115891039371490478515625">
        <ele>181.600006103515625</ele>
        <time>2020-05-09T11:55:58.000Z</time>
        <extensions>
          <ns3:TrackPointExtension>
            <ns3:atemp>32.0</ns3:atemp>
            <ns3:hr>106</ns3:hr>
          </ns3:TrackPointExtension>
        </extensions>
      </trkpt>
      <trkpt lat="43.05430621840059757232666015625" lon="13.8109810464084148406982421875">
        <ele>182.1999969482421875</ele>
        <time>2020-05-09T11:56:03.000Z</time>
        <extensions>
          <ns3:TrackPointExtension>
            <ns3:atemp>32.0</ns3:atemp>
            <ns3:hr>105</ns3:hr>
          </ns3:TrackPointExtension>
        </extensions>
      </trkpt>
      <trkpt lat="43.0543032847344875335693359375" lon="13.8109411485493183135986328125">
        <ele>182.1999969482421875</ele>
        <time>2020-05-09T11:56:04.000Z</time>
        <extensions>
          <ns3:TrackPointExtension>
            <ns3:atemp>32.0</ns3:atemp>
            <ns3:hr>105</ns3:hr>
          </ns3:TrackPointExtension>
        </extensions>
      </trkpt>
      <trkpt lat="43.05428735911846160888671875" lon="13.81060863845050334930419921875">
        <ele>181.600006103515625</ele>
        <time>2020-05-09T11:56:12.000Z</time>
        <extensions>
          <ns3:TrackPointExtension>
            <ns3:atemp>32.0</ns3:atemp>
            <ns3:hr>106</ns3:hr>
          </ns3:TrackPointExtension>
        </extensions>
      </trkpt>
      <trkpt lat="43.054245449602603912353515625" lon="13.81048425100743770599365234375">
        <ele>181</ele>
        <time>2020-05-09T11:56:15.000Z</time>
        <extensions>
          <ns3:TrackPointExtension>
            <ns3:atemp>32.0</ns3:atemp>
            <ns3:hr>106</ns3:hr>
          </ns3:TrackPointExtension>
        </extensions>
      </trkpt>
      <trkpt lat="43.05417696945369243621826171875" lon="13.81027017720043659210205078125">
        <ele>179.600006103515625</ele>
        <time>2020-05-09T11:56:19.000Z</time>
        <extensions>
          <ns3:TrackPointExtension>
            <ns3:atemp>32.0</ns3:atemp>
            <ns3:hr>105</ns3:hr>
          </ns3:TrackPointExtension>
        </extensions>
      </trkpt>
      <trkpt lat="43.05415299721062183380126953125" lon="13.81015551276504993438720703125">
        <ele>178</ele>
        <time>2020-05-09T11:56:21.000Z</time>
        <extensions>
          <ns3:TrackPointExtension>
            <ns3:atemp>32.0</ns3:atemp>
            <ns3:hr>105</ns3:hr>
          </ns3:TrackPointExtension>
        </extensions>
      </trkpt>
      <trkpt lat="43.05412399582564830780029296875" lon="13.8099849410355091094970703125">
        <ele>176.399993896484375</ele>
        <time>2020-05-09T11:56:24.000Z</time>
        <extensions>
          <ns3:TrackPointExtension>
            <ns3:atemp>32.0</ns3:atemp>
            <ns3:hr>109</ns3:hr>
          </ns3:TrackPointExtension>
        </extensions>
      </trkpt>
      <trkpt lat="43.054114691913127899169921875" lon="13.80986952222883701324462890625">
        <ele>175.399993896484375</ele>
        <time>2020-05-09T11:56:26.000Z</time>
        <extensions>
          <ns3:TrackPointExtension>
            <ns3:atemp>32.0</ns3:atemp>
            <ns3:hr>112</ns3:hr>
          </ns3:TrackPointExtension>
        </extensions>
      </trkpt>
      <trkpt lat="43.05412248708307743072509765625" lon="13.80975955165922641754150390625">
        <ele>174.399993896484375</ele>
        <time>2020-05-09T11:56:28.000Z</time>
        <extensions>
          <ns3:TrackPointExtension>
            <ns3:atemp>32.0</ns3:atemp>
            <ns3:hr>112</ns3:hr>
          </ns3:TrackPointExtension>
        </extensions>
      </trkpt>
      <trkpt lat="43.05414193309843540191650390625" lon="13.809647150337696075439453125">
        <ele>173.1999969482421875</ele>
        <time>2020-05-09T11:56:30.000Z</time>
        <extensions>
          <ns3:TrackPointExtension>
            <ns3:atemp>32.0</ns3:atemp>
            <ns3:hr>113</ns3:hr>
          </ns3:TrackPointExtension>
        </extensions>
      </trkpt>
      <trkpt lat="43.05415500886738300323486328125" lon="13.80958001129329204559326171875">
        <ele>172</ele>
        <time>2020-05-09T11:56:31.000Z</time>
        <extensions>
          <ns3:TrackPointExtension>
            <ns3:atemp>32.0</ns3:atemp>
            <ns3:hr>114</ns3:hr>
          </ns3:TrackPointExtension>
        </extensions>
      </trkpt>
      <trkpt lat="43.0541728623211383819580078125" lon="13.8095071725547313690185546875">
        <ele>170.8000030517578125</ele>
        <time>2020-05-09T11:56:32.000Z</time>
        <extensions>
          <ns3:TrackPointExtension>
            <ns3:atemp>32.0</ns3:atemp>
            <ns3:hr>114</ns3:hr>
          </ns3:TrackPointExtension>
        </extensions>
      </trkpt>
      <trkpt lat="43.05421150289475917816162109375" lon="13.809346742928028106689453125">
        <ele>168.8000030517578125</ele>
        <time>2020-05-09T11:56:34.000Z</time>
        <extensions>
          <ns3:TrackPointExtension>
            <ns3:atemp>32.0</ns3:atemp>
            <ns3:hr>117</ns3:hr>
          </ns3:TrackPointExtension>
        </extensions>
      </trkpt>
      <trkpt lat="43.05422675795853137969970703125" lon="13.809268958866596221923828125">
        <ele>167.399993896484375</ele>
        <time>2020-05-09T11:56:35.000Z</time>
        <extensions>
          <ns3:TrackPointExtension>
            <ns3:atemp>32.0</ns3:atemp>
            <ns3:hr>119</ns3:hr>
          </ns3:TrackPointExtension>
        </extensions>
      </trkpt>
      <trkpt lat="43.05423564277589321136474609375" lon="13.80919343791902065277099609375">
        <ele>166</ele>
        <time>2020-05-09T11:56:36.000Z</time>
        <extensions>
          <ns3:TrackPointExtension>
            <ns3:atemp>32.0</ns3:atemp>
            <ns3:hr>120</ns3:hr>
          </ns3:TrackPointExtension>
        </extensions>
      </trkpt>
      <trkpt lat="43.054236061871051788330078125" lon="13.80912990309298038482666015625">
        <ele>164.600006103515625</ele>
        <time>2020-05-09T11:56:37.000Z</time>
        <extensions>
          <ns3:TrackPointExtension>
            <ns3:atemp>32.0</ns3:atemp>
            <ns3:hr>121</ns3:hr>
          </ns3:TrackPointExtension>
        </extensions>
      </trkpt>
      <trkpt lat="43.05423103272914886474609375" lon="13.809067793190479278564453125">
        <ele>163.399993896484375</ele>
        <time>2020-05-09T11:56:38.000Z</time>
        <extensions>
          <ns3:TrackPointExtension>
            <ns3:atemp>32.0</ns3:atemp>
            <ns3:hr>122</ns3:hr>
          </ns3:TrackPointExtension>
        </extensions>
      </trkpt>
      <trkpt lat="43.0542142689228057861328125" lon="13.8089197687804698944091796875">
        <ele>161.8000030517578125</ele>
        <time>2020-05-09T11:56:40.000Z</time>
        <extensions>
          <ns3:TrackPointExtension>
            <ns3:atemp>31.0</ns3:atemp>
            <ns3:hr>120</ns3:hr>
          </ns3:TrackPointExtension>
        </extensions>
      </trkpt>
      <trkpt lat="43.054200522601604461669921875" lon="13.808767385780811309814453125">
        <ele>159.8000030517578125</ele>
        <time>2020-05-09T11:56:42.000Z</time>
        <extensions>
          <ns3:TrackPointExtension>
            <ns3:atemp>31.0</ns3:atemp>
            <ns3:hr>122</ns3:hr>
          </ns3:TrackPointExtension>
        </extensions>
      </trkpt>
      <trkpt lat="43.05419071577489376068115234375" lon="13.8086297549307346343994140625">
        <ele>157.8000030517578125</ele>
        <time>2020-05-09T11:56:44.000Z</time>
        <extensions>
          <ns3:TrackPointExtension>
            <ns3:atemp>31.0</ns3:atemp>
            <ns3:hr>122</ns3:hr>
          </ns3:TrackPointExtension>
        </extensions>
      </trkpt>
      <trkpt lat="43.05418434552848339080810546875" lon="13.80857803858816623687744140625">
        <ele>156.600006103515625</ele>
        <time>2020-05-09T11:56:45.000Z</time>
        <extensions>
          <ns3:TrackPointExtension>
            <ns3:atemp>31.0</ns3:atemp>
            <ns3:hr>123</ns3:hr>
          </ns3:TrackPointExtension>
        </extensions>
      </trkpt>
      <trkpt lat="43.05417629890143871307373046875" lon="13.80852087400853633880615234375">
        <ele>155.399993896484375</ele>
        <time>2020-05-09T11:56:47.000Z</time>
        <extensions>
          <ns3:TrackPointExtension>
            <ns3:atemp>31.0</ns3:atemp>
            <ns3:hr>121</ns3:hr>
          </ns3:TrackPointExtension>
        </extensions>
      </trkpt>
      <trkpt lat="43.05417931638658046722412109375" lon="13.808485083281993865966796875">
        <ele>154.8000030517578125</ele>
        <time>2020-05-09T11:56:49.000Z</time>
        <extensions>
          <ns3:TrackPointExtension>
            <ns3:atemp>31.0</ns3:atemp>
            <ns3:hr>122</ns3:hr>
          </ns3:TrackPointExtension>
        </extensions>
      </trkpt>
      <trkpt lat="43.05421384982764720916748046875" lon="13.80832524038851261138916015625">
        <ele>154.1999969482421875</ele>
        <time>2020-05-09T11:56:54.000Z</time>
        <extensions>
          <ns3:TrackPointExtension>
            <ns3:atemp>31.0</ns3:atemp>
            <ns3:hr>122</ns3:hr>
          </ns3:TrackPointExtension>
        </extensions>
      </trkpt>
      <trkpt lat="43.05423765443265438079833984375" lon="13.80823002196848392486572265625">
        <ele>153</ele>
        <time>2020-05-09T11:56:56.000Z</time>
        <extensions>
          <ns3:TrackPointExtension>
            <ns3:atemp>31.0</ns3:atemp>
            <ns3:hr>121</ns3:hr>
          </ns3:TrackPointExtension>
        </extensions>
      </trkpt>
      <trkpt lat="43.054261542856693267822265625" lon="13.80810647271573543548583984375">
        <ele>152</ele>
        <time>2020-05-09T11:56:58.000Z</time>
        <extensions>
          <ns3:TrackPointExtension>
            <ns3:atemp>31.0</ns3:atemp>
            <ns3:hr>122</ns3:hr>
          </ns3:TrackPointExtension>
        </extensions>
      </trkpt>
      <trkpt lat="43.05427302606403827667236328125" lon="13.8080396689474582672119140625">
        <ele>151.399993896484375</ele>
        <time>2020-05-09T11:56:59.000Z</time>
        <extensions>
          <ns3:TrackPointExtension>
            <ns3:atemp>31.0</ns3:atemp>
            <ns3:hr>120</ns3:hr>
          </ns3:TrackPointExtension>
        </extensions>
      </trkpt>
      <trkpt lat="43.05427872575819492340087890625" lon="13.8079665787518024444580078125">
        <ele>150.8000030517578125</ele>
        <time>2020-05-09T11:57:00.000Z</time>
        <extensions>
          <ns3:TrackPointExtension>
            <ns3:atemp>31.0</ns3:atemp>
            <ns3:hr>119</ns3:hr>
          </ns3:TrackPointExtension>
        </extensions>
      </trkpt>
      <trkpt lat="43.05427386425435543060302734375" lon="13.80781830288469791412353515625">
        <ele>149.600006103515625</ele>
        <time>2020-05-09T11:57:02.000Z</time>
        <extensions>
          <ns3:TrackPointExtension>
            <ns3:atemp>31.0</ns3:atemp>
            <ns3:hr>120</ns3:hr>
          </ns3:TrackPointExtension>
        </extensions>
      </trkpt>
      <trkpt lat="43.0542607046663761138916015625" lon="13.80774420686066150665283203125">
        <ele>148.8000030517578125</ele>
        <time>2020-05-09T11:57:03.000Z</time>
        <extensions>
          <ns3:TrackPointExtension>
            <ns3:atemp>31.0</ns3:atemp>
            <ns3:hr>120</ns3:hr>
          </ns3:TrackPointExtension>
        </extensions>
      </trkpt>
      <trkpt lat="43.054231703281402587890625" lon="13.8076611422002315521240234375">
        <ele>148.1999969482421875</ele>
        <time>2020-05-09T11:57:04.000Z</time>
        <extensions>
          <ns3:TrackPointExtension>
            <ns3:atemp>31.0</ns3:atemp>
            <ns3:hr>121</ns3:hr>
          </ns3:TrackPointExtension>
        </extensions>
      </trkpt>
      <trkpt lat="43.05415316484868526458740234375" lon="13.80753834731876850128173828125">
        <ele>146.600006103515625</ele>
        <time>2020-05-09T11:57:06.000Z</time>
        <extensions>
          <ns3:TrackPointExtension>
            <ns3:atemp>31.0</ns3:atemp>
            <ns3:hr>121</ns3:hr>
          </ns3:TrackPointExtension>
        </extensions>
      </trkpt>
      <trkpt lat="43.053968511521816253662109375" lon="13.807389736175537109375">
        <ele>146.1999969482421875</ele>
        <time>2020-05-09T11:57:10.000Z</time>
        <extensions>
          <ns3:TrackPointExtension>
            <ns3:atemp>31.0</ns3:atemp>
            <ns3:hr>119</ns3:hr>
          </ns3:TrackPointExtension>
        </extensions>
      </trkpt>
      <trkpt lat="43.05381637997925281524658203125" lon="13.807270713150501251220703125">
        <ele>147.600006103515625</ele>
        <time>2020-05-09T11:57:14.000Z</time>
        <extensions>
          <ns3:TrackPointExtension>
            <ns3:atemp>31.0</ns3:atemp>
            <ns3:hr>118</ns3:hr>
          </ns3:TrackPointExtension>
        </extensions>
      </trkpt>
      <trkpt lat="43.05378369055688381195068359375" lon="13.807241208851337432861328125">
        <ele>147.8000030517578125</ele>
        <time>2020-05-09T11:57:15.000Z</time>
        <extensions>
          <ns3:TrackPointExtension>
            <ns3:atemp>31.0</ns3:atemp>
            <ns3:hr>118</ns3:hr>
          </ns3:TrackPointExtension>
        </extensions>
      </trkpt>
      <trkpt lat="43.05368109606206417083740234375" lon="13.80715294741094112396240234375">
        <ele>148.8000030517578125</ele>
        <time>2020-05-09T11:57:18.000Z</time>
        <extensions>
          <ns3:TrackPointExtension>
            <ns3:atemp>31.0</ns3:atemp>
            <ns3:hr>120</ns3:hr>
          </ns3:TrackPointExtension>
        </extensions>
      </trkpt>
      <trkpt lat="43.053599037230014801025390625" lon="13.80706527270376682281494140625">
        <ele>149.8000030517578125</ele>
        <time>2020-05-09T11:57:21.000Z</time>
        <extensions>
          <ns3:TrackPointExtension>
            <ns3:atemp>31.0</ns3:atemp>
            <ns3:hr>118</ns3:hr>
          </ns3:TrackPointExtension>
        </extensions>
      </trkpt>
      <trkpt lat="43.0535757355391979217529296875" lon="13.807034678757190704345703125">
        <ele>150.1999969482421875</ele>
        <time>2020-05-09T11:57:22.000Z</time>
        <extensions>
          <ns3:TrackPointExtension>
            <ns3:atemp>31.0</ns3:atemp>
            <ns3:hr>119</ns3:hr>
          </ns3:TrackPointExtension>
        </extensions>
      </trkpt>
      <trkpt lat="43.05353634059429168701171875" lon="13.806968629360198974609375">
        <ele>151</ele>
        <time>2020-05-09T11:57:24.000Z</time>
        <extensions>
          <ns3:TrackPointExtension>
            <ns3:atemp>31.0</ns3:atemp>
            <ns3:hr>117</ns3:hr>
          </ns3:TrackPointExtension>
        </extensions>
      </trkpt>
      <trkpt lat="43.0534945987164974212646484375" lon="13.80690157413482666015625">
        <ele>151.1999969482421875</ele>
        <time>2020-05-09T11:57:26.000Z</time>
        <extensions>
          <ns3:TrackPointExtension>
            <ns3:atemp>31.0</ns3:atemp>
            <ns3:hr>112</ns3:hr>
          </ns3:TrackPointExtension>
        </extensions>
      </trkpt>
      <trkpt lat="43.05347464978694915771484375" lon="13.80686729215085506439208984375">
        <ele>151.399993896484375</ele>
        <time>2020-05-09T11:57:27.000Z</time>
        <extensions>
          <ns3:TrackPointExtension>
            <ns3:atemp>31.0</ns3:atemp>
            <ns3:hr>115</ns3:hr>
          </ns3:TrackPointExtension>
        </extensions>
      </trkpt>
      <trkpt lat="43.05342427454888820648193359375" lon="13.8067661225795745849609375">
        <ele>152</ele>
        <time>2020-05-09T11:57:30.000Z</time>
        <extensions>
          <ns3:TrackPointExtension>
            <ns3:atemp>31.0</ns3:atemp>
            <ns3:hr>114</ns3:hr>
          </ns3:TrackPointExtension>
        </extensions>
      </trkpt>
      <trkpt lat="43.05338680744171142578125" lon="13.80669311620295047760009765625">
        <ele>152.1999969482421875</ele>
        <time>2020-05-09T11:57:32.000Z</time>
        <extensions>
          <ns3:TrackPointExtension>
            <ns3:atemp>31.0</ns3:atemp>
            <ns3:hr>118</ns3:hr>
          </ns3:TrackPointExtension>
        </extensions>
      </trkpt>
      <trkpt lat="43.05326350964605808258056640625" lon="13.80649127997457981109619140625">
        <ele>153.1999969482421875</ele>
        <time>2020-05-09T11:57:38.000Z</time>
        <extensions>
          <ns3:TrackPointExtension>
            <ns3:atemp>31.0</ns3:atemp>
            <ns3:hr>120</ns3:hr>
          </ns3:TrackPointExtension>
        </extensions>
      </trkpt>
      <trkpt lat="43.053218163549900054931640625" lon="13.80641986615955829620361328125">
        <ele>153.399993896484375</ele>
        <time>2020-05-09T11:57:40.000Z</time>
        <extensions>
          <ns3:TrackPointExtension>
            <ns3:atemp>31.0</ns3:atemp>
            <ns3:hr>119</ns3:hr>
          </ns3:TrackPointExtension>
        </extensions>
      </trkpt>
      <trkpt lat="43.05315052159130573272705078125" lon="13.80631526000797748565673828125">
        <ele>153.399993896484375</ele>
        <time>2020-05-09T11:57:43.000Z</time>
        <extensions>
          <ns3:TrackPointExtension>
            <ns3:atemp>31.0</ns3:atemp>
            <ns3:hr>122</ns3:hr>
          </ns3:TrackPointExtension>
        </extensions>
      </trkpt>
      <trkpt lat="43.053059242665767669677734375" lon="13.806176371872425079345703125">
        <ele>153.600006103515625</ele>
        <time>2020-05-09T11:57:47.000Z</time>
        <extensions>
          <ns3:TrackPointExtension>
            <ns3:atemp>31.0</ns3:atemp>
            <ns3:hr>125</ns3:hr>
          </ns3:TrackPointExtension>
        </extensions>
      </trkpt>
      <trkpt lat="43.053032420575618743896484375" lon="13.806150220334529876708984375">
        <ele>153.8000030517578125</ele>
        <time>2020-05-09T11:57:48.000Z</time>
        <extensions>
          <ns3:TrackPointExtension>
            <ns3:atemp>31.0</ns3:atemp>
            <ns3:hr>126</ns3:hr>
          </ns3:TrackPointExtension>
        </extensions>
      </trkpt>
      <trkpt lat="43.0529812909662723541259765625" lon="13.80609313957393169403076171875">
        <ele>154.1999969482421875</ele>
        <time>2020-05-09T11:57:50.000Z</time>
        <extensions>
          <ns3:TrackPointExtension>
            <ns3:atemp>31.0</ns3:atemp>
            <ns3:hr>124</ns3:hr>
          </ns3:TrackPointExtension>
        </extensions>
      </trkpt>
      <trkpt lat="43.0528377927839756011962890625" lon="13.80591829307377338409423828125">
        <ele>154</ele>
        <time>2020-05-09T11:57:56.000Z</time>
        <extensions>
          <ns3:TrackPointExtension>
            <ns3:atemp>31.0</ns3:atemp>
            <ns3:hr>123</ns3:hr>
          </ns3:TrackPointExtension>
        </extensions>
      </trkpt>
      <trkpt lat="43.05272622965276241302490234375" lon="13.8058151118457317352294921875">
        <ele>153</ele>
        <time>2020-05-09T11:58:00.000Z</time>
        <extensions>
          <ns3:TrackPointExtension>
            <ns3:atemp>31.0</ns3:atemp>
            <ns3:hr>121</ns3:hr>
          </ns3:TrackPointExtension>
        </extensions>
      </trkpt>
      <trkpt lat="43.0526654608547687530517578125" lon="13.8057584501802921295166015625">
        <ele>152</ele>
        <time>2020-05-09T11:58:02.000Z</time>
        <extensions>
          <ns3:TrackPointExtension>
            <ns3:atemp>31.0</ns3:atemp>
            <ns3:hr>122</ns3:hr>
          </ns3:TrackPointExtension>
        </extensions>
      </trkpt>
      <trkpt lat="43.05263469927012920379638671875" lon="13.8057227432727813720703125">
        <ele>151.399993896484375</ele>
        <time>2020-05-09T11:58:03.000Z</time>
        <extensions>
          <ns3:TrackPointExtension>
            <ns3:atemp>31.0</ns3:atemp>
            <ns3:hr>121</ns3:hr>
          </ns3:TrackPointExtension>
        </extensions>
      </trkpt>
      <trkpt lat="43.0526054464280605316162109375" lon="13.8056826777756214141845703125">
        <ele>150.8000030517578125</ele>
        <time>2020-05-09T11:58:04.000Z</time>
        <extensions>
          <ns3:TrackPointExtension>
            <ns3:atemp>31.0</ns3:atemp>
            <ns3:hr>119</ns3:hr>
          </ns3:TrackPointExtension>
        </extensions>
      </trkpt>
      <trkpt lat="43.0525491200387477874755859375" lon="13.8055844418704509735107421875">
        <ele>149.1999969482421875</ele>
        <time>2020-05-09T11:58:06.000Z</time>
        <extensions>
          <ns3:TrackPointExtension>
            <ns3:atemp>31.0</ns3:atemp>
            <ns3:hr>119</ns3:hr>
          </ns3:TrackPointExtension>
        </extensions>
      </trkpt>
      <trkpt lat="43.052502684295177459716796875" lon="13.805455863475799560546875">
        <ele>148</ele>
        <time>2020-05-09T11:58:08.000Z</time>
        <extensions>
          <ns3:TrackPointExtension>
            <ns3:atemp>31.0</ns3:atemp>
            <ns3:hr>118</ns3:hr>
          </ns3:TrackPointExtension>
        </extensions>
      </trkpt>
      <trkpt lat="43.0524654686450958251953125" lon="13.80532116629183292388916015625">
        <ele>146.8000030517578125</ele>
        <time>2020-05-09T11:58:10.000Z</time>
        <extensions>
          <ns3:TrackPointExtension>
            <ns3:atemp>31.0</ns3:atemp>
            <ns3:hr>121</ns3:hr>
          </ns3:TrackPointExtension>
        </extensions>
      </trkpt>
      <trkpt lat="43.05237829685211181640625" lon="13.8050583936274051666259765625">
        <ele>145.600006103515625</ele>
        <time>2020-05-09T11:58:14.000Z</time>
        <extensions>
          <ns3:TrackPointExtension>
            <ns3:atemp>31.0</ns3:atemp>
            <ns3:hr>119</ns3:hr>
          </ns3:TrackPointExtension>
        </extensions>
      </trkpt>
      <trkpt lat="43.05235591717064380645751953125" lon="13.80499142222106456756591796875">
        <ele>145.1999969482421875</ele>
        <time>2020-05-09T11:58:15.000Z</time>
        <extensions>
          <ns3:TrackPointExtension>
            <ns3:atemp>31.0</ns3:atemp>
            <ns3:hr>119</ns3:hr>
          </ns3:TrackPointExtension>
        </extensions>
      </trkpt>
      <trkpt lat="43.052331693470478057861328125" lon="13.80491849966347217559814453125">
        <ele>144.600006103515625</ele>
        <time>2020-05-09T11:58:16.000Z</time>
        <extensions>
          <ns3:TrackPointExtension>
            <ns3:atemp>31.0</ns3:atemp>
            <ns3:hr>120</ns3:hr>
          </ns3:TrackPointExtension>
        </extensions>
      </trkpt>
      <trkpt lat="43.05227025412023067474365234375" lon="13.80476779304444789886474609375">
        <ele>143.399993896484375</ele>
        <time>2020-05-09T11:58:18.000Z</time>
        <extensions>
          <ns3:TrackPointExtension>
            <ns3:atemp>31.0</ns3:atemp>
            <ns3:hr>119</ns3:hr>
          </ns3:TrackPointExtension>
        </extensions>
      </trkpt>
      <trkpt lat="43.0522094853222370147705078125" lon="13.80462949164211750030517578125">
        <ele>142</ele>
        <time>2020-05-09T11:58:20.000Z</time>
        <extensions>
          <ns3:TrackPointExtension>
            <ns3:atemp>31.0</ns3:atemp>
            <ns3:hr>118</ns3:hr>
          </ns3:TrackPointExtension>
        </extensions>
      </trkpt>
      <trkpt lat="43.0521206371486186981201171875" lon="13.8044341094791889190673828125">
        <ele>140.600006103515625</ele>
        <time>2020-05-09T11:58:23.000Z</time>
        <extensions>
          <ns3:TrackPointExtension>
            <ns3:atemp>31.0</ns3:atemp>
            <ns3:hr>119</ns3:hr>
          </ns3:TrackPointExtension>
        </extensions>
      </trkpt>
      <trkpt lat="43.05204545147716999053955078125" lon="13.80431533791124820709228515625">
        <ele>139.399993896484375</ele>
        <time>2020-05-09T11:58:25.000Z</time>
        <extensions>
          <ns3:TrackPointExtension>
            <ns3:atemp>31.0</ns3:atemp>
            <ns3:hr>119</ns3:hr>
          </ns3:TrackPointExtension>
        </extensions>
      </trkpt>
      <trkpt lat="43.0519513227045536041259765625" lon="13.80422540009021759033203125">
        <ele>138.399993896484375</ele>
        <time>2020-05-09T11:58:27.000Z</time>
        <extensions>
          <ns3:TrackPointExtension>
            <ns3:atemp>31.0</ns3:atemp>
            <ns3:hr>119</ns3:hr>
          </ns3:TrackPointExtension>
        </extensions>
      </trkpt>
      <trkpt lat="43.0518983490765094757080078125" lon="13.80418810062110424041748046875">
        <ele>137.8000030517578125</ele>
        <time>2020-05-09T11:58:28.000Z</time>
        <extensions>
          <ns3:TrackPointExtension>
            <ns3:atemp>31.0</ns3:atemp>
            <ns3:hr>120</ns3:hr>
          </ns3:TrackPointExtension>
        </extensions>
      </trkpt>
      <trkpt lat="43.05184244178235530853271484375" lon="13.80416044034063816070556640625">
        <ele>137.1999969482421875</ele>
        <time>2020-05-09T11:58:29.000Z</time>
        <extensions>
          <ns3:TrackPointExtension>
            <ns3:atemp>31.0</ns3:atemp>
            <ns3:hr>120</ns3:hr>
          </ns3:TrackPointExtension>
        </extensions>
      </trkpt>
      <trkpt lat="43.0517213232815265655517578125" lon="13.804125152528285980224609375">
        <ele>136</ele>
        <time>2020-05-09T11:58:31.000Z</time>
        <extensions>
          <ns3:TrackPointExtension>
            <ns3:atemp>31.0</ns3:atemp>
            <ns3:hr>121</ns3:hr>
          </ns3:TrackPointExtension>
        </extensions>
      </trkpt>
      <trkpt lat="43.0516639910638332366943359375" lon="13.8041189499199390411376953125">
        <ele>135.8000030517578125</ele>
        <time>2020-05-09T11:58:32.000Z</time>
        <extensions>
          <ns3:TrackPointExtension>
            <ns3:atemp>31.0</ns3:atemp>
            <ns3:hr>121</ns3:hr>
          </ns3:TrackPointExtension>
        </extensions>
      </trkpt>
      <trkpt lat="43.051564581692218780517578125" lon="13.804141245782375335693359375">
        <ele>135.600006103515625</ele>
        <time>2020-05-09T11:58:34.000Z</time>
        <extensions>
          <ns3:TrackPointExtension>
            <ns3:atemp>31.0</ns3:atemp>
            <ns3:hr>122</ns3:hr>
          </ns3:TrackPointExtension>
        </extensions>
      </trkpt>
      <trkpt lat="43.05152644403278827667236328125" lon="13.80415968596935272216796875">
        <ele>135.8000030517578125</ele>
        <time>2020-05-09T11:58:35.000Z</time>
        <extensions>
          <ns3:TrackPointExtension>
            <ns3:atemp>31.0</ns3:atemp>
            <ns3:hr>120</ns3:hr>
          </ns3:TrackPointExtension>
        </extensions>
      </trkpt>
      <trkpt lat="43.05142150260508060455322265625" lon="13.804292120039463043212890625">
        <ele>137.399993896484375</ele>
        <time>2020-05-09T11:58:39.000Z</time>
        <extensions>
          <ns3:TrackPointExtension>
            <ns3:atemp>31.0</ns3:atemp>
            <ns3:hr>120</ns3:hr>
          </ns3:TrackPointExtension>
        </extensions>
      </trkpt>
      <trkpt lat="43.0514051578938961029052734375" lon="13.80431952886283397674560546875">
        <ele>137.8000030517578125</ele>
        <time>2020-05-09T11:58:40.000Z</time>
        <extensions>
          <ns3:TrackPointExtension>
            <ns3:atemp>31.0</ns3:atemp>
            <ns3:hr>119</ns3:hr>
          </ns3:TrackPointExtension>
        </extensions>
      </trkpt>
      <trkpt lat="43.05138680152595043182373046875" lon="13.80434936843812465667724609375">
        <ele>138.399993896484375</ele>
        <time>2020-05-09T11:58:41.000Z</time>
        <extensions>
          <ns3:TrackPointExtension>
            <ns3:atemp>31.0</ns3:atemp>
            <ns3:hr>120</ns3:hr>
          </ns3:TrackPointExtension>
        </extensions>
      </trkpt>
      <trkpt lat="43.0513458140194416046142578125" lon="13.8044136576354503631591796875">
        <ele>139.600006103515625</ele>
        <time>2020-05-09T11:58:43.000Z</time>
        <extensions>
          <ns3:TrackPointExtension>
            <ns3:atemp>31.0</ns3:atemp>
            <ns3:hr>120</ns3:hr>
          </ns3:TrackPointExtension>
        </extensions>
      </trkpt>
      <trkpt lat="43.05130901746451854705810546875" lon="13.804461769759654998779296875">
        <ele>141.1999969482421875</ele>
        <time>2020-05-09T11:58:45.000Z</time>
        <extensions>
          <ns3:TrackPointExtension>
            <ns3:atemp>30.0</ns3:atemp>
            <ns3:hr>121</ns3:hr>
          </ns3:TrackPointExtension>
        </extensions>
      </trkpt>
      <trkpt lat="43.05127548985183238983154296875" lon="13.80448632873594760894775390625">
        <ele>142</ele>
        <time>2020-05-09T11:58:47.000Z</time>
        <extensions>
          <ns3:TrackPointExtension>
            <ns3:atemp>30.0</ns3:atemp>
            <ns3:hr>118</ns3:hr>
          </ns3:TrackPointExtension>
        </extensions>
      </trkpt>
      <trkpt lat="43.05125889368355274200439453125" lon="13.8044897653162479400634765625">
        <ele>142.399993896484375</ele>
        <time>2020-05-09T11:58:48.000Z</time>
        <extensions>
          <ns3:TrackPointExtension>
            <ns3:atemp>30.0</ns3:atemp>
            <ns3:hr>118</ns3:hr>
          </ns3:TrackPointExtension>
        </extensions>
      </trkpt>
      <trkpt lat="43.0512264557182788848876953125" lon="13.80448800511658191680908203125">
        <ele>143</ele>
        <time>2020-05-09T11:58:50.000Z</time>
        <extensions>
          <ns3:TrackPointExtension>
            <ns3:atemp>30.0</ns3:atemp>
            <ns3:hr>119</ns3:hr>
          </ns3:TrackPointExtension>
        </extensions>
      </trkpt>
      <trkpt lat="43.05118228308856487274169921875" lon="13.80448901094496250152587890625">
        <ele>143.399993896484375</ele>
        <time>2020-05-09T11:58:52.000Z</time>
        <extensions>
          <ns3:TrackPointExtension>
            <ns3:atemp>30.0</ns3:atemp>
            <ns3:hr>118</ns3:hr>
          </ns3:TrackPointExtension>
        </extensions>
      </trkpt>
      <trkpt lat="43.05116736330091953277587890625" lon="13.80447207950055599212646484375">
        <ele>143.8000030517578125</ele>
        <time>2020-05-09T11:58:53.000Z</time>
        <extensions>
          <ns3:TrackPointExtension>
            <ns3:atemp>30.0</ns3:atemp>
            <ns3:hr>119</ns3:hr>
          </ns3:TrackPointExtension>
        </extensions>
      </trkpt>
      <trkpt lat="43.05115596391260623931884765625" lon="13.804451711475849151611328125">
        <ele>144.1999969482421875</ele>
        <time>2020-05-09T11:58:54.000Z</time>
        <extensions>
          <ns3:TrackPointExtension>
            <ns3:atemp>30.0</ns3:atemp>
            <ns3:hr>122</ns3:hr>
          </ns3:TrackPointExtension>
        </extensions>
      </trkpt>
      <trkpt lat="43.05114389397203922271728515625" lon="13.80442799068987369537353515625">
        <ele>144.600006103515625</ele>
        <time>2020-05-09T11:58:55.000Z</time>
        <extensions>
          <ns3:TrackPointExtension>
            <ns3:atemp>30.0</ns3:atemp>
            <ns3:hr>125</ns3:hr>
          </ns3:TrackPointExtension>
        </extensions>
      </trkpt>
      <trkpt lat="43.05110231973230838775634765625" lon="13.80433243699371814727783203125">
        <ele>145.8000030517578125</ele>
        <time>2020-05-09T11:58:59.000Z</time>
        <extensions>
          <ns3:TrackPointExtension>
            <ns3:atemp>30.0</ns3:atemp>
            <ns3:hr>127</ns3:hr>
          </ns3:TrackPointExtension>
        </extensions>
      </trkpt>
      <trkpt lat="43.0510809458792209625244140625" lon="13.80428063683211803436279296875">
        <ele>146.399993896484375</ele>
        <time>2020-05-09T11:59:01.000Z</time>
        <extensions>
          <ns3:TrackPointExtension>
            <ns3:atemp>30.0</ns3:atemp>
            <ns3:hr>130</ns3:hr>
          </ns3:TrackPointExtension>
        </extensions>
      </trkpt>
      <trkpt lat="43.05105001665651798248291015625" lon="13.80421961657702922821044921875">
        <ele>146.8000030517578125</ele>
        <time>2020-05-09T11:59:04.000Z</time>
        <extensions>
          <ns3:TrackPointExtension>
            <ns3:atemp>30.0</ns3:atemp>
            <ns3:hr>132</ns3:hr>
          </ns3:TrackPointExtension>
        </extensions>
      </trkpt>
      <trkpt lat="43.05103040300309658050537109375" lon="13.8041792996227741241455078125">
        <ele>147.1999969482421875</ele>
        <time>2020-05-09T11:59:06.000Z</time>
        <extensions>
          <ns3:TrackPointExtension>
            <ns3:atemp>30.0</ns3:atemp>
            <ns3:hr>135</ns3:hr>
          </ns3:TrackPointExtension>
        </extensions>
      </trkpt>
      <trkpt lat="43.0510055087506771087646484375" lon="13.80413345061242580413818359375">
        <ele>147.8000030517578125</ele>
        <time>2020-05-09T11:59:08.000Z</time>
        <extensions>
          <ns3:TrackPointExtension>
            <ns3:atemp>30.0</ns3:atemp>
            <ns3:hr>137</ns3:hr>
          </ns3:TrackPointExtension>
        </extensions>
      </trkpt>
      <trkpt lat="43.0509822070598602294921875" lon="13.80408584140241146087646484375">
        <ele>148.600006103515625</ele>
        <time>2020-05-09T11:59:10.000Z</time>
        <extensions>
          <ns3:TrackPointExtension>
            <ns3:atemp>30.0</ns3:atemp>
            <ns3:hr>138</ns3:hr>
          </ns3:TrackPointExtension>
        </extensions>
      </trkpt>
      <trkpt lat="43.05097189731895923614501953125" lon="13.80406580865383148193359375">
        <ele>149</ele>
        <time>2020-05-09T11:59:11.000Z</time>
        <extensions>
          <ns3:TrackPointExtension>
            <ns3:atemp>30.0</ns3:atemp>
            <ns3:hr>139</ns3:hr>
          </ns3:TrackPointExtension>
        </extensions>
      </trkpt>
      <trkpt lat="43.05091917514801025390625" lon="13.8039590232074260711669921875">
        <ele>149.8000030517578125</ele>
        <time>2020-05-09T11:59:16.000Z</time>
        <extensions>
          <ns3:TrackPointExtension>
            <ns3:atemp>30.0</ns3:atemp>
            <ns3:hr>141</ns3:hr>
          </ns3:TrackPointExtension>
        </extensions>
      </trkpt>
      <trkpt lat="43.0508910119533538818359375" lon="13.80390931852161884307861328125">
        <ele>150.1999969482421875</ele>
        <time>2020-05-09T11:59:18.000Z</time>
        <extensions>
          <ns3:TrackPointExtension>
            <ns3:atemp>30.0</ns3:atemp>
            <ns3:hr>143</ns3:hr>
          </ns3:TrackPointExtension>
        </extensions>
      </trkpt>
      <trkpt lat="43.0508321709930896759033203125" lon="13.803770430386066436767578125">
        <ele>151.1999969482421875</ele>
        <time>2020-05-09T11:59:23.000Z</time>
        <extensions>
          <ns3:TrackPointExtension>
            <ns3:atemp>30.0</ns3:atemp>
            <ns3:hr>145</ns3:hr>
          </ns3:TrackPointExtension>
        </extensions>
      </trkpt>
      <trkpt lat="43.0508197657763957977294921875" lon="13.80370915867388248443603515625">
        <ele>151.600006103515625</ele>
        <time>2020-05-09T11:59:25.000Z</time>
        <extensions>
          <ns3:TrackPointExtension>
            <ns3:atemp>30.0</ns3:atemp>
            <ns3:hr>146</ns3:hr>
          </ns3:TrackPointExtension>
        </extensions>
      </trkpt>
      <trkpt lat="43.05079420097172260284423828125" lon="13.8035704381763935089111328125">
        <ele>152.399993896484375</ele>
        <time>2020-05-09T11:59:30.000Z</time>
        <extensions>
          <ns3:TrackPointExtension>
            <ns3:atemp>30.0</ns3:atemp>
            <ns3:hr>150</ns3:hr>
          </ns3:TrackPointExtension>
        </extensions>
      </trkpt>
      <trkpt lat="43.050795458257198333740234375" lon="13.80354923196136951446533203125">
        <ele>152.600006103515625</ele>
        <time>2020-05-09T11:59:31.000Z</time>
        <extensions>
          <ns3:TrackPointExtension>
            <ns3:atemp>31.0</ns3:atemp>
            <ns3:hr>151</ns3:hr>
          </ns3:TrackPointExtension>
        </extensions>
      </trkpt>
      <trkpt lat="43.05079218931496143341064453125" lon="13.80344931967556476593017578125">
        <ele>153.399993896484375</ele>
        <time>2020-05-09T11:59:35.000Z</time>
        <extensions>
          <ns3:TrackPointExtension>
            <ns3:atemp>31.0</ns3:atemp>
            <ns3:hr>152</ns3:hr>
          </ns3:TrackPointExtension>
        </extensions>
      </trkpt>
      <trkpt lat="43.050790764391422271728515625" lon="13.80334169603884220123291015625">
        <ele>154</ele>
        <time>2020-05-09T11:59:39.000Z</time>
        <extensions>
          <ns3:TrackPointExtension>
            <ns3:atemp>31.0</ns3:atemp>
            <ns3:hr>153</ns3:hr>
          </ns3:TrackPointExtension>
        </extensions>
      </trkpt>
      <trkpt lat="43.050787746906280517578125" lon="13.80327363498508930206298828125">
        <ele>154.600006103515625</ele>
        <time>2020-05-09T11:59:41.000Z</time>
        <extensions>
          <ns3:TrackPointExtension>
            <ns3:atemp>31.0</ns3:atemp>
            <ns3:hr>154</ns3:hr>
          </ns3:TrackPointExtension>
        </extensions>
      </trkpt>
      <trkpt lat="43.05078263394534587860107421875" lon="13.80317003466188907623291015625">
        <ele>155.600006103515625</ele>
        <time>2020-05-09T11:59:44.000Z</time>
        <extensions>
          <ns3:TrackPointExtension>
            <ns3:atemp>31.0</ns3:atemp>
            <ns3:hr>155</ns3:hr>
          </ns3:TrackPointExtension>
        </extensions>
      </trkpt>
      <trkpt lat="43.0507756769657135009765625" lon="13.80306978709995746612548828125">
        <ele>156.1999969482421875</ele>
        <time>2020-05-09T11:59:47.000Z</time>
        <extensions>
          <ns3:TrackPointExtension>
            <ns3:atemp>31.0</ns3:atemp>
            <ns3:hr>155</ns3:hr>
          </ns3:TrackPointExtension>
        </extensions>
      </trkpt>
      <trkpt lat="43.05076771415770053863525390625" lon="13.80296819843351840972900390625">
        <ele>156.600006103515625</ele>
        <time>2020-05-09T11:59:50.000Z</time>
        <extensions>
          <ns3:TrackPointExtension>
            <ns3:atemp>31.0</ns3:atemp>
            <ns3:hr>155</ns3:hr>
          </ns3:TrackPointExtension>
        </extensions>
      </trkpt>
      <trkpt lat="43.050755895674228668212890625" lon="13.8027895800769329071044921875">
        <ele>158</ele>
        <time>2020-05-09T11:59:55.000Z</time>
        <extensions>
          <ns3:TrackPointExtension>
            <ns3:atemp>31.0</ns3:atemp>
            <ns3:hr>156</ns3:hr>
          </ns3:TrackPointExtension>
        </extensions>
      </trkpt>
      <trkpt lat="43.0507540516555309295654296875" lon="13.8027577288448810577392578125">
        <ele>158.1999969482421875</ele>
        <time>2020-05-09T11:59:56.000Z</time>
        <extensions>
          <ns3:TrackPointExtension>
            <ns3:atemp>31.0</ns3:atemp>
            <ns3:hr>156</ns3:hr>
          </ns3:TrackPointExtension>
        </extensions>
      </trkpt>
      <trkpt lat="43.0507597513496875762939453125" lon="13.80263191647827625274658203125">
        <ele>159</ele>
        <time>2020-05-09T12:00:00.000Z</time>
        <extensions>
          <ns3:TrackPointExtension>
            <ns3:atemp>31.0</ns3:atemp>
            <ns3:hr>156</ns3:hr>
          </ns3:TrackPointExtension>
        </extensions>
      </trkpt>
      <trkpt lat="43.0507580749690532684326171875" lon="13.802527226507663726806640625">
        <ele>159.600006103515625</ele>
        <time>2020-05-09T12:00:03.000Z</time>
        <extensions>
          <ns3:TrackPointExtension>
            <ns3:atemp>31.0</ns3:atemp>
            <ns3:hr>156</ns3:hr>
          </ns3:TrackPointExtension>
        </extensions>
      </trkpt>
      <trkpt lat="43.0507597513496875762939453125" lon="13.8024222850799560546875">
        <ele>160.1999969482421875</ele>
        <time>2020-05-09T12:00:06.000Z</time>
        <extensions>
          <ns3:TrackPointExtension>
            <ns3:atemp>30.0</ns3:atemp>
            <ns3:hr>155</ns3:hr>
          </ns3:TrackPointExtension>
        </extensions>
      </trkpt>
      <trkpt lat="43.050751872360706329345703125" lon="13.8022377155721187591552734375">
        <ele>161.1999969482421875</ele>
        <time>2020-05-09T12:00:11.000Z</time>
        <extensions>
          <ns3:TrackPointExtension>
            <ns3:atemp>30.0</ns3:atemp>
            <ns3:hr>153</ns3:hr>
          </ns3:TrackPointExtension>
        </extensions>
      </trkpt>
      <trkpt lat="43.05075916461646556854248046875" lon="13.802016265690326690673828125">
        <ele>161.8000030517578125</ele>
        <time>2020-05-09T12:00:17.000Z</time>
        <extensions>
          <ns3:TrackPointExtension>
            <ns3:atemp>30.0</ns3:atemp>
            <ns3:hr>152</ns3:hr>
          </ns3:TrackPointExtension>
        </extensions>
      </trkpt>
      <trkpt lat="43.050814568996429443359375" lon="13.8017418421804904937744140625">
        <ele>162.1999969482421875</ele>
        <time>2020-05-09T12:00:24.000Z</time>
        <extensions>
          <ns3:TrackPointExtension>
            <ns3:atemp>30.0</ns3:atemp>
            <ns3:hr>151</ns3:hr>
          </ns3:TrackPointExtension>
        </extensions>
      </trkpt>
      <trkpt lat="43.05087567307054996490478515625" lon="13.801598511636257171630859375">
        <ele>162.399993896484375</ele>
        <time>2020-05-09T12:00:28.000Z</time>
        <extensions>
          <ns3:TrackPointExtension>
            <ns3:atemp>30.0</ns3:atemp>
            <ns3:hr>152</ns3:hr>
          </ns3:TrackPointExtension>
        </extensions>
      </trkpt>
      <trkpt lat="43.05092210881412029266357421875" lon="13.80148996599018573760986328125">
        <ele>162.600006103515625</ele>
        <time>2020-05-09T12:00:31.000Z</time>
        <extensions>
          <ns3:TrackPointExtension>
            <ns3:atemp>30.0</ns3:atemp>
            <ns3:hr>150</ns3:hr>
          </ns3:TrackPointExtension>
        </extensions>
      </trkpt>
      <trkpt lat="43.051038198173046112060546875" lon="13.8013260997831821441650390625">
        <ele>163.399993896484375</ele>
        <time>2020-05-09T12:00:37.000Z</time>
        <extensions>
          <ns3:TrackPointExtension>
            <ns3:atemp>30.0</ns3:atemp>
            <ns3:hr>149</ns3:hr>
          </ns3:TrackPointExtension>
        </extensions>
      </trkpt>
      <trkpt lat="43.0510601587593555450439453125" lon="13.80130807869136333465576171875">
        <ele>163.600006103515625</ele>
        <time>2020-05-09T12:00:38.000Z</time>
        <extensions>
          <ns3:TrackPointExtension>
            <ns3:atemp>30.0</ns3:atemp>
            <ns3:hr>148</ns3:hr>
          </ns3:TrackPointExtension>
        </extensions>
      </trkpt>
      <trkpt lat="43.05114506743848323822021484375" lon="13.8012325577437877655029296875">
        <ele>164.399993896484375</ele>
        <time>2020-05-09T12:00:42.000Z</time>
        <extensions>
          <ns3:TrackPointExtension>
            <ns3:atemp>30.0</ns3:atemp>
            <ns3:hr>146</ns3:hr>
          </ns3:TrackPointExtension>
        </extensions>
      </trkpt>
      <trkpt lat="43.0512262880802154541015625" lon="13.8011738844215869903564453125">
        <ele>165.600006103515625</ele>
        <time>2020-05-09T12:00:46.000Z</time>
        <extensions>
          <ns3:TrackPointExtension>
            <ns3:atemp>30.0</ns3:atemp>
            <ns3:hr>145</ns3:hr>
          </ns3:TrackPointExtension>
        </extensions>
      </trkpt>
      <trkpt lat="43.05130742490291595458984375" lon="13.8011276163160800933837890625">
        <ele>166.8000030517578125</ele>
        <time>2020-05-09T12:00:50.000Z</time>
        <extensions>
          <ns3:TrackPointExtension>
            <ns3:atemp>30.0</ns3:atemp>
            <ns3:hr>144</ns3:hr>
          </ns3:TrackPointExtension>
        </extensions>
      </trkpt>
      <trkpt lat="43.0513883940875530242919921875" lon="13.801087550818920135498046875">
        <ele>167.8000030517578125</ele>
        <time>2020-05-09T12:00:54.000Z</time>
        <extensions>
          <ns3:TrackPointExtension>
            <ns3:atemp>30.0</ns3:atemp>
            <ns3:hr>143</ns3:hr>
          </ns3:TrackPointExtension>
        </extensions>
      </trkpt>
      <trkpt lat="43.051408343017101287841796875" lon="13.801079504191875457763671875">
        <ele>168.1999969482421875</ele>
        <time>2020-05-09T12:00:55.000Z</time>
        <extensions>
          <ns3:TrackPointExtension>
            <ns3:atemp>30.0</ns3:atemp>
            <ns3:hr>143</ns3:hr>
          </ns3:TrackPointExtension>
        </extensions>
      </trkpt>
      <trkpt lat="43.05148252286016941070556640625" lon="13.8010396063327789306640625">
        <ele>169.399993896484375</ele>
        <time>2020-05-09T12:00:59.000Z</time>
        <extensions>
          <ns3:TrackPointExtension>
            <ns3:atemp>30.0</ns3:atemp>
            <ns3:hr>145</ns3:hr>
          </ns3:TrackPointExtension>
        </extensions>
      </trkpt>
      <trkpt lat="43.0515374243259429931640625" lon="13.801007084548473358154296875">
        <ele>170.600006103515625</ele>
        <time>2020-05-09T12:01:02.000Z</time>
        <extensions>
          <ns3:TrackPointExtension>
            <ns3:atemp>30.0</ns3:atemp>
            <ns3:hr>148</ns3:hr>
          </ns3:TrackPointExtension>
        </extensions>
      </trkpt>
      <trkpt lat="43.05155829526484012603759765625" lon="13.80099878646433353424072265625">
        <ele>171</ele>
        <time>2020-05-09T12:01:03.000Z</time>
        <extensions>
          <ns3:TrackPointExtension>
            <ns3:atemp>30.0</ns3:atemp>
            <ns3:hr>149</ns3:hr>
          </ns3:TrackPointExtension>
        </extensions>
      </trkpt>
      <trkpt lat="43.05157832801342010498046875" lon="13.8009898178279399871826171875">
        <ele>171.1999969482421875</ele>
        <time>2020-05-09T12:01:04.000Z</time>
        <extensions>
          <ns3:TrackPointExtension>
            <ns3:atemp>30.0</ns3:atemp>
            <ns3:hr>150</ns3:hr>
          </ns3:TrackPointExtension>
        </extensions>
      </trkpt>
      <trkpt lat="43.0516358278691768646240234375" lon="13.8009663484990596771240234375">
        <ele>171.600006103515625</ele>
        <time>2020-05-09T12:01:07.000Z</time>
        <extensions>
          <ns3:TrackPointExtension>
            <ns3:atemp>30.0</ns3:atemp>
            <ns3:hr>151</ns3:hr>
          </ns3:TrackPointExtension>
        </extensions>
      </trkpt>
      <trkpt lat="43.0517082475125789642333984375" lon="13.80092971958220005035400390625">
        <ele>172.8000030517578125</ele>
        <time>2020-05-09T12:01:11.000Z</time>
        <extensions>
          <ns3:TrackPointExtension>
            <ns3:atemp>30.0</ns3:atemp>
            <ns3:hr>153</ns3:hr>
          </ns3:TrackPointExtension>
        </extensions>
      </trkpt>
      <trkpt lat="43.0517654120922088623046875" lon="13.80090742371976375579833984375">
        <ele>174</ele>
        <time>2020-05-09T12:01:14.000Z</time>
        <extensions>
          <ns3:TrackPointExtension>
            <ns3:atemp>30.0</ns3:atemp>
            <ns3:hr>155</ns3:hr>
          </ns3:TrackPointExtension>
        </extensions>
      </trkpt>
      <trkpt lat="43.05182299576699733734130859375" lon="13.80088898353278636932373046875">
        <ele>175.1999969482421875</ele>
        <time>2020-05-09T12:01:17.000Z</time>
        <extensions>
          <ns3:TrackPointExtension>
            <ns3:atemp>30.0</ns3:atemp>
            <ns3:hr>156</ns3:hr>
          </ns3:TrackPointExtension>
        </extensions>
      </trkpt>
      <trkpt lat="43.05185635574162006378173828125" lon="13.80086836405098438262939453125">
        <ele>175.600006103515625</ele>
        <time>2020-05-09T12:01:19.000Z</time>
        <extensions>
          <ns3:TrackPointExtension>
            <ns3:atemp>30.0</ns3:atemp>
            <ns3:hr>156</ns3:hr>
          </ns3:TrackPointExtension>
        </extensions>
      </trkpt>
      <trkpt lat="43.051935397088527679443359375" lon="13.80082762800157070159912109375">
        <ele>176.399993896484375</ele>
        <time>2020-05-09T12:01:23.000Z</time>
        <extensions>
          <ns3:TrackPointExtension>
            <ns3:atemp>30.0</ns3:atemp>
            <ns3:hr>157</ns3:hr>
          </ns3:TrackPointExtension>
        </extensions>
      </trkpt>
      <trkpt lat="43.05197202600538730621337890625" lon="13.80080851726233959197998046875">
        <ele>177.399993896484375</ele>
        <time>2020-05-09T12:01:25.000Z</time>
        <extensions>
          <ns3:TrackPointExtension>
            <ns3:atemp>30.0</ns3:atemp>
            <ns3:hr>158</ns3:hr>
          </ns3:TrackPointExtension>
        </extensions>
      </trkpt>
      <trkpt lat="43.05198644287884235382080078125" lon="13.8008020631968975067138671875">
        <ele>177.8000030517578125</ele>
        <time>2020-05-09T12:01:26.000Z</time>
        <extensions>
          <ns3:TrackPointExtension>
            <ns3:atemp>30.0</ns3:atemp>
            <ns3:hr>159</ns3:hr>
          </ns3:TrackPointExtension>
        </extensions>
      </trkpt>
      <trkpt lat="43.05201091803610324859619140625" lon="13.80080415867269039154052734375">
        <ele>178.8000030517578125</ele>
        <time>2020-05-09T12:01:28.000Z</time>
        <extensions>
          <ns3:TrackPointExtension>
            <ns3:atemp>30.0</ns3:atemp>
            <ns3:hr>159</ns3:hr>
          </ns3:TrackPointExtension>
        </extensions>
      </trkpt>
      <trkpt lat="43.0520250834524631500244140625" lon="13.8008060865104198455810546875">
        <ele>179</ele>
        <time>2020-05-09T12:01:29.000Z</time>
        <extensions>
          <ns3:TrackPointExtension>
            <ns3:atemp>30.0</ns3:atemp>
            <ns3:hr>159</ns3:hr>
          </ns3:TrackPointExtension>
        </extensions>
      </trkpt>
      <trkpt lat="43.05205550976097583770751953125" lon="13.800794519484043121337890625">
        <ele>179.399993896484375</ele>
        <time>2020-05-09T12:01:31.000Z</time>
        <extensions>
          <ns3:TrackPointExtension>
            <ns3:atemp>30.0</ns3:atemp>
            <ns3:hr>160</ns3:hr>
          </ns3:TrackPointExtension>
        </extensions>
      </trkpt>
      <trkpt lat="43.05209641344845294952392578125" lon="13.8007849641144275665283203125">
        <ele>180</ele>
        <time>2020-05-09T12:01:34.000Z</time>
        <extensions>
          <ns3:TrackPointExtension>
            <ns3:atemp>30.0</ns3:atemp>
            <ns3:hr>160</ns3:hr>
          </ns3:TrackPointExtension>
        </extensions>
      </trkpt>
      <trkpt lat="43.05213748477399349212646484375" lon="13.800786472856998443603515625">
        <ele>180.8000030517578125</ele>
        <time>2020-05-09T12:01:37.000Z</time>
        <extensions>
          <ns3:TrackPointExtension>
            <ns3:atemp>30.0</ns3:atemp>
            <ns3:hr>161</ns3:hr>
          </ns3:TrackPointExtension>
        </extensions>
      </trkpt>
      <trkpt lat="43.052154667675495147705078125" lon="13.80079393275082111358642578125">
        <ele>181.1999969482421875</ele>
        <time>2020-05-09T12:01:38.000Z</time>
        <extensions>
          <ns3:TrackPointExtension>
            <ns3:atemp>30.0</ns3:atemp>
            <ns3:hr>161</ns3:hr>
          </ns3:TrackPointExtension>
        </extensions>
      </trkpt>
      <trkpt lat="43.0522239021956920623779296875" lon="13.80080382339656352996826171875">
        <ele>182.1999969482421875</ele>
        <time>2020-05-09T12:01:42.000Z</time>
        <extensions>
          <ns3:TrackPointExtension>
            <ns3:atemp>30.0</ns3:atemp>
            <ns3:hr>161</ns3:hr>
          </ns3:TrackPointExtension>
        </extensions>
      </trkpt>
      <trkpt lat="43.052237816154956817626953125" lon="13.80080080591142177581787109375">
        <ele>182.399993896484375</ele>
        <time>2020-05-09T12:01:43.000Z</time>
        <extensions>
          <ns3:TrackPointExtension>
            <ns3:atemp>30.0</ns3:atemp>
            <ns3:hr>162</ns3:hr>
          </ns3:TrackPointExtension>
        </extensions>
      </trkpt>
      <trkpt lat="43.05227494798600673675537109375" lon="13.80079175345599651336669921875">
        <ele>183.399993896484375</ele>
        <time>2020-05-09T12:01:46.000Z</time>
        <extensions>
          <ns3:TrackPointExtension>
            <ns3:atemp>30.0</ns3:atemp>
            <ns3:hr>162</ns3:hr>
          </ns3:TrackPointExtension>
        </extensions>
      </trkpt>
      <trkpt lat="43.052331693470478057861328125" lon="13.8007365167140960693359375">
        <ele>184.600006103515625</ele>
        <time>2020-05-09T12:01:51.000Z</time>
        <extensions>
          <ns3:TrackPointExtension>
            <ns3:atemp>30.0</ns3:atemp>
            <ns3:hr>164</ns3:hr>
          </ns3:TrackPointExtension>
        </extensions>
      </trkpt>
      <trkpt lat="43.052343428134918212890625" lon="13.80071212537586688995361328125">
        <ele>185</ele>
        <time>2020-05-09T12:01:52.000Z</time>
        <extensions>
          <ns3:TrackPointExtension>
            <ns3:atemp>30.0</ns3:atemp>
            <ns3:hr>164</ns3:hr>
          </ns3:TrackPointExtension>
        </extensions>
      </trkpt>
      <trkpt lat="43.05237083695828914642333984375" lon="13.80063836462795734405517578125">
        <ele>185.8000030517578125</ele>
        <time>2020-05-09T12:01:55.000Z</time>
        <extensions>
          <ns3:TrackPointExtension>
            <ns3:atemp>30.0</ns3:atemp>
            <ns3:hr>164</ns3:hr>
          </ns3:TrackPointExtension>
        </extensions>
      </trkpt>
      <trkpt lat="43.05237486027181148529052734375" lon="13.8006158173084259033203125">
        <ele>186</ele>
        <time>2020-05-09T12:01:56.000Z</time>
        <extensions>
          <ns3:TrackPointExtension>
            <ns3:atemp>30.0</ns3:atemp>
            <ns3:hr>164</ns3:hr>
          </ns3:TrackPointExtension>
        </extensions>
      </trkpt>
      <trkpt lat="43.05236689746379852294921875" lon="13.80057918839156627655029296875">
        <ele>186.399993896484375</ele>
        <time>2020-05-09T12:01:58.000Z</time>
        <extensions>
          <ns3:TrackPointExtension>
            <ns3:atemp>30.0</ns3:atemp>
            <ns3:hr>164</ns3:hr>
          </ns3:TrackPointExtension>
        </extensions>
      </trkpt>
      <trkpt lat="43.0523442663252353668212890625" lon="13.8005452416837215423583984375">
        <ele>186.8000030517578125</ele>
        <time>2020-05-09T12:02:00.000Z</time>
        <extensions>
          <ns3:TrackPointExtension>
            <ns3:atemp>30.0</ns3:atemp>
            <ns3:hr>164</ns3:hr>
          </ns3:TrackPointExtension>
        </extensions>
      </trkpt>
      <trkpt lat="43.05229757912456989288330078125" lon="13.80051749758422374725341796875">
        <ele>188</ele>
        <time>2020-05-09T12:02:03.000Z</time>
        <extensions>
          <ns3:TrackPointExtension>
            <ns3:atemp>30.0</ns3:atemp>
            <ns3:hr>164</ns3:hr>
          </ns3:TrackPointExtension>
        </extensions>
      </trkpt>
      <trkpt lat="43.05228148587048053741455078125" lon="13.80051431246101856231689453125">
        <ele>188.1999969482421875</ele>
        <time>2020-05-09T12:02:04.000Z</time>
        <extensions>
          <ns3:TrackPointExtension>
            <ns3:atemp>30.0</ns3:atemp>
            <ns3:hr>164</ns3:hr>
          </ns3:TrackPointExtension>
        </extensions>
      </trkpt>
      <trkpt lat="43.05224276147782802581787109375" lon="13.80052336491644382476806640625">
        <ele>189.1999969482421875</ele>
        <time>2020-05-09T12:02:06.000Z</time>
        <extensions>
          <ns3:TrackPointExtension>
            <ns3:atemp>30.0</ns3:atemp>
            <ns3:hr>165</ns3:hr>
          </ns3:TrackPointExtension>
        </extensions>
      </trkpt>
      <trkpt lat="43.05217050947248935699462890625" lon="13.8005341775715351104736328125">
        <ele>190.399993896484375</ele>
        <time>2020-05-09T12:02:10.000Z</time>
        <extensions>
          <ns3:TrackPointExtension>
            <ns3:atemp>30.0</ns3:atemp>
            <ns3:hr>166</ns3:hr>
          </ns3:TrackPointExtension>
        </extensions>
      </trkpt>
      <trkpt lat="43.0521374009549617767333984375" lon="13.80054616369307041168212890625">
        <ele>190.8000030517578125</ele>
        <time>2020-05-09T12:02:12.000Z</time>
        <extensions>
          <ns3:TrackPointExtension>
            <ns3:atemp>30.0</ns3:atemp>
            <ns3:hr>167</ns3:hr>
          </ns3:TrackPointExtension>
        </extensions>
      </trkpt>
      <trkpt lat="43.052075207233428955078125" lon="13.80055873654782772064208984375">
        <ele>191.600006103515625</ele>
        <time>2020-05-09T12:02:16.000Z</time>
        <extensions>
          <ns3:TrackPointExtension>
            <ns3:atemp>30.0</ns3:atemp>
            <ns3:hr>167</ns3:hr>
          </ns3:TrackPointExtension>
        </extensions>
      </trkpt>
      <trkpt lat="43.052025921642780303955078125" lon="13.80054272711277008056640625">
        <ele>192.600006103515625</ele>
        <time>2020-05-09T12:02:19.000Z</time>
        <extensions>
          <ns3:TrackPointExtension>
            <ns3:atemp>30.0</ns3:atemp>
            <ns3:hr>166</ns3:hr>
          </ns3:TrackPointExtension>
        </extensions>
      </trkpt>
      <trkpt lat="43.05200882256031036376953125" lon="13.80054079927504062652587890625">
        <ele>193</ele>
        <time>2020-05-09T12:02:20.000Z</time>
        <extensions>
          <ns3:TrackPointExtension>
            <ns3:atemp>30.0</ns3:atemp>
            <ns3:hr>166</ns3:hr>
          </ns3:TrackPointExtension>
        </extensions>
      </trkpt>
      <trkpt lat="43.051946461200714111328125" lon="13.80052822642028331756591796875">
        <ele>194.399993896484375</ele>
        <time>2020-05-09T12:02:24.000Z</time>
        <extensions>
          <ns3:TrackPointExtension>
            <ns3:atemp>29.0</ns3:atemp>
            <ns3:hr>165</ns3:hr>
          </ns3:TrackPointExtension>
        </extensions>
      </trkpt>
      <trkpt lat="43.05189843289554119110107421875" lon="13.8005113787949085235595703125">
        <ele>195.1999969482421875</ele>
        <time>2020-05-09T12:02:27.000Z</time>
        <extensions>
          <ns3:TrackPointExtension>
            <ns3:atemp>29.0</ns3:atemp>
            <ns3:hr>164</ns3:hr>
          </ns3:TrackPointExtension>
        </extensions>
      </trkpt>
      <trkpt lat="43.0518834292888641357421875" lon="13.80050190724432468414306640625">
        <ele>195.399993896484375</ele>
        <time>2020-05-09T12:02:28.000Z</time>
        <extensions>
          <ns3:TrackPointExtension>
            <ns3:atemp>29.0</ns3:atemp>
            <ns3:hr>164</ns3:hr>
          </ns3:TrackPointExtension>
        </extensions>
      </trkpt>
      <trkpt lat="43.051831461489200592041015625" lon="13.80047458223998546600341796875">
        <ele>196.399993896484375</ele>
        <time>2020-05-09T12:02:31.000Z</time>
        <extensions>
          <ns3:TrackPointExtension>
            <ns3:atemp>29.0</ns3:atemp>
            <ns3:hr>165</ns3:hr>
          </ns3:TrackPointExtension>
        </extensions>
      </trkpt>
      <trkpt lat="43.05178678594529628753662109375" lon="13.80042647011578083038330078125">
        <ele>197.600006103515625</ele>
        <time>2020-05-09T12:02:34.000Z</time>
        <extensions>
          <ns3:TrackPointExtension>
            <ns3:atemp>30.0</ns3:atemp>
            <ns3:hr>165</ns3:hr>
          </ns3:TrackPointExtension>
        </extensions>
      </trkpt>
      <trkpt lat="43.0517773143947124481201171875" lon="13.80040601827204227447509765625">
        <ele>197.8000030517578125</ele>
        <time>2020-05-09T12:02:35.000Z</time>
        <extensions>
          <ns3:TrackPointExtension>
            <ns3:atemp>30.0</ns3:atemp>
            <ns3:hr>165</ns3:hr>
          </ns3:TrackPointExtension>
        </extensions>
      </trkpt>
      <trkpt lat="43.051744289696216583251953125" lon="13.80027509294450283050537109375">
        <ele>198.600006103515625</ele>
        <time>2020-05-09T12:02:40.000Z</time>
        <extensions>
          <ns3:TrackPointExtension>
            <ns3:atemp>30.0</ns3:atemp>
            <ns3:hr>166</ns3:hr>
          </ns3:TrackPointExtension>
        </extensions>
      </trkpt>
      <trkpt lat="43.051744289696216583251953125" lon="13.8002290762960910797119140625">
        <ele>199.1999969482421875</ele>
        <time>2020-05-09T12:02:42.000Z</time>
        <extensions>
          <ns3:TrackPointExtension>
            <ns3:atemp>30.0</ns3:atemp>
            <ns3:hr>166</ns3:hr>
          </ns3:TrackPointExtension>
        </extensions>
      </trkpt>
      <trkpt lat="43.05175040848553180694580078125" lon="13.80016596056520938873291015625">
        <ele>200</ele>
        <time>2020-05-09T12:02:45.000Z</time>
        <extensions>
          <ns3:TrackPointExtension>
            <ns3:atemp>30.0</ns3:atemp>
            <ns3:hr>166</ns3:hr>
          </ns3:TrackPointExtension>
        </extensions>
      </trkpt>
      <trkpt lat="43.0517627298831939697265625" lon="13.8000497035682201385498046875">
        <ele>201</ele>
        <time>2020-05-09T12:02:50.000Z</time>
        <extensions>
          <ns3:TrackPointExtension>
            <ns3:atemp>30.0</ns3:atemp>
            <ns3:hr>166</ns3:hr>
          </ns3:TrackPointExtension>
        </extensions>
      </trkpt>
      <trkpt lat="43.05176566354930400848388671875" lon="13.8000272400677204132080078125">
        <ele>201</ele>
        <time>2020-05-09T12:02:51.000Z</time>
        <extensions>
          <ns3:TrackPointExtension>
            <ns3:atemp>30.0</ns3:atemp>
            <ns3:hr>166</ns3:hr>
          </ns3:TrackPointExtension>
        </extensions>
      </trkpt>
      <trkpt lat="43.051770441234111785888671875" lon="13.799930177628993988037109375">
        <ele>202.1999969482421875</ele>
        <time>2020-05-09T12:02:55.000Z</time>
        <extensions>
          <ns3:TrackPointExtension>
            <ns3:atemp>30.0</ns3:atemp>
            <ns3:hr>166</ns3:hr>
          </ns3:TrackPointExtension>
        </extensions>
      </trkpt>
      <trkpt lat="43.0517732910811901092529296875" lon="13.79986186511814594268798828125">
        <ele>202.8000030517578125</ele>
        <time>2020-05-09T12:02:58.000Z</time>
        <extensions>
          <ns3:TrackPointExtension>
            <ns3:atemp>30.0</ns3:atemp>
            <ns3:hr>165</ns3:hr>
          </ns3:TrackPointExtension>
        </extensions>
      </trkpt>
      <trkpt lat="43.0517746321856975555419921875" lon="13.79983889870345592498779296875">
        <ele>203.1999969482421875</ele>
        <time>2020-05-09T12:02:59.000Z</time>
        <extensions>
          <ns3:TrackPointExtension>
            <ns3:atemp>30.0</ns3:atemp>
            <ns3:hr>165</ns3:hr>
          </ns3:TrackPointExtension>
        </extensions>
      </trkpt>
      <trkpt lat="43.0517736263573169708251953125" lon="13.79970998503267765045166015625">
        <ele>204.399993896484375</ele>
        <time>2020-05-09T12:03:05.000Z</time>
        <extensions>
          <ns3:TrackPointExtension>
            <ns3:atemp>30.0</ns3:atemp>
            <ns3:hr>166</ns3:hr>
          </ns3:TrackPointExtension>
        </extensions>
      </trkpt>
      <trkpt lat="43.05177815258502960205078125" lon="13.79961828701198101043701171875">
        <ele>205.600006103515625</ele>
        <time>2020-05-09T12:03:09.000Z</time>
        <extensions>
          <ns3:TrackPointExtension>
            <ns3:atemp>30.0</ns3:atemp>
            <ns3:hr>167</ns3:hr>
          </ns3:TrackPointExtension>
        </extensions>
      </trkpt>
      <trkpt lat="43.05180204100906848907470703125" lon="13.799517787992954254150390625">
        <ele>206.1999969482421875</ele>
        <time>2020-05-09T12:03:13.000Z</time>
        <extensions>
          <ns3:TrackPointExtension>
            <ns3:atemp>30.0</ns3:atemp>
            <ns3:hr>167</ns3:hr>
          </ns3:TrackPointExtension>
        </extensions>
      </trkpt>
      <trkpt lat="43.0518064834177494049072265625" lon="13.79949322901666164398193359375">
        <ele>206.600006103515625</ele>
        <time>2020-05-09T12:03:14.000Z</time>
        <extensions>
          <ns3:TrackPointExtension>
            <ns3:atemp>30.0</ns3:atemp>
            <ns3:hr>167</ns3:hr>
          </ns3:TrackPointExtension>
        </extensions>
      </trkpt>
      <trkpt lat="43.0518299527466297149658203125" lon="13.799398429691791534423828125">
        <ele>207.600006103515625</ele>
        <time>2020-05-09T12:03:18.000Z</time>
        <extensions>
          <ns3:TrackPointExtension>
            <ns3:atemp>30.0</ns3:atemp>
            <ns3:hr>167</ns3:hr>
          </ns3:TrackPointExtension>
        </extensions>
      </trkpt>
      <trkpt lat="43.0518480576574802398681640625" lon="13.79928384907543659210205078125">
        <ele>208.399993896484375</ele>
        <time>2020-05-09T12:03:23.000Z</time>
        <extensions>
          <ns3:TrackPointExtension>
            <ns3:atemp>30.0</ns3:atemp>
            <ns3:hr>166</ns3:hr>
          </ns3:TrackPointExtension>
        </extensions>
      </trkpt>
      <trkpt lat="43.051844872534275054931640625" lon="13.79926574416458606719970703125">
        <ele>208.600006103515625</ele>
        <time>2020-05-09T12:03:24.000Z</time>
        <extensions>
          <ns3:TrackPointExtension>
            <ns3:atemp>30.0</ns3:atemp>
            <ns3:hr>166</ns3:hr>
          </ns3:TrackPointExtension>
        </extensions>
      </trkpt>
      <trkpt lat="43.0518646538257598876953125" lon="13.79916264675557613372802734375">
        <ele>210</ele>
        <time>2020-05-09T12:03:29.000Z</time>
        <extensions>
          <ns3:TrackPointExtension>
            <ns3:atemp>30.0</ns3:atemp>
            <ns3:hr>166</ns3:hr>
          </ns3:TrackPointExtension>
        </extensions>
      </trkpt>
      <trkpt lat="43.05187412537634372711181640625" lon="13.7991169653832912445068359375">
        <ele>210.600006103515625</ele>
        <time>2020-05-09T12:03:31.000Z</time>
        <extensions>
          <ns3:TrackPointExtension>
            <ns3:atemp>31.0</ns3:atemp>
            <ns3:hr>166</ns3:hr>
          </ns3:TrackPointExtension>
        </extensions>
      </trkpt>
      <trkpt lat="43.0518799088895320892333984375" lon="13.799066841602325439453125">
        <ele>211</ele>
        <time>2020-05-09T12:03:33.000Z</time>
        <extensions>
          <ns3:TrackPointExtension>
            <ns3:atemp>31.0</ns3:atemp>
            <ns3:hr>166</ns3:hr>
          </ns3:TrackPointExtension>
        </extensions>
      </trkpt>
      <trkpt lat="43.051896505057811737060546875" lon="13.79892024211585521697998046875">
        <ele>212.1999969482421875</ele>
        <time>2020-05-09T12:03:39.000Z</time>
        <extensions>
          <ns3:TrackPointExtension>
            <ns3:atemp>31.0</ns3:atemp>
            <ns3:hr>166</ns3:hr>
          </ns3:TrackPointExtension>
        </extensions>
      </trkpt>
      <trkpt lat="43.0519022047519683837890625" lon="13.79889509640634059906005859375">
        <ele>212.1999969482421875</ele>
        <time>2020-05-09T12:03:40.000Z</time>
        <extensions>
          <ns3:TrackPointExtension>
            <ns3:atemp>31.0</ns3:atemp>
            <ns3:hr>166</ns3:hr>
          </ns3:TrackPointExtension>
        </extensions>
      </trkpt>
      <trkpt lat="43.05191637016832828521728515625" lon="13.798752687871456146240234375">
        <ele>213.399993896484375</ele>
        <time>2020-05-09T12:03:46.000Z</time>
        <extensions>
          <ns3:TrackPointExtension>
            <ns3:atemp>31.0</ns3:atemp>
            <ns3:hr>166</ns3:hr>
          </ns3:TrackPointExtension>
        </extensions>
      </trkpt>
      <trkpt lat="43.05191871710121631622314453125" lon="13.79870516248047351837158203125">
        <ele>213.600006103515625</ele>
        <time>2020-05-09T12:03:48.000Z</time>
        <extensions>
          <ns3:TrackPointExtension>
            <ns3:atemp>31.0</ns3:atemp>
            <ns3:hr>166</ns3:hr>
          </ns3:TrackPointExtension>
        </extensions>
      </trkpt>
      <trkpt lat="43.05191854946315288543701171875" lon="13.7986174039542675018310546875">
        <ele>214.399993896484375</ele>
        <time>2020-05-09T12:03:52.000Z</time>
        <extensions>
          <ns3:TrackPointExtension>
            <ns3:atemp>31.0</ns3:atemp>
            <ns3:hr>166</ns3:hr>
          </ns3:TrackPointExtension>
        </extensions>
      </trkpt>
      <trkpt lat="43.051917292177677154541015625" lon="13.79859854467213153839111328125">
        <ele>214.600006103515625</ele>
        <time>2020-05-09T12:03:53.000Z</time>
        <extensions>
          <ns3:TrackPointExtension>
            <ns3:atemp>31.0</ns3:atemp>
            <ns3:hr>166</ns3:hr>
          </ns3:TrackPointExtension>
        </extensions>
      </trkpt>
      <trkpt lat="43.0519194714725017547607421875" lon="13.79854138009250164031982421875">
        <ele>215.1999969482421875</ele>
        <time>2020-05-09T12:03:56.000Z</time>
        <extensions>
          <ns3:TrackPointExtension>
            <ns3:atemp>31.0</ns3:atemp>
            <ns3:hr>166</ns3:hr>
          </ns3:TrackPointExtension>
        </extensions>
      </trkpt>
      <trkpt lat="43.05192374624311923980712890625" lon="13.79852838814258575439453125">
        <ele>215.600006103515625</ele>
        <time>2020-05-09T12:03:57.000Z</time>
        <extensions>
          <ns3:TrackPointExtension>
            <ns3:atemp>31.0</ns3:atemp>
            <ns3:hr>166</ns3:hr>
          </ns3:TrackPointExtension>
        </extensions>
      </trkpt>
      <trkpt lat="43.0519355647265911102294921875" lon="13.7984454073011875152587890625">
        <ele>216.8000030517578125</ele>
        <time>2020-05-09T12:04:01.000Z</time>
        <extensions>
          <ns3:TrackPointExtension>
            <ns3:atemp>31.0</ns3:atemp>
            <ns3:hr>165</ns3:hr>
          </ns3:TrackPointExtension>
        </extensions>
      </trkpt>
      <trkpt lat="43.05193564854562282562255859375" lon="13.79840089939534664154052734375">
        <ele>217.399993896484375</ele>
        <time>2020-05-09T12:04:03.000Z</time>
        <extensions>
          <ns3:TrackPointExtension>
            <ns3:atemp>31.0</ns3:atemp>
            <ns3:hr>165</ns3:hr>
          </ns3:TrackPointExtension>
        </extensions>
      </trkpt>
      <trkpt lat="43.05193766020238399505615234375" lon="13.79838111810386180877685546875">
        <ele>217.8000030517578125</ele>
        <time>2020-05-09T12:04:04.000Z</time>
        <extensions>
          <ns3:TrackPointExtension>
            <ns3:atemp>31.0</ns3:atemp>
            <ns3:hr>165</ns3:hr>
          </ns3:TrackPointExtension>
        </extensions>
      </trkpt>
      <trkpt lat="43.05197051726281642913818359375" lon="13.79828338511288166046142578125">
        <ele>219</ele>
        <time>2020-05-09T12:04:09.000Z</time>
        <extensions>
          <ns3:TrackPointExtension>
            <ns3:atemp>31.0</ns3:atemp>
            <ns3:hr>165</ns3:hr>
          </ns3:TrackPointExtension>
        </extensions>
      </trkpt>
      <trkpt lat="43.05197671987116336822509765625" lon="13.7982623465359210968017578125">
        <ele>219</ele>
        <time>2020-05-09T12:04:10.000Z</time>
        <extensions>
          <ns3:TrackPointExtension>
            <ns3:atemp>31.0</ns3:atemp>
            <ns3:hr>165</ns3:hr>
          </ns3:TrackPointExtension>
        </extensions>
      </trkpt>
      <trkpt lat="43.0519962497055530548095703125" lon="13.7982013262808322906494140625">
        <ele>220</ele>
        <time>2020-05-09T12:04:13.000Z</time>
        <extensions>
          <ns3:TrackPointExtension>
            <ns3:atemp>31.0</ns3:atemp>
            <ns3:hr>165</ns3:hr>
          </ns3:TrackPointExtension>
        </extensions>
      </trkpt>
      <trkpt lat="43.05201862938702106475830078125" lon="13.79808758385479450225830078125">
        <ele>220.8000030517578125</ele>
        <time>2020-05-09T12:04:18.000Z</time>
        <extensions>
          <ns3:TrackPointExtension>
            <ns3:atemp>32.0</ns3:atemp>
            <ns3:hr>165</ns3:hr>
          </ns3:TrackPointExtension>
        </extensions>
      </trkpt>
      <trkpt lat="43.05202399380505084991455078125" lon="13.79806428216397762298583984375">
        <ele>221</ele>
        <time>2020-05-09T12:04:19.000Z</time>
        <extensions>
          <ns3:TrackPointExtension>
            <ns3:atemp>32.0</ns3:atemp>
            <ns3:hr>165</ns3:hr>
          </ns3:TrackPointExtension>
        </extensions>
      </trkpt>
      <trkpt lat="43.05204545147716999053955078125" lon="13.79794626496732234954833984375">
        <ele>222</ele>
        <time>2020-05-09T12:04:24.000Z</time>
        <extensions>
          <ns3:TrackPointExtension>
            <ns3:atemp>32.0</ns3:atemp>
            <ns3:hr>164</ns3:hr>
          </ns3:TrackPointExtension>
        </extensions>
      </trkpt>
      <trkpt lat="43.05205148644745349884033203125" lon="13.79792028106749057769775390625">
        <ele>222.1999969482421875</ele>
        <time>2020-05-09T12:04:25.000Z</time>
        <extensions>
          <ns3:TrackPointExtension>
            <ns3:atemp>32.0</ns3:atemp>
            <ns3:hr>164</ns3:hr>
          </ns3:TrackPointExtension>
        </extensions>
      </trkpt>
      <trkpt lat="43.0521011911332607269287109375" lon="13.797787092626094818115234375">
        <ele>223.1999969482421875</ele>
        <time>2020-05-09T12:04:31.000Z</time>
        <extensions>
          <ns3:TrackPointExtension>
            <ns3:atemp>32.0</ns3:atemp>
            <ns3:hr>163</ns3:hr>
          </ns3:TrackPointExtension>
        </extensions>
      </trkpt>
      <trkpt lat="43.05210613645613193511962890625" lon="13.7977748550474643707275390625">
        <ele>223.1999969482421875</ele>
        <time>2020-05-09T12:04:32.000Z</time>
        <extensions>
          <ns3:TrackPointExtension>
            <ns3:atemp>32.0</ns3:atemp>
            <ns3:hr>163</ns3:hr>
          </ns3:TrackPointExtension>
        </extensions>
      </trkpt>
      <trkpt lat="43.05212172679603099822998046875" lon="13.7976558320224285125732421875">
        <ele>224.1999969482421875</ele>
        <time>2020-05-09T12:04:37.000Z</time>
        <extensions>
          <ns3:TrackPointExtension>
            <ns3:atemp>32.0</ns3:atemp>
            <ns3:hr>164</ns3:hr>
          </ns3:TrackPointExtension>
        </extensions>
      </trkpt>
      <trkpt lat="43.05212725885212421417236328125" lon="13.79763118922710418701171875">
        <ele>224.600006103515625</ele>
        <time>2020-05-09T12:04:38.000Z</time>
        <extensions>
          <ns3:TrackPointExtension>
            <ns3:atemp>32.0</ns3:atemp>
            <ns3:hr>164</ns3:hr>
          </ns3:TrackPointExtension>
        </extensions>
      </trkpt>
      <trkpt lat="43.05213480256497859954833984375" lon="13.79758559167385101318359375">
        <ele>225.1999969482421875</ele>
        <time>2020-05-09T12:04:40.000Z</time>
        <extensions>
          <ns3:TrackPointExtension>
            <ns3:atemp>32.0</ns3:atemp>
            <ns3:hr>164</ns3:hr>
          </ns3:TrackPointExtension>
        </extensions>
      </trkpt>
      <trkpt lat="43.05215827189385890960693359375" lon="13.7974982522428035736083984375">
        <ele>226.1999969482421875</ele>
        <time>2020-05-09T12:04:44.000Z</time>
        <extensions>
          <ns3:TrackPointExtension>
            <ns3:atemp>32.0</ns3:atemp>
            <ns3:hr>163</ns3:hr>
          </ns3:TrackPointExtension>
        </extensions>
      </trkpt>
      <trkpt lat="43.0521645583212375640869140625" lon="13.797473944723606109619140625">
        <ele>226.600006103515625</ele>
        <time>2020-05-09T12:04:45.000Z</time>
        <extensions>
          <ns3:TrackPointExtension>
            <ns3:atemp>32.0</ns3:atemp>
            <ns3:hr>163</ns3:hr>
          </ns3:TrackPointExtension>
        </extensions>
      </trkpt>
      <trkpt lat="43.05219062604010105133056640625" lon="13.7974218092858791351318359375">
        <ele>227.1999969482421875</ele>
        <time>2020-05-09T12:04:47.000Z</time>
        <extensions>
          <ns3:TrackPointExtension>
            <ns3:atemp>32.0</ns3:atemp>
            <ns3:hr>163</ns3:hr>
          </ns3:TrackPointExtension>
        </extensions>
      </trkpt>
      <trkpt lat="43.05222071707248687744140625" lon="13.79730588756501674652099609375">
        <ele>228.399993896484375</ele>
        <time>2020-05-09T12:04:51.000Z</time>
        <extensions>
          <ns3:TrackPointExtension>
            <ns3:atemp>32.0</ns3:atemp>
            <ns3:hr>163</ns3:hr>
          </ns3:TrackPointExtension>
        </extensions>
      </trkpt>
      <trkpt lat="43.05223722942173480987548828125" lon="13.797220475971698760986328125">
        <ele>229.1999969482421875</ele>
        <time>2020-05-09T12:04:54.000Z</time>
        <extensions>
          <ns3:TrackPointExtension>
            <ns3:atemp>32.0</ns3:atemp>
            <ns3:hr>162</ns3:hr>
          </ns3:TrackPointExtension>
        </extensions>
      </trkpt>
      <trkpt lat="43.05223488248884677886962890625" lon="13.7971954979002475738525390625">
        <ele>229.600006103515625</ele>
        <time>2020-05-09T12:04:55.000Z</time>
        <extensions>
          <ns3:TrackPointExtension>
            <ns3:atemp>32.0</ns3:atemp>
            <ns3:hr>162</ns3:hr>
          </ns3:TrackPointExtension>
        </extensions>
      </trkpt>
      <trkpt lat="43.05220889858901500701904296875" lon="13.797086365520954132080078125">
        <ele>230.8000030517578125</ele>
        <time>2020-05-09T12:05:00.000Z</time>
        <extensions>
          <ns3:TrackPointExtension>
            <ns3:atemp>32.0</ns3:atemp>
            <ns3:hr>162</ns3:hr>
          </ns3:TrackPointExtension>
        </extensions>
      </trkpt>
      <trkpt lat="43.0522128380835056304931640625" lon="13.79703414626419544219970703125">
        <ele>231.399993896484375</ele>
        <time>2020-05-09T12:05:02.000Z</time>
        <extensions>
          <ns3:TrackPointExtension>
            <ns3:atemp>32.0</ns3:atemp>
            <ns3:hr>162</ns3:hr>
          </ns3:TrackPointExtension>
        </extensions>
      </trkpt>
      <trkpt lat="43.0522118322551250457763671875" lon="13.79697748459875583648681640625">
        <ele>231.8000030517578125</ele>
        <time>2020-05-09T12:05:04.000Z</time>
        <extensions>
          <ns3:TrackPointExtension>
            <ns3:atemp>32.0</ns3:atemp>
            <ns3:hr>162</ns3:hr>
          </ns3:TrackPointExtension>
        </extensions>
      </trkpt>
      <trkpt lat="43.05222432129085063934326171875" lon="13.796868436038494110107421875">
        <ele>232.8000030517578125</ele>
        <time>2020-05-09T12:05:08.000Z</time>
        <extensions>
          <ns3:TrackPointExtension>
            <ns3:atemp>32.0</ns3:atemp>
            <ns3:hr>162</ns3:hr>
          </ns3:TrackPointExtension>
        </extensions>
      </trkpt>
      <trkpt lat="43.052233792841434478759765625" lon="13.79682493396103382110595703125">
        <ele>233.399993896484375</ele>
        <time>2020-05-09T12:05:10.000Z</time>
        <extensions>
          <ns3:TrackPointExtension>
            <ns3:atemp>32.0</ns3:atemp>
            <ns3:hr>162</ns3:hr>
          </ns3:TrackPointExtension>
        </extensions>
      </trkpt>
      <trkpt lat="43.0522359721362590789794921875" lon="13.79677313379943370819091796875">
        <ele>234.1999969482421875</ele>
        <time>2020-05-09T12:05:12.000Z</time>
        <extensions>
          <ns3:TrackPointExtension>
            <ns3:atemp>32.0</ns3:atemp>
            <ns3:hr>162</ns3:hr>
          </ns3:TrackPointExtension>
        </extensions>
      </trkpt>
      <trkpt lat="43.0522369779646396636962890625" lon="13.79666785709559917449951171875">
        <ele>235.399993896484375</ele>
        <time>2020-05-09T12:05:16.000Z</time>
        <extensions>
          <ns3:TrackPointExtension>
            <ns3:atemp>32.0</ns3:atemp>
            <ns3:hr>163</ns3:hr>
          </ns3:TrackPointExtension>
        </extensions>
      </trkpt>
      <trkpt lat="43.05226287804543972015380859375" lon="13.7965953536331653594970703125">
        <ele>236.600006103515625</ele>
        <time>2020-05-09T12:05:20.000Z</time>
        <extensions>
          <ns3:TrackPointExtension>
            <ns3:atemp>32.0</ns3:atemp>
            <ns3:hr>161</ns3:hr>
          </ns3:TrackPointExtension>
        </extensions>
      </trkpt>
      <trkpt lat="43.05226924829185009002685546875" lon="13.79656509496271610260009765625">
        <ele>237</ele>
        <time>2020-05-09T12:05:22.000Z</time>
        <extensions>
          <ns3:TrackPointExtension>
            <ns3:atemp>32.0</ns3:atemp>
            <ns3:hr>160</ns3:hr>
          </ns3:TrackPointExtension>
        </extensions>
      </trkpt>
      <trkpt lat="43.05226639844477176666259765625" lon="13.7965443916618824005126953125">
        <ele>237</ele>
        <time>2020-05-09T12:05:23.000Z</time>
        <extensions>
          <ns3:TrackPointExtension>
            <ns3:atemp>32.0</ns3:atemp>
            <ns3:hr>160</ns3:hr>
          </ns3:TrackPointExtension>
        </extensions>
      </trkpt>
      <trkpt lat="43.052239157259464263916015625" lon="13.79636040888726711273193359375">
        <ele>237.399993896484375</ele>
        <time>2020-05-09T12:05:32.000Z</time>
        <extensions>
          <ns3:TrackPointExtension>
            <ns3:atemp>32.0</ns3:atemp>
            <ns3:hr>158</ns3:hr>
          </ns3:TrackPointExtension>
        </extensions>
      </trkpt>
      <trkpt lat="43.052235804498195648193359375" lon="13.79631849937140941619873046875">
        <ele>237.600006103515625</ele>
        <time>2020-05-09T12:05:34.000Z</time>
        <extensions>
          <ns3:TrackPointExtension>
            <ns3:atemp>32.0</ns3:atemp>
            <ns3:hr>158</ns3:hr>
          </ns3:TrackPointExtension>
        </extensions>
      </trkpt>
      <trkpt lat="43.05219649337232112884521484375" lon="13.79623509943485260009765625">
        <ele>237.8000030517578125</ele>
        <time>2020-05-09T12:05:38.000Z</time>
        <extensions>
          <ns3:TrackPointExtension>
            <ns3:atemp>32.0</ns3:atemp>
            <ns3:hr>157</ns3:hr>
          </ns3:TrackPointExtension>
        </extensions>
      </trkpt>
      <trkpt lat="43.05213446728885173797607421875" lon="13.79605262540280818939208984375">
        <ele>237.600006103515625</ele>
        <time>2020-05-09T12:05:46.000Z</time>
        <extensions>
          <ns3:TrackPointExtension>
            <ns3:atemp>32.0</ns3:atemp>
            <ns3:hr>156</ns3:hr>
          </ns3:TrackPointExtension>
        </extensions>
      </trkpt>
      <trkpt lat="43.052087612450122833251953125" lon="13.79588012583553791046142578125">
        <ele>238.1999969482421875</ele>
        <time>2020-05-09T12:05:51.000Z</time>
        <extensions>
          <ns3:TrackPointExtension>
            <ns3:atemp>32.0</ns3:atemp>
            <ns3:hr>155</ns3:hr>
          </ns3:TrackPointExtension>
        </extensions>
      </trkpt>
      <trkpt lat="43.0520264245569705963134765625" lon="13.79578339867293834686279296875">
        <ele>238.399993896484375</ele>
        <time>2020-05-09T12:05:57.000Z</time>
        <extensions>
          <ns3:TrackPointExtension>
            <ns3:atemp>32.0</ns3:atemp>
            <ns3:hr>153</ns3:hr>
          </ns3:TrackPointExtension>
        </extensions>
      </trkpt>
      <trkpt lat="43.0519895441830158233642578125" lon="13.79572925157845020294189453125">
        <ele>238.1999969482421875</ele>
        <time>2020-05-09T12:06:00.000Z</time>
        <extensions>
          <ns3:TrackPointExtension>
            <ns3:atemp>32.0</ns3:atemp>
            <ns3:hr>152</ns3:hr>
          </ns3:TrackPointExtension>
        </extensions>
      </trkpt>
      <trkpt lat="43.05196599103510379791259765625" lon="13.7956827320158481597900390625">
        <ele>238.399993896484375</ele>
        <time>2020-05-09T12:06:02.000Z</time>
        <extensions>
          <ns3:TrackPointExtension>
            <ns3:atemp>32.0</ns3:atemp>
            <ns3:hr>153</ns3:hr>
          </ns3:TrackPointExtension>
        </extensions>
      </trkpt>
      <trkpt lat="43.051919639110565185546875" lon="13.7956240586936473846435546875">
        <ele>238.8000030517578125</ele>
        <time>2020-05-09T12:06:05.000Z</time>
        <extensions>
          <ns3:TrackPointExtension>
            <ns3:atemp>32.0</ns3:atemp>
            <ns3:hr>150</ns3:hr>
          </ns3:TrackPointExtension>
        </extensions>
      </trkpt>
      <trkpt lat="43.05189021863043308258056640625" lon="13.79558692686259746551513671875">
        <ele>238.8000030517578125</ele>
        <time>2020-05-09T12:06:07.000Z</time>
        <extensions>
          <ns3:TrackPointExtension>
            <ns3:atemp>32.0</ns3:atemp>
            <ns3:hr>145</ns3:hr>
          </ns3:TrackPointExtension>
        </extensions>
      </trkpt>
      <trkpt lat="43.05186934769153594970703125" lon="13.795581646263599395751953125">
        <ele>239</ele>
        <time>2020-05-09T12:06:08.000Z</time>
        <extensions>
          <ns3:TrackPointExtension>
            <ns3:atemp>32.0</ns3:atemp>
            <ns3:hr>143</ns3:hr>
          </ns3:TrackPointExtension>
        </extensions>
      </trkpt>
      <trkpt lat="43.05177337490022182464599609375" lon="13.7955786287784576416015625">
        <ele>239.600006103515625</ele>
        <time>2020-05-09T12:06:12.000Z</time>
        <extensions>
          <ns3:TrackPointExtension>
            <ns3:atemp>32.0</ns3:atemp>
            <ns3:hr>140</ns3:hr>
          </ns3:TrackPointExtension>
        </extensions>
      </trkpt>
      <trkpt lat="43.05175191722810268402099609375" lon="13.795578293502330780029296875">
        <ele>239.8000030517578125</ele>
        <time>2020-05-09T12:06:13.000Z</time>
        <extensions>
          <ns3:TrackPointExtension>
            <ns3:atemp>32.0</ns3:atemp>
            <ns3:hr>139</ns3:hr>
          </ns3:TrackPointExtension>
        </extensions>
      </trkpt>
      <trkpt lat="43.0517082475125789642333984375" lon="13.79557636566460132598876953125">
        <ele>240.1999969482421875</ele>
        <time>2020-05-09T12:06:15.000Z</time>
        <extensions>
          <ns3:TrackPointExtension>
            <ns3:atemp>32.0</ns3:atemp>
            <ns3:hr>136</ns3:hr>
          </ns3:TrackPointExtension>
        </extensions>
      </trkpt>
      <trkpt lat="43.0516888014972209930419921875" lon="13.79558659158647060394287109375">
        <ele>240.399993896484375</ele>
        <time>2020-05-09T12:06:16.000Z</time>
        <extensions>
          <ns3:TrackPointExtension>
            <ns3:atemp>32.0</ns3:atemp>
            <ns3:hr>136</ns3:hr>
          </ns3:TrackPointExtension>
        </extensions>
      </trkpt>
      <trkpt lat="43.0516205728054046630859375" lon="13.79573679529130458831787109375">
        <ele>240.8000030517578125</ele>
        <time>2020-05-09T12:06:21.000Z</time>
        <extensions>
          <ns3:TrackPointExtension>
            <ns3:atemp>32.0</ns3:atemp>
            <ns3:hr>139</ns3:hr>
          </ns3:TrackPointExtension>
        </extensions>
      </trkpt>
      <trkpt lat="43.05157891474664211273193359375" lon="13.79594734869897365570068359375">
        <ele>240</ele>
        <time>2020-05-09T12:06:25.000Z</time>
        <extensions>
          <ns3:TrackPointExtension>
            <ns3:atemp>32.0</ns3:atemp>
            <ns3:hr>142</ns3:hr>
          </ns3:TrackPointExtension>
        </extensions>
      </trkpt>
      <trkpt lat="43.05153130553662776947021484375" lon="13.79608296789228916168212890625">
        <ele>240.1999969482421875</ele>
        <time>2020-05-09T12:06:28.000Z</time>
        <extensions>
          <ns3:TrackPointExtension>
            <ns3:atemp>32.0</ns3:atemp>
            <ns3:hr>147</ns3:hr>
          </ns3:TrackPointExtension>
        </extensions>
      </trkpt>
      <trkpt lat="43.051459975540637969970703125" lon="13.79618975333869457244873046875">
        <ele>241.399993896484375</ele>
        <time>2020-05-09T12:06:32.000Z</time>
        <extensions>
          <ns3:TrackPointExtension>
            <ns3:atemp>32.0</ns3:atemp>
            <ns3:hr>148</ns3:hr>
          </ns3:TrackPointExtension>
        </extensions>
      </trkpt>
      <trkpt lat="43.05142485536634922027587890625" lon="13.79622428677976131439208984375">
        <ele>242.399993896484375</ele>
        <time>2020-05-09T12:06:34.000Z</time>
        <extensions>
          <ns3:TrackPointExtension>
            <ns3:atemp>32.0</ns3:atemp>
            <ns3:hr>144</ns3:hr>
          </ns3:TrackPointExtension>
        </extensions>
      </trkpt>
      <trkpt lat="43.051402978599071502685546875" lon="13.7962282262742519378662109375">
        <ele>242.600006103515625</ele>
        <time>2020-05-09T12:06:35.000Z</time>
        <extensions>
          <ns3:TrackPointExtension>
            <ns3:atemp>32.0</ns3:atemp>
            <ns3:hr>140</ns3:hr>
          </ns3:TrackPointExtension>
        </extensions>
      </trkpt>
      <trkpt lat="43.05137255229055881500244140625" lon="13.79623912274837493896484375">
        <ele>242.600006103515625</ele>
        <time>2020-05-09T12:06:36.000Z</time>
        <extensions>
          <ns3:TrackPointExtension>
            <ns3:atemp>32.0</ns3:atemp>
            <ns3:hr>136</ns3:hr>
          </ns3:TrackPointExtension>
        </extensions>
      </trkpt>
      <trkpt lat="43.05135436356067657470703125" lon="13.7962285615503787994384765625">
        <ele>242.8000030517578125</ele>
        <time>2020-05-09T12:06:37.000Z</time>
        <extensions>
          <ns3:TrackPointExtension>
            <ns3:atemp>32.0</ns3:atemp>
            <ns3:hr>133</ns3:hr>
          </ns3:TrackPointExtension>
        </extensions>
      </trkpt>
      <trkpt lat="43.05134556256234645843505859375" lon="13.79614868201315402984619140625">
        <ele>243.600006103515625</ele>
        <time>2020-05-09T12:06:40.000Z</time>
        <extensions>
          <ns3:TrackPointExtension>
            <ns3:atemp>32.0</ns3:atemp>
            <ns3:hr>132</ns3:hr>
          </ns3:TrackPointExtension>
        </extensions>
      </trkpt>
      <trkpt lat="43.05134455673396587371826171875" lon="13.796081207692623138427734375">
        <ele>243.8000030517578125</ele>
        <time>2020-05-09T12:06:42.000Z</time>
        <extensions>
          <ns3:TrackPointExtension>
            <ns3:atemp>32.0</ns3:atemp>
            <ns3:hr>131</ns3:hr>
          </ns3:TrackPointExtension>
        </extensions>
      </trkpt>
      <trkpt lat="43.0513518489897251129150390625" lon="13.7959858216345310211181640625">
        <ele>244.600006103515625</ele>
        <time>2020-05-09T12:06:45.000Z</time>
        <extensions>
          <ns3:TrackPointExtension>
            <ns3:atemp>32.0</ns3:atemp>
            <ns3:hr>130</ns3:hr>
          </ns3:TrackPointExtension>
        </extensions>
      </trkpt>
      <trkpt lat="43.0513642542064189910888671875" lon="13.795856572687625885009765625">
        <ele>245.399993896484375</ele>
        <time>2020-05-09T12:06:49.000Z</time>
        <extensions>
          <ns3:TrackPointExtension>
            <ns3:atemp>32.0</ns3:atemp>
            <ns3:hr>132</ns3:hr>
          </ns3:TrackPointExtension>
        </extensions>
      </trkpt>
      <trkpt lat="43.0513632483780384063720703125" lon="13.79580720327794551849365234375">
        <ele>245.600006103515625</ele>
        <time>2020-05-09T12:06:51.000Z</time>
        <extensions>
          <ns3:TrackPointExtension>
            <ns3:atemp>32.0</ns3:atemp>
            <ns3:hr>132</ns3:hr>
          </ns3:TrackPointExtension>
        </extensions>
      </trkpt>
      <trkpt lat="43.05135394446551799774169921875" lon="13.79578272812068462371826171875">
        <ele>245.8000030517578125</ele>
        <time>2020-05-09T12:06:52.000Z</time>
        <extensions>
          <ns3:TrackPointExtension>
            <ns3:atemp>32.0</ns3:atemp>
            <ns3:hr>133</ns3:hr>
          </ns3:TrackPointExtension>
        </extensions>
      </trkpt>
      <trkpt lat="43.05133298970758914947509765625" lon="13.79575188271701335906982421875">
        <ele>246.1999969482421875</ele>
        <time>2020-05-09T12:06:54.000Z</time>
        <extensions>
          <ns3:TrackPointExtension>
            <ns3:atemp>32.0</ns3:atemp>
            <ns3:hr>134</ns3:hr>
          </ns3:TrackPointExtension>
        </extensions>
      </trkpt>
      <trkpt lat="43.05131941102445125579833984375" lon="13.79574484191834926605224609375">
        <ele>246.399993896484375</ele>
        <time>2020-05-09T12:06:55.000Z</time>
        <extensions>
          <ns3:TrackPointExtension>
            <ns3:atemp>32.0</ns3:atemp>
            <ns3:hr>134</ns3:hr>
          </ns3:TrackPointExtension>
        </extensions>
      </trkpt>
      <trkpt lat="43.051298372447490692138671875" lon="13.795760683715343475341796875">
        <ele>246.600006103515625</ele>
        <time>2020-05-09T12:06:57.000Z</time>
        <extensions>
          <ns3:TrackPointExtension>
            <ns3:atemp>32.0</ns3:atemp>
            <ns3:hr>134</ns3:hr>
          </ns3:TrackPointExtension>
        </extensions>
      </trkpt>
      <trkpt lat="43.051293678581714630126953125" lon="13.7957776151597499847412109375">
        <ele>246.8000030517578125</ele>
        <time>2020-05-09T12:06:58.000Z</time>
        <extensions>
          <ns3:TrackPointExtension>
            <ns3:atemp>32.0</ns3:atemp>
            <ns3:hr>133</ns3:hr>
          </ns3:TrackPointExtension>
        </extensions>
      </trkpt>
      <trkpt lat="43.05126794613897800445556640625" lon="13.795902170240879058837890625">
        <ele>247.399993896484375</ele>
        <time>2020-05-09T12:07:03.000Z</time>
        <extensions>
          <ns3:TrackPointExtension>
            <ns3:atemp>32.0</ns3:atemp>
            <ns3:hr>130</ns3:hr>
          </ns3:TrackPointExtension>
        </extensions>
      </trkpt>
      <trkpt lat="43.0512576363980770111083984375" lon="13.79592723213136196136474609375">
        <ele>247.600006103515625</ele>
        <time>2020-05-09T12:07:04.000Z</time>
        <extensions>
          <ns3:TrackPointExtension>
            <ns3:atemp>32.0</ns3:atemp>
            <ns3:hr>129</ns3:hr>
          </ns3:TrackPointExtension>
        </extensions>
      </trkpt>
      <trkpt lat="43.05123978294432163238525390625" lon="13.79597417078912258148193359375">
        <ele>247.8000030517578125</ele>
        <time>2020-05-09T12:07:06.000Z</time>
        <extensions>
          <ns3:TrackPointExtension>
            <ns3:atemp>32.0</ns3:atemp>
            <ns3:hr>129</ns3:hr>
          </ns3:TrackPointExtension>
        </extensions>
      </trkpt>
      <trkpt lat="43.05119477212429046630859375" lon="13.79615957848727703094482421875">
        <ele>248.8000030517578125</ele>
        <time>2020-05-09T12:07:13.000Z</time>
        <extensions>
          <ns3:TrackPointExtension>
            <ns3:atemp>31.0</ns3:atemp>
            <ns3:hr>130</ns3:hr>
          </ns3:TrackPointExtension>
        </extensions>
      </trkpt>
      <trkpt lat="43.051190413534641265869140625" lon="13.79618388600647449493408203125">
        <ele>249.1999969482421875</ele>
        <time>2020-05-09T12:07:14.000Z</time>
        <extensions>
          <ns3:TrackPointExtension>
            <ns3:atemp>31.0</ns3:atemp>
            <ns3:hr>131</ns3:hr>
          </ns3:TrackPointExtension>
        </extensions>
      </trkpt>
      <trkpt lat="43.051168620586395263671875" lon="13.79629938863217830657958984375">
        <ele>250</ele>
        <time>2020-05-09T12:07:18.000Z</time>
        <extensions>
          <ns3:TrackPointExtension>
            <ns3:atemp>31.0</ns3:atemp>
            <ns3:hr>136</ns3:hr>
          </ns3:TrackPointExtension>
        </extensions>
      </trkpt>
      <trkpt lat="43.0511567182838916778564453125" lon="13.79636158235371112823486328125">
        <ele>250.399993896484375</ele>
        <time>2020-05-09T12:07:20.000Z</time>
        <extensions>
          <ns3:TrackPointExtension>
            <ns3:atemp>31.0</ns3:atemp>
            <ns3:hr>136</ns3:hr>
          </ns3:TrackPointExtension>
        </extensions>
      </trkpt>
      <trkpt lat="43.0511419661343097686767578125" lon="13.79641992039978504180908203125">
        <ele>250.600006103515625</ele>
        <time>2020-05-09T12:07:22.000Z</time>
        <extensions>
          <ns3:TrackPointExtension>
            <ns3:atemp>31.0</ns3:atemp>
            <ns3:hr>139</ns3:hr>
          </ns3:TrackPointExtension>
        </extensions>
      </trkpt>
      <trkpt lat="43.0511218495666980743408203125" lon="13.79650139249861240386962890625">
        <ele>250.8000030517578125</ele>
        <time>2020-05-09T12:07:25.000Z</time>
        <extensions>
          <ns3:TrackPointExtension>
            <ns3:atemp>31.0</ns3:atemp>
            <ns3:hr>133</ns3:hr>
          </ns3:TrackPointExtension>
        </extensions>
      </trkpt>
      <trkpt lat="43.05111430585384368896484375" lon="13.79653458483517169952392578125">
        <ele>250.8000030517578125</ele>
        <time>2020-05-09T12:07:26.000Z</time>
        <extensions>
          <ns3:TrackPointExtension>
            <ns3:atemp>31.0</ns3:atemp>
            <ns3:hr>133</ns3:hr>
          </ns3:TrackPointExtension>
        </extensions>
      </trkpt>
      <trkpt lat="43.05110952816903591156005859375" lon="13.79658915102481842041015625">
        <ele>250.8000030517578125</ele>
        <time>2020-05-09T12:07:28.000Z</time>
        <extensions>
          <ns3:TrackPointExtension>
            <ns3:atemp>31.0</ns3:atemp>
            <ns3:hr>134</ns3:hr>
          </ns3:TrackPointExtension>
        </extensions>
      </trkpt>
      <trkpt lat="43.05107968859374523162841796875" lon="13.796591497957706451416015625">
        <ele>250.8000030517578125</ele>
        <time>2020-05-09T12:07:29.000Z</time>
        <extensions>
          <ns3:TrackPointExtension>
            <ns3:atemp>31.0</ns3:atemp>
            <ns3:hr>134</ns3:hr>
          </ns3:TrackPointExtension>
        </extensions>
      </trkpt>
      <trkpt lat="43.0510532855987548828125" lon="13.79663474857807159423828125">
        <ele>250.600006103515625</ele>
        <time>2020-05-09T12:07:31.000Z</time>
        <extensions>
          <ns3:TrackPointExtension>
            <ns3:atemp>31.0</ns3:atemp>
            <ns3:hr>134</ns3:hr>
          </ns3:TrackPointExtension>
        </extensions>
      </trkpt>
      <trkpt lat="43.05103392340242862701416015625" lon="13.79669400863349437713623046875">
        <ele>250.1999969482421875</ele>
        <time>2020-05-09T12:07:33.000Z</time>
        <extensions>
          <ns3:TrackPointExtension>
            <ns3:atemp>31.0</ns3:atemp>
            <ns3:hr>134</ns3:hr>
          </ns3:TrackPointExtension>
        </extensions>
      </trkpt>
      <trkpt lat="43.0509944446384906768798828125" lon="13.79681420512497425079345703125">
        <ele>249.600006103515625</ele>
        <time>2020-05-09T12:07:36.000Z</time>
        <extensions>
          <ns3:TrackPointExtension>
            <ns3:atemp>31.0</ns3:atemp>
            <ns3:hr>133</ns3:hr>
          </ns3:TrackPointExtension>
        </extensions>
      </trkpt>
      <trkpt lat="43.0509951151907444000244140625" lon="13.79687857814133167266845703125">
        <ele>249.399993896484375</ele>
        <time>2020-05-09T12:07:38.000Z</time>
        <extensions>
          <ns3:TrackPointExtension>
            <ns3:atemp>31.0</ns3:atemp>
            <ns3:hr>130</ns3:hr>
          </ns3:TrackPointExtension>
        </extensions>
      </trkpt>
      <trkpt lat="43.050959743559360504150390625" lon="13.796975053846836090087890625">
        <ele>249.399993896484375</ele>
        <time>2020-05-09T12:07:41.000Z</time>
        <extensions>
          <ns3:TrackPointExtension>
            <ns3:atemp>31.0</ns3:atemp>
            <ns3:hr>127</ns3:hr>
          </ns3:TrackPointExtension>
        </extensions>
      </trkpt>
      <trkpt lat="43.0509478412568569183349609375" lon="13.79700229503214359283447265625">
        <ele>249.1999969482421875</ele>
        <time>2020-05-09T12:07:42.000Z</time>
        <extensions>
          <ns3:TrackPointExtension>
            <ns3:atemp>31.0</ns3:atemp>
            <ns3:hr>126</ns3:hr>
          </ns3:TrackPointExtension>
        </extensions>
      </trkpt>
      <trkpt lat="43.05092923343181610107421875" lon="13.79702693782746791839599609375">
        <ele>248.8000030517578125</ele>
        <time>2020-05-09T12:07:43.000Z</time>
        <extensions>
          <ns3:TrackPointExtension>
            <ns3:atemp>31.0</ns3:atemp>
            <ns3:hr>125</ns3:hr>
          </ns3:TrackPointExtension>
        </extensions>
      </trkpt>
      <trkpt lat="43.050843738019466400146484375" lon="13.79714311100542545318603515625">
        <ele>248.1999969482421875</ele>
        <time>2020-05-09T12:07:47.000Z</time>
        <extensions>
          <ns3:TrackPointExtension>
            <ns3:atemp>31.0</ns3:atemp>
            <ns3:hr>123</ns3:hr>
          </ns3:TrackPointExtension>
        </extensions>
      </trkpt>
      <trkpt lat="43.05081834085285663604736328125" lon="13.797184936702251434326171875">
        <ele>248</ele>
        <time>2020-05-09T12:07:48.000Z</time>
        <extensions>
          <ns3:TrackPointExtension>
            <ns3:atemp>31.0</ns3:atemp>
            <ns3:hr>123</ns3:hr>
          </ns3:TrackPointExtension>
        </extensions>
      </trkpt>
      <trkpt lat="43.05074642412364482879638671875" lon="13.79741032607853412628173828125">
        <ele>247.1999969482421875</ele>
        <time>2020-05-09T12:07:54.000Z</time>
        <extensions>
          <ns3:TrackPointExtension>
            <ns3:atemp>31.0</ns3:atemp>
            <ns3:hr>123</ns3:hr>
          </ns3:TrackPointExtension>
        </extensions>
      </trkpt>
      <trkpt lat="43.05073351599276065826416015625" lon="13.79745039157569408416748046875">
        <ele>247</ele>
        <time>2020-05-09T12:07:55.000Z</time>
        <extensions>
          <ns3:TrackPointExtension>
            <ns3:atemp>31.0</ns3:atemp>
            <ns3:hr>122</ns3:hr>
          </ns3:TrackPointExtension>
        </extensions>
      </trkpt>
      <trkpt lat="43.05067836306989192962646484375" lon="13.7976169399917125701904296875">
        <ele>245.600006103515625</ele>
        <time>2020-05-09T12:08:00.000Z</time>
        <extensions>
          <ns3:TrackPointExtension>
            <ns3:atemp>31.0</ns3:atemp>
            <ns3:hr>121</ns3:hr>
          </ns3:TrackPointExtension>
        </extensions>
      </trkpt>
      <trkpt lat="43.05064491927623748779296875" lon="13.79776404239237308502197265625">
        <ele>244.1999969482421875</ele>
        <time>2020-05-09T12:08:03.000Z</time>
        <extensions>
          <ns3:TrackPointExtension>
            <ns3:atemp>31.0</ns3:atemp>
            <ns3:hr>122</ns3:hr>
          </ns3:TrackPointExtension>
        </extensions>
      </trkpt>
      <trkpt lat="43.05059839971363544464111328125" lon="13.79783227108418941497802734375">
        <ele>242.8000030517578125</ele>
        <time>2020-05-09T12:08:05.000Z</time>
        <extensions>
          <ns3:TrackPointExtension>
            <ns3:atemp>31.0</ns3:atemp>
            <ns3:hr>123</ns3:hr>
          </ns3:TrackPointExtension>
        </extensions>
      </trkpt>
      <trkpt lat="43.050557412207126617431640625" lon="13.79792681895196437835693359375">
        <ele>242</ele>
        <time>2020-05-09T12:08:08.000Z</time>
        <extensions>
          <ns3:TrackPointExtension>
            <ns3:atemp>31.0</ns3:atemp>
            <ns3:hr>127</ns3:hr>
          </ns3:TrackPointExtension>
        </extensions>
      </trkpt>
      <trkpt lat="43.05054542608559131622314453125" lon="13.7979227118194103240966796875">
        <ele>242</ele>
        <time>2020-05-09T12:08:09.000Z</time>
        <extensions>
          <ns3:TrackPointExtension>
            <ns3:atemp>31.0</ns3:atemp>
            <ns3:hr>125</ns3:hr>
          </ns3:TrackPointExtension>
        </extensions>
      </trkpt>
      <trkpt lat="43.05052748881280422210693359375" lon="13.7979207001626491546630859375">
        <ele>242</ele>
        <time>2020-05-09T12:08:10.000Z</time>
        <extensions>
          <ns3:TrackPointExtension>
            <ns3:atemp>31.0</ns3:atemp>
            <ns3:hr>126</ns3:hr>
          </ns3:TrackPointExtension>
        </extensions>
      </trkpt>
      <trkpt lat="43.05042305029928684234619140625" lon="13.79787392914295196533203125">
        <ele>242.399993896484375</ele>
        <time>2020-05-09T12:08:16.000Z</time>
        <extensions>
          <ns3:TrackPointExtension>
            <ns3:atemp>31.0</ns3:atemp>
            <ns3:hr>129</ns3:hr>
          </ns3:TrackPointExtension>
        </extensions>
      </trkpt>
      <trkpt lat="43.05033244192600250244140625" lon="13.7977212108671665191650390625">
        <ele>242.1999969482421875</ele>
        <time>2020-05-09T12:08:21.000Z</time>
        <extensions>
          <ns3:TrackPointExtension>
            <ns3:atemp>31.0</ns3:atemp>
            <ns3:hr>130</ns3:hr>
          </ns3:TrackPointExtension>
        </extensions>
      </trkpt>
      <trkpt lat="43.05029489099979400634765625" lon="13.79763077013194561004638671875">
        <ele>241.600006103515625</ele>
        <time>2020-05-09T12:08:23.000Z</time>
        <extensions>
          <ns3:TrackPointExtension>
            <ns3:atemp>31.0</ns3:atemp>
            <ns3:hr>128</ns3:hr>
          </ns3:TrackPointExtension>
        </extensions>
      </trkpt>
      <trkpt lat="43.05025071837007999420166015625" lon="13.7974794767796993255615234375">
        <ele>240.8000030517578125</ele>
        <time>2020-05-09T12:08:26.000Z</time>
        <extensions>
          <ns3:TrackPointExtension>
            <ns3:atemp>31.0</ns3:atemp>
            <ns3:hr>126</ns3:hr>
          </ns3:TrackPointExtension>
        </extensions>
      </trkpt>
      <trkpt lat="43.050256334245204925537109375" lon="13.7974140979349613189697265625">
        <ele>240.399993896484375</ele>
        <time>2020-05-09T12:08:27.000Z</time>
        <extensions>
          <ns3:TrackPointExtension>
            <ns3:atemp>31.0</ns3:atemp>
            <ns3:hr>126</ns3:hr>
          </ns3:TrackPointExtension>
        </extensions>
      </trkpt>
      <trkpt lat="43.0502451024949550628662109375" lon="13.797373361885547637939453125">
        <ele>240</ele>
        <time>2020-05-09T12:08:28.000Z</time>
        <extensions>
          <ns3:TrackPointExtension>
            <ns3:atemp>31.0</ns3:atemp>
            <ns3:hr>126</ns3:hr>
          </ns3:TrackPointExtension>
        </extensions>
      </trkpt>
      <trkpt lat="43.05021601729094982147216796875" lon="13.79734553396701812744140625">
        <ele>239.399993896484375</ele>
        <time>2020-05-09T12:08:29.000Z</time>
        <extensions>
          <ns3:TrackPointExtension>
            <ns3:atemp>30.0</ns3:atemp>
            <ns3:hr>126</ns3:hr>
          </ns3:TrackPointExtension>
        </extensions>
      </trkpt>
      <trkpt lat="43.05017419159412384033203125" lon="13.797329105436801910400390625">
        <ele>239</ele>
        <time>2020-05-09T12:08:30.000Z</time>
        <extensions>
          <ns3:TrackPointExtension>
            <ns3:atemp>30.0</ns3:atemp>
            <ns3:hr>125</ns3:hr>
          </ns3:TrackPointExtension>
        </extensions>
      </trkpt>
      <trkpt lat="43.05011308752000331878662109375" lon="13.797351233661174774169921875">
        <ele>238</ele>
        <time>2020-05-09T12:08:32.000Z</time>
        <extensions>
          <ns3:TrackPointExtension>
            <ns3:atemp>30.0</ns3:atemp>
            <ns3:hr>126</ns3:hr>
          </ns3:TrackPointExtension>
        </extensions>
      </trkpt>
      <trkpt lat="43.0500863492488861083984375" lon="13.7973802350461483001708984375">
        <ele>237.399993896484375</ele>
        <time>2020-05-09T12:08:33.000Z</time>
        <extensions>
          <ns3:TrackPointExtension>
            <ns3:atemp>30.0</ns3:atemp>
            <ns3:hr>124</ns3:hr>
          </ns3:TrackPointExtension>
        </extensions>
      </trkpt>
      <trkpt lat="43.050061203539371490478515625" lon="13.79742256365716457366943359375">
        <ele>236.8000030517578125</ele>
        <time>2020-05-09T12:08:34.000Z</time>
        <extensions>
          <ns3:TrackPointExtension>
            <ns3:atemp>30.0</ns3:atemp>
            <ns3:hr>123</ns3:hr>
          </ns3:TrackPointExtension>
        </extensions>
      </trkpt>
      <trkpt lat="43.05004016496241092681884765625" lon="13.79746799357235431671142578125">
        <ele>236</ele>
        <time>2020-05-09T12:08:35.000Z</time>
        <extensions>
          <ns3:TrackPointExtension>
            <ns3:atemp>30.0</ns3:atemp>
            <ns3:hr>125</ns3:hr>
          </ns3:TrackPointExtension>
        </extensions>
      </trkpt>
      <trkpt lat="43.0500338785350322723388671875" lon="13.79752147011458873748779296875">
        <ele>235.399993896484375</ele>
        <time>2020-05-09T12:08:36.000Z</time>
        <extensions>
          <ns3:TrackPointExtension>
            <ns3:atemp>30.0</ns3:atemp>
            <ns3:hr>125</ns3:hr>
          </ns3:TrackPointExtension>
        </extensions>
      </trkpt>
      <trkpt lat="43.0500365607440471649169921875" lon="13.797586597502231597900390625">
        <ele>234.600006103515625</ele>
        <time>2020-05-09T12:08:37.000Z</time>
        <extensions>
          <ns3:TrackPointExtension>
            <ns3:atemp>30.0</ns3:atemp>
            <ns3:hr>125</ns3:hr>
          </ns3:TrackPointExtension>
        </extensions>
      </trkpt>
      <trkpt lat="43.05005106143653392791748046875" lon="13.79765608347952365875244140625">
        <ele>233.8000030517578125</ele>
        <time>2020-05-09T12:08:38.000Z</time>
        <extensions>
          <ns3:TrackPointExtension>
            <ns3:atemp>30.0</ns3:atemp>
            <ns3:hr>124</ns3:hr>
          </ns3:TrackPointExtension>
        </extensions>
      </trkpt>
      <trkpt lat="43.0500717647373676300048828125" lon="13.79772833548486232757568359375">
        <ele>232.8000030517578125</ele>
        <time>2020-05-09T12:08:39.000Z</time>
        <extensions>
          <ns3:TrackPointExtension>
            <ns3:atemp>30.0</ns3:atemp>
            <ns3:hr>125</ns3:hr>
          </ns3:TrackPointExtension>
        </extensions>
      </trkpt>
      <trkpt lat="43.0500757880508899688720703125" lon="13.79779740236699581146240234375">
        <ele>232.1999969482421875</ele>
        <time>2020-05-09T12:08:40.000Z</time>
        <extensions>
          <ns3:TrackPointExtension>
            <ns3:atemp>30.0</ns3:atemp>
            <ns3:hr>124</ns3:hr>
          </ns3:TrackPointExtension>
        </extensions>
      </trkpt>
      <trkpt lat="43.0500083975493907928466796875" lon="13.7978690676391124725341796875">
        <ele>231</ele>
        <time>2020-05-09T12:08:42.000Z</time>
        <extensions>
          <ns3:TrackPointExtension>
            <ns3:atemp>30.0</ns3:atemp>
            <ns3:hr>123</ns3:hr>
          </ns3:TrackPointExtension>
        </extensions>
      </trkpt>
      <trkpt lat="43.04996221326291561126708984375" lon="13.79787166602909564971923828125">
        <ele>230.399993896484375</ele>
        <time>2020-05-09T12:08:43.000Z</time>
        <extensions>
          <ns3:TrackPointExtension>
            <ns3:atemp>30.0</ns3:atemp>
            <ns3:hr>121</ns3:hr>
          </ns3:TrackPointExtension>
        </extensions>
      </trkpt>
      <trkpt lat="43.04991535842418670654296875" lon="13.797860182821750640869140625">
        <ele>230</ele>
        <time>2020-05-09T12:08:44.000Z</time>
        <extensions>
          <ns3:TrackPointExtension>
            <ns3:atemp>30.0</ns3:atemp>
            <ns3:hr>122</ns3:hr>
          </ns3:TrackPointExtension>
        </extensions>
      </trkpt>
      <trkpt lat="43.0498771369457244873046875" lon="13.79784517921507358551025390625">
        <ele>229.1999969482421875</ele>
        <time>2020-05-09T12:08:45.000Z</time>
        <extensions>
          <ns3:TrackPointExtension>
            <ns3:atemp>30.0</ns3:atemp>
            <ns3:hr>124</ns3:hr>
          </ns3:TrackPointExtension>
        </extensions>
      </trkpt>
      <trkpt lat="43.04984402842819690704345703125" lon="13.79782556556165218353271484375">
        <ele>228.600006103515625</ele>
        <time>2020-05-09T12:08:46.000Z</time>
        <extensions>
          <ns3:TrackPointExtension>
            <ns3:atemp>30.0</ns3:atemp>
            <ns3:hr>122</ns3:hr>
          </ns3:TrackPointExtension>
        </extensions>
      </trkpt>
      <trkpt lat="43.04979197680950164794921875" lon="13.79780008457601070404052734375">
        <ele>227.600006103515625</ele>
        <time>2020-05-09T12:08:48.000Z</time>
        <extensions>
          <ns3:TrackPointExtension>
            <ns3:atemp>30.0</ns3:atemp>
            <ns3:hr>121</ns3:hr>
          </ns3:TrackPointExtension>
        </extensions>
      </trkpt>
      <trkpt lat="43.04978015832602977752685546875" lon="13.79778139293193817138671875">
        <ele>227.1999969482421875</ele>
        <time>2020-05-09T12:08:49.000Z</time>
        <extensions>
          <ns3:TrackPointExtension>
            <ns3:atemp>30.0</ns3:atemp>
            <ns3:hr>122</ns3:hr>
          </ns3:TrackPointExtension>
        </extensions>
      </trkpt>
      <trkpt lat="43.04977320134639739990234375" lon="13.7977024354040622711181640625">
        <ele>226.600006103515625</ele>
        <time>2020-05-09T12:08:53.000Z</time>
        <extensions>
          <ns3:TrackPointExtension>
            <ns3:atemp>30.0</ns3:atemp>
            <ns3:hr>124</ns3:hr>
          </ns3:TrackPointExtension>
        </extensions>
      </trkpt>
      <trkpt lat="43.049772866070270538330078125" lon="13.7976948916912078857421875">
        <ele>226.399993896484375</ele>
        <time>2020-05-09T12:08:54.000Z</time>
        <extensions>
          <ns3:TrackPointExtension>
            <ns3:atemp>30.0</ns3:atemp>
            <ns3:hr>124</ns3:hr>
          </ns3:TrackPointExtension>
        </extensions>
      </trkpt>
      <trkpt lat="43.04977462626993656158447265625" lon="13.7976876832544803619384765625">
        <ele>226.1999969482421875</ele>
        <time>2020-05-09T12:08:58.000Z</time>
        <extensions>
          <ns3:TrackPointExtension>
            <ns3:atemp>30.0</ns3:atemp>
            <ns3:hr>127</ns3:hr>
          </ns3:TrackPointExtension>
        </extensions>
      </trkpt>
      <trkpt lat="43.0497757159173488616943359375" lon="13.79769028164446353912353515625">
        <ele>226.1999969482421875</ele>
        <time>2020-05-09T12:09:00.000Z</time>
        <extensions>
          <ns3:TrackPointExtension>
            <ns3:atemp>30.0</ns3:atemp>
            <ns3:hr>127</ns3:hr>
          </ns3:TrackPointExtension>
        </extensions>
      </trkpt>
      <trkpt lat="43.04976490326225757598876953125" lon="13.7976980768144130706787109375">
        <ele>226.399993896484375</ele>
        <time>2020-05-09T12:09:04.000Z</time>
        <extensions>
          <ns3:TrackPointExtension>
            <ns3:atemp>30.0</ns3:atemp>
            <ns3:hr>130</ns3:hr>
          </ns3:TrackPointExtension>
        </extensions>
      </trkpt>
      <trkpt lat="43.04976004175841808319091796875" lon="13.79769899882376194000244140625">
        <ele>226.399993896484375</ele>
        <time>2020-05-09T12:09:07.000Z</time>
        <extensions>
          <ns3:TrackPointExtension>
            <ns3:atemp>30.0</ns3:atemp>
            <ns3:hr>131</ns3:hr>
          </ns3:TrackPointExtension>
        </extensions>
      </trkpt>
      <trkpt lat="43.04975987412035465240478515625" lon="13.79769866354763507843017578125">
        <ele>226.399993896484375</ele>
        <time>2020-05-09T12:09:08.000Z</time>
        <extensions>
          <ns3:TrackPointExtension>
            <ns3:atemp>30.0</ns3:atemp>
            <ns3:hr>134</ns3:hr>
          </ns3:TrackPointExtension>
        </extensions>
      </trkpt>
      <trkpt lat="43.0497562699019908905029296875" lon="13.79770092666149139404296875">
        <ele>226.8000030517578125</ele>
        <time>2020-05-09T12:09:16.000Z</time>
        <extensions>
          <ns3:TrackPointExtension>
            <ns3:atemp>30.0</ns3:atemp>
            <ns3:hr>131</ns3:hr>
          </ns3:TrackPointExtension>
        </extensions>
      </trkpt>
      <trkpt lat="43.04975534789264202117919921875" lon="13.79770101048052310943603515625">
        <ele>226.8000030517578125</ele>
        <time>2020-05-09T12:09:18.000Z</time>
        <extensions>
          <ns3:TrackPointExtension>
            <ns3:atemp>30.0</ns3:atemp>
            <ns3:hr>129</ns3:hr>
          </ns3:TrackPointExtension>
        </extensions>
      </trkpt>
      <trkpt lat="43.04975367151200771331787109375" lon="13.79770050756633281707763671875">
        <ele>226.399993896484375</ele>
        <time>2020-05-09T12:09:23.000Z</time>
        <extensions>
          <ns3:TrackPointExtension>
            <ns3:atemp>30.0</ns3:atemp>
            <ns3:hr>125</ns3:hr>
          </ns3:TrackPointExtension>
        </extensions>
      </trkpt>
      <trkpt lat="43.049753420054912567138671875" lon="13.7977002561092376708984375">
        <ele>226.600006103515625</ele>
        <time>2020-05-09T12:09:24.000Z</time>
        <extensions>
          <ns3:TrackPointExtension>
            <ns3:atemp>30.0</ns3:atemp>
            <ns3:hr>119</ns3:hr>
          </ns3:TrackPointExtension>
        </extensions>
      </trkpt>
      <trkpt lat="43.04975316859781742095947265625" lon="13.79770000465214252471923828125">
        <ele>226.600006103515625</ele>
        <time>2020-05-09T12:09:25.000Z</time>
        <extensions>
          <ns3:TrackPointExtension>
            <ns3:atemp>30.0</ns3:atemp>
            <ns3:hr>115</ns3:hr>
          </ns3:TrackPointExtension>
        </extensions>
      </trkpt>
      <trkpt lat="43.04975300095975399017333984375" lon="13.79769983701407909393310546875">
        <ele>226.600006103515625</ele>
        <time>2020-05-09T12:09:26.000Z</time>
        <extensions>
          <ns3:TrackPointExtension>
            <ns3:atemp>30.0</ns3:atemp>
            <ns3:hr>110</ns3:hr>
          </ns3:TrackPointExtension>
        </extensions>
      </trkpt>
      <trkpt lat="43.0497529171407222747802734375" lon="13.79769958555698394775390625">
        <ele>226.600006103515625</ele>
        <time>2020-05-09T12:09:27.000Z</time>
        <extensions>
          <ns3:TrackPointExtension>
            <ns3:atemp>30.0</ns3:atemp>
            <ns3:hr>105</ns3:hr>
          </ns3:TrackPointExtension>
        </extensions>
      </trkpt>
      <trkpt lat="43.04975266568362712860107421875" lon="13.797699250280857086181640625">
        <ele>226.399993896484375</ele>
        <time>2020-05-09T12:09:28.000Z</time>
        <extensions>
          <ns3:TrackPointExtension>
            <ns3:atemp>30.0</ns3:atemp>
            <ns3:hr>100</ns3:hr>
          </ns3:TrackPointExtension>
        </extensions>
      </trkpt>
      <trkpt lat="43.04975249804556369781494140625" lon="13.79769899882376194000244140625">
        <ele>226.399993896484375</ele>
        <time>2020-05-09T12:09:29.000Z</time>
        <extensions>
          <ns3:TrackPointExtension>
            <ns3:atemp>30.0</ns3:atemp>
            <ns3:hr>95</ns3:hr>
          </ns3:TrackPointExtension>
        </extensions>
      </trkpt>
      <trkpt lat="43.04975199513137340545654296875" lon="13.7976980768144130706787109375">
        <ele>226.1999969482421875</ele>
        <time>2020-05-09T12:09:33.000Z</time>
        <extensions>
          <ns3:TrackPointExtension>
            <ns3:atemp>30.0</ns3:atemp>
            <ns3:hr>97</ns3:hr>
          </ns3:TrackPointExtension>
        </extensions>
      </trkpt>
      <trkpt lat="43.0497519113123416900634765625" lon="13.7976977415382862091064453125">
        <ele>226.1999969482421875</ele>
        <time>2020-05-09T12:09:34.000Z</time>
        <extensions>
          <ns3:TrackPointExtension>
            <ns3:atemp>30.0</ns3:atemp>
            <ns3:hr>94</ns3:hr>
          </ns3:TrackPointExtension>
        </extensions>
      </trkpt>
      <trkpt lat="43.04975182749330997467041015625" lon="13.79769749008119106292724609375">
        <ele>226.1999969482421875</ele>
        <time>2020-05-09T12:09:35.000Z</time>
        <extensions>
          <ns3:TrackPointExtension>
            <ns3:atemp>30.0</ns3:atemp>
            <ns3:hr>90</ns3:hr>
          </ns3:TrackPointExtension>
        </extensions>
      </trkpt>
      <trkpt lat="43.04975165985524654388427734375" lon="13.797697238624095916748046875">
        <ele>226.1999969482421875</ele>
        <time>2020-05-09T12:09:36.000Z</time>
        <extensions>
          <ns3:TrackPointExtension>
            <ns3:atemp>30.0</ns3:atemp>
            <ns3:hr>90</ns3:hr>
          </ns3:TrackPointExtension>
        </extensions>
      </trkpt>
      <trkpt lat="43.04975098930299282073974609375" lon="13.79769631661474704742431640625">
        <ele>226.1999969482421875</ele>
        <time>2020-05-09T12:09:40.000Z</time>
        <extensions>
          <ns3:TrackPointExtension>
            <ns3:atemp>30.0</ns3:atemp>
            <ns3:hr>94</ns3:hr>
          </ns3:TrackPointExtension>
        </extensions>
      </trkpt>
      <trkpt lat="43.04974093101918697357177734375" lon="13.79770302213728427886962890625">
        <ele>226.399993896484375</ele>
        <time>2020-05-09T12:09:46.000Z</time>
        <extensions>
          <ns3:TrackPointExtension>
            <ns3:atemp>30.0</ns3:atemp>
            <ns3:hr>93</ns3:hr>
          </ns3:TrackPointExtension>
        </extensions>
      </trkpt>
      <trkpt lat="43.0497093312442302703857421875" lon="13.79771643318235874176025390625">
        <ele>226.399993896484375</ele>
        <time>2020-05-09T12:09:48.000Z</time>
        <extensions>
          <ns3:TrackPointExtension>
            <ns3:atemp>30.0</ns3:atemp>
            <ns3:hr>93</ns3:hr>
          </ns3:TrackPointExtension>
        </extensions>
      </trkpt>
      <trkpt lat="43.04957605898380279541015625" lon="13.7977587617933750152587890625">
        <ele>225.8000030517578125</ele>
        <time>2020-05-09T12:09:53.000Z</time>
        <extensions>
          <ns3:TrackPointExtension>
            <ns3:atemp>30.0</ns3:atemp>
            <ns3:hr>93</ns3:hr>
          </ns3:TrackPointExtension>
        </extensions>
      </trkpt>
      <trkpt lat="43.04950623773038387298583984375" lon="13.79778902046382427215576171875">
        <ele>225.1999969482421875</ele>
        <time>2020-05-09T12:09:55.000Z</time>
        <extensions>
          <ns3:TrackPointExtension>
            <ns3:atemp>30.0</ns3:atemp>
            <ns3:hr>93</ns3:hr>
          </ns3:TrackPointExtension>
        </extensions>
      </trkpt>
      <trkpt lat="43.04936625994741916656494140625" lon="13.79788071848452091217041015625">
        <ele>223.8000030517578125</ele>
        <time>2020-05-09T12:09:59.000Z</time>
        <extensions>
          <ns3:TrackPointExtension>
            <ns3:atemp>30.0</ns3:atemp>
            <ns3:hr>94</ns3:hr>
          </ns3:TrackPointExtension>
        </extensions>
      </trkpt>
      <trkpt lat="43.04915855638682842254638671875" lon="13.79803678952157497406005859375">
        <ele>223.600006103515625</ele>
        <time>2020-05-09T12:10:06.000Z</time>
        <extensions>
          <ns3:TrackPointExtension>
            <ns3:atemp>30.0</ns3:atemp>
            <ns3:hr>95</ns3:hr>
          </ns3:TrackPointExtension>
        </extensions>
      </trkpt>
      <trkpt lat="43.04913978092372417449951171875" lon="13.79806595854461193084716796875">
        <ele>223.8000030517578125</ele>
        <time>2020-05-09T12:10:07.000Z</time>
        <extensions>
          <ns3:TrackPointExtension>
            <ns3:atemp>30.0</ns3:atemp>
            <ns3:hr>91</ns3:hr>
          </ns3:TrackPointExtension>
        </extensions>
      </trkpt>
      <trkpt lat="43.0491073429584503173828125" lon="13.7981339357793331146240234375">
        <ele>224.1999969482421875</ele>
        <time>2020-05-09T12:10:09.000Z</time>
        <extensions>
          <ns3:TrackPointExtension>
            <ns3:atemp>30.0</ns3:atemp>
            <ns3:hr>94</ns3:hr>
          </ns3:TrackPointExtension>
        </extensions>
      </trkpt>
      <trkpt lat="43.04906367324292659759521484375" lon="13.7982338480651378631591796875">
        <ele>224.600006103515625</ele>
        <time>2020-05-09T12:10:12.000Z</time>
        <extensions>
          <ns3:TrackPointExtension>
            <ns3:atemp>30.0</ns3:atemp>
            <ns3:hr>98</ns3:hr>
          </ns3:TrackPointExtension>
        </extensions>
      </trkpt>
      <trkpt lat="43.0490161478519439697265625" lon="13.79835563711822032928466796875">
        <ele>224.8000030517578125</ele>
        <time>2020-05-09T12:10:15.000Z</time>
        <extensions>
          <ns3:TrackPointExtension>
            <ns3:atemp>30.0</ns3:atemp>
            <ns3:hr>101</ns3:hr>
          </ns3:TrackPointExtension>
        </extensions>
      </trkpt>
      <trkpt lat="43.049004413187503814697265625" lon="13.79839888773858547210693359375">
        <ele>225</ele>
        <time>2020-05-09T12:10:16.000Z</time>
        <extensions>
          <ns3:TrackPointExtension>
            <ns3:atemp>30.0</ns3:atemp>
            <ns3:hr>101</ns3:hr>
          </ns3:TrackPointExtension>
        </extensions>
      </trkpt>
      <trkpt lat="43.048961497843265533447265625" lon="13.79857541061937808990478515625">
        <ele>226</ele>
        <time>2020-05-09T12:10:20.000Z</time>
        <extensions>
          <ns3:TrackPointExtension>
            <ns3:atemp>30.0</ns3:atemp>
            <ns3:hr>103</ns3:hr>
          </ns3:TrackPointExtension>
        </extensions>
      </trkpt>
      <trkpt lat="43.0489499308168888092041015625" lon="13.7986174039542675018310546875">
        <ele>226</ele>
        <time>2020-05-09T12:10:21.000Z</time>
        <extensions>
          <ns3:TrackPointExtension>
            <ns3:atemp>30.0</ns3:atemp>
            <ns3:hr>104</ns3:hr>
          </ns3:TrackPointExtension>
        </extensions>
      </trkpt>
      <trkpt lat="43.048901818692684173583984375" lon="13.79879166372120380401611328125">
        <ele>226.399993896484375</ele>
        <time>2020-05-09T12:10:25.000Z</time>
        <extensions>
          <ns3:TrackPointExtension>
            <ns3:atemp>30.0</ns3:atemp>
            <ns3:hr>107</ns3:hr>
          </ns3:TrackPointExtension>
        </extensions>
      </trkpt>
      <trkpt lat="43.04885580204427242279052734375" lon="13.79896801896393299102783203125">
        <ele>227.1999969482421875</ele>
        <time>2020-05-09T12:10:29.000Z</time>
        <extensions>
          <ns3:TrackPointExtension>
            <ns3:atemp>30.0</ns3:atemp>
            <ns3:hr>108</ns3:hr>
          </ns3:TrackPointExtension>
        </extensions>
      </trkpt>
      <trkpt lat="43.04880752228200435638427734375" lon="13.799140267074108123779296875">
        <ele>227.600006103515625</ele>
        <time>2020-05-09T12:10:33.000Z</time>
        <extensions>
          <ns3:TrackPointExtension>
            <ns3:atemp>30.0</ns3:atemp>
            <ns3:hr>111</ns3:hr>
          </ns3:TrackPointExtension>
        </extensions>
      </trkpt>
      <trkpt lat="43.0487827956676483154296875" lon="13.79922785796225070953369140625">
        <ele>227.600006103515625</ele>
        <time>2020-05-09T12:10:35.000Z</time>
        <extensions>
          <ns3:TrackPointExtension>
            <ns3:atemp>30.0</ns3:atemp>
            <ns3:hr>114</ns3:hr>
          </ns3:TrackPointExtension>
        </extensions>
      </trkpt>
      <trkpt lat="43.04874884895980358123779296875" lon="13.7993578612804412841796875">
        <ele>228</ele>
        <time>2020-05-09T12:10:38.000Z</time>
        <extensions>
          <ns3:TrackPointExtension>
            <ns3:atemp>30.0</ns3:atemp>
            <ns3:hr>118</ns3:hr>
          </ns3:TrackPointExtension>
        </extensions>
      </trkpt>
      <trkpt lat="43.048738539218902587890625" lon="13.79940211772918701171875">
        <ele>228.399993896484375</ele>
        <time>2020-05-09T12:10:39.000Z</time>
        <extensions>
          <ns3:TrackPointExtension>
            <ns3:atemp>30.0</ns3:atemp>
            <ns3:hr>119</ns3:hr>
          </ns3:TrackPointExtension>
        </extensions>
      </trkpt>
      <trkpt lat="43.04868984036147594451904296875" lon="13.79958710633218288421630859375">
        <ele>229</ele>
        <time>2020-05-09T12:10:43.000Z</time>
        <extensions>
          <ns3:TrackPointExtension>
            <ns3:atemp>30.0</ns3:atemp>
            <ns3:hr>122</ns3:hr>
          </ns3:TrackPointExtension>
        </extensions>
      </trkpt>
      <trkpt lat="43.0486629344522953033447265625" lon="13.79972054623067378997802734375">
        <ele>229.399993896484375</ele>
        <time>2020-05-09T12:10:46.000Z</time>
        <extensions>
          <ns3:TrackPointExtension>
            <ns3:atemp>30.0</ns3:atemp>
            <ns3:hr>123</ns3:hr>
          </ns3:TrackPointExtension>
        </extensions>
      </trkpt>
      <trkpt lat="43.048638291656970977783203125" lon="13.7998113222420215606689453125">
        <ele>229.8000030517578125</ele>
        <time>2020-05-09T12:10:48.000Z</time>
        <extensions>
          <ns3:TrackPointExtension>
            <ns3:atemp>30.0</ns3:atemp>
            <ns3:hr>124</ns3:hr>
          </ns3:TrackPointExtension>
        </extensions>
      </trkpt>
      <trkpt lat="43.04856193251907825469970703125" lon="13.8001462630927562713623046875">
        <ele>230.1999969482421875</ele>
        <time>2020-05-09T12:10:56.000Z</time>
        <extensions>
          <ns3:TrackPointExtension>
            <ns3:atemp>30.0</ns3:atemp>
            <ns3:hr>127</ns3:hr>
          </ns3:TrackPointExtension>
        </extensions>
      </trkpt>
      <trkpt lat="43.048551790416240692138671875" lon="13.8001875020563602447509765625">
        <ele>230.1999969482421875</ele>
        <time>2020-05-09T12:10:57.000Z</time>
        <extensions>
          <ns3:TrackPointExtension>
            <ns3:atemp>30.0</ns3:atemp>
            <ns3:hr>127</ns3:hr>
          </ns3:TrackPointExtension>
        </extensions>
      </trkpt>
      <trkpt lat="43.04853896610438823699951171875" lon="13.80022848956286907196044921875">
        <ele>230.399993896484375</ele>
        <time>2020-05-09T12:10:58.000Z</time>
        <extensions>
          <ns3:TrackPointExtension>
            <ns3:atemp>30.0</ns3:atemp>
            <ns3:hr>128</ns3:hr>
          </ns3:TrackPointExtension>
        </extensions>
      </trkpt>
      <trkpt lat="43.04848129861056804656982421875" lon="13.80038573406636714935302734375">
        <ele>231.1999969482421875</ele>
        <time>2020-05-09T12:11:02.000Z</time>
        <extensions>
          <ns3:TrackPointExtension>
            <ns3:atemp>30.0</ns3:atemp>
            <ns3:hr>131</ns3:hr>
          </ns3:TrackPointExtension>
        </extensions>
      </trkpt>
      <trkpt lat="43.048454560339450836181640625" lon="13.80046687088906764984130859375">
        <ele>231.600006103515625</ele>
        <time>2020-05-09T12:11:04.000Z</time>
        <extensions>
          <ns3:TrackPointExtension>
            <ns3:atemp>30.0</ns3:atemp>
            <ns3:hr>133</ns3:hr>
          </ns3:TrackPointExtension>
        </extensions>
      </trkpt>
      <trkpt lat="43.0484389699995517730712890625" lon="13.80055001936852931976318359375">
        <ele>231.8000030517578125</ele>
        <time>2020-05-09T12:11:06.000Z</time>
        <extensions>
          <ns3:TrackPointExtension>
            <ns3:atemp>30.0</ns3:atemp>
            <ns3:hr>135</ns3:hr>
          </ns3:TrackPointExtension>
        </extensions>
      </trkpt>
      <trkpt lat="43.04838105104863643646240234375" lon="13.800771050155162811279296875">
        <ele>232.600006103515625</ele>
        <time>2020-05-09T12:11:12.000Z</time>
        <extensions>
          <ns3:TrackPointExtension>
            <ns3:atemp>30.0</ns3:atemp>
            <ns3:hr>137</ns3:hr>
          </ns3:TrackPointExtension>
        </extensions>
      </trkpt>
      <trkpt lat="43.0483496189117431640625" lon="13.80082947202026844024658203125">
        <ele>232.8000030517578125</ele>
        <time>2020-05-09T12:11:14.000Z</time>
        <extensions>
          <ns3:TrackPointExtension>
            <ns3:atemp>30.0</ns3:atemp>
            <ns3:hr>137</ns3:hr>
          </ns3:TrackPointExtension>
        </extensions>
      </trkpt>
      <trkpt lat="43.0482404865324497222900390625" lon="13.80102409981191158294677734375">
        <ele>233</ele>
        <time>2020-05-09T12:11:22.000Z</time>
        <extensions>
          <ns3:TrackPointExtension>
            <ns3:atemp>30.0</ns3:atemp>
            <ns3:hr>136</ns3:hr>
          </ns3:TrackPointExtension>
        </extensions>
      </trkpt>
      <trkpt lat="43.04819497279822826385498046875" lon="13.80113147199153900146484375">
        <ele>232.399993896484375</ele>
        <time>2020-05-09T12:11:26.000Z</time>
        <extensions>
          <ns3:TrackPointExtension>
            <ns3:atemp>30.0</ns3:atemp>
            <ns3:hr>135</ns3:hr>
          </ns3:TrackPointExtension>
        </extensions>
      </trkpt>
      <trkpt lat="43.04815180599689483642578125" lon="13.8012327253818511962890625">
        <ele>231.399993896484375</ele>
        <time>2020-05-09T12:11:28.000Z</time>
        <extensions>
          <ns3:TrackPointExtension>
            <ns3:atemp>29.0</ns3:atemp>
            <ns3:hr>135</ns3:hr>
          </ns3:TrackPointExtension>
        </extensions>
      </trkpt>
      <trkpt lat="43.04810880683362483978271484375" lon="13.8012721203267574310302734375">
        <ele>231</ele>
        <time>2020-05-09T12:11:29.000Z</time>
        <extensions>
          <ns3:TrackPointExtension>
            <ns3:atemp>29.0</ns3:atemp>
            <ns3:hr>135</ns3:hr>
          </ns3:TrackPointExtension>
        </extensions>
      </trkpt>
      <trkpt lat="43.048016689717769622802734375" lon="13.80137312225997447967529296875">
        <ele>229.8000030517578125</ele>
        <time>2020-05-09T12:11:31.000Z</time>
        <extensions>
          <ns3:TrackPointExtension>
            <ns3:atemp>29.0</ns3:atemp>
            <ns3:hr>134</ns3:hr>
          </ns3:TrackPointExtension>
        </extensions>
      </trkpt>
      <trkpt lat="43.04789808578789234161376953125" lon="13.80152299068868160247802734375">
        <ele>227.399993896484375</ele>
        <time>2020-05-09T12:11:33.000Z</time>
        <extensions>
          <ns3:TrackPointExtension>
            <ns3:atemp>29.0</ns3:atemp>
            <ns3:hr>133</ns3:hr>
          </ns3:TrackPointExtension>
        </extensions>
      </trkpt>
      <trkpt lat="43.04784242995083332061767578125" lon="13.8016001880168914794921875">
        <ele>225.600006103515625</ele>
        <time>2020-05-09T12:11:34.000Z</time>
        <extensions>
          <ns3:TrackPointExtension>
            <ns3:atemp>29.0</ns3:atemp>
            <ns3:hr>131</ns3:hr>
          </ns3:TrackPointExtension>
        </extensions>
      </trkpt>
      <trkpt lat="43.04778166115283966064453125" lon="13.80168794654309749603271484375">
        <ele>223.1999969482421875</ele>
        <time>2020-05-09T12:11:35.000Z</time>
        <extensions>
          <ns3:TrackPointExtension>
            <ns3:atemp>29.0</ns3:atemp>
            <ns3:hr>132</ns3:hr>
          </ns3:TrackPointExtension>
        </extensions>
      </trkpt>
      <trkpt lat="43.04772407747805118560791015625" lon="13.80178098566830158233642578125">
        <ele>221</ele>
        <time>2020-05-09T12:11:36.000Z</time>
        <extensions>
          <ns3:TrackPointExtension>
            <ns3:atemp>29.0</ns3:atemp>
            <ns3:hr>130</ns3:hr>
          </ns3:TrackPointExtension>
        </extensions>
      </trkpt>
      <trkpt lat="43.047671020030975341796875" lon="13.80187720991671085357666015625">
        <ele>218.8000030517578125</ele>
        <time>2020-05-09T12:11:37.000Z</time>
        <extensions>
          <ns3:TrackPointExtension>
            <ns3:atemp>29.0</ns3:atemp>
            <ns3:hr>127</ns3:hr>
          </ns3:TrackPointExtension>
        </extensions>
      </trkpt>
      <trkpt lat="43.04761813022196292877197265625" lon="13.801968656480312347412109375">
        <ele>216.8000030517578125</ele>
        <time>2020-05-09T12:11:38.000Z</time>
        <extensions>
          <ns3:TrackPointExtension>
            <ns3:atemp>29.0</ns3:atemp>
            <ns3:hr>126</ns3:hr>
          </ns3:TrackPointExtension>
        </extensions>
      </trkpt>
      <trkpt lat="43.04755543358623981475830078125" lon="13.80205524154007434844970703125">
        <ele>215</ele>
        <time>2020-05-09T12:11:39.000Z</time>
        <extensions>
          <ns3:TrackPointExtension>
            <ns3:atemp>29.0</ns3:atemp>
            <ns3:hr>123</ns3:hr>
          </ns3:TrackPointExtension>
        </extensions>
      </trkpt>
      <trkpt lat="43.04749893955886363983154296875" lon="13.80212246440351009368896484375">
        <ele>213.8000030517578125</ele>
        <time>2020-05-09T12:11:40.000Z</time>
        <extensions>
          <ns3:TrackPointExtension>
            <ns3:atemp>29.0</ns3:atemp>
            <ns3:hr>120</ns3:hr>
          </ns3:TrackPointExtension>
        </extensions>
      </trkpt>
      <trkpt lat="43.047433309257030487060546875" lon="13.80217426456511020660400390625">
        <ele>213.1999969482421875</ele>
        <time>2020-05-09T12:11:41.000Z</time>
        <extensions>
          <ns3:TrackPointExtension>
            <ns3:atemp>29.0</ns3:atemp>
            <ns3:hr>118</ns3:hr>
          </ns3:TrackPointExtension>
        </extensions>
      </trkpt>
      <trkpt lat="43.0473469756543636322021484375" lon="13.8022256456315517425537109375">
        <ele>212.8000030517578125</ele>
        <time>2020-05-09T12:11:42.000Z</time>
        <extensions>
          <ns3:TrackPointExtension>
            <ns3:atemp>29.0</ns3:atemp>
            <ns3:hr>117</ns3:hr>
          </ns3:TrackPointExtension>
        </extensions>
      </trkpt>
      <trkpt lat="43.04728033952414989471435546875" lon="13.80223059095442295074462890625">
        <ele>212.399993896484375</ele>
        <time>2020-05-09T12:11:43.000Z</time>
        <extensions>
          <ns3:TrackPointExtension>
            <ns3:atemp>29.0</ns3:atemp>
            <ns3:hr>116</ns3:hr>
          </ns3:TrackPointExtension>
        </extensions>
      </trkpt>
      <trkpt lat="43.04717992432415485382080078125" lon="13.80228071473538875579833984375">
        <ele>212.1999969482421875</ele>
        <time>2020-05-09T12:11:44.000Z</time>
        <extensions>
          <ns3:TrackPointExtension>
            <ns3:atemp>29.0</ns3:atemp>
            <ns3:hr>115</ns3:hr>
          </ns3:TrackPointExtension>
        </extensions>
      </trkpt>
      <trkpt lat="43.04712041281163692474365234375" lon="13.8022712431848049163818359375">
        <ele>212.1999969482421875</ele>
        <time>2020-05-09T12:11:45.000Z</time>
        <extensions>
          <ns3:TrackPointExtension>
            <ns3:atemp>29.0</ns3:atemp>
            <ns3:hr>115</ns3:hr>
          </ns3:TrackPointExtension>
        </extensions>
      </trkpt>
      <trkpt lat="43.04694321937859058380126953125" lon="13.80220435559749603271484375">
        <ele>211.8000030517578125</ele>
        <time>2020-05-09T12:11:48.000Z</time>
        <extensions>
          <ns3:TrackPointExtension>
            <ns3:atemp>29.0</ns3:atemp>
            <ns3:hr>115</ns3:hr>
          </ns3:TrackPointExtension>
        </extensions>
      </trkpt>
      <trkpt lat="43.04682184942066669464111328125" lon="13.80211072973906993865966796875">
        <ele>211.1999969482421875</ele>
        <time>2020-05-09T12:11:50.000Z</time>
        <extensions>
          <ns3:TrackPointExtension>
            <ns3:atemp>29.0</ns3:atemp>
            <ns3:hr>115</ns3:hr>
          </ns3:TrackPointExtension>
        </extensions>
      </trkpt>
      <trkpt lat="43.04675831459462642669677734375" lon="13.802066557109355926513671875">
        <ele>210.1999969482421875</ele>
        <time>2020-05-09T12:11:51.000Z</time>
        <extensions>
          <ns3:TrackPointExtension>
            <ns3:atemp>29.0</ns3:atemp>
            <ns3:hr>115</ns3:hr>
          </ns3:TrackPointExtension>
        </extensions>
      </trkpt>
      <trkpt lat="43.0466948635876178741455078125" lon="13.80202925764024257659912109375">
        <ele>209</ele>
        <time>2020-05-09T12:11:52.000Z</time>
        <extensions>
          <ns3:TrackPointExtension>
            <ns3:atemp>29.0</ns3:atemp>
            <ns3:hr>115</ns3:hr>
          </ns3:TrackPointExtension>
        </extensions>
      </trkpt>
      <trkpt lat="43.04662118665874004364013671875" lon="13.80200360901653766632080078125">
        <ele>208</ele>
        <time>2020-05-09T12:11:53.000Z</time>
        <extensions>
          <ns3:TrackPointExtension>
            <ns3:atemp>29.0</ns3:atemp>
            <ns3:hr>115</ns3:hr>
          </ns3:TrackPointExtension>
        </extensions>
      </trkpt>
      <trkpt lat="43.046550191938877105712890625" lon="13.802008889615535736083984375">
        <ele>206.399993896484375</ele>
        <time>2020-05-09T12:11:54.000Z</time>
        <extensions>
          <ns3:TrackPointExtension>
            <ns3:atemp>29.0</ns3:atemp>
            <ns3:hr>115</ns3:hr>
          </ns3:TrackPointExtension>
        </extensions>
      </trkpt>
      <trkpt lat="43.046471066772937774658203125" lon="13.802041076123714447021484375">
        <ele>204.399993896484375</ele>
        <time>2020-05-09T12:11:55.000Z</time>
        <extensions>
          <ns3:TrackPointExtension>
            <ns3:atemp>29.0</ns3:atemp>
            <ns3:hr>115</ns3:hr>
          </ns3:TrackPointExtension>
        </extensions>
      </trkpt>
      <trkpt lat="43.04639001376926898956298828125" lon="13.802057839930057525634765625">
        <ele>202</ele>
        <time>2020-05-09T12:11:56.000Z</time>
        <extensions>
          <ns3:TrackPointExtension>
            <ns3:atemp>29.0</ns3:atemp>
            <ns3:hr>115</ns3:hr>
          </ns3:TrackPointExtension>
        </extensions>
      </trkpt>
      <trkpt lat="43.04630703292787075042724609375" lon="13.80206127651035785675048828125">
        <ele>200.1999969482421875</ele>
        <time>2020-05-09T12:11:57.000Z</time>
        <extensions>
          <ns3:TrackPointExtension>
            <ns3:atemp>29.0</ns3:atemp>
            <ns3:hr>115</ns3:hr>
          </ns3:TrackPointExtension>
        </extensions>
      </trkpt>
      <trkpt lat="43.04622589610517024993896484375" lon="13.8020566664636135101318359375">
        <ele>198.8000030517578125</ele>
        <time>2020-05-09T12:11:58.000Z</time>
        <extensions>
          <ns3:TrackPointExtension>
            <ns3:atemp>29.0</ns3:atemp>
            <ns3:hr>114</ns3:hr>
          </ns3:TrackPointExtension>
        </extensions>
      </trkpt>
      <trkpt lat="43.046149872243404388427734375" lon="13.80204786546528339385986328125">
        <ele>197.1999969482421875</ele>
        <time>2020-05-09T12:11:59.000Z</time>
        <extensions>
          <ns3:TrackPointExtension>
            <ns3:atemp>29.0</ns3:atemp>
            <ns3:hr>115</ns3:hr>
          </ns3:TrackPointExtension>
        </extensions>
      </trkpt>
      <trkpt lat="43.04608541540801525115966796875" lon="13.80203328095376491546630859375">
        <ele>195.8000030517578125</ele>
        <time>2020-05-09T12:12:00.000Z</time>
        <extensions>
          <ns3:TrackPointExtension>
            <ns3:atemp>29.0</ns3:atemp>
            <ns3:hr>113</ns3:hr>
          </ns3:TrackPointExtension>
        </extensions>
      </trkpt>
      <trkpt lat="43.04603210650384426116943359375" lon="13.8020388968288898468017578125">
        <ele>194.600006103515625</ele>
        <time>2020-05-09T12:12:01.000Z</time>
        <extensions>
          <ns3:TrackPointExtension>
            <ns3:atemp>29.0</ns3:atemp>
            <ns3:hr>115</ns3:hr>
          </ns3:TrackPointExtension>
        </extensions>
      </trkpt>
      <trkpt lat="43.0459932982921600341796875" lon="13.802073933184146881103515625">
        <ele>193.399993896484375</ele>
        <time>2020-05-09T12:12:02.000Z</time>
        <extensions>
          <ns3:TrackPointExtension>
            <ns3:atemp>29.0</ns3:atemp>
            <ns3:hr>115</ns3:hr>
          </ns3:TrackPointExtension>
        </extensions>
      </trkpt>
      <trkpt lat="43.04596371017396450042724609375" lon="13.80213051103055477142333984375">
        <ele>191.600006103515625</ele>
        <time>2020-05-09T12:12:03.000Z</time>
        <extensions>
          <ns3:TrackPointExtension>
            <ns3:atemp>29.0</ns3:atemp>
            <ns3:hr>114</ns3:hr>
          </ns3:TrackPointExtension>
        </extensions>
      </trkpt>
      <trkpt lat="43.04595147259533405303955078125" lon="13.8021921180188655853271484375">
        <ele>189.600006103515625</ele>
        <time>2020-05-09T12:12:04.000Z</time>
        <extensions>
          <ns3:TrackPointExtension>
            <ns3:atemp>29.0</ns3:atemp>
            <ns3:hr>114</ns3:hr>
          </ns3:TrackPointExtension>
        </extensions>
      </trkpt>
      <trkpt lat="43.0459532327950000762939453125" lon="13.80226043052971363067626953125">
        <ele>187.8000030517578125</ele>
        <time>2020-05-09T12:12:05.000Z</time>
        <extensions>
          <ns3:TrackPointExtension>
            <ns3:atemp>29.0</ns3:atemp>
            <ns3:hr>114</ns3:hr>
          </ns3:TrackPointExtension>
        </extensions>
      </trkpt>
      <trkpt lat="43.04595105350017547607421875" lon="13.8023243844509124755859375">
        <ele>185.8000030517578125</ele>
        <time>2020-05-09T12:12:06.000Z</time>
        <extensions>
          <ns3:TrackPointExtension>
            <ns3:atemp>29.0</ns3:atemp>
            <ns3:hr>112</ns3:hr>
          </ns3:TrackPointExtension>
        </extensions>
      </trkpt>
      <trkpt lat="43.0459289252758026123046875" lon="13.80238498561084270477294921875">
        <ele>184</ele>
        <time>2020-05-09T12:12:07.000Z</time>
        <extensions>
          <ns3:TrackPointExtension>
            <ns3:atemp>29.0</ns3:atemp>
            <ns3:hr>112</ns3:hr>
          </ns3:TrackPointExtension>
        </extensions>
      </trkpt>
      <trkpt lat="43.045889697968959808349609375" lon="13.80240686237812042236328125">
        <ele>182.600006103515625</ele>
        <time>2020-05-09T12:12:08.000Z</time>
        <extensions>
          <ns3:TrackPointExtension>
            <ns3:atemp>29.0</ns3:atemp>
            <ns3:hr>112</ns3:hr>
          </ns3:TrackPointExtension>
        </extensions>
      </trkpt>
      <trkpt lat="43.04584317840635776519775390625" lon="13.8023912720382213592529296875">
        <ele>181.8000030517578125</ele>
        <time>2020-05-09T12:12:09.000Z</time>
        <extensions>
          <ns3:TrackPointExtension>
            <ns3:atemp>29.0</ns3:atemp>
            <ns3:hr>111</ns3:hr>
          </ns3:TrackPointExtension>
        </extensions>
      </trkpt>
      <trkpt lat="43.045789115130901336669921875" lon="13.80234793759882450103759765625">
        <ele>180.600006103515625</ele>
        <time>2020-05-09T12:12:10.000Z</time>
        <extensions>
          <ns3:TrackPointExtension>
            <ns3:atemp>29.0</ns3:atemp>
            <ns3:hr>110</ns3:hr>
          </ns3:TrackPointExtension>
        </extensions>
      </trkpt>
      <trkpt lat="43.04573052562773227691650390625" lon="13.802281804382801055908203125">
        <ele>179.1999969482421875</ele>
        <time>2020-05-09T12:12:11.000Z</time>
        <extensions>
          <ns3:TrackPointExtension>
            <ns3:atemp>29.0</ns3:atemp>
            <ns3:hr>113</ns3:hr>
          </ns3:TrackPointExtension>
        </extensions>
      </trkpt>
      <trkpt lat="43.04567034356296062469482421875" lon="13.80221910774707794189453125">
        <ele>177.600006103515625</ele>
        <time>2020-05-09T12:12:12.000Z</time>
        <extensions>
          <ns3:TrackPointExtension>
            <ns3:atemp>29.0</ns3:atemp>
            <ns3:hr>113</ns3:hr>
          </ns3:TrackPointExtension>
        </extensions>
      </trkpt>
      <trkpt lat="43.04561217315495014190673828125" lon="13.80217577330768108367919921875">
        <ele>176.399993896484375</ele>
        <time>2020-05-09T12:12:13.000Z</time>
        <extensions>
          <ns3:TrackPointExtension>
            <ns3:atemp>28.0</ns3:atemp>
            <ns3:hr>114</ns3:hr>
          </ns3:TrackPointExtension>
        </extensions>
      </trkpt>
      <trkpt lat="43.04555676877498626708984375" lon="13.80215230397880077362060546875">
        <ele>175.399993896484375</ele>
        <time>2020-05-09T12:12:14.000Z</time>
        <extensions>
          <ns3:TrackPointExtension>
            <ns3:atemp>28.0</ns3:atemp>
            <ns3:hr>113</ns3:hr>
          </ns3:TrackPointExtension>
        </extensions>
      </trkpt>
      <trkpt lat="43.04551175795495510101318359375" lon="13.8021773658692836761474609375">
        <ele>174.1999969482421875</ele>
        <time>2020-05-09T12:12:15.000Z</time>
        <extensions>
          <ns3:TrackPointExtension>
            <ns3:atemp>28.0</ns3:atemp>
            <ns3:hr>116</ns3:hr>
          </ns3:TrackPointExtension>
        </extensions>
      </trkpt>
      <trkpt lat="43.0454690940678119659423828125" lon="13.8022424094378948211669921875">
        <ele>172.600006103515625</ele>
        <time>2020-05-09T12:12:16.000Z</time>
        <extensions>
          <ns3:TrackPointExtension>
            <ns3:atemp>28.0</ns3:atemp>
            <ns3:hr>116</ns3:hr>
          </ns3:TrackPointExtension>
        </extensions>
      </trkpt>
      <trkpt lat="43.04542190395295619964599609375" lon="13.8023010827600955963134765625">
        <ele>170.600006103515625</ele>
        <time>2020-05-09T12:12:17.000Z</time>
        <extensions>
          <ns3:TrackPointExtension>
            <ns3:atemp>28.0</ns3:atemp>
            <ns3:hr>116</ns3:hr>
          </ns3:TrackPointExtension>
        </extensions>
      </trkpt>
      <trkpt lat="43.04534378461539745330810546875" lon="13.80235430784523487091064453125">
        <ele>169.1999969482421875</ele>
        <time>2020-05-09T12:12:18.000Z</time>
        <extensions>
          <ns3:TrackPointExtension>
            <ns3:atemp>28.0</ns3:atemp>
            <ns3:hr>119</ns3:hr>
          </ns3:TrackPointExtension>
        </extensions>
      </trkpt>
      <trkpt lat="43.04529148153960704803466796875" lon="13.802330754697322845458984375">
        <ele>168</ele>
        <time>2020-05-09T12:12:19.000Z</time>
        <extensions>
          <ns3:TrackPointExtension>
            <ns3:atemp>28.0</ns3:atemp>
            <ns3:hr>120</ns3:hr>
          </ns3:TrackPointExtension>
        </extensions>
      </trkpt>
      <trkpt lat="43.04524705745279788970947265625" lon="13.8022678904235363006591796875">
        <ele>167.1999969482421875</ele>
        <time>2020-05-09T12:12:20.000Z</time>
        <extensions>
          <ns3:TrackPointExtension>
            <ns3:atemp>28.0</ns3:atemp>
            <ns3:hr>119</ns3:hr>
          </ns3:TrackPointExtension>
        </extensions>
      </trkpt>
      <trkpt lat="43.04520615376532077789306640625" lon="13.8021904416382312774658203125">
        <ele>166.1999969482421875</ele>
        <time>2020-05-09T12:12:21.000Z</time>
        <extensions>
          <ns3:TrackPointExtension>
            <ns3:atemp>28.0</ns3:atemp>
            <ns3:hr>118</ns3:hr>
          </ns3:TrackPointExtension>
        </extensions>
      </trkpt>
      <trkpt lat="43.04516022093594074249267578125" lon="13.802120871841907501220703125">
        <ele>165</ele>
        <time>2020-05-09T12:12:22.000Z</time>
        <extensions>
          <ns3:TrackPointExtension>
            <ns3:atemp>28.0</ns3:atemp>
            <ns3:hr>118</ns3:hr>
          </ns3:TrackPointExtension>
        </extensions>
      </trkpt>
      <trkpt lat="43.04507556371390819549560546875" lon="13.8020985759794712066650390625">
        <ele>163.399993896484375</ele>
        <time>2020-05-09T12:12:24.000Z</time>
        <extensions>
          <ns3:TrackPointExtension>
            <ns3:atemp>28.0</ns3:atemp>
            <ns3:hr>119</ns3:hr>
          </ns3:TrackPointExtension>
        </extensions>
      </trkpt>
      <trkpt lat="43.04500289261341094970703125" lon="13.802195973694324493408203125">
        <ele>161</ele>
        <time>2020-05-09T12:12:26.000Z</time>
        <extensions>
          <ns3:TrackPointExtension>
            <ns3:atemp>28.0</ns3:atemp>
            <ns3:hr>119</ns3:hr>
          </ns3:TrackPointExtension>
        </extensions>
      </trkpt>
      <trkpt lat="43.044978082180023193359375" lon="13.802252970635890960693359375">
        <ele>159.399993896484375</ele>
        <time>2020-05-09T12:12:27.000Z</time>
        <extensions>
          <ns3:TrackPointExtension>
            <ns3:atemp>28.0</ns3:atemp>
            <ns3:hr>119</ns3:hr>
          </ns3:TrackPointExtension>
        </extensions>
      </trkpt>
      <trkpt lat="43.04495536722242832183837890625" lon="13.8023104704916477203369140625">
        <ele>157.8000030517578125</ele>
        <time>2020-05-09T12:12:28.000Z</time>
        <extensions>
          <ns3:TrackPointExtension>
            <ns3:atemp>28.0</ns3:atemp>
            <ns3:hr>118</ns3:hr>
          </ns3:TrackPointExtension>
        </extensions>
      </trkpt>
      <trkpt lat="43.04493105970323085784912109375" lon="13.802364952862262725830078125">
        <ele>156.1999969482421875</ele>
        <time>2020-05-09T12:12:29.000Z</time>
        <extensions>
          <ns3:TrackPointExtension>
            <ns3:atemp>28.0</ns3:atemp>
            <ns3:hr>119</ns3:hr>
          </ns3:TrackPointExtension>
        </extensions>
      </trkpt>
      <trkpt lat="43.044908009469509124755859375" lon="13.80241130478680133819580078125">
        <ele>154.600006103515625</ele>
        <time>2020-05-09T12:12:30.000Z</time>
        <extensions>
          <ns3:TrackPointExtension>
            <ns3:atemp>28.0</ns3:atemp>
            <ns3:hr>119</ns3:hr>
          </ns3:TrackPointExtension>
        </extensions>
      </trkpt>
      <trkpt lat="43.044883199036121368408203125" lon="13.80245556123554706573486328125">
        <ele>153.600006103515625</ele>
        <time>2020-05-09T12:12:31.000Z</time>
        <extensions>
          <ns3:TrackPointExtension>
            <ns3:atemp>28.0</ns3:atemp>
            <ns3:hr>120</ns3:hr>
          </ns3:TrackPointExtension>
        </extensions>
      </trkpt>
      <trkpt lat="43.04485495202243328094482421875" lon="13.8025002367794513702392578125">
        <ele>153</ele>
        <time>2020-05-09T12:12:32.000Z</time>
        <extensions>
          <ns3:TrackPointExtension>
            <ns3:atemp>28.0</ns3:atemp>
            <ns3:hr>120</ns3:hr>
          </ns3:TrackPointExtension>
        </extensions>
      </trkpt>
      <trkpt lat="43.04483181796967983245849609375" lon="13.80253485403954982757568359375">
        <ele>152.399993896484375</ele>
        <time>2020-05-09T12:12:33.000Z</time>
        <extensions>
          <ns3:TrackPointExtension>
            <ns3:atemp>28.0</ns3:atemp>
            <ns3:hr>120</ns3:hr>
          </ns3:TrackPointExtension>
        </extensions>
      </trkpt>
      <trkpt lat="43.044796027243137359619140625" lon="13.80258279852569103240966796875">
        <ele>151.1999969482421875</ele>
        <time>2020-05-09T12:12:35.000Z</time>
        <extensions>
          <ns3:TrackPointExtension>
            <ns3:atemp>28.0</ns3:atemp>
            <ns3:hr>121</ns3:hr>
          </ns3:TrackPointExtension>
        </extensions>
      </trkpt>
      <trkpt lat="43.0447728931903839111328125" lon="13.8026041723787784576416015625">
        <ele>150.8000030517578125</ele>
        <time>2020-05-09T12:12:37.000Z</time>
        <extensions>
          <ns3:TrackPointExtension>
            <ns3:atemp>28.0</ns3:atemp>
            <ns3:hr>118</ns3:hr>
          </ns3:TrackPointExtension>
        </extensions>
      </trkpt>
      <trkpt lat="43.0447661876678466796875" lon="13.802609704434871673583984375">
        <ele>150.399993896484375</ele>
        <time>2020-05-09T12:12:42.000Z</time>
        <extensions>
          <ns3:TrackPointExtension>
            <ns3:atemp>28.0</ns3:atemp>
            <ns3:hr>117</ns3:hr>
          </ns3:TrackPointExtension>
        </extensions>
      </trkpt>
      <trkpt lat="43.04477733559906482696533203125" lon="13.80258967168629169464111328125">
        <ele>150.1999969482421875</ele>
        <time>2020-05-09T12:12:45.000Z</time>
        <extensions>
          <ns3:TrackPointExtension>
            <ns3:atemp>28.0</ns3:atemp>
            <ns3:hr>115</ns3:hr>
          </ns3:TrackPointExtension>
        </extensions>
      </trkpt>
      <trkpt lat="43.04478571750223636627197265625" lon="13.80257743410766124725341796875">
        <ele>150</ele>
        <time>2020-05-09T12:12:51.000Z</time>
        <extensions>
          <ns3:TrackPointExtension>
            <ns3:atemp>28.0</ns3:atemp>
            <ns3:hr>115</ns3:hr>
          </ns3:TrackPointExtension>
        </extensions>
      </trkpt>
      <trkpt lat="43.04478026926517486572265625" lon="13.80259084515273571014404296875">
        <ele>150.399993896484375</ele>
        <time>2020-05-09T12:12:58.000Z</time>
        <extensions>
          <ns3:TrackPointExtension>
            <ns3:atemp>28.0</ns3:atemp>
            <ns3:hr>112</ns3:hr>
          </ns3:TrackPointExtension>
        </extensions>
      </trkpt>
      <trkpt lat="43.04477683268487453460693359375" lon="13.8025926053524017333984375">
        <ele>150.399993896484375</ele>
        <time>2020-05-09T12:13:00.000Z</time>
        <extensions>
          <ns3:TrackPointExtension>
            <ns3:atemp>28.0</ns3:atemp>
            <ns3:hr>113</ns3:hr>
          </ns3:TrackPointExtension>
        </extensions>
      </trkpt>
      <trkpt lat="43.04476040415465831756591796875" lon="13.80260593257844448089599609375">
        <ele>150.399993896484375</ele>
        <time>2020-05-09T12:13:09.000Z</time>
        <extensions>
          <ns3:TrackPointExtension>
            <ns3:atemp>28.0</ns3:atemp>
            <ns3:hr>111</ns3:hr>
          </ns3:TrackPointExtension>
        </extensions>
      </trkpt>
      <trkpt lat="43.0447586439549922943115234375" lon="13.802590928971767425537109375">
        <ele>150.600006103515625</ele>
        <time>2020-05-09T12:13:16.000Z</time>
        <extensions>
          <ns3:TrackPointExtension>
            <ns3:atemp>28.0</ns3:atemp>
            <ns3:hr>107</ns3:hr>
          </ns3:TrackPointExtension>
        </extensions>
      </trkpt>
      <trkpt lat="43.04475688375532627105712890625" lon="13.80259101279079914093017578125">
        <ele>150.600006103515625</ele>
        <time>2020-05-09T12:13:17.000Z</time>
        <extensions>
          <ns3:TrackPointExtension>
            <ns3:atemp>28.0</ns3:atemp>
            <ns3:hr>110</ns3:hr>
          </ns3:TrackPointExtension>
        </extensions>
      </trkpt>
      <trkpt lat="43.044748418033123016357421875" lon="13.8025967963039875030517578125">
        <ele>150.1999969482421875</ele>
        <time>2020-05-09T12:13:20.000Z</time>
        <extensions>
          <ns3:TrackPointExtension>
            <ns3:atemp>28.0</ns3:atemp>
            <ns3:hr>107</ns3:hr>
          </ns3:TrackPointExtension>
        </extensions>
      </trkpt>
      <trkpt lat="43.04475856013596057891845703125" lon="13.80260467529296875">
        <ele>150.1999969482421875</ele>
        <time>2020-05-09T12:13:26.000Z</time>
        <extensions>
          <ns3:TrackPointExtension>
            <ns3:atemp>28.0</ns3:atemp>
            <ns3:hr>108</ns3:hr>
          </ns3:TrackPointExtension>
        </extensions>
      </trkpt>
      <trkpt lat="43.044757805764675140380859375" lon="13.80261112935841083526611328125">
        <ele>150.1999969482421875</ele>
        <time>2020-05-09T12:13:27.000Z</time>
        <extensions>
          <ns3:TrackPointExtension>
            <ns3:atemp>28.0</ns3:atemp>
            <ns3:hr>107</ns3:hr>
          </ns3:TrackPointExtension>
        </extensions>
      </trkpt>
      <trkpt lat="43.04471748881042003631591796875" lon="13.8026571460068225860595703125">
        <ele>149.8000030517578125</ele>
        <time>2020-05-09T12:13:31.000Z</time>
        <extensions>
          <ns3:TrackPointExtension>
            <ns3:atemp>28.0</ns3:atemp>
            <ns3:hr>105</ns3:hr>
          </ns3:TrackPointExtension>
        </extensions>
      </trkpt>
      <trkpt lat="43.04467524401843547821044921875" lon="13.80268581211566925048828125">
        <ele>149.1999969482421875</ele>
        <time>2020-05-09T12:13:34.000Z</time>
        <extensions>
          <ns3:TrackPointExtension>
            <ns3:atemp>28.0</ns3:atemp>
            <ns3:hr>106</ns3:hr>
          </ns3:TrackPointExtension>
        </extensions>
      </trkpt>
      <trkpt lat="43.04462377913296222686767578125" lon="13.802726380527019500732421875">
        <ele>149</ele>
        <time>2020-05-09T12:13:36.000Z</time>
        <extensions>
          <ns3:TrackPointExtension>
            <ns3:atemp>28.0</ns3:atemp>
            <ns3:hr>105</ns3:hr>
          </ns3:TrackPointExtension>
        </extensions>
      </trkpt>
      <trkpt lat="43.04455370642244815826416015625" lon="13.8027761690318584442138671875">
        <ele>147.8000030517578125</ele>
        <time>2020-05-09T12:13:38.000Z</time>
        <extensions>
          <ns3:TrackPointExtension>
            <ns3:atemp>28.0</ns3:atemp>
            <ns3:hr>106</ns3:hr>
          </ns3:TrackPointExtension>
        </extensions>
      </trkpt>
      <trkpt lat="43.0444699712097644805908203125" lon="13.80282931029796600341796875">
        <ele>146.399993896484375</ele>
        <time>2020-05-09T12:13:40.000Z</time>
        <extensions>
          <ns3:TrackPointExtension>
            <ns3:atemp>28.0</ns3:atemp>
            <ns3:hr>106</ns3:hr>
          </ns3:TrackPointExtension>
        </extensions>
      </trkpt>
      <trkpt lat="43.04442009888589382171630859375" lon="13.80285940133035182952880859375">
        <ele>146</ele>
        <time>2020-05-09T12:13:41.000Z</time>
        <extensions>
          <ns3:TrackPointExtension>
            <ns3:atemp>28.0</ns3:atemp>
            <ns3:hr>106</ns3:hr>
          </ns3:TrackPointExtension>
        </extensions>
      </trkpt>
      <trkpt lat="43.04436695761978626251220703125" lon="13.80288974381983280181884765625">
        <ele>145.1999969482421875</ele>
        <time>2020-05-09T12:13:42.000Z</time>
        <extensions>
          <ns3:TrackPointExtension>
            <ns3:atemp>28.0</ns3:atemp>
            <ns3:hr>107</ns3:hr>
          </ns3:TrackPointExtension>
        </extensions>
      </trkpt>
      <trkpt lat="43.04431046359241008758544921875" lon="13.80292444489896297454833984375">
        <ele>144.1999969482421875</ele>
        <time>2020-05-09T12:13:43.000Z</time>
        <extensions>
          <ns3:TrackPointExtension>
            <ns3:atemp>28.0</ns3:atemp>
            <ns3:hr>109</ns3:hr>
          </ns3:TrackPointExtension>
        </extensions>
      </trkpt>
      <trkpt lat="43.0442512035369873046875" lon="13.80295260809361934661865234375">
        <ele>143.1999969482421875</ele>
        <time>2020-05-09T12:13:44.000Z</time>
        <extensions>
          <ns3:TrackPointExtension>
            <ns3:atemp>28.0</ns3:atemp>
            <ns3:hr>108</ns3:hr>
          </ns3:TrackPointExtension>
        </extensions>
      </trkpt>
      <trkpt lat="43.0441159196197986602783203125" lon="13.8030215911567211151123046875">
        <ele>141.1999969482421875</ele>
        <time>2020-05-09T12:13:46.000Z</time>
        <extensions>
          <ns3:TrackPointExtension>
            <ns3:atemp>28.0</ns3:atemp>
            <ns3:hr>112</ns3:hr>
          </ns3:TrackPointExtension>
        </extensions>
      </trkpt>
      <trkpt lat="43.044044338166713714599609375" lon="13.8030728884041309356689453125">
        <ele>140.1999969482421875</ele>
        <time>2020-05-09T12:13:47.000Z</time>
        <extensions>
          <ns3:TrackPointExtension>
            <ns3:atemp>28.0</ns3:atemp>
            <ns3:hr>113</ns3:hr>
          </ns3:TrackPointExtension>
        </extensions>
      </trkpt>
      <trkpt lat="43.0439690686762332916259765625" lon="13.80312301218509674072265625">
        <ele>138.600006103515625</ele>
        <time>2020-05-09T12:13:48.000Z</time>
        <extensions>
          <ns3:TrackPointExtension>
            <ns3:atemp>28.0</ns3:atemp>
            <ns3:hr>113</ns3:hr>
          </ns3:TrackPointExtension>
        </extensions>
      </trkpt>
      <trkpt lat="43.0438953079283237457275390625" lon="13.80317866802215576171875">
        <ele>136.8000030517578125</ele>
        <time>2020-05-09T12:13:49.000Z</time>
        <extensions>
          <ns3:TrackPointExtension>
            <ns3:atemp>28.0</ns3:atemp>
            <ns3:hr>113</ns3:hr>
          </ns3:TrackPointExtension>
        </extensions>
      </trkpt>
      <trkpt lat="43.0438245646655559539794921875" lon="13.80323407240211963653564453125">
        <ele>135.1999969482421875</ele>
        <time>2020-05-09T12:13:50.000Z</time>
        <extensions>
          <ns3:TrackPointExtension>
            <ns3:atemp>28.0</ns3:atemp>
            <ns3:hr>113</ns3:hr>
          </ns3:TrackPointExtension>
        </extensions>
      </trkpt>
      <trkpt lat="43.04375356994569301605224609375" lon="13.80328662693500518798828125">
        <ele>134.1999969482421875</ele>
        <time>2020-05-09T12:13:51.000Z</time>
        <extensions>
          <ns3:TrackPointExtension>
            <ns3:atemp>28.0</ns3:atemp>
            <ns3:hr>113</ns3:hr>
          </ns3:TrackPointExtension>
        </extensions>
      </trkpt>
      <trkpt lat="43.043615520000457763671875" lon="13.8034162111580371856689453125">
        <ele>133</ele>
        <time>2020-05-09T12:13:53.000Z</time>
        <extensions>
          <ns3:TrackPointExtension>
            <ns3:atemp>28.0</ns3:atemp>
            <ns3:hr>112</ns3:hr>
          </ns3:TrackPointExtension>
        </extensions>
      </trkpt>
      <trkpt lat="43.0434913001954555511474609375" lon="13.8035694323480129241943359375">
        <ele>131.399993896484375</ele>
        <time>2020-05-09T12:13:55.000Z</time>
        <extensions>
          <ns3:TrackPointExtension>
            <ns3:atemp>28.0</ns3:atemp>
            <ns3:hr>112</ns3:hr>
          </ns3:TrackPointExtension>
        </extensions>
      </trkpt>
      <trkpt lat="43.04342717863619327545166015625" lon="13.8036435283720493316650390625">
        <ele>130.1999969482421875</ele>
        <time>2020-05-09T12:13:56.000Z</time>
        <extensions>
          <ns3:TrackPointExtension>
            <ns3:atemp>28.0</ns3:atemp>
            <ns3:hr>113</ns3:hr>
          </ns3:TrackPointExtension>
        </extensions>
      </trkpt>
      <trkpt lat="43.04336515255272388458251953125" lon="13.80371754057705402374267578125">
        <ele>129</ele>
        <time>2020-05-09T12:13:57.000Z</time>
        <extensions>
          <ns3:TrackPointExtension>
            <ns3:atemp>28.0</ns3:atemp>
            <ns3:hr>112</ns3:hr>
          </ns3:TrackPointExtension>
        </extensions>
      </trkpt>
      <trkpt lat="43.04330731742084026336669921875" lon="13.80379490554332733154296875">
        <ele>127.8000030517578125</ele>
        <time>2020-05-09T12:13:58.000Z</time>
        <extensions>
          <ns3:TrackPointExtension>
            <ns3:atemp>28.0</ns3:atemp>
            <ns3:hr>111</ns3:hr>
          </ns3:TrackPointExtension>
        </extensions>
      </trkpt>
      <trkpt lat="43.0432509072124958038330078125" lon="13.80387159995734691619873046875">
        <ele>126.40000152587890625</ele>
        <time>2020-05-09T12:13:59.000Z</time>
        <extensions>
          <ns3:TrackPointExtension>
            <ns3:atemp>28.0</ns3:atemp>
            <ns3:hr>109</ns3:hr>
          </ns3:TrackPointExtension>
        </extensions>
      </trkpt>
      <trkpt lat="43.0431912280619144439697265625" lon="13.80394401960074901580810546875">
        <ele>125.1999969482421875</ele>
        <time>2020-05-09T12:14:00.000Z</time>
        <extensions>
          <ns3:TrackPointExtension>
            <ns3:atemp>28.0</ns3:atemp>
            <ns3:hr>110</ns3:hr>
          </ns3:TrackPointExtension>
        </extensions>
      </trkpt>
      <trkpt lat="43.0431271903216838836669921875" lon="13.80401040427386760711669921875">
        <ele>124.1999969482421875</ele>
        <time>2020-05-09T12:14:01.000Z</time>
        <extensions>
          <ns3:TrackPointExtension>
            <ns3:atemp>28.0</ns3:atemp>
            <ns3:hr>110</ns3:hr>
          </ns3:TrackPointExtension>
        </extensions>
      </trkpt>
      <trkpt lat="43.04305837489664554595947265625" lon="13.80407226271927356719970703125">
        <ele>123</ele>
        <time>2020-05-09T12:14:02.000Z</time>
        <extensions>
          <ns3:TrackPointExtension>
            <ns3:atemp>28.0</ns3:atemp>
            <ns3:hr>111</ns3:hr>
          </ns3:TrackPointExtension>
        </extensions>
      </trkpt>
      <trkpt lat="43.04298587143421173095703125" lon="13.8041347078979015350341796875">
        <ele>121.8000030517578125</ele>
        <time>2020-05-09T12:14:03.000Z</time>
        <extensions>
          <ns3:TrackPointExtension>
            <ns3:atemp>28.0</ns3:atemp>
            <ns3:hr>112</ns3:hr>
          </ns3:TrackPointExtension>
        </extensions>
      </trkpt>
      <trkpt lat="43.04291353560984134674072265625" lon="13.80419321358203887939453125">
        <ele>120.8000030517578125</ele>
        <time>2020-05-09T12:14:04.000Z</time>
        <extensions>
          <ns3:TrackPointExtension>
            <ns3:atemp>28.0</ns3:atemp>
            <ns3:hr>110</ns3:hr>
          </ns3:TrackPointExtension>
        </extensions>
      </trkpt>
      <trkpt lat="43.04284161888062953948974609375" lon="13.80424761213362216949462890625">
        <ele>119.59999847412109375</ele>
        <time>2020-05-09T12:14:05.000Z</time>
        <extensions>
          <ns3:TrackPointExtension>
            <ns3:atemp>28.0</ns3:atemp>
            <ns3:hr>109</ns3:hr>
          </ns3:TrackPointExtension>
        </extensions>
      </trkpt>
      <trkpt lat="43.04277523420751094818115234375" lon="13.80429086275398731231689453125">
        <ele>118.40000152587890625</ele>
        <time>2020-05-09T12:14:06.000Z</time>
        <extensions>
          <ns3:TrackPointExtension>
            <ns3:atemp>28.0</ns3:atemp>
            <ns3:hr>109</ns3:hr>
          </ns3:TrackPointExtension>
        </extensions>
      </trkpt>
      <trkpt lat="43.0427074246108531951904296875" lon="13.804339058697223663330078125">
        <ele>117</ele>
        <time>2020-05-09T12:14:07.000Z</time>
        <extensions>
          <ns3:TrackPointExtension>
            <ns3:atemp>28.0</ns3:atemp>
            <ns3:hr>108</ns3:hr>
          </ns3:TrackPointExtension>
        </extensions>
      </trkpt>
      <trkpt lat="43.0426410399377346038818359375" lon="13.80439362488687038421630859375">
        <ele>115.8000030517578125</ele>
        <time>2020-05-09T12:14:08.000Z</time>
        <extensions>
          <ns3:TrackPointExtension>
            <ns3:atemp>28.0</ns3:atemp>
            <ns3:hr>108</ns3:hr>
          </ns3:TrackPointExtension>
        </extensions>
      </trkpt>
      <trkpt lat="43.04249234497547149658203125" lon="13.80451583303511142730712890625">
        <ele>114.1999969482421875</ele>
        <time>2020-05-09T12:14:10.000Z</time>
        <extensions>
          <ns3:TrackPointExtension>
            <ns3:atemp>28.0</ns3:atemp>
            <ns3:hr>109</ns3:hr>
          </ns3:TrackPointExtension>
        </extensions>
      </trkpt>
      <trkpt lat="43.0424098670482635498046875" lon="13.80458414554595947265625">
        <ele>113</ele>
        <time>2020-05-09T12:14:11.000Z</time>
        <extensions>
          <ns3:TrackPointExtension>
            <ns3:atemp>28.0</ns3:atemp>
            <ns3:hr>106</ns3:hr>
          </ns3:TrackPointExtension>
        </extensions>
      </trkpt>
      <trkpt lat="43.04232512600719928741455078125" lon="13.80465379916131496429443359375">
        <ele>110.1999969482421875</ele>
        <time>2020-05-09T12:14:12.000Z</time>
        <extensions>
          <ns3:TrackPointExtension>
            <ns3:atemp>28.0</ns3:atemp>
            <ns3:hr>108</ns3:hr>
          </ns3:TrackPointExtension>
        </extensions>
      </trkpt>
      <trkpt lat="43.0422382056713104248046875" lon="13.80472219549119472503662109375">
        <ele>107.1999969482421875</ele>
        <time>2020-05-09T12:14:13.000Z</time>
        <extensions>
          <ns3:TrackPointExtension>
            <ns3:atemp>28.0</ns3:atemp>
            <ns3:hr>107</ns3:hr>
          </ns3:TrackPointExtension>
        </extensions>
      </trkpt>
      <trkpt lat="43.04215036332607269287109375" lon="13.80479176528751850128173828125">
        <ele>105.59999847412109375</ele>
        <time>2020-05-09T12:14:14.000Z</time>
        <extensions>
          <ns3:TrackPointExtension>
            <ns3:atemp>28.0</ns3:atemp>
            <ns3:hr>106</ns3:hr>
          </ns3:TrackPointExtension>
        </extensions>
      </trkpt>
      <trkpt lat="43.042061515152454376220703125" lon="13.8048602454364299774169921875">
        <ele>104.40000152587890625</ele>
        <time>2020-05-09T12:14:15.000Z</time>
        <extensions>
          <ns3:TrackPointExtension>
            <ns3:atemp>28.0</ns3:atemp>
            <ns3:hr>107</ns3:hr>
          </ns3:TrackPointExtension>
        </extensions>
      </trkpt>
      <trkpt lat="43.0418799631297588348388671875" lon="13.8050065934658050537109375">
        <ele>102.8000030517578125</ele>
        <time>2020-05-09T12:14:17.000Z</time>
        <extensions>
          <ns3:TrackPointExtension>
            <ns3:atemp>28.0</ns3:atemp>
            <ns3:hr>108</ns3:hr>
          </ns3:TrackPointExtension>
        </extensions>
      </trkpt>
      <trkpt lat="43.04152716882526874542236328125" lon="13.805328123271465301513671875">
        <ele>101.8000030517578125</ele>
        <time>2020-05-09T12:14:21.000Z</time>
        <extensions>
          <ns3:TrackPointExtension>
            <ns3:atemp>28.0</ns3:atemp>
            <ns3:hr>105</ns3:hr>
          </ns3:TrackPointExtension>
        </extensions>
      </trkpt>
      <trkpt lat="43.04143178276717662811279296875" lon="13.8054062426090240478515625">
        <ele>101.40000152587890625</ele>
        <time>2020-05-09T12:14:22.000Z</time>
        <extensions>
          <ns3:TrackPointExtension>
            <ns3:atemp>28.0</ns3:atemp>
            <ns3:hr>104</ns3:hr>
          </ns3:TrackPointExtension>
        </extensions>
      </trkpt>
      <trkpt lat="43.0413348041474819183349609375" lon="13.80547740496695041656494140625">
        <ele>100.40000152587890625</ele>
        <time>2020-05-09T12:14:23.000Z</time>
        <extensions>
          <ns3:TrackPointExtension>
            <ns3:atemp>28.0</ns3:atemp>
            <ns3:hr>103</ns3:hr>
          </ns3:TrackPointExtension>
        </extensions>
      </trkpt>
      <trkpt lat="43.0412405915558338165283203125" lon="13.80554211325943470001220703125">
        <ele>99</ele>
        <time>2020-05-09T12:14:24.000Z</time>
        <extensions>
          <ns3:TrackPointExtension>
            <ns3:atemp>28.0</ns3:atemp>
            <ns3:hr>103</ns3:hr>
          </ns3:TrackPointExtension>
        </extensions>
      </trkpt>
      <trkpt lat="43.04114579223096370697021484375" lon="13.80560128949582576751708984375">
        <ele>97.8000030517578125</ele>
        <time>2020-05-09T12:14:25.000Z</time>
        <extensions>
          <ns3:TrackPointExtension>
            <ns3:atemp>28.0</ns3:atemp>
            <ns3:hr>104</ns3:hr>
          </ns3:TrackPointExtension>
        </extensions>
      </trkpt>
      <trkpt lat="43.04095837287604808807373046875" lon="13.80567119456827640533447265625">
        <ele>96.40000152587890625</ele>
        <time>2020-05-09T12:14:27.000Z</time>
        <extensions>
          <ns3:TrackPointExtension>
            <ns3:atemp>28.0</ns3:atemp>
            <ns3:hr>104</ns3:hr>
          </ns3:TrackPointExtension>
        </extensions>
      </trkpt>
      <trkpt lat="43.0407044850289821624755859375" lon="13.8057326339185237884521484375">
        <ele>96.40000152587890625</ele>
        <time>2020-05-09T12:14:30.000Z</time>
        <extensions>
          <ns3:TrackPointExtension>
            <ns3:atemp>28.0</ns3:atemp>
            <ns3:hr>103</ns3:hr>
          </ns3:TrackPointExtension>
        </extensions>
      </trkpt>
      <trkpt lat="43.04063231684267520904541015625" lon="13.80573146045207977294921875">
        <ele>96.59999847412109375</ele>
        <time>2020-05-09T12:14:31.000Z</time>
        <extensions>
          <ns3:TrackPointExtension>
            <ns3:atemp>28.0</ns3:atemp>
            <ns3:hr>102</ns3:hr>
          </ns3:TrackPointExtension>
        </extensions>
      </trkpt>
      <trkpt lat="43.0405636690557003021240234375" lon="13.8057229109108448028564453125">
        <ele>96.8000030517578125</ele>
        <time>2020-05-09T12:14:32.000Z</time>
        <extensions>
          <ns3:TrackPointExtension>
            <ns3:atemp>28.0</ns3:atemp>
            <ns3:hr>102</ns3:hr>
          </ns3:TrackPointExtension>
        </extensions>
      </trkpt>
      <trkpt lat="43.04034364409744739532470703125" lon="13.80567739717662334442138671875">
        <ele>96.8000030517578125</ele>
        <time>2020-05-09T12:14:35.000Z</time>
        <extensions>
          <ns3:TrackPointExtension>
            <ns3:atemp>28.0</ns3:atemp>
            <ns3:hr>101</ns3:hr>
          </ns3:TrackPointExtension>
        </extensions>
      </trkpt>
      <trkpt lat="43.04018572904169559478759765625" lon="13.8056276924908161163330078125">
        <ele>96.59999847412109375</ele>
        <time>2020-05-09T12:14:37.000Z</time>
        <extensions>
          <ns3:TrackPointExtension>
            <ns3:atemp>28.0</ns3:atemp>
            <ns3:hr>98</ns3:hr>
          </ns3:TrackPointExtension>
        </extensions>
      </trkpt>
      <trkpt lat="43.04003803990781307220458984375" lon="13.805568516254425048828125">
        <ele>95.8000030517578125</ele>
        <time>2020-05-09T12:14:39.000Z</time>
        <extensions>
          <ns3:TrackPointExtension>
            <ns3:atemp>28.0</ns3:atemp>
            <ns3:hr>96</ns3:hr>
          </ns3:TrackPointExtension>
        </extensions>
      </trkpt>
      <trkpt lat="43.03997416980564594268798828125" lon="13.805523253977298736572265625">
        <ele>95.40000152587890625</ele>
        <time>2020-05-09T12:14:40.000Z</time>
        <extensions>
          <ns3:TrackPointExtension>
            <ns3:atemp>28.0</ns3:atemp>
            <ns3:hr>96</ns3:hr>
          </ns3:TrackPointExtension>
        </extensions>
      </trkpt>
      <trkpt lat="43.03991465829312801361083984375" lon="13.8054597191512584686279296875">
        <ele>95</ele>
        <time>2020-05-09T12:14:41.000Z</time>
        <extensions>
          <ns3:TrackPointExtension>
            <ns3:atemp>28.0</ns3:atemp>
            <ns3:hr>96</ns3:hr>
          </ns3:TrackPointExtension>
        </extensions>
      </trkpt>
      <trkpt lat="43.03980468772351741790771484375" lon="13.8053121976554393768310546875">
        <ele>93.8000030517578125</ele>
        <time>2020-05-09T12:14:43.000Z</time>
        <extensions>
          <ns3:TrackPointExtension>
            <ns3:atemp>28.0</ns3:atemp>
            <ns3:hr>95</ns3:hr>
          </ns3:TrackPointExtension>
        </extensions>
      </trkpt>
      <trkpt lat="43.039711900055408477783203125" lon="13.80512217991054058074951171875">
        <ele>92.59999847412109375</ele>
        <time>2020-05-09T12:14:45.000Z</time>
        <extensions>
          <ns3:TrackPointExtension>
            <ns3:atemp>28.0</ns3:atemp>
            <ns3:hr>93</ns3:hr>
          </ns3:TrackPointExtension>
        </extensions>
      </trkpt>
      <trkpt lat="43.0396131612360477447509765625" lon="13.80491615273058414459228515625">
        <ele>91.8000030517578125</ele>
        <time>2020-05-09T12:14:47.000Z</time>
        <extensions>
          <ns3:TrackPointExtension>
            <ns3:atemp>28.0</ns3:atemp>
            <ns3:hr>99</ns3:hr>
          </ns3:TrackPointExtension>
        </extensions>
      </trkpt>
      <trkpt lat="43.03956328891217708587646484375" lon="13.804812468588352203369140625">
        <ele>91.8000030517578125</ele>
        <time>2020-05-09T12:14:48.000Z</time>
        <extensions>
          <ns3:TrackPointExtension>
            <ns3:atemp>27.0</ns3:atemp>
            <ns3:hr>102</ns3:hr>
          </ns3:TrackPointExtension>
        </extensions>
      </trkpt>
      <trkpt lat="43.0395102314651012420654296875" lon="13.80470727570354938507080078125">
        <ele>92</ele>
        <time>2020-05-09T12:14:49.000Z</time>
        <extensions>
          <ns3:TrackPointExtension>
            <ns3:atemp>27.0</ns3:atemp>
            <ns3:hr>107</ns3:hr>
          </ns3:TrackPointExtension>
        </extensions>
      </trkpt>
      <trkpt lat="43.0394567549228668212890625" lon="13.8046097941696643829345703125">
        <ele>91.8000030517578125</ele>
        <time>2020-05-09T12:14:50.000Z</time>
        <extensions>
          <ns3:TrackPointExtension>
            <ns3:atemp>27.0</ns3:atemp>
            <ns3:hr>110</ns3:hr>
          </ns3:TrackPointExtension>
        </extensions>
      </trkpt>
      <trkpt lat="43.03933672606945037841796875" lon="13.8044015876948833465576171875">
        <ele>91.1999969482421875</ele>
        <time>2020-05-09T12:14:52.000Z</time>
        <extensions>
          <ns3:TrackPointExtension>
            <ns3:atemp>28.0</ns3:atemp>
            <ns3:hr>111</ns3:hr>
          </ns3:TrackPointExtension>
        </extensions>
      </trkpt>
      <trkpt lat="43.039281070232391357421875" lon="13.80428868345916271209716796875">
        <ele>90.8000030517578125</ele>
        <time>2020-05-09T12:14:53.000Z</time>
        <extensions>
          <ns3:TrackPointExtension>
            <ns3:atemp>28.0</ns3:atemp>
            <ns3:hr>112</ns3:hr>
          </ns3:TrackPointExtension>
        </extensions>
      </trkpt>
      <trkpt lat="43.03915500640869140625" lon="13.8039365597069263458251953125">
        <ele>89.8000030517578125</ele>
        <time>2020-05-09T12:14:56.000Z</time>
        <extensions>
          <ns3:TrackPointExtension>
            <ns3:atemp>28.0</ns3:atemp>
            <ns3:hr>115</ns3:hr>
          </ns3:TrackPointExtension>
        </extensions>
      </trkpt>
      <trkpt lat="43.0391268432140350341796875" lon="13.80381812341511249542236328125">
        <ele>89.59999847412109375</ele>
        <time>2020-05-09T12:14:57.000Z</time>
        <extensions>
          <ns3:TrackPointExtension>
            <ns3:atemp>28.0</ns3:atemp>
            <ns3:hr>114</ns3:hr>
          </ns3:TrackPointExtension>
        </extensions>
      </trkpt>
      <trkpt lat="43.03909071721136569976806640625" lon="13.8035801611840724945068359375">
        <ele>88</ele>
        <time>2020-05-09T12:14:59.000Z</time>
        <extensions>
          <ns3:TrackPointExtension>
            <ns3:atemp>28.0</ns3:atemp>
            <ns3:hr>115</ns3:hr>
          </ns3:TrackPointExtension>
        </extensions>
      </trkpt>
      <trkpt lat="43.039077222347259521484375" lon="13.80345636047422885894775390625">
        <ele>86.59999847412109375</ele>
        <time>2020-05-09T12:15:00.000Z</time>
        <extensions>
          <ns3:TrackPointExtension>
            <ns3:atemp>28.0</ns3:atemp>
            <ns3:hr>114</ns3:hr>
          </ns3:TrackPointExtension>
        </extensions>
      </trkpt>
      <trkpt lat="43.03906624205410480499267578125" lon="13.8033240102231502532958984375">
        <ele>85.40000152587890625</ele>
        <time>2020-05-09T12:15:01.000Z</time>
        <extensions>
          <ns3:TrackPointExtension>
            <ns3:atemp>28.0</ns3:atemp>
            <ns3:hr>115</ns3:hr>
          </ns3:TrackPointExtension>
        </extensions>
      </trkpt>
      <trkpt lat="43.0390505678951740264892578125" lon="13.803166933357715606689453125">
        <ele>84.40000152587890625</ele>
        <time>2020-05-09T12:15:02.000Z</time>
        <extensions>
          <ns3:TrackPointExtension>
            <ns3:atemp>28.0</ns3:atemp>
            <ns3:hr>116</ns3:hr>
          </ns3:TrackPointExtension>
        </extensions>
      </trkpt>
      <trkpt lat="43.0390398390591144561767578125" lon="13.80300424061715602874755859375">
        <ele>83</ele>
        <time>2020-05-09T12:15:03.000Z</time>
        <extensions>
          <ns3:TrackPointExtension>
            <ns3:atemp>28.0</ns3:atemp>
            <ns3:hr>116</ns3:hr>
          </ns3:TrackPointExtension>
        </extensions>
      </trkpt>
      <trkpt lat="43.03902466781437397003173828125" lon="13.8028311543166637420654296875">
        <ele>81.40000152587890625</ele>
        <time>2020-05-09T12:15:04.000Z</time>
        <extensions>
          <ns3:TrackPointExtension>
            <ns3:atemp>28.0</ns3:atemp>
            <ns3:hr>116</ns3:hr>
          </ns3:TrackPointExtension>
        </extensions>
      </trkpt>
      <trkpt lat="43.039007484912872314453125" lon="13.80265764892101287841796875">
        <ele>79.1999969482421875</ele>
        <time>2020-05-09T12:15:05.000Z</time>
        <extensions>
          <ns3:TrackPointExtension>
            <ns3:atemp>28.0</ns3:atemp>
            <ns3:hr>116</ns3:hr>
          </ns3:TrackPointExtension>
        </extensions>
      </trkpt>
      <trkpt lat="43.03899030201137065887451171875" lon="13.8024703972041606903076171875">
        <ele>76.1999969482421875</ele>
        <time>2020-05-09T12:15:06.000Z</time>
        <extensions>
          <ns3:TrackPointExtension>
            <ns3:atemp>28.0</ns3:atemp>
            <ns3:hr>117</ns3:hr>
          </ns3:TrackPointExtension>
        </extensions>
      </trkpt>
      <trkpt lat="43.03899935446679592132568359375" lon="13.8022779487073421478271484375">
        <ele>72.59999847412109375</ele>
        <time>2020-05-09T12:15:07.000Z</time>
        <extensions>
          <ns3:TrackPointExtension>
            <ns3:atemp>28.0</ns3:atemp>
            <ns3:hr>118</ns3:hr>
          </ns3:TrackPointExtension>
        </extensions>
      </trkpt>
      <trkpt lat="43.03898795507848262786865234375" lon="13.8020834885537624359130859375">
        <ele>69.1999969482421875</ele>
        <time>2020-05-09T12:15:08.000Z</time>
        <extensions>
          <ns3:TrackPointExtension>
            <ns3:atemp>28.0</ns3:atemp>
            <ns3:hr>119</ns3:hr>
          </ns3:TrackPointExtension>
        </extensions>
      </trkpt>
      <trkpt lat="43.03897789679467678070068359375" lon="13.80188475362956523895263671875">
        <ele>65.40000152587890625</ele>
        <time>2020-05-09T12:15:09.000Z</time>
        <extensions>
          <ns3:TrackPointExtension>
            <ns3:atemp>28.0</ns3:atemp>
            <ns3:hr>118</ns3:hr>
          </ns3:TrackPointExtension>
        </extensions>
      </trkpt>
      <trkpt lat="43.0389781482517719268798828125" lon="13.80169733427464962005615234375">
        <ele>61.40000152587890625</ele>
        <time>2020-05-09T12:15:10.000Z</time>
        <extensions>
          <ns3:TrackPointExtension>
            <ns3:atemp>28.0</ns3:atemp>
            <ns3:hr>118</ns3:hr>
          </ns3:TrackPointExtension>
        </extensions>
      </trkpt>
      <trkpt lat="43.03897731006145477294921875" lon="13.80152265541255474090576171875">
        <ele>58.799999237060546875</ele>
        <time>2020-05-09T12:15:11.000Z</time>
        <extensions>
          <ns3:TrackPointExtension>
            <ns3:atemp>28.0</ns3:atemp>
            <ns3:hr>117</ns3:hr>
          </ns3:TrackPointExtension>
        </extensions>
      </trkpt>
      <trkpt lat="43.038977645337581634521484375" lon="13.80128544755280017852783203125">
        <ele>57.40000152587890625</ele>
        <time>2020-05-09T12:15:12.000Z</time>
        <extensions>
          <ns3:TrackPointExtension>
            <ns3:atemp>28.0</ns3:atemp>
            <ns3:hr>118</ns3:hr>
          </ns3:TrackPointExtension>
        </extensions>
      </trkpt>
      <trkpt lat="43.03897186182439327239990234375" lon="13.8011822663247585296630859375">
        <ele>56.59999847412109375</ele>
        <time>2020-05-09T12:15:13.000Z</time>
        <extensions>
          <ns3:TrackPointExtension>
            <ns3:atemp>28.0</ns3:atemp>
            <ns3:hr>117</ns3:hr>
          </ns3:TrackPointExtension>
        </extensions>
      </trkpt>
      <trkpt lat="43.0389364063739776611328125" lon="13.80110657773911952972412109375">
        <ele>55.799999237060546875</ele>
        <time>2020-05-09T12:15:14.000Z</time>
        <extensions>
          <ns3:TrackPointExtension>
            <ns3:atemp>28.0</ns3:atemp>
            <ns3:hr>119</ns3:hr>
          </ns3:TrackPointExtension>
        </extensions>
      </trkpt>
      <trkpt lat="43.03888686932623386383056640625" lon="13.8010461442172527313232421875">
        <ele>55.200000762939453125</ele>
        <time>2020-05-09T12:15:15.000Z</time>
        <extensions>
          <ns3:TrackPointExtension>
            <ns3:atemp>28.0</ns3:atemp>
            <ns3:hr>118</ns3:hr>
          </ns3:TrackPointExtension>
        </extensions>
      </trkpt>
      <trkpt lat="43.0388162098824977874755859375" lon="13.80099208094179630279541015625">
        <ele>54.40000152587890625</ele>
        <time>2020-05-09T12:15:16.000Z</time>
        <extensions>
          <ns3:TrackPointExtension>
            <ns3:atemp>28.0</ns3:atemp>
            <ns3:hr>119</ns3:hr>
          </ns3:TrackPointExtension>
        </extensions>
      </trkpt>
      <trkpt lat="43.03874529898166656494140625" lon="13.80094237625598907470703125">
        <ele>53.40000152587890625</ele>
        <time>2020-05-09T12:15:17.000Z</time>
        <extensions>
          <ns3:TrackPointExtension>
            <ns3:atemp>28.0</ns3:atemp>
            <ns3:hr>118</ns3:hr>
          </ns3:TrackPointExtension>
        </extensions>
      </trkpt>
      <trkpt lat="43.0386656709015369415283203125" lon="13.80089568905532360076904296875">
        <ele>52</ele>
        <time>2020-05-09T12:15:18.000Z</time>
        <extensions>
          <ns3:TrackPointExtension>
            <ns3:atemp>28.0</ns3:atemp>
            <ns3:hr>119</ns3:hr>
          </ns3:TrackPointExtension>
        </extensions>
      </trkpt>
      <trkpt lat="43.03859869949519634246826171875" lon="13.80084707401692867279052734375">
        <ele>50.40000152587890625</ele>
        <time>2020-05-09T12:15:19.000Z</time>
        <extensions>
          <ns3:TrackPointExtension>
            <ns3:atemp>28.0</ns3:atemp>
            <ns3:hr>118</ns3:hr>
          </ns3:TrackPointExtension>
        </extensions>
      </trkpt>
      <trkpt lat="43.0385392718017101287841796875" lon="13.80079929716885089874267578125">
        <ele>49.200000762939453125</ele>
        <time>2020-05-09T12:15:20.000Z</time>
        <extensions>
          <ns3:TrackPointExtension>
            <ns3:atemp>28.0</ns3:atemp>
            <ns3:hr>118</ns3:hr>
          </ns3:TrackPointExtension>
        </extensions>
      </trkpt>
      <trkpt lat="43.038406334817409515380859375" lon="13.8006907515227794647216796875">
        <ele>47.40000152587890625</ele>
        <time>2020-05-09T12:15:22.000Z</time>
        <extensions>
          <ns3:TrackPointExtension>
            <ns3:atemp>28.0</ns3:atemp>
            <ns3:hr>118</ns3:hr>
          </ns3:TrackPointExtension>
        </extensions>
      </trkpt>
      <trkpt lat="43.0383458174765110015869140625" lon="13.80065110512077808380126953125">
        <ele>46.59999847412109375</ele>
        <time>2020-05-09T12:15:23.000Z</time>
        <extensions>
          <ns3:TrackPointExtension>
            <ns3:atemp>28.0</ns3:atemp>
            <ns3:hr>117</ns3:hr>
          </ns3:TrackPointExtension>
        </extensions>
      </trkpt>
      <trkpt lat="43.03828421048820018768310546875" lon="13.80061221309006214141845703125">
        <ele>46</ele>
        <time>2020-05-09T12:15:24.000Z</time>
        <extensions>
          <ns3:TrackPointExtension>
            <ns3:atemp>28.0</ns3:atemp>
            <ns3:hr>115</ns3:hr>
          </ns3:TrackPointExtension>
        </extensions>
      </trkpt>
      <trkpt lat="43.0381570570170879364013671875" lon="13.80055605433881282806396484375">
        <ele>44.799999237060546875</ele>
        <time>2020-05-09T12:15:26.000Z</time>
        <extensions>
          <ns3:TrackPointExtension>
            <ns3:atemp>28.0</ns3:atemp>
            <ns3:hr>114</ns3:hr>
          </ns3:TrackPointExtension>
        </extensions>
      </trkpt>
      <trkpt lat="43.03802805952727794647216796875" lon="13.80049034021794795989990234375">
        <ele>43.799999237060546875</ele>
        <time>2020-05-09T12:15:28.000Z</time>
        <extensions>
          <ns3:TrackPointExtension>
            <ns3:atemp>28.0</ns3:atemp>
            <ns3:hr>114</ns3:hr>
          </ns3:TrackPointExtension>
        </extensions>
      </trkpt>
      <trkpt lat="43.0379622615873813629150390625" lon="13.800465278327465057373046875">
        <ele>43.40000152587890625</ele>
        <time>2020-05-09T12:15:29.000Z</time>
        <extensions>
          <ns3:TrackPointExtension>
            <ns3:atemp>28.0</ns3:atemp>
            <ns3:hr>115</ns3:hr>
          </ns3:TrackPointExtension>
        </extensions>
      </trkpt>
      <trkpt lat="43.0378911830484867095947265625" lon="13.800441808998584747314453125">
        <ele>43</ele>
        <time>2020-05-09T12:15:30.000Z</time>
        <extensions>
          <ns3:TrackPointExtension>
            <ns3:atemp>28.0</ns3:atemp>
            <ns3:hr>113</ns3:hr>
          </ns3:TrackPointExtension>
        </extensions>
      </trkpt>
      <trkpt lat="43.03781817667186260223388671875" lon="13.80042714066803455352783203125">
        <ele>42.40000152587890625</ele>
        <time>2020-05-09T12:15:31.000Z</time>
        <extensions>
          <ns3:TrackPointExtension>
            <ns3:atemp>28.0</ns3:atemp>
            <ns3:hr>113</ns3:hr>
          </ns3:TrackPointExtension>
        </extensions>
      </trkpt>
      <trkpt lat="43.03774843923747539520263671875" lon="13.800409622490406036376953125">
        <ele>41.59999847412109375</ele>
        <time>2020-05-09T12:15:32.000Z</time>
        <extensions>
          <ns3:TrackPointExtension>
            <ns3:atemp>28.0</ns3:atemp>
            <ns3:hr>111</ns3:hr>
          </ns3:TrackPointExtension>
        </extensions>
      </trkpt>
      <trkpt lat="43.03768440149724483489990234375" lon="13.80039964802563190460205078125">
        <ele>40.799999237060546875</ele>
        <time>2020-05-09T12:15:33.000Z</time>
        <extensions>
          <ns3:TrackPointExtension>
            <ns3:atemp>28.0</ns3:atemp>
            <ns3:hr>112</ns3:hr>
          </ns3:TrackPointExtension>
        </extensions>
      </trkpt>
      <trkpt lat="43.0375673063099384307861328125" lon="13.8003574870526790618896484375">
        <ele>39.59999847412109375</ele>
        <time>2020-05-09T12:15:35.000Z</time>
        <extensions>
          <ns3:TrackPointExtension>
            <ns3:atemp>28.0</ns3:atemp>
            <ns3:hr>112</ns3:hr>
          </ns3:TrackPointExtension>
        </extensions>
      </trkpt>
      <trkpt lat="43.03747669793665409088134765625" lon="13.80033326335251331329345703125">
        <ele>39.40000152587890625</ele>
        <time>2020-05-09T12:15:37.000Z</time>
        <extensions>
          <ns3:TrackPointExtension>
            <ns3:atemp>28.0</ns3:atemp>
            <ns3:hr>114</ns3:hr>
          </ns3:TrackPointExtension>
        </extensions>
      </trkpt>
      <trkpt lat="43.03743059746921062469482421875" lon="13.8003145717084407806396484375">
        <ele>39.59999847412109375</ele>
        <time>2020-05-09T12:15:39.000Z</time>
        <extensions>
          <ns3:TrackPointExtension>
            <ns3:atemp>28.0</ns3:atemp>
            <ns3:hr>111</ns3:hr>
          </ns3:TrackPointExtension>
        </extensions>
      </trkpt>
      <trkpt lat="43.037402518093585968017578125" lon="13.80030803382396697998046875">
        <ele>40</ele>
        <time>2020-05-09T12:15:41.000Z</time>
        <extensions>
          <ns3:TrackPointExtension>
            <ns3:atemp>28.0</ns3:atemp>
            <ns3:hr>111</ns3:hr>
          </ns3:TrackPointExtension>
        </extensions>
      </trkpt>
      <trkpt lat="43.03737041540443897247314453125" lon="13.8003172539174556732177734375">
        <ele>40.200000762939453125</ele>
        <time>2020-05-09T12:15:43.000Z</time>
        <extensions>
          <ns3:TrackPointExtension>
            <ns3:atemp>28.0</ns3:atemp>
            <ns3:hr>108</ns3:hr>
          </ns3:TrackPointExtension>
        </extensions>
      </trkpt>
      <trkpt lat="43.03724988363683223724365234375" lon="13.80036310292780399322509765625">
        <ele>39.40000152587890625</ele>
        <time>2020-05-09T12:15:47.000Z</time>
        <extensions>
          <ns3:TrackPointExtension>
            <ns3:atemp>28.0</ns3:atemp>
            <ns3:hr>108</ns3:hr>
          </ns3:TrackPointExtension>
        </extensions>
      </trkpt>
      <trkpt lat="43.0371260829269886016845703125" lon="13.800369389355182647705078125">
        <ele>38.59999847412109375</ele>
        <time>2020-05-09T12:15:50.000Z</time>
        <extensions>
          <ns3:TrackPointExtension>
            <ns3:atemp>28.0</ns3:atemp>
            <ns3:hr>108</ns3:hr>
          </ns3:TrackPointExtension>
        </extensions>
      </trkpt>
      <trkpt lat="43.03704687394201755523681640625" lon="13.800358660519123077392578125">
        <ele>38.200000762939453125</ele>
        <time>2020-05-09T12:15:52.000Z</time>
        <extensions>
          <ns3:TrackPointExtension>
            <ns3:atemp>28.0</ns3:atemp>
            <ns3:hr>109</ns3:hr>
          </ns3:TrackPointExtension>
        </extensions>
      </trkpt>
      <trkpt lat="43.0368585325777530670166015625" lon="13.8003417290747165679931640625">
        <ele>38.40000152587890625</ele>
        <time>2020-05-09T12:15:57.000Z</time>
        <extensions>
          <ns3:TrackPointExtension>
            <ns3:atemp>28.0</ns3:atemp>
            <ns3:hr>106</ns3:hr>
          </ns3:TrackPointExtension>
        </extensions>
      </trkpt>
      <trkpt lat="43.03675250150263309478759765625" lon="13.80034147761762142181396484375">
        <ele>38.799999237060546875</ele>
        <time>2020-05-09T12:16:00.000Z</time>
        <extensions>
          <ns3:TrackPointExtension>
            <ns3:atemp>28.0</ns3:atemp>
            <ns3:hr>105</ns3:hr>
          </ns3:TrackPointExtension>
        </extensions>
      </trkpt>
      <trkpt lat="43.0366047285497188568115234375" lon="13.8003350235521793365478515625">
        <ele>38.799999237060546875</ele>
        <time>2020-05-09T12:16:04.000Z</time>
        <extensions>
          <ns3:TrackPointExtension>
            <ns3:atemp>28.0</ns3:atemp>
            <ns3:hr>102</ns3:hr>
          </ns3:TrackPointExtension>
        </extensions>
      </trkpt>
      <trkpt lat="43.03647740744054317474365234375" lon="13.8003408908843994140625">
        <ele>38.59999847412109375</ele>
        <time>2020-05-09T12:16:07.000Z</time>
        <extensions>
          <ns3:TrackPointExtension>
            <ns3:atemp>28.0</ns3:atemp>
            <ns3:hr>105</ns3:hr>
          </ns3:TrackPointExtension>
        </extensions>
      </trkpt>
      <trkpt lat="43.03612519986927509307861328125" lon="13.8003226183354854583740234375">
        <ele>38.40000152587890625</ele>
        <time>2020-05-09T12:16:15.000Z</time>
        <extensions>
          <ns3:TrackPointExtension>
            <ns3:atemp>28.0</ns3:atemp>
            <ns3:hr>105</ns3:hr>
          </ns3:TrackPointExtension>
        </extensions>
      </trkpt>
      <trkpt lat="43.035885058343410491943359375" lon="13.8002991490066051483154296875">
        <ele>37.59999847412109375</ele>
        <time>2020-05-09T12:16:20.000Z</time>
        <extensions>
          <ns3:TrackPointExtension>
            <ns3:atemp>28.0</ns3:atemp>
            <ns3:hr>103</ns3:hr>
          </ns3:TrackPointExtension>
        </extensions>
      </trkpt>
      <trkpt lat="43.035693280398845672607421875" lon="13.80028515122830867767333984375">
        <ele>37.200000762939453125</ele>
        <time>2020-05-09T12:16:24.000Z</time>
        <extensions>
          <ns3:TrackPointExtension>
            <ns3:atemp>28.0</ns3:atemp>
            <ns3:hr>102</ns3:hr>
          </ns3:TrackPointExtension>
        </extensions>
      </trkpt>
      <trkpt lat="43.03549982607364654541015625" lon="13.80027408711612224578857421875">
        <ele>37.59999847412109375</ele>
        <time>2020-05-09T12:16:28.000Z</time>
        <extensions>
          <ns3:TrackPointExtension>
            <ns3:atemp>28.0</ns3:atemp>
            <ns3:hr>98</ns3:hr>
          </ns3:TrackPointExtension>
        </extensions>
      </trkpt>
      <trkpt lat="43.0354495346546173095703125" lon="13.80026972852647304534912109375">
        <ele>37.799999237060546875</ele>
        <time>2020-05-09T12:16:29.000Z</time>
        <extensions>
          <ns3:TrackPointExtension>
            <ns3:atemp>28.0</ns3:atemp>
            <ns3:hr>94</ns3:hr>
          </ns3:TrackPointExtension>
        </extensions>
      </trkpt>
      <trkpt lat="43.03530209697782993316650390625" lon="13.80026235245168209075927734375">
        <ele>37.59999847412109375</ele>
        <time>2020-05-09T12:16:32.000Z</time>
        <extensions>
          <ns3:TrackPointExtension>
            <ns3:atemp>28.0</ns3:atemp>
            <ns3:hr>93</ns3:hr>
          </ns3:TrackPointExtension>
        </extensions>
      </trkpt>
      <trkpt lat="43.0351102352142333984375" lon="13.800268471240997314453125">
        <ele>37.59999847412109375</ele>
        <time>2020-05-09T12:16:36.000Z</time>
        <extensions>
          <ns3:TrackPointExtension>
            <ns3:atemp>29.0</ns3:atemp>
            <ns3:hr>97</ns3:hr>
          </ns3:TrackPointExtension>
        </extensions>
      </trkpt>
      <trkpt lat="43.0350158549845218658447265625" lon="13.80026511847972869873046875">
        <ele>37.59999847412109375</ele>
        <time>2020-05-09T12:16:38.000Z</time>
        <extensions>
          <ns3:TrackPointExtension>
            <ns3:atemp>29.0</ns3:atemp>
            <ns3:hr>100</ns3:hr>
          </ns3:TrackPointExtension>
        </extensions>
      </trkpt>
      <trkpt lat="43.03496615029871463775634765625" lon="13.800262100994586944580078125">
        <ele>37.59999847412109375</ele>
        <time>2020-05-09T12:16:39.000Z</time>
        <extensions>
          <ns3:TrackPointExtension>
            <ns3:atemp>29.0</ns3:atemp>
            <ns3:hr>101</ns3:hr>
          </ns3:TrackPointExtension>
        </extensions>
      </trkpt>
      <trkpt lat="43.03487143479287624359130859375" lon="13.80025413818657398223876953125">
        <ele>37.799999237060546875</ele>
        <time>2020-05-09T12:16:41.000Z</time>
        <extensions>
          <ns3:TrackPointExtension>
            <ns3:atemp>29.0</ns3:atemp>
            <ns3:hr>105</ns3:hr>
          </ns3:TrackPointExtension>
        </extensions>
      </trkpt>
      <trkpt lat="43.03468099795281887054443359375" lon="13.800252713263034820556640625">
        <ele>38.59999847412109375</ele>
        <time>2020-05-09T12:16:45.000Z</time>
        <extensions>
          <ns3:TrackPointExtension>
            <ns3:atemp>29.0</ns3:atemp>
            <ns3:hr>106</ns3:hr>
          </ns3:TrackPointExtension>
        </extensions>
      </trkpt>
      <trkpt lat="43.03463120944797992706298828125" lon="13.8002579100430011749267578125">
        <ele>38.799999237060546875</ele>
        <time>2020-05-09T12:16:46.000Z</time>
        <extensions>
          <ns3:TrackPointExtension>
            <ns3:atemp>29.0</ns3:atemp>
            <ns3:hr>107</ns3:hr>
          </ns3:TrackPointExtension>
        </extensions>
      </trkpt>
      <trkpt lat="43.0343439616262912750244140625" lon="13.8002756796777248382568359375">
        <ele>39.40000152587890625</ele>
        <time>2020-05-09T12:16:52.000Z</time>
        <extensions>
          <ns3:TrackPointExtension>
            <ns3:atemp>29.0</ns3:atemp>
            <ns3:hr>110</ns3:hr>
          </ns3:TrackPointExtension>
        </extensions>
      </trkpt>
      <trkpt lat="43.03424715064465999603271484375" lon="13.80027576349675655364990234375">
        <ele>39.59999847412109375</ele>
        <time>2020-05-09T12:16:54.000Z</time>
        <extensions>
          <ns3:TrackPointExtension>
            <ns3:atemp>29.0</ns3:atemp>
            <ns3:hr>109</ns3:hr>
          </ns3:TrackPointExtension>
        </extensions>
      </trkpt>
      <trkpt lat="43.03407817147672176361083984375" lon="13.800247348845005035400390625">
        <ele>39.59999847412109375</ele>
        <time>2020-05-09T12:16:58.000Z</time>
        <extensions>
          <ns3:TrackPointExtension>
            <ns3:atemp>29.0</ns3:atemp>
            <ns3:hr>107</ns3:hr>
          </ns3:TrackPointExtension>
        </extensions>
      </trkpt>
      <trkpt lat="43.03400575183331966400146484375" lon="13.8002404756844043731689453125">
        <ele>40</ele>
        <time>2020-05-09T12:17:00.000Z</time>
        <extensions>
          <ns3:TrackPointExtension>
            <ns3:atemp>29.0</ns3:atemp>
            <ns3:hr>110</ns3:hr>
          </ns3:TrackPointExtension>
        </extensions>
      </trkpt>
      <trkpt lat="43.03394414484500885009765625" lon="13.800235949456691741943359375">
        <ele>40.40000152587890625</ele>
        <time>2020-05-09T12:17:02.000Z</time>
        <extensions>
          <ns3:TrackPointExtension>
            <ns3:atemp>29.0</ns3:atemp>
            <ns3:hr>111</ns3:hr>
          </ns3:TrackPointExtension>
        </extensions>
      </trkpt>
      <trkpt lat="43.0338886566460132598876953125" lon="13.80021952092647552490234375">
        <ele>40.59999847412109375</ele>
        <time>2020-05-09T12:17:04.000Z</time>
        <extensions>
          <ns3:TrackPointExtension>
            <ns3:atemp>29.0</ns3:atemp>
            <ns3:hr>111</ns3:hr>
          </ns3:TrackPointExtension>
        </extensions>
      </trkpt>
      <trkpt lat="43.03386309184134006500244140625" lon="13.80021709017455577850341796875">
        <ele>40.799999237060546875</ele>
        <time>2020-05-09T12:17:05.000Z</time>
        <extensions>
          <ns3:TrackPointExtension>
            <ns3:atemp>29.0</ns3:atemp>
            <ns3:hr>110</ns3:hr>
          </ns3:TrackPointExtension>
        </extensions>
      </trkpt>
      <trkpt lat="43.0338053405284881591796875" lon="13.8001952134072780609130859375">
        <ele>41.59999847412109375</ele>
        <time>2020-05-09T12:17:08.000Z</time>
        <extensions>
          <ns3:TrackPointExtension>
            <ns3:atemp>29.0</ns3:atemp>
            <ns3:hr>106</ns3:hr>
          </ns3:TrackPointExtension>
        </extensions>
      </trkpt>
      <trkpt lat="43.0337904207408428192138671875" lon="13.80018808878958225250244140625">
        <ele>41.799999237060546875</ele>
        <time>2020-05-09T12:17:09.000Z</time>
        <extensions>
          <ns3:TrackPointExtension>
            <ns3:atemp>29.0</ns3:atemp>
            <ns3:hr>106</ns3:hr>
          </ns3:TrackPointExtension>
        </extensions>
      </trkpt>
      <trkpt lat="43.033749349415302276611328125" lon="13.80016612820327281951904296875">
        <ele>42.200000762939453125</ele>
        <time>2020-05-09T12:17:12.000Z</time>
        <extensions>
          <ns3:TrackPointExtension>
            <ns3:atemp>29.0</ns3:atemp>
            <ns3:hr>108</ns3:hr>
          </ns3:TrackPointExtension>
        </extensions>
      </trkpt>
      <trkpt lat="43.03370484150946140289306640625" lon="13.80019864998757839202880859375">
        <ele>42.40000152587890625</ele>
        <time>2020-05-09T12:17:15.000Z</time>
        <extensions>
          <ns3:TrackPointExtension>
            <ns3:atemp>29.0</ns3:atemp>
            <ns3:hr>107</ns3:hr>
          </ns3:TrackPointExtension>
        </extensions>
      </trkpt>
      <trkpt lat="43.03369277156889438629150390625" lon="13.80022513680160045623779296875">
        <ele>42.200000762939453125</ele>
        <time>2020-05-09T12:17:16.000Z</time>
        <extensions>
          <ns3:TrackPointExtension>
            <ns3:atemp>29.0</ns3:atemp>
            <ns3:hr>106</ns3:hr>
          </ns3:TrackPointExtension>
        </extensions>
      </trkpt>
      <trkpt lat="43.03368262946605682373046875" lon="13.8003943674266338348388671875">
        <ele>42.200000762939453125</ele>
        <time>2020-05-09T12:17:20.000Z</time>
        <extensions>
          <ns3:TrackPointExtension>
            <ns3:atemp>29.0</ns3:atemp>
            <ns3:hr>106</ns3:hr>
          </ns3:TrackPointExtension>
        </extensions>
      </trkpt>
      <trkpt lat="43.03369947709143161773681640625" lon="13.8005863130092620849609375">
        <ele>42.59999847412109375</ele>
        <time>2020-05-09T12:17:24.000Z</time>
        <extensions>
          <ns3:TrackPointExtension>
            <ns3:atemp>29.0</ns3:atemp>
            <ns3:hr>109</ns3:hr>
          </ns3:TrackPointExtension>
        </extensions>
      </trkpt>
      <trkpt lat="43.033702075481414794921875" lon="13.8006345927715301513671875">
        <ele>42.40000152587890625</ele>
        <time>2020-05-09T12:17:25.000Z</time>
        <extensions>
          <ns3:TrackPointExtension>
            <ns3:atemp>29.0</ns3:atemp>
            <ns3:hr>113</ns3:hr>
          </ns3:TrackPointExtension>
        </extensions>
      </trkpt>
      <trkpt lat="43.03370500914752483367919921875" lon="13.8007313199341297149658203125">
        <ele>42.200000762939453125</ele>
        <time>2020-05-09T12:17:27.000Z</time>
        <extensions>
          <ns3:TrackPointExtension>
            <ns3:atemp>29.0</ns3:atemp>
            <ns3:hr>116</ns3:hr>
          </ns3:TrackPointExtension>
        </extensions>
      </trkpt>
      <trkpt lat="43.0336958728730678558349609375" lon="13.80087238736450672149658203125">
        <ele>41.799999237060546875</ele>
        <time>2020-05-09T12:17:30.000Z</time>
        <extensions>
          <ns3:TrackPointExtension>
            <ns3:atemp>29.0</ns3:atemp>
            <ns3:hr>119</ns3:hr>
          </ns3:TrackPointExtension>
        </extensions>
      </trkpt>
      <trkpt lat="43.03369604051113128662109375" lon="13.80102217197418212890625">
        <ele>41.59999847412109375</ele>
        <time>2020-05-09T12:17:33.000Z</time>
        <extensions>
          <ns3:TrackPointExtension>
            <ns3:atemp>29.0</ns3:atemp>
            <ns3:hr>115</ns3:hr>
          </ns3:TrackPointExtension>
        </extensions>
      </trkpt>
      <trkpt lat="43.03369444794952869415283203125" lon="13.8010733015835285186767578125">
        <ele>41.59999847412109375</ele>
        <time>2020-05-09T12:17:34.000Z</time>
        <extensions>
          <ns3:TrackPointExtension>
            <ns3:atemp>29.0</ns3:atemp>
            <ns3:hr>112</ns3:hr>
          </ns3:TrackPointExtension>
        </extensions>
      </trkpt>
      <trkpt lat="43.03369260393083095550537109375" lon="13.80117296241223812103271484375">
        <ele>41.200000762939453125</ele>
        <time>2020-05-09T12:17:36.000Z</time>
        <extensions>
          <ns3:TrackPointExtension>
            <ns3:atemp>29.0</ns3:atemp>
            <ns3:hr>108</ns3:hr>
          </ns3:TrackPointExtension>
        </extensions>
      </trkpt>
      <trkpt lat="43.0336941964924335479736328125" lon="13.80127505399286746978759765625">
        <ele>40.799999237060546875</ele>
        <time>2020-05-09T12:17:38.000Z</time>
        <extensions>
          <ns3:TrackPointExtension>
            <ns3:atemp>29.0</ns3:atemp>
            <ns3:hr>105</ns3:hr>
          </ns3:TrackPointExtension>
        </extensions>
      </trkpt>
      <trkpt lat="43.033709786832332611083984375" lon="13.80148292519152164459228515625">
        <ele>40.40000152587890625</ele>
        <time>2020-05-09T12:17:42.000Z</time>
        <extensions>
          <ns3:TrackPointExtension>
            <ns3:atemp>29.0</ns3:atemp>
            <ns3:hr>105</ns3:hr>
          </ns3:TrackPointExtension>
        </extensions>
      </trkpt>
      <trkpt lat="43.03379050455987453460693359375" lon="13.80181937478482723236083984375">
        <ele>40.200000762939453125</ele>
        <time>2020-05-09T12:17:49.000Z</time>
        <extensions>
          <ns3:TrackPointExtension>
            <ns3:atemp>29.0</ns3:atemp>
            <ns3:hr>104</ns3:hr>
          </ns3:TrackPointExtension>
        </extensions>
      </trkpt>
      <trkpt lat="43.033838532865047454833984375" lon="13.8019554130733013153076171875">
        <ele>39.799999237060546875</ele>
        <time>2020-05-09T12:17:52.000Z</time>
        <extensions>
          <ns3:TrackPointExtension>
            <ns3:atemp>29.0</ns3:atemp>
            <ns3:hr>101</ns3:hr>
          </ns3:TrackPointExtension>
        </extensions>
      </trkpt>
      <trkpt lat="43.03387046791613101959228515625" lon="13.80204610526561737060546875">
        <ele>39.59999847412109375</ele>
        <time>2020-05-09T12:17:54.000Z</time>
        <extensions>
          <ns3:TrackPointExtension>
            <ns3:atemp>29.0</ns3:atemp>
            <ns3:hr>99</ns3:hr>
          </ns3:TrackPointExtension>
        </extensions>
      </trkpt>
      <trkpt lat="43.0339474976062774658203125" lon="13.80222380161285400390625">
        <ele>39.200000762939453125</ele>
        <time>2020-05-09T12:17:58.000Z</time>
        <extensions>
          <ns3:TrackPointExtension>
            <ns3:atemp>29.0</ns3:atemp>
            <ns3:hr>97</ns3:hr>
          </ns3:TrackPointExtension>
        </extensions>
      </trkpt>
      <trkpt lat="43.03404866717755794525146484375" lon="13.8024558126926422119140625">
        <ele>38.799999237060546875</ele>
        <time>2020-05-09T12:18:03.000Z</time>
        <extensions>
          <ns3:TrackPointExtension>
            <ns3:atemp>29.0</ns3:atemp>
            <ns3:hr>94</ns3:hr>
          </ns3:TrackPointExtension>
        </extensions>
      </trkpt>
      <trkpt lat="43.0340676940977573394775390625" lon="13.80250937305390834808349609375">
        <ele>38.40000152587890625</ele>
        <time>2020-05-09T12:18:04.000Z</time>
        <extensions>
          <ns3:TrackPointExtension>
            <ns3:atemp>29.0</ns3:atemp>
            <ns3:hr>94</ns3:hr>
          </ns3:TrackPointExtension>
        </extensions>
      </trkpt>
      <trkpt lat="43.03411220200359821319580078125" lon="13.80261263810098171234130859375">
        <ele>38.200000762939453125</ele>
        <time>2020-05-09T12:18:06.000Z</time>
        <extensions>
          <ns3:TrackPointExtension>
            <ns3:atemp>29.0</ns3:atemp>
            <ns3:hr>93</ns3:hr>
          </ns3:TrackPointExtension>
        </extensions>
      </trkpt>
      <trkpt lat="43.03421999327838420867919921875" lon="13.80284967832267284393310546875">
        <ele>37.40000152587890625</ele>
        <time>2020-05-09T12:18:11.000Z</time>
        <extensions>
          <ns3:TrackPointExtension>
            <ns3:atemp>29.0</ns3:atemp>
            <ns3:hr>92</ns3:hr>
          </ns3:TrackPointExtension>
        </extensions>
      </trkpt>
      <trkpt lat="43.03434379398822784423828125" lon="13.80309627391397953033447265625">
        <ele>37.40000152587890625</ele>
        <time>2020-05-09T12:18:16.000Z</time>
        <extensions>
          <ns3:TrackPointExtension>
            <ns3:atemp>29.0</ns3:atemp>
            <ns3:hr>90</ns3:hr>
          </ns3:TrackPointExtension>
        </extensions>
      </trkpt>
      <trkpt lat="43.0345008708536624908447265625" lon="13.80343724973499774932861328125">
        <ele>36.200000762939453125</ele>
        <time>2020-05-09T12:18:23.000Z</time>
        <extensions>
          <ns3:TrackPointExtension>
            <ns3:atemp>28.0</ns3:atemp>
            <ns3:hr>91</ns3:hr>
          </ns3:TrackPointExtension>
        </extensions>
      </trkpt>
      <trkpt lat="43.03452526219189167022705078125" lon="13.80348904989659786224365234375">
        <ele>36.200000762939453125</ele>
        <time>2020-05-09T12:18:24.000Z</time>
        <extensions>
          <ns3:TrackPointExtension>
            <ns3:atemp>28.0</ns3:atemp>
            <ns3:hr>94</ns3:hr>
          </ns3:TrackPointExtension>
        </extensions>
      </trkpt>
      <trkpt lat="43.0345483124256134033203125" lon="13.80354437045753002166748046875">
        <ele>36</ele>
        <time>2020-05-09T12:18:25.000Z</time>
        <extensions>
          <ns3:TrackPointExtension>
            <ns3:atemp>28.0</ns3:atemp>
            <ns3:hr>93</ns3:hr>
          </ns3:TrackPointExtension>
        </extensions>
      </trkpt>
      <trkpt lat="43.0347580276429653167724609375" lon="13.80406714975833892822265625">
        <ele>36.40000152587890625</ele>
        <time>2020-05-09T12:18:34.000Z</time>
        <extensions>
          <ns3:TrackPointExtension>
            <ns3:atemp>28.0</ns3:atemp>
            <ns3:hr>88</ns3:hr>
          </ns3:TrackPointExtension>
        </extensions>
      </trkpt>
      <trkpt lat="43.034775964915752410888671875" lon="13.80412858910858631134033203125">
        <ele>36.59999847412109375</ele>
        <time>2020-05-09T12:18:35.000Z</time>
        <extensions>
          <ns3:TrackPointExtension>
            <ns3:atemp>28.0</ns3:atemp>
            <ns3:hr>82</ns3:hr>
          </ns3:TrackPointExtension>
        </extensions>
      </trkpt>
      <trkpt lat="43.03479163907468318939208984375" lon="13.80418944172561168670654296875">
        <ele>36.799999237060546875</ele>
        <time>2020-05-09T12:18:36.000Z</time>
        <extensions>
          <ns3:TrackPointExtension>
            <ns3:atemp>28.0</ns3:atemp>
            <ns3:hr>77</ns3:hr>
          </ns3:TrackPointExtension>
        </extensions>
      </trkpt>
      <trkpt lat="43.03480136208236217498779296875" lon="13.80425465293228626251220703125">
        <ele>36.799999237060546875</ele>
        <time>2020-05-09T12:18:37.000Z</time>
        <extensions>
          <ns3:TrackPointExtension>
            <ns3:atemp>28.0</ns3:atemp>
            <ns3:hr>77</ns3:hr>
          </ns3:TrackPointExtension>
        </extensions>
      </trkpt>
      <trkpt lat="43.034807145595550537109375" lon="13.80438742227852344512939453125">
        <ele>36.799999237060546875</ele>
        <time>2020-05-09T12:18:39.000Z</time>
        <extensions>
          <ns3:TrackPointExtension>
            <ns3:atemp>28.0</ns3:atemp>
            <ns3:hr>77</ns3:hr>
          </ns3:TrackPointExtension>
        </extensions>
      </trkpt>
      <trkpt lat="43.0348029546439647674560546875" lon="13.80445414222776889801025390625">
        <ele>37</ele>
        <time>2020-05-09T12:18:40.000Z</time>
        <extensions>
          <ns3:TrackPointExtension>
            <ns3:atemp>28.0</ns3:atemp>
            <ns3:hr>76</ns3:hr>
          </ns3:TrackPointExtension>
        </extensions>
      </trkpt>
      <trkpt lat="43.03479147143661975860595703125" lon="13.804520778357982635498046875">
        <ele>37.200000762939453125</ele>
        <time>2020-05-09T12:18:41.000Z</time>
        <extensions>
          <ns3:TrackPointExtension>
            <ns3:atemp>28.0</ns3:atemp>
            <ns3:hr>76</ns3:hr>
          </ns3:TrackPointExtension>
        </extensions>
      </trkpt>
      <trkpt lat="43.03475190885365009307861328125" lon="13.8047241233289241790771484375">
        <ele>37.40000152587890625</ele>
        <time>2020-05-09T12:18:44.000Z</time>
        <extensions>
          <ns3:TrackPointExtension>
            <ns3:atemp>28.0</ns3:atemp>
            <ns3:hr>74</ns3:hr>
          </ns3:TrackPointExtension>
        </extensions>
      </trkpt>
      <trkpt lat="43.03467638790607452392578125" lon="13.805189989507198333740234375">
        <ele>36.799999237060546875</ele>
        <time>2020-05-09T12:18:51.000Z</time>
        <extensions>
          <ns3:TrackPointExtension>
            <ns3:atemp>29.0</ns3:atemp>
            <ns3:hr>78</ns3:hr>
          </ns3:TrackPointExtension>
        </extensions>
      </trkpt>
      <trkpt lat="43.03466423414647579193115234375" lon="13.80525863729417324066162109375">
        <ele>36.799999237060546875</ele>
        <time>2020-05-09T12:18:52.000Z</time>
        <extensions>
          <ns3:TrackPointExtension>
            <ns3:atemp>29.0</ns3:atemp>
            <ns3:hr>75</ns3:hr>
          </ns3:TrackPointExtension>
        </extensions>
      </trkpt>
      <trkpt lat="43.0346527509391307830810546875" lon="13.805320076644420623779296875">
        <ele>36.799999237060546875</ele>
        <time>2020-05-09T12:18:53.000Z</time>
        <extensions>
          <ns3:TrackPointExtension>
            <ns3:atemp>29.0</ns3:atemp>
            <ns3:hr>74</ns3:hr>
          </ns3:TrackPointExtension>
        </extensions>
      </trkpt>
      <trkpt lat="43.03455828689038753509521484375" lon="13.80598635412752628326416015625">
        <ele>37.59999847412109375</ele>
        <time>2020-05-09T12:19:03.000Z</time>
        <extensions>
          <ns3:TrackPointExtension>
            <ns3:atemp>29.0</ns3:atemp>
            <ns3:hr>74</ns3:hr>
          </ns3:TrackPointExtension>
        </extensions>
      </trkpt>
      <trkpt lat="43.03454353474080562591552734375" lon="13.8061165250837802886962890625">
        <ele>37.40000152587890625</ele>
        <time>2020-05-09T12:19:05.000Z</time>
        <extensions>
          <ns3:TrackPointExtension>
            <ns3:atemp>29.0</ns3:atemp>
            <ns3:hr>77</ns3:hr>
          </ns3:TrackPointExtension>
        </extensions>
      </trkpt>
      <trkpt lat="43.034531883895397186279296875" lon="13.8063005916774272918701171875">
        <ele>37.200000762939453125</ele>
        <time>2020-05-09T12:19:08.000Z</time>
        <extensions>
          <ns3:TrackPointExtension>
            <ns3:atemp>29.0</ns3:atemp>
            <ns3:hr>82</ns3:hr>
          </ns3:TrackPointExtension>
        </extensions>
      </trkpt>
      <trkpt lat="43.03453045897185802459716796875" lon="13.80636203102767467498779296875">
        <ele>37.40000152587890625</ele>
        <time>2020-05-09T12:19:09.000Z</time>
        <extensions>
          <ns3:TrackPointExtension>
            <ns3:atemp>29.0</ns3:atemp>
            <ns3:hr>82</ns3:hr>
          </ns3:TrackPointExtension>
        </extensions>
      </trkpt>
      <trkpt lat="43.03454085253179073333740234375" lon="13.806530423462390899658203125">
        <ele>38.200000762939453125</ele>
        <time>2020-05-09T12:19:12.000Z</time>
        <extensions>
          <ns3:TrackPointExtension>
            <ns3:atemp>29.0</ns3:atemp>
            <ns3:hr>82</ns3:hr>
          </ns3:TrackPointExtension>
        </extensions>
      </trkpt>
      <trkpt lat="43.0345652438700199127197265625" lon="13.806716501712799072265625">
        <ele>38.40000152587890625</ele>
        <time>2020-05-09T12:19:15.000Z</time>
        <extensions>
          <ns3:TrackPointExtension>
            <ns3:atemp>28.0</ns3:atemp>
            <ns3:hr>82</ns3:hr>
          </ns3:TrackPointExtension>
        </extensions>
      </trkpt>
      <trkpt lat="43.034618385136127471923828125" lon="13.8072537817060947418212890625">
        <ele>38</ele>
        <time>2020-05-09T12:19:23.000Z</time>
        <extensions>
          <ns3:TrackPointExtension>
            <ns3:atemp>28.0</ns3:atemp>
            <ns3:hr>83</ns3:hr>
          </ns3:TrackPointExtension>
        </extensions>
      </trkpt>
      <trkpt lat="43.0346141941845417022705078125" lon="13.80732310004532337188720703125">
        <ele>38</ele>
        <time>2020-05-09T12:19:24.000Z</time>
        <extensions>
          <ns3:TrackPointExtension>
            <ns3:atemp>28.0</ns3:atemp>
            <ns3:hr>85</ns3:hr>
          </ns3:TrackPointExtension>
        </extensions>
      </trkpt>
      <trkpt lat="43.03458175621926784515380859375" lon="13.80766591988503932952880859375">
        <ele>37.59999847412109375</ele>
        <time>2020-05-09T12:19:29.000Z</time>
        <extensions>
          <ns3:TrackPointExtension>
            <ns3:atemp>28.0</ns3:atemp>
            <ns3:hr>84</ns3:hr>
          </ns3:TrackPointExtension>
        </extensions>
      </trkpt>
      <trkpt lat="43.0345330573618412017822265625" lon="13.80807839334011077880859375">
        <ele>37.40000152587890625</ele>
        <time>2020-05-09T12:19:35.000Z</time>
        <extensions>
          <ns3:TrackPointExtension>
            <ns3:atemp>29.0</ns3:atemp>
            <ns3:hr>89</ns3:hr>
          </ns3:TrackPointExtension>
        </extensions>
      </trkpt>
      <trkpt lat="43.0345214903354644775390625" lon="13.8081452809274196624755859375">
        <ele>37.40000152587890625</ele>
        <time>2020-05-09T12:19:36.000Z</time>
        <extensions>
          <ns3:TrackPointExtension>
            <ns3:atemp>29.0</ns3:atemp>
            <ns3:hr>94</ns3:hr>
          </ns3:TrackPointExtension>
        </extensions>
      </trkpt>
      <trkpt lat="43.03451034240424633026123046875" lon="13.808213509619235992431640625">
        <ele>37.200000762939453125</ele>
        <time>2020-05-09T12:19:37.000Z</time>
        <extensions>
          <ns3:TrackPointExtension>
            <ns3:atemp>29.0</ns3:atemp>
            <ns3:hr>98</ns3:hr>
          </ns3:TrackPointExtension>
        </extensions>
      </trkpt>
      <trkpt lat="43.034499697387218475341796875" lon="13.80828358232975006103515625">
        <ele>37</ele>
        <time>2020-05-09T12:19:38.000Z</time>
        <extensions>
          <ns3:TrackPointExtension>
            <ns3:atemp>29.0</ns3:atemp>
            <ns3:hr>104</ns3:hr>
          </ns3:TrackPointExtension>
        </extensions>
      </trkpt>
      <trkpt lat="43.03449156694114208221435546875" lon="13.80835466086864471435546875">
        <ele>36.799999237060546875</ele>
        <time>2020-05-09T12:19:39.000Z</time>
        <extensions>
          <ns3:TrackPointExtension>
            <ns3:atemp>29.0</ns3:atemp>
            <ns3:hr>108</ns3:hr>
          </ns3:TrackPointExtension>
        </extensions>
      </trkpt>
      <trkpt lat="43.03447664715349674224853515625" lon="13.808504529297351837158203125">
        <ele>36.200000762939453125</ele>
        <time>2020-05-09T12:19:41.000Z</time>
        <extensions>
          <ns3:TrackPointExtension>
            <ns3:atemp>29.0</ns3:atemp>
            <ns3:hr>114</ns3:hr>
          </ns3:TrackPointExtension>
        </extensions>
      </trkpt>
      <trkpt lat="43.0344572849571704864501953125" lon="13.8086572475731372833251953125">
        <ele>36</ele>
        <time>2020-05-09T12:19:43.000Z</time>
        <extensions>
          <ns3:TrackPointExtension>
            <ns3:atemp>29.0</ns3:atemp>
            <ns3:hr>117</ns3:hr>
          </ns3:TrackPointExtension>
        </extensions>
      </trkpt>
      <trkpt lat="43.0344398505985736846923828125" lon="13.80880116485059261322021484375">
        <ele>35.799999237060546875</ele>
        <time>2020-05-09T12:19:45.000Z</time>
        <extensions>
          <ns3:TrackPointExtension>
            <ns3:atemp>29.0</ns3:atemp>
            <ns3:hr>120</ns3:hr>
          </ns3:TrackPointExtension>
        </extensions>
      </trkpt>
      <trkpt lat="43.03442400880157947540283203125" lon="13.80888263694941997528076171875">
        <ele>35.40000152587890625</ele>
        <time>2020-05-09T12:19:46.000Z</time>
        <extensions>
          <ns3:TrackPointExtension>
            <ns3:atemp>29.0</ns3:atemp>
            <ns3:hr>117</ns3:hr>
          </ns3:TrackPointExtension>
        </extensions>
      </trkpt>
      <trkpt lat="43.034393750131130218505859375" lon="13.80911246873438358306884765625">
        <ele>35.40000152587890625</ele>
        <time>2020-05-09T12:19:49.000Z</time>
        <extensions>
          <ns3:TrackPointExtension>
            <ns3:atemp>29.0</ns3:atemp>
            <ns3:hr>120</ns3:hr>
          </ns3:TrackPointExtension>
        </extensions>
      </trkpt>
      <trkpt lat="43.034368269145488739013671875" lon="13.809264265000820159912109375">
        <ele>35.200000762939453125</ele>
        <time>2020-05-09T12:19:51.000Z</time>
        <extensions>
          <ns3:TrackPointExtension>
            <ns3:atemp>29.0</ns3:atemp>
            <ns3:hr>120</ns3:hr>
          </ns3:TrackPointExtension>
        </extensions>
      </trkpt>
      <trkpt lat="43.03436030633747577667236328125" lon="13.80933903157711029052734375">
        <ele>35.200000762939453125</ele>
        <time>2020-05-09T12:19:52.000Z</time>
        <extensions>
          <ns3:TrackPointExtension>
            <ns3:atemp>29.0</ns3:atemp>
            <ns3:hr>120</ns3:hr>
          </ns3:TrackPointExtension>
        </extensions>
      </trkpt>
      <trkpt lat="43.03427179343998432159423828125" lon="13.8099510781466960906982421875">
        <ele>34</ele>
        <time>2020-05-09T12:20:00.000Z</time>
        <extensions>
          <ns3:TrackPointExtension>
            <ns3:atemp>29.0</ns3:atemp>
            <ns3:hr>122</ns3:hr>
          </ns3:TrackPointExtension>
        </extensions>
      </trkpt>
      <trkpt lat="43.03424597717821598052978515625" lon="13.81010471843183040618896484375">
        <ele>34</ele>
        <time>2020-05-09T12:20:02.000Z</time>
        <extensions>
          <ns3:TrackPointExtension>
            <ns3:atemp>29.0</ns3:atemp>
            <ns3:hr>119</ns3:hr>
          </ns3:TrackPointExtension>
        </extensions>
      </trkpt>
      <trkpt lat="43.034153021872043609619140625" lon="13.810465894639492034912109375">
        <ele>33</ele>
        <time>2020-05-09T12:20:07.000Z</time>
        <extensions>
          <ns3:TrackPointExtension>
            <ns3:atemp>29.0</ns3:atemp>
            <ns3:hr>117</ns3:hr>
          </ns3:TrackPointExtension>
        </extensions>
      </trkpt>
      <trkpt lat="43.0341313965618610382080078125" lon="13.81053437478840351104736328125">
        <ele>33</ele>
        <time>2020-05-09T12:20:08.000Z</time>
        <extensions>
          <ns3:TrackPointExtension>
            <ns3:atemp>29.0</ns3:atemp>
            <ns3:hr>116</ns3:hr>
          </ns3:TrackPointExtension>
        </extensions>
      </trkpt>
      <trkpt lat="43.033965937793254852294921875" lon="13.81110794842243194580078125">
        <ele>32.40000152587890625</ele>
        <time>2020-05-09T12:20:16.000Z</time>
        <extensions>
          <ns3:TrackPointExtension>
            <ns3:atemp>29.0</ns3:atemp>
            <ns3:hr>114</ns3:hr>
          </ns3:TrackPointExtension>
        </extensions>
      </trkpt>
      <trkpt lat="43.03384146653115749359130859375" lon="13.811427466571331024169921875">
        <ele>32</ele>
        <time>2020-05-09T12:20:21.000Z</time>
        <extensions>
          <ns3:TrackPointExtension>
            <ns3:atemp>29.0</ns3:atemp>
            <ns3:hr>110</ns3:hr>
          </ns3:TrackPointExtension>
        </extensions>
      </trkpt>
      <trkpt lat="43.03381196223199367523193359375" lon="13.81148940883576869964599609375">
        <ele>32</ele>
        <time>2020-05-09T12:20:22.000Z</time>
        <extensions>
          <ns3:TrackPointExtension>
            <ns3:atemp>28.0</ns3:atemp>
            <ns3:hr>109</ns3:hr>
          </ns3:TrackPointExtension>
        </extensions>
      </trkpt>
      <trkpt lat="43.0337562225759029388427734375" lon="13.81161597557365894317626953125">
        <ele>31.799999237060546875</ele>
        <time>2020-05-09T12:20:24.000Z</time>
        <extensions>
          <ns3:TrackPointExtension>
            <ns3:atemp>28.0</ns3:atemp>
            <ns3:hr>108</ns3:hr>
          </ns3:TrackPointExtension>
        </extensions>
      </trkpt>
      <trkpt lat="43.033589422702789306640625" lon="13.8119949214160442352294921875">
        <ele>30.799999237060546875</ele>
        <time>2020-05-09T12:20:30.000Z</time>
        <extensions>
          <ns3:TrackPointExtension>
            <ns3:atemp>28.0</ns3:atemp>
            <ns3:hr>109</ns3:hr>
          </ns3:TrackPointExtension>
        </extensions>
      </trkpt>
      <trkpt lat="43.03356603719294071197509765625" lon="13.81206474266946315765380859375">
        <ele>30.6000003814697265625</ele>
        <time>2020-05-09T12:20:31.000Z</time>
        <extensions>
          <ns3:TrackPointExtension>
            <ns3:atemp>28.0</ns3:atemp>
            <ns3:hr>110</ns3:hr>
          </ns3:TrackPointExtension>
        </extensions>
      </trkpt>
      <trkpt lat="43.0334906838834285736083984375" lon="13.812354505062103271484375">
        <ele>30.3999996185302734375</ele>
        <time>2020-05-09T12:20:35.000Z</time>
        <extensions>
          <ns3:TrackPointExtension>
            <ns3:atemp>28.0</ns3:atemp>
            <ns3:hr>110</ns3:hr>
          </ns3:TrackPointExtension>
        </extensions>
      </trkpt>
      <trkpt lat="43.03347920067608356475830078125" lon="13.81251451559364795684814453125">
        <ele>30.799999237060546875</ele>
        <time>2020-05-09T12:20:37.000Z</time>
        <extensions>
          <ns3:TrackPointExtension>
            <ns3:atemp>28.0</ns3:atemp>
            <ns3:hr>110</ns3:hr>
          </ns3:TrackPointExtension>
        </extensions>
      </trkpt>
      <trkpt lat="43.0334819667041301727294921875" lon="13.812592886388301849365234375">
        <ele>31</ele>
        <time>2020-05-09T12:20:38.000Z</time>
        <extensions>
          <ns3:TrackPointExtension>
            <ns3:atemp>28.0</ns3:atemp>
            <ns3:hr>110</ns3:hr>
          </ns3:TrackPointExtension>
        </extensions>
      </trkpt>
      <trkpt lat="43.03351675160229206085205078125" lon="13.81283403374254703521728515625">
        <ele>30.799999237060546875</ele>
        <time>2020-05-09T12:20:41.000Z</time>
        <extensions>
          <ns3:TrackPointExtension>
            <ns3:atemp>28.0</ns3:atemp>
            <ns3:hr>111</ns3:hr>
          </ns3:TrackPointExtension>
        </extensions>
      </trkpt>
      <trkpt lat="43.0335926078259944915771484375" lon="13.8130800426006317138671875">
        <ele>29.3999996185302734375</ele>
        <time>2020-05-09T12:20:44.000Z</time>
        <extensions>
          <ns3:TrackPointExtension>
            <ns3:atemp>28.0</ns3:atemp>
            <ns3:hr>112</ns3:hr>
          </ns3:TrackPointExtension>
        </extensions>
      </trkpt>
      <trkpt lat="43.03362538106739521026611328125" lon="13.81315656937658786773681640625">
        <ele>29</ele>
        <time>2020-05-09T12:20:45.000Z</time>
        <extensions>
          <ns3:TrackPointExtension>
            <ns3:atemp>28.0</ns3:atemp>
            <ns3:hr>112</ns3:hr>
          </ns3:TrackPointExtension>
        </extensions>
      </trkpt>
      <trkpt lat="43.03365773521363735198974609375" lon="13.8132320903241634368896484375">
        <ele>28.3999996185302734375</ele>
        <time>2020-05-09T12:20:46.000Z</time>
        <extensions>
          <ns3:TrackPointExtension>
            <ns3:atemp>28.0</ns3:atemp>
            <ns3:hr>112</ns3:hr>
          </ns3:TrackPointExtension>
        </extensions>
      </trkpt>
      <trkpt lat="43.0337760038673877716064453125" lon="13.81349603645503520965576171875">
        <ele>27</ele>
        <time>2020-05-09T12:20:49.000Z</time>
        <extensions>
          <ns3:TrackPointExtension>
            <ns3:atemp>28.0</ns3:atemp>
            <ns3:hr>112</ns3:hr>
          </ns3:TrackPointExtension>
        </extensions>
      </trkpt>
      <trkpt lat="43.033933080732822418212890625" lon="13.81384908221662044525146484375">
        <ele>25.799999237060546875</ele>
        <time>2020-05-09T12:20:53.000Z</time>
        <extensions>
          <ns3:TrackPointExtension>
            <ns3:atemp>28.0</ns3:atemp>
            <ns3:hr>112</ns3:hr>
          </ns3:TrackPointExtension>
        </extensions>
      </trkpt>
      <trkpt lat="43.03396937437355518341064453125" lon="13.81393256597220897674560546875">
        <ele>25.200000762939453125</ele>
        <time>2020-05-09T12:20:54.000Z</time>
        <extensions>
          <ns3:TrackPointExtension>
            <ns3:atemp>28.0</ns3:atemp>
            <ns3:hr>112</ns3:hr>
          </ns3:TrackPointExtension>
        </extensions>
      </trkpt>
      <trkpt lat="43.0340065062046051025390625" lon="13.814017474651336669921875">
        <ele>24.799999237060546875</ele>
        <time>2020-05-09T12:20:55.000Z</time>
        <extensions>
          <ns3:TrackPointExtension>
            <ns3:atemp>28.0</ns3:atemp>
            <ns3:hr>111</ns3:hr>
          </ns3:TrackPointExtension>
        </extensions>
      </trkpt>
      <trkpt lat="43.0340794287621974945068359375" lon="13.8141802512109279632568359375">
        <ele>24.3999996185302734375</ele>
        <time>2020-05-09T12:20:57.000Z</time>
        <extensions>
          <ns3:TrackPointExtension>
            <ns3:atemp>28.0</ns3:atemp>
            <ns3:hr>108</ns3:hr>
          </ns3:TrackPointExtension>
        </extensions>
      </trkpt>
      <trkpt lat="43.03411337547004222869873046875" lon="13.814257867634296417236328125">
        <ele>24.3999996185302734375</ele>
        <time>2020-05-09T12:20:58.000Z</time>
        <extensions>
          <ns3:TrackPointExtension>
            <ns3:atemp>28.0</ns3:atemp>
            <ns3:hr>108</ns3:hr>
          </ns3:TrackPointExtension>
        </extensions>
      </trkpt>
      <trkpt lat="43.03420834243297576904296875" lon="13.81448082625865936279296875">
        <ele>24.3999996185302734375</ele>
        <time>2020-05-09T12:21:01.000Z</time>
        <extensions>
          <ns3:TrackPointExtension>
            <ns3:atemp>28.0</ns3:atemp>
            <ns3:hr>108</ns3:hr>
          </ns3:TrackPointExtension>
        </extensions>
      </trkpt>
      <trkpt lat="43.03442166186869144439697265625" lon="13.81501181982457637786865234375">
        <ele>25.3999996185302734375</ele>
        <time>2020-05-09T12:21:09.000Z</time>
        <extensions>
          <ns3:TrackPointExtension>
            <ns3:atemp>28.0</ns3:atemp>
            <ns3:hr>107</ns3:hr>
          </ns3:TrackPointExtension>
        </extensions>
      </trkpt>
      <trkpt lat="43.0345199815928936004638671875" lon="13.81526805460453033447265625">
        <ele>25.799999237060546875</ele>
        <time>2020-05-09T12:21:13.000Z</time>
        <extensions>
          <ns3:TrackPointExtension>
            <ns3:atemp>28.0</ns3:atemp>
            <ns3:hr>106</ns3:hr>
          </ns3:TrackPointExtension>
        </extensions>
      </trkpt>
      <trkpt lat="43.03462701849639415740966796875" lon="13.81554172374308109283447265625">
        <ele>25.6000003814697265625</ele>
        <time>2020-05-09T12:21:17.000Z</time>
        <extensions>
          <ns3:TrackPointExtension>
            <ns3:atemp>28.0</ns3:atemp>
            <ns3:hr>106</ns3:hr>
          </ns3:TrackPointExtension>
        </extensions>
      </trkpt>
      <trkpt lat="43.03471469320356845855712890625" lon="13.8157446496188640594482421875">
        <ele>24.799999237060546875</ele>
        <time>2020-05-09T12:21:20.000Z</time>
        <extensions>
          <ns3:TrackPointExtension>
            <ns3:atemp>28.0</ns3:atemp>
            <ns3:hr>108</ns3:hr>
          </ns3:TrackPointExtension>
        </extensions>
      </trkpt>
      <trkpt lat="43.03478635847568511962890625" lon="13.81587289273738861083984375">
        <ele>24.200000762939453125</ele>
        <time>2020-05-09T12:21:22.000Z</time>
        <extensions>
          <ns3:TrackPointExtension>
            <ns3:atemp>27.0</ns3:atemp>
            <ns3:hr>110</ns3:hr>
          </ns3:TrackPointExtension>
        </extensions>
      </trkpt>
      <trkpt lat="43.0348294414579868316650390625" lon="13.81593056023120880126953125">
        <ele>24</ele>
        <time>2020-05-09T12:21:23.000Z</time>
        <extensions>
          <ns3:TrackPointExtension>
            <ns3:atemp>27.0</ns3:atemp>
            <ns3:hr>112</ns3:hr>
          </ns3:TrackPointExtension>
        </extensions>
      </trkpt>
      <trkpt lat="43.034875877201557159423828125" lon="13.81597892381250858306884765625">
        <ele>24</ele>
        <time>2020-05-09T12:21:24.000Z</time>
        <extensions>
          <ns3:TrackPointExtension>
            <ns3:atemp>27.0</ns3:atemp>
            <ns3:hr>113</ns3:hr>
          </ns3:TrackPointExtension>
        </extensions>
      </trkpt>
      <trkpt lat="43.0349799804389476776123046875" lon="13.81605536676943302154541015625">
        <ele>24</ele>
        <time>2020-05-09T12:21:26.000Z</time>
        <extensions>
          <ns3:TrackPointExtension>
            <ns3:atemp>27.0</ns3:atemp>
            <ns3:hr>114</ns3:hr>
          </ns3:TrackPointExtension>
        </extensions>
      </trkpt>
      <trkpt lat="43.03503639064729213714599609375" lon="13.81608344614505767822265625">
        <ele>23.799999237060546875</ele>
        <time>2020-05-09T12:21:27.000Z</time>
        <extensions>
          <ns3:TrackPointExtension>
            <ns3:atemp>27.0</ns3:atemp>
            <ns3:hr>114</ns3:hr>
          </ns3:TrackPointExtension>
        </extensions>
      </trkpt>
      <trkpt lat="43.0353261530399322509765625" lon="13.816191069781780242919921875">
        <ele>23.799999237060546875</ele>
        <time>2020-05-09T12:21:32.000Z</time>
        <extensions>
          <ns3:TrackPointExtension>
            <ns3:atemp>27.0</ns3:atemp>
            <ns3:hr>116</ns3:hr>
          </ns3:TrackPointExtension>
        </extensions>
      </trkpt>
      <trkpt lat="43.03544123657047748565673828125" lon="13.81623096764087677001953125">
        <ele>23.799999237060546875</ele>
        <time>2020-05-09T12:21:34.000Z</time>
        <extensions>
          <ns3:TrackPointExtension>
            <ns3:atemp>27.0</ns3:atemp>
            <ns3:hr>116</ns3:hr>
          </ns3:TrackPointExtension>
        </extensions>
      </trkpt>
      <trkpt lat="43.03574549965560436248779296875" lon="13.81640170700848102569580078125">
        <ele>24</ele>
        <time>2020-05-09T12:21:40.000Z</time>
        <extensions>
          <ns3:TrackPointExtension>
            <ns3:atemp>27.0</ns3:atemp>
            <ns3:hr>116</ns3:hr>
          </ns3:TrackPointExtension>
        </extensions>
      </trkpt>
      <trkpt lat="43.03613014519214630126953125" lon="13.81668048910796642303466796875">
        <ele>24</ele>
        <time>2020-05-09T12:21:48.000Z</time>
        <extensions>
          <ns3:TrackPointExtension>
            <ns3:atemp>27.0</ns3:atemp>
            <ns3:hr>119</ns3:hr>
          </ns3:TrackPointExtension>
        </extensions>
      </trkpt>
      <trkpt lat="43.03630524314939975738525390625" lon="13.81683656014502048492431640625">
        <ele>24.799999237060546875</ele>
        <time>2020-05-09T12:21:52.000Z</time>
        <extensions>
          <ns3:TrackPointExtension>
            <ns3:atemp>27.0</ns3:atemp>
            <ns3:hr>122</ns3:hr>
          </ns3:TrackPointExtension>
        </extensions>
      </trkpt>
      <trkpt lat="43.03645192645490169525146484375" lon="13.816991709172725677490234375">
        <ele>25.200000762939453125</ele>
        <time>2020-05-09T12:21:56.000Z</time>
        <extensions>
          <ns3:TrackPointExtension>
            <ns3:atemp>28.0</ns3:atemp>
            <ns3:hr>125</ns3:hr>
          </ns3:TrackPointExtension>
        </extensions>
      </trkpt>
      <trkpt lat="43.03654060699045658111572265625" lon="13.817125149071216583251953125">
        <ele>25.3999996185302734375</ele>
        <time>2020-05-09T12:21:59.000Z</time>
        <extensions>
          <ns3:TrackPointExtension>
            <ns3:atemp>28.0</ns3:atemp>
            <ns3:hr>125</ns3:hr>
          </ns3:TrackPointExtension>
        </extensions>
      </trkpt>
      <trkpt lat="43.036577403545379638671875" lon="13.8172228820621967315673828125">
        <ele>25.6000003814697265625</ele>
        <time>2020-05-09T12:22:01.000Z</time>
        <extensions>
          <ns3:TrackPointExtension>
            <ns3:atemp>28.0</ns3:atemp>
            <ns3:hr>124</ns3:hr>
          </ns3:TrackPointExtension>
        </extensions>
      </trkpt>
      <trkpt lat="43.036576397716999053955078125" lon="13.81731801666319370269775390625">
        <ele>25.6000003814697265625</ele>
        <time>2020-05-09T12:22:03.000Z</time>
        <extensions>
          <ns3:TrackPointExtension>
            <ns3:atemp>28.0</ns3:atemp>
            <ns3:hr>123</ns3:hr>
          </ns3:TrackPointExtension>
        </extensions>
      </trkpt>
      <trkpt lat="43.03655804134905338287353515625" lon="13.81736679933965206146240234375">
        <ele>25.799999237060546875</ele>
        <time>2020-05-09T12:22:04.000Z</time>
        <extensions>
          <ns3:TrackPointExtension>
            <ns3:atemp>28.0</ns3:atemp>
            <ns3:hr>123</ns3:hr>
          </ns3:TrackPointExtension>
        </extensions>
      </trkpt>
      <trkpt lat="43.0365359969437122344970703125" lon="13.8174086250364780426025390625">
        <ele>26</ele>
        <time>2020-05-09T12:22:05.000Z</time>
        <extensions>
          <ns3:TrackPointExtension>
            <ns3:atemp>28.0</ns3:atemp>
            <ns3:hr>124</ns3:hr>
          </ns3:TrackPointExtension>
        </extensions>
      </trkpt>
      <trkpt lat="43.0363515950739383697509765625" lon="13.81781422533094882965087890625">
        <ele>25.799999237060546875</ele>
        <time>2020-05-09T12:22:13.000Z</time>
        <extensions>
          <ns3:TrackPointExtension>
            <ns3:atemp>27.0</ns3:atemp>
            <ns3:hr>123</ns3:hr>
          </ns3:TrackPointExtension>
        </extensions>
      </trkpt>
      <trkpt lat="43.03622628562152385711669921875" lon="13.8181708753108978271484375">
        <ele>26.3999996185302734375</ele>
        <time>2020-05-09T12:22:20.000Z</time>
        <extensions>
          <ns3:TrackPointExtension>
            <ns3:atemp>27.0</ns3:atemp>
            <ns3:hr>121</ns3:hr>
          </ns3:TrackPointExtension>
        </extensions>
      </trkpt>
      <trkpt lat="43.0361909978091716766357421875" lon="13.818266093730926513671875">
        <ele>26.799999237060546875</ele>
        <time>2020-05-09T12:22:22.000Z</time>
        <extensions>
          <ns3:TrackPointExtension>
            <ns3:atemp>27.0</ns3:atemp>
            <ns3:hr>121</ns3:hr>
          </ns3:TrackPointExtension>
        </extensions>
      </trkpt>
      <trkpt lat="43.03608714602887630462646484375" lon="13.81838654167950153350830078125">
        <ele>26.200000762939453125</ele>
        <time>2020-05-09T12:22:26.000Z</time>
        <extensions>
          <ns3:TrackPointExtension>
            <ns3:atemp>27.0</ns3:atemp>
            <ns3:hr>120</ns3:hr>
          </ns3:TrackPointExtension>
        </extensions>
      </trkpt>
      <trkpt lat="43.03604699671268463134765625" lon="13.81839752197265625">
        <ele>25.799999237060546875</ele>
        <time>2020-05-09T12:22:27.000Z</time>
        <extensions>
          <ns3:TrackPointExtension>
            <ns3:atemp>27.0</ns3:atemp>
            <ns3:hr>119</ns3:hr>
          </ns3:TrackPointExtension>
        </extensions>
      </trkpt>
      <trkpt lat="43.03599813021719455718994140625" lon="13.8184060715138912200927734375">
        <ele>25.3999996185302734375</ele>
        <time>2020-05-09T12:22:28.000Z</time>
        <extensions>
          <ns3:TrackPointExtension>
            <ns3:atemp>27.0</ns3:atemp>
            <ns3:hr>117</ns3:hr>
          </ns3:TrackPointExtension>
        </extensions>
      </trkpt>
      <trkpt lat="43.03589469753205776214599609375" lon="13.8184147886931896209716796875">
        <ele>25</ele>
        <time>2020-05-09T12:22:30.000Z</time>
        <extensions>
          <ns3:TrackPointExtension>
            <ns3:atemp>27.0</ns3:atemp>
            <ns3:hr>114</ns3:hr>
          </ns3:TrackPointExtension>
        </extensions>
      </trkpt>
      <trkpt lat="43.0358419753611087799072265625" lon="13.81842643953859806060791015625">
        <ele>24.799999237060546875</ele>
        <time>2020-05-09T12:22:31.000Z</time>
        <extensions>
          <ns3:TrackPointExtension>
            <ns3:atemp>27.0</ns3:atemp>
            <ns3:hr>113</ns3:hr>
          </ns3:TrackPointExtension>
        </extensions>
      </trkpt>
      <trkpt lat="43.0355487763881683349609375" lon="13.8184721209108829498291015625">
        <ele>24.799999237060546875</ele>
        <time>2020-05-09T12:22:37.000Z</time>
        <extensions>
          <ns3:TrackPointExtension>
            <ns3:atemp>27.0</ns3:atemp>
            <ns3:hr>111</ns3:hr>
          </ns3:TrackPointExtension>
        </extensions>
      </trkpt>
      <trkpt lat="43.0352857522666454315185546875" lon="13.8185368292033672332763671875">
        <ele>25.3999996185302734375</ele>
        <time>2020-05-09T12:22:43.000Z</time>
        <extensions>
          <ns3:TrackPointExtension>
            <ns3:atemp>27.0</ns3:atemp>
            <ns3:hr>114</ns3:hr>
          </ns3:TrackPointExtension>
        </extensions>
      </trkpt>
      <trkpt lat="43.03519539535045623779296875" lon="13.81855987943708896636962890625">
        <ele>26</ele>
        <time>2020-05-09T12:22:45.000Z</time>
        <extensions>
          <ns3:TrackPointExtension>
            <ns3:atemp>27.0</ns3:atemp>
            <ns3:hr>114</ns3:hr>
          </ns3:TrackPointExtension>
        </extensions>
      </trkpt>
      <trkpt lat="43.03515038453042507171630859375" lon="13.81857597269117832183837890625">
        <ele>26.3999996185302734375</ele>
        <time>2020-05-09T12:22:46.000Z</time>
        <extensions>
          <ns3:TrackPointExtension>
            <ns3:atemp>27.0</ns3:atemp>
            <ns3:hr>111</ns3:hr>
          </ns3:TrackPointExtension>
        </extensions>
      </trkpt>
      <trkpt lat="43.03510964848101139068603515625" lon="13.81859055720269680023193359375">
        <ele>26.799999237060546875</ele>
        <time>2020-05-09T12:22:47.000Z</time>
        <extensions>
          <ns3:TrackPointExtension>
            <ns3:atemp>27.0</ns3:atemp>
            <ns3:hr>104</ns3:hr>
          </ns3:TrackPointExtension>
        </extensions>
      </trkpt>
      <trkpt lat="43.03506941534578800201416015625" lon="13.81861008703708648681640625">
        <ele>27.3999996185302734375</ele>
        <time>2020-05-09T12:22:48.000Z</time>
        <extensions>
          <ns3:TrackPointExtension>
            <ns3:atemp>27.0</ns3:atemp>
            <ns3:hr>97</ns3:hr>
          </ns3:TrackPointExtension>
        </extensions>
      </trkpt>
      <trkpt lat="43.035029433667659759521484375" lon="13.818629868328571319580078125">
        <ele>27.799999237060546875</ele>
        <time>2020-05-09T12:22:49.000Z</time>
        <extensions>
          <ns3:TrackPointExtension>
            <ns3:atemp>27.0</ns3:atemp>
            <ns3:hr>94</ns3:hr>
          </ns3:TrackPointExtension>
        </extensions>
      </trkpt>
      <trkpt lat="43.034991212189197540283203125" lon="13.8186414353549480438232421875">
        <ele>28.200000762939453125</ele>
        <time>2020-05-09T12:22:50.000Z</time>
        <extensions>
          <ns3:TrackPointExtension>
            <ns3:atemp>27.0</ns3:atemp>
            <ns3:hr>89</ns3:hr>
          </ns3:TrackPointExtension>
        </extensions>
      </trkpt>
      <trkpt lat="43.034949637949466705322265625" lon="13.81865560077130794525146484375">
        <ele>28.6000003814697265625</ele>
        <time>2020-05-09T12:22:51.000Z</time>
        <extensions>
          <ns3:TrackPointExtension>
            <ns3:atemp>27.0</ns3:atemp>
            <ns3:hr>86</ns3:hr>
          </ns3:TrackPointExtension>
        </extensions>
      </trkpt>
      <trkpt lat="43.03491217084228992462158203125" lon="13.8186595402657985687255859375">
        <ele>28.799999237060546875</ele>
        <time>2020-05-09T12:22:52.000Z</time>
        <extensions>
          <ns3:TrackPointExtension>
            <ns3:atemp>27.0</ns3:atemp>
            <ns3:hr>79</ns3:hr>
          </ns3:TrackPointExtension>
        </extensions>
      </trkpt>
      <trkpt lat="43.0348780564963817596435546875" lon="13.81866565905511379241943359375">
        <ele>28.799999237060546875</ele>
        <time>2020-05-09T12:22:53.000Z</time>
        <extensions>
          <ns3:TrackPointExtension>
            <ns3:atemp>27.0</ns3:atemp>
            <ns3:hr>74</ns3:hr>
          </ns3:TrackPointExtension>
        </extensions>
      </trkpt>
      <trkpt lat="43.03484737873077392578125" lon="13.81867655552923679351806640625">
        <ele>29</ele>
        <time>2020-05-09T12:22:54.000Z</time>
        <extensions>
          <ns3:TrackPointExtension>
            <ns3:atemp>27.0</ns3:atemp>
            <ns3:hr>69</ns3:hr>
          </ns3:TrackPointExtension>
        </extensions>
      </trkpt>
      <trkpt lat="43.03481963463127613067626953125" lon="13.8186885416507720947265625">
        <ele>29.3999996185302734375</ele>
        <time>2020-05-09T12:22:55.000Z</time>
        <extensions>
          <ns3:TrackPointExtension>
            <ns3:atemp>27.0</ns3:atemp>
            <ns3:hr>69</ns3:hr>
          </ns3:TrackPointExtension>
        </extensions>
      </trkpt>
      <trkpt lat="43.03479432128369808197021484375" lon="13.81869415752589702606201171875">
        <ele>29.799999237060546875</ele>
        <time>2020-05-09T12:22:56.000Z</time>
        <extensions>
          <ns3:TrackPointExtension>
            <ns3:atemp>27.0</ns3:atemp>
            <ns3:hr>68</ns3:hr>
          </ns3:TrackPointExtension>
        </extensions>
      </trkpt>
      <trkpt lat="43.03476624190807342529296875" lon="13.8186927326023578643798828125">
        <ele>30.200000762939453125</ele>
        <time>2020-05-09T12:22:57.000Z</time>
        <extensions>
          <ns3:TrackPointExtension>
            <ns3:atemp>27.0</ns3:atemp>
            <ns3:hr>71</ns3:hr>
          </ns3:TrackPointExtension>
        </extensions>
      </trkpt>
      <trkpt lat="43.0347395874559879302978515625" lon="13.81869415752589702606201171875">
        <ele>30.799999237060546875</ele>
        <time>2020-05-09T12:22:58.000Z</time>
        <extensions>
          <ns3:TrackPointExtension>
            <ns3:atemp>27.0</ns3:atemp>
            <ns3:hr>69</ns3:hr>
          </ns3:TrackPointExtension>
        </extensions>
      </trkpt>
      <trkpt lat="43.03471653722226619720458984375" lon="13.818699605762958526611328125">
        <ele>31</ele>
        <time>2020-05-09T12:22:59.000Z</time>
        <extensions>
          <ns3:TrackPointExtension>
            <ns3:atemp>27.0</ns3:atemp>
            <ns3:hr>71</ns3:hr>
          </ns3:TrackPointExtension>
        </extensions>
      </trkpt>
      <trkpt lat="43.034655265510082244873046875" lon="13.818715028464794158935546875">
        <ele>32.40000152587890625</ele>
        <time>2020-05-09T12:23:02.000Z</time>
        <extensions>
          <ns3:TrackPointExtension>
            <ns3:atemp>27.0</ns3:atemp>
            <ns3:hr>70</ns3:hr>
          </ns3:TrackPointExtension>
        </extensions>
      </trkpt>
      <trkpt lat="43.03461561910808086395263671875" lon="13.818752579391002655029296875">
        <ele>33</ele>
        <time>2020-05-09T12:23:04.000Z</time>
        <extensions>
          <ns3:TrackPointExtension>
            <ns3:atemp>27.0</ns3:atemp>
            <ns3:hr>71</ns3:hr>
          </ns3:TrackPointExtension>
        </extensions>
      </trkpt>
      <trkpt lat="43.03460271097719669342041015625" lon="13.818797171115875244140625">
        <ele>33.59999847412109375</ele>
        <time>2020-05-09T12:23:06.000Z</time>
        <extensions>
          <ns3:TrackPointExtension>
            <ns3:atemp>27.0</ns3:atemp>
            <ns3:hr>70</ns3:hr>
          </ns3:TrackPointExtension>
        </extensions>
      </trkpt>
      <trkpt lat="43.03459458053112030029296875" lon="13.8188134320080280303955078125">
        <ele>34</ele>
        <time>2020-05-09T12:23:07.000Z</time>
        <extensions>
          <ns3:TrackPointExtension>
            <ns3:atemp>27.0</ns3:atemp>
            <ns3:hr>72</ns3:hr>
          </ns3:TrackPointExtension>
        </extensions>
      </trkpt>
      <trkpt lat="43.034560717642307281494140625" lon="13.8188422657549381256103515625">
        <ele>35</ele>
        <time>2020-05-09T12:23:09.000Z</time>
        <extensions>
          <ns3:TrackPointExtension>
            <ns3:atemp>27.0</ns3:atemp>
            <ns3:hr>72</ns3:hr>
          </ns3:TrackPointExtension>
        </extensions>
      </trkpt>
      <trkpt lat="43.0345424450933933258056640625" lon="13.81885550916194915771484375">
        <ele>35.40000152587890625</ele>
        <time>2020-05-09T12:23:10.000Z</time>
        <extensions>
          <ns3:TrackPointExtension>
            <ns3:atemp>27.0</ns3:atemp>
            <ns3:hr>73</ns3:hr>
          </ns3:TrackPointExtension>
        </extensions>
      </trkpt>
      <trkpt lat="43.03452174179255962371826171875" lon="13.81887068040668964385986328125">
        <ele>36</ele>
        <time>2020-05-09T12:23:11.000Z</time>
        <extensions>
          <ns3:TrackPointExtension>
            <ns3:atemp>27.0</ns3:atemp>
            <ns3:hr>73</ns3:hr>
          </ns3:TrackPointExtension>
        </extensions>
      </trkpt>
      <trkpt lat="43.0344760604202747344970703125" lon="13.81888979114592075347900390625">
        <ele>36.59999847412109375</ele>
        <time>2020-05-09T12:23:13.000Z</time>
        <extensions>
          <ns3:TrackPointExtension>
            <ns3:atemp>27.0</ns3:atemp>
            <ns3:hr>69</ns3:hr>
          </ns3:TrackPointExtension>
        </extensions>
      </trkpt>
      <trkpt lat="43.034425266087055206298828125" lon="13.8189218938350677490234375">
        <ele>36.799999237060546875</ele>
        <time>2020-05-09T12:23:15.000Z</time>
        <extensions>
          <ns3:TrackPointExtension>
            <ns3:atemp>27.0</ns3:atemp>
            <ns3:hr>72</ns3:hr>
          </ns3:TrackPointExtension>
        </extensions>
      </trkpt>
      <trkpt lat="43.0344026349484920501708984375" lon="13.8189401663839817047119140625">
        <ele>37</ele>
        <time>2020-05-09T12:23:16.000Z</time>
        <extensions>
          <ns3:TrackPointExtension>
            <ns3:atemp>27.0</ns3:atemp>
            <ns3:hr>74</ns3:hr>
          </ns3:TrackPointExtension>
        </extensions>
      </trkpt>
      <trkpt lat="43.0343818478286266326904296875" lon="13.818958438932895660400390625">
        <ele>37</ele>
        <time>2020-05-09T12:23:17.000Z</time>
        <extensions>
          <ns3:TrackPointExtension>
            <ns3:atemp>27.0</ns3:atemp>
            <ns3:hr>75</ns3:hr>
          </ns3:TrackPointExtension>
        </extensions>
      </trkpt>
      <trkpt lat="43.0343469791114330291748046875" lon="13.81899037398397922515869140625">
        <ele>37.200000762939453125</ele>
        <time>2020-05-09T12:23:19.000Z</time>
        <extensions>
          <ns3:TrackPointExtension>
            <ns3:atemp>27.0</ns3:atemp>
            <ns3:hr>80</ns3:hr>
          </ns3:TrackPointExtension>
        </extensions>
      </trkpt>
      <trkpt lat="43.03432476706802845001220703125" lon="13.81900437176227569580078125">
        <ele>37.200000762939453125</ele>
        <time>2020-05-09T12:23:20.000Z</time>
        <extensions>
          <ns3:TrackPointExtension>
            <ns3:atemp>27.0</ns3:atemp>
            <ns3:hr>80</ns3:hr>
          </ns3:TrackPointExtension>
        </extensions>
      </trkpt>
      <trkpt lat="43.03424991667270660400390625" lon="13.8190291821956634521484375">
        <ele>37.40000152587890625</ele>
        <time>2020-05-09T12:23:23.000Z</time>
        <extensions>
          <ns3:TrackPointExtension>
            <ns3:atemp>28.0</ns3:atemp>
            <ns3:hr>81</ns3:hr>
          </ns3:TrackPointExtension>
        </extensions>
      </trkpt>
      <trkpt lat="43.034166432917118072509765625" lon="13.81903664208948612213134765625">
        <ele>38.200000762939453125</ele>
        <time>2020-05-09T12:23:27.000Z</time>
        <extensions>
          <ns3:TrackPointExtension>
            <ns3:atemp>28.0</ns3:atemp>
            <ns3:hr>85</ns3:hr>
          </ns3:TrackPointExtension>
        </extensions>
      </trkpt>
      <trkpt lat="43.03412117063999176025390625" lon="13.81904887966811656951904296875">
        <ele>38.59999847412109375</ele>
        <time>2020-05-09T12:23:29.000Z</time>
        <extensions>
          <ns3:TrackPointExtension>
            <ns3:atemp>28.0</ns3:atemp>
            <ns3:hr>84</ns3:hr>
          </ns3:TrackPointExtension>
        </extensions>
      </trkpt>
      <trkpt lat="43.0340998806059360504150390625" lon="13.819051645696163177490234375">
        <ele>38.799999237060546875</ele>
        <time>2020-05-09T12:23:30.000Z</time>
        <extensions>
          <ns3:TrackPointExtension>
            <ns3:atemp>28.0</ns3:atemp>
            <ns3:hr>87</ns3:hr>
          </ns3:TrackPointExtension>
        </extensions>
      </trkpt>
      <trkpt lat="43.03403223864734172821044921875" lon="13.81908291019499301910400390625">
        <ele>39.200000762939453125</ele>
        <time>2020-05-09T12:23:33.000Z</time>
        <extensions>
          <ns3:TrackPointExtension>
            <ns3:atemp>28.0</ns3:atemp>
            <ns3:hr>83</ns3:hr>
          </ns3:TrackPointExtension>
        </extensions>
      </trkpt>
      <trkpt lat="43.03400717675685882568359375" lon="13.8190937228500843048095703125">
        <ele>39.40000152587890625</ele>
        <time>2020-05-09T12:23:34.000Z</time>
        <extensions>
          <ns3:TrackPointExtension>
            <ns3:atemp>28.0</ns3:atemp>
            <ns3:hr>83</ns3:hr>
          </ns3:TrackPointExtension>
        </extensions>
      </trkpt>
      <trkpt lat="43.03394012153148651123046875" lon="13.81911166012287139892578125">
        <ele>40.200000762939453125</ele>
        <time>2020-05-09T12:23:37.000Z</time>
        <extensions>
          <ns3:TrackPointExtension>
            <ns3:atemp>28.0</ns3:atemp>
            <ns3:hr>86</ns3:hr>
          </ns3:TrackPointExtension>
        </extensions>
      </trkpt>
      <trkpt lat="43.03391975350677967071533203125" lon="13.81911157630383968353271484375">
        <ele>40.40000152587890625</ele>
        <time>2020-05-09T12:23:38.000Z</time>
        <extensions>
          <ns3:TrackPointExtension>
            <ns3:atemp>28.0</ns3:atemp>
            <ns3:hr>86</ns3:hr>
          </ns3:TrackPointExtension>
        </extensions>
      </trkpt>
      <trkpt lat="43.0338179133832454681396484375" lon="13.8190789707005023956298828125">
        <ele>41.40000152587890625</ele>
        <time>2020-05-09T12:23:43.000Z</time>
        <extensions>
          <ns3:TrackPointExtension>
            <ns3:atemp>28.0</ns3:atemp>
            <ns3:hr>86</ns3:hr>
          </ns3:TrackPointExtension>
        </extensions>
      </trkpt>
      <trkpt lat="43.033794276416301727294921875" lon="13.819070756435394287109375">
        <ele>41.59999847412109375</ele>
        <time>2020-05-09T12:23:44.000Z</time>
        <extensions>
          <ns3:TrackPointExtension>
            <ns3:atemp>28.0</ns3:atemp>
            <ns3:hr>85</ns3:hr>
          </ns3:TrackPointExtension>
        </extensions>
      </trkpt>
      <trkpt lat="43.03373635746538639068603515625" lon="13.81901015527546405792236328125">
        <ele>42.799999237060546875</ele>
        <time>2020-05-09T12:23:48.000Z</time>
        <extensions>
          <ns3:TrackPointExtension>
            <ns3:atemp>28.0</ns3:atemp>
            <ns3:hr>87</ns3:hr>
          </ns3:TrackPointExtension>
        </extensions>
      </trkpt>
      <trkpt lat="43.0337139777839183807373046875" lon="13.81900780834257602691650390625">
        <ele>42.799999237060546875</ele>
        <time>2020-05-09T12:23:49.000Z</time>
        <extensions>
          <ns3:TrackPointExtension>
            <ns3:atemp>28.0</ns3:atemp>
            <ns3:hr>87</ns3:hr>
          </ns3:TrackPointExtension>
        </extensions>
      </trkpt>
      <trkpt lat="43.03366184234619140625" lon="13.81902172230184078216552734375">
        <ele>43.40000152587890625</ele>
        <time>2020-05-09T12:23:52.000Z</time>
        <extensions>
          <ns3:TrackPointExtension>
            <ns3:atemp>28.0</ns3:atemp>
            <ns3:hr>84</ns3:hr>
          </ns3:TrackPointExtension>
        </extensions>
      </trkpt>
      <trkpt lat="43.033630661666393280029296875" lon="13.81903798319399356842041015625">
        <ele>44</ele>
        <time>2020-05-09T12:23:54.000Z</time>
        <extensions>
          <ns3:TrackPointExtension>
            <ns3:atemp>28.0</ns3:atemp>
            <ns3:hr>83</ns3:hr>
          </ns3:TrackPointExtension>
        </extensions>
      </trkpt>
      <trkpt lat="43.03358045406639575958251953125" lon="13.81906681694090366363525390625">
        <ele>44.799999237060546875</ele>
        <time>2020-05-09T12:23:57.000Z</time>
        <extensions>
          <ns3:TrackPointExtension>
            <ns3:atemp>28.0</ns3:atemp>
            <ns3:hr>83</ns3:hr>
          </ns3:TrackPointExtension>
        </extensions>
      </trkpt>
      <trkpt lat="43.03354759700596332550048828125" lon="13.819101937115192413330078125">
        <ele>45</ele>
        <time>2020-05-09T12:23:59.000Z</time>
        <extensions>
          <ns3:TrackPointExtension>
            <ns3:atemp>28.0</ns3:atemp>
            <ns3:hr>84</ns3:hr>
          </ns3:TrackPointExtension>
        </extensions>
      </trkpt>
      <trkpt lat="43.0335081182420253753662109375" lon="13.8191808946430683135986328125">
        <ele>45.799999237060546875</ele>
        <time>2020-05-09T12:24:02.000Z</time>
        <extensions>
          <ns3:TrackPointExtension>
            <ns3:atemp>28.0</ns3:atemp>
            <ns3:hr>80</ns3:hr>
          </ns3:TrackPointExtension>
        </extensions>
      </trkpt>
      <trkpt lat="43.03349755704402923583984375" lon="13.81921098567545413970947265625">
        <ele>46</ele>
        <time>2020-05-09T12:24:03.000Z</time>
        <extensions>
          <ns3:TrackPointExtension>
            <ns3:atemp>28.0</ns3:atemp>
            <ns3:hr>81</ns3:hr>
          </ns3:TrackPointExtension>
        </extensions>
      </trkpt>
      <trkpt lat="43.03349177353084087371826171875" lon="13.81923546083271503448486328125">
        <ele>46.40000152587890625</ele>
        <time>2020-05-09T12:24:04.000Z</time>
        <extensions>
          <ns3:TrackPointExtension>
            <ns3:atemp>28.0</ns3:atemp>
            <ns3:hr>82</ns3:hr>
          </ns3:TrackPointExtension>
        </extensions>
      </trkpt>
      <trkpt lat="43.03347718901932239532470703125" lon="13.81934409029781818389892578125">
        <ele>47.200000762939453125</ele>
        <time>2020-05-09T12:24:09.000Z</time>
        <extensions>
          <ns3:TrackPointExtension>
            <ns3:atemp>28.0</ns3:atemp>
            <ns3:hr>79</ns3:hr>
          </ns3:TrackPointExtension>
        </extensions>
      </trkpt>
      <trkpt lat="43.03347433917224407196044921875" lon="13.81936487741768360137939453125">
        <ele>47.40000152587890625</ele>
        <time>2020-05-09T12:24:10.000Z</time>
        <extensions>
          <ns3:TrackPointExtension>
            <ns3:atemp>28.0</ns3:atemp>
            <ns3:hr>79</ns3:hr>
          </ns3:TrackPointExtension>
        </extensions>
      </trkpt>
      <trkpt lat="43.033467717468738555908203125" lon="13.81943914107978343963623046875">
        <ele>48.59999847412109375</ele>
        <time>2020-05-09T12:24:13.000Z</time>
        <extensions>
          <ns3:TrackPointExtension>
            <ns3:atemp>28.0</ns3:atemp>
            <ns3:hr>81</ns3:hr>
          </ns3:TrackPointExtension>
        </extensions>
      </trkpt>
      <trkpt lat="43.033460676670074462890625" lon="13.81944970227777957916259765625">
        <ele>49</ele>
        <time>2020-05-09T12:24:14.000Z</time>
        <extensions>
          <ns3:TrackPointExtension>
            <ns3:atemp>28.0</ns3:atemp>
            <ns3:hr>84</ns3:hr>
          </ns3:TrackPointExtension>
        </extensions>
      </trkpt>
      <trkpt lat="43.03345489315688610076904296875" lon="13.8194833137094974517822265625">
        <ele>49.40000152587890625</ele>
        <time>2020-05-09T12:24:16.000Z</time>
        <extensions>
          <ns3:TrackPointExtension>
            <ns3:atemp>28.0</ns3:atemp>
            <ns3:hr>80</ns3:hr>
          </ns3:TrackPointExtension>
        </extensions>
      </trkpt>
      <trkpt lat="43.033455312252044677734375" lon="13.8195024244487285614013671875">
        <ele>49.799999237060546875</ele>
        <time>2020-05-09T12:24:17.000Z</time>
        <extensions>
          <ns3:TrackPointExtension>
            <ns3:atemp>28.0</ns3:atemp>
            <ns3:hr>80</ns3:hr>
          </ns3:TrackPointExtension>
        </extensions>
      </trkpt>
      <trkpt lat="43.0334564857184886932373046875" lon="13.819521367549896240234375">
        <ele>50.200000762939453125</ele>
        <time>2020-05-09T12:24:18.000Z</time>
        <extensions>
          <ns3:TrackPointExtension>
            <ns3:atemp>28.0</ns3:atemp>
            <ns3:hr>83</ns3:hr>
          </ns3:TrackPointExtension>
        </extensions>
      </trkpt>
      <trkpt lat="43.03346335887908935546875" lon="13.81954575888812541961669921875">
        <ele>50.59999847412109375</ele>
        <time>2020-05-09T12:24:19.000Z</time>
        <extensions>
          <ns3:TrackPointExtension>
            <ns3:atemp>28.0</ns3:atemp>
            <ns3:hr>85</ns3:hr>
          </ns3:TrackPointExtension>
        </extensions>
      </trkpt>
      <trkpt lat="43.03346863947808742523193359375" lon="13.81956570781767368316650390625">
        <ele>50.799999237060546875</ele>
        <time>2020-05-09T12:24:20.000Z</time>
        <extensions>
          <ns3:TrackPointExtension>
            <ns3:atemp>28.0</ns3:atemp>
            <ns3:hr>84</ns3:hr>
          </ns3:TrackPointExtension>
        </extensions>
      </trkpt>
      <trkpt lat="43.03344190120697021484375" lon="13.81961650215089321136474609375">
        <ele>52</ele>
        <time>2020-05-09T12:24:24.000Z</time>
        <extensions>
          <ns3:TrackPointExtension>
            <ns3:atemp>28.0</ns3:atemp>
            <ns3:hr>87</ns3:hr>
          </ns3:TrackPointExtension>
        </extensions>
      </trkpt>
      <trkpt lat="43.03342874161899089813232421875" lon="13.81962136365473270416259765625">
        <ele>52.200000762939453125</ele>
        <time>2020-05-09T12:24:25.000Z</time>
        <extensions>
          <ns3:TrackPointExtension>
            <ns3:atemp>28.0</ns3:atemp>
            <ns3:hr>87</ns3:hr>
          </ns3:TrackPointExtension>
        </extensions>
      </trkpt>
      <trkpt lat="43.03339638747274875640869140625" lon="13.819602839648723602294921875">
        <ele>53</ele>
        <time>2020-05-09T12:24:27.000Z</time>
        <extensions>
          <ns3:TrackPointExtension>
            <ns3:atemp>28.0</ns3:atemp>
            <ns3:hr>89</ns3:hr>
          </ns3:TrackPointExtension>
        </extensions>
      </trkpt>
      <trkpt lat="43.0333679728209972381591796875" lon="13.8195895962417125701904296875">
        <ele>53.799999237060546875</ele>
        <time>2020-05-09T12:24:29.000Z</time>
        <extensions>
          <ns3:TrackPointExtension>
            <ns3:atemp>28.0</ns3:atemp>
            <ns3:hr>89</ns3:hr>
          </ns3:TrackPointExtension>
        </extensions>
      </trkpt>
      <trkpt lat="43.03335263393819332122802734375" lon="13.81958649493753910064697265625">
        <ele>54.200000762939453125</ele>
        <time>2020-05-09T12:24:30.000Z</time>
        <extensions>
          <ns3:TrackPointExtension>
            <ns3:atemp>28.0</ns3:atemp>
            <ns3:hr>94</ns3:hr>
          </ns3:TrackPointExtension>
        </extensions>
      </trkpt>
      <trkpt lat="43.03332053124904632568359375" lon="13.81947468034923076629638671875">
        <ele>55.40000152587890625</ele>
        <time>2020-05-09T12:24:35.000Z</time>
        <extensions>
          <ns3:TrackPointExtension>
            <ns3:atemp>28.0</ns3:atemp>
            <ns3:hr>95</ns3:hr>
          </ns3:TrackPointExtension>
        </extensions>
      </trkpt>
      <trkpt lat="43.03325506858527660369873046875" lon="13.81934274919331073760986328125">
        <ele>56.40000152587890625</ele>
        <time>2020-05-09T12:24:41.000Z</time>
        <extensions>
          <ns3:TrackPointExtension>
            <ns3:atemp>28.0</ns3:atemp>
            <ns3:hr>97</ns3:hr>
          </ns3:TrackPointExtension>
        </extensions>
      </trkpt>
      <trkpt lat="43.03324266336858272552490234375" lon="13.8193257339298725128173828125">
        <ele>56.59999847412109375</ele>
        <time>2020-05-09T12:24:42.000Z</time>
        <extensions>
          <ns3:TrackPointExtension>
            <ns3:atemp>28.0</ns3:atemp>
            <ns3:hr>98</ns3:hr>
          </ns3:TrackPointExtension>
        </extensions>
      </trkpt>
      <trkpt lat="43.0331721715629100799560546875" lon="13.81926764734089374542236328125">
        <ele>57.59999847412109375</ele>
        <time>2020-05-09T12:24:47.000Z</time>
        <extensions>
          <ns3:TrackPointExtension>
            <ns3:atemp>28.0</ns3:atemp>
            <ns3:hr>98</ns3:hr>
          </ns3:TrackPointExtension>
        </extensions>
      </trkpt>
      <trkpt lat="43.03314526565372943878173828125" lon="13.81926127709448337554931640625">
        <ele>58</ele>
        <time>2020-05-09T12:24:49.000Z</time>
        <extensions>
          <ns3:TrackPointExtension>
            <ns3:atemp>28.0</ns3:atemp>
            <ns3:hr>100</ns3:hr>
          </ns3:TrackPointExtension>
        </extensions>
      </trkpt>
      <trkpt lat="43.03309178911149501800537109375" lon="13.8192491233348846435546875">
        <ele>58.799999237060546875</ele>
        <time>2020-05-09T12:24:53.000Z</time>
        <extensions>
          <ns3:TrackPointExtension>
            <ns3:atemp>28.0</ns3:atemp>
            <ns3:hr>101</ns3:hr>
          </ns3:TrackPointExtension>
        </extensions>
      </trkpt>
      <trkpt lat="43.03306412883102893829345703125" lon="13.81925054825842380523681640625">
        <ele>59.200000762939453125</ele>
        <time>2020-05-09T12:24:55.000Z</time>
        <extensions>
          <ns3:TrackPointExtension>
            <ns3:atemp>28.0</ns3:atemp>
            <ns3:hr>101</ns3:hr>
          </ns3:TrackPointExtension>
        </extensions>
      </trkpt>
      <trkpt lat="43.03299288265407085418701171875" lon="13.81927200593054294586181640625">
        <ele>60</ele>
        <time>2020-05-09T12:24:59.000Z</time>
        <extensions>
          <ns3:TrackPointExtension>
            <ns3:atemp>28.0</ns3:atemp>
            <ns3:hr>101</ns3:hr>
          </ns3:TrackPointExtension>
        </extensions>
      </trkpt>
      <trkpt lat="43.0329586006700992584228515625" lon="13.81928575225174427032470703125">
        <ele>60.59999847412109375</ele>
        <time>2020-05-09T12:25:01.000Z</time>
        <extensions>
          <ns3:TrackPointExtension>
            <ns3:atemp>28.0</ns3:atemp>
            <ns3:hr>103</ns3:hr>
          </ns3:TrackPointExtension>
        </extensions>
      </trkpt>
      <trkpt lat="43.03294192068278789520263671875" lon="13.81928759627044200897216796875">
        <ele>61</ele>
        <time>2020-05-09T12:25:02.000Z</time>
        <extensions>
          <ns3:TrackPointExtension>
            <ns3:atemp>28.0</ns3:atemp>
            <ns3:hr>100</ns3:hr>
          </ns3:TrackPointExtension>
        </extensions>
      </trkpt>
      <trkpt lat="43.0329227261245250701904296875" lon="13.81929161958396434783935546875">
        <ele>61.200000762939453125</ele>
        <time>2020-05-09T12:25:03.000Z</time>
        <extensions>
          <ns3:TrackPointExtension>
            <ns3:atemp>28.0</ns3:atemp>
            <ns3:hr>100</ns3:hr>
          </ns3:TrackPointExtension>
        </extensions>
      </trkpt>
      <trkpt lat="43.03284578025341033935546875" lon="13.81928541697561740875244140625">
        <ele>62.40000152587890625</ele>
        <time>2020-05-09T12:25:07.000Z</time>
        <extensions>
          <ns3:TrackPointExtension>
            <ns3:atemp>28.0</ns3:atemp>
            <ns3:hr>102</ns3:hr>
          </ns3:TrackPointExtension>
        </extensions>
      </trkpt>
      <trkpt lat="43.0327782221138477325439453125" lon="13.819223307073116302490234375">
        <ele>63.59999847412109375</ele>
        <time>2020-05-09T12:25:11.000Z</time>
        <extensions>
          <ns3:TrackPointExtension>
            <ns3:atemp>28.0</ns3:atemp>
            <ns3:hr>108</ns3:hr>
          </ns3:TrackPointExtension>
        </extensions>
      </trkpt>
      <trkpt lat="43.03276523016393184661865234375" lon="13.819201849400997161865234375">
        <ele>63.799999237060546875</ele>
        <time>2020-05-09T12:25:12.000Z</time>
        <extensions>
          <ns3:TrackPointExtension>
            <ns3:atemp>28.0</ns3:atemp>
            <ns3:hr>111</ns3:hr>
          </ns3:TrackPointExtension>
        </extensions>
      </trkpt>
      <trkpt lat="43.03275265730917453765869140625" lon="13.8191785477101802825927734375">
        <ele>64.1999969482421875</ele>
        <time>2020-05-09T12:25:13.000Z</time>
        <extensions>
          <ns3:TrackPointExtension>
            <ns3:atemp>28.0</ns3:atemp>
            <ns3:hr>114</ns3:hr>
          </ns3:TrackPointExtension>
        </extensions>
      </trkpt>
      <trkpt lat="43.03274209611117839813232421875" lon="13.819156922399997711181640625">
        <ele>64.40000152587890625</ele>
        <time>2020-05-09T12:25:14.000Z</time>
        <extensions>
          <ns3:TrackPointExtension>
            <ns3:atemp>28.0</ns3:atemp>
            <ns3:hr>117</ns3:hr>
          </ns3:TrackPointExtension>
        </extensions>
      </trkpt>
      <trkpt lat="43.03272801451385021209716796875" lon="13.819138146936893463134765625">
        <ele>64.8000030517578125</ele>
        <time>2020-05-09T12:25:15.000Z</time>
        <extensions>
          <ns3:TrackPointExtension>
            <ns3:atemp>28.0</ns3:atemp>
            <ns3:hr>121</ns3:hr>
          </ns3:TrackPointExtension>
        </extensions>
      </trkpt>
      <trkpt lat="43.032714687287807464599609375" lon="13.8191249035298824310302734375">
        <ele>65</ele>
        <time>2020-05-09T12:25:16.000Z</time>
        <extensions>
          <ns3:TrackPointExtension>
            <ns3:atemp>28.0</ns3:atemp>
            <ns3:hr>124</ns3:hr>
          </ns3:TrackPointExtension>
        </extensions>
      </trkpt>
      <trkpt lat="43.0327047966420650482177734375" lon="13.81910897791385650634765625">
        <ele>65.1999969482421875</ele>
        <time>2020-05-09T12:25:17.000Z</time>
        <extensions>
          <ns3:TrackPointExtension>
            <ns3:atemp>28.0</ns3:atemp>
            <ns3:hr>128</ns3:hr>
          </ns3:TrackPointExtension>
        </extensions>
      </trkpt>
      <trkpt lat="43.03269331343472003936767578125" lon="13.8190893642604351043701171875">
        <ele>65.1999969482421875</ele>
        <time>2020-05-09T12:25:18.000Z</time>
        <extensions>
          <ns3:TrackPointExtension>
            <ns3:atemp>28.0</ns3:atemp>
            <ns3:hr>132</ns3:hr>
          </ns3:TrackPointExtension>
        </extensions>
      </trkpt>
      <trkpt lat="43.0326799862086772918701171875" lon="13.81906782276928424835205078125">
        <ele>65.40000152587890625</ele>
        <time>2020-05-09T12:25:19.000Z</time>
        <extensions>
          <ns3:TrackPointExtension>
            <ns3:atemp>28.0</ns3:atemp>
            <ns3:hr>135</ns3:hr>
          </ns3:TrackPointExtension>
        </extensions>
      </trkpt>
      <trkpt lat="43.0326659046113491058349609375" lon="13.81905357353389263153076171875">
        <ele>65.40000152587890625</ele>
        <time>2020-05-09T12:25:20.000Z</time>
        <extensions>
          <ns3:TrackPointExtension>
            <ns3:atemp>28.0</ns3:atemp>
            <ns3:hr>139</ns3:hr>
          </ns3:TrackPointExtension>
        </extensions>
      </trkpt>
      <trkpt lat="43.03265458904206752777099609375" lon="13.81903412751853466033935546875">
        <ele>65.59999847412109375</ele>
        <time>2020-05-09T12:25:21.000Z</time>
        <extensions>
          <ns3:TrackPointExtension>
            <ns3:atemp>28.0</ns3:atemp>
            <ns3:hr>142</ns3:hr>
          </ns3:TrackPointExtension>
        </extensions>
      </trkpt>
      <trkpt lat="43.03264503367245197296142578125" lon="13.8190130889415740966796875">
        <ele>65.8000030517578125</ele>
        <time>2020-05-09T12:25:22.000Z</time>
        <extensions>
          <ns3:TrackPointExtension>
            <ns3:atemp>28.0</ns3:atemp>
            <ns3:hr>145</ns3:hr>
          </ns3:TrackPointExtension>
        </extensions>
      </trkpt>
      <trkpt lat="43.0326260067522525787353515625" lon="13.81898199208080768585205078125">
        <ele>66.59999847412109375</ele>
        <time>2020-05-09T12:25:24.000Z</time>
        <extensions>
          <ns3:TrackPointExtension>
            <ns3:atemp>28.0</ns3:atemp>
            <ns3:hr>150</ns3:hr>
          </ns3:TrackPointExtension>
        </extensions>
      </trkpt>
      <trkpt lat="43.03261619992554187774658203125" lon="13.8189649768173694610595703125">
        <ele>67</ele>
        <time>2020-05-09T12:25:25.000Z</time>
        <extensions>
          <ns3:TrackPointExtension>
            <ns3:atemp>28.0</ns3:atemp>
            <ns3:hr>153</ns3:hr>
          </ns3:TrackPointExtension>
        </extensions>
      </trkpt>
      <trkpt lat="43.032602034509181976318359375" lon="13.8189508952200412750244140625">
        <ele>67.40000152587890625</ele>
        <time>2020-05-09T12:25:26.000Z</time>
        <extensions>
          <ns3:TrackPointExtension>
            <ns3:atemp>28.0</ns3:atemp>
            <ns3:hr>153</ns3:hr>
          </ns3:TrackPointExtension>
        </extensions>
      </trkpt>
      <trkpt lat="43.03258904255926609039306640625" lon="13.8189358077943325042724609375">
        <ele>67.59999847412109375</ele>
        <time>2020-05-09T12:25:27.000Z</time>
        <extensions>
          <ns3:TrackPointExtension>
            <ns3:atemp>28.0</ns3:atemp>
            <ns3:hr>153</ns3:hr>
          </ns3:TrackPointExtension>
        </extensions>
      </trkpt>
      <trkpt lat="43.03256280720233917236328125" lon="13.8188898749649524688720703125">
        <ele>68</ele>
        <time>2020-05-09T12:25:29.000Z</time>
        <extensions>
          <ns3:TrackPointExtension>
            <ns3:atemp>28.0</ns3:atemp>
            <ns3:hr>152</ns3:hr>
          </ns3:TrackPointExtension>
        </extensions>
      </trkpt>
      <trkpt lat="43.0324830114841461181640625" lon="13.8188070617616176605224609375">
        <ele>69.1999969482421875</ele>
        <time>2020-05-09T12:25:34.000Z</time>
        <extensions>
          <ns3:TrackPointExtension>
            <ns3:atemp>28.0</ns3:atemp>
            <ns3:hr>153</ns3:hr>
          </ns3:TrackPointExtension>
        </extensions>
      </trkpt>
      <trkpt lat="43.03238821215927600860595703125" lon="13.8187413476407527923583984375">
        <ele>70</ele>
        <time>2020-05-09T12:25:40.000Z</time>
        <extensions>
          <ns3:TrackPointExtension>
            <ns3:atemp>28.0</ns3:atemp>
            <ns3:hr>152</ns3:hr>
          </ns3:TrackPointExtension>
        </extensions>
      </trkpt>
      <trkpt lat="43.03235216997563838958740234375" lon="13.81873271428048610687255859375">
        <ele>70.40000152587890625</ele>
        <time>2020-05-09T12:25:42.000Z</time>
        <extensions>
          <ns3:TrackPointExtension>
            <ns3:atemp>28.0</ns3:atemp>
            <ns3:hr>152</ns3:hr>
          </ns3:TrackPointExtension>
        </extensions>
      </trkpt>
      <trkpt lat="43.03229282610118389129638671875" lon="13.818731792271137237548828125">
        <ele>71.40000152587890625</ele>
        <time>2020-05-09T12:25:45.000Z</time>
        <extensions>
          <ns3:TrackPointExtension>
            <ns3:atemp>28.0</ns3:atemp>
            <ns3:hr>153</ns3:hr>
          </ns3:TrackPointExtension>
        </extensions>
      </trkpt>
      <trkpt lat="43.03224354051053524017333984375" lon="13.8187108375132083892822265625">
        <ele>72.1999969482421875</ele>
        <time>2020-05-09T12:25:48.000Z</time>
        <extensions>
          <ns3:TrackPointExtension>
            <ns3:atemp>28.0</ns3:atemp>
            <ns3:hr>154</ns3:hr>
          </ns3:TrackPointExtension>
        </extensions>
      </trkpt>
      <trkpt lat="43.03222694434225559234619140625" lon="13.81869323551654815673828125">
        <ele>72.40000152587890625</ele>
        <time>2020-05-09T12:25:49.000Z</time>
        <extensions>
          <ns3:TrackPointExtension>
            <ns3:atemp>28.0</ns3:atemp>
            <ns3:hr>154</ns3:hr>
          </ns3:TrackPointExtension>
        </extensions>
      </trkpt>
      <trkpt lat="43.032205402851104736328125" lon="13.81867655552923679351806640625">
        <ele>72.59999847412109375</ele>
        <time>2020-05-09T12:25:50.000Z</time>
        <extensions>
          <ns3:TrackPointExtension>
            <ns3:atemp>28.0</ns3:atemp>
            <ns3:hr>154</ns3:hr>
          </ns3:TrackPointExtension>
        </extensions>
      </trkpt>
      <trkpt lat="43.0320902355015277862548828125" lon="13.81855870597064495086669921875">
        <ele>73.59999847412109375</ele>
        <time>2020-05-09T12:25:56.000Z</time>
        <extensions>
          <ns3:TrackPointExtension>
            <ns3:atemp>28.0</ns3:atemp>
            <ns3:hr>154</ns3:hr>
          </ns3:TrackPointExtension>
        </extensions>
      </trkpt>
      <trkpt lat="43.03207154385745525360107421875" lon="13.81853741593658924102783203125">
        <ele>73.59999847412109375</ele>
        <time>2020-05-09T12:25:57.000Z</time>
        <extensions>
          <ns3:TrackPointExtension>
            <ns3:atemp>28.0</ns3:atemp>
            <ns3:hr>154</ns3:hr>
          </ns3:TrackPointExtension>
        </extensions>
      </trkpt>
      <trkpt lat="43.03200096823275089263916015625" lon="13.8184281997382640838623046875">
        <ele>74.8000030517578125</ele>
        <time>2020-05-09T12:26:03.000Z</time>
        <extensions>
          <ns3:TrackPointExtension>
            <ns3:atemp>28.0</ns3:atemp>
            <ns3:hr>152</ns3:hr>
          </ns3:TrackPointExtension>
        </extensions>
      </trkpt>
      <trkpt lat="43.03198277950286865234375" lon="13.818399868905544281005859375">
        <ele>76</ele>
        <time>2020-05-09T12:26:06.000Z</time>
        <extensions>
          <ns3:TrackPointExtension>
            <ns3:atemp>28.0</ns3:atemp>
            <ns3:hr>151</ns3:hr>
          </ns3:TrackPointExtension>
        </extensions>
      </trkpt>
      <trkpt lat="43.031973056495189666748046875" lon="13.8183956779539585113525390625">
        <ele>76.40000152587890625</ele>
        <time>2020-05-09T12:26:07.000Z</time>
        <extensions>
          <ns3:TrackPointExtension>
            <ns3:atemp>28.0</ns3:atemp>
            <ns3:hr>151</ns3:hr>
          </ns3:TrackPointExtension>
        </extensions>
      </trkpt>
      <trkpt lat="43.03195738233625888824462890625" lon="13.81839006207883358001708984375">
        <ele>76.8000030517578125</ele>
        <time>2020-05-09T12:26:09.000Z</time>
        <extensions>
          <ns3:TrackPointExtension>
            <ns3:atemp>28.0</ns3:atemp>
            <ns3:hr>151</ns3:hr>
          </ns3:TrackPointExtension>
        </extensions>
      </trkpt>
      <trkpt lat="43.03192754276096820831298828125" lon="13.8183802552521228790283203125">
        <ele>77.1999969482421875</ele>
        <time>2020-05-09T12:26:11.000Z</time>
        <extensions>
          <ns3:TrackPointExtension>
            <ns3:atemp>28.0</ns3:atemp>
            <ns3:hr>152</ns3:hr>
          </ns3:TrackPointExtension>
        </extensions>
      </trkpt>
      <trkpt lat="43.03188160993158817291259765625" lon="13.81837807595729827880859375">
        <ele>78</ele>
        <time>2020-05-09T12:26:14.000Z</time>
        <extensions>
          <ns3:TrackPointExtension>
            <ns3:atemp>28.0</ns3:atemp>
            <ns3:hr>152</ns3:hr>
          </ns3:TrackPointExtension>
        </extensions>
      </trkpt>
      <trkpt lat="43.03184690885245800018310546875" lon="13.818358965218067169189453125">
        <ele>78.40000152587890625</ele>
        <time>2020-05-09T12:26:16.000Z</time>
        <extensions>
          <ns3:TrackPointExtension>
            <ns3:atemp>28.0</ns3:atemp>
            <ns3:hr>151</ns3:hr>
          </ns3:TrackPointExtension>
        </extensions>
      </trkpt>
      <trkpt lat="43.0317670293152332305908203125" lon="13.81831479258835315704345703125">
        <ele>79.40000152587890625</ele>
        <time>2020-05-09T12:26:20.000Z</time>
        <extensions>
          <ns3:TrackPointExtension>
            <ns3:atemp>28.0</ns3:atemp>
            <ns3:hr>151</ns3:hr>
          </ns3:TrackPointExtension>
        </extensions>
      </trkpt>
      <trkpt lat="43.03174632601439952850341796875" lon="13.81830054335296154022216796875">
        <ele>79.59999847412109375</ele>
        <time>2020-05-09T12:26:21.000Z</time>
        <extensions>
          <ns3:TrackPointExtension>
            <ns3:atemp>28.0</ns3:atemp>
            <ns3:hr>151</ns3:hr>
          </ns3:TrackPointExtension>
        </extensions>
      </trkpt>
      <trkpt lat="43.0316362716257572174072265625" lon="13.81822275929152965545654296875">
        <ele>80.8000030517578125</ele>
        <time>2020-05-09T12:26:26.000Z</time>
        <extensions>
          <ns3:TrackPointExtension>
            <ns3:atemp>28.0</ns3:atemp>
            <ns3:hr>153</ns3:hr>
          </ns3:TrackPointExtension>
        </extensions>
      </trkpt>
      <trkpt lat="43.0316000618040561676025390625" lon="13.8181971944868564605712890625">
        <ele>81</ele>
        <time>2020-05-09T12:26:28.000Z</time>
        <extensions>
          <ns3:TrackPointExtension>
            <ns3:atemp>28.0</ns3:atemp>
            <ns3:hr>155</ns3:hr>
          </ns3:TrackPointExtension>
        </extensions>
      </trkpt>
      <trkpt lat="43.03150065243244171142578125" lon="13.81813206709921360015869140625">
        <ele>82</ele>
        <time>2020-05-09T12:26:33.000Z</time>
        <extensions>
          <ns3:TrackPointExtension>
            <ns3:atemp>28.0</ns3:atemp>
            <ns3:hr>156</ns3:hr>
          </ns3:TrackPointExtension>
        </extensions>
      </trkpt>
      <trkpt lat="43.03145681507885456085205078125" lon="13.81809937767684459686279296875">
        <ele>82.59999847412109375</ele>
        <time>2020-05-09T12:26:36.000Z</time>
        <extensions>
          <ns3:TrackPointExtension>
            <ns3:atemp>28.0</ns3:atemp>
            <ns3:hr>156</ns3:hr>
          </ns3:TrackPointExtension>
        </extensions>
      </trkpt>
      <trkpt lat="43.0314317531883716583251953125" lon="13.81807590834796428680419921875">
        <ele>83</ele>
        <time>2020-05-09T12:26:38.000Z</time>
        <extensions>
          <ns3:TrackPointExtension>
            <ns3:atemp>28.0</ns3:atemp>
            <ns3:hr>156</ns3:hr>
          </ns3:TrackPointExtension>
        </extensions>
      </trkpt>
      <trkpt lat="43.03137819282710552215576171875" lon="13.8180221803486347198486328125">
        <ele>84.1999969482421875</ele>
        <time>2020-05-09T12:26:42.000Z</time>
        <extensions>
          <ns3:TrackPointExtension>
            <ns3:atemp>28.0</ns3:atemp>
            <ns3:hr>155</ns3:hr>
          </ns3:TrackPointExtension>
        </extensions>
      </trkpt>
      <trkpt lat="43.0313650332391262054443359375" lon="13.818010278046131134033203125">
        <ele>84.1999969482421875</ele>
        <time>2020-05-09T12:26:43.000Z</time>
        <extensions>
          <ns3:TrackPointExtension>
            <ns3:atemp>28.0</ns3:atemp>
            <ns3:hr>155</ns3:hr>
          </ns3:TrackPointExtension>
        </extensions>
      </trkpt>
      <trkpt lat="43.03131415508687496185302734375" lon="13.81796007044613361358642578125">
        <ele>85.40000152587890625</ele>
        <time>2020-05-09T12:26:47.000Z</time>
        <extensions>
          <ns3:TrackPointExtension>
            <ns3:atemp>28.0</ns3:atemp>
            <ns3:hr>154</ns3:hr>
          </ns3:TrackPointExtension>
        </extensions>
      </trkpt>
      <trkpt lat="43.03126084618270397186279296875" lon="13.81792218424379825592041015625">
        <ele>86.40000152587890625</ele>
        <time>2020-05-09T12:26:51.000Z</time>
        <extensions>
          <ns3:TrackPointExtension>
            <ns3:atemp>28.0</ns3:atemp>
            <ns3:hr>153</ns3:hr>
          </ns3:TrackPointExtension>
        </extensions>
      </trkpt>
      <trkpt lat="43.03121541626751422882080078125" lon="13.8178924284875392913818359375">
        <ele>87.59999847412109375</ele>
        <time>2020-05-09T12:26:55.000Z</time>
        <extensions>
          <ns3:TrackPointExtension>
            <ns3:atemp>28.0</ns3:atemp>
            <ns3:hr>152</ns3:hr>
          </ns3:TrackPointExtension>
        </extensions>
      </trkpt>
      <trkpt lat="43.03118356503546237945556640625" lon="13.8178857229650020599365234375">
        <ele>88.59999847412109375</ele>
        <time>2020-05-09T12:26:57.000Z</time>
        <extensions>
          <ns3:TrackPointExtension>
            <ns3:atemp>28.0</ns3:atemp>
            <ns3:hr>152</ns3:hr>
          </ns3:TrackPointExtension>
        </extensions>
      </trkpt>
      <trkpt lat="43.0311709083616733551025390625" lon="13.81788245402276515960693359375">
        <ele>89</ele>
        <time>2020-05-09T12:26:58.000Z</time>
        <extensions>
          <ns3:TrackPointExtension>
            <ns3:atemp>29.0</ns3:atemp>
            <ns3:hr>152</ns3:hr>
          </ns3:TrackPointExtension>
        </extensions>
      </trkpt>
      <trkpt lat="43.03115305490791797637939453125" lon="13.8178897462785243988037109375">
        <ele>89.59999847412109375</ele>
        <time>2020-05-09T12:27:00.000Z</time>
        <extensions>
          <ns3:TrackPointExtension>
            <ns3:atemp>29.0</ns3:atemp>
            <ns3:hr>152</ns3:hr>
          </ns3:TrackPointExtension>
        </extensions>
      </trkpt>
      <trkpt lat="43.0311392247676849365234375" lon="13.81792302243411540985107421875">
        <ele>89.8000030517578125</ele>
        <time>2020-05-09T12:27:02.000Z</time>
        <extensions>
          <ns3:TrackPointExtension>
            <ns3:atemp>29.0</ns3:atemp>
            <ns3:hr>153</ns3:hr>
          </ns3:TrackPointExtension>
        </extensions>
      </trkpt>
      <trkpt lat="43.031137883663177490234375" lon="13.81794280372560024261474609375">
        <ele>90</ele>
        <time>2020-05-09T12:27:03.000Z</time>
        <extensions>
          <ns3:TrackPointExtension>
            <ns3:atemp>29.0</ns3:atemp>
            <ns3:hr>154</ns3:hr>
          </ns3:TrackPointExtension>
        </extensions>
      </trkpt>
      <trkpt lat="43.0311450920999050140380859375" lon="13.8179856352508068084716796875">
        <ele>90</ele>
        <time>2020-05-09T12:27:05.000Z</time>
        <extensions>
          <ns3:TrackPointExtension>
            <ns3:atemp>29.0</ns3:atemp>
            <ns3:hr>155</ns3:hr>
          </ns3:TrackPointExtension>
        </extensions>
      </trkpt>
      <trkpt lat="43.03116428665816783905029296875" lon="13.81802125833928585052490234375">
        <ele>90.1999969482421875</ele>
        <time>2020-05-09T12:27:07.000Z</time>
        <extensions>
          <ns3:TrackPointExtension>
            <ns3:atemp>29.0</ns3:atemp>
            <ns3:hr>155</ns3:hr>
          </ns3:TrackPointExtension>
        </extensions>
      </trkpt>
      <trkpt lat="43.03120963275432586669921875" lon="13.81811765022575855255126953125">
        <ele>91</ele>
        <time>2020-05-09T12:27:12.000Z</time>
        <extensions>
          <ns3:TrackPointExtension>
            <ns3:atemp>29.0</ns3:atemp>
            <ns3:hr>155</ns3:hr>
          </ns3:TrackPointExtension>
        </extensions>
      </trkpt>
      <trkpt lat="43.031218349933624267578125" lon="13.818141035735607147216796875">
        <ele>91.1999969482421875</ele>
        <time>2020-05-09T12:27:13.000Z</time>
        <extensions>
          <ns3:TrackPointExtension>
            <ns3:atemp>29.0</ns3:atemp>
            <ns3:hr>155</ns3:hr>
          </ns3:TrackPointExtension>
        </extensions>
      </trkpt>
      <trkpt lat="43.03126595914363861083984375" lon="13.8182647526264190673828125">
        <ele>92.1999969482421875</ele>
        <time>2020-05-09T12:27:19.000Z</time>
        <extensions>
          <ns3:TrackPointExtension>
            <ns3:atemp>29.0</ns3:atemp>
            <ns3:hr>156</ns3:hr>
          </ns3:TrackPointExtension>
        </extensions>
      </trkpt>
      <trkpt lat="43.03127995692193508148193359375" lon="13.81828419864177703857421875">
        <ele>92.40000152587890625</ele>
        <time>2020-05-09T12:27:20.000Z</time>
        <extensions>
          <ns3:TrackPointExtension>
            <ns3:atemp>29.0</ns3:atemp>
            <ns3:hr>157</ns3:hr>
          </ns3:TrackPointExtension>
        </extensions>
      </trkpt>
      <trkpt lat="43.03130216896533966064453125" lon="13.81834320724010467529296875">
        <ele>93</ele>
        <time>2020-05-09T12:27:23.000Z</time>
        <extensions>
          <ns3:TrackPointExtension>
            <ns3:atemp>29.0</ns3:atemp>
            <ns3:hr>159</ns3:hr>
          </ns3:TrackPointExtension>
        </extensions>
      </trkpt>
      <trkpt lat="43.0313130654394626617431640625" lon="13.8183613121509552001953125">
        <ele>93.1999969482421875</ele>
        <time>2020-05-09T12:27:24.000Z</time>
        <extensions>
          <ns3:TrackPointExtension>
            <ns3:atemp>29.0</ns3:atemp>
            <ns3:hr>159</ns3:hr>
          </ns3:TrackPointExtension>
        </extensions>
      </trkpt>
      <trkpt lat="43.03132354281842708587646484375" lon="13.81838478147983551025390625">
        <ele>93.40000152587890625</ele>
        <time>2020-05-09T12:27:25.000Z</time>
        <extensions>
          <ns3:TrackPointExtension>
            <ns3:atemp>29.0</ns3:atemp>
            <ns3:hr>154</ns3:hr>
          </ns3:TrackPointExtension>
        </extensions>
      </trkpt>
      <trkpt lat="43.03133276291191577911376953125" lon="13.818402551114559173583984375">
        <ele>93.59999847412109375</ele>
        <time>2020-05-09T12:27:26.000Z</time>
        <extensions>
          <ns3:TrackPointExtension>
            <ns3:atemp>29.0</ns3:atemp>
            <ns3:hr>154</ns3:hr>
          </ns3:TrackPointExtension>
        </extensions>
      </trkpt>
      <trkpt lat="43.0313988961279392242431640625" lon="13.81847555749118328094482421875">
        <ele>94.1999969482421875</ele>
        <time>2020-05-09T12:27:31.000Z</time>
        <extensions>
          <ns3:TrackPointExtension>
            <ns3:atemp>29.0</ns3:atemp>
            <ns3:hr>154</ns3:hr>
          </ns3:TrackPointExtension>
        </extensions>
      </trkpt>
      <trkpt lat="43.03141121752560138702392578125" lon="13.81849047727882862091064453125">
        <ele>94.1999969482421875</ele>
        <time>2020-05-09T12:27:32.000Z</time>
        <extensions>
          <ns3:TrackPointExtension>
            <ns3:atemp>29.0</ns3:atemp>
            <ns3:hr>154</ns3:hr>
          </ns3:TrackPointExtension>
        </extensions>
      </trkpt>
      <trkpt lat="43.031435273587703704833984375" lon="13.81852651946246623992919921875">
        <ele>94.40000152587890625</ele>
        <time>2020-05-09T12:27:34.000Z</time>
        <extensions>
          <ns3:TrackPointExtension>
            <ns3:atemp>29.0</ns3:atemp>
            <ns3:hr>154</ns3:hr>
          </ns3:TrackPointExtension>
        </extensions>
      </trkpt>
      <trkpt lat="43.03148095495998859405517578125" lon="13.8185713626444339752197265625">
        <ele>94.8000030517578125</ele>
        <time>2020-05-09T12:27:37.000Z</time>
        <extensions>
          <ns3:TrackPointExtension>
            <ns3:atemp>29.0</ns3:atemp>
            <ns3:hr>154</ns3:hr>
          </ns3:TrackPointExtension>
        </extensions>
      </trkpt>
      <trkpt lat="43.03153024055063724517822265625" lon="13.8186053931713104248046875">
        <ele>95.1999969482421875</ele>
        <time>2020-05-09T12:27:40.000Z</time>
        <extensions>
          <ns3:TrackPointExtension>
            <ns3:atemp>29.0</ns3:atemp>
            <ns3:hr>154</ns3:hr>
          </ns3:TrackPointExtension>
        </extensions>
      </trkpt>
      <trkpt lat="43.03157717920839786529541015625" lon="13.8186789862811565399169921875">
        <ele>96</ele>
        <time>2020-05-09T12:27:43.000Z</time>
        <extensions>
          <ns3:TrackPointExtension>
            <ns3:atemp>29.0</ns3:atemp>
            <ns3:hr>152</ns3:hr>
          </ns3:TrackPointExtension>
        </extensions>
      </trkpt>
      <trkpt lat="43.0316178314387798309326171875" lon="13.8187527470290660858154296875">
        <ele>96.40000152587890625</ele>
        <time>2020-05-09T12:27:46.000Z</time>
        <extensions>
          <ns3:TrackPointExtension>
            <ns3:atemp>29.0</ns3:atemp>
            <ns3:hr>151</ns3:hr>
          </ns3:TrackPointExtension>
        </extensions>
      </trkpt>
      <trkpt lat="43.03166988305747509002685546875" lon="13.81882726214826107025146484375">
        <ele>96.59999847412109375</ele>
        <time>2020-05-09T12:27:49.000Z</time>
        <extensions>
          <ns3:TrackPointExtension>
            <ns3:atemp>29.0</ns3:atemp>
            <ns3:hr>149</ns3:hr>
          </ns3:TrackPointExtension>
        </extensions>
      </trkpt>
      <trkpt lat="43.031666278839111328125" lon="13.81895919330418109893798828125">
        <ele>97.40000152587890625</ele>
        <time>2020-05-09T12:27:54.000Z</time>
        <extensions>
          <ns3:TrackPointExtension>
            <ns3:atemp>29.0</ns3:atemp>
            <ns3:hr>151</ns3:hr>
          </ns3:TrackPointExtension>
        </extensions>
      </trkpt>
      <trkpt lat="43.03166938014328479766845703125" lon="13.81905172951519489288330078125">
        <ele>97.8000030517578125</ele>
        <time>2020-05-09T12:27:57.000Z</time>
        <extensions>
          <ns3:TrackPointExtension>
            <ns3:atemp>29.0</ns3:atemp>
            <ns3:hr>149</ns3:hr>
          </ns3:TrackPointExtension>
        </extensions>
      </trkpt>
      <trkpt lat="43.03169636987149715423583984375" lon="13.8191741891205310821533203125">
        <ele>98</ele>
        <time>2020-05-09T12:28:01.000Z</time>
        <extensions>
          <ns3:TrackPointExtension>
            <ns3:atemp>29.0</ns3:atemp>
            <ns3:hr>146</ns3:hr>
          </ns3:TrackPointExtension>
        </extensions>
      </trkpt>
      <trkpt lat="43.0317006446421146392822265625" lon="13.81920159794390201568603515625">
        <ele>98</ele>
        <time>2020-05-09T12:28:02.000Z</time>
        <extensions>
          <ns3:TrackPointExtension>
            <ns3:atemp>29.0</ns3:atemp>
            <ns3:hr>143</ns3:hr>
          </ns3:TrackPointExtension>
        </extensions>
      </trkpt>
      <trkpt lat="43.03171254694461822509765625" lon="13.81926110945641994476318359375">
        <ele>98</ele>
        <time>2020-05-09T12:28:04.000Z</time>
        <extensions>
          <ns3:TrackPointExtension>
            <ns3:atemp>29.0</ns3:atemp>
            <ns3:hr>139</ns3:hr>
          </ns3:TrackPointExtension>
        </extensions>
      </trkpt>
      <trkpt lat="43.03173425607383251190185546875" lon="13.81935062818229198455810546875">
        <ele>98.40000152587890625</ele>
        <time>2020-05-09T12:28:07.000Z</time>
        <extensions>
          <ns3:TrackPointExtension>
            <ns3:atemp>29.0</ns3:atemp>
            <ns3:hr>136</ns3:hr>
          </ns3:TrackPointExtension>
        </extensions>
      </trkpt>
      <trkpt lat="43.03175487555563449859619140625" lon="13.8194717466831207275390625">
        <ele>98.8000030517578125</ele>
        <time>2020-05-09T12:28:11.000Z</time>
        <extensions>
          <ns3:TrackPointExtension>
            <ns3:atemp>29.0</ns3:atemp>
            <ns3:hr>134</ns3:hr>
          </ns3:TrackPointExtension>
        </extensions>
      </trkpt>
      <trkpt lat="43.0317666940391063690185546875" lon="13.8195624388754367828369140625">
        <ele>99.59999847412109375</ele>
        <time>2020-05-09T12:28:14.000Z</time>
        <extensions>
          <ns3:TrackPointExtension>
            <ns3:atemp>29.0</ns3:atemp>
            <ns3:hr>134</ns3:hr>
          </ns3:TrackPointExtension>
        </extensions>
      </trkpt>
      <trkpt lat="43.03178018890321254730224609375" lon="13.81967048160731792449951171875">
        <ele>100.59999847412109375</ele>
        <time>2020-05-09T12:28:18.000Z</time>
        <extensions>
          <ns3:TrackPointExtension>
            <ns3:atemp>29.0</ns3:atemp>
            <ns3:hr>133</ns3:hr>
          </ns3:TrackPointExtension>
        </extensions>
      </trkpt>
      <trkpt lat="43.03179460577666759490966796875" lon="13.8198474235832691192626953125">
        <ele>101.59999847412109375</ele>
        <time>2020-05-09T12:28:25.000Z</time>
        <extensions>
          <ns3:TrackPointExtension>
            <ns3:atemp>28.0</ns3:atemp>
            <ns3:hr>135</ns3:hr>
          </ns3:TrackPointExtension>
        </extensions>
      </trkpt>
      <trkpt lat="43.03180332295596599578857421875" lon="13.8199330866336822509765625">
        <ele>102.8000030517578125</ele>
        <time>2020-05-09T12:28:29.000Z</time>
        <extensions>
          <ns3:TrackPointExtension>
            <ns3:atemp>28.0</ns3:atemp>
            <ns3:hr>137</ns3:hr>
          </ns3:TrackPointExtension>
        </extensions>
      </trkpt>
      <trkpt lat="43.03179569542407989501953125" lon="13.819985054433345794677734375">
        <ele>103.40000152587890625</ele>
        <time>2020-05-09T12:28:31.000Z</time>
        <extensions>
          <ns3:TrackPointExtension>
            <ns3:atemp>28.0</ns3:atemp>
            <ns3:hr>138</ns3:hr>
          </ns3:TrackPointExtension>
        </extensions>
      </trkpt>
      <trkpt lat="43.03178337402641773223876953125" lon="13.8200331665575504302978515625">
        <ele>103.8000030517578125</ele>
        <time>2020-05-09T12:28:33.000Z</time>
        <extensions>
          <ns3:TrackPointExtension>
            <ns3:atemp>28.0</ns3:atemp>
            <ns3:hr>138</ns3:hr>
          </ns3:TrackPointExtension>
        </extensions>
      </trkpt>
      <trkpt lat="43.03173978812992572784423828125" lon="13.82015646435320377349853515625">
        <ele>105</ele>
        <time>2020-05-09T12:28:39.000Z</time>
        <extensions>
          <ns3:TrackPointExtension>
            <ns3:atemp>28.0</ns3:atemp>
            <ns3:hr>139</ns3:hr>
          </ns3:TrackPointExtension>
        </extensions>
      </trkpt>
      <trkpt lat="43.0317301489412784576416015625" lon="13.8201706297695636749267578125">
        <ele>105.1999969482421875</ele>
        <time>2020-05-09T12:28:40.000Z</time>
        <extensions>
          <ns3:TrackPointExtension>
            <ns3:atemp>28.0</ns3:atemp>
            <ns3:hr>139</ns3:hr>
          </ns3:TrackPointExtension>
        </extensions>
      </trkpt>
      <trkpt lat="43.03170743398368358612060546875" lon="13.820233829319477081298828125">
        <ele>106.1999969482421875</ele>
        <time>2020-05-09T12:28:44.000Z</time>
        <extensions>
          <ns3:TrackPointExtension>
            <ns3:atemp>28.0</ns3:atemp>
            <ns3:hr>137</ns3:hr>
          </ns3:TrackPointExtension>
        </extensions>
      </trkpt>
      <trkpt lat="43.0317016504704952239990234375" lon="13.8202581368386745452880859375">
        <ele>106.8000030517578125</ele>
        <time>2020-05-09T12:28:46.000Z</time>
        <extensions>
          <ns3:TrackPointExtension>
            <ns3:atemp>28.0</ns3:atemp>
            <ns3:hr>138</ns3:hr>
          </ns3:TrackPointExtension>
        </extensions>
      </trkpt>
      <trkpt lat="43.03169217891991138458251953125" lon="13.82027498446404933929443359375">
        <ele>107.1999969482421875</ele>
        <time>2020-05-09T12:28:48.000Z</time>
        <extensions>
          <ns3:TrackPointExtension>
            <ns3:atemp>28.0</ns3:atemp>
            <ns3:hr>136</ns3:hr>
          </ns3:TrackPointExtension>
        </extensions>
      </trkpt>
      <trkpt lat="43.03168429993093013763427734375" lon="13.82028437219560146331787109375">
        <ele>107.59999847412109375</ele>
        <time>2020-05-09T12:28:49.000Z</time>
        <extensions>
          <ns3:TrackPointExtension>
            <ns3:atemp>28.0</ns3:atemp>
            <ns3:hr>140</ns3:hr>
          </ns3:TrackPointExtension>
        </extensions>
      </trkpt>
      <trkpt lat="43.03164674900472164154052734375" lon="13.82031840272247791290283203125">
        <ele>108.40000152587890625</ele>
        <time>2020-05-09T12:28:52.000Z</time>
        <extensions>
          <ns3:TrackPointExtension>
            <ns3:atemp>28.0</ns3:atemp>
            <ns3:hr>142</ns3:hr>
          </ns3:TrackPointExtension>
        </extensions>
      </trkpt>
      <trkpt lat="43.0316262133419513702392578125" lon="13.8203394412994384765625">
        <ele>108.59999847412109375</ele>
        <time>2020-05-09T12:28:53.000Z</time>
        <extensions>
          <ns3:TrackPointExtension>
            <ns3:atemp>28.0</ns3:atemp>
            <ns3:hr>142</ns3:hr>
          </ns3:TrackPointExtension>
        </extensions>
      </trkpt>
      <trkpt lat="43.0315936915576457977294921875" lon="13.82035058923065662384033203125">
        <ele>109</ele>
        <time>2020-05-09T12:28:55.000Z</time>
        <extensions>
          <ns3:TrackPointExtension>
            <ns3:atemp>28.0</ns3:atemp>
            <ns3:hr>143</ns3:hr>
          </ns3:TrackPointExtension>
        </extensions>
      </trkpt>
      <trkpt lat="43.03157399408519268035888671875" lon="13.820347152650356292724609375">
        <ele>109.40000152587890625</ele>
        <time>2020-05-09T12:28:56.000Z</time>
        <extensions>
          <ns3:TrackPointExtension>
            <ns3:atemp>28.0</ns3:atemp>
            <ns3:hr>144</ns3:hr>
          </ns3:TrackPointExtension>
        </extensions>
      </trkpt>
      <trkpt lat="43.0315450765192508697509765625" lon="13.8203235156834125518798828125">
        <ele>109.59999847412109375</ele>
        <time>2020-05-09T12:28:58.000Z</time>
        <extensions>
          <ns3:TrackPointExtension>
            <ns3:atemp>28.0</ns3:atemp>
            <ns3:hr>144</ns3:hr>
          </ns3:TrackPointExtension>
        </extensions>
      </trkpt>
      <trkpt lat="43.03151364438235759735107421875" lon="13.82027934305369853973388671875">
        <ele>110.40000152587890625</ele>
        <time>2020-05-09T12:29:01.000Z</time>
        <extensions>
          <ns3:TrackPointExtension>
            <ns3:atemp>28.0</ns3:atemp>
            <ns3:hr>145</ns3:hr>
          </ns3:TrackPointExtension>
        </extensions>
      </trkpt>
      <trkpt lat="43.03148430772125720977783203125" lon="13.82021765224635601043701171875">
        <ele>111.40000152587890625</ele>
        <time>2020-05-09T12:29:05.000Z</time>
        <extensions>
          <ns3:TrackPointExtension>
            <ns3:atemp>28.0</ns3:atemp>
            <ns3:hr>148</ns3:hr>
          </ns3:TrackPointExtension>
        </extensions>
      </trkpt>
      <trkpt lat="43.03147919476032257080078125" lon="13.82019753567874431610107421875">
        <ele>111.40000152587890625</ele>
        <time>2020-05-09T12:29:06.000Z</time>
        <extensions>
          <ns3:TrackPointExtension>
            <ns3:atemp>28.0</ns3:atemp>
            <ns3:hr>148</ns3:hr>
          </ns3:TrackPointExtension>
        </extensions>
      </trkpt>
      <trkpt lat="43.0314746685326099395751953125" lon="13.82017876021564006805419921875">
        <ele>111.59999847412109375</ele>
        <time>2020-05-09T12:29:07.000Z</time>
        <extensions>
          <ns3:TrackPointExtension>
            <ns3:atemp>28.0</ns3:atemp>
            <ns3:hr>147</ns3:hr>
          </ns3:TrackPointExtension>
        </extensions>
      </trkpt>
      <trkpt lat="43.03145312704145908355712890625" lon="13.8201169855892658233642578125">
        <ele>112.1999969482421875</ele>
        <time>2020-05-09T12:29:10.000Z</time>
        <extensions>
          <ns3:TrackPointExtension>
            <ns3:atemp>28.0</ns3:atemp>
            <ns3:hr>150</ns3:hr>
          </ns3:TrackPointExtension>
        </extensions>
      </trkpt>
      <trkpt lat="43.03143787197768688201904296875" lon="13.82007029838860034942626953125">
        <ele>112.59999847412109375</ele>
        <time>2020-05-09T12:29:12.000Z</time>
        <extensions>
          <ns3:TrackPointExtension>
            <ns3:atemp>28.0</ns3:atemp>
            <ns3:hr>147</ns3:hr>
          </ns3:TrackPointExtension>
        </extensions>
      </trkpt>
      <trkpt lat="43.03142278455197811126708984375" lon="13.82003224454820156097412109375">
        <ele>112.8000030517578125</ele>
        <time>2020-05-09T12:29:14.000Z</time>
        <extensions>
          <ns3:TrackPointExtension>
            <ns3:atemp>28.0</ns3:atemp>
            <ns3:hr>147</ns3:hr>
          </ns3:TrackPointExtension>
        </extensions>
      </trkpt>
      <trkpt lat="43.03137634880840778350830078125" lon="13.81996217183768749237060546875">
        <ele>113.59999847412109375</ele>
        <time>2020-05-09T12:29:18.000Z</time>
        <extensions>
          <ns3:TrackPointExtension>
            <ns3:atemp>28.0</ns3:atemp>
            <ns3:hr>149</ns3:hr>
          </ns3:TrackPointExtension>
        </extensions>
      </trkpt>
      <trkpt lat="43.0313432402908802032470703125" lon="13.81988740526139736175537109375">
        <ele>114</ele>
        <time>2020-05-09T12:29:22.000Z</time>
        <extensions>
          <ns3:TrackPointExtension>
            <ns3:atemp>28.0</ns3:atemp>
            <ns3:hr>152</ns3:hr>
          </ns3:TrackPointExtension>
        </extensions>
      </trkpt>
      <trkpt lat="43.0313216149806976318359375" lon="13.81978095509111881256103515625">
        <ele>114.8000030517578125</ele>
        <time>2020-05-09T12:29:27.000Z</time>
        <extensions>
          <ns3:TrackPointExtension>
            <ns3:atemp>28.0</ns3:atemp>
            <ns3:hr>152</ns3:hr>
          </ns3:TrackPointExtension>
        </extensions>
      </trkpt>
      <trkpt lat="43.03130778484046459197998046875" lon="13.8197401352226734161376953125">
        <ele>115.1999969482421875</ele>
        <time>2020-05-09T12:29:29.000Z</time>
        <extensions>
          <ns3:TrackPointExtension>
            <ns3:atemp>28.0</ns3:atemp>
            <ns3:hr>153</ns3:hr>
          </ns3:TrackPointExtension>
        </extensions>
      </trkpt>
      <trkpt lat="43.0312862433493137359619140625" lon="13.8196848146617412567138671875">
        <ele>116</ele>
        <time>2020-05-09T12:29:32.000Z</time>
        <extensions>
          <ns3:TrackPointExtension>
            <ns3:atemp>29.0</ns3:atemp>
            <ns3:hr>153</ns3:hr>
          </ns3:TrackPointExtension>
        </extensions>
      </trkpt>
      <trkpt lat="43.03126855753362178802490234375" lon="13.8196274824440479278564453125">
        <ele>117.1999969482421875</ele>
        <time>2020-05-09T12:29:35.000Z</time>
        <extensions>
          <ns3:TrackPointExtension>
            <ns3:atemp>29.0</ns3:atemp>
            <ns3:hr>153</ns3:hr>
          </ns3:TrackPointExtension>
        </extensions>
      </trkpt>
      <trkpt lat="43.03125866688787937164306640625" lon="13.81961398757994174957275390625">
        <ele>117.40000152587890625</ele>
        <time>2020-05-09T12:29:36.000Z</time>
        <extensions>
          <ns3:TrackPointExtension>
            <ns3:atemp>29.0</ns3:atemp>
            <ns3:hr>154</ns3:hr>
          </ns3:TrackPointExtension>
        </extensions>
      </trkpt>
      <trkpt lat="43.03122463636100292205810546875" lon="13.8195548951625823974609375">
        <ele>118.40000152587890625</ele>
        <time>2020-05-09T12:29:40.000Z</time>
        <extensions>
          <ns3:TrackPointExtension>
            <ns3:atemp>29.0</ns3:atemp>
            <ns3:hr>156</ns3:hr>
          </ns3:TrackPointExtension>
        </extensions>
      </trkpt>
      <trkpt lat="43.03119446150958538055419921875" lon="13.8195121474564075469970703125">
        <ele>119.59999847412109375</ele>
        <time>2020-05-09T12:29:43.000Z</time>
        <extensions>
          <ns3:TrackPointExtension>
            <ns3:atemp>29.0</ns3:atemp>
            <ns3:hr>156</ns3:hr>
          </ns3:TrackPointExtension>
        </extensions>
      </trkpt>
      <trkpt lat="43.0311823077499866485595703125" lon="13.81949731148779392242431640625">
        <ele>120</ele>
        <time>2020-05-09T12:29:44.000Z</time>
        <extensions>
          <ns3:TrackPointExtension>
            <ns3:atemp>29.0</ns3:atemp>
            <ns3:hr>156</ns3:hr>
          </ns3:TrackPointExtension>
        </extensions>
      </trkpt>
      <trkpt lat="43.031150959432125091552734375" lon="13.81945204921066761016845703125">
        <ele>120.8000030517578125</ele>
        <time>2020-05-09T12:29:47.000Z</time>
        <extensions>
          <ns3:TrackPointExtension>
            <ns3:atemp>29.0</ns3:atemp>
            <ns3:hr>156</ns3:hr>
          </ns3:TrackPointExtension>
        </extensions>
      </trkpt>
      <trkpt lat="43.031110726296901702880859375" lon="13.81938851438462734222412109375">
        <ele>121.8000030517578125</ele>
        <time>2020-05-09T12:29:51.000Z</time>
        <extensions>
          <ns3:TrackPointExtension>
            <ns3:atemp>29.0</ns3:atemp>
            <ns3:hr>158</ns3:hr>
          </ns3:TrackPointExtension>
        </extensions>
      </trkpt>
      <trkpt lat="43.03110075183212757110595703125" lon="13.81937191821634769439697265625">
        <ele>122.1999969482421875</ele>
        <time>2020-05-09T12:29:52.000Z</time>
        <extensions>
          <ns3:TrackPointExtension>
            <ns3:atemp>29.0</ns3:atemp>
            <ns3:hr>159</ns3:hr>
          </ns3:TrackPointExtension>
        </extensions>
      </trkpt>
      <trkpt lat="43.03107661195099353790283203125" lon="13.81930402480065822601318359375">
        <ele>123</ele>
        <time>2020-05-09T12:29:55.000Z</time>
        <extensions>
          <ns3:TrackPointExtension>
            <ns3:atemp>29.0</ns3:atemp>
            <ns3:hr>160</ns3:hr>
          </ns3:TrackPointExtension>
        </extensions>
      </trkpt>
      <trkpt lat="43.03106353618204593658447265625" lon="13.81927133537828922271728515625">
        <ele>123.40000152587890625</ele>
        <time>2020-05-09T12:29:57.000Z</time>
        <extensions>
          <ns3:TrackPointExtension>
            <ns3:atemp>29.0</ns3:atemp>
            <ns3:hr>160</ns3:hr>
          </ns3:TrackPointExtension>
        </extensions>
      </trkpt>
      <trkpt lat="43.03104157559573650360107421875" lon="13.81924233399331569671630859375">
        <ele>124.1999969482421875</ele>
        <time>2020-05-09T12:29:59.000Z</time>
        <extensions>
          <ns3:TrackPointExtension>
            <ns3:atemp>29.0</ns3:atemp>
            <ns3:hr>161</ns3:hr>
          </ns3:TrackPointExtension>
        </extensions>
      </trkpt>
      <trkpt lat="43.03098927251994609832763671875" lon="13.8191874325275421142578125">
        <ele>125.1999969482421875</ele>
        <time>2020-05-09T12:30:03.000Z</time>
        <extensions>
          <ns3:TrackPointExtension>
            <ns3:atemp>29.0</ns3:atemp>
            <ns3:hr>160</ns3:hr>
          </ns3:TrackPointExtension>
        </extensions>
      </trkpt>
      <trkpt lat="43.030968569219112396240234375" lon="13.81915616802871227264404296875">
        <ele>125.8000030517578125</ele>
        <time>2020-05-09T12:30:05.000Z</time>
        <extensions>
          <ns3:TrackPointExtension>
            <ns3:atemp>29.0</ns3:atemp>
            <ns3:hr>159</ns3:hr>
          </ns3:TrackPointExtension>
        </extensions>
      </trkpt>
      <trkpt lat="43.0309546552598476409912109375" lon="13.81914041005074977874755859375">
        <ele>126.1999969482421875</ele>
        <time>2020-05-09T12:30:06.000Z</time>
        <extensions>
          <ns3:TrackPointExtension>
            <ns3:atemp>29.0</ns3:atemp>
            <ns3:hr>159</ns3:hr>
          </ns3:TrackPointExtension>
        </extensions>
      </trkpt>
      <trkpt lat="43.030924312770366668701171875" lon="13.8190903700888156890869140625">
        <ele>127</ele>
        <time>2020-05-09T12:30:09.000Z</time>
        <extensions>
          <ns3:TrackPointExtension>
            <ns3:atemp>28.0</ns3:atemp>
            <ns3:hr>160</ns3:hr>
          </ns3:TrackPointExtension>
        </extensions>
      </trkpt>
      <trkpt lat="43.03091333247721195220947265625" lon="13.81907519884407520294189453125">
        <ele>127.1999969482421875</ele>
        <time>2020-05-09T12:30:10.000Z</time>
        <extensions>
          <ns3:TrackPointExtension>
            <ns3:atemp>28.0</ns3:atemp>
            <ns3:hr>161</ns3:hr>
          </ns3:TrackPointExtension>
        </extensions>
      </trkpt>
      <trkpt lat="43.03086874075233936309814453125" lon="13.81901736371219158172607421875">
        <ele>128.1999969482421875</ele>
        <time>2020-05-09T12:30:14.000Z</time>
        <extensions>
          <ns3:TrackPointExtension>
            <ns3:atemp>28.0</ns3:atemp>
            <ns3:hr>161</ns3:hr>
          </ns3:TrackPointExtension>
        </extensions>
      </trkpt>
      <trkpt lat="43.0308316089212894439697265625" lon="13.8189720176160335540771484375">
        <ele>128.600006103515625</ele>
        <time>2020-05-09T12:30:17.000Z</time>
        <extensions>
          <ns3:TrackPointExtension>
            <ns3:atemp>28.0</ns3:atemp>
            <ns3:hr>161</ns3:hr>
          </ns3:TrackPointExtension>
        </extensions>
      </trkpt>
      <trkpt lat="43.03080059587955474853515625" lon="13.81892792880535125732421875">
        <ele>129.399993896484375</ele>
        <time>2020-05-09T12:30:20.000Z</time>
        <extensions>
          <ns3:TrackPointExtension>
            <ns3:atemp>28.0</ns3:atemp>
            <ns3:hr>161</ns3:hr>
          </ns3:TrackPointExtension>
        </extensions>
      </trkpt>
      <trkpt lat="43.0307618714869022369384765625" lon="13.8188865222036838531494140625">
        <ele>129.8000030517578125</ele>
        <time>2020-05-09T12:30:23.000Z</time>
        <extensions>
          <ns3:TrackPointExtension>
            <ns3:atemp>28.0</ns3:atemp>
            <ns3:hr>161</ns3:hr>
          </ns3:TrackPointExtension>
        </extensions>
      </trkpt>
      <trkpt lat="43.030713088810443878173828125" lon="13.81886732764542102813720703125">
        <ele>130.399993896484375</ele>
        <time>2020-05-09T12:30:27.000Z</time>
        <extensions>
          <ns3:TrackPointExtension>
            <ns3:atemp>28.0</ns3:atemp>
            <ns3:hr>161</ns3:hr>
          </ns3:TrackPointExtension>
        </extensions>
      </trkpt>
      <trkpt lat="43.03068417124450206756591796875" lon="13.81884302012622356414794921875">
        <ele>131</ele>
        <time>2020-05-09T12:30:29.000Z</time>
        <extensions>
          <ns3:TrackPointExtension>
            <ns3:atemp>28.0</ns3:atemp>
            <ns3:hr>161</ns3:hr>
          </ns3:TrackPointExtension>
        </extensions>
      </trkpt>
      <trkpt lat="43.0306435190141201019287109375" lon="13.81883162073791027069091796875">
        <ele>131.600006103515625</ele>
        <time>2020-05-09T12:30:32.000Z</time>
        <extensions>
          <ns3:TrackPointExtension>
            <ns3:atemp>28.0</ns3:atemp>
            <ns3:hr>161</ns3:hr>
          </ns3:TrackPointExtension>
        </extensions>
      </trkpt>
      <trkpt lat="43.03061057813465595245361328125" lon="13.818798847496509552001953125">
        <ele>132</ele>
        <time>2020-05-09T12:30:35.000Z</time>
        <extensions>
          <ns3:TrackPointExtension>
            <ns3:atemp>29.0</ns3:atemp>
            <ns3:hr>160</ns3:hr>
          </ns3:TrackPointExtension>
        </extensions>
      </trkpt>
      <trkpt lat="43.03058392368257045745849609375" lon="13.81877613253891468048095703125">
        <ele>132.600006103515625</ele>
        <time>2020-05-09T12:30:37.000Z</time>
        <extensions>
          <ns3:TrackPointExtension>
            <ns3:atemp>29.0</ns3:atemp>
            <ns3:hr>159</ns3:hr>
          </ns3:TrackPointExtension>
        </extensions>
      </trkpt>
      <trkpt lat="43.03054201416671276092529296875" lon="13.8187396712601184844970703125">
        <ele>133</ele>
        <time>2020-05-09T12:30:40.000Z</time>
        <extensions>
          <ns3:TrackPointExtension>
            <ns3:atemp>29.0</ns3:atemp>
            <ns3:hr>159</ns3:hr>
          </ns3:TrackPointExtension>
        </extensions>
      </trkpt>
      <trkpt lat="43.030528016388416290283203125" lon="13.8187259249389171600341796875">
        <ele>133</ele>
        <time>2020-05-09T12:30:41.000Z</time>
        <extensions>
          <ns3:TrackPointExtension>
            <ns3:atemp>29.0</ns3:atemp>
            <ns3:hr>158</ns3:hr>
          </ns3:TrackPointExtension>
        </extensions>
      </trkpt>
      <trkpt lat="43.03045484237372875213623046875" lon="13.8186551816761493682861328125">
        <ele>133.600006103515625</ele>
        <time>2020-05-09T12:30:46.000Z</time>
        <extensions>
          <ns3:TrackPointExtension>
            <ns3:atemp>29.0</ns3:atemp>
            <ns3:hr>161</ns3:hr>
          </ns3:TrackPointExtension>
        </extensions>
      </trkpt>
      <trkpt lat="43.0304363183677196502685546875" lon="13.8186317123472690582275390625">
        <ele>134</ele>
        <time>2020-05-09T12:30:47.000Z</time>
        <extensions>
          <ns3:TrackPointExtension>
            <ns3:atemp>29.0</ns3:atemp>
            <ns3:hr>160</ns3:hr>
          </ns3:TrackPointExtension>
        </extensions>
      </trkpt>
      <trkpt lat="43.03038259036839008331298828125" lon="13.818558789789676666259765625">
        <ele>134.8000030517578125</ele>
        <time>2020-05-09T12:30:52.000Z</time>
        <extensions>
          <ns3:TrackPointExtension>
            <ns3:atemp>29.0</ns3:atemp>
            <ns3:hr>159</ns3:hr>
          </ns3:TrackPointExtension>
        </extensions>
      </trkpt>
      <trkpt lat="43.03037672303617000579833984375" lon="13.81854529492557048797607421875">
        <ele>134.8000030517578125</ele>
        <time>2020-05-09T12:30:53.000Z</time>
        <extensions>
          <ns3:TrackPointExtension>
            <ns3:atemp>29.0</ns3:atemp>
            <ns3:hr>159</ns3:hr>
          </ns3:TrackPointExtension>
        </extensions>
      </trkpt>
      <trkpt lat="43.03031804971396923065185546875" lon="13.81844638846814632415771484375">
        <ele>135.8000030517578125</ele>
        <time>2020-05-09T12:31:00.000Z</time>
        <extensions>
          <ns3:TrackPointExtension>
            <ns3:atemp>29.0</ns3:atemp>
            <ns3:hr>159</ns3:hr>
          </ns3:TrackPointExtension>
        </extensions>
      </trkpt>
      <trkpt lat="43.03030547685921192169189453125" lon="13.81836072541773319244384765625">
        <ele>136.399993896484375</ele>
        <time>2020-05-09T12:31:03.000Z</time>
        <extensions>
          <ns3:TrackPointExtension>
            <ns3:atemp>29.0</ns3:atemp>
            <ns3:hr>156</ns3:hr>
          </ns3:TrackPointExtension>
        </extensions>
      </trkpt>
      <trkpt lat="43.03027689456939697265625" lon="13.8182934187352657318115234375">
        <ele>136.399993896484375</ele>
        <time>2020-05-09T12:31:06.000Z</time>
        <extensions>
          <ns3:TrackPointExtension>
            <ns3:atemp>29.0</ns3:atemp>
            <ns3:hr>157</ns3:hr>
          </ns3:TrackPointExtension>
        </extensions>
      </trkpt>
      <trkpt lat="43.03025267086923122406005859375" lon="13.8182186521589756011962890625">
        <ele>137</ele>
        <time>2020-05-09T12:31:10.000Z</time>
        <extensions>
          <ns3:TrackPointExtension>
            <ns3:atemp>29.0</ns3:atemp>
            <ns3:hr>154</ns3:hr>
          </ns3:TrackPointExtension>
        </extensions>
      </trkpt>
      <trkpt lat="43.030225932598114013671875" lon="13.81814413703978061676025390625">
        <ele>137.600006103515625</ele>
        <time>2020-05-09T12:31:13.000Z</time>
        <extensions>
          <ns3:TrackPointExtension>
            <ns3:atemp>29.0</ns3:atemp>
            <ns3:hr>153</ns3:hr>
          </ns3:TrackPointExtension>
        </extensions>
      </trkpt>
      <trkpt lat="43.03020841442048549652099609375" lon="13.8180956058204174041748046875">
        <ele>137.8000030517578125</ele>
        <time>2020-05-09T12:31:15.000Z</time>
        <extensions>
          <ns3:TrackPointExtension>
            <ns3:atemp>29.0</ns3:atemp>
            <ns3:hr>150</ns3:hr>
          </ns3:TrackPointExtension>
        </extensions>
      </trkpt>
      <trkpt lat="43.03018075414001941680908203125" lon="13.81801488809287548065185546875">
        <ele>138</ele>
        <time>2020-05-09T12:31:19.000Z</time>
        <extensions>
          <ns3:TrackPointExtension>
            <ns3:atemp>29.0</ns3:atemp>
            <ns3:hr>148</ns3:hr>
          </ns3:TrackPointExtension>
        </extensions>
      </trkpt>
      <trkpt lat="43.03012778051197528839111328125" lon="13.8179158978164196014404296875">
        <ele>139</ele>
        <time>2020-05-09T12:31:25.000Z</time>
        <extensions>
          <ns3:TrackPointExtension>
            <ns3:atemp>29.0</ns3:atemp>
            <ns3:hr>145</ns3:hr>
          </ns3:TrackPointExtension>
        </extensions>
      </trkpt>
      <trkpt lat="43.03011956624686717987060546875" lon="13.81790206767618656158447265625">
        <ele>139</ele>
        <time>2020-05-09T12:31:26.000Z</time>
        <extensions>
          <ns3:TrackPointExtension>
            <ns3:atemp>29.0</ns3:atemp>
            <ns3:hr>145</ns3:hr>
          </ns3:TrackPointExtension>
        </extensions>
      </trkpt>
      <trkpt lat="43.03011596202850341796875" lon="13.8178820349276065826416015625">
        <ele>139.1999969482421875</ele>
        <time>2020-05-09T12:31:27.000Z</time>
        <extensions>
          <ns3:TrackPointExtension>
            <ns3:atemp>29.0</ns3:atemp>
            <ns3:hr>145</ns3:hr>
          </ns3:TrackPointExtension>
        </extensions>
      </trkpt>
      <trkpt lat="43.0301043950021266937255859375" lon="13.81784540601074695587158203125">
        <ele>139.8000030517578125</ele>
        <time>2020-05-09T12:31:30.000Z</time>
        <extensions>
          <ns3:TrackPointExtension>
            <ns3:atemp>29.0</ns3:atemp>
            <ns3:hr>143</ns3:hr>
          </ns3:TrackPointExtension>
        </extensions>
      </trkpt>
      <trkpt lat="43.03009425289928913116455078125" lon="13.81782260723412036895751953125">
        <ele>140.1999969482421875</ele>
        <time>2020-05-09T12:31:31.000Z</time>
        <extensions>
          <ns3:TrackPointExtension>
            <ns3:atemp>28.0</ns3:atemp>
            <ns3:hr>143</ns3:hr>
          </ns3:TrackPointExtension>
        </extensions>
      </trkpt>
      <trkpt lat="43.0300876311957836151123046875" lon="13.81781824864447116851806640625">
        <ele>140.600006103515625</ele>
        <time>2020-05-09T12:31:32.000Z</time>
        <extensions>
          <ns3:TrackPointExtension>
            <ns3:atemp>28.0</ns3:atemp>
            <ns3:hr>144</ns3:hr>
          </ns3:TrackPointExtension>
        </extensions>
      </trkpt>
      <trkpt lat="43.0300608091056346893310546875" lon="13.81783199496567249298095703125">
        <ele>141.399993896484375</ele>
        <time>2020-05-09T12:31:35.000Z</time>
        <extensions>
          <ns3:TrackPointExtension>
            <ns3:atemp>28.0</ns3:atemp>
            <ns3:hr>143</ns3:hr>
          </ns3:TrackPointExtension>
        </extensions>
      </trkpt>
      <trkpt lat="43.0300587974488735198974609375" lon="13.81791179068386554718017578125">
        <ele>142.8000030517578125</ele>
        <time>2020-05-09T12:31:39.000Z</time>
        <extensions>
          <ns3:TrackPointExtension>
            <ns3:atemp>28.0</ns3:atemp>
            <ns3:hr>144</ns3:hr>
          </ns3:TrackPointExtension>
        </extensions>
      </trkpt>
      <trkpt lat="43.0300604738295078277587890625" lon="13.8179504312574863433837890625">
        <ele>143.1999969482421875</ele>
        <time>2020-05-09T12:31:41.000Z</time>
        <extensions>
          <ns3:TrackPointExtension>
            <ns3:atemp>28.0</ns3:atemp>
            <ns3:hr>145</ns3:hr>
          </ns3:TrackPointExtension>
        </extensions>
      </trkpt>
      <trkpt lat="43.03008377552032470703125" lon="13.8180034048855304718017578125">
        <ele>144</ele>
        <time>2020-05-09T12:31:44.000Z</time>
        <extensions>
          <ns3:TrackPointExtension>
            <ns3:atemp>28.0</ns3:atemp>
            <ns3:hr>147</ns3:hr>
          </ns3:TrackPointExtension>
        </extensions>
      </trkpt>
      <trkpt lat="43.0301275290548801422119140625" lon="13.818078339099884033203125">
        <ele>144.600006103515625</ele>
        <time>2020-05-09T12:31:48.000Z</time>
        <extensions>
          <ns3:TrackPointExtension>
            <ns3:atemp>28.0</ns3:atemp>
            <ns3:hr>148</ns3:hr>
          </ns3:TrackPointExtension>
        </extensions>
      </trkpt>
      <trkpt lat="43.03015661425888538360595703125" lon="13.81822250783443450927734375">
        <ele>145</ele>
        <time>2020-05-09T12:31:54.000Z</time>
        <extensions>
          <ns3:TrackPointExtension>
            <ns3:atemp>28.0</ns3:atemp>
            <ns3:hr>149</ns3:hr>
          </ns3:TrackPointExtension>
        </extensions>
      </trkpt>
      <trkpt lat="43.03016097284853458404541015625" lon="13.81824371404945850372314453125">
        <ele>145.1999969482421875</ele>
        <time>2020-05-09T12:31:55.000Z</time>
        <extensions>
          <ns3:TrackPointExtension>
            <ns3:atemp>28.0</ns3:atemp>
            <ns3:hr>149</ns3:hr>
          </ns3:TrackPointExtension>
        </extensions>
      </trkpt>
      <trkpt lat="43.03017966449260711669921875" lon="13.81834513507783412933349609375">
        <ele>145.600006103515625</ele>
        <time>2020-05-09T12:32:00.000Z</time>
        <extensions>
          <ns3:TrackPointExtension>
            <ns3:atemp>28.0</ns3:atemp>
            <ns3:hr>149</ns3:hr>
          </ns3:TrackPointExtension>
        </extensions>
      </trkpt>
      <trkpt lat="43.03021294064819812774658203125" lon="13.8183859549462795257568359375">
        <ele>146.1999969482421875</ele>
        <time>2020-05-09T12:32:03.000Z</time>
        <extensions>
          <ns3:TrackPointExtension>
            <ns3:atemp>28.0</ns3:atemp>
            <ns3:hr>150</ns3:hr>
          </ns3:TrackPointExtension>
        </extensions>
      </trkpt>
      <trkpt lat="43.030230961740016937255859375" lon="13.8184493221342563629150390625">
        <ele>146.600006103515625</ele>
        <time>2020-05-09T12:32:06.000Z</time>
        <extensions>
          <ns3:TrackPointExtension>
            <ns3:atemp>28.0</ns3:atemp>
            <ns3:hr>150</ns3:hr>
          </ns3:TrackPointExtension>
        </extensions>
      </trkpt>
      <trkpt lat="43.03023607470095157623291015625" lon="13.8186404295265674591064453125">
        <ele>147.600006103515625</ele>
        <time>2020-05-09T12:32:13.000Z</time>
        <extensions>
          <ns3:TrackPointExtension>
            <ns3:atemp>28.0</ns3:atemp>
            <ns3:hr>149</ns3:hr>
          </ns3:TrackPointExtension>
        </extensions>
      </trkpt>
      <trkpt lat="43.0302556045353412628173828125" lon="13.81872902624309062957763671875">
        <ele>148.600006103515625</ele>
        <time>2020-05-09T12:32:16.000Z</time>
        <extensions>
          <ns3:TrackPointExtension>
            <ns3:atemp>28.0</ns3:atemp>
            <ns3:hr>148</ns3:hr>
          </ns3:TrackPointExtension>
        </extensions>
      </trkpt>
      <trkpt lat="43.030279912054538726806640625" lon="13.81880228407680988311767578125">
        <ele>149.1999969482421875</ele>
        <time>2020-05-09T12:32:19.000Z</time>
        <extensions>
          <ns3:TrackPointExtension>
            <ns3:atemp>28.0</ns3:atemp>
            <ns3:hr>147</ns3:hr>
          </ns3:TrackPointExtension>
        </extensions>
      </trkpt>
      <trkpt lat="43.0303035490214824676513671875" lon="13.81886833347380161285400390625">
        <ele>149.600006103515625</ele>
        <time>2020-05-09T12:32:22.000Z</time>
        <extensions>
          <ns3:TrackPointExtension>
            <ns3:atemp>28.0</ns3:atemp>
            <ns3:hr>147</ns3:hr>
          </ns3:TrackPointExtension>
        </extensions>
      </trkpt>
      <trkpt lat="43.03033431060612201690673828125" lon="13.8189237378537654876708984375">
        <ele>150.399993896484375</ele>
        <time>2020-05-09T12:32:25.000Z</time>
        <extensions>
          <ns3:TrackPointExtension>
            <ns3:atemp>28.0</ns3:atemp>
            <ns3:hr>147</ns3:hr>
          </ns3:TrackPointExtension>
        </extensions>
      </trkpt>
      <trkpt lat="43.03034051321446895599365234375" lon="13.818942345678806304931640625">
        <ele>150.8000030517578125</ele>
        <time>2020-05-09T12:32:26.000Z</time>
        <extensions>
          <ns3:TrackPointExtension>
            <ns3:atemp>28.0</ns3:atemp>
            <ns3:hr>147</ns3:hr>
          </ns3:TrackPointExtension>
        </extensions>
      </trkpt>
      <trkpt lat="43.03040765225887298583984375" lon="13.819037564098834991455078125">
        <ele>151.1999969482421875</ele>
        <time>2020-05-09T12:32:32.000Z</time>
        <extensions>
          <ns3:TrackPointExtension>
            <ns3:atemp>28.0</ns3:atemp>
            <ns3:hr>148</ns3:hr>
          </ns3:TrackPointExtension>
        </extensions>
      </trkpt>
      <trkpt lat="43.03043941967189311981201171875" lon="13.81922833621501922607421875">
        <ele>151.600006103515625</ele>
        <time>2020-05-09T12:32:39.000Z</time>
        <extensions>
          <ns3:TrackPointExtension>
            <ns3:atemp>28.0</ns3:atemp>
            <ns3:hr>149</ns3:hr>
          </ns3:TrackPointExtension>
        </extensions>
      </trkpt>
      <trkpt lat="43.0304633080959320068359375" lon="13.81934995763003826141357421875">
        <ele>152</ele>
        <time>2020-05-09T12:32:43.000Z</time>
        <extensions>
          <ns3:TrackPointExtension>
            <ns3:atemp>28.0</ns3:atemp>
            <ns3:hr>148</ns3:hr>
          </ns3:TrackPointExtension>
        </extensions>
      </trkpt>
      <trkpt lat="43.03049021400511264801025390625" lon="13.81946680136024951934814453125">
        <ele>152.600006103515625</ele>
        <time>2020-05-09T12:32:47.000Z</time>
        <extensions>
          <ns3:TrackPointExtension>
            <ns3:atemp>28.0</ns3:atemp>
            <ns3:hr>147</ns3:hr>
          </ns3:TrackPointExtension>
        </extensions>
      </trkpt>
      <trkpt lat="43.0305174551904201507568359375" lon="13.8195924460887908935546875">
        <ele>153</ele>
        <time>2020-05-09T12:32:52.000Z</time>
        <extensions>
          <ns3:TrackPointExtension>
            <ns3:atemp>28.0</ns3:atemp>
            <ns3:hr>145</ns3:hr>
          </ns3:TrackPointExtension>
        </extensions>
      </trkpt>
      <trkpt lat="43.03054050542414188385009765625" lon="13.819655478000640869140625">
        <ele>153.399993896484375</ele>
        <time>2020-05-09T12:32:55.000Z</time>
        <extensions>
          <ns3:TrackPointExtension>
            <ns3:atemp>28.0</ns3:atemp>
            <ns3:hr>143</ns3:hr>
          </ns3:TrackPointExtension>
        </extensions>
      </trkpt>
      <trkpt lat="43.03057252429425716400146484375" lon="13.81973418407142162322998046875">
        <ele>153.8000030517578125</ele>
        <time>2020-05-09T12:32:59.000Z</time>
        <extensions>
          <ns3:TrackPointExtension>
            <ns3:atemp>28.0</ns3:atemp>
            <ns3:hr>140</ns3:hr>
          </ns3:TrackPointExtension>
        </extensions>
      </trkpt>
      <trkpt lat="43.03059582598507404327392578125" lon="13.81981029175221920013427734375">
        <ele>154</ele>
        <time>2020-05-09T12:33:02.000Z</time>
        <extensions>
          <ns3:TrackPointExtension>
            <ns3:atemp>28.0</ns3:atemp>
            <ns3:hr>140</ns3:hr>
          </ns3:TrackPointExtension>
        </extensions>
      </trkpt>
      <trkpt lat="43.03060504607856273651123046875" lon="13.81983610801398754119873046875">
        <ele>154.1999969482421875</ele>
        <time>2020-05-09T12:33:03.000Z</time>
        <extensions>
          <ns3:TrackPointExtension>
            <ns3:atemp>28.0</ns3:atemp>
            <ns3:hr>141</ns3:hr>
          </ns3:TrackPointExtension>
        </extensions>
      </trkpt>
      <trkpt lat="43.03062893450260162353515625" lon="13.8199969567358493804931640625">
        <ele>155.1999969482421875</ele>
        <time>2020-05-09T12:33:09.000Z</time>
        <extensions>
          <ns3:TrackPointExtension>
            <ns3:atemp>28.0</ns3:atemp>
            <ns3:hr>140</ns3:hr>
          </ns3:TrackPointExtension>
        </extensions>
      </trkpt>
      <trkpt lat="43.03063773550093173980712890625" lon="13.82006728090345859527587890625">
        <ele>156</ele>
        <time>2020-05-09T12:33:12.000Z</time>
        <extensions>
          <ns3:TrackPointExtension>
            <ns3:atemp>28.0</ns3:atemp>
            <ns3:hr>137</ns3:hr>
          </ns3:TrackPointExtension>
        </extensions>
      </trkpt>
      <trkpt lat="43.03064041770994663238525390625" lon="13.820109777152538299560546875">
        <ele>156.399993896484375</ele>
        <time>2020-05-09T12:33:14.000Z</time>
        <extensions>
          <ns3:TrackPointExtension>
            <ns3:atemp>28.0</ns3:atemp>
            <ns3:hr>137</ns3:hr>
          </ns3:TrackPointExtension>
        </extensions>
      </trkpt>
      <trkpt lat="43.03064729087054729461669921875" lon="13.82016635499894618988037109375">
        <ele>156.600006103515625</ele>
        <time>2020-05-09T12:33:16.000Z</time>
        <extensions>
          <ns3:TrackPointExtension>
            <ns3:atemp>28.0</ns3:atemp>
            <ns3:hr>137</ns3:hr>
          </ns3:TrackPointExtension>
        </extensions>
      </trkpt>
      <trkpt lat="43.03066380321979522705078125" lon="13.8203969411551952362060546875">
        <ele>157.600006103515625</ele>
        <time>2020-05-09T12:33:24.000Z</time>
        <extensions>
          <ns3:TrackPointExtension>
            <ns3:atemp>28.0</ns3:atemp>
            <ns3:hr>138</ns3:hr>
          </ns3:TrackPointExtension>
        </extensions>
      </trkpt>
      <trkpt lat="43.0306686647236347198486328125" lon="13.82048604078590869903564453125">
        <ele>158.600006103515625</ele>
        <time>2020-05-09T12:33:28.000Z</time>
        <extensions>
          <ns3:TrackPointExtension>
            <ns3:atemp>28.0</ns3:atemp>
            <ns3:hr>138</ns3:hr>
          </ns3:TrackPointExtension>
        </extensions>
      </trkpt>
      <trkpt lat="43.03063404746353626251220703125" lon="13.82056851871311664581298828125">
        <ele>159.399993896484375</ele>
        <time>2020-05-09T12:33:32.000Z</time>
        <extensions>
          <ns3:TrackPointExtension>
            <ns3:atemp>28.0</ns3:atemp>
            <ns3:hr>138</ns3:hr>
          </ns3:TrackPointExtension>
        </extensions>
      </trkpt>
      <trkpt lat="43.030617199838161468505859375" lon="13.82058276794850826263427734375">
        <ele>159.8000030517578125</ele>
        <time>2020-05-09T12:33:33.000Z</time>
        <extensions>
          <ns3:TrackPointExtension>
            <ns3:atemp>28.0</ns3:atemp>
            <ns3:hr>139</ns3:hr>
          </ns3:TrackPointExtension>
        </extensions>
      </trkpt>
      <trkpt lat="43.03059532307088375091552734375" lon="13.820593245327472686767578125">
        <ele>160</ele>
        <time>2020-05-09T12:33:34.000Z</time>
        <extensions>
          <ns3:TrackPointExtension>
            <ns3:atemp>28.0</ns3:atemp>
            <ns3:hr>140</ns3:hr>
          </ns3:TrackPointExtension>
        </extensions>
      </trkpt>
      <trkpt lat="43.030550479888916015625" lon="13.82059433497488498687744140625">
        <ele>160.600006103515625</ele>
        <time>2020-05-09T12:33:36.000Z</time>
        <extensions>
          <ns3:TrackPointExtension>
            <ns3:atemp>28.0</ns3:atemp>
            <ns3:hr>143</ns3:hr>
          </ns3:TrackPointExtension>
        </extensions>
      </trkpt>
      <trkpt lat="43.03051183931529521942138671875" lon="13.8205635733902454376220703125">
        <ele>161</ele>
        <time>2020-05-09T12:33:38.000Z</time>
        <extensions>
          <ns3:TrackPointExtension>
            <ns3:atemp>28.0</ns3:atemp>
            <ns3:hr>146</ns3:hr>
          </ns3:TrackPointExtension>
        </extensions>
      </trkpt>
      <trkpt lat="43.03046238608658313751220703125" lon="13.820491321384906768798828125">
        <ele>161.1999969482421875</ele>
        <time>2020-05-09T12:33:41.000Z</time>
        <extensions>
          <ns3:TrackPointExtension>
            <ns3:atemp>28.0</ns3:atemp>
            <ns3:hr>148</ns3:hr>
          </ns3:TrackPointExtension>
        </extensions>
      </trkpt>
      <trkpt lat="43.03039021790027618408203125" lon="13.82034421898424625396728515625">
        <ele>162</ele>
        <time>2020-05-09T12:33:47.000Z</time>
        <extensions>
          <ns3:TrackPointExtension>
            <ns3:atemp>28.0</ns3:atemp>
            <ns3:hr>147</ns3:hr>
          </ns3:TrackPointExtension>
        </extensions>
      </trkpt>
      <trkpt lat="43.0303806625306606292724609375" lon="13.82032359950244426727294921875">
        <ele>162.1999969482421875</ele>
        <time>2020-05-09T12:33:48.000Z</time>
        <extensions>
          <ns3:TrackPointExtension>
            <ns3:atemp>28.0</ns3:atemp>
            <ns3:hr>147</ns3:hr>
          </ns3:TrackPointExtension>
        </extensions>
      </trkpt>
      <trkpt lat="43.0303226597607135772705078125" lon="13.8202199153602123260498046875">
        <ele>163</ele>
        <time>2020-05-09T12:33:53.000Z</time>
        <extensions>
          <ns3:TrackPointExtension>
            <ns3:atemp>28.0</ns3:atemp>
            <ns3:hr>149</ns3:hr>
          </ns3:TrackPointExtension>
        </extensions>
      </trkpt>
      <trkpt lat="43.03026993758976459503173828125" lon="13.8201186619699001312255859375">
        <ele>164</ele>
        <time>2020-05-09T12:33:58.000Z</time>
        <extensions>
          <ns3:TrackPointExtension>
            <ns3:atemp>28.0</ns3:atemp>
            <ns3:hr>149</ns3:hr>
          </ns3:TrackPointExtension>
        </extensions>
      </trkpt>
      <trkpt lat="43.0302616395056247711181640625" lon="13.8201015628874301910400390625">
        <ele>164.1999969482421875</ele>
        <time>2020-05-09T12:33:59.000Z</time>
        <extensions>
          <ns3:TrackPointExtension>
            <ns3:atemp>29.0</ns3:atemp>
            <ns3:hr>148</ns3:hr>
          </ns3:TrackPointExtension>
        </extensions>
      </trkpt>
      <trkpt lat="43.03019248880445957183837890625" lon="13.81998916156589984893798828125">
        <ele>164.8000030517578125</ele>
        <time>2020-05-09T12:34:05.000Z</time>
        <extensions>
          <ns3:TrackPointExtension>
            <ns3:atemp>29.0</ns3:atemp>
            <ns3:hr>148</ns3:hr>
          </ns3:TrackPointExtension>
        </extensions>
      </trkpt>
      <trkpt lat="43.03014789707958698272705078125" lon="13.819863684475421905517578125">
        <ele>165.399993896484375</ele>
        <time>2020-05-09T12:34:10.000Z</time>
        <extensions>
          <ns3:TrackPointExtension>
            <ns3:atemp>29.0</ns3:atemp>
            <ns3:hr>149</ns3:hr>
          </ns3:TrackPointExtension>
        </extensions>
      </trkpt>
      <trkpt lat="43.0301352404057979583740234375" lon="13.8198075257241725921630859375">
        <ele>166</ele>
        <time>2020-05-09T12:34:13.000Z</time>
        <extensions>
          <ns3:TrackPointExtension>
            <ns3:atemp>29.0</ns3:atemp>
            <ns3:hr>148</ns3:hr>
          </ns3:TrackPointExtension>
        </extensions>
      </trkpt>
      <trkpt lat="43.03012744523584842681884765625" lon="13.819772489368915557861328125">
        <ele>166.600006103515625</ele>
        <time>2020-05-09T12:34:15.000Z</time>
        <extensions>
          <ns3:TrackPointExtension>
            <ns3:atemp>29.0</ns3:atemp>
            <ns3:hr>149</ns3:hr>
          </ns3:TrackPointExtension>
        </extensions>
      </trkpt>
      <trkpt lat="43.03011638112366199493408203125" lon="13.81972697563469409942626953125">
        <ele>167.399993896484375</ele>
        <time>2020-05-09T12:34:17.000Z</time>
        <extensions>
          <ns3:TrackPointExtension>
            <ns3:atemp>29.0</ns3:atemp>
            <ns3:hr>152</ns3:hr>
          </ns3:TrackPointExtension>
        </extensions>
      </trkpt>
      <trkpt lat="43.0301105976104736328125" lon="13.819706775248050689697265625">
        <ele>167.8000030517578125</ele>
        <time>2020-05-09T12:34:18.000Z</time>
        <extensions>
          <ns3:TrackPointExtension>
            <ns3:atemp>29.0</ns3:atemp>
            <ns3:hr>152</ns3:hr>
          </ns3:TrackPointExtension>
        </extensions>
      </trkpt>
      <trkpt lat="43.030097521841526031494140625" lon="13.8196640275418758392333984375">
        <ele>168.399993896484375</ele>
        <time>2020-05-09T12:34:20.000Z</time>
        <extensions>
          <ns3:TrackPointExtension>
            <ns3:atemp>29.0</ns3:atemp>
            <ns3:hr>152</ns3:hr>
          </ns3:TrackPointExtension>
        </extensions>
      </trkpt>
      <trkpt lat="43.03008888848125934600830078125" lon="13.8196204416453838348388671875">
        <ele>168.8000030517578125</ele>
        <time>2020-05-09T12:34:22.000Z</time>
        <extensions>
          <ns3:TrackPointExtension>
            <ns3:atemp>29.0</ns3:atemp>
            <ns3:hr>152</ns3:hr>
          </ns3:TrackPointExtension>
        </extensions>
      </trkpt>
      <trkpt lat="43.03007371723651885986328125" lon="13.81954944692552089691162109375">
        <ele>170</ele>
        <time>2020-05-09T12:34:25.000Z</time>
        <extensions>
          <ns3:TrackPointExtension>
            <ns3:atemp>29.0</ns3:atemp>
            <ns3:hr>152</ns3:hr>
          </ns3:TrackPointExtension>
        </extensions>
      </trkpt>
      <trkpt lat="43.030056618154048919677734375" lon="13.81950653158128261566162109375">
        <ele>170.600006103515625</ele>
        <time>2020-05-09T12:34:27.000Z</time>
        <extensions>
          <ns3:TrackPointExtension>
            <ns3:atemp>29.0</ns3:atemp>
            <ns3:hr>152</ns3:hr>
          </ns3:TrackPointExtension>
        </extensions>
      </trkpt>
      <trkpt lat="43.03001697175204753875732421875" lon="13.81943754851818084716796875">
        <ele>171</ele>
        <time>2020-05-09T12:34:30.000Z</time>
        <extensions>
          <ns3:TrackPointExtension>
            <ns3:atemp>29.0</ns3:atemp>
            <ns3:hr>149</ns3:hr>
          </ns3:TrackPointExtension>
        </extensions>
      </trkpt>
      <trkpt lat="43.0299940891563892364501953125" lon="13.81938926875591278076171875">
        <ele>171.1999969482421875</ele>
        <time>2020-05-09T12:34:32.000Z</time>
        <extensions>
          <ns3:TrackPointExtension>
            <ns3:atemp>29.0</ns3:atemp>
            <ns3:hr>150</ns3:hr>
          </ns3:TrackPointExtension>
        </extensions>
      </trkpt>
      <trkpt lat="43.02995058707892894744873046875" lon="13.81933202035725116729736328125">
        <ele>171.8000030517578125</ele>
        <time>2020-05-09T12:34:35.000Z</time>
        <extensions>
          <ns3:TrackPointExtension>
            <ns3:atemp>29.0</ns3:atemp>
            <ns3:hr>154</ns3:hr>
          </ns3:TrackPointExtension>
        </extensions>
      </trkpt>
      <trkpt lat="43.0299206636846065521240234375" lon="13.81929648108780384063720703125">
        <ele>172</ele>
        <time>2020-05-09T12:34:37.000Z</time>
        <extensions>
          <ns3:TrackPointExtension>
            <ns3:atemp>29.0</ns3:atemp>
            <ns3:hr>155</ns3:hr>
          </ns3:TrackPointExtension>
        </extensions>
      </trkpt>
      <trkpt lat="43.02988462150096893310546875" lon="13.81925088353455066680908203125">
        <ele>172.399993896484375</ele>
        <time>2020-05-09T12:34:39.000Z</time>
        <extensions>
          <ns3:TrackPointExtension>
            <ns3:atemp>29.0</ns3:atemp>
            <ns3:hr>155</ns3:hr>
          </ns3:TrackPointExtension>
        </extensions>
      </trkpt>
      <trkpt lat="43.02983726374804973602294921875" lon="13.8191651366651058197021484375">
        <ele>173</ele>
        <time>2020-05-09T12:34:43.000Z</time>
        <extensions>
          <ns3:TrackPointExtension>
            <ns3:atemp>29.0</ns3:atemp>
            <ns3:hr>153</ns3:hr>
          </ns3:TrackPointExtension>
        </extensions>
      </trkpt>
      <trkpt lat="43.0298217572271823883056640625" lon="13.81914921104907989501953125">
        <ele>173.399993896484375</ele>
        <time>2020-05-09T12:34:44.000Z</time>
        <extensions>
          <ns3:TrackPointExtension>
            <ns3:atemp>29.0</ns3:atemp>
            <ns3:hr>151</ns3:hr>
          </ns3:TrackPointExtension>
        </extensions>
      </trkpt>
      <trkpt lat="43.02979988045990467071533203125" lon="13.81911727599799633026123046875">
        <ele>174.1999969482421875</ele>
        <time>2020-05-09T12:34:46.000Z</time>
        <extensions>
          <ns3:TrackPointExtension>
            <ns3:atemp>29.0</ns3:atemp>
            <ns3:hr>154</ns3:hr>
          </ns3:TrackPointExtension>
        </extensions>
      </trkpt>
      <trkpt lat="43.0297704599797725677490234375" lon="13.81906882859766483306884765625">
        <ele>175</ele>
        <time>2020-05-09T12:34:49.000Z</time>
        <extensions>
          <ns3:TrackPointExtension>
            <ns3:atemp>29.0</ns3:atemp>
            <ns3:hr>157</ns3:hr>
          </ns3:TrackPointExtension>
        </extensions>
      </trkpt>
      <trkpt lat="43.02976392209529876708984375" lon="13.81904720328748226165771484375">
        <ele>175.1999969482421875</ele>
        <time>2020-05-09T12:34:50.000Z</time>
        <extensions>
          <ns3:TrackPointExtension>
            <ns3:atemp>29.0</ns3:atemp>
            <ns3:hr>157</ns3:hr>
          </ns3:TrackPointExtension>
        </extensions>
      </trkpt>
      <trkpt lat="43.02971103228628635406494140625" lon="13.81894108839333057403564453125">
        <ele>176.399993896484375</ele>
        <time>2020-05-09T12:34:55.000Z</time>
        <extensions>
          <ns3:TrackPointExtension>
            <ns3:atemp>29.0</ns3:atemp>
            <ns3:hr>157</ns3:hr>
          </ns3:TrackPointExtension>
        </extensions>
      </trkpt>
      <trkpt lat="43.0297047458589076995849609375" lon="13.81891443394124507904052734375">
        <ele>176.600006103515625</ele>
        <time>2020-05-09T12:34:56.000Z</time>
        <extensions>
          <ns3:TrackPointExtension>
            <ns3:atemp>29.0</ns3:atemp>
            <ns3:hr>157</ns3:hr>
          </ns3:TrackPointExtension>
        </extensions>
      </trkpt>
      <trkpt lat="43.02968613803386688232421875" lon="13.818870596587657928466796875">
        <ele>177.399993896484375</ele>
        <time>2020-05-09T12:34:58.000Z</time>
        <extensions>
          <ns3:TrackPointExtension>
            <ns3:atemp>29.0</ns3:atemp>
            <ns3:hr>157</ns3:hr>
          </ns3:TrackPointExtension>
        </extensions>
      </trkpt>
      <trkpt lat="43.029652945697307586669921875" lon="13.8187644816935062408447265625">
        <ele>178.399993896484375</ele>
        <time>2020-05-09T12:35:03.000Z</time>
        <extensions>
          <ns3:TrackPointExtension>
            <ns3:atemp>29.0</ns3:atemp>
            <ns3:hr>158</ns3:hr>
          </ns3:TrackPointExtension>
        </extensions>
      </trkpt>
      <trkpt lat="43.0296450667083263397216796875" lon="13.8187483884394168853759765625">
        <ele>178.8000030517578125</ele>
        <time>2020-05-09T12:35:04.000Z</time>
        <extensions>
          <ns3:TrackPointExtension>
            <ns3:atemp>29.0</ns3:atemp>
            <ns3:hr>158</ns3:hr>
          </ns3:TrackPointExtension>
        </extensions>
      </trkpt>
      <trkpt lat="43.02962972782552242279052734375" lon="13.81873992271721363067626953125">
        <ele>179.600006103515625</ele>
        <time>2020-05-09T12:35:06.000Z</time>
        <extensions>
          <ns3:TrackPointExtension>
            <ns3:atemp>29.0</ns3:atemp>
            <ns3:hr>157</ns3:hr>
          </ns3:TrackPointExtension>
        </extensions>
      </trkpt>
      <trkpt lat="43.0296246148645877838134765625" lon="13.81874595768749713897705078125">
        <ele>180</ele>
        <time>2020-05-09T12:35:07.000Z</time>
        <extensions>
          <ns3:TrackPointExtension>
            <ns3:atemp>29.0</ns3:atemp>
            <ns3:hr>158</ns3:hr>
          </ns3:TrackPointExtension>
        </extensions>
      </trkpt>
      <trkpt lat="43.02965437062084674835205078125" lon="13.818828351795673370361328125">
        <ele>180.600006103515625</ele>
        <time>2020-05-09T12:35:12.000Z</time>
        <extensions>
          <ns3:TrackPointExtension>
            <ns3:atemp>29.0</ns3:atemp>
            <ns3:hr>158</ns3:hr>
          </ns3:TrackPointExtension>
        </extensions>
      </trkpt>
      <trkpt lat="43.029660321772098541259765625" lon="13.8188493065536022186279296875">
        <ele>180.8000030517578125</ele>
        <time>2020-05-09T12:35:13.000Z</time>
        <extensions>
          <ns3:TrackPointExtension>
            <ns3:atemp>29.0</ns3:atemp>
            <ns3:hr>158</ns3:hr>
          </ns3:TrackPointExtension>
        </extensions>
      </trkpt>
      <trkpt lat="43.02966736257076263427734375" lon="13.8188670761883258819580078125">
        <ele>181</ele>
        <time>2020-05-09T12:35:14.000Z</time>
        <extensions>
          <ns3:TrackPointExtension>
            <ns3:atemp>29.0</ns3:atemp>
            <ns3:hr>159</ns3:hr>
          </ns3:TrackPointExtension>
        </extensions>
      </trkpt>
      <trkpt lat="43.0296970345079898834228515625" lon="13.818935640156269073486328125">
        <ele>181.8000030517578125</ele>
        <time>2020-05-09T12:35:17.000Z</time>
        <extensions>
          <ns3:TrackPointExtension>
            <ns3:atemp>29.0</ns3:atemp>
            <ns3:hr>160</ns3:hr>
          </ns3:TrackPointExtension>
        </extensions>
      </trkpt>
      <trkpt lat="43.0297151394188404083251953125" lon="13.8189860992133617401123046875">
        <ele>182</ele>
        <time>2020-05-09T12:35:19.000Z</time>
        <extensions>
          <ns3:TrackPointExtension>
            <ns3:atemp>29.0</ns3:atemp>
            <ns3:hr>161</ns3:hr>
          </ns3:TrackPointExtension>
        </extensions>
      </trkpt>
      <trkpt lat="43.02977490238845348358154296875" lon="13.81918273866176605224609375">
        <ele>182.600006103515625</ele>
        <time>2020-05-09T12:35:26.000Z</time>
        <extensions>
          <ns3:TrackPointExtension>
            <ns3:atemp>29.0</ns3:atemp>
            <ns3:hr>160</ns3:hr>
          </ns3:TrackPointExtension>
        </extensions>
      </trkpt>
      <trkpt lat="43.02979342639446258544921875" lon="13.81925515830516815185546875">
        <ele>182.8000030517578125</ele>
        <time>2020-05-09T12:35:29.000Z</time>
        <extensions>
          <ns3:TrackPointExtension>
            <ns3:atemp>29.0</ns3:atemp>
            <ns3:hr>160</ns3:hr>
          </ns3:TrackPointExtension>
        </extensions>
      </trkpt>
      <trkpt lat="43.02981412969529628753662109375" lon="13.81930653937160968780517578125">
        <ele>182.8000030517578125</ele>
        <time>2020-05-09T12:35:31.000Z</time>
        <extensions>
          <ns3:TrackPointExtension>
            <ns3:atemp>29.0</ns3:atemp>
            <ns3:hr>160</ns3:hr>
          </ns3:TrackPointExtension>
        </extensions>
      </trkpt>
      <trkpt lat="43.0298195779323577880859375" lon="13.81933788768947124481201171875">
        <ele>182.8000030517578125</ele>
        <time>2020-05-09T12:35:32.000Z</time>
        <extensions>
          <ns3:TrackPointExtension>
            <ns3:atemp>29.0</ns3:atemp>
            <ns3:hr>160</ns3:hr>
          </ns3:TrackPointExtension>
        </extensions>
      </trkpt>
      <trkpt lat="43.0298274569213390350341796875" lon="13.8194199465215206146240234375">
        <ele>183.8000030517578125</ele>
        <time>2020-05-09T12:35:35.000Z</time>
        <extensions>
          <ns3:TrackPointExtension>
            <ns3:atemp>29.0</ns3:atemp>
            <ns3:hr>159</ns3:hr>
          </ns3:TrackPointExtension>
        </extensions>
      </trkpt>
      <trkpt lat="43.02983223460614681243896484375" lon="13.81946797482669353485107421875">
        <ele>184.8000030517578125</ele>
        <time>2020-05-09T12:35:37.000Z</time>
        <extensions>
          <ns3:TrackPointExtension>
            <ns3:atemp>29.0</ns3:atemp>
            <ns3:hr>159</ns3:hr>
          </ns3:TrackPointExtension>
        </extensions>
      </trkpt>
      <trkpt lat="43.02983156405389308929443359375" lon="13.819493539631366729736328125">
        <ele>185.399993896484375</ele>
        <time>2020-05-09T12:35:38.000Z</time>
        <extensions>
          <ns3:TrackPointExtension>
            <ns3:atemp>29.0</ns3:atemp>
            <ns3:hr>158</ns3:hr>
          </ns3:TrackPointExtension>
        </extensions>
      </trkpt>
      <trkpt lat="43.02982619963586330413818359375" lon="13.81957962177693843841552734375">
        <ele>186</ele>
        <time>2020-05-09T12:35:41.000Z</time>
        <extensions>
          <ns3:TrackPointExtension>
            <ns3:atemp>29.0</ns3:atemp>
            <ns3:hr>158</ns3:hr>
          </ns3:TrackPointExtension>
        </extensions>
      </trkpt>
      <trkpt lat="43.02979636006057262420654296875" lon="13.81966243498027324676513671875">
        <ele>187.1999969482421875</ele>
        <time>2020-05-09T12:35:44.000Z</time>
        <extensions>
          <ns3:TrackPointExtension>
            <ns3:atemp>29.0</ns3:atemp>
            <ns3:hr>158</ns3:hr>
          </ns3:TrackPointExtension>
        </extensions>
      </trkpt>
      <trkpt lat="43.0296816118061542510986328125" lon="13.81971574388444423675537109375">
        <ele>187.8000030517578125</ele>
        <time>2020-05-09T12:35:50.000Z</time>
        <extensions>
          <ns3:TrackPointExtension>
            <ns3:atemp>29.0</ns3:atemp>
            <ns3:hr>158</ns3:hr>
          </ns3:TrackPointExtension>
        </extensions>
      </trkpt>
      <trkpt lat="43.02955211140215396881103515625" lon="13.8196957111358642578125">
        <ele>188.1999969482421875</ele>
        <time>2020-05-09T12:35:56.000Z</time>
        <extensions>
          <ns3:TrackPointExtension>
            <ns3:atemp>29.0</ns3:atemp>
            <ns3:hr>159</ns3:hr>
          </ns3:TrackPointExtension>
        </extensions>
      </trkpt>
      <trkpt lat="43.02954255603253841400146484375" lon="13.81968556903302669525146484375">
        <ele>188.399993896484375</ele>
        <time>2020-05-09T12:35:57.000Z</time>
        <extensions>
          <ns3:TrackPointExtension>
            <ns3:atemp>29.0</ns3:atemp>
            <ns3:hr>158</ns3:hr>
          </ns3:TrackPointExtension>
        </extensions>
      </trkpt>
      <trkpt lat="43.02954020909965038299560546875" lon="13.81967064924538135528564453125">
        <ele>189</ele>
        <time>2020-05-09T12:36:04.000Z</time>
        <extensions>
          <ns3:TrackPointExtension>
            <ns3:atemp>29.0</ns3:atemp>
            <ns3:hr>156</ns3:hr>
          </ns3:TrackPointExtension>
        </extensions>
      </trkpt>
      <trkpt lat="43.02953568287193775177001953125" lon="13.81971389986574649810791015625">
        <ele>188.8000030517578125</ele>
        <time>2020-05-09T12:36:07.000Z</time>
        <extensions>
          <ns3:TrackPointExtension>
            <ns3:atemp>29.0</ns3:atemp>
            <ns3:hr>156</ns3:hr>
          </ns3:TrackPointExtension>
        </extensions>
      </trkpt>
      <trkpt lat="43.0295609124004840850830078125" lon="13.81973099894821643829345703125">
        <ele>188.600006103515625</ele>
        <time>2020-05-09T12:36:09.000Z</time>
        <extensions>
          <ns3:TrackPointExtension>
            <ns3:atemp>29.0</ns3:atemp>
            <ns3:hr>157</ns3:hr>
          </ns3:TrackPointExtension>
        </extensions>
      </trkpt>
      <trkpt lat="43.02959418855607509613037109375" lon="13.81974005140364170074462890625">
        <ele>188.600006103515625</ele>
        <time>2020-05-09T12:36:11.000Z</time>
        <extensions>
          <ns3:TrackPointExtension>
            <ns3:atemp>29.0</ns3:atemp>
            <ns3:hr>156</ns3:hr>
          </ns3:TrackPointExtension>
        </extensions>
      </trkpt>
      <trkpt lat="43.02961464039981365203857421875" lon="13.8197320885956287384033203125">
        <ele>188.399993896484375</ele>
        <time>2020-05-09T12:36:13.000Z</time>
        <extensions>
          <ns3:TrackPointExtension>
            <ns3:atemp>29.0</ns3:atemp>
            <ns3:hr>153</ns3:hr>
          </ns3:TrackPointExtension>
        </extensions>
      </trkpt>
      <trkpt lat="43.0296158976852893829345703125" lon="13.8197287358343601226806640625">
        <ele>188.399993896484375</ele>
        <time>2020-05-09T12:36:14.000Z</time>
        <extensions>
          <ns3:TrackPointExtension>
            <ns3:atemp>29.0</ns3:atemp>
            <ns3:hr>152</ns3:hr>
          </ns3:TrackPointExtension>
        </extensions>
      </trkpt>
      <trkpt lat="43.029609359800815582275390625" lon="13.81970417685806751251220703125">
        <ele>187.600006103515625</ele>
        <time>2020-05-09T12:36:23.000Z</time>
        <extensions>
          <ns3:TrackPointExtension>
            <ns3:atemp>29.0</ns3:atemp>
            <ns3:hr>151</ns3:hr>
          </ns3:TrackPointExtension>
        </extensions>
      </trkpt>
      <trkpt lat="43.0296145565807819366455078125" lon="13.8197029195725917816162109375">
        <ele>187.1999969482421875</ele>
        <time>2020-05-09T12:36:32.000Z</time>
        <extensions>
          <ns3:TrackPointExtension>
            <ns3:atemp>29.0</ns3:atemp>
            <ns3:hr>150</ns3:hr>
          </ns3:TrackPointExtension>
        </extensions>
      </trkpt>
      <trkpt lat="43.02961765788495540618896484375" lon="13.81970182992517948150634765625">
        <ele>187.1999969482421875</ele>
        <time>2020-05-09T12:36:34.000Z</time>
        <extensions>
          <ns3:TrackPointExtension>
            <ns3:atemp>29.0</ns3:atemp>
            <ns3:hr>147</ns3:hr>
          </ns3:TrackPointExtension>
        </extensions>
      </trkpt>
      <trkpt lat="43.0296170711517333984375" lon="13.81969495676457881927490234375">
        <ele>187.1999969482421875</ele>
        <time>2020-05-09T12:36:35.000Z</time>
        <extensions>
          <ns3:TrackPointExtension>
            <ns3:atemp>30.0</ns3:atemp>
            <ns3:hr>144</ns3:hr>
          </ns3:TrackPointExtension>
        </extensions>
      </trkpt>
      <trkpt lat="43.029616065323352813720703125" lon="13.81968975998461246490478515625">
        <ele>187.1999969482421875</ele>
        <time>2020-05-09T12:36:36.000Z</time>
        <extensions>
          <ns3:TrackPointExtension>
            <ns3:atemp>30.0</ns3:atemp>
            <ns3:hr>139</ns3:hr>
          </ns3:TrackPointExtension>
        </extensions>
      </trkpt>
      <trkpt lat="43.029615394771099090576171875" lon="13.819687999784946441650390625">
        <ele>187.399993896484375</ele>
        <time>2020-05-09T12:36:38.000Z</time>
        <extensions>
          <ns3:TrackPointExtension>
            <ns3:atemp>30.0</ns3:atemp>
            <ns3:hr>135</ns3:hr>
          </ns3:TrackPointExtension>
        </extensions>
      </trkpt>
      <trkpt lat="43.02961296401917934417724609375" lon="13.8196821324527263641357421875">
        <ele>187.399993896484375</ele>
        <time>2020-05-09T12:36:41.000Z</time>
        <extensions>
          <ns3:TrackPointExtension>
            <ns3:atemp>30.0</ns3:atemp>
            <ns3:hr>133</ns3:hr>
          </ns3:TrackPointExtension>
        </extensions>
      </trkpt>
      <trkpt lat="43.0296142213046550750732421875" lon="13.81968355737626552581787109375">
        <ele>187.399993896484375</ele>
        <time>2020-05-09T12:36:45.000Z</time>
        <extensions>
          <ns3:TrackPointExtension>
            <ns3:atemp>30.0</ns3:atemp>
            <ns3:hr>130</ns3:hr>
          </ns3:TrackPointExtension>
        </extensions>
      </trkpt>
      <trkpt lat="43.029614053666591644287109375" lon="13.81968674249947071075439453125">
        <ele>187.600006103515625</ele>
        <time>2020-05-09T12:36:46.000Z</time>
        <extensions>
          <ns3:TrackPointExtension>
            <ns3:atemp>30.0</ns3:atemp>
            <ns3:hr>130</ns3:hr>
          </ns3:TrackPointExtension>
        </extensions>
      </trkpt>
      <trkpt lat="43.02960759960114955902099609375" lon="13.819696716964244842529296875">
        <ele>187.600006103515625</ele>
        <time>2020-05-09T12:36:49.000Z</time>
        <extensions>
          <ns3:TrackPointExtension>
            <ns3:atemp>30.0</ns3:atemp>
            <ns3:hr>128</ns3:hr>
          </ns3:TrackPointExtension>
        </extensions>
      </trkpt>
      <trkpt lat="43.0295884050428867340087890625" lon="13.819683976471424102783203125">
        <ele>187.8000030517578125</ele>
        <time>2020-05-09T12:36:53.000Z</time>
        <extensions>
          <ns3:TrackPointExtension>
            <ns3:atemp>30.0</ns3:atemp>
            <ns3:hr>128</ns3:hr>
          </ns3:TrackPointExtension>
        </extensions>
      </trkpt>
      <trkpt lat="43.02955546416342258453369140625" lon="13.8196683861315250396728515625">
        <ele>187.8000030517578125</ele>
        <time>2020-05-09T12:36:55.000Z</time>
        <extensions>
          <ns3:TrackPointExtension>
            <ns3:atemp>30.0</ns3:atemp>
            <ns3:hr>128</ns3:hr>
          </ns3:TrackPointExtension>
        </extensions>
      </trkpt>
      <trkpt lat="43.02942386828362941741943359375" lon="13.81957291625440120697021484375">
        <ele>188.1999969482421875</ele>
        <time>2020-05-09T12:37:01.000Z</time>
        <extensions>
          <ns3:TrackPointExtension>
            <ns3:atemp>31.0</ns3:atemp>
            <ns3:hr>130</ns3:hr>
          </ns3:TrackPointExtension>
        </extensions>
      </trkpt>
      <trkpt lat="43.029404841363430023193359375" lon="13.81955020129680633544921875">
        <ele>188.399993896484375</ele>
        <time>2020-05-09T12:37:02.000Z</time>
        <extensions>
          <ns3:TrackPointExtension>
            <ns3:atemp>31.0</ns3:atemp>
            <ns3:hr>129</ns3:hr>
          </ns3:TrackPointExtension>
        </extensions>
      </trkpt>
      <trkpt lat="43.02938899956643581390380859375" lon="13.81953033618628978729248046875">
        <ele>188.600006103515625</ele>
        <time>2020-05-09T12:37:03.000Z</time>
        <extensions>
          <ns3:TrackPointExtension>
            <ns3:atemp>31.0</ns3:atemp>
            <ns3:hr>132</ns3:hr>
          </ns3:TrackPointExtension>
        </extensions>
      </trkpt>
      <trkpt lat="43.02933451719582080841064453125" lon="13.81945657543838024139404296875">
        <ele>189.1999969482421875</ele>
        <time>2020-05-09T12:37:06.000Z</time>
        <extensions>
          <ns3:TrackPointExtension>
            <ns3:atemp>31.0</ns3:atemp>
            <ns3:hr>129</ns3:hr>
          </ns3:TrackPointExtension>
        </extensions>
      </trkpt>
      <trkpt lat="43.02930618636310100555419921875" lon="13.8194045238196849822998046875">
        <ele>189.399993896484375</ele>
        <time>2020-05-09T12:37:08.000Z</time>
        <extensions>
          <ns3:TrackPointExtension>
            <ns3:atemp>31.0</ns3:atemp>
            <ns3:hr>128</ns3:hr>
          </ns3:TrackPointExtension>
        </extensions>
      </trkpt>
      <trkpt lat="43.02929545752704143524169921875" lon="13.81937719881534576416015625">
        <ele>189.399993896484375</ele>
        <time>2020-05-09T12:37:09.000Z</time>
        <extensions>
          <ns3:TrackPointExtension>
            <ns3:atemp>31.0</ns3:atemp>
            <ns3:hr>128</ns3:hr>
          </ns3:TrackPointExtension>
        </extensions>
      </trkpt>
      <trkpt lat="43.0292482674121856689453125" lon="13.81923965178430080413818359375">
        <ele>190.600006103515625</ele>
        <time>2020-05-09T12:37:14.000Z</time>
        <extensions>
          <ns3:TrackPointExtension>
            <ns3:atemp>31.0</ns3:atemp>
            <ns3:hr>129</ns3:hr>
          </ns3:TrackPointExtension>
        </extensions>
      </trkpt>
      <trkpt lat="43.0292189307510852813720703125" lon="13.8191473670303821563720703125">
        <ele>191.399993896484375</ele>
        <time>2020-05-09T12:37:18.000Z</time>
        <extensions>
          <ns3:TrackPointExtension>
            <ns3:atemp>31.0</ns3:atemp>
            <ns3:hr>128</ns3:hr>
          </ns3:TrackPointExtension>
        </extensions>
      </trkpt>
      <trkpt lat="43.02920610643923282623291015625" lon="13.81911107338964939117431640625">
        <ele>191.600006103515625</ele>
        <time>2020-05-09T12:37:20.000Z</time>
        <extensions>
          <ns3:TrackPointExtension>
            <ns3:atemp>31.0</ns3:atemp>
            <ns3:hr>128</ns3:hr>
          </ns3:TrackPointExtension>
        </extensions>
      </trkpt>
      <trkpt lat="43.0291693098843097686767578125" lon="13.8189889490604400634765625">
        <ele>193</ele>
        <time>2020-05-09T12:37:25.000Z</time>
        <extensions>
          <ns3:TrackPointExtension>
            <ns3:atemp>31.0</ns3:atemp>
            <ns3:hr>129</ns3:hr>
          </ns3:TrackPointExtension>
        </extensions>
      </trkpt>
      <trkpt lat="43.02916050888597965240478515625" lon="13.81896807812154293060302734375">
        <ele>193.1999969482421875</ele>
        <time>2020-05-09T12:37:26.000Z</time>
        <extensions>
          <ns3:TrackPointExtension>
            <ns3:atemp>30.0</ns3:atemp>
            <ns3:hr>130</ns3:hr>
          </ns3:TrackPointExtension>
        </extensions>
      </trkpt>
      <trkpt lat="43.02913955412805080413818359375" lon="13.81892080418765544891357421875">
        <ele>193.8000030517578125</ele>
        <time>2020-05-09T12:37:28.000Z</time>
        <extensions>
          <ns3:TrackPointExtension>
            <ns3:atemp>30.0</ns3:atemp>
            <ns3:hr>136</ns3:hr>
          </ns3:TrackPointExtension>
        </extensions>
      </trkpt>
      <trkpt lat="43.0291297473013401031494140625" lon="13.81890051998198032379150390625">
        <ele>194.1999969482421875</ele>
        <time>2020-05-09T12:37:29.000Z</time>
        <extensions>
          <ns3:TrackPointExtension>
            <ns3:atemp>30.0</ns3:atemp>
            <ns3:hr>137</ns3:hr>
          </ns3:TrackPointExtension>
        </extensions>
      </trkpt>
      <trkpt lat="43.02908691577613353729248046875" lon="13.81879658438265323638916015625">
        <ele>195.399993896484375</ele>
        <time>2020-05-09T12:37:34.000Z</time>
        <extensions>
          <ns3:TrackPointExtension>
            <ns3:atemp>30.0</ns3:atemp>
            <ns3:hr>136</ns3:hr>
          </ns3:TrackPointExtension>
        </extensions>
      </trkpt>
      <trkpt lat="43.02907769568264484405517578125" lon="13.81878015585243701934814453125">
        <ele>195.600006103515625</ele>
        <time>2020-05-09T12:37:35.000Z</time>
        <extensions>
          <ns3:TrackPointExtension>
            <ns3:atemp>30.0</ns3:atemp>
            <ns3:hr>134</ns3:hr>
          </ns3:TrackPointExtension>
        </extensions>
      </trkpt>
      <trkpt lat="43.02905992604792118072509765625" lon="13.81874327547848224639892578125">
        <ele>196.1999969482421875</ele>
        <time>2020-05-09T12:37:37.000Z</time>
        <extensions>
          <ns3:TrackPointExtension>
            <ns3:atemp>30.0</ns3:atemp>
            <ns3:hr>139</ns3:hr>
          </ns3:TrackPointExtension>
        </extensions>
      </trkpt>
      <trkpt lat="43.029053471982479095458984375" lon="13.81872483529150485992431640625">
        <ele>196.600006103515625</ele>
        <time>2020-05-09T12:37:38.000Z</time>
        <extensions>
          <ns3:TrackPointExtension>
            <ns3:atemp>30.0</ns3:atemp>
            <ns3:hr>140</ns3:hr>
          </ns3:TrackPointExtension>
        </extensions>
      </trkpt>
      <trkpt lat="43.029029332101345062255859375" lon="13.818663060665130615234375">
        <ele>197.600006103515625</ele>
        <time>2020-05-09T12:37:41.000Z</time>
        <extensions>
          <ns3:TrackPointExtension>
            <ns3:atemp>30.0</ns3:atemp>
            <ns3:hr>142</ns3:hr>
          </ns3:TrackPointExtension>
        </extensions>
      </trkpt>
      <trkpt lat="43.02901064045727252960205078125" lon="13.8186223246157169342041015625">
        <ele>198.1999969482421875</ele>
        <time>2020-05-09T12:37:43.000Z</time>
        <extensions>
          <ns3:TrackPointExtension>
            <ns3:atemp>30.0</ns3:atemp>
            <ns3:hr>144</ns3:hr>
          </ns3:TrackPointExtension>
        </extensions>
      </trkpt>
      <trkpt lat="43.0289880931377410888671875" lon="13.81854814477264881134033203125">
        <ele>199</ele>
        <time>2020-05-09T12:37:46.000Z</time>
        <extensions>
          <ns3:TrackPointExtension>
            <ns3:atemp>30.0</ns3:atemp>
            <ns3:hr>148</ns3:hr>
          </ns3:TrackPointExtension>
        </extensions>
      </trkpt>
      <trkpt lat="43.02895330823957920074462890625" lon="13.81846927106380462646484375">
        <ele>200.1999969482421875</ele>
        <time>2020-05-09T12:37:50.000Z</time>
        <extensions>
          <ns3:TrackPointExtension>
            <ns3:atemp>30.0</ns3:atemp>
            <ns3:hr>151</ns3:hr>
          </ns3:TrackPointExtension>
        </extensions>
      </trkpt>
      <trkpt lat="43.02894190885126590728759765625" lon="13.81844823248684406280517578125">
        <ele>200.399993896484375</ele>
        <time>2020-05-09T12:37:51.000Z</time>
        <extensions>
          <ns3:TrackPointExtension>
            <ns3:atemp>30.0</ns3:atemp>
            <ns3:hr>151</ns3:hr>
          </ns3:TrackPointExtension>
        </extensions>
      </trkpt>
      <trkpt lat="43.02890486083924770355224609375" lon="13.8183601386845111846923828125">
        <ele>201.1999969482421875</ele>
        <time>2020-05-09T12:37:55.000Z</time>
        <extensions>
          <ns3:TrackPointExtension>
            <ns3:atemp>30.0</ns3:atemp>
            <ns3:hr>153</ns3:hr>
          </ns3:TrackPointExtension>
        </extensions>
      </trkpt>
      <trkpt lat="43.0288444273173809051513671875" lon="13.81826005876064300537109375">
        <ele>202</ele>
        <time>2020-05-09T12:38:00.000Z</time>
        <extensions>
          <ns3:TrackPointExtension>
            <ns3:atemp>30.0</ns3:atemp>
            <ns3:hr>155</ns3:hr>
          </ns3:TrackPointExtension>
        </extensions>
      </trkpt>
      <trkpt lat="43.0288253165781497955322265625" lon="13.8182166405022144317626953125">
        <ele>202.399993896484375</ele>
        <time>2020-05-09T12:38:02.000Z</time>
        <extensions>
          <ns3:TrackPointExtension>
            <ns3:atemp>30.0</ns3:atemp>
            <ns3:hr>155</ns3:hr>
          </ns3:TrackPointExtension>
        </extensions>
      </trkpt>
      <trkpt lat="43.02875800989568233489990234375" lon="13.81807574070990085601806640625">
        <ele>203.399993896484375</ele>
        <time>2020-05-09T12:38:09.000Z</time>
        <extensions>
          <ns3:TrackPointExtension>
            <ns3:atemp>30.0</ns3:atemp>
            <ns3:hr>157</ns3:hr>
          </ns3:TrackPointExtension>
        </extensions>
      </trkpt>
      <trkpt lat="43.0286834947764873504638671875" lon="13.81784942932426929473876953125">
        <ele>204.600006103515625</ele>
        <time>2020-05-09T12:38:17.000Z</time>
        <extensions>
          <ns3:TrackPointExtension>
            <ns3:atemp>31.0</ns3:atemp>
            <ns3:hr>157</ns3:hr>
          </ns3:TrackPointExtension>
        </extensions>
      </trkpt>
      <trkpt lat="43.02864351309835910797119140625" lon="13.8177851401269435882568359375">
        <ele>205.600006103515625</ele>
        <time>2020-05-09T12:38:20.000Z</time>
        <extensions>
          <ns3:TrackPointExtension>
            <ns3:atemp>31.0</ns3:atemp>
            <ns3:hr>158</ns3:hr>
          </ns3:TrackPointExtension>
        </extensions>
      </trkpt>
      <trkpt lat="43.02863010205328464508056640625" lon="13.81776477210223674774169921875">
        <ele>205.8000030517578125</ele>
        <time>2020-05-09T12:38:21.000Z</time>
        <extensions>
          <ns3:TrackPointExtension>
            <ns3:atemp>31.0</ns3:atemp>
            <ns3:hr>158</ns3:hr>
          </ns3:TrackPointExtension>
        </extensions>
      </trkpt>
      <trkpt lat="43.02858182229101657867431640625" lon="13.81768832914531230926513671875">
        <ele>207</ele>
        <time>2020-05-09T12:38:25.000Z</time>
        <extensions>
          <ns3:TrackPointExtension>
            <ns3:atemp>31.0</ns3:atemp>
            <ns3:hr>158</ns3:hr>
          </ns3:TrackPointExtension>
        </extensions>
      </trkpt>
      <trkpt lat="43.0285441875457763671875" lon="13.81762965582311153411865234375">
        <ele>207.8000030517578125</ele>
        <time>2020-05-09T12:38:28.000Z</time>
        <extensions>
          <ns3:TrackPointExtension>
            <ns3:atemp>31.0</ns3:atemp>
            <ns3:hr>158</ns3:hr>
          </ns3:TrackPointExtension>
        </extensions>
      </trkpt>
      <trkpt lat="43.02853278815746307373046875" lon="13.81761289201676845550537109375">
        <ele>208.1999969482421875</ele>
        <time>2020-05-09T12:38:29.000Z</time>
        <extensions>
          <ns3:TrackPointExtension>
            <ns3:atemp>31.0</ns3:atemp>
            <ns3:hr>158</ns3:hr>
          </ns3:TrackPointExtension>
        </extensions>
      </trkpt>
      <trkpt lat="43.0284940637648105621337890625" lon="13.81754449568688869476318359375">
        <ele>209.399993896484375</ele>
        <time>2020-05-09T12:38:33.000Z</time>
        <extensions>
          <ns3:TrackPointExtension>
            <ns3:atemp>31.0</ns3:atemp>
            <ns3:hr>158</ns3:hr>
          </ns3:TrackPointExtension>
        </extensions>
      </trkpt>
      <trkpt lat="43.02844963967800140380859375" lon="13.8174780271947383880615234375">
        <ele>210.399993896484375</ele>
        <time>2020-05-09T12:38:37.000Z</time>
        <extensions>
          <ns3:TrackPointExtension>
            <ns3:atemp>31.0</ns3:atemp>
            <ns3:hr>158</ns3:hr>
          </ns3:TrackPointExtension>
        </extensions>
      </trkpt>
      <trkpt lat="43.028438575565814971923828125" lon="13.81746017374098300933837890625">
        <ele>210.600006103515625</ele>
        <time>2020-05-09T12:38:38.000Z</time>
        <extensions>
          <ns3:TrackPointExtension>
            <ns3:atemp>31.0</ns3:atemp>
            <ns3:hr>158</ns3:hr>
          </ns3:TrackPointExtension>
        </extensions>
      </trkpt>
      <trkpt lat="43.02838568575680255889892578125" lon="13.8173740915954113006591796875">
        <ele>211.8000030517578125</ele>
        <time>2020-05-09T12:38:43.000Z</time>
        <extensions>
          <ns3:TrackPointExtension>
            <ns3:atemp>31.0</ns3:atemp>
            <ns3:hr>159</ns3:hr>
          </ns3:TrackPointExtension>
        </extensions>
      </trkpt>
      <trkpt lat="43.02836003713309764862060546875" lon="13.817322961986064910888671875">
        <ele>213.1999969482421875</ele>
        <time>2020-05-09T12:38:46.000Z</time>
        <extensions>
          <ns3:TrackPointExtension>
            <ns3:atemp>31.0</ns3:atemp>
            <ns3:hr>160</ns3:hr>
          </ns3:TrackPointExtension>
        </extensions>
      </trkpt>
      <trkpt lat="43.02834025584161281585693359375" lon="13.8172865845263004302978515625">
        <ele>213.8000030517578125</ele>
        <time>2020-05-09T12:38:48.000Z</time>
        <extensions>
          <ns3:TrackPointExtension>
            <ns3:atemp>31.0</ns3:atemp>
            <ns3:hr>160</ns3:hr>
          </ns3:TrackPointExtension>
        </extensions>
      </trkpt>
      <trkpt lat="43.02833028137683868408203125" lon="13.817268647253513336181640625">
        <ele>214</ele>
        <time>2020-05-09T12:38:49.000Z</time>
        <extensions>
          <ns3:TrackPointExtension>
            <ns3:atemp>31.0</ns3:atemp>
            <ns3:hr>160</ns3:hr>
          </ns3:TrackPointExtension>
        </extensions>
      </trkpt>
      <trkpt lat="43.02832064218819141387939453125" lon="13.81725079379975795745849609375">
        <ele>214.1999969482421875</ele>
        <time>2020-05-09T12:38:50.000Z</time>
        <extensions>
          <ns3:TrackPointExtension>
            <ns3:atemp>31.0</ns3:atemp>
            <ns3:hr>160</ns3:hr>
          </ns3:TrackPointExtension>
        </extensions>
      </trkpt>
      <trkpt lat="43.02829138934612274169921875" lon="13.8171974010765552520751953125">
        <ele>215.399993896484375</ele>
        <time>2020-05-09T12:38:53.000Z</time>
        <extensions>
          <ns3:TrackPointExtension>
            <ns3:atemp>31.0</ns3:atemp>
            <ns3:hr>160</ns3:hr>
          </ns3:TrackPointExtension>
        </extensions>
      </trkpt>
      <trkpt lat="43.0282489769160747528076171875" lon="13.81712674163281917572021484375">
        <ele>216.399993896484375</ele>
        <time>2020-05-09T12:38:57.000Z</time>
        <extensions>
          <ns3:TrackPointExtension>
            <ns3:atemp>31.0</ns3:atemp>
            <ns3:hr>161</ns3:hr>
          </ns3:TrackPointExtension>
        </extensions>
      </trkpt>
      <trkpt lat="43.0282268486917018890380859375" lon="13.8170917890965938568115234375">
        <ele>217.1999969482421875</ele>
        <time>2020-05-09T12:38:59.000Z</time>
        <extensions>
          <ns3:TrackPointExtension>
            <ns3:atemp>31.0</ns3:atemp>
            <ns3:hr>162</ns3:hr>
          </ns3:TrackPointExtension>
        </extensions>
      </trkpt>
      <trkpt lat="43.0282157845795154571533203125" lon="13.81707477383315563201904296875">
        <ele>217.8000030517578125</ele>
        <time>2020-05-09T12:39:00.000Z</time>
        <extensions>
          <ns3:TrackPointExtension>
            <ns3:atemp>31.0</ns3:atemp>
            <ns3:hr>162</ns3:hr>
          </ns3:TrackPointExtension>
        </extensions>
      </trkpt>
      <trkpt lat="43.02816993556916713714599609375" lon="13.81703588180243968963623046875">
        <ele>218.8000030517578125</ele>
        <time>2020-05-09T12:39:03.000Z</time>
        <extensions>
          <ns3:TrackPointExtension>
            <ns3:atemp>31.0</ns3:atemp>
            <ns3:hr>163</ns3:hr>
          </ns3:TrackPointExtension>
        </extensions>
      </trkpt>
      <trkpt lat="43.02815149538218975067138671875" lon="13.81702817045152187347412109375">
        <ele>219</ele>
        <time>2020-05-09T12:39:04.000Z</time>
        <extensions>
          <ns3:TrackPointExtension>
            <ns3:atemp>31.0</ns3:atemp>
            <ns3:hr>164</ns3:hr>
          </ns3:TrackPointExtension>
        </extensions>
      </trkpt>
      <trkpt lat="43.02800850011408329010009765625" lon="13.8169627077877521514892578125">
        <ele>219.1999969482421875</ele>
        <time>2020-05-09T12:39:11.000Z</time>
        <extensions>
          <ns3:TrackPointExtension>
            <ns3:atemp>31.0</ns3:atemp>
            <ns3:hr>166</ns3:hr>
          </ns3:TrackPointExtension>
        </extensions>
      </trkpt>
      <trkpt lat="43.0278774909675121307373046875" lon="13.81686857901513576507568359375">
        <ele>219.399993896484375</ele>
        <time>2020-05-09T12:39:17.000Z</time>
        <extensions>
          <ns3:TrackPointExtension>
            <ns3:atemp>31.0</ns3:atemp>
            <ns3:hr>167</ns3:hr>
          </ns3:TrackPointExtension>
        </extensions>
      </trkpt>
      <trkpt lat="43.02774648182094097137451171875" lon="13.81677084602415561676025390625">
        <ele>219.8000030517578125</ele>
        <time>2020-05-09T12:39:22.000Z</time>
        <extensions>
          <ns3:TrackPointExtension>
            <ns3:atemp>32.0</ns3:atemp>
            <ns3:hr>167</ns3:hr>
          </ns3:TrackPointExtension>
        </extensions>
      </trkpt>
      <trkpt lat="43.0276786722242832183837890625" lon="13.81672315299510955810546875">
        <ele>220.600006103515625</ele>
        <time>2020-05-09T12:39:25.000Z</time>
        <extensions>
          <ns3:TrackPointExtension>
            <ns3:atemp>32.0</ns3:atemp>
            <ns3:hr>165</ns3:hr>
          </ns3:TrackPointExtension>
        </extensions>
      </trkpt>
      <trkpt lat="43.0276320688426494598388671875" lon="13.81669289432466030120849609375">
        <ele>221.1999969482421875</ele>
        <time>2020-05-09T12:39:27.000Z</time>
        <extensions>
          <ns3:TrackPointExtension>
            <ns3:atemp>32.0</ns3:atemp>
            <ns3:hr>166</ns3:hr>
          </ns3:TrackPointExtension>
        </extensions>
      </trkpt>
      <trkpt lat="43.02751488983631134033203125" lon="13.81662852130830287933349609375">
        <ele>222</ele>
        <time>2020-05-09T12:39:32.000Z</time>
        <extensions>
          <ns3:TrackPointExtension>
            <ns3:atemp>32.0</ns3:atemp>
            <ns3:hr>165</ns3:hr>
          </ns3:TrackPointExtension>
        </extensions>
      </trkpt>
      <trkpt lat="43.02749074995517730712890625" lon="13.81662030704319477081298828125">
        <ele>222.1999969482421875</ele>
        <time>2020-05-09T12:39:33.000Z</time>
        <extensions>
          <ns3:TrackPointExtension>
            <ns3:atemp>32.0</ns3:atemp>
            <ns3:hr>165</ns3:hr>
          </ns3:TrackPointExtension>
        </extensions>
      </trkpt>
      <trkpt lat="43.02733652293682098388671875" lon="13.81659499369561672210693359375">
        <ele>222.600006103515625</ele>
        <time>2020-05-09T12:39:39.000Z</time>
        <extensions>
          <ns3:TrackPointExtension>
            <ns3:atemp>32.0</ns3:atemp>
            <ns3:hr>163</ns3:hr>
          </ns3:TrackPointExtension>
        </extensions>
      </trkpt>
      <trkpt lat="43.02715681493282318115234375" lon="13.81657772697508335113525390625">
        <ele>222.399993896484375</ele>
        <time>2020-05-09T12:39:46.000Z</time>
        <extensions>
          <ns3:TrackPointExtension>
            <ns3:atemp>32.0</ns3:atemp>
            <ns3:hr>164</ns3:hr>
          </ns3:TrackPointExtension>
        </extensions>
      </trkpt>
      <trkpt lat="43.0269147455692291259765625" lon="13.81656096316874027252197265625">
        <ele>222.1999969482421875</ele>
        <time>2020-05-09T12:39:52.000Z</time>
        <extensions>
          <ns3:TrackPointExtension>
            <ns3:atemp>32.0</ns3:atemp>
            <ns3:hr>162</ns3:hr>
          </ns3:TrackPointExtension>
        </extensions>
      </trkpt>
      <trkpt lat="43.026826567947864532470703125" lon="13.8165308721363544464111328125">
        <ele>221.8000030517578125</ele>
        <time>2020-05-09T12:39:54.000Z</time>
        <extensions>
          <ns3:TrackPointExtension>
            <ns3:atemp>32.0</ns3:atemp>
            <ns3:hr>159</ns3:hr>
          </ns3:TrackPointExtension>
        </extensions>
      </trkpt>
      <trkpt lat="43.026656918227672576904296875" lon="13.8164369948208332061767578125">
        <ele>221.8000030517578125</ele>
        <time>2020-05-09T12:39:58.000Z</time>
        <extensions>
          <ns3:TrackPointExtension>
            <ns3:atemp>32.0</ns3:atemp>
            <ns3:hr>156</ns3:hr>
          </ns3:TrackPointExtension>
        </extensions>
      </trkpt>
      <trkpt lat="43.02656681276857852935791015625" lon="13.81638427264988422393798828125">
        <ele>222.600006103515625</ele>
        <time>2020-05-09T12:40:00.000Z</time>
        <extensions>
          <ns3:TrackPointExtension>
            <ns3:atemp>32.0</ns3:atemp>
            <ns3:hr>153</ns3:hr>
          </ns3:TrackPointExtension>
        </extensions>
      </trkpt>
      <trkpt lat="43.0265253223478794097900390625" lon="13.81635837256908416748046875">
        <ele>223.1999969482421875</ele>
        <time>2020-05-09T12:40:01.000Z</time>
        <extensions>
          <ns3:TrackPointExtension>
            <ns3:atemp>32.0</ns3:atemp>
            <ns3:hr>153</ns3:hr>
          </ns3:TrackPointExtension>
        </extensions>
      </trkpt>
      <trkpt lat="43.02639774978160858154296875" lon="13.81628335453569889068603515625">
        <ele>223.600006103515625</ele>
        <time>2020-05-09T12:40:04.000Z</time>
        <extensions>
          <ns3:TrackPointExtension>
            <ns3:atemp>32.0</ns3:atemp>
            <ns3:hr>149</ns3:hr>
          </ns3:TrackPointExtension>
        </extensions>
      </trkpt>
      <trkpt lat="43.02632155828177928924560546875" lon="13.81624110974371433258056640625">
        <ele>222.399993896484375</ele>
        <time>2020-05-09T12:40:06.000Z</time>
        <extensions>
          <ns3:TrackPointExtension>
            <ns3:atemp>32.0</ns3:atemp>
            <ns3:hr>145</ns3:hr>
          </ns3:TrackPointExtension>
        </extensions>
      </trkpt>
      <trkpt lat="43.02626372314989566802978515625" lon="13.816208504140377044677734375">
        <ele>222</ele>
        <time>2020-05-09T12:40:08.000Z</time>
        <extensions>
          <ns3:TrackPointExtension>
            <ns3:atemp>31.0</ns3:atemp>
            <ns3:hr>144</ns3:hr>
          </ns3:TrackPointExtension>
        </extensions>
      </trkpt>
      <trkpt lat="43.0262413434684276580810546875" lon="13.81619735620915889739990234375">
        <ele>222</ele>
        <time>2020-05-09T12:40:09.000Z</time>
        <extensions>
          <ns3:TrackPointExtension>
            <ns3:atemp>31.0</ns3:atemp>
            <ns3:hr>144</ns3:hr>
          </ns3:TrackPointExtension>
        </extensions>
      </trkpt>
      <trkpt lat="43.02610212005674839019775390625" lon="13.81614907644689083099365234375">
        <ele>222.399993896484375</ele>
        <time>2020-05-09T12:40:14.000Z</time>
        <extensions>
          <ns3:TrackPointExtension>
            <ns3:atemp>31.0</ns3:atemp>
            <ns3:hr>141</ns3:hr>
          </ns3:TrackPointExtension>
        </extensions>
      </trkpt>
      <trkpt lat="43.02607186138629913330078125" lon="13.81614002399146556854248046875">
        <ele>222.8000030517578125</ele>
        <time>2020-05-09T12:40:15.000Z</time>
        <extensions>
          <ns3:TrackPointExtension>
            <ns3:atemp>31.0</ns3:atemp>
            <ns3:hr>143</ns3:hr>
          </ns3:TrackPointExtension>
        </extensions>
      </trkpt>
      <trkpt lat="43.02601511590182781219482421875" lon="13.8161288760602474212646484375">
        <ele>223</ele>
        <time>2020-05-09T12:40:17.000Z</time>
        <extensions>
          <ns3:TrackPointExtension>
            <ns3:atemp>31.0</ns3:atemp>
            <ns3:hr>141</ns3:hr>
          </ns3:TrackPointExtension>
        </extensions>
      </trkpt>
      <trkpt lat="43.02593481726944446563720703125" lon="13.81619282998144626617431640625">
        <ele>223.399993896484375</ele>
        <time>2020-05-09T12:40:19.000Z</time>
        <extensions>
          <ns3:TrackPointExtension>
            <ns3:atemp>31.0</ns3:atemp>
            <ns3:hr>137</ns3:hr>
          </ns3:TrackPointExtension>
        </extensions>
      </trkpt>
      <trkpt lat="43.02586792968213558197021484375" lon="13.816238678991794586181640625">
        <ele>224.399993896484375</ele>
        <time>2020-05-09T12:40:21.000Z</time>
        <extensions>
          <ns3:TrackPointExtension>
            <ns3:atemp>31.0</ns3:atemp>
            <ns3:hr>133</ns3:hr>
          </ns3:TrackPointExtension>
        </extensions>
      </trkpt>
      <trkpt lat="43.02579500712454319000244140625" lon="13.8162405230104923248291015625">
        <ele>225.1999969482421875</ele>
        <time>2020-05-09T12:40:24.000Z</time>
        <extensions>
          <ns3:TrackPointExtension>
            <ns3:atemp>31.0</ns3:atemp>
            <ns3:hr>130</ns3:hr>
          </ns3:TrackPointExtension>
        </extensions>
      </trkpt>
      <trkpt lat="43.02576684392988681793212890625" lon="13.81623566150665283203125">
        <ele>225.399993896484375</ele>
        <time>2020-05-09T12:40:25.000Z</time>
        <extensions>
          <ns3:TrackPointExtension>
            <ns3:atemp>31.0</ns3:atemp>
            <ns3:hr>130</ns3:hr>
          </ns3:TrackPointExtension>
        </extensions>
      </trkpt>
      <trkpt lat="43.02573717199265956878662109375" lon="13.8162284530699253082275390625">
        <ele>225.1999969482421875</ele>
        <time>2020-05-09T12:40:26.000Z</time>
        <extensions>
          <ns3:TrackPointExtension>
            <ns3:atemp>31.0</ns3:atemp>
            <ns3:hr>129</ns3:hr>
          </ns3:TrackPointExtension>
        </extensions>
      </trkpt>
      <trkpt lat="43.02554757334291934967041015625" lon="13.81621596403419971466064453125">
        <ele>225.1999969482421875</ele>
        <time>2020-05-09T12:40:33.000Z</time>
        <extensions>
          <ns3:TrackPointExtension>
            <ns3:atemp>31.0</ns3:atemp>
            <ns3:hr>128</ns3:hr>
          </ns3:TrackPointExtension>
        </extensions>
      </trkpt>
      <trkpt lat="43.025348670780658721923828125" lon="13.81624127738177776336669921875">
        <ele>226.399993896484375</ele>
        <time>2020-05-09T12:40:40.000Z</time>
        <extensions>
          <ns3:TrackPointExtension>
            <ns3:atemp>30.0</ns3:atemp>
            <ns3:hr>127</ns3:hr>
          </ns3:TrackPointExtension>
        </extensions>
      </trkpt>
      <trkpt lat="43.0251537077128887176513671875" lon="13.8162844441831111907958984375">
        <ele>227.1999969482421875</ele>
        <time>2020-05-09T12:40:46.000Z</time>
        <extensions>
          <ns3:TrackPointExtension>
            <ns3:atemp>30.0</ns3:atemp>
            <ns3:hr>130</ns3:hr>
          </ns3:TrackPointExtension>
        </extensions>
      </trkpt>
      <trkpt lat="43.0251015722751617431640625" lon="13.8162898086011409759521484375">
        <ele>227.399993896484375</ele>
        <time>2020-05-09T12:40:48.000Z</time>
        <extensions>
          <ns3:TrackPointExtension>
            <ns3:atemp>30.0</ns3:atemp>
            <ns3:hr>130</ns3:hr>
          </ns3:TrackPointExtension>
        </extensions>
      </trkpt>
      <trkpt lat="43.02499587647616863250732421875" lon="13.816306404769420623779296875">
        <ele>228.1999969482421875</ele>
        <time>2020-05-09T12:40:55.000Z</time>
        <extensions>
          <ns3:TrackPointExtension>
            <ns3:atemp>30.0</ns3:atemp>
            <ns3:hr>131</ns3:hr>
          </ns3:TrackPointExtension>
        </extensions>
      </trkpt>
      <trkpt lat="43.02498833276331424713134765625" lon="13.81630472838878631591796875">
        <ele>228.600006103515625</ele>
        <time>2020-05-09T12:40:56.000Z</time>
        <extensions>
          <ns3:TrackPointExtension>
            <ns3:atemp>30.0</ns3:atemp>
            <ns3:hr>131</ns3:hr>
          </ns3:TrackPointExtension>
        </extensions>
      </trkpt>
      <trkpt lat="43.0249683000147342681884765625" lon="13.81633448414504528045654296875">
        <ele>229</ele>
        <time>2020-05-09T12:41:01.000Z</time>
        <extensions>
          <ns3:TrackPointExtension>
            <ns3:atemp>30.0</ns3:atemp>
            <ns3:hr>130</ns3:hr>
          </ns3:TrackPointExtension>
        </extensions>
      </trkpt>
      <trkpt lat="43.0249760113656520843505859375" lon="13.81634420715272426605224609375">
        <ele>229.1999969482421875</ele>
        <time>2020-05-09T12:41:08.000Z</time>
        <extensions>
          <ns3:TrackPointExtension>
            <ns3:atemp>30.0</ns3:atemp>
            <ns3:hr>125</ns3:hr>
          </ns3:TrackPointExtension>
        </extensions>
      </trkpt>
      <trkpt lat="43.02497575990855693817138671875" lon="13.816343955695629119873046875">
        <ele>229</ele>
        <time>2020-05-09T12:41:09.000Z</time>
        <extensions>
          <ns3:TrackPointExtension>
            <ns3:atemp>30.0</ns3:atemp>
            <ns3:hr>126</ns3:hr>
          </ns3:TrackPointExtension>
        </extensions>
      </trkpt>
      <trkpt lat="43.02496905438601970672607421875" lon="13.816364742815494537353515625">
        <ele>228.8000030517578125</ele>
        <time>2020-05-09T12:41:11.000Z</time>
        <extensions>
          <ns3:TrackPointExtension>
            <ns3:atemp>30.0</ns3:atemp>
            <ns3:hr>124</ns3:hr>
          </ns3:TrackPointExtension>
        </extensions>
      </trkpt>
      <trkpt lat="43.0249545536935329437255859375" lon="13.81642165593802928924560546875">
        <ele>228.600006103515625</ele>
        <time>2020-05-09T12:41:14.000Z</time>
        <extensions>
          <ns3:TrackPointExtension>
            <ns3:atemp>30.0</ns3:atemp>
            <ns3:hr>126</ns3:hr>
          </ns3:TrackPointExtension>
        </extensions>
      </trkpt>
      <trkpt lat="43.02495245821774005889892578125" lon="13.816423751413822174072265625">
        <ele>228.399993896484375</ele>
        <time>2020-05-09T12:41:18.000Z</time>
        <extensions>
          <ns3:TrackPointExtension>
            <ns3:atemp>30.0</ns3:atemp>
            <ns3:hr>125</ns3:hr>
          </ns3:TrackPointExtension>
        </extensions>
      </trkpt>
      <trkpt lat="43.0249558947980403900146484375" lon="13.816415369510650634765625">
        <ele>228.600006103515625</ele>
        <time>2020-05-09T12:41:21.000Z</time>
        <extensions>
          <ns3:TrackPointExtension>
            <ns3:atemp>30.0</ns3:atemp>
            <ns3:hr>122</ns3:hr>
          </ns3:TrackPointExtension>
        </extensions>
      </trkpt>
      <trkpt lat="43.0249522067606449127197265625" lon="13.81641746498644351959228515625">
        <ele>228.600006103515625</ele>
        <time>2020-05-09T12:41:24.000Z</time>
        <extensions>
          <ns3:TrackPointExtension>
            <ns3:atemp>30.0</ns3:atemp>
            <ns3:hr>119</ns3:hr>
          </ns3:TrackPointExtension>
        </extensions>
      </trkpt>
      <trkpt lat="43.0249505303800106048583984375" lon="13.81641914136707782745361328125">
        <ele>228.399993896484375</ele>
        <time>2020-05-09T12:41:30.000Z</time>
        <extensions>
          <ns3:TrackPointExtension>
            <ns3:atemp>30.0</ns3:atemp>
            <ns3:hr>119</ns3:hr>
          </ns3:TrackPointExtension>
        </extensions>
      </trkpt>
      <trkpt lat="43.02494994364678859710693359375" lon="13.81641872227191925048828125">
        <ele>228</ele>
        <time>2020-05-09T12:41:40.000Z</time>
        <extensions>
          <ns3:TrackPointExtension>
            <ns3:atemp>30.0</ns3:atemp>
            <ns3:hr>118</ns3:hr>
          </ns3:TrackPointExtension>
        </extensions>
      </trkpt>
      <trkpt lat="43.024939633905887603759765625" lon="13.81641738116741180419921875">
        <ele>228.1999969482421875</ele>
        <time>2020-05-09T12:41:50.000Z</time>
        <extensions>
          <ns3:TrackPointExtension>
            <ns3:atemp>30.0</ns3:atemp>
            <ns3:hr>120</ns3:hr>
          </ns3:TrackPointExtension>
        </extensions>
      </trkpt>
      <trkpt lat="43.02493670023977756500244140625" lon="13.8164222426712512969970703125">
        <ele>228.1999969482421875</ele>
        <time>2020-05-09T12:41:53.000Z</time>
        <extensions>
          <ns3:TrackPointExtension>
            <ns3:atemp>30.0</ns3:atemp>
            <ns3:hr>124</ns3:hr>
          </ns3:TrackPointExtension>
        </extensions>
      </trkpt>
      <trkpt lat="43.02493670023977756500244140625" lon="13.81642232649028301239013671875">
        <ele>228.1999969482421875</ele>
        <time>2020-05-09T12:41:54.000Z</time>
        <extensions>
          <ns3:TrackPointExtension>
            <ns3:atemp>30.0</ns3:atemp>
            <ns3:hr>129</ns3:hr>
          </ns3:TrackPointExtension>
        </extensions>
      </trkpt>
      <trkpt lat="43.02493594586849212646484375" lon="13.816423080861568450927734375">
        <ele>228.399993896484375</ele>
        <time>2020-05-09T12:41:55.000Z</time>
        <extensions>
          <ns3:TrackPointExtension>
            <ns3:atemp>30.0</ns3:atemp>
            <ns3:hr>132</ns3:hr>
          </ns3:TrackPointExtension>
        </extensions>
      </trkpt>
      <trkpt lat="43.02493636496365070343017578125" lon="13.8164232484996318817138671875">
        <ele>228.600006103515625</ele>
        <time>2020-05-09T12:41:57.000Z</time>
        <extensions>
          <ns3:TrackPointExtension>
            <ns3:atemp>30.0</ns3:atemp>
            <ns3:hr>135</ns3:hr>
          </ns3:TrackPointExtension>
        </extensions>
      </trkpt>
      <trkpt lat="43.0249394662678241729736328125" lon="13.816420398652553558349609375">
        <ele>228.399993896484375</ele>
        <time>2020-05-09T12:42:02.000Z</time>
        <extensions>
          <ns3:TrackPointExtension>
            <ns3:atemp>30.0</ns3:atemp>
            <ns3:hr>134</ns3:hr>
          </ns3:TrackPointExtension>
        </extensions>
      </trkpt>
      <trkpt lat="43.02494206465780735015869140625" lon="13.81641930900514125823974609375">
        <ele>228.399993896484375</ele>
        <time>2020-05-09T12:42:04.000Z</time>
        <extensions>
          <ns3:TrackPointExtension>
            <ns3:atemp>30.0</ns3:atemp>
            <ns3:hr>130</ns3:hr>
          </ns3:TrackPointExtension>
        </extensions>
      </trkpt>
      <trkpt lat="43.02494256757199764251708984375" lon="13.816419057548046112060546875">
        <ele>228.399993896484375</ele>
        <time>2020-05-09T12:42:05.000Z</time>
        <extensions>
          <ns3:TrackPointExtension>
            <ns3:atemp>30.0</ns3:atemp>
            <ns3:hr>125</ns3:hr>
          </ns3:TrackPointExtension>
        </extensions>
      </trkpt>
      <trkpt lat="43.02494290284812450408935546875" lon="13.8164188899099826812744140625">
        <ele>228.399993896484375</ele>
        <time>2020-05-09T12:42:06.000Z</time>
        <extensions>
          <ns3:TrackPointExtension>
            <ns3:atemp>30.0</ns3:atemp>
            <ns3:hr>120</ns3:hr>
          </ns3:TrackPointExtension>
        </extensions>
      </trkpt>
      <trkpt lat="43.0249433219432830810546875" lon="13.81641880609095096588134765625">
        <ele>228.399993896484375</ele>
        <time>2020-05-09T12:42:07.000Z</time>
        <extensions>
          <ns3:TrackPointExtension>
            <ns3:atemp>30.0</ns3:atemp>
            <ns3:hr>115</ns3:hr>
          </ns3:TrackPointExtension>
        </extensions>
      </trkpt>
      <trkpt lat="43.02494357340037822723388671875" lon="13.8164188899099826812744140625">
        <ele>228.399993896484375</ele>
        <time>2020-05-09T12:42:08.000Z</time>
        <extensions>
          <ns3:TrackPointExtension>
            <ns3:atemp>30.0</ns3:atemp>
            <ns3:hr>110</ns3:hr>
          </ns3:TrackPointExtension>
        </extensions>
      </trkpt>
      <trkpt lat="43.02494407631456851959228515625" lon="13.81641863845288753509521484375">
        <ele>228.399993896484375</ele>
        <time>2020-05-09T12:42:11.000Z</time>
        <extensions>
          <ns3:TrackPointExtension>
            <ns3:atemp>30.0</ns3:atemp>
            <ns3:hr>107</ns3:hr>
          </ns3:TrackPointExtension>
        </extensions>
      </trkpt>
      <trkpt lat="43.024944327771663665771484375" lon="13.81641872227191925048828125">
        <ele>228.399993896484375</ele>
        <time>2020-05-09T12:42:13.000Z</time>
        <extensions>
          <ns3:TrackPointExtension>
            <ns3:atemp>30.0</ns3:atemp>
            <ns3:hr>103</ns3:hr>
          </ns3:TrackPointExtension>
        </extensions>
      </trkpt>
      <trkpt lat="43.02494441159069538116455078125" lon="13.81641863845288753509521484375">
        <ele>228.399993896484375</ele>
        <time>2020-05-09T12:42:14.000Z</time>
        <extensions>
          <ns3:TrackPointExtension>
            <ns3:atemp>30.0</ns3:atemp>
            <ns3:hr>100</ns3:hr>
          </ns3:TrackPointExtension>
        </extensions>
      </trkpt>
      <trkpt lat="43.02494524978101253509521484375" lon="13.81641872227191925048828125">
        <ele>228.399993896484375</ele>
        <time>2020-05-09T12:42:21.000Z</time>
        <extensions>
          <ns3:TrackPointExtension>
            <ns3:atemp>30.0</ns3:atemp>
            <ns3:hr>97</ns3:hr>
          </ns3:TrackPointExtension>
        </extensions>
      </trkpt>
      <trkpt lat="43.0249451659619808197021484375" lon="13.8164198957383632659912109375">
        <ele>228.399993896484375</ele>
        <time>2020-05-09T12:42:33.000Z</time>
        <extensions>
          <ns3:TrackPointExtension>
            <ns3:atemp>31.0</ns3:atemp>
            <ns3:hr>95</ns3:hr>
          </ns3:TrackPointExtension>
        </extensions>
      </trkpt>
      <trkpt lat="43.0249451659619808197021484375" lon="13.8164219073951244354248046875">
        <ele>228.399993896484375</ele>
        <time>2020-05-09T12:42:50.000Z</time>
        <extensions>
          <ns3:TrackPointExtension>
            <ns3:atemp>31.0</ns3:atemp>
            <ns3:hr>98</ns3:hr>
          </ns3:TrackPointExtension>
        </extensions>
      </trkpt>
      <trkpt lat="43.0249458365142345428466796875" lon="13.81641997955739498138427734375">
        <ele>228.399993896484375</ele>
        <time>2020-05-09T12:43:04.000Z</time>
        <extensions>
          <ns3:TrackPointExtension>
            <ns3:atemp>32.0</ns3:atemp>
            <ns3:hr>95</ns3:hr>
          </ns3:TrackPointExtension>
        </extensions>
      </trkpt>
      <trkpt lat="43.024947680532932281494140625" lon="13.816411681473255157470703125">
        <ele>228.399993896484375</ele>
        <time>2020-05-09T12:43:16.000Z</time>
        <extensions>
          <ns3:TrackPointExtension>
            <ns3:atemp>32.0</ns3:atemp>
            <ns3:hr>98</ns3:hr>
          </ns3:TrackPointExtension>
        </extensions>
      </trkpt>
      <trkpt lat="43.02494860254228115081787109375" lon="13.816403634846210479736328125">
        <ele>228.399993896484375</ele>
        <time>2020-05-09T12:43:24.000Z</time>
        <extensions>
          <ns3:TrackPointExtension>
            <ns3:atemp>32.0</ns3:atemp>
            <ns3:hr>101</ns3:hr>
          </ns3:TrackPointExtension>
        </extensions>
      </trkpt>
      <trkpt lat="43.02494843490421772003173828125" lon="13.81640355102717876434326171875">
        <ele>228.399993896484375</ele>
        <time>2020-05-09T12:43:25.000Z</time>
        <extensions>
          <ns3:TrackPointExtension>
            <ns3:atemp>32.0</ns3:atemp>
            <ns3:hr>99</ns3:hr>
          </ns3:TrackPointExtension>
        </extensions>
      </trkpt>
      <trkpt lat="43.02494860254228115081787109375" lon="13.81640623323619365692138671875">
        <ele>228.399993896484375</ele>
        <time>2020-05-09T12:43:31.000Z</time>
        <extensions>
          <ns3:TrackPointExtension>
            <ns3:atemp>32.0</ns3:atemp>
            <ns3:hr>96</ns3:hr>
          </ns3:TrackPointExtension>
        </extensions>
      </trkpt>
      <trkpt lat="43.02494524978101253509521484375" lon="13.81641126237809658050537109375">
        <ele>228.399993896484375</ele>
        <time>2020-05-09T12:43:46.000Z</time>
        <extensions>
          <ns3:TrackPointExtension>
            <ns3:atemp>32.0</ns3:atemp>
            <ns3:hr>94</ns3:hr>
          </ns3:TrackPointExtension>
        </extensions>
      </trkpt>
      <trkpt lat="43.0249458365142345428466796875" lon="13.8164131902158260345458984375">
        <ele>228.399993896484375</ele>
        <time>2020-05-09T12:43:54.000Z</time>
        <extensions>
          <ns3:TrackPointExtension>
            <ns3:atemp>32.0</ns3:atemp>
            <ns3:hr>97</ns3:hr>
          </ns3:TrackPointExtension>
        </extensions>
      </trkpt>
      <trkpt lat="43.024946339428424835205078125" lon="13.81641662679612636566162109375">
        <ele>228.399993896484375</ele>
        <time>2020-05-09T12:43:59.000Z</time>
        <extensions>
          <ns3:TrackPointExtension>
            <ns3:atemp>32.0</ns3:atemp>
            <ns3:hr>100</ns3:hr>
          </ns3:TrackPointExtension>
        </extensions>
      </trkpt>
      <trkpt lat="43.024946339428424835205078125" lon="13.8164175488054752349853515625">
        <ele>228.399993896484375</ele>
        <time>2020-05-09T12:44:02.000Z</time>
        <extensions>
          <ns3:TrackPointExtension>
            <ns3:atemp>32.0</ns3:atemp>
            <ns3:hr>103</ns3:hr>
          </ns3:TrackPointExtension>
        </extensions>
      </trkpt>
      <trkpt lat="43.0249468423426151275634765625" lon="13.81642417050898075103759765625">
        <ele>228.399993896484375</ele>
        <time>2020-05-09T12:44:17.000Z</time>
        <extensions>
          <ns3:TrackPointExtension>
            <ns3:atemp>32.0</ns3:atemp>
            <ns3:hr>99</ns3:hr>
          </ns3:TrackPointExtension>
        </extensions>
      </trkpt>
      <trkpt lat="43.024946339428424835205078125" lon="13.81642282940447330474853515625">
        <ele>228.399993896484375</ele>
        <time>2020-05-09T12:44:21.000Z</time>
        <extensions>
          <ns3:TrackPointExtension>
            <ns3:atemp>32.0</ns3:atemp>
            <ns3:hr>102</ns3:hr>
          </ns3:TrackPointExtension>
        </extensions>
      </trkpt>
      <trkpt lat="43.02494659088551998138427734375" lon="13.81642366759479045867919921875">
        <ele>228.399993896484375</ele>
        <time>2020-05-09T12:44:23.000Z</time>
        <extensions>
          <ns3:TrackPointExtension>
            <ns3:atemp>32.0</ns3:atemp>
            <ns3:hr>101</ns3:hr>
          </ns3:TrackPointExtension>
        </extensions>
      </trkpt>
      <trkpt lat="43.024947345256805419921875" lon="13.81642676889896392822265625">
        <ele>228.399993896484375</ele>
        <time>2020-05-09T12:44:29.000Z</time>
        <extensions>
          <ns3:TrackPointExtension>
            <ns3:atemp>32.0</ns3:atemp>
            <ns3:hr>106</ns3:hr>
          </ns3:TrackPointExtension>
        </extensions>
      </trkpt>
      <trkpt lat="43.024947345256805419921875" lon="13.81642484106123447418212890625">
        <ele>228.399993896484375</ele>
        <time>2020-05-09T12:44:31.000Z</time>
        <extensions>
          <ns3:TrackPointExtension>
            <ns3:atemp>32.0</ns3:atemp>
            <ns3:hr>110</ns3:hr>
          </ns3:TrackPointExtension>
        </extensions>
      </trkpt>
      <trkpt lat="43.02494776435196399688720703125" lon="13.81642417050898075103759765625">
        <ele>228.399993896484375</ele>
        <time>2020-05-09T12:44:35.000Z</time>
        <extensions>
          <ns3:TrackPointExtension>
            <ns3:atemp>32.0</ns3:atemp>
            <ns3:hr>109</ns3:hr>
          </ns3:TrackPointExtension>
        </extensions>
      </trkpt>
      <trkpt lat="43.024947680532932281494140625" lon="13.81642417050898075103759765625">
        <ele>228.399993896484375</ele>
        <time>2020-05-09T12:44:48.000Z</time>
        <extensions>
          <ns3:TrackPointExtension>
            <ns3:atemp>32.0</ns3:atemp>
            <ns3:hr>105</ns3:hr>
          </ns3:TrackPointExtension>
        </extensions>
      </trkpt>
      <trkpt lat="43.024947009980678558349609375" lon="13.81641964428126811981201171875">
        <ele>228.399993896484375</ele>
        <time>2020-05-09T12:44:54.000Z</time>
        <extensions>
          <ns3:TrackPointExtension>
            <ns3:atemp>31.0</ns3:atemp>
            <ns3:hr>110</ns3:hr>
          </ns3:TrackPointExtension>
        </extensions>
      </trkpt>
      <trkpt lat="43.0249460041522979736328125" lon="13.81641260348260402679443359375">
        <ele>228.399993896484375</ele>
        <time>2020-05-09T12:44:55.000Z</time>
        <extensions>
          <ns3:TrackPointExtension>
            <ns3:atemp>31.0</ns3:atemp>
            <ns3:hr>112</ns3:hr>
          </ns3:TrackPointExtension>
        </extensions>
      </trkpt>
      <trkpt lat="43.02494726143777370452880859375" lon="13.8163887150585651397705078125">
        <ele>228.399993896484375</ele>
        <time>2020-05-09T12:44:57.000Z</time>
        <extensions>
          <ns3:TrackPointExtension>
            <ns3:atemp>31.0</ns3:atemp>
            <ns3:hr>114</ns3:hr>
          </ns3:TrackPointExtension>
        </extensions>
      </trkpt>
      <trkpt lat="43.0249488539993762969970703125" lon="13.81637572310864925384521484375">
        <ele>228.399993896484375</ele>
        <time>2020-05-09T12:44:58.000Z</time>
        <extensions>
          <ns3:TrackPointExtension>
            <ns3:atemp>31.0</ns3:atemp>
            <ns3:hr>117</ns3:hr>
          </ns3:TrackPointExtension>
        </extensions>
      </trkpt>
      <trkpt lat="43.02495069801807403564453125" lon="13.81635560654103755950927734375">
        <ele>228.600006103515625</ele>
        <time>2020-05-09T12:44:59.000Z</time>
        <extensions>
          <ns3:TrackPointExtension>
            <ns3:atemp>31.0</ns3:atemp>
            <ns3:hr>120</ns3:hr>
          </ns3:TrackPointExtension>
        </extensions>
      </trkpt>
      <trkpt lat="43.02493586204946041107177734375" lon="13.81627430208027362823486328125">
        <ele>229.399993896484375</ele>
        <time>2020-05-09T12:45:02.000Z</time>
        <extensions>
          <ns3:TrackPointExtension>
            <ns3:atemp>31.0</ns3:atemp>
            <ns3:hr>121</ns3:hr>
          </ns3:TrackPointExtension>
        </extensions>
      </trkpt>
      <trkpt lat="43.02492060698568820953369140625" lon="13.81621353328227996826171875">
        <ele>229.600006103515625</ele>
        <time>2020-05-09T12:45:04.000Z</time>
        <extensions>
          <ns3:TrackPointExtension>
            <ns3:atemp>31.0</ns3:atemp>
            <ns3:hr>121</ns3:hr>
          </ns3:TrackPointExtension>
        </extensions>
      </trkpt>
      <trkpt lat="43.02491960115730762481689453125" lon="13.8161141239106655120849609375">
        <ele>229.600006103515625</ele>
        <time>2020-05-09T12:45:07.000Z</time>
        <extensions>
          <ns3:TrackPointExtension>
            <ns3:atemp>31.0</ns3:atemp>
            <ns3:hr>120</ns3:hr>
          </ns3:TrackPointExtension>
        </extensions>
      </trkpt>
      <trkpt lat="43.024915494024753570556640625" lon="13.81603508256375789642333984375">
        <ele>229.8000030517578125</ele>
        <time>2020-05-09T12:45:09.000Z</time>
        <extensions>
          <ns3:TrackPointExtension>
            <ns3:atemp>31.0</ns3:atemp>
            <ns3:hr>122</ns3:hr>
          </ns3:TrackPointExtension>
        </extensions>
      </trkpt>
      <trkpt lat="43.02491524256765842437744140625" lon="13.81582318805158138275146484375">
        <ele>230.600006103515625</ele>
        <time>2020-05-09T12:45:15.000Z</time>
        <extensions>
          <ns3:TrackPointExtension>
            <ns3:atemp>32.0</ns3:atemp>
            <ns3:hr>120</ns3:hr>
          </ns3:TrackPointExtension>
        </extensions>
      </trkpt>
      <trkpt lat="43.024919517338275909423828125" lon="13.81575361825525760650634765625">
        <ele>230.8000030517578125</ele>
        <time>2020-05-09T12:45:17.000Z</time>
        <extensions>
          <ns3:TrackPointExtension>
            <ns3:atemp>32.0</ns3:atemp>
            <ns3:hr>119</ns3:hr>
          </ns3:TrackPointExtension>
        </extensions>
      </trkpt>
      <trkpt lat="43.0249371193349361419677734375" lon="13.81557189859449863433837890625">
        <ele>230.600006103515625</ele>
        <time>2020-05-09T12:45:23.000Z</time>
        <extensions>
          <ns3:TrackPointExtension>
            <ns3:atemp>32.0</ns3:atemp>
            <ns3:hr>119</ns3:hr>
          </ns3:TrackPointExtension>
        </extensions>
      </trkpt>
      <trkpt lat="43.0249344371259212493896484375" lon="13.8153302483260631561279296875">
        <ele>230.600006103515625</ele>
        <time>2020-05-09T12:45:30.000Z</time>
        <extensions>
          <ns3:TrackPointExtension>
            <ns3:atemp>32.0</ns3:atemp>
            <ns3:hr>119</ns3:hr>
          </ns3:TrackPointExtension>
        </extensions>
      </trkpt>
      <trkpt lat="43.02492043934762477874755859375" lon="13.8151210360229015350341796875">
        <ele>230.399993896484375</ele>
        <time>2020-05-09T12:45:37.000Z</time>
        <extensions>
          <ns3:TrackPointExtension>
            <ns3:atemp>32.0</ns3:atemp>
            <ns3:hr>117</ns3:hr>
          </ns3:TrackPointExtension>
        </extensions>
      </trkpt>
      <trkpt lat="43.02489948458969593048095703125" lon="13.8150117360055446624755859375">
        <ele>230.1999969482421875</ele>
        <time>2020-05-09T12:45:40.000Z</time>
        <extensions>
          <ns3:TrackPointExtension>
            <ns3:atemp>32.0</ns3:atemp>
            <ns3:hr>114</ns3:hr>
          </ns3:TrackPointExtension>
        </extensions>
      </trkpt>
      <trkpt lat="43.0248682200908660888671875" lon="13.814873434603214263916015625">
        <ele>229.399993896484375</ele>
        <time>2020-05-09T12:45:43.000Z</time>
        <extensions>
          <ns3:TrackPointExtension>
            <ns3:atemp>32.0</ns3:atemp>
            <ns3:hr>114</ns3:hr>
          </ns3:TrackPointExtension>
        </extensions>
      </trkpt>
      <trkpt lat="43.0247875861823558807373046875" lon="13.8144962489604949951171875">
        <ele>228.1999969482421875</ele>
        <time>2020-05-09T12:45:49.000Z</time>
        <extensions>
          <ns3:TrackPointExtension>
            <ns3:atemp>32.0</ns3:atemp>
            <ns3:hr>114</ns3:hr>
          </ns3:TrackPointExtension>
        </extensions>
      </trkpt>
      <trkpt lat="43.0247198604047298431396484375" lon="13.8142412714660167694091796875">
        <ele>228.399993896484375</ele>
        <time>2020-05-09T12:45:53.000Z</time>
        <extensions>
          <ns3:TrackPointExtension>
            <ns3:atemp>32.0</ns3:atemp>
            <ns3:hr>111</ns3:hr>
          </ns3:TrackPointExtension>
        </extensions>
      </trkpt>
      <trkpt lat="43.0246705748140811920166015625" lon="13.8140199892222881317138671875">
        <ele>228.600006103515625</ele>
        <time>2020-05-09T12:45:57.000Z</time>
        <extensions>
          <ns3:TrackPointExtension>
            <ns3:atemp>32.0</ns3:atemp>
            <ns3:hr>110</ns3:hr>
          </ns3:TrackPointExtension>
        </extensions>
      </trkpt>
      <trkpt lat="43.02462288178503513336181640625" lon="13.8137913309037685394287109375">
        <ele>228</ele>
        <time>2020-05-09T12:46:02.000Z</time>
        <extensions>
          <ns3:TrackPointExtension>
            <ns3:atemp>32.0</ns3:atemp>
            <ns3:hr>109</ns3:hr>
          </ns3:TrackPointExtension>
        </extensions>
      </trkpt>
      <trkpt lat="43.02456890232861042022705078125" lon="13.81353191100060939788818359375">
        <ele>229.1999969482421875</ele>
        <time>2020-05-09T12:46:08.000Z</time>
        <extensions>
          <ns3:TrackPointExtension>
            <ns3:atemp>32.0</ns3:atemp>
            <ns3:hr>109</ns3:hr>
          </ns3:TrackPointExtension>
        </extensions>
      </trkpt>
      <trkpt lat="43.02455599419772624969482421875" lon="13.8134877383708953857421875">
        <ele>229.1999969482421875</ele>
        <time>2020-05-09T12:46:09.000Z</time>
        <extensions>
          <ns3:TrackPointExtension>
            <ns3:atemp>32.0</ns3:atemp>
            <ns3:hr>109</ns3:hr>
          </ns3:TrackPointExtension>
        </extensions>
      </trkpt>
      <trkpt lat="43.02450603805482387542724609375" lon="13.813355304300785064697265625">
        <ele>229.399993896484375</ele>
        <time>2020-05-09T12:46:12.000Z</time>
        <extensions>
          <ns3:TrackPointExtension>
            <ns3:atemp>32.0</ns3:atemp>
            <ns3:hr>112</ns3:hr>
          </ns3:TrackPointExtension>
        </extensions>
      </trkpt>
      <trkpt lat="43.0244771204888820648193359375" lon="13.81326846778392791748046875">
        <ele>229.600006103515625</ele>
        <time>2020-05-09T12:46:14.000Z</time>
        <extensions>
          <ns3:TrackPointExtension>
            <ns3:atemp>32.0</ns3:atemp>
            <ns3:hr>117</ns3:hr>
          </ns3:TrackPointExtension>
        </extensions>
      </trkpt>
      <trkpt lat="43.02446387708187103271484375" lon="13.81322563625872135162353515625">
        <ele>229.8000030517578125</ele>
        <time>2020-05-09T12:46:15.000Z</time>
        <extensions>
          <ns3:TrackPointExtension>
            <ns3:atemp>32.0</ns3:atemp>
            <ns3:hr>120</ns3:hr>
          </ns3:TrackPointExtension>
        </extensions>
      </trkpt>
      <trkpt lat="43.02439791150391101837158203125" lon="13.8130104728043079376220703125">
        <ele>230.399993896484375</ele>
        <time>2020-05-09T12:46:20.000Z</time>
        <extensions>
          <ns3:TrackPointExtension>
            <ns3:atemp>32.0</ns3:atemp>
            <ns3:hr>119</ns3:hr>
          </ns3:TrackPointExtension>
        </extensions>
      </trkpt>
      <trkpt lat="43.02437092177569866180419921875" lon="13.81292372010648250579833984375">
        <ele>231</ele>
        <time>2020-05-09T12:46:22.000Z</time>
        <extensions>
          <ns3:TrackPointExtension>
            <ns3:atemp>32.0</ns3:atemp>
            <ns3:hr>117</ns3:hr>
          </ns3:TrackPointExtension>
        </extensions>
      </trkpt>
      <trkpt lat="43.02432398311793804168701171875" lon="13.8126575946807861328125">
        <ele>231.399993896484375</ele>
        <time>2020-05-09T12:46:28.000Z</time>
        <extensions>
          <ns3:TrackPointExtension>
            <ns3:atemp>32.0</ns3:atemp>
            <ns3:hr>121</ns3:hr>
          </ns3:TrackPointExtension>
        </extensions>
      </trkpt>
      <trkpt lat="43.024311326444149017333984375" lon="13.81261325441300868988037109375">
        <ele>231.399993896484375</ele>
        <time>2020-05-09T12:46:29.000Z</time>
        <extensions>
          <ns3:TrackPointExtension>
            <ns3:atemp>32.0</ns3:atemp>
            <ns3:hr>122</ns3:hr>
          </ns3:TrackPointExtension>
        </extensions>
      </trkpt>
      <trkpt lat="43.02426497451961040496826171875" lon="13.8124183751642704010009765625">
        <ele>232</ele>
        <time>2020-05-09T12:46:33.000Z</time>
        <extensions>
          <ns3:TrackPointExtension>
            <ns3:atemp>32.0</ns3:atemp>
            <ns3:hr>125</ns3:hr>
          </ns3:TrackPointExtension>
        </extensions>
      </trkpt>
      <trkpt lat="43.02423563785851001739501953125" lon="13.812258951365947723388671875">
        <ele>231.8000030517578125</ele>
        <time>2020-05-09T12:46:36.000Z</time>
        <extensions>
          <ns3:TrackPointExtension>
            <ns3:atemp>32.0</ns3:atemp>
            <ns3:hr>125</ns3:hr>
          </ns3:TrackPointExtension>
        </extensions>
      </trkpt>
      <trkpt lat="43.0242062173783779144287109375" lon="13.81209776736795902252197265625">
        <ele>232.399993896484375</ele>
        <time>2020-05-09T12:46:39.000Z</time>
        <extensions>
          <ns3:TrackPointExtension>
            <ns3:atemp>32.0</ns3:atemp>
            <ns3:hr>128</ns3:hr>
          </ns3:TrackPointExtension>
        </extensions>
      </trkpt>
      <trkpt lat="43.02418383769690990447998046875" lon="13.81199701689183712005615234375">
        <ele>232.600006103515625</ele>
        <time>2020-05-09T12:46:41.000Z</time>
        <extensions>
          <ns3:TrackPointExtension>
            <ns3:atemp>32.0</ns3:atemp>
            <ns3:hr>127</ns3:hr>
          </ns3:TrackPointExtension>
        </extensions>
      </trkpt>
      <trkpt lat="43.0241502262651920318603515625" lon="13.811894841492176055908203125">
        <ele>232.8000030517578125</ele>
        <time>2020-05-09T12:46:43.000Z</time>
        <extensions>
          <ns3:TrackPointExtension>
            <ns3:atemp>32.0</ns3:atemp>
            <ns3:hr>129</ns3:hr>
          </ns3:TrackPointExtension>
        </extensions>
      </trkpt>
      <trkpt lat="43.0240084044635295867919921875" lon="13.81142905913293361663818359375">
        <ele>233.600006103515625</ele>
        <time>2020-05-09T12:46:52.000Z</time>
        <extensions>
          <ns3:TrackPointExtension>
            <ns3:atemp>32.0</ns3:atemp>
            <ns3:hr>128</ns3:hr>
          </ns3:TrackPointExtension>
        </extensions>
      </trkpt>
      <trkpt lat="43.0239748768508434295654296875" lon="13.81132252514362335205078125">
        <ele>233.8000030517578125</ele>
        <time>2020-05-09T12:46:54.000Z</time>
        <extensions>
          <ns3:TrackPointExtension>
            <ns3:atemp>32.0</ns3:atemp>
            <ns3:hr>130</ns3:hr>
          </ns3:TrackPointExtension>
        </extensions>
      </trkpt>
      <trkpt lat="43.0239379964768886566162109375" lon="13.81121649406850337982177734375">
        <ele>234.1999969482421875</ele>
        <time>2020-05-09T12:46:56.000Z</time>
        <extensions>
          <ns3:TrackPointExtension>
            <ns3:atemp>32.0</ns3:atemp>
            <ns3:hr>133</ns3:hr>
          </ns3:TrackPointExtension>
        </extensions>
      </trkpt>
      <trkpt lat="43.02391000092029571533203125" lon="13.811111636459827423095703125">
        <ele>234.8000030517578125</ele>
        <time>2020-05-09T12:46:58.000Z</time>
        <extensions>
          <ns3:TrackPointExtension>
            <ns3:atemp>32.0</ns3:atemp>
            <ns3:hr>138</ns3:hr>
          </ns3:TrackPointExtension>
        </extensions>
      </trkpt>
      <trkpt lat="43.02388091571629047393798828125" lon="13.81100744940340518951416015625">
        <ele>234.8000030517578125</ele>
        <time>2020-05-09T12:47:00.000Z</time>
        <extensions>
          <ns3:TrackPointExtension>
            <ns3:atemp>32.0</ns3:atemp>
            <ns3:hr>140</ns3:hr>
          </ns3:TrackPointExtension>
        </extensions>
      </trkpt>
      <trkpt lat="43.023756779730319976806640625" lon="13.81059790961444377899169921875">
        <ele>235.1999969482421875</ele>
        <time>2020-05-09T12:47:08.000Z</time>
        <extensions>
          <ns3:TrackPointExtension>
            <ns3:atemp>32.0</ns3:atemp>
            <ns3:hr>142</ns3:hr>
          </ns3:TrackPointExtension>
        </extensions>
      </trkpt>
      <trkpt lat="43.0237173847854137420654296875" lon="13.8104603625833988189697265625">
        <ele>235.8000030517578125</ele>
        <time>2020-05-09T12:47:11.000Z</time>
        <extensions>
          <ns3:TrackPointExtension>
            <ns3:atemp>32.0</ns3:atemp>
            <ns3:hr>142</ns3:hr>
          </ns3:TrackPointExtension>
        </extensions>
      </trkpt>
      <trkpt lat="43.0236456356942653656005859375" lon="13.8102923892438411712646484375">
        <ele>236.8000030517578125</ele>
        <time>2020-05-09T12:47:15.000Z</time>
        <extensions>
          <ns3:TrackPointExtension>
            <ns3:atemp>32.0</ns3:atemp>
            <ns3:hr>143</ns3:hr>
          </ns3:TrackPointExtension>
        </extensions>
      </trkpt>
      <trkpt lat="43.0236241780221462249755859375" lon="13.8102528266608715057373046875">
        <ele>237.1999969482421875</ele>
        <time>2020-05-09T12:47:16.000Z</time>
        <extensions>
          <ns3:TrackPointExtension>
            <ns3:atemp>32.0</ns3:atemp>
            <ns3:hr>145</ns3:hr>
          </ns3:TrackPointExtension>
        </extensions>
      </trkpt>
      <trkpt lat="43.02354346029460430145263671875" lon="13.81008711643517017364501953125">
        <ele>238</ele>
        <time>2020-05-09T12:47:20.000Z</time>
        <extensions>
          <ns3:TrackPointExtension>
            <ns3:atemp>32.0</ns3:atemp>
            <ns3:hr>148</ns3:hr>
          </ns3:TrackPointExtension>
        </extensions>
      </trkpt>
      <trkpt lat="43.02351010031998157501220703125" lon="13.8100010342895984649658203125">
        <ele>237.8000030517578125</ele>
        <time>2020-05-09T12:47:22.000Z</time>
        <extensions>
          <ns3:TrackPointExtension>
            <ns3:atemp>32.0</ns3:atemp>
            <ns3:hr>149</ns3:hr>
          </ns3:TrackPointExtension>
        </extensions>
      </trkpt>
      <trkpt lat="43.02345729433000087738037109375" lon="13.80981378257274627685546875">
        <ele>238.1999969482421875</ele>
        <time>2020-05-09T12:47:26.000Z</time>
        <extensions>
          <ns3:TrackPointExtension>
            <ns3:atemp>32.0</ns3:atemp>
            <ns3:hr>150</ns3:hr>
          </ns3:TrackPointExtension>
        </extensions>
      </trkpt>
      <trkpt lat="43.0233925022184848785400390625" lon="13.80956777371466159820556640625">
        <ele>239.600006103515625</ele>
        <time>2020-05-09T12:47:31.000Z</time>
        <extensions>
          <ns3:TrackPointExtension>
            <ns3:atemp>32.0</ns3:atemp>
            <ns3:hr>152</ns3:hr>
          </ns3:TrackPointExtension>
        </extensions>
      </trkpt>
      <trkpt lat="43.02333240397274494171142578125" lon="13.80935839377343654632568359375">
        <ele>240.600006103515625</ele>
        <time>2020-05-09T12:47:35.000Z</time>
        <extensions>
          <ns3:TrackPointExtension>
            <ns3:atemp>32.0</ns3:atemp>
            <ns3:hr>153</ns3:hr>
          </ns3:TrackPointExtension>
        </extensions>
      </trkpt>
      <trkpt lat="43.0232835374772548675537109375" lon="13.8091554678976535797119140625">
        <ele>241.1999969482421875</ele>
        <time>2020-05-09T12:47:39.000Z</time>
        <extensions>
          <ns3:TrackPointExtension>
            <ns3:atemp>32.0</ns3:atemp>
            <ns3:hr>154</ns3:hr>
          </ns3:TrackPointExtension>
        </extensions>
      </trkpt>
      <trkpt lat="43.02323274314403533935546875" lon="13.8089472614228725433349609375">
        <ele>241.8000030517578125</ele>
        <time>2020-05-09T12:47:43.000Z</time>
        <extensions>
          <ns3:TrackPointExtension>
            <ns3:atemp>31.0</ns3:atemp>
            <ns3:hr>154</ns3:hr>
          </ns3:TrackPointExtension>
        </extensions>
      </trkpt>
      <trkpt lat="43.023179434239864349365234375" lon="13.8087437488138675689697265625">
        <ele>242.8000030517578125</ele>
        <time>2020-05-09T12:47:47.000Z</time>
        <extensions>
          <ns3:TrackPointExtension>
            <ns3:atemp>31.0</ns3:atemp>
            <ns3:hr>155</ns3:hr>
          </ns3:TrackPointExtension>
        </extensions>
      </trkpt>
      <trkpt lat="43.02316971123218536376953125" lon="13.8086946308612823486328125">
        <ele>243</ele>
        <time>2020-05-09T12:47:48.000Z</time>
        <extensions>
          <ns3:TrackPointExtension>
            <ns3:atemp>31.0</ns3:atemp>
            <ns3:hr>155</ns3:hr>
          </ns3:TrackPointExtension>
        </extensions>
      </trkpt>
      <trkpt lat="43.023108355700969696044921875" lon="13.808371759951114654541015625">
        <ele>244</ele>
        <time>2020-05-09T12:47:55.000Z</time>
        <extensions>
          <ns3:TrackPointExtension>
            <ns3:atemp>31.0</ns3:atemp>
            <ns3:hr>154</ns3:hr>
          </ns3:TrackPointExtension>
        </extensions>
      </trkpt>
      <trkpt lat="43.0230998061597347259521484375" lon="13.80832306109368801116943359375">
        <ele>244</ele>
        <time>2020-05-09T12:47:56.000Z</time>
        <extensions>
          <ns3:TrackPointExtension>
            <ns3:atemp>31.0</ns3:atemp>
            <ns3:hr>154</ns3:hr>
          </ns3:TrackPointExtension>
        </extensions>
      </trkpt>
      <trkpt lat="43.02305915392935276031494140625" lon="13.80806908942759037017822265625">
        <ele>243</ele>
        <time>2020-05-09T12:48:01.000Z</time>
        <extensions>
          <ns3:TrackPointExtension>
            <ns3:atemp>31.0</ns3:atemp>
            <ns3:hr>153</ns3:hr>
          </ns3:TrackPointExtension>
        </extensions>
      </trkpt>
      <trkpt lat="43.023050017654895782470703125" lon="13.8080078177154064178466796875">
        <ele>243</ele>
        <time>2020-05-09T12:48:02.000Z</time>
        <extensions>
          <ns3:TrackPointExtension>
            <ns3:atemp>31.0</ns3:atemp>
            <ns3:hr>153</ns3:hr>
          </ns3:TrackPointExtension>
        </extensions>
      </trkpt>
      <trkpt lat="43.0230374448001384735107421875" lon="13.8079454563558101654052734375">
        <ele>242.8000030517578125</ele>
        <time>2020-05-09T12:48:03.000Z</time>
        <extensions>
          <ns3:TrackPointExtension>
            <ns3:atemp>31.0</ns3:atemp>
            <ns3:hr>152</ns3:hr>
          </ns3:TrackPointExtension>
        </extensions>
      </trkpt>
      <trkpt lat="43.02298405207693576812744140625" lon="13.807630799710750579833984375">
        <ele>241.600006103515625</ele>
        <time>2020-05-09T12:48:07.000Z</time>
        <extensions>
          <ns3:TrackPointExtension>
            <ns3:atemp>32.0</ns3:atemp>
            <ns3:hr>151</ns3:hr>
          </ns3:TrackPointExtension>
        </extensions>
      </trkpt>
      <trkpt lat="43.0229613371193408966064453125" lon="13.80746073089540004730224609375">
        <ele>240</ele>
        <time>2020-05-09T12:48:09.000Z</time>
        <extensions>
          <ns3:TrackPointExtension>
            <ns3:atemp>32.0</ns3:atemp>
            <ns3:hr>151</ns3:hr>
          </ns3:TrackPointExtension>
        </extensions>
      </trkpt>
      <trkpt lat="43.0229335092008113861083984375" lon="13.8073037378489971160888671875">
        <ele>238.8000030517578125</ele>
        <time>2020-05-09T12:48:11.000Z</time>
        <extensions>
          <ns3:TrackPointExtension>
            <ns3:atemp>32.0</ns3:atemp>
            <ns3:hr>151</ns3:hr>
          </ns3:TrackPointExtension>
        </extensions>
      </trkpt>
      <trkpt lat="43.02290392108261585235595703125" lon="13.80715713836252689361572265625">
        <ele>238.399993896484375</ele>
        <time>2020-05-09T12:48:13.000Z</time>
        <extensions>
          <ns3:TrackPointExtension>
            <ns3:atemp>32.0</ns3:atemp>
            <ns3:hr>151</ns3:hr>
          </ns3:TrackPointExtension>
        </extensions>
      </trkpt>
      <trkpt lat="43.0228701420128345489501953125" lon="13.806888163089752197265625">
        <ele>239.600006103515625</ele>
        <time>2020-05-09T12:48:17.000Z</time>
        <extensions>
          <ns3:TrackPointExtension>
            <ns3:atemp>32.0</ns3:atemp>
            <ns3:hr>148</ns3:hr>
          </ns3:TrackPointExtension>
        </extensions>
      </trkpt>
      <trkpt lat="43.02285966463387012481689453125" lon="13.80682982504367828369140625">
        <ele>240</ele>
        <time>2020-05-09T12:48:18.000Z</time>
        <extensions>
          <ns3:TrackPointExtension>
            <ns3:atemp>32.0</ns3:atemp>
            <ns3:hr>146</ns3:hr>
          </ns3:TrackPointExtension>
        </extensions>
      </trkpt>
      <trkpt lat="43.0228503607213497161865234375" lon="13.80677307955920696258544921875">
        <ele>240.399993896484375</ele>
        <time>2020-05-09T12:48:19.000Z</time>
        <extensions>
          <ns3:TrackPointExtension>
            <ns3:atemp>32.0</ns3:atemp>
            <ns3:hr>142</ns3:hr>
          </ns3:TrackPointExtension>
        </extensions>
      </trkpt>
      <trkpt lat="43.0228352732956409454345703125" lon="13.806666545569896697998046875">
        <ele>240.600006103515625</ele>
        <time>2020-05-09T12:48:21.000Z</time>
        <extensions>
          <ns3:TrackPointExtension>
            <ns3:atemp>32.0</ns3:atemp>
            <ns3:hr>136</ns3:hr>
          </ns3:TrackPointExtension>
        </extensions>
      </trkpt>
      <trkpt lat="43.0228190124034881591796875" lon="13.806500248610973358154296875">
        <ele>241</ele>
        <time>2020-05-09T12:48:24.000Z</time>
        <extensions>
          <ns3:TrackPointExtension>
            <ns3:atemp>32.0</ns3:atemp>
            <ns3:hr>134</ns3:hr>
          </ns3:TrackPointExtension>
        </extensions>
      </trkpt>
      <trkpt lat="43.022810630500316619873046875" lon="13.80645222030580043792724609375">
        <ele>241.1999969482421875</ele>
        <time>2020-05-09T12:48:25.000Z</time>
        <extensions>
          <ns3:TrackPointExtension>
            <ns3:atemp>32.0</ns3:atemp>
            <ns3:hr>134</ns3:hr>
          </ns3:TrackPointExtension>
        </extensions>
      </trkpt>
      <trkpt lat="43.02277274429798126220703125" lon="13.80615164525806903839111328125">
        <ele>241.600006103515625</ele>
        <time>2020-05-09T12:48:30.000Z</time>
        <extensions>
          <ns3:TrackPointExtension>
            <ns3:atemp>32.0</ns3:atemp>
            <ns3:hr>135</ns3:hr>
          </ns3:TrackPointExtension>
        </extensions>
      </trkpt>
      <trkpt lat="43.02274248562753200531005859375" lon="13.806024827063083648681640625">
        <ele>240.8000030517578125</ele>
        <time>2020-05-09T12:48:32.000Z</time>
        <extensions>
          <ns3:TrackPointExtension>
            <ns3:atemp>32.0</ns3:atemp>
            <ns3:hr>134</ns3:hr>
          </ns3:TrackPointExtension>
        </extensions>
      </trkpt>
      <trkpt lat="43.0226773582398891448974609375" lon="13.805851154029369354248046875">
        <ele>240</ele>
        <time>2020-05-09T12:48:35.000Z</time>
        <extensions>
          <ns3:TrackPointExtension>
            <ns3:atemp>32.0</ns3:atemp>
            <ns3:hr>133</ns3:hr>
          </ns3:TrackPointExtension>
        </extensions>
      </trkpt>
      <trkpt lat="43.0225854925811290740966796875" lon="13.80565962754189968109130859375">
        <ele>238.8000030517578125</ele>
        <time>2020-05-09T12:48:38.000Z</time>
        <extensions>
          <ns3:TrackPointExtension>
            <ns3:atemp>32.0</ns3:atemp>
            <ns3:hr>131</ns3:hr>
          </ns3:TrackPointExtension>
        </extensions>
      </trkpt>
      <trkpt lat="43.02254282869398593902587890625" lon="13.8055966794490814208984375">
        <ele>238.600006103515625</ele>
        <time>2020-05-09T12:48:39.000Z</time>
        <extensions>
          <ns3:TrackPointExtension>
            <ns3:atemp>32.0</ns3:atemp>
            <ns3:hr>131</ns3:hr>
          </ns3:TrackPointExtension>
        </extensions>
      </trkpt>
      <trkpt lat="43.0224461853504180908203125" lon="13.805466592311859130859375">
        <ele>237.8000030517578125</ele>
        <time>2020-05-09T12:48:41.000Z</time>
        <extensions>
          <ns3:TrackPointExtension>
            <ns3:atemp>31.0</ns3:atemp>
            <ns3:hr>131</ns3:hr>
          </ns3:TrackPointExtension>
        </extensions>
      </trkpt>
      <trkpt lat="43.0223122425377368927001953125" lon="13.80523181520402431488037109375">
        <ele>236.600006103515625</ele>
        <time>2020-05-09T12:48:44.000Z</time>
        <extensions>
          <ns3:TrackPointExtension>
            <ns3:atemp>31.0</ns3:atemp>
            <ns3:hr>130</ns3:hr>
          </ns3:TrackPointExtension>
        </extensions>
      </trkpt>
      <trkpt lat="43.02215742878615856170654296875" lon="13.8048899173736572265625">
        <ele>236.600006103515625</ele>
        <time>2020-05-09T12:48:49.000Z</time>
        <extensions>
          <ns3:TrackPointExtension>
            <ns3:atemp>31.0</ns3:atemp>
            <ns3:hr>130</ns3:hr>
          </ns3:TrackPointExtension>
        </extensions>
      </trkpt>
      <trkpt lat="43.02206589840352535247802734375" lon="13.8047479279339313507080078125">
        <ele>236.600006103515625</ele>
        <time>2020-05-09T12:48:52.000Z</time>
        <extensions>
          <ns3:TrackPointExtension>
            <ns3:atemp>31.0</ns3:atemp>
            <ns3:hr>127</ns3:hr>
          </ns3:TrackPointExtension>
        </extensions>
      </trkpt>
      <trkpt lat="43.02200839854776859283447265625" lon="13.80466838367283344268798828125">
        <ele>236.8000030517578125</ele>
        <time>2020-05-09T12:48:54.000Z</time>
        <extensions>
          <ns3:TrackPointExtension>
            <ns3:atemp>31.0</ns3:atemp>
            <ns3:hr>128</ns3:hr>
          </ns3:TrackPointExtension>
        </extensions>
      </trkpt>
      <trkpt lat="43.02186640910804271697998046875" lon="13.80446277558803558349609375">
        <ele>236.8000030517578125</ele>
        <time>2020-05-09T12:48:59.000Z</time>
        <extensions>
          <ns3:TrackPointExtension>
            <ns3:atemp>31.0</ns3:atemp>
            <ns3:hr>124</ns3:hr>
          </ns3:TrackPointExtension>
        </extensions>
      </trkpt>
      <trkpt lat="43.0218426883220672607421875" lon="13.8044200278818607330322265625">
        <ele>237</ele>
        <time>2020-05-09T12:49:00.000Z</time>
        <extensions>
          <ns3:TrackPointExtension>
            <ns3:atemp>31.0</ns3:atemp>
            <ns3:hr>121</ns3:hr>
          </ns3:TrackPointExtension>
        </extensions>
      </trkpt>
      <trkpt lat="43.0218190513551235198974609375" lon="13.8043794594705104827880859375">
        <ele>237</ele>
        <time>2020-05-09T12:49:01.000Z</time>
        <extensions>
          <ns3:TrackPointExtension>
            <ns3:atemp>31.0</ns3:atemp>
            <ns3:hr>119</ns3:hr>
          </ns3:TrackPointExtension>
        </extensions>
      </trkpt>
      <trkpt lat="43.02173674106597900390625" lon="13.80425364710390567779541015625">
        <ele>237.399993896484375</ele>
        <time>2020-05-09T12:49:04.000Z</time>
        <extensions>
          <ns3:TrackPointExtension>
            <ns3:atemp>32.0</ns3:atemp>
            <ns3:hr>116</ns3:hr>
          </ns3:TrackPointExtension>
        </extensions>
      </trkpt>
      <trkpt lat="43.0216634832322597503662109375" lon="13.80409254692494869232177734375">
        <ele>237.8000030517578125</ele>
        <time>2020-05-09T12:49:08.000Z</time>
        <extensions>
          <ns3:TrackPointExtension>
            <ns3:atemp>32.0</ns3:atemp>
            <ns3:hr>117</ns3:hr>
          </ns3:TrackPointExtension>
        </extensions>
      </trkpt>
      <trkpt lat="43.021594583988189697265625" lon="13.803971596062183380126953125">
        <ele>238.8000030517578125</ele>
        <time>2020-05-09T12:49:12.000Z</time>
        <extensions>
          <ns3:TrackPointExtension>
            <ns3:atemp>32.0</ns3:atemp>
            <ns3:hr>118</ns3:hr>
          </ns3:TrackPointExtension>
        </extensions>
      </trkpt>
      <trkpt lat="43.0215709470212459564208984375" lon="13.80394016392529010772705078125">
        <ele>238.8000030517578125</ele>
        <time>2020-05-09T12:49:13.000Z</time>
        <extensions>
          <ns3:TrackPointExtension>
            <ns3:atemp>32.0</ns3:atemp>
            <ns3:hr>118</ns3:hr>
          </ns3:TrackPointExtension>
        </extensions>
      </trkpt>
      <trkpt lat="43.0215025506913661956787109375" lon="13.80385366268455982208251953125">
        <ele>239.1999969482421875</ele>
        <time>2020-05-09T12:49:16.000Z</time>
        <extensions>
          <ns3:TrackPointExtension>
            <ns3:atemp>31.0</ns3:atemp>
            <ns3:hr>121</ns3:hr>
          </ns3:TrackPointExtension>
        </extensions>
      </trkpt>
      <trkpt lat="43.02146441303193569183349609375" lon="13.80379222333431243896484375">
        <ele>239.399993896484375</ele>
        <time>2020-05-09T12:49:18.000Z</time>
        <extensions>
          <ns3:TrackPointExtension>
            <ns3:atemp>31.0</ns3:atemp>
            <ns3:hr>126</ns3:hr>
          </ns3:TrackPointExtension>
        </extensions>
      </trkpt>
      <trkpt lat="43.02143088541924953460693359375" lon="13.8037404231727123260498046875">
        <ele>239.8000030517578125</ele>
        <time>2020-05-09T12:49:20.000Z</time>
        <extensions>
          <ns3:TrackPointExtension>
            <ns3:atemp>31.0</ns3:atemp>
            <ns3:hr>129</ns3:hr>
          </ns3:TrackPointExtension>
        </extensions>
      </trkpt>
      <trkpt lat="43.02141076885163784027099609375" lon="13.8037132658064365386962890625">
        <ele>240.1999969482421875</ele>
        <time>2020-05-09T12:49:21.000Z</time>
        <extensions>
          <ns3:TrackPointExtension>
            <ns3:atemp>31.0</ns3:atemp>
            <ns3:hr>130</ns3:hr>
          </ns3:TrackPointExtension>
        </extensions>
      </trkpt>
      <trkpt lat="43.0213687755167484283447265625" lon="13.8036673329770565032958984375">
        <ele>241.600006103515625</ele>
        <time>2020-05-09T12:49:23.000Z</time>
        <extensions>
          <ns3:TrackPointExtension>
            <ns3:atemp>31.0</ns3:atemp>
            <ns3:hr>131</ns3:hr>
          </ns3:TrackPointExtension>
        </extensions>
      </trkpt>
      <trkpt lat="43.02130222320556640625" lon="13.8036016188561916351318359375">
        <ele>243</ele>
        <time>2020-05-09T12:49:26.000Z</time>
        <extensions>
          <ns3:TrackPointExtension>
            <ns3:atemp>31.0</ns3:atemp>
            <ns3:hr>132</ns3:hr>
          </ns3:TrackPointExtension>
        </extensions>
      </trkpt>
      <trkpt lat="43.0212531052529811859130859375" lon="13.80355794914066791534423828125">
        <ele>243.600006103515625</ele>
        <time>2020-05-09T12:49:28.000Z</time>
        <extensions>
          <ns3:TrackPointExtension>
            <ns3:atemp>31.0</ns3:atemp>
            <ns3:hr>136</ns3:hr>
          </ns3:TrackPointExtension>
        </extensions>
      </trkpt>
      <trkpt lat="43.0212065018713474273681640625" lon="13.8035104237496852874755859375">
        <ele>244.1999969482421875</ele>
        <time>2020-05-09T12:49:30.000Z</time>
        <extensions>
          <ns3:TrackPointExtension>
            <ns3:atemp>31.0</ns3:atemp>
            <ns3:hr>139</ns3:hr>
          </ns3:TrackPointExtension>
        </extensions>
      </trkpt>
      <trkpt lat="43.02116299979388713836669921875" lon="13.80346541292965412139892578125">
        <ele>245.1999969482421875</ele>
        <time>2020-05-09T12:49:32.000Z</time>
        <extensions>
          <ns3:TrackPointExtension>
            <ns3:atemp>31.0</ns3:atemp>
            <ns3:hr>142</ns3:hr>
          </ns3:TrackPointExtension>
        </extensions>
      </trkpt>
      <trkpt lat="43.0211391113698482513427734375" lon="13.80344395525753498077392578125">
        <ele>245.399993896484375</ele>
        <time>2020-05-09T12:49:33.000Z</time>
        <extensions>
          <ns3:TrackPointExtension>
            <ns3:atemp>31.0</ns3:atemp>
            <ns3:hr>144</ns3:hr>
          </ns3:TrackPointExtension>
        </extensions>
      </trkpt>
      <trkpt lat="43.02106861956417560577392578125" lon="13.8033999502658843994140625">
        <ele>246.600006103515625</ele>
        <time>2020-05-09T12:49:36.000Z</time>
        <extensions>
          <ns3:TrackPointExtension>
            <ns3:atemp>31.0</ns3:atemp>
            <ns3:hr>146</ns3:hr>
          </ns3:TrackPointExtension>
        </extensions>
      </trkpt>
      <trkpt lat="43.02100307308137416839599609375" lon="13.80335611291229724884033203125">
        <ele>248</ele>
        <time>2020-05-09T12:49:39.000Z</time>
        <extensions>
          <ns3:TrackPointExtension>
            <ns3:atemp>31.0</ns3:atemp>
            <ns3:hr>149</ns3:hr>
          </ns3:TrackPointExtension>
        </extensions>
      </trkpt>
      <trkpt lat="43.0209362693130970001220703125" lon="13.8033129461109638214111328125">
        <ele>248.8000030517578125</ele>
        <time>2020-05-09T12:49:42.000Z</time>
        <extensions>
          <ns3:TrackPointExtension>
            <ns3:atemp>31.0</ns3:atemp>
            <ns3:hr>153</ns3:hr>
          </ns3:TrackPointExtension>
        </extensions>
      </trkpt>
      <trkpt lat="43.0208985507488250732421875" lon="13.80328905768692493438720703125">
        <ele>249.1999969482421875</ele>
        <time>2020-05-09T12:49:44.000Z</time>
        <extensions>
          <ns3:TrackPointExtension>
            <ns3:atemp>31.0</ns3:atemp>
            <ns3:hr>155</ns3:hr>
          </ns3:TrackPointExtension>
        </extensions>
      </trkpt>
      <trkpt lat="43.0208799429237842559814453125" lon="13.80327933467924594879150390625">
        <ele>249.8000030517578125</ele>
        <time>2020-05-09T12:49:45.000Z</time>
        <extensions>
          <ns3:TrackPointExtension>
            <ns3:atemp>31.0</ns3:atemp>
            <ns3:hr>156</ns3:hr>
          </ns3:TrackPointExtension>
        </extensions>
      </trkpt>
      <trkpt lat="43.02086460404098033905029296875" lon="13.80326919257640838623046875">
        <ele>250.399993896484375</ele>
        <time>2020-05-09T12:49:46.000Z</time>
        <extensions>
          <ns3:TrackPointExtension>
            <ns3:atemp>31.0</ns3:atemp>
            <ns3:hr>156</ns3:hr>
          </ns3:TrackPointExtension>
        </extensions>
      </trkpt>
      <trkpt lat="43.02081766538321971893310546875" lon="13.803225271403789520263671875">
        <ele>251.399993896484375</ele>
        <time>2020-05-09T12:49:49.000Z</time>
        <extensions>
          <ns3:TrackPointExtension>
            <ns3:atemp>31.0</ns3:atemp>
            <ns3:hr>156</ns3:hr>
          </ns3:TrackPointExtension>
        </extensions>
      </trkpt>
      <trkpt lat="43.02076251246035099029541015625" lon="13.803182356059551239013671875">
        <ele>252.399993896484375</ele>
        <time>2020-05-09T12:49:52.000Z</time>
        <extensions>
          <ns3:TrackPointExtension>
            <ns3:atemp>31.0</ns3:atemp>
            <ns3:hr>158</ns3:hr>
          </ns3:TrackPointExtension>
        </extensions>
      </trkpt>
      <trkpt lat="43.02072755992412567138671875" lon="13.80314807407557964324951171875">
        <ele>253</ele>
        <time>2020-05-09T12:49:54.000Z</time>
        <extensions>
          <ns3:TrackPointExtension>
            <ns3:atemp>30.0</ns3:atemp>
            <ns3:hr>159</ns3:hr>
          </ns3:TrackPointExtension>
        </extensions>
      </trkpt>
      <trkpt lat="43.0206623487174510955810546875" lon="13.80310649983584880828857421875">
        <ele>253.8000030517578125</ele>
        <time>2020-05-09T12:49:57.000Z</time>
        <extensions>
          <ns3:TrackPointExtension>
            <ns3:atemp>30.0</ns3:atemp>
            <ns3:hr>160</ns3:hr>
          </ns3:TrackPointExtension>
        </extensions>
      </trkpt>
      <trkpt lat="43.020559251308441162109375" lon="13.80302905105054378509521484375">
        <ele>255</ele>
        <time>2020-05-09T12:50:02.000Z</time>
        <extensions>
          <ns3:TrackPointExtension>
            <ns3:atemp>30.0</ns3:atemp>
            <ns3:hr>161</ns3:hr>
          </ns3:TrackPointExtension>
        </extensions>
      </trkpt>
      <trkpt lat="43.02048079669475555419921875" lon="13.8029659353196620941162109375">
        <ele>256</ele>
        <time>2020-05-09T12:50:06.000Z</time>
        <extensions>
          <ns3:TrackPointExtension>
            <ns3:atemp>30.0</ns3:atemp>
            <ns3:hr>164</ns3:hr>
          </ns3:TrackPointExtension>
        </extensions>
      </trkpt>
      <trkpt lat="43.0204072035849094390869140625" lon="13.80292184650897979736328125">
        <ele>256.600006103515625</ele>
        <time>2020-05-09T12:50:09.000Z</time>
        <extensions>
          <ns3:TrackPointExtension>
            <ns3:atemp>30.0</ns3:atemp>
            <ns3:hr>164</ns3:hr>
          </ns3:TrackPointExtension>
        </extensions>
      </trkpt>
      <trkpt lat="43.02029572427272796630859375" lon="13.802816234529018402099609375">
        <ele>257</ele>
        <time>2020-05-09T12:50:14.000Z</time>
        <extensions>
          <ns3:TrackPointExtension>
            <ns3:atemp>30.0</ns3:atemp>
            <ns3:hr>165</ns3:hr>
          </ns3:TrackPointExtension>
        </extensions>
      </trkpt>
      <trkpt lat="43.02025440149009227752685546875" lon="13.802771307528018951416015625">
        <ele>257.20001220703125</ele>
        <time>2020-05-09T12:50:16.000Z</time>
        <extensions>
          <ns3:TrackPointExtension>
            <ns3:atemp>30.0</ns3:atemp>
            <ns3:hr>165</ns3:hr>
          </ns3:TrackPointExtension>
        </extensions>
      </trkpt>
      <trkpt lat="43.02014015614986419677734375" lon="13.802596628665924072265625">
        <ele>257.600006103515625</ele>
        <time>2020-05-09T12:50:22.000Z</time>
        <extensions>
          <ns3:TrackPointExtension>
            <ns3:atemp>30.0</ns3:atemp>
            <ns3:hr>165</ns3:hr>
          </ns3:TrackPointExtension>
        </extensions>
      </trkpt>
      <trkpt lat="43.02002892829477787017822265625" lon="13.80241566337645053863525390625">
        <ele>258</ele>
        <time>2020-05-09T12:50:28.000Z</time>
        <extensions>
          <ns3:TrackPointExtension>
            <ns3:atemp>31.0</ns3:atemp>
            <ns3:hr>165</ns3:hr>
          </ns3:TrackPointExtension>
        </extensions>
      </trkpt>
      <trkpt lat="43.0200129188597202301025390625" lon="13.8023849017918109893798828125">
        <ele>258.20001220703125</ele>
        <time>2020-05-09T12:50:29.000Z</time>
        <extensions>
          <ns3:TrackPointExtension>
            <ns3:atemp>31.0</ns3:atemp>
            <ns3:hr>165</ns3:hr>
          </ns3:TrackPointExtension>
        </extensions>
      </trkpt>
      <trkpt lat="43.019910156726837158203125" lon="13.80215548910200595855712890625">
        <ele>258.600006103515625</ele>
        <time>2020-05-09T12:50:36.000Z</time>
        <extensions>
          <ns3:TrackPointExtension>
            <ns3:atemp>31.0</ns3:atemp>
            <ns3:hr>163</ns3:hr>
          </ns3:TrackPointExtension>
        </extensions>
      </trkpt>
      <trkpt lat="43.0198372341692447662353515625" lon="13.801990449428558349609375">
        <ele>259.20001220703125</ele>
        <time>2020-05-09T12:50:41.000Z</time>
        <extensions>
          <ns3:TrackPointExtension>
            <ns3:atemp>31.0</ns3:atemp>
            <ns3:hr>162</ns3:hr>
          </ns3:TrackPointExtension>
        </extensions>
      </trkpt>
      <trkpt lat="43.0197936482727527618408203125" lon="13.80189187824726104736328125">
        <ele>259.600006103515625</ele>
        <time>2020-05-09T12:50:44.000Z</time>
        <extensions>
          <ns3:TrackPointExtension>
            <ns3:atemp>31.0</ns3:atemp>
            <ns3:hr>162</ns3:hr>
          </ns3:TrackPointExtension>
        </extensions>
      </trkpt>
      <trkpt lat="43.01971058361232280731201171875" lon="13.80168409086763858795166015625">
        <ele>260.20001220703125</ele>
        <time>2020-05-09T12:50:50.000Z</time>
        <extensions>
          <ns3:TrackPointExtension>
            <ns3:atemp>31.0</ns3:atemp>
            <ns3:hr>160</ns3:hr>
          </ns3:TrackPointExtension>
        </extensions>
      </trkpt>
      <trkpt lat="43.01970354281365871429443359375" lon="13.8016472943127155303955078125">
        <ele>260.20001220703125</ele>
        <time>2020-05-09T12:50:51.000Z</time>
        <extensions>
          <ns3:TrackPointExtension>
            <ns3:atemp>31.0</ns3:atemp>
            <ns3:hr>159</ns3:hr>
          </ns3:TrackPointExtension>
        </extensions>
      </trkpt>
      <trkpt lat="43.019662387669086456298828125" lon="13.80142643116414546966552734375">
        <ele>261.20001220703125</ele>
        <time>2020-05-09T12:50:57.000Z</time>
        <extensions>
          <ns3:TrackPointExtension>
            <ns3:atemp>31.0</ns3:atemp>
            <ns3:hr>157</ns3:hr>
          </ns3:TrackPointExtension>
        </extensions>
      </trkpt>
      <trkpt lat="43.0195901356637477874755859375" lon="13.8012117706239223480224609375">
        <ele>262.399993896484375</ele>
        <time>2020-05-09T12:51:03.000Z</time>
        <extensions>
          <ns3:TrackPointExtension>
            <ns3:atemp>31.0</ns3:atemp>
            <ns3:hr>156</ns3:hr>
          </ns3:TrackPointExtension>
        </extensions>
      </trkpt>
      <trkpt lat="43.0195628106594085693359375" lon="13.80114329047501087188720703125">
        <ele>263</ele>
        <time>2020-05-09T12:51:05.000Z</time>
        <extensions>
          <ns3:TrackPointExtension>
            <ns3:atemp>31.0</ns3:atemp>
            <ns3:hr>155</ns3:hr>
          </ns3:TrackPointExtension>
        </extensions>
      </trkpt>
      <trkpt lat="43.01954428665339946746826171875" lon="13.8011118583381175994873046875">
        <ele>263.399993896484375</ele>
        <time>2020-05-09T12:51:06.000Z</time>
        <extensions>
          <ns3:TrackPointExtension>
            <ns3:atemp>31.0</ns3:atemp>
            <ns3:hr>155</ns3:hr>
          </ns3:TrackPointExtension>
        </extensions>
      </trkpt>
      <trkpt lat="43.019476644694805145263671875" lon="13.80102728493511676788330078125">
        <ele>264.399993896484375</ele>
        <time>2020-05-09T12:51:09.000Z</time>
        <extensions>
          <ns3:TrackPointExtension>
            <ns3:atemp>31.0</ns3:atemp>
            <ns3:hr>155</ns3:hr>
          </ns3:TrackPointExtension>
        </extensions>
      </trkpt>
      <trkpt lat="43.01938821561634540557861328125" lon="13.8009184040129184722900390625">
        <ele>265.600006103515625</ele>
        <time>2020-05-09T12:51:13.000Z</time>
        <extensions>
          <ns3:TrackPointExtension>
            <ns3:atemp>31.0</ns3:atemp>
            <ns3:hr>154</ns3:hr>
          </ns3:TrackPointExtension>
        </extensions>
      </trkpt>
      <trkpt lat="43.01927941851317882537841796875" lon="13.80078546702861785888671875">
        <ele>266.20001220703125</ele>
        <time>2020-05-09T12:51:18.000Z</time>
        <extensions>
          <ns3:TrackPointExtension>
            <ns3:atemp>31.0</ns3:atemp>
            <ns3:hr>152</ns3:hr>
          </ns3:TrackPointExtension>
        </extensions>
      </trkpt>
      <trkpt lat="43.0191271193325519561767578125" lon="13.80064641125500202178955078125">
        <ele>265.399993896484375</ele>
        <time>2020-05-09T12:51:23.000Z</time>
        <extensions>
          <ns3:TrackPointExtension>
            <ns3:atemp>31.0</ns3:atemp>
            <ns3:hr>151</ns3:hr>
          </ns3:TrackPointExtension>
        </extensions>
      </trkpt>
      <trkpt lat="43.01909166388213634490966796875" lon="13.80061925388872623443603515625">
        <ele>265.20001220703125</ele>
        <time>2020-05-09T12:51:24.000Z</time>
        <extensions>
          <ns3:TrackPointExtension>
            <ns3:atemp>31.0</ns3:atemp>
            <ns3:hr>151</ns3:hr>
          </ns3:TrackPointExtension>
        </extensions>
      </trkpt>
      <trkpt lat="43.01902527920901775360107421875" lon="13.80056913010776042938232421875">
        <ele>264.600006103515625</ele>
        <time>2020-05-09T12:51:26.000Z</time>
        <extensions>
          <ns3:TrackPointExtension>
            <ns3:atemp>31.0</ns3:atemp>
            <ns3:hr>151</ns3:hr>
          </ns3:TrackPointExtension>
        </extensions>
      </trkpt>
      <trkpt lat="43.0188659392297267913818359375" lon="13.80043619312345981597900390625">
        <ele>263.600006103515625</ele>
        <time>2020-05-09T12:51:30.000Z</time>
        <extensions>
          <ns3:TrackPointExtension>
            <ns3:atemp>31.0</ns3:atemp>
            <ns3:hr>150</ns3:hr>
          </ns3:TrackPointExtension>
        </extensions>
      </trkpt>
      <trkpt lat="43.0187552981078624725341796875" lon="13.80038741044700145721435546875">
        <ele>262.600006103515625</ele>
        <time>2020-05-09T12:51:32.000Z</time>
        <extensions>
          <ns3:TrackPointExtension>
            <ns3:atemp>31.0</ns3:atemp>
            <ns3:hr>148</ns3:hr>
          </ns3:TrackPointExtension>
        </extensions>
      </trkpt>
      <trkpt lat="43.01856444217264652252197265625" lon="13.800370730459690093994140625">
        <ele>261.399993896484375</ele>
        <time>2020-05-09T12:51:35.000Z</time>
        <extensions>
          <ns3:TrackPointExtension>
            <ns3:atemp>31.0</ns3:atemp>
            <ns3:hr>146</ns3:hr>
          </ns3:TrackPointExtension>
        </extensions>
      </trkpt>
      <trkpt lat="43.01844525150954723358154296875" lon="13.80036846734583377838134765625">
        <ele>261.20001220703125</ele>
        <time>2020-05-09T12:51:37.000Z</time>
        <extensions>
          <ns3:TrackPointExtension>
            <ns3:atemp>31.0</ns3:atemp>
            <ns3:hr>143</ns3:hr>
          </ns3:TrackPointExtension>
        </extensions>
      </trkpt>
      <trkpt lat="43.01828482188284397125244140625" lon="13.80033493973314762115478515625">
        <ele>261</ele>
        <time>2020-05-09T12:51:40.000Z</time>
        <extensions>
          <ns3:TrackPointExtension>
            <ns3:atemp>31.0</ns3:atemp>
            <ns3:hr>140</ns3:hr>
          </ns3:TrackPointExtension>
        </extensions>
      </trkpt>
      <trkpt lat="43.01807887852191925048828125" lon="13.80020745098590850830078125">
        <ele>262.399993896484375</ele>
        <time>2020-05-09T12:51:45.000Z</time>
        <extensions>
          <ns3:TrackPointExtension>
            <ns3:atemp>31.0</ns3:atemp>
            <ns3:hr>138</ns3:hr>
          </ns3:TrackPointExtension>
        </extensions>
      </trkpt>
      <trkpt lat="43.0180562473833560943603515625" lon="13.80017300136387348175048828125">
        <ele>262.600006103515625</ele>
        <time>2020-05-09T12:51:46.000Z</time>
        <extensions>
          <ns3:TrackPointExtension>
            <ns3:atemp>31.0</ns3:atemp>
            <ns3:hr>138</ns3:hr>
          </ns3:TrackPointExtension>
        </extensions>
      </trkpt>
      <trkpt lat="43.017986677587032318115234375" lon="13.80007141269743442535400390625">
        <ele>263.600006103515625</ele>
        <time>2020-05-09T12:51:49.000Z</time>
        <extensions>
          <ns3:TrackPointExtension>
            <ns3:atemp>31.0</ns3:atemp>
            <ns3:hr>139</ns3:hr>
          </ns3:TrackPointExtension>
        </extensions>
      </trkpt>
      <trkpt lat="43.01797133870422840118408203125" lon="13.80004023201763629913330078125">
        <ele>264.20001220703125</ele>
        <time>2020-05-09T12:51:50.000Z</time>
        <extensions>
          <ns3:TrackPointExtension>
            <ns3:atemp>31.0</ns3:atemp>
            <ns3:hr>138</ns3:hr>
          </ns3:TrackPointExtension>
        </extensions>
      </trkpt>
      <trkpt lat="43.01794267259538173675537109375" lon="13.7999908626079559326171875">
        <ele>264.79998779296875</ele>
        <time>2020-05-09T12:51:52.000Z</time>
        <extensions>
          <ns3:TrackPointExtension>
            <ns3:atemp>31.0</ns3:atemp>
            <ns3:hr>136</ns3:hr>
          </ns3:TrackPointExtension>
        </extensions>
      </trkpt>
      <trkpt lat="43.01789623685181140899658203125" lon="13.7999507971107959747314453125">
        <ele>266</ele>
        <time>2020-05-09T12:51:55.000Z</time>
        <extensions>
          <ns3:TrackPointExtension>
            <ns3:atemp>31.0</ns3:atemp>
            <ns3:hr>135</ns3:hr>
          </ns3:TrackPointExtension>
        </extensions>
      </trkpt>
      <trkpt lat="43.01788332872092723846435546875" lon="13.79994065500795841217041015625">
        <ele>266.600006103515625</ele>
        <time>2020-05-09T12:51:56.000Z</time>
        <extensions>
          <ns3:TrackPointExtension>
            <ns3:atemp>31.0</ns3:atemp>
            <ns3:hr>135</ns3:hr>
          </ns3:TrackPointExtension>
        </extensions>
      </trkpt>
      <trkpt lat="43.01787109114229679107666015625" lon="13.79992942325770854949951171875">
        <ele>267.20001220703125</ele>
        <time>2020-05-09T12:51:57.000Z</time>
        <extensions>
          <ns3:TrackPointExtension>
            <ns3:atemp>31.0</ns3:atemp>
            <ns3:hr>134</ns3:hr>
          </ns3:TrackPointExtension>
        </extensions>
      </trkpt>
      <trkpt lat="43.01782943308353424072265625" lon="13.79988784901797771453857421875">
        <ele>268.600006103515625</ele>
        <time>2020-05-09T12:52:00.000Z</time>
        <extensions>
          <ns3:TrackPointExtension>
            <ns3:atemp>31.0</ns3:atemp>
            <ns3:hr>137</ns3:hr>
          </ns3:TrackPointExtension>
        </extensions>
      </trkpt>
      <trkpt lat="43.0178098194301128387451171875" lon="13.79985214211046695709228515625">
        <ele>269.399993896484375</ele>
        <time>2020-05-09T12:52:02.000Z</time>
        <extensions>
          <ns3:TrackPointExtension>
            <ns3:atemp>31.0</ns3:atemp>
            <ns3:hr>139</ns3:hr>
          </ns3:TrackPointExtension>
        </extensions>
      </trkpt>
      <trkpt lat="43.0177930556237697601318359375" lon="13.7998284213244915008544921875">
        <ele>269.79998779296875</ele>
        <time>2020-05-09T12:52:03.000Z</time>
        <extensions>
          <ns3:TrackPointExtension>
            <ns3:atemp>31.0</ns3:atemp>
            <ns3:hr>139</ns3:hr>
          </ns3:TrackPointExtension>
        </extensions>
      </trkpt>
      <trkpt lat="43.0177320353686809539794921875" lon="13.79973697476089000701904296875">
        <ele>271</ele>
        <time>2020-05-09T12:52:06.000Z</time>
        <extensions>
          <ns3:TrackPointExtension>
            <ns3:atemp>31.0</ns3:atemp>
            <ns3:hr>140</ns3:hr>
          </ns3:TrackPointExtension>
        </extensions>
      </trkpt>
      <trkpt lat="43.01768618635833263397216796875" lon="13.79968282766640186309814453125">
        <ele>271.600006103515625</ele>
        <time>2020-05-09T12:52:08.000Z</time>
        <extensions>
          <ns3:TrackPointExtension>
            <ns3:atemp>31.0</ns3:atemp>
            <ns3:hr>143</ns3:hr>
          </ns3:TrackPointExtension>
        </extensions>
      </trkpt>
      <trkpt lat="43.01765098236501216888427734375" lon="13.799602948129177093505859375">
        <ele>272.399993896484375</ele>
        <time>2020-05-09T12:52:11.000Z</time>
        <extensions>
          <ns3:TrackPointExtension>
            <ns3:atemp>31.0</ns3:atemp>
            <ns3:hr>144</ns3:hr>
          </ns3:TrackPointExtension>
        </extensions>
      </trkpt>
      <trkpt lat="43.01762583665549755096435546875" lon="13.7995132617652416229248046875">
        <ele>273.399993896484375</ele>
        <time>2020-05-09T12:52:14.000Z</time>
        <extensions>
          <ns3:TrackPointExtension>
            <ns3:atemp>31.0</ns3:atemp>
            <ns3:hr>146</ns3:hr>
          </ns3:TrackPointExtension>
        </extensions>
      </trkpt>
      <trkpt lat="43.01761158742010593414306640625" lon="13.79948652349412441253662109375">
        <ele>273.79998779296875</ele>
        <time>2020-05-09T12:52:15.000Z</time>
        <extensions>
          <ns3:TrackPointExtension>
            <ns3:atemp>31.0</ns3:atemp>
            <ns3:hr>147</ns3:hr>
          </ns3:TrackPointExtension>
        </extensions>
      </trkpt>
      <trkpt lat="43.01760010421276092529296875" lon="13.79944377578794956207275390625">
        <ele>274.600006103515625</ele>
        <time>2020-05-09T12:52:17.000Z</time>
        <extensions>
          <ns3:TrackPointExtension>
            <ns3:atemp>31.0</ns3:atemp>
            <ns3:hr>148</ns3:hr>
          </ns3:TrackPointExtension>
        </extensions>
      </trkpt>
      <trkpt lat="43.0175768025219440460205078125" lon="13.7994079850614070892333984375">
        <ele>275.20001220703125</ele>
        <time>2020-05-09T12:52:19.000Z</time>
        <extensions>
          <ns3:TrackPointExtension>
            <ns3:atemp>31.0</ns3:atemp>
            <ns3:hr>152</ns3:hr>
          </ns3:TrackPointExtension>
        </extensions>
      </trkpt>
      <trkpt lat="43.01755308173596858978271484375" lon="13.79935861565172672271728515625">
        <ele>275.399993896484375</ele>
        <time>2020-05-09T12:52:21.000Z</time>
        <extensions>
          <ns3:TrackPointExtension>
            <ns3:atemp>31.0</ns3:atemp>
            <ns3:hr>152</ns3:hr>
          </ns3:TrackPointExtension>
        </extensions>
      </trkpt>
      <trkpt lat="43.01752567291259765625" lon="13.79931201227009296417236328125">
        <ele>275.600006103515625</ele>
        <time>2020-05-09T12:52:23.000Z</time>
        <extensions>
          <ns3:TrackPointExtension>
            <ns3:atemp>31.0</ns3:atemp>
            <ns3:hr>151</ns3:hr>
          </ns3:TrackPointExtension>
        </extensions>
      </trkpt>
      <trkpt lat="43.01750480197370052337646484375" lon="13.79925350658595561981201171875">
        <ele>275.79998779296875</ele>
        <time>2020-05-09T12:52:25.000Z</time>
        <extensions>
          <ns3:TrackPointExtension>
            <ns3:atemp>31.0</ns3:atemp>
            <ns3:hr>148</ns3:hr>
          </ns3:TrackPointExtension>
        </extensions>
      </trkpt>
      <trkpt lat="43.017442859709262847900390625" lon="13.7991253472864627838134765625">
        <ele>276.600006103515625</ele>
        <time>2020-05-09T12:52:30.000Z</time>
        <extensions>
          <ns3:TrackPointExtension>
            <ns3:atemp>31.0</ns3:atemp>
            <ns3:hr>148</ns3:hr>
          </ns3:TrackPointExtension>
        </extensions>
      </trkpt>
      <trkpt lat="43.01743238233029842376708984375" lon="13.79909777082502841949462890625">
        <ele>276.79998779296875</ele>
        <time>2020-05-09T12:52:31.000Z</time>
        <extensions>
          <ns3:TrackPointExtension>
            <ns3:atemp>31.0</ns3:atemp>
            <ns3:hr>147</ns3:hr>
          </ns3:TrackPointExtension>
        </extensions>
      </trkpt>
      <trkpt lat="43.01739617250859737396240234375" lon="13.79895661957561969757080078125">
        <ele>278.20001220703125</ele>
        <time>2020-05-09T12:52:36.000Z</time>
        <extensions>
          <ns3:TrackPointExtension>
            <ns3:atemp>31.0</ns3:atemp>
            <ns3:hr>151</ns3:hr>
          </ns3:TrackPointExtension>
        </extensions>
      </trkpt>
      <trkpt lat="43.0173937417566776275634765625" lon="13.79892258904874324798583984375">
        <ele>278.399993896484375</ele>
        <time>2020-05-09T12:52:37.000Z</time>
        <extensions>
          <ns3:TrackPointExtension>
            <ns3:atemp>31.0</ns3:atemp>
            <ns3:hr>154</ns3:hr>
          </ns3:TrackPointExtension>
        </extensions>
      </trkpt>
      <trkpt lat="43.0173902213573455810546875" lon="13.79889241419732570648193359375">
        <ele>278.600006103515625</ele>
        <time>2020-05-09T12:52:38.000Z</time>
        <extensions>
          <ns3:TrackPointExtension>
            <ns3:atemp>31.0</ns3:atemp>
            <ns3:hr>162</ns3:hr>
          </ns3:TrackPointExtension>
        </extensions>
      </trkpt>
      <trkpt lat="43.017383515834808349609375" lon="13.798834495246410369873046875">
        <ele>278.79998779296875</ele>
        <time>2020-05-09T12:52:40.000Z</time>
        <extensions>
          <ns3:TrackPointExtension>
            <ns3:atemp>31.0</ns3:atemp>
            <ns3:hr>166</ns3:hr>
          </ns3:TrackPointExtension>
        </extensions>
      </trkpt>
      <trkpt lat="43.0173699371516704559326171875" lon="13.7987780012190341949462890625">
        <ele>279.20001220703125</ele>
        <time>2020-05-09T12:52:42.000Z</time>
        <extensions>
          <ns3:TrackPointExtension>
            <ns3:atemp>31.0</ns3:atemp>
            <ns3:hr>166</ns3:hr>
          </ns3:TrackPointExtension>
        </extensions>
      </trkpt>
      <trkpt lat="43.0173447914421558380126953125" lon="13.7986666895449161529541015625">
        <ele>280.399993896484375</ele>
        <time>2020-05-09T12:52:46.000Z</time>
        <extensions>
          <ns3:TrackPointExtension>
            <ns3:atemp>31.0</ns3:atemp>
            <ns3:hr>165</ns3:hr>
          </ns3:TrackPointExtension>
        </extensions>
      </trkpt>
      <trkpt lat="43.01731453277170658111572265625" lon="13.7985959462821483612060546875">
        <ele>281.20001220703125</ele>
        <time>2020-05-09T12:52:49.000Z</time>
        <extensions>
          <ns3:TrackPointExtension>
            <ns3:atemp>31.0</ns3:atemp>
            <ns3:hr>166</ns3:hr>
          </ns3:TrackPointExtension>
        </extensions>
      </trkpt>
      <trkpt lat="43.01729391328990459442138671875" lon="13.798552192747592926025390625">
        <ele>281.600006103515625</ele>
        <time>2020-05-09T12:52:51.000Z</time>
        <extensions>
          <ns3:TrackPointExtension>
            <ns3:atemp>31.0</ns3:atemp>
            <ns3:hr>166</ns3:hr>
          </ns3:TrackPointExtension>
        </extensions>
      </trkpt>
      <trkpt lat="43.01726021803915500640869140625" lon="13.798465691506862640380859375">
        <ele>282.79998779296875</ele>
        <time>2020-05-09T12:52:55.000Z</time>
        <extensions>
          <ns3:TrackPointExtension>
            <ns3:atemp>31.0</ns3:atemp>
            <ns3:hr>164</ns3:hr>
          </ns3:TrackPointExtension>
        </extensions>
      </trkpt>
      <trkpt lat="43.01724848337471485137939453125" lon="13.7984454073011875152587890625">
        <ele>283</ele>
        <time>2020-05-09T12:52:56.000Z</time>
        <extensions>
          <ns3:TrackPointExtension>
            <ns3:atemp>31.0</ns3:atemp>
            <ns3:hr>164</ns3:hr>
          </ns3:TrackPointExtension>
        </extensions>
      </trkpt>
      <trkpt lat="43.01718696020543575286865234375" lon="13.798342309892177581787109375">
        <ele>284</ele>
        <time>2020-05-09T12:53:01.000Z</time>
        <extensions>
          <ns3:TrackPointExtension>
            <ns3:atemp>31.0</ns3:atemp>
            <ns3:hr>166</ns3:hr>
          </ns3:TrackPointExtension>
        </extensions>
      </trkpt>
      <trkpt lat="43.017175309360027313232421875" lon="13.79832177422940731048583984375">
        <ele>284</ele>
        <time>2020-05-09T12:53:02.000Z</time>
        <extensions>
          <ns3:TrackPointExtension>
            <ns3:atemp>31.0</ns3:atemp>
            <ns3:hr>166</ns3:hr>
          </ns3:TrackPointExtension>
        </extensions>
      </trkpt>
      <trkpt lat="43.01711370237171649932861328125" lon="13.79820425994694232940673828125">
        <ele>285</ele>
        <time>2020-05-09T12:53:08.000Z</time>
        <extensions>
          <ns3:TrackPointExtension>
            <ns3:atemp>31.0</ns3:atemp>
            <ns3:hr>165</ns3:hr>
          </ns3:TrackPointExtension>
        </extensions>
      </trkpt>
      <trkpt lat="43.0171020515263080596923828125" lon="13.79818431101739406585693359375">
        <ele>285.399993896484375</ele>
        <time>2020-05-09T12:53:09.000Z</time>
        <extensions>
          <ns3:TrackPointExtension>
            <ns3:atemp>31.0</ns3:atemp>
            <ns3:hr>164</ns3:hr>
          </ns3:TrackPointExtension>
        </extensions>
      </trkpt>
      <trkpt lat="43.01708134822547435760498046875" lon="13.79813837818801403045654296875">
        <ele>286.20001220703125</ele>
        <time>2020-05-09T12:53:11.000Z</time>
        <extensions>
          <ns3:TrackPointExtension>
            <ns3:atemp>31.0</ns3:atemp>
            <ns3:hr>164</ns3:hr>
          </ns3:TrackPointExtension>
        </extensions>
      </trkpt>
      <trkpt lat="43.01704622805118560791015625" lon="13.7980598397552967071533203125">
        <ele>287</ele>
        <time>2020-05-09T12:53:14.000Z</time>
        <extensions>
          <ns3:TrackPointExtension>
            <ns3:atemp>31.0</ns3:atemp>
            <ns3:hr>167</ns3:hr>
          </ns3:TrackPointExtension>
        </extensions>
      </trkpt>
      <trkpt lat="43.01703625358641147613525390625" lon="13.79803343676030635833740234375">
        <ele>287.20001220703125</ele>
        <time>2020-05-09T12:53:15.000Z</time>
        <extensions>
          <ns3:TrackPointExtension>
            <ns3:atemp>31.0</ns3:atemp>
            <ns3:hr>167</ns3:hr>
          </ns3:TrackPointExtension>
        </extensions>
      </trkpt>
      <trkpt lat="43.01701161079108715057373046875" lon="13.7979830615222454071044921875">
        <ele>287.600006103515625</ele>
        <time>2020-05-09T12:53:17.000Z</time>
        <extensions>
          <ns3:TrackPointExtension>
            <ns3:atemp>31.0</ns3:atemp>
            <ns3:hr>167</ns3:hr>
          </ns3:TrackPointExtension>
        </extensions>
      </trkpt>
      <trkpt lat="43.01692376844584941864013671875" lon="13.79779974929988384246826171875">
        <ele>288</ele>
        <time>2020-05-09T12:53:24.000Z</time>
        <extensions>
          <ns3:TrackPointExtension>
            <ns3:atemp>31.0</ns3:atemp>
            <ns3:hr>168</ns3:hr>
          </ns3:TrackPointExtension>
        </extensions>
      </trkpt>
      <trkpt lat="43.01681430079042911529541015625" lon="13.79759439267218112945556640625">
        <ele>288.20001220703125</ele>
        <time>2020-05-09T12:53:31.000Z</time>
        <extensions>
          <ns3:TrackPointExtension>
            <ns3:atemp>31.0</ns3:atemp>
            <ns3:hr>167</ns3:hr>
          </ns3:TrackPointExtension>
        </extensions>
      </trkpt>
      <trkpt lat="43.0166977085173130035400390625" lon="13.79737545736134052276611328125">
        <ele>288.399993896484375</ele>
        <time>2020-05-09T12:53:38.000Z</time>
        <extensions>
          <ns3:TrackPointExtension>
            <ns3:atemp>32.0</ns3:atemp>
            <ns3:hr>165</ns3:hr>
          </ns3:TrackPointExtension>
        </extensions>
      </trkpt>
      <trkpt lat="43.01661833189427852630615234375" lon="13.79722843877971172332763671875">
        <ele>288.79998779296875</ele>
        <time>2020-05-09T12:53:43.000Z</time>
        <extensions>
          <ns3:TrackPointExtension>
            <ns3:atemp>32.0</ns3:atemp>
            <ns3:hr>162</ns3:hr>
          </ns3:TrackPointExtension>
        </extensions>
      </trkpt>
      <trkpt lat="43.0165867321193218231201171875" lon="13.79712567664682865142822265625">
        <ele>289</ele>
        <time>2020-05-09T12:53:46.000Z</time>
        <extensions>
          <ns3:TrackPointExtension>
            <ns3:atemp>32.0</ns3:atemp>
            <ns3:hr>162</ns3:hr>
          </ns3:TrackPointExtension>
        </extensions>
      </trkpt>
      <trkpt lat="43.0165354348719120025634765625" lon="13.79704755730926990509033203125">
        <ele>289.399993896484375</ele>
        <time>2020-05-09T12:53:49.000Z</time>
        <extensions>
          <ns3:TrackPointExtension>
            <ns3:atemp>32.0</ns3:atemp>
            <ns3:hr>161</ns3:hr>
          </ns3:TrackPointExtension>
        </extensions>
      </trkpt>
      <trkpt lat="43.0165072716772556304931640625" lon="13.79700447432696819305419921875">
        <ele>290.600006103515625</ele>
        <time>2020-05-09T12:53:51.000Z</time>
        <extensions>
          <ns3:TrackPointExtension>
            <ns3:atemp>32.0</ns3:atemp>
            <ns3:hr>159</ns3:hr>
          </ns3:TrackPointExtension>
        </extensions>
      </trkpt>
      <trkpt lat="43.01647449843585491180419921875" lon="13.7969323061406612396240234375">
        <ele>291.600006103515625</ele>
        <time>2020-05-09T12:53:54.000Z</time>
        <extensions>
          <ns3:TrackPointExtension>
            <ns3:atemp>32.0</ns3:atemp>
            <ns3:hr>159</ns3:hr>
          </ns3:TrackPointExtension>
        </extensions>
      </trkpt>
      <trkpt lat="43.0164541304111480712890625" lon="13.7968558631837368011474609375">
        <ele>292.79998779296875</ele>
        <time>2020-05-09T12:53:57.000Z</time>
        <extensions>
          <ns3:TrackPointExtension>
            <ns3:atemp>31.0</ns3:atemp>
            <ns3:hr>159</ns3:hr>
          </ns3:TrackPointExtension>
        </extensions>
      </trkpt>
      <trkpt lat="43.0164355225861072540283203125" lon="13.79680506885051727294921875">
        <ele>294</ele>
        <time>2020-05-09T12:53:59.000Z</time>
        <extensions>
          <ns3:TrackPointExtension>
            <ns3:atemp>31.0</ns3:atemp>
            <ns3:hr>159</ns3:hr>
          </ns3:TrackPointExtension>
        </extensions>
      </trkpt>
      <trkpt lat="43.016422949731349945068359375" lon="13.796753101050853729248046875">
        <ele>295</ele>
        <time>2020-05-09T12:54:01.000Z</time>
        <extensions>
          <ns3:TrackPointExtension>
            <ns3:atemp>31.0</ns3:atemp>
            <ns3:hr>159</ns3:hr>
          </ns3:TrackPointExtension>
        </extensions>
      </trkpt>
      <trkpt lat="43.0163530446588993072509765625" lon="13.79659325815737247467041015625">
        <ele>296</ele>
        <time>2020-05-09T12:54:07.000Z</time>
        <extensions>
          <ns3:TrackPointExtension>
            <ns3:atemp>31.0</ns3:atemp>
            <ns3:hr>160</ns3:hr>
          </ns3:TrackPointExtension>
        </extensions>
      </trkpt>
      <trkpt lat="43.01631507463753223419189453125" lon="13.79655034281313419342041015625">
        <ele>296.600006103515625</ele>
        <time>2020-05-09T12:54:09.000Z</time>
        <extensions>
          <ns3:TrackPointExtension>
            <ns3:atemp>31.0</ns3:atemp>
            <ns3:hr>160</ns3:hr>
          </ns3:TrackPointExtension>
        </extensions>
      </trkpt>
      <trkpt lat="43.0163010768592357635498046875" lon="13.796529807150363922119140625">
        <ele>297</ele>
        <time>2020-05-09T12:54:10.000Z</time>
        <extensions>
          <ns3:TrackPointExtension>
            <ns3:atemp>31.0</ns3:atemp>
            <ns3:hr>160</ns3:hr>
          </ns3:TrackPointExtension>
        </extensions>
      </trkpt>
      <trkpt lat="43.01622773520648479461669921875" lon="13.79641346633434295654296875">
        <ele>298.20001220703125</ele>
        <time>2020-05-09T12:54:15.000Z</time>
        <extensions>
          <ns3:TrackPointExtension>
            <ns3:atemp>31.0</ns3:atemp>
            <ns3:hr>160</ns3:hr>
          </ns3:TrackPointExtension>
        </extensions>
      </trkpt>
      <trkpt lat="43.0162132345139980316162109375" lon="13.79639226011931896209716796875">
        <ele>298.399993896484375</ele>
        <time>2020-05-09T12:54:16.000Z</time>
        <extensions>
          <ns3:TrackPointExtension>
            <ns3:atemp>31.0</ns3:atemp>
            <ns3:hr>160</ns3:hr>
          </ns3:TrackPointExtension>
        </extensions>
      </trkpt>
      <trkpt lat="43.016117513179779052734375" lon="13.7962630949914455413818359375">
        <ele>299.399993896484375</ele>
        <time>2020-05-09T12:54:22.000Z</time>
        <extensions>
          <ns3:TrackPointExtension>
            <ns3:atemp>31.0</ns3:atemp>
            <ns3:hr>162</ns3:hr>
          </ns3:TrackPointExtension>
        </extensions>
      </trkpt>
      <trkpt lat="43.01610502414405345916748046875" lon="13.796239458024501800537109375">
        <ele>299.399993896484375</ele>
        <time>2020-05-09T12:54:23.000Z</time>
        <extensions>
          <ns3:TrackPointExtension>
            <ns3:atemp>31.0</ns3:atemp>
            <ns3:hr>162</ns3:hr>
          </ns3:TrackPointExtension>
        </extensions>
      </trkpt>
      <trkpt lat="43.016042076051235198974609375" lon="13.796120770275592803955078125">
        <ele>300.600006103515625</ele>
        <time>2020-05-09T12:54:28.000Z</time>
        <extensions>
          <ns3:TrackPointExtension>
            <ns3:atemp>31.0</ns3:atemp>
            <ns3:hr>163</ns3:hr>
          </ns3:TrackPointExtension>
        </extensions>
      </trkpt>
      <trkpt lat="43.0160144157707691192626953125" lon="13.7960783578455448150634765625">
        <ele>301</ele>
        <time>2020-05-09T12:54:30.000Z</time>
        <extensions>
          <ns3:TrackPointExtension>
            <ns3:atemp>31.0</ns3:atemp>
            <ns3:hr>163</ns3:hr>
          </ns3:TrackPointExtension>
        </extensions>
      </trkpt>
      <trkpt lat="43.01594107411801815032958984375" lon="13.7959546409547328948974609375">
        <ele>301.600006103515625</ele>
        <time>2020-05-09T12:54:35.000Z</time>
        <extensions>
          <ns3:TrackPointExtension>
            <ns3:atemp>31.0</ns3:atemp>
            <ns3:hr>164</ns3:hr>
          </ns3:TrackPointExtension>
        </extensions>
      </trkpt>
      <trkpt lat="43.015870414674282073974609375" lon="13.7958644516766071319580078125">
        <ele>302.600006103515625</ele>
        <time>2020-05-09T12:54:39.000Z</time>
        <extensions>
          <ns3:TrackPointExtension>
            <ns3:atemp>31.0</ns3:atemp>
            <ns3:hr>164</ns3:hr>
          </ns3:TrackPointExtension>
        </extensions>
      </trkpt>
      <trkpt lat="43.01585725508630275726318359375" lon="13.7958441674709320068359375">
        <ele>302.79998779296875</ele>
        <time>2020-05-09T12:54:40.000Z</time>
        <extensions>
          <ns3:TrackPointExtension>
            <ns3:atemp>31.0</ns3:atemp>
            <ns3:hr>163</ns3:hr>
          </ns3:TrackPointExtension>
        </extensions>
      </trkpt>
      <trkpt lat="43.01574812270700931549072265625" lon="13.795706368982791900634765625">
        <ele>303.79998779296875</ele>
        <time>2020-05-09T12:54:46.000Z</time>
        <extensions>
          <ns3:TrackPointExtension>
            <ns3:atemp>31.0</ns3:atemp>
            <ns3:hr>163</ns3:hr>
          </ns3:TrackPointExtension>
        </extensions>
      </trkpt>
      <trkpt lat="43.01572599448263645172119140625" lon="13.79567979834973812103271484375">
        <ele>303.79998779296875</ele>
        <time>2020-05-09T12:54:47.000Z</time>
        <extensions>
          <ns3:TrackPointExtension>
            <ns3:atemp>31.0</ns3:atemp>
            <ns3:hr>163</ns3:hr>
          </ns3:TrackPointExtension>
        </extensions>
      </trkpt>
      <trkpt lat="43.01561350934207439422607421875" lon="13.7955114059150218963623046875">
        <ele>304.399993896484375</ele>
        <time>2020-05-09T12:54:53.000Z</time>
        <extensions>
          <ns3:TrackPointExtension>
            <ns3:atemp>31.0</ns3:atemp>
            <ns3:hr>163</ns3:hr>
          </ns3:TrackPointExtension>
        </extensions>
      </trkpt>
      <trkpt lat="43.01556321792304515838623046875" lon="13.79542683251202106475830078125">
        <ele>304.79998779296875</ele>
        <time>2020-05-09T12:54:56.000Z</time>
        <extensions>
          <ns3:TrackPointExtension>
            <ns3:atemp>31.0</ns3:atemp>
            <ns3:hr>163</ns3:hr>
          </ns3:TrackPointExtension>
        </extensions>
      </trkpt>
      <trkpt lat="43.01551141776144504547119140625" lon="13.79532826133072376251220703125">
        <ele>305.20001220703125</ele>
        <time>2020-05-09T12:55:00.000Z</time>
        <extensions>
          <ns3:TrackPointExtension>
            <ns3:atemp>31.0</ns3:atemp>
            <ns3:hr>162</ns3:hr>
          </ns3:TrackPointExtension>
        </extensions>
      </trkpt>
      <trkpt lat="43.01549381576478481292724609375" lon="13.79524829797446727752685546875">
        <ele>306</ele>
        <time>2020-05-09T12:55:02.000Z</time>
        <extensions>
          <ns3:TrackPointExtension>
            <ns3:atemp>31.0</ns3:atemp>
            <ns3:hr>161</ns3:hr>
          </ns3:TrackPointExtension>
        </extensions>
      </trkpt>
      <trkpt lat="43.0154618807137012481689453125" lon="13.7951536662876605987548828125">
        <ele>307</ele>
        <time>2020-05-09T12:55:05.000Z</time>
        <extensions>
          <ns3:TrackPointExtension>
            <ns3:atemp>31.0</ns3:atemp>
            <ns3:hr>160</ns3:hr>
          </ns3:TrackPointExtension>
        </extensions>
      </trkpt>
      <trkpt lat="43.01540614105761051177978515625" lon="13.79504478536546230316162109375">
        <ele>307.600006103515625</ele>
        <time>2020-05-09T12:55:09.000Z</time>
        <extensions>
          <ns3:TrackPointExtension>
            <ns3:atemp>31.0</ns3:atemp>
            <ns3:hr>160</ns3:hr>
          </ns3:TrackPointExtension>
        </extensions>
      </trkpt>
      <trkpt lat="43.01528812386095523834228515625" lon="13.7948636524379253387451171875">
        <ele>307.399993896484375</ele>
        <time>2020-05-09T12:55:15.000Z</time>
        <extensions>
          <ns3:TrackPointExtension>
            <ns3:atemp>31.0</ns3:atemp>
            <ns3:hr>159</ns3:hr>
          </ns3:TrackPointExtension>
        </extensions>
      </trkpt>
      <trkpt lat="43.01506097428500652313232421875" lon="13.79473146982491016387939453125">
        <ele>307</ele>
        <time>2020-05-09T12:55:23.000Z</time>
        <extensions>
          <ns3:TrackPointExtension>
            <ns3:atemp>31.0</ns3:atemp>
            <ns3:hr>158</ns3:hr>
          </ns3:TrackPointExtension>
        </extensions>
      </trkpt>
      <trkpt lat="43.0149492435157299041748046875" lon="13.79469878040254116058349609375">
        <ele>308.20001220703125</ele>
        <time>2020-05-09T12:55:28.000Z</time>
        <extensions>
          <ns3:TrackPointExtension>
            <ns3:atemp>31.0</ns3:atemp>
            <ns3:hr>158</ns3:hr>
          </ns3:TrackPointExtension>
        </extensions>
      </trkpt>
      <trkpt lat="43.014880008995532989501953125" lon="13.7946665100753307342529296875">
        <ele>309.399993896484375</ele>
        <time>2020-05-09T12:55:31.000Z</time>
        <extensions>
          <ns3:TrackPointExtension>
            <ns3:atemp>31.0</ns3:atemp>
            <ns3:hr>159</ns3:hr>
          </ns3:TrackPointExtension>
        </extensions>
      </trkpt>
      <trkpt lat="43.0147430486977100372314453125" lon="13.79459802992641925811767578125">
        <ele>310.399993896484375</ele>
        <time>2020-05-09T12:55:36.000Z</time>
        <extensions>
          <ns3:TrackPointExtension>
            <ns3:atemp>31.0</ns3:atemp>
            <ns3:hr>156</ns3:hr>
          </ns3:TrackPointExtension>
        </extensions>
      </trkpt>
      <trkpt lat="43.01466953940689563751220703125" lon="13.79452787339687347412109375">
        <ele>310.399993896484375</ele>
        <time>2020-05-09T12:55:39.000Z</time>
        <extensions>
          <ns3:TrackPointExtension>
            <ns3:atemp>31.0</ns3:atemp>
            <ns3:hr>154</ns3:hr>
          </ns3:TrackPointExtension>
        </extensions>
      </trkpt>
      <trkpt lat="43.014512546360492706298828125" lon="13.794367276132106781005859375">
        <ele>309.399993896484375</ele>
        <time>2020-05-09T12:55:45.000Z</time>
        <extensions>
          <ns3:TrackPointExtension>
            <ns3:atemp>31.0</ns3:atemp>
            <ns3:hr>152</ns3:hr>
          </ns3:TrackPointExtension>
        </extensions>
      </trkpt>
      <trkpt lat="43.01448077894747257232666015625" lon="13.79433232359588146209716796875">
        <ele>309.20001220703125</ele>
        <time>2020-05-09T12:55:46.000Z</time>
        <extensions>
          <ns3:TrackPointExtension>
            <ns3:atemp>31.0</ns3:atemp>
            <ns3:hr>151</ns3:hr>
          </ns3:TrackPointExtension>
        </extensions>
      </trkpt>
      <trkpt lat="43.014316745102405548095703125" lon="13.794168792665004730224609375">
        <ele>308.20001220703125</ele>
        <time>2020-05-09T12:55:50.000Z</time>
        <extensions>
          <ns3:TrackPointExtension>
            <ns3:atemp>31.0</ns3:atemp>
            <ns3:hr>148</ns3:hr>
          </ns3:TrackPointExtension>
        </extensions>
      </trkpt>
      <trkpt lat="43.0141610093414783477783203125" lon="13.794032000005245208740234375">
        <ele>306.600006103515625</ele>
        <time>2020-05-09T12:55:53.000Z</time>
        <extensions>
          <ns3:TrackPointExtension>
            <ns3:atemp>31.0</ns3:atemp>
            <ns3:hr>146</ns3:hr>
          </ns3:TrackPointExtension>
        </extensions>
      </trkpt>
      <trkpt lat="43.01404290832579135894775390625" lon="13.79394340328872203826904296875">
        <ele>305.399993896484375</ele>
        <time>2020-05-09T12:55:55.000Z</time>
        <extensions>
          <ns3:TrackPointExtension>
            <ns3:atemp>31.0</ns3:atemp>
            <ns3:hr>144</ns3:hr>
          </ns3:TrackPointExtension>
        </extensions>
      </trkpt>
      <trkpt lat="43.01398021169006824493408203125" lon="13.793909959495067596435546875">
        <ele>305</ele>
        <time>2020-05-09T12:55:56.000Z</time>
        <extensions>
          <ns3:TrackPointExtension>
            <ns3:atemp>31.0</ns3:atemp>
            <ns3:hr>144</ns3:hr>
          </ns3:TrackPointExtension>
        </extensions>
      </trkpt>
      <trkpt lat="43.0138431675732135772705078125" lon="13.79386964254081249237060546875">
        <ele>304.20001220703125</ele>
        <time>2020-05-09T12:55:58.000Z</time>
        <extensions>
          <ns3:TrackPointExtension>
            <ns3:atemp>31.0</ns3:atemp>
            <ns3:hr>142</ns3:hr>
          </ns3:TrackPointExtension>
        </extensions>
      </trkpt>
      <trkpt lat="43.01377770490944385528564453125" lon="13.79386494867503643035888671875">
        <ele>303.600006103515625</ele>
        <time>2020-05-09T12:55:59.000Z</time>
        <extensions>
          <ns3:TrackPointExtension>
            <ns3:atemp>31.0</ns3:atemp>
            <ns3:hr>142</ns3:hr>
          </ns3:TrackPointExtension>
        </extensions>
      </trkpt>
      <trkpt lat="43.01371232606470584869384765625" lon="13.79386159591376781463623046875">
        <ele>303</ele>
        <time>2020-05-09T12:56:00.000Z</time>
        <extensions>
          <ns3:TrackPointExtension>
            <ns3:atemp>31.0</ns3:atemp>
            <ns3:hr>142</ns3:hr>
          </ns3:TrackPointExtension>
        </extensions>
      </trkpt>
      <trkpt lat="43.01358592696487903594970703125" lon="13.793873079121112823486328125">
        <ele>301.399993896484375</ele>
        <time>2020-05-09T12:56:02.000Z</time>
        <extensions>
          <ns3:TrackPointExtension>
            <ns3:atemp>31.0</ns3:atemp>
            <ns3:hr>143</ns3:hr>
          </ns3:TrackPointExtension>
        </extensions>
      </trkpt>
      <trkpt lat="43.01342247985303401947021484375" lon="13.7939156591892242431640625">
        <ele>300.600006103515625</ele>
        <time>2020-05-09T12:56:05.000Z</time>
        <extensions>
          <ns3:TrackPointExtension>
            <ns3:atemp>31.0</ns3:atemp>
            <ns3:hr>144</ns3:hr>
          </ns3:TrackPointExtension>
        </extensions>
      </trkpt>
      <trkpt lat="43.01326163113117218017578125" lon="13.7939369492232799530029296875">
        <ele>302.600006103515625</ele>
        <time>2020-05-09T12:56:09.000Z</time>
        <extensions>
          <ns3:TrackPointExtension>
            <ns3:atemp>31.0</ns3:atemp>
            <ns3:hr>143</ns3:hr>
          </ns3:TrackPointExtension>
        </extensions>
      </trkpt>
      <trkpt lat="43.0132289417088031768798828125" lon="13.7939397990703582763671875">
        <ele>303.20001220703125</ele>
        <time>2020-05-09T12:56:10.000Z</time>
        <extensions>
          <ns3:TrackPointExtension>
            <ns3:atemp>31.0</ns3:atemp>
            <ns3:hr>143</ns3:hr>
          </ns3:TrackPointExtension>
        </extensions>
      </trkpt>
      <trkpt lat="43.01319281570613384246826171875" lon="13.79394826479256153106689453125">
        <ele>303.79998779296875</ele>
        <time>2020-05-09T12:56:11.000Z</time>
        <extensions>
          <ns3:TrackPointExtension>
            <ns3:atemp>31.0</ns3:atemp>
            <ns3:hr>143</ns3:hr>
          </ns3:TrackPointExtension>
        </extensions>
      </trkpt>
      <trkpt lat="43.01308971829712390899658203125" lon="13.79392429254949092864990234375">
        <ele>305.20001220703125</ele>
        <time>2020-05-09T12:56:14.000Z</time>
        <extensions>
          <ns3:TrackPointExtension>
            <ns3:atemp>31.0</ns3:atemp>
            <ns3:hr>144</ns3:hr>
          </ns3:TrackPointExtension>
        </extensions>
      </trkpt>
      <trkpt lat="43.0130368284881114959716796875" lon="13.79389059729874134063720703125">
        <ele>305.399993896484375</ele>
        <time>2020-05-09T12:56:16.000Z</time>
        <extensions>
          <ns3:TrackPointExtension>
            <ns3:atemp>31.0</ns3:atemp>
            <ns3:hr>145</ns3:hr>
          </ns3:TrackPointExtension>
        </extensions>
      </trkpt>
      <trkpt lat="43.012938760221004486083984375" lon="13.7938303314149379730224609375">
        <ele>306.399993896484375</ele>
        <time>2020-05-09T12:56:20.000Z</time>
        <extensions>
          <ns3:TrackPointExtension>
            <ns3:atemp>31.0</ns3:atemp>
            <ns3:hr>145</ns3:hr>
          </ns3:TrackPointExtension>
        </extensions>
      </trkpt>
      <trkpt lat="43.01289626397192478179931640625" lon="13.79376235418021678924560546875">
        <ele>307.20001220703125</ele>
        <time>2020-05-09T12:56:23.000Z</time>
        <extensions>
          <ns3:TrackPointExtension>
            <ns3:atemp>31.0</ns3:atemp>
            <ns3:hr>148</ns3:hr>
          </ns3:TrackPointExtension>
        </extensions>
      </trkpt>
      <trkpt lat="43.0128789134323596954345703125" lon="13.79374056123197078704833984375">
        <ele>307.399993896484375</ele>
        <time>2020-05-09T12:56:24.000Z</time>
        <extensions>
          <ns3:TrackPointExtension>
            <ns3:atemp>31.0</ns3:atemp>
            <ns3:hr>148</ns3:hr>
          </ns3:TrackPointExtension>
        </extensions>
      </trkpt>
      <trkpt lat="43.01281294785439968109130859375" lon="13.79359974525868892669677734375">
        <ele>308.600006103515625</ele>
        <time>2020-05-09T12:56:30.000Z</time>
        <extensions>
          <ns3:TrackPointExtension>
            <ns3:atemp>32.0</ns3:atemp>
            <ns3:hr>147</ns3:hr>
          </ns3:TrackPointExtension>
        </extensions>
      </trkpt>
      <trkpt lat="43.01280297338962554931640625" lon="13.7935765273869037628173828125">
        <ele>309</ele>
        <time>2020-05-09T12:56:31.000Z</time>
        <extensions>
          <ns3:TrackPointExtension>
            <ns3:atemp>32.0</ns3:atemp>
            <ns3:hr>143</ns3:hr>
          </ns3:TrackPointExtension>
        </extensions>
      </trkpt>
      <trkpt lat="43.01279232837259769439697265625" lon="13.79355423152446746826171875">
        <ele>309.399993896484375</ele>
        <time>2020-05-09T12:56:32.000Z</time>
        <extensions>
          <ns3:TrackPointExtension>
            <ns3:atemp>32.0</ns3:atemp>
            <ns3:hr>140</ns3:hr>
          </ns3:TrackPointExtension>
        </extensions>
      </trkpt>
      <trkpt lat="43.0127803422510623931884765625" lon="13.793531768023967742919921875">
        <ele>309.79998779296875</ele>
        <time>2020-05-09T12:56:33.000Z</time>
        <extensions>
          <ns3:TrackPointExtension>
            <ns3:atemp>32.0</ns3:atemp>
            <ns3:hr>138</ns3:hr>
          </ns3:TrackPointExtension>
        </extensions>
      </trkpt>
      <trkpt lat="43.0126780830323696136474609375" lon="13.7934330292046070098876953125">
        <ele>311</ele>
        <time>2020-05-09T12:56:39.000Z</time>
        <extensions>
          <ns3:TrackPointExtension>
            <ns3:atemp>32.0</ns3:atemp>
            <ns3:hr>141</ns3:hr>
          </ns3:TrackPointExtension>
        </extensions>
      </trkpt>
      <trkpt lat="43.01257230341434478759765625" lon="13.79337251186370849609375">
        <ele>311.79998779296875</ele>
        <time>2020-05-09T12:56:45.000Z</time>
        <extensions>
          <ns3:TrackPointExtension>
            <ns3:atemp>32.0</ns3:atemp>
            <ns3:hr>144</ns3:hr>
          </ns3:TrackPointExtension>
        </extensions>
      </trkpt>
      <trkpt lat="43.01255755126476287841796875" lon="13.793361447751522064208984375">
        <ele>312</ele>
        <time>2020-05-09T12:56:46.000Z</time>
        <extensions>
          <ns3:TrackPointExtension>
            <ns3:atemp>32.0</ns3:atemp>
            <ns3:hr>145</ns3:hr>
          </ns3:TrackPointExtension>
        </extensions>
      </trkpt>
      <trkpt lat="43.01254305057227611541748046875" lon="13.793350048363208770751953125">
        <ele>312.20001220703125</ele>
        <time>2020-05-09T12:56:47.000Z</time>
        <extensions>
          <ns3:TrackPointExtension>
            <ns3:atemp>32.0</ns3:atemp>
            <ns3:hr>146</ns3:hr>
          </ns3:TrackPointExtension>
        </extensions>
      </trkpt>
      <trkpt lat="43.012485466897487640380859375" lon="13.793317861855030059814453125">
        <ele>313</ele>
        <time>2020-05-09T12:56:50.000Z</time>
        <extensions>
          <ns3:TrackPointExtension>
            <ns3:atemp>32.0</ns3:atemp>
            <ns3:hr>147</ns3:hr>
          </ns3:TrackPointExtension>
        </extensions>
      </trkpt>
      <trkpt lat="43.0124135501682758331298828125" lon="13.7932824902236461639404296875">
        <ele>314.399993896484375</ele>
        <time>2020-05-09T12:56:54.000Z</time>
        <extensions>
          <ns3:TrackPointExtension>
            <ns3:atemp>32.0</ns3:atemp>
            <ns3:hr>148</ns3:hr>
          </ns3:TrackPointExtension>
        </extensions>
      </trkpt>
      <trkpt lat="43.012330569326877593994140625" lon="13.7932157702744007110595703125">
        <ele>315.600006103515625</ele>
        <time>2020-05-09T12:56:59.000Z</time>
        <extensions>
          <ns3:TrackPointExtension>
            <ns3:atemp>32.0</ns3:atemp>
            <ns3:hr>149</ns3:hr>
          </ns3:TrackPointExtension>
        </extensions>
      </trkpt>
      <trkpt lat="43.01226996816694736480712890625" lon="13.79316874779760837554931640625">
        <ele>316</ele>
        <time>2020-05-09T12:57:02.000Z</time>
        <extensions>
          <ns3:TrackPointExtension>
            <ns3:atemp>32.0</ns3:atemp>
            <ns3:hr>150</ns3:hr>
          </ns3:TrackPointExtension>
        </extensions>
      </trkpt>
      <trkpt lat="43.012185730040073394775390625" lon="13.79310630261898040771484375">
        <ele>316.600006103515625</ele>
        <time>2020-05-09T12:57:06.000Z</time>
        <extensions>
          <ns3:TrackPointExtension>
            <ns3:atemp>32.0</ns3:atemp>
            <ns3:hr>152</ns3:hr>
          </ns3:TrackPointExtension>
        </extensions>
      </trkpt>
      <trkpt lat="43.01212144084274768829345703125" lon="13.79304368980228900909423828125">
        <ele>316.79998779296875</ele>
        <time>2020-05-09T12:57:10.000Z</time>
        <extensions>
          <ns3:TrackPointExtension>
            <ns3:atemp>32.0</ns3:atemp>
            <ns3:hr>153</ns3:hr>
          </ns3:TrackPointExtension>
        </extensions>
      </trkpt>
      <trkpt lat="43.0120553076267242431640625" lon="13.792918212711811065673828125">
        <ele>317.79998779296875</ele>
        <time>2020-05-09T12:57:16.000Z</time>
        <extensions>
          <ns3:TrackPointExtension>
            <ns3:atemp>32.0</ns3:atemp>
            <ns3:hr>154</ns3:hr>
          </ns3:TrackPointExtension>
        </extensions>
      </trkpt>
      <trkpt lat="43.0119884200394153594970703125" lon="13.79284168593585491180419921875">
        <ele>319</ele>
        <time>2020-05-09T12:57:20.000Z</time>
        <extensions>
          <ns3:TrackPointExtension>
            <ns3:atemp>32.0</ns3:atemp>
            <ns3:hr>154</ns3:hr>
          </ns3:TrackPointExtension>
        </extensions>
      </trkpt>
      <trkpt lat="43.01194089464843273162841796875" lon="13.79277865402400493621826171875">
        <ele>319.600006103515625</ele>
        <time>2020-05-09T12:57:23.000Z</time>
        <extensions>
          <ns3:TrackPointExtension>
            <ns3:atemp>32.0</ns3:atemp>
            <ns3:hr>154</ns3:hr>
          </ns3:TrackPointExtension>
        </extensions>
      </trkpt>
      <trkpt lat="43.01191273145377635955810546875" lon="13.7927319668233394622802734375">
        <ele>320</ele>
        <time>2020-05-09T12:57:25.000Z</time>
        <extensions>
          <ns3:TrackPointExtension>
            <ns3:atemp>32.0</ns3:atemp>
            <ns3:hr>154</ns3:hr>
          </ns3:TrackPointExtension>
        </extensions>
      </trkpt>
      <trkpt lat="43.01186663098633289337158203125" lon="13.79266365431249141693115234375">
        <ele>321.20001220703125</ele>
        <time>2020-05-09T12:57:28.000Z</time>
        <extensions>
          <ns3:TrackPointExtension>
            <ns3:atemp>32.0</ns3:atemp>
            <ns3:hr>154</ns3:hr>
          </ns3:TrackPointExtension>
        </extensions>
      </trkpt>
      <trkpt lat="43.01183327101171016693115234375" lon="13.792632557451725006103515625">
        <ele>321.600006103515625</ele>
        <time>2020-05-09T12:57:30.000Z</time>
        <extensions>
          <ns3:TrackPointExtension>
            <ns3:atemp>32.0</ns3:atemp>
            <ns3:hr>154</ns3:hr>
          </ns3:TrackPointExtension>
        </extensions>
      </trkpt>
      <trkpt lat="43.01172279752790927886962890625" lon="13.79265342839062213897705078125">
        <ele>322</ele>
        <time>2020-05-09T12:57:35.000Z</time>
        <extensions>
          <ns3:TrackPointExtension>
            <ns3:atemp>32.0</ns3:atemp>
            <ns3:hr>155</ns3:hr>
          </ns3:TrackPointExtension>
        </extensions>
      </trkpt>
      <trkpt lat="43.01153252832591533660888671875" lon="13.79277463071048259735107421875">
        <ele>320.79998779296875</ele>
        <time>2020-05-09T12:57:41.000Z</time>
        <extensions>
          <ns3:TrackPointExtension>
            <ns3:atemp>32.0</ns3:atemp>
            <ns3:hr>156</ns3:hr>
          </ns3:TrackPointExtension>
        </extensions>
      </trkpt>
      <trkpt lat="43.01145005039870738983154296875" lon="13.79283447749912738800048828125">
        <ele>320</ele>
        <time>2020-05-09T12:57:43.000Z</time>
        <extensions>
          <ns3:TrackPointExtension>
            <ns3:atemp>32.0</ns3:atemp>
            <ns3:hr>156</ns3:hr>
          </ns3:TrackPointExtension>
        </extensions>
      </trkpt>
      <trkpt lat="43.0113611184060573577880859375" lon="13.7929058074951171875">
        <ele>318.79998779296875</ele>
        <time>2020-05-09T12:57:45.000Z</time>
        <extensions>
          <ns3:TrackPointExtension>
            <ns3:atemp>32.0</ns3:atemp>
            <ns3:hr>155</ns3:hr>
          </ns3:TrackPointExtension>
        </extensions>
      </trkpt>
      <trkpt lat="43.0113145150244235992431640625" lon="13.79293371923267841339111328125">
        <ele>318.600006103515625</ele>
        <time>2020-05-09T12:57:46.000Z</time>
        <extensions>
          <ns3:TrackPointExtension>
            <ns3:atemp>32.0</ns3:atemp>
            <ns3:hr>155</ns3:hr>
          </ns3:TrackPointExtension>
        </extensions>
      </trkpt>
      <trkpt lat="43.0112622119486331939697265625" lon="13.79295132122933864593505859375">
        <ele>318.399993896484375</ele>
        <time>2020-05-09T12:57:47.000Z</time>
        <extensions>
          <ns3:TrackPointExtension>
            <ns3:atemp>32.0</ns3:atemp>
            <ns3:hr>154</ns3:hr>
          </ns3:TrackPointExtension>
        </extensions>
      </trkpt>
      <trkpt lat="43.01105190999805927276611328125" lon="13.79299121908843517303466796875">
        <ele>319.20001220703125</ele>
        <time>2020-05-09T12:57:51.000Z</time>
        <extensions>
          <ns3:TrackPointExtension>
            <ns3:atemp>32.0</ns3:atemp>
            <ns3:hr>151</ns3:hr>
          </ns3:TrackPointExtension>
        </extensions>
      </trkpt>
      <trkpt lat="43.011004887521266937255859375" lon="13.792995996773242950439453125">
        <ele>319.399993896484375</ele>
        <time>2020-05-09T12:57:52.000Z</time>
        <extensions>
          <ns3:TrackPointExtension>
            <ns3:atemp>32.0</ns3:atemp>
            <ns3:hr>149</ns3:hr>
          </ns3:TrackPointExtension>
        </extensions>
      </trkpt>
      <trkpt lat="43.0109574459493160247802734375" lon="13.792995996773242950439453125">
        <ele>319.20001220703125</ele>
        <time>2020-05-09T12:57:53.000Z</time>
        <extensions>
          <ns3:TrackPointExtension>
            <ns3:atemp>32.0</ns3:atemp>
            <ns3:hr>148</ns3:hr>
          </ns3:TrackPointExtension>
        </extensions>
      </trkpt>
      <trkpt lat="43.010815121233463287353515625" lon="13.7929891236126422882080078125">
        <ele>319.20001220703125</ele>
        <time>2020-05-09T12:57:57.000Z</time>
        <extensions>
          <ns3:TrackPointExtension>
            <ns3:atemp>32.0</ns3:atemp>
            <ns3:hr>145</ns3:hr>
          </ns3:TrackPointExtension>
        </extensions>
      </trkpt>
      <trkpt lat="43.0107472278177738189697265625" lon="13.79298250190913677215576171875">
        <ele>319.20001220703125</ele>
        <time>2020-05-09T12:57:59.000Z</time>
        <extensions>
          <ns3:TrackPointExtension>
            <ns3:atemp>32.0</ns3:atemp>
            <ns3:hr>146</ns3:hr>
          </ns3:TrackPointExtension>
        </extensions>
      </trkpt>
      <trkpt lat="43.01053089089691638946533203125" lon="13.7929636426270008087158203125">
        <ele>319.20001220703125</ele>
        <time>2020-05-09T12:58:05.000Z</time>
        <extensions>
          <ns3:TrackPointExtension>
            <ns3:atemp>32.0</ns3:atemp>
            <ns3:hr>149</ns3:hr>
          </ns3:TrackPointExtension>
        </extensions>
      </trkpt>
      <trkpt lat="43.01049501635134220123291015625" lon="13.792962133884429931640625">
        <ele>319.20001220703125</ele>
        <time>2020-05-09T12:58:06.000Z</time>
        <extensions>
          <ns3:TrackPointExtension>
            <ns3:atemp>32.0</ns3:atemp>
            <ns3:hr>149</ns3:hr>
          </ns3:TrackPointExtension>
        </extensions>
      </trkpt>
      <trkpt lat="43.01041823811829090118408203125" lon="13.79296682775020599365234375">
        <ele>319</ele>
        <time>2020-05-09T12:58:08.000Z</time>
        <extensions>
          <ns3:TrackPointExtension>
            <ns3:atemp>32.0</ns3:atemp>
            <ns3:hr>154</ns3:hr>
          </ns3:TrackPointExtension>
        </extensions>
      </trkpt>
      <trkpt lat="43.01038370467722415924072265625" lon="13.7929690070450305938720703125">
        <ele>319.20001220703125</ele>
        <time>2020-05-09T12:58:09.000Z</time>
        <extensions>
          <ns3:TrackPointExtension>
            <ns3:atemp>32.0</ns3:atemp>
            <ns3:hr>154</ns3:hr>
          </ns3:TrackPointExtension>
        </extensions>
      </trkpt>
      <trkpt lat="43.01025160588324069976806640625" lon="13.79292768426239490509033203125">
        <ele>319.600006103515625</ele>
        <time>2020-05-09T12:58:13.000Z</time>
        <extensions>
          <ns3:TrackPointExtension>
            <ns3:atemp>32.0</ns3:atemp>
            <ns3:hr>156</ns3:hr>
          </ns3:TrackPointExtension>
        </extensions>
      </trkpt>
      <trkpt lat="43.01015823148190975189208984375" lon="13.79286951385438442230224609375">
        <ele>320</ele>
        <time>2020-05-09T12:58:16.000Z</time>
        <extensions>
          <ns3:TrackPointExtension>
            <ns3:atemp>32.0</ns3:atemp>
            <ns3:hr>156</ns3:hr>
          </ns3:TrackPointExtension>
        </extensions>
      </trkpt>
      <trkpt lat="43.010060079395771026611328125" lon="13.79282425157725811004638671875">
        <ele>320.20001220703125</ele>
        <time>2020-05-09T12:58:19.000Z</time>
        <extensions>
          <ns3:TrackPointExtension>
            <ns3:atemp>32.0</ns3:atemp>
            <ns3:hr>153</ns3:hr>
          </ns3:TrackPointExtension>
        </extensions>
      </trkpt>
      <trkpt lat="43.01003132946789264678955078125" lon="13.7928092479705810546875">
        <ele>320.399993896484375</ele>
        <time>2020-05-09T12:58:20.000Z</time>
        <extensions>
          <ns3:TrackPointExtension>
            <ns3:atemp>32.0</ns3:atemp>
            <ns3:hr>150</ns3:hr>
          </ns3:TrackPointExtension>
        </extensions>
      </trkpt>
      <trkpt lat="43.01000433973968029022216796875" lon="13.792792148888111114501953125">
        <ele>320.600006103515625</ele>
        <time>2020-05-09T12:58:21.000Z</time>
        <extensions>
          <ns3:TrackPointExtension>
            <ns3:atemp>32.0</ns3:atemp>
            <ns3:hr>146</ns3:hr>
          </ns3:TrackPointExtension>
        </extensions>
      </trkpt>
      <trkpt lat="43.00997458398342132568359375" lon="13.79277245141565799713134765625">
        <ele>320.79998779296875</ele>
        <time>2020-05-09T12:58:22.000Z</time>
        <extensions>
          <ns3:TrackPointExtension>
            <ns3:atemp>32.0</ns3:atemp>
            <ns3:hr>141</ns3:hr>
          </ns3:TrackPointExtension>
        </extensions>
      </trkpt>
      <trkpt lat="43.00994901917874813079833984375" lon="13.79275468178093433380126953125">
        <ele>320.79998779296875</ele>
        <time>2020-05-09T12:58:23.000Z</time>
        <extensions>
          <ns3:TrackPointExtension>
            <ns3:atemp>32.0</ns3:atemp>
            <ns3:hr>137</ns3:hr>
          </ns3:TrackPointExtension>
        </extensions>
      </trkpt>
      <trkpt lat="43.0099271424114704132080078125" lon="13.792734481394290924072265625">
        <ele>320.79998779296875</ele>
        <time>2020-05-09T12:58:24.000Z</time>
        <extensions>
          <ns3:TrackPointExtension>
            <ns3:atemp>32.0</ns3:atemp>
            <ns3:hr>131</ns3:hr>
          </ns3:TrackPointExtension>
        </extensions>
      </trkpt>
      <trkpt lat="43.0098746716976165771484375" lon="13.7926903925836086273193359375">
        <ele>321</ele>
        <time>2020-05-09T12:58:26.000Z</time>
        <extensions>
          <ns3:TrackPointExtension>
            <ns3:atemp>32.0</ns3:atemp>
            <ns3:hr>129</ns3:hr>
          </ns3:TrackPointExtension>
        </extensions>
      </trkpt>
      <trkpt lat="43.0097343586385250091552734375" lon="13.792562149465084075927734375">
        <ele>320.399993896484375</ele>
        <time>2020-05-09T12:58:31.000Z</time>
        <extensions>
          <ns3:TrackPointExtension>
            <ns3:atemp>31.0</ns3:atemp>
            <ns3:hr>127</ns3:hr>
          </ns3:TrackPointExtension>
        </extensions>
      </trkpt>
      <trkpt lat="43.009579963982105255126953125" lon="13.79244488663971424102783203125">
        <ele>319.600006103515625</ele>
        <time>2020-05-09T12:58:36.000Z</time>
        <extensions>
          <ns3:TrackPointExtension>
            <ns3:atemp>31.0</ns3:atemp>
            <ns3:hr>123</ns3:hr>
          </ns3:TrackPointExtension>
        </extensions>
      </trkpt>
      <trkpt lat="43.00955079495906829833984375" lon="13.7924178130924701690673828125">
        <ele>319.600006103515625</ele>
        <time>2020-05-09T12:58:37.000Z</time>
        <extensions>
          <ns3:TrackPointExtension>
            <ns3:atemp>31.0</ns3:atemp>
            <ns3:hr>122</ns3:hr>
          </ns3:TrackPointExtension>
        </extensions>
      </trkpt>
      <trkpt lat="43.0094902776181697845458984375" lon="13.79237196408212184906005859375">
        <ele>319.399993896484375</ele>
        <time>2020-05-09T12:58:39.000Z</time>
        <extensions>
          <ns3:TrackPointExtension>
            <ns3:atemp>31.0</ns3:atemp>
            <ns3:hr>119</ns3:hr>
          </ns3:TrackPointExtension>
        </extensions>
      </trkpt>
      <trkpt lat="43.00943554379045963287353515625" lon="13.79231999628245830535888671875">
        <ele>318.79998779296875</ele>
        <time>2020-05-09T12:58:41.000Z</time>
        <extensions>
          <ns3:TrackPointExtension>
            <ns3:atemp>31.0</ns3:atemp>
            <ns3:hr>117</ns3:hr>
          </ns3:TrackPointExtension>
        </extensions>
      </trkpt>
      <trkpt lat="43.00935658626258373260498046875" lon="13.792246989905834197998046875">
        <ele>318.20001220703125</ele>
        <time>2020-05-09T12:58:43.000Z</time>
        <extensions>
          <ns3:TrackPointExtension>
            <ns3:atemp>31.0</ns3:atemp>
            <ns3:hr>115</ns3:hr>
          </ns3:TrackPointExtension>
        </extensions>
      </trkpt>
      <trkpt lat="43.00931048579514026641845703125" lon="13.79219837486743927001953125">
        <ele>317.600006103515625</ele>
        <time>2020-05-09T12:58:44.000Z</time>
        <extensions>
          <ns3:TrackPointExtension>
            <ns3:atemp>31.0</ns3:atemp>
            <ns3:hr>115</ns3:hr>
          </ns3:TrackPointExtension>
        </extensions>
      </trkpt>
      <trkpt lat="43.00921090878546237945556640625" lon="13.7921127118170261383056640625">
        <ele>316.600006103515625</ele>
        <time>2020-05-09T12:58:46.000Z</time>
        <extensions>
          <ns3:TrackPointExtension>
            <ns3:atemp>31.0</ns3:atemp>
            <ns3:hr>114</ns3:hr>
          </ns3:TrackPointExtension>
        </extensions>
      </trkpt>
      <trkpt lat="43.00907210446894168853759765625" lon="13.7919844686985015869140625">
        <ele>315.20001220703125</ele>
        <time>2020-05-09T12:58:49.000Z</time>
        <extensions>
          <ns3:TrackPointExtension>
            <ns3:atemp>31.0</ns3:atemp>
            <ns3:hr>114</ns3:hr>
          </ns3:TrackPointExtension>
        </extensions>
      </trkpt>
      <trkpt lat="43.00902483053505420684814453125" lon="13.7919440679252147674560546875">
        <ele>315</ele>
        <time>2020-05-09T12:58:50.000Z</time>
        <extensions>
          <ns3:TrackPointExtension>
            <ns3:atemp>31.0</ns3:atemp>
            <ns3:hr>114</ns3:hr>
          </ns3:TrackPointExtension>
        </extensions>
      </trkpt>
      <trkpt lat="43.0088929831981658935546875" lon="13.79178472794592380523681640625">
        <ele>314.79998779296875</ele>
        <time>2020-05-09T12:58:53.000Z</time>
        <extensions>
          <ns3:TrackPointExtension>
            <ns3:atemp>31.0</ns3:atemp>
            <ns3:hr>117</ns3:hr>
          </ns3:TrackPointExtension>
        </extensions>
      </trkpt>
      <trkpt lat="43.00884562544524669647216796875" lon="13.79172789864242076873779296875">
        <ele>314.399993896484375</ele>
        <time>2020-05-09T12:58:54.000Z</time>
        <extensions>
          <ns3:TrackPointExtension>
            <ns3:atemp>31.0</ns3:atemp>
            <ns3:hr>118</ns3:hr>
          </ns3:TrackPointExtension>
        </extensions>
      </trkpt>
      <trkpt lat="43.0087952502071857452392578125" lon="13.79167710430920124053955078125">
        <ele>313.600006103515625</ele>
        <time>2020-05-09T12:58:55.000Z</time>
        <extensions>
          <ns3:TrackPointExtension>
            <ns3:atemp>31.0</ns3:atemp>
            <ns3:hr>120</ns3:hr>
          </ns3:TrackPointExtension>
        </extensions>
      </trkpt>
      <trkpt lat="43.00874521024525165557861328125" lon="13.79163376986980438232421875">
        <ele>313</ele>
        <time>2020-05-09T12:58:56.000Z</time>
        <extensions>
          <ns3:TrackPointExtension>
            <ns3:atemp>31.0</ns3:atemp>
            <ns3:hr>123</ns3:hr>
          </ns3:TrackPointExtension>
        </extensions>
      </trkpt>
      <trkpt lat="43.0086958408355712890625" lon="13.79159714095294475555419921875">
        <ele>312.399993896484375</ele>
        <time>2020-05-09T12:58:57.000Z</time>
        <extensions>
          <ns3:TrackPointExtension>
            <ns3:atemp>31.0</ns3:atemp>
            <ns3:hr>124</ns3:hr>
          </ns3:TrackPointExtension>
        </extensions>
      </trkpt>
      <trkpt lat="43.0085709504783153533935546875" lon="13.79149571992456912994384765625">
        <ele>311.79998779296875</ele>
        <time>2020-05-09T12:59:00.000Z</time>
        <extensions>
          <ns3:TrackPointExtension>
            <ns3:atemp>31.0</ns3:atemp>
            <ns3:hr>127</ns3:hr>
          </ns3:TrackPointExtension>
        </extensions>
      </trkpt>
      <trkpt lat="43.0085310526192188262939453125" lon="13.79145414568483829498291015625">
        <ele>312.399993896484375</ele>
        <time>2020-05-09T12:59:04.000Z</time>
        <extensions>
          <ns3:TrackPointExtension>
            <ns3:atemp>31.0</ns3:atemp>
            <ns3:hr>130</ns3:hr>
          </ns3:TrackPointExtension>
        </extensions>
      </trkpt>
      <trkpt lat="43.00854027271270751953125" lon="13.79146822728216648101806640625">
        <ele>313.399993896484375</ele>
        <time>2020-05-09T12:59:12.000Z</time>
        <extensions>
          <ns3:TrackPointExtension>
            <ns3:atemp>31.0</ns3:atemp>
            <ns3:hr>127</ns3:hr>
          </ns3:TrackPointExtension>
        </extensions>
      </trkpt>
      <trkpt lat="43.00853683613240718841552734375" lon="13.79146705381572246551513671875">
        <ele>314.399993896484375</ele>
        <time>2020-05-09T12:59:21.000Z</time>
        <extensions>
          <ns3:TrackPointExtension>
            <ns3:atemp>31.0</ns3:atemp>
            <ns3:hr>132</ns3:hr>
          </ns3:TrackPointExtension>
        </extensions>
      </trkpt>
      <trkpt lat="43.00853691995143890380859375" lon="13.7914676405489444732666015625">
        <ele>314.399993896484375</ele>
        <time>2020-05-09T12:59:23.000Z</time>
        <extensions>
          <ns3:TrackPointExtension>
            <ns3:atemp>32.0</ns3:atemp>
            <ns3:hr>129</ns3:hr>
          </ns3:TrackPointExtension>
        </extensions>
      </trkpt>
      <trkpt lat="43.00853884778916835784912109375" lon="13.79147241823375225067138671875">
        <ele>314.399993896484375</ele>
        <time>2020-05-09T12:59:24.000Z</time>
        <extensions>
          <ns3:TrackPointExtension>
            <ns3:atemp>32.0</ns3:atemp>
            <ns3:hr>123</ns3:hr>
          </ns3:TrackPointExtension>
        </extensions>
      </trkpt>
      <trkpt lat="43.008539266884326934814453125" lon="13.79147359170019626617431640625">
        <ele>314.600006103515625</ele>
        <time>2020-05-09T12:59:25.000Z</time>
        <extensions>
          <ns3:TrackPointExtension>
            <ns3:atemp>32.0</ns3:atemp>
            <ns3:hr>123</ns3:hr>
          </ns3:TrackPointExtension>
        </extensions>
      </trkpt>
      <trkpt lat="43.00854027271270751953125" lon="13.7914709933102130889892578125">
        <ele>314.600006103515625</ele>
        <time>2020-05-09T12:59:27.000Z</time>
        <extensions>
          <ns3:TrackPointExtension>
            <ns3:atemp>32.0</ns3:atemp>
            <ns3:hr>114</ns3:hr>
          </ns3:TrackPointExtension>
        </extensions>
      </trkpt>
      <trkpt lat="43.00854085944592952728271484375" lon="13.79147149622440338134765625">
        <ele>314.600006103515625</ele>
        <time>2020-05-09T12:59:28.000Z</time>
        <extensions>
          <ns3:TrackPointExtension>
            <ns3:atemp>32.0</ns3:atemp>
            <ns3:hr>112</ns3:hr>
          </ns3:TrackPointExtension>
        </extensions>
      </trkpt>
      <trkpt lat="43.00854119472205638885498046875" lon="13.79147225059568881988525390625">
        <ele>314.399993896484375</ele>
        <time>2020-05-09T12:59:32.000Z</time>
        <extensions>
          <ns3:TrackPointExtension>
            <ns3:atemp>32.0</ns3:atemp>
            <ns3:hr>109</ns3:hr>
          </ns3:TrackPointExtension>
        </extensions>
      </trkpt>
      <trkpt lat="43.0085414461791515350341796875" lon="13.79147174768149852752685546875">
        <ele>314.600006103515625</ele>
        <time>2020-05-09T12:59:38.000Z</time>
        <extensions>
          <ns3:TrackPointExtension>
            <ns3:atemp>32.0</ns3:atemp>
            <ns3:hr>106</ns3:hr>
          </ns3:TrackPointExtension>
        </extensions>
      </trkpt>
      <trkpt lat="43.00854354165494441986083984375" lon="13.7914756871759891510009765625">
        <ele>315</ele>
        <time>2020-05-09T12:59:42.000Z</time>
        <extensions>
          <ns3:TrackPointExtension>
            <ns3:atemp>32.0</ns3:atemp>
            <ns3:hr>109</ns3:hr>
          </ns3:TrackPointExtension>
        </extensions>
      </trkpt>
      <trkpt lat="43.0085468105971813201904296875" lon="13.79147359170019626617431640625">
        <ele>315</ele>
        <time>2020-05-09T12:59:44.000Z</time>
        <extensions>
          <ns3:TrackPointExtension>
            <ns3:atemp>32.0</ns3:atemp>
            <ns3:hr>112</ns3:hr>
          </ns3:TrackPointExtension>
        </extensions>
      </trkpt>
      <trkpt lat="43.008547313511371612548828125" lon="13.79147308878600597381591796875">
        <ele>315</ele>
        <time>2020-05-09T12:59:45.000Z</time>
        <extensions>
          <ns3:TrackPointExtension>
            <ns3:atemp>32.0</ns3:atemp>
            <ns3:hr>112</ns3:hr>
          </ns3:TrackPointExtension>
        </extensions>
      </trkpt>
      <trkpt lat="43.00855142064392566680908203125" lon="13.79147208295762538909912109375">
        <ele>315.20001220703125</ele>
        <time>2020-05-09T12:59:50.000Z</time>
        <extensions>
          <ns3:TrackPointExtension>
            <ns3:atemp>32.0</ns3:atemp>
            <ns3:hr>109</ns3:hr>
          </ns3:TrackPointExtension>
        </extensions>
      </trkpt>
      <trkpt lat="43.0085390992462635040283203125" lon="13.79146076738834381103515625">
        <ele>315.20001220703125</ele>
        <time>2020-05-09T13:00:13.000Z</time>
        <extensions>
          <ns3:TrackPointExtension>
            <ns3:atemp>32.0</ns3:atemp>
            <ns3:hr>105</ns3:hr>
          </ns3:TrackPointExtension>
        </extensions>
      </trkpt>
      <trkpt lat="43.00853884778916835784912109375" lon="13.79145515151321887969970703125">
        <ele>315.20001220703125</ele>
        <time>2020-05-09T13:00:16.000Z</time>
        <extensions>
          <ns3:TrackPointExtension>
            <ns3:atemp>32.0</ns3:atemp>
            <ns3:hr>106</ns3:hr>
          </ns3:TrackPointExtension>
        </extensions>
      </trkpt>
      <trkpt lat="43.0085414461791515350341796875" lon="13.79145800136029720306396484375">
        <ele>314.79998779296875</ele>
        <time>2020-05-09T13:00:19.000Z</time>
        <extensions>
          <ns3:TrackPointExtension>
            <ns3:atemp>32.0</ns3:atemp>
            <ns3:hr>109</ns3:hr>
          </ns3:TrackPointExtension>
        </extensions>
      </trkpt>
      <trkpt lat="43.00855477340519428253173828125" lon="13.79146076738834381103515625">
        <ele>314.399993896484375</ele>
        <time>2020-05-09T13:00:27.000Z</time>
        <extensions>
          <ns3:TrackPointExtension>
            <ns3:atemp>32.0</ns3:atemp>
            <ns3:hr>106</ns3:hr>
          </ns3:TrackPointExtension>
        </extensions>
      </trkpt>
      <trkpt lat="43.0085550248622894287109375" lon="13.79146269522607326507568359375">
        <ele>314.20001220703125</ele>
        <time>2020-05-09T13:00:40.000Z</time>
        <extensions>
          <ns3:TrackPointExtension>
            <ns3:atemp>33.0</ns3:atemp>
            <ns3:hr>109</ns3:hr>
          </ns3:TrackPointExtension>
        </extensions>
      </trkpt>
      <trkpt lat="43.008563406765460968017578125" lon="13.7914721667766571044921875">
        <ele>314.20001220703125</ele>
        <time>2020-05-09T13:00:57.000Z</time>
        <extensions>
          <ns3:TrackPointExtension>
            <ns3:atemp>33.0</ns3:atemp>
            <ns3:hr>104</ns3:hr>
          </ns3:TrackPointExtension>
        </extensions>
      </trkpt>
      <trkpt lat="43.00856583751738071441650390625" lon="13.79147208295762538909912109375">
        <ele>314.20001220703125</ele>
        <time>2020-05-09T13:00:59.000Z</time>
        <extensions>
          <ns3:TrackPointExtension>
            <ns3:atemp>33.0</ns3:atemp>
            <ns3:hr>101</ns3:hr>
          </ns3:TrackPointExtension>
        </extensions>
      </trkpt>
      <trkpt lat="43.00856910645961761474609375" lon="13.7914706580340862274169921875">
        <ele>314</ele>
        <time>2020-05-09T13:01:01.000Z</time>
        <extensions>
          <ns3:TrackPointExtension>
            <ns3:atemp>33.0</ns3:atemp>
            <ns3:hr>98</ns3:hr>
          </ns3:TrackPointExtension>
        </extensions>
      </trkpt>
      <trkpt lat="43.00857287831604480743408203125" lon="13.7914719991385936737060546875">
        <ele>314</ele>
        <time>2020-05-09T13:01:06.000Z</time>
        <extensions>
          <ns3:TrackPointExtension>
            <ns3:atemp>33.0</ns3:atemp>
            <ns3:hr>95</ns3:hr>
          </ns3:TrackPointExtension>
        </extensions>
      </trkpt>
      <trkpt lat="43.008571453392505645751953125" lon="13.791475854814052581787109375">
        <ele>314.20001220703125</ele>
        <time>2020-05-09T13:01:08.000Z</time>
        <extensions>
          <ns3:TrackPointExtension>
            <ns3:atemp>33.0</ns3:atemp>
            <ns3:hr>92</ns3:hr>
          </ns3:TrackPointExtension>
        </extensions>
      </trkpt>
      <trkpt lat="43.00857069902122020721435546875" lon="13.79148096777498722076416015625">
        <ele>314</ele>
        <time>2020-05-09T13:01:11.000Z</time>
        <extensions>
          <ns3:TrackPointExtension>
            <ns3:atemp>33.0</ns3:atemp>
            <ns3:hr>95</ns3:hr>
          </ns3:TrackPointExtension>
        </extensions>
      </trkpt>
      <trkpt lat="43.0085672624409198760986328125" lon="13.7914820574223995208740234375">
        <ele>314.20001220703125</ele>
        <time>2020-05-09T13:01:14.000Z</time>
        <extensions>
          <ns3:TrackPointExtension>
            <ns3:atemp>33.0</ns3:atemp>
            <ns3:hr>98</ns3:hr>
          </ns3:TrackPointExtension>
        </extensions>
      </trkpt>
      <trkpt lat="43.0085602216422557830810546875" lon="13.7914803810417652130126953125">
        <ele>314.20001220703125</ele>
        <time>2020-05-09T13:01:18.000Z</time>
        <extensions>
          <ns3:TrackPointExtension>
            <ns3:atemp>33.0</ns3:atemp>
            <ns3:hr>101</ns3:hr>
          </ns3:TrackPointExtension>
        </extensions>
      </trkpt>
      <trkpt lat="43.0085612274706363677978515625" lon="13.79148297943174839019775390625">
        <ele>314.600006103515625</ele>
        <time>2020-05-09T13:01:23.000Z</time>
        <extensions>
          <ns3:TrackPointExtension>
            <ns3:atemp>33.0</ns3:atemp>
            <ns3:hr>98</ns3:hr>
          </ns3:TrackPointExtension>
        </extensions>
      </trkpt>
      <trkpt lat="43.008562065660953521728515625" lon="13.79148281179368495941162109375">
        <ele>314.600006103515625</ele>
        <time>2020-05-09T13:01:26.000Z</time>
        <extensions>
          <ns3:TrackPointExtension>
            <ns3:atemp>33.0</ns3:atemp>
            <ns3:hr>96</ns3:hr>
          </ns3:TrackPointExtension>
        </extensions>
      </trkpt>
      <trkpt lat="43.00856550224125385284423828125" lon="13.7914850749075412750244140625">
        <ele>314.79998779296875</ele>
        <time>2020-05-09T13:01:33.000Z</time>
        <extensions>
          <ns3:TrackPointExtension>
            <ns3:atemp>33.0</ns3:atemp>
            <ns3:hr>93</ns3:hr>
          </ns3:TrackPointExtension>
        </extensions>
      </trkpt>
      <trkpt lat="43.008566759526729583740234375" lon="13.79148566164076328277587890625">
        <ele>315.399993896484375</ele>
        <time>2020-05-09T13:01:38.000Z</time>
        <extensions>
          <ns3:TrackPointExtension>
            <ns3:atemp>33.0</ns3:atemp>
            <ns3:hr>92</ns3:hr>
          </ns3:TrackPointExtension>
        </extensions>
      </trkpt>
      <trkpt lat="43.00856835208833217620849609375" lon="13.79147945903241634368896484375">
        <ele>315.79998779296875</ele>
        <time>2020-05-09T13:01:45.000Z</time>
        <extensions>
          <ns3:TrackPointExtension>
            <ns3:atemp>32.0</ns3:atemp>
            <ns3:hr>89</ns3:hr>
          </ns3:TrackPointExtension>
        </extensions>
      </trkpt>
      <trkpt lat="43.00856818445026874542236328125" lon="13.79147862084209918975830078125">
        <ele>315.79998779296875</ele>
        <time>2020-05-09T13:01:46.000Z</time>
        <extensions>
          <ns3:TrackPointExtension>
            <ns3:atemp>32.0</ns3:atemp>
            <ns3:hr>94</ns3:hr>
          </ns3:TrackPointExtension>
        </extensions>
      </trkpt>
      <trkpt lat="43.00856801681220531463623046875" lon="13.79147778265178203582763671875">
        <ele>315.600006103515625</ele>
        <time>2020-05-09T13:01:48.000Z</time>
        <extensions>
          <ns3:TrackPointExtension>
            <ns3:atemp>32.0</ns3:atemp>
            <ns3:hr>97</ns3:hr>
          </ns3:TrackPointExtension>
        </extensions>
      </trkpt>
      <trkpt lat="43.00856751389801502227783203125" lon="13.79149488173425197601318359375">
        <ele>316</ele>
        <time>2020-05-09T13:01:51.000Z</time>
        <extensions>
          <ns3:TrackPointExtension>
            <ns3:atemp>32.0</ns3:atemp>
            <ns3:hr>98</ns3:hr>
          </ns3:TrackPointExtension>
        </extensions>
      </trkpt>
      <trkpt lat="43.00857103429734706878662109375" lon="13.79150946624577045440673828125">
        <ele>316</ele>
        <time>2020-05-09T13:01:52.000Z</time>
        <extensions>
          <ns3:TrackPointExtension>
            <ns3:atemp>32.0</ns3:atemp>
            <ns3:hr>98</ns3:hr>
          </ns3:TrackPointExtension>
        </extensions>
      </trkpt>
      <trkpt lat="43.00861076451838016510009765625" lon="13.79157635383307933807373046875">
        <ele>315.79998779296875</ele>
        <time>2020-05-09T13:01:55.000Z</time>
        <extensions>
          <ns3:TrackPointExtension>
            <ns3:atemp>32.0</ns3:atemp>
            <ns3:hr>99</ns3:hr>
          </ns3:TrackPointExtension>
        </extensions>
      </trkpt>
      <trkpt lat="43.00870195962488651275634765625" lon="13.79166922532021999359130859375">
        <ele>314.20001220703125</ele>
        <time>2020-05-09T13:01:58.000Z</time>
        <extensions>
          <ns3:TrackPointExtension>
            <ns3:atemp>32.0</ns3:atemp>
            <ns3:hr>97</ns3:hr>
          </ns3:TrackPointExtension>
        </extensions>
      </trkpt>
      <trkpt lat="43.00874345004558563232421875" lon="13.7917120568454265594482421875">
        <ele>313.20001220703125</ele>
        <time>2020-05-09T13:01:59.000Z</time>
        <extensions>
          <ns3:TrackPointExtension>
            <ns3:atemp>32.0</ns3:atemp>
            <ns3:hr>99</ns3:hr>
          </ns3:TrackPointExtension>
        </extensions>
      </trkpt>
      <trkpt lat="43.008786700665950775146484375" lon="13.79175581037998199462890625">
        <ele>312.20001220703125</ele>
        <time>2020-05-09T13:02:00.000Z</time>
        <extensions>
          <ns3:TrackPointExtension>
            <ns3:atemp>32.0</ns3:atemp>
            <ns3:hr>101</ns3:hr>
          </ns3:TrackPointExtension>
        </extensions>
      </trkpt>
      <trkpt lat="43.0088716931641101837158203125" lon="13.791857399046421051025390625">
        <ele>310.600006103515625</ele>
        <time>2020-05-09T13:02:02.000Z</time>
        <extensions>
          <ns3:TrackPointExtension>
            <ns3:atemp>32.0</ns3:atemp>
            <ns3:hr>104</ns3:hr>
          </ns3:TrackPointExtension>
        </extensions>
      </trkpt>
      <trkpt lat="43.00895023159682750701904296875" lon="13.791980110108852386474609375">
        <ele>309.20001220703125</ele>
        <time>2020-05-09T13:02:04.000Z</time>
        <extensions>
          <ns3:TrackPointExtension>
            <ns3:atemp>32.0</ns3:atemp>
            <ns3:hr>106</ns3:hr>
          </ns3:TrackPointExtension>
        </extensions>
      </trkpt>
      <trkpt lat="43.0090239085257053375244140625" lon="13.79211044870316982269287109375">
        <ele>308.20001220703125</ele>
        <time>2020-05-09T13:02:06.000Z</time>
        <extensions>
          <ns3:TrackPointExtension>
            <ns3:atemp>32.0</ns3:atemp>
            <ns3:hr>106</ns3:hr>
          </ns3:TrackPointExtension>
        </extensions>
      </trkpt>
      <trkpt lat="43.009062968194484710693359375" lon="13.7921695411205291748046875">
        <ele>307.600006103515625</ele>
        <time>2020-05-09T13:02:07.000Z</time>
        <extensions>
          <ns3:TrackPointExtension>
            <ns3:atemp>32.0</ns3:atemp>
            <ns3:hr>106</ns3:hr>
          </ns3:TrackPointExtension>
        </extensions>
      </trkpt>
      <trkpt lat="43.0091466195881366729736328125" lon="13.7922942638397216796875">
        <ele>307</ele>
        <time>2020-05-09T13:02:09.000Z</time>
        <extensions>
          <ns3:TrackPointExtension>
            <ns3:atemp>32.0</ns3:atemp>
            <ns3:hr>106</ns3:hr>
          </ns3:TrackPointExtension>
        </extensions>
      </trkpt>
      <trkpt lat="43.0092363059520721435546875" lon="13.79242141731083393096923828125">
        <ele>306.399993896484375</ele>
        <time>2020-05-09T13:02:11.000Z</time>
        <extensions>
          <ns3:TrackPointExtension>
            <ns3:atemp>32.0</ns3:atemp>
            <ns3:hr>107</ns3:hr>
          </ns3:TrackPointExtension>
        </extensions>
      </trkpt>
      <trkpt lat="43.009283579885959625244140625" lon="13.7924798391759395599365234375">
        <ele>305.79998779296875</ele>
        <time>2020-05-09T13:02:12.000Z</time>
        <extensions>
          <ns3:TrackPointExtension>
            <ns3:atemp>32.0</ns3:atemp>
            <ns3:hr>108</ns3:hr>
          </ns3:TrackPointExtension>
        </extensions>
      </trkpt>
      <trkpt lat="43.00937955267727375030517578125" lon="13.7925857864320278167724609375">
        <ele>304.20001220703125</ele>
        <time>2020-05-09T13:02:14.000Z</time>
        <extensions>
          <ns3:TrackPointExtension>
            <ns3:atemp>32.0</ns3:atemp>
            <ns3:hr>108</ns3:hr>
          </ns3:TrackPointExtension>
        </extensions>
      </trkpt>
      <trkpt lat="43.00948642194271087646484375" lon="13.7927095033228397369384765625">
        <ele>303.399993896484375</ele>
        <time>2020-05-09T13:02:16.000Z</time>
        <extensions>
          <ns3:TrackPointExtension>
            <ns3:atemp>32.0</ns3:atemp>
            <ns3:hr>108</ns3:hr>
          </ns3:TrackPointExtension>
        </extensions>
      </trkpt>
      <trkpt lat="43.00954216159880161285400390625" lon="13.79278267733752727508544921875">
        <ele>302.79998779296875</ele>
        <time>2020-05-09T13:02:17.000Z</time>
        <extensions>
          <ns3:TrackPointExtension>
            <ns3:atemp>32.0</ns3:atemp>
            <ns3:hr>108</ns3:hr>
          </ns3:TrackPointExtension>
        </extensions>
      </trkpt>
      <trkpt lat="43.00966336391866207122802734375" lon="13.792933635413646697998046875">
        <ele>301.20001220703125</ele>
        <time>2020-05-09T13:02:19.000Z</time>
        <extensions>
          <ns3:TrackPointExtension>
            <ns3:atemp>32.0</ns3:atemp>
            <ns3:hr>107</ns3:hr>
          </ns3:TrackPointExtension>
        </extensions>
      </trkpt>
      <trkpt lat="43.00978976301848888397216796875" lon="13.79307202063500881195068359375">
        <ele>300.399993896484375</ele>
        <time>2020-05-09T13:02:21.000Z</time>
        <extensions>
          <ns3:TrackPointExtension>
            <ns3:atemp>32.0</ns3:atemp>
            <ns3:hr>110</ns3:hr>
          </ns3:TrackPointExtension>
        </extensions>
      </trkpt>
      <trkpt lat="43.00992630422115325927734375" lon="13.79319372586905956268310546875">
        <ele>300.399993896484375</ele>
        <time>2020-05-09T13:02:23.000Z</time>
        <extensions>
          <ns3:TrackPointExtension>
            <ns3:atemp>32.0</ns3:atemp>
            <ns3:hr>112</ns3:hr>
          </ns3:TrackPointExtension>
        </extensions>
      </trkpt>
      <trkpt lat="43.01026015542447566986083984375" lon="13.79348558373749256134033203125">
        <ele>300.399993896484375</ele>
        <time>2020-05-09T13:02:28.000Z</time>
        <extensions>
          <ns3:TrackPointExtension>
            <ns3:atemp>32.0</ns3:atemp>
            <ns3:hr>112</ns3:hr>
          </ns3:TrackPointExtension>
        </extensions>
      </trkpt>
      <trkpt lat="43.01032637245953083038330078125" lon="13.79352967254817485809326171875">
        <ele>299.79998779296875</ele>
        <time>2020-05-09T13:02:29.000Z</time>
        <extensions>
          <ns3:TrackPointExtension>
            <ns3:atemp>32.0</ns3:atemp>
            <ns3:hr>111</ns3:hr>
          </ns3:TrackPointExtension>
        </extensions>
      </trkpt>
      <trkpt lat="43.01046819426119327545166015625" lon="13.793577365577220916748046875">
        <ele>297.399993896484375</ele>
        <time>2020-05-09T13:02:31.000Z</time>
        <extensions>
          <ns3:TrackPointExtension>
            <ns3:atemp>32.0</ns3:atemp>
            <ns3:hr>108</ns3:hr>
          </ns3:TrackPointExtension>
        </extensions>
      </trkpt>
      <trkpt lat="43.01053290255367755889892578125" lon="13.793614245951175689697265625">
        <ele>296</ele>
        <time>2020-05-09T13:02:32.000Z</time>
        <extensions>
          <ns3:TrackPointExtension>
            <ns3:atemp>31.0</ns3:atemp>
            <ns3:hr>109</ns3:hr>
          </ns3:TrackPointExtension>
        </extensions>
      </trkpt>
      <trkpt lat="43.0106050707399845123291015625" lon="13.793651796877384185791015625">
        <ele>295</ele>
        <time>2020-05-09T13:02:33.000Z</time>
        <extensions>
          <ns3:TrackPointExtension>
            <ns3:atemp>31.0</ns3:atemp>
            <ns3:hr>110</ns3:hr>
          </ns3:TrackPointExtension>
        </extensions>
      </trkpt>
      <trkpt lat="43.01065259613096714019775390625" lon="13.79382018931210041046142578125">
        <ele>293.399993896484375</ele>
        <time>2020-05-09T13:02:35.000Z</time>
        <extensions>
          <ns3:TrackPointExtension>
            <ns3:atemp>31.0</ns3:atemp>
            <ns3:hr>110</ns3:hr>
          </ns3:TrackPointExtension>
        </extensions>
      </trkpt>
      <trkpt lat="43.010629378259181976318359375" lon="13.79399470053613185882568359375">
        <ele>292.399993896484375</ele>
        <time>2020-05-09T13:02:37.000Z</time>
        <extensions>
          <ns3:TrackPointExtension>
            <ns3:atemp>31.0</ns3:atemp>
            <ns3:hr>108</ns3:hr>
          </ns3:TrackPointExtension>
        </extensions>
      </trkpt>
      <trkpt lat="43.01060599274933338165283203125" lon="13.79406678490340709686279296875">
        <ele>292.20001220703125</ele>
        <time>2020-05-09T13:02:38.000Z</time>
        <extensions>
          <ns3:TrackPointExtension>
            <ns3:atemp>31.0</ns3:atemp>
            <ns3:hr>110</ns3:hr>
          </ns3:TrackPointExtension>
        </extensions>
      </trkpt>
      <trkpt lat="43.01057615317404270172119140625" lon="13.79415177740156650543212890625">
        <ele>291.79998779296875</ele>
        <time>2020-05-09T13:02:39.000Z</time>
        <extensions>
          <ns3:TrackPointExtension>
            <ns3:atemp>31.0</ns3:atemp>
            <ns3:hr>112</ns3:hr>
          </ns3:TrackPointExtension>
        </extensions>
      </trkpt>
      <trkpt lat="43.0105691961944103240966796875" lon="13.7942336685955524444580078125">
        <ele>291.399993896484375</ele>
        <time>2020-05-09T13:02:40.000Z</time>
        <extensions>
          <ns3:TrackPointExtension>
            <ns3:atemp>31.0</ns3:atemp>
            <ns3:hr>112</ns3:hr>
          </ns3:TrackPointExtension>
        </extensions>
      </trkpt>
      <trkpt lat="43.0105735547840595245361328125" lon="13.79430516622960567474365234375">
        <ele>291</ele>
        <time>2020-05-09T13:02:41.000Z</time>
        <extensions>
          <ns3:TrackPointExtension>
            <ns3:atemp>31.0</ns3:atemp>
            <ns3:hr>111</ns3:hr>
          </ns3:TrackPointExtension>
        </extensions>
      </trkpt>
      <trkpt lat="43.010588474571704864501953125" lon="13.79437926225364208221435546875">
        <ele>290.20001220703125</ele>
        <time>2020-05-09T13:02:42.000Z</time>
        <extensions>
          <ns3:TrackPointExtension>
            <ns3:atemp>31.0</ns3:atemp>
            <ns3:hr>110</ns3:hr>
          </ns3:TrackPointExtension>
        </extensions>
      </trkpt>
      <trkpt lat="43.0106134526431560516357421875" lon="13.794453106820583343505859375">
        <ele>289.399993896484375</ele>
        <time>2020-05-09T13:02:43.000Z</time>
        <extensions>
          <ns3:TrackPointExtension>
            <ns3:atemp>31.0</ns3:atemp>
            <ns3:hr>112</ns3:hr>
          </ns3:TrackPointExtension>
        </extensions>
      </trkpt>
      <trkpt lat="43.0106493271887302398681640625" lon="13.79452309571206569671630859375">
        <ele>289</ele>
        <time>2020-05-09T13:02:44.000Z</time>
        <extensions>
          <ns3:TrackPointExtension>
            <ns3:atemp>31.0</ns3:atemp>
            <ns3:hr>111</ns3:hr>
          </ns3:TrackPointExtension>
        </extensions>
      </trkpt>
      <trkpt lat="43.01068930886685848236083984375" lon="13.7945897318422794342041015625">
        <ele>288.600006103515625</ele>
        <time>2020-05-09T13:02:45.000Z</time>
        <extensions>
          <ns3:TrackPointExtension>
            <ns3:atemp>31.0</ns3:atemp>
            <ns3:hr>110</ns3:hr>
          </ns3:TrackPointExtension>
        </extensions>
      </trkpt>
      <trkpt lat="43.01073775626718997955322265625" lon="13.794650919735431671142578125">
        <ele>288.20001220703125</ele>
        <time>2020-05-09T13:02:46.000Z</time>
        <extensions>
          <ns3:TrackPointExtension>
            <ns3:atemp>31.0</ns3:atemp>
            <ns3:hr>109</ns3:hr>
          </ns3:TrackPointExtension>
        </extensions>
      </trkpt>
      <trkpt lat="43.01085359416902065277099609375" lon="13.794760890305042266845703125">
        <ele>286.79998779296875</ele>
        <time>2020-05-09T13:02:48.000Z</time>
        <extensions>
          <ns3:TrackPointExtension>
            <ns3:atemp>30.0</ns3:atemp>
            <ns3:hr>108</ns3:hr>
          </ns3:TrackPointExtension>
        </extensions>
      </trkpt>
      <trkpt lat="43.01090396940708160400390625" lon="13.79482786171138286590576171875">
        <ele>285.399993896484375</ele>
        <time>2020-05-09T13:02:49.000Z</time>
        <extensions>
          <ns3:TrackPointExtension>
            <ns3:atemp>30.0</ns3:atemp>
            <ns3:hr>109</ns3:hr>
          </ns3:TrackPointExtension>
        </extensions>
      </trkpt>
      <trkpt lat="43.0109299533069133758544921875" lon="13.79492039792239665985107421875">
        <ele>284.20001220703125</ele>
        <time>2020-05-09T13:02:50.000Z</time>
        <extensions>
          <ns3:TrackPointExtension>
            <ns3:atemp>30.0</ns3:atemp>
            <ns3:hr>109</ns3:hr>
          </ns3:TrackPointExtension>
        </extensions>
      </trkpt>
      <trkpt lat="43.01093976013362407684326171875" lon="13.79501595161855220794677734375">
        <ele>283.20001220703125</ele>
        <time>2020-05-09T13:02:51.000Z</time>
        <extensions>
          <ns3:TrackPointExtension>
            <ns3:atemp>30.0</ns3:atemp>
            <ns3:hr>109</ns3:hr>
          </ns3:TrackPointExtension>
        </extensions>
      </trkpt>
      <trkpt lat="43.01094914786517620086669921875" lon="13.795108236372470855712890625">
        <ele>282.600006103515625</ele>
        <time>2020-05-09T13:02:52.000Z</time>
        <extensions>
          <ns3:TrackPointExtension>
            <ns3:atemp>30.0</ns3:atemp>
            <ns3:hr>109</ns3:hr>
          </ns3:TrackPointExtension>
        </extensions>
      </trkpt>
      <trkpt lat="43.010967671871185302734375" lon="13.79519968293607234954833984375">
        <ele>281.79998779296875</ele>
        <time>2020-05-09T13:02:53.000Z</time>
        <extensions>
          <ns3:TrackPointExtension>
            <ns3:atemp>30.0</ns3:atemp>
            <ns3:hr>107</ns3:hr>
          </ns3:TrackPointExtension>
        </extensions>
      </trkpt>
      <trkpt lat="43.0110483057796955108642578125" lon="13.7953585200011730194091796875">
        <ele>279.79998779296875</ele>
        <time>2020-05-09T13:02:55.000Z</time>
        <extensions>
          <ns3:TrackPointExtension>
            <ns3:atemp>30.0</ns3:atemp>
            <ns3:hr>111</ns3:hr>
          </ns3:TrackPointExtension>
        </extensions>
      </trkpt>
      <trkpt lat="43.01110387779772281646728515625" lon="13.7954359687864780426025390625">
        <ele>279</ele>
        <time>2020-05-09T13:02:56.000Z</time>
        <extensions>
          <ns3:TrackPointExtension>
            <ns3:atemp>30.0</ns3:atemp>
            <ns3:hr>107</ns3:hr>
          </ns3:TrackPointExtension>
        </extensions>
      </trkpt>
      <trkpt lat="43.01116372458636760711669921875" lon="13.7955090589821338653564453125">
        <ele>278</ele>
        <time>2020-05-09T13:02:57.000Z</time>
        <extensions>
          <ns3:TrackPointExtension>
            <ns3:atemp>30.0</ns3:atemp>
            <ns3:hr>106</ns3:hr>
          </ns3:TrackPointExtension>
        </extensions>
      </trkpt>
      <trkpt lat="43.01122055388987064361572265625" lon="13.7955794669687747955322265625">
        <ele>277</ele>
        <time>2020-05-09T13:02:58.000Z</time>
        <extensions>
          <ns3:TrackPointExtension>
            <ns3:atemp>30.0</ns3:atemp>
            <ns3:hr>106</ns3:hr>
          </ns3:TrackPointExtension>
        </extensions>
      </trkpt>
      <trkpt lat="43.0113329552114009857177734375" lon="13.79570326767861843109130859375">
        <ele>274.79998779296875</ele>
        <time>2020-05-09T13:03:00.000Z</time>
        <extensions>
          <ns3:TrackPointExtension>
            <ns3:atemp>30.0</ns3:atemp>
            <ns3:hr>105</ns3:hr>
          </ns3:TrackPointExtension>
        </extensions>
      </trkpt>
      <trkpt lat="43.0113963223993778228759765625" lon="13.79576361738145351409912109375">
        <ele>273</ele>
        <time>2020-05-09T13:03:01.000Z</time>
        <extensions>
          <ns3:TrackPointExtension>
            <ns3:atemp>30.0</ns3:atemp>
            <ns3:hr>104</ns3:hr>
          </ns3:TrackPointExtension>
        </extensions>
      </trkpt>
      <trkpt lat="43.01146832294762134552001953125" lon="13.79583268426358699798583984375">
        <ele>271.600006103515625</ele>
        <time>2020-05-09T13:03:02.000Z</time>
        <extensions>
          <ns3:TrackPointExtension>
            <ns3:atemp>30.0</ns3:atemp>
            <ns3:hr>104</ns3:hr>
          </ns3:TrackPointExtension>
        </extensions>
      </trkpt>
      <trkpt lat="43.01154367625713348388671875" lon="13.79590577445924282073974609375">
        <ele>270.399993896484375</ele>
        <time>2020-05-09T13:03:03.000Z</time>
        <extensions>
          <ns3:TrackPointExtension>
            <ns3:atemp>30.0</ns3:atemp>
            <ns3:hr>103</ns3:hr>
          </ns3:TrackPointExtension>
        </extensions>
      </trkpt>
      <trkpt lat="43.01162280142307281494140625" lon="13.795976936817169189453125">
        <ele>269.600006103515625</ele>
        <time>2020-05-09T13:03:04.000Z</time>
        <extensions>
          <ns3:TrackPointExtension>
            <ns3:atemp>30.0</ns3:atemp>
            <ns3:hr>104</ns3:hr>
          </ns3:TrackPointExtension>
        </extensions>
      </trkpt>
      <trkpt lat="43.01170460879802703857421875" lon="13.79603737033903598785400390625">
        <ele>269</ele>
        <time>2020-05-09T13:03:05.000Z</time>
        <extensions>
          <ns3:TrackPointExtension>
            <ns3:atemp>29.0</ns3:atemp>
            <ns3:hr>105</ns3:hr>
          </ns3:TrackPointExtension>
        </extensions>
      </trkpt>
      <trkpt lat="43.011930920183658599853515625" lon="13.7961957044899463653564453125">
        <ele>268.79998779296875</ele>
        <time>2020-05-09T13:03:08.000Z</time>
        <extensions>
          <ns3:TrackPointExtension>
            <ns3:atemp>29.0</ns3:atemp>
            <ns3:hr>110</ns3:hr>
          </ns3:TrackPointExtension>
        </extensions>
      </trkpt>
      <trkpt lat="43.0120011605322360992431640625" lon="13.79624272696673870086669921875">
        <ele>269</ele>
        <time>2020-05-09T13:03:09.000Z</time>
        <extensions>
          <ns3:TrackPointExtension>
            <ns3:atemp>29.0</ns3:atemp>
            <ns3:hr>116</ns3:hr>
          </ns3:TrackPointExtension>
        </extensions>
      </trkpt>
      <trkpt lat="43.012071736156940460205078125" lon="13.79627759568393230438232421875">
        <ele>269.20001220703125</ele>
        <time>2020-05-09T13:03:10.000Z</time>
        <extensions>
          <ns3:TrackPointExtension>
            <ns3:atemp>29.0</ns3:atemp>
            <ns3:hr>117</ns3:hr>
          </ns3:TrackPointExtension>
        </extensions>
      </trkpt>
      <trkpt lat="43.01214843057096004486083984375" lon="13.79630240611732006072998046875">
        <ele>269.399993896484375</ele>
        <time>2020-05-09T13:03:11.000Z</time>
        <extensions>
          <ns3:TrackPointExtension>
            <ns3:atemp>29.0</ns3:atemp>
            <ns3:hr>120</ns3:hr>
          </ns3:TrackPointExtension>
        </extensions>
      </trkpt>
      <trkpt lat="43.012225627899169921875" lon="13.79633777774870395660400390625">
        <ele>269.600006103515625</ele>
        <time>2020-05-09T13:03:12.000Z</time>
        <extensions>
          <ns3:TrackPointExtension>
            <ns3:atemp>29.0</ns3:atemp>
            <ns3:hr>123</ns3:hr>
          </ns3:TrackPointExtension>
        </extensions>
      </trkpt>
      <trkpt lat="43.01230500452220439910888671875" lon="13.796379603445529937744140625">
        <ele>269.600006103515625</ele>
        <time>2020-05-09T13:03:13.000Z</time>
        <extensions>
          <ns3:TrackPointExtension>
            <ns3:atemp>29.0</ns3:atemp>
            <ns3:hr>125</ns3:hr>
          </ns3:TrackPointExtension>
        </extensions>
      </trkpt>
      <trkpt lat="43.01238186657428741455078125" lon="13.7964206747710704803466796875">
        <ele>269</ele>
        <time>2020-05-09T13:03:14.000Z</time>
        <extensions>
          <ns3:TrackPointExtension>
            <ns3:atemp>29.0</ns3:atemp>
            <ns3:hr>124</ns3:hr>
          </ns3:TrackPointExtension>
        </extensions>
      </trkpt>
      <trkpt lat="43.01249586045742034912109375" lon="13.79652704112231731414794921875">
        <ele>267.20001220703125</ele>
        <time>2020-05-09T13:03:16.000Z</time>
        <extensions>
          <ns3:TrackPointExtension>
            <ns3:atemp>29.0</ns3:atemp>
            <ns3:hr>123</ns3:hr>
          </ns3:TrackPointExtension>
        </extensions>
      </trkpt>
      <trkpt lat="43.01254958845674991607666015625" lon="13.79659183323383331298828125">
        <ele>266.20001220703125</ele>
        <time>2020-05-09T13:03:17.000Z</time>
        <extensions>
          <ns3:TrackPointExtension>
            <ns3:atemp>29.0</ns3:atemp>
            <ns3:hr>123</ns3:hr>
          </ns3:TrackPointExtension>
        </extensions>
      </trkpt>
      <trkpt lat="43.0126110278069972991943359375" lon="13.79665352404117584228515625">
        <ele>265.399993896484375</ele>
        <time>2020-05-09T13:03:18.000Z</time>
        <extensions>
          <ns3:TrackPointExtension>
            <ns3:atemp>29.0</ns3:atemp>
            <ns3:hr>122</ns3:hr>
          </ns3:TrackPointExtension>
        </extensions>
      </trkpt>
      <trkpt lat="43.01275041885673999786376953125" lon="13.79677330143749713897705078125">
        <ele>263.79998779296875</ele>
        <time>2020-05-09T13:03:20.000Z</time>
        <extensions>
          <ns3:TrackPointExtension>
            <ns3:atemp>29.0</ns3:atemp>
            <ns3:hr>123</ns3:hr>
          </ns3:TrackPointExtension>
        </extensions>
      </trkpt>
      <trkpt lat="43.012915290892124176025390625" lon="13.79693515598773956298828125">
        <ele>262.79998779296875</ele>
        <time>2020-05-09T13:03:22.000Z</time>
        <extensions>
          <ns3:TrackPointExtension>
            <ns3:atemp>29.0</ns3:atemp>
            <ns3:hr>124</ns3:hr>
          </ns3:TrackPointExtension>
        </extensions>
      </trkpt>
      <trkpt lat="43.01308485679328441619873046875" lon="13.79713120870292186737060546875">
        <ele>260</ele>
        <time>2020-05-09T13:03:24.000Z</time>
        <extensions>
          <ns3:TrackPointExtension>
            <ns3:atemp>29.0</ns3:atemp>
            <ns3:hr>123</ns3:hr>
          </ns3:TrackPointExtension>
        </extensions>
      </trkpt>
      <trkpt lat="43.01317043602466583251953125" lon="13.7972441129386425018310546875">
        <ele>257.79998779296875</ele>
        <time>2020-05-09T13:03:25.000Z</time>
        <extensions>
          <ns3:TrackPointExtension>
            <ns3:atemp>29.0</ns3:atemp>
            <ns3:hr>125</ns3:hr>
          </ns3:TrackPointExtension>
        </extensions>
      </trkpt>
      <trkpt lat="43.01325601525604724884033203125" lon="13.79734846763312816619873046875">
        <ele>255.8000030517578125</ele>
        <time>2020-05-09T13:03:26.000Z</time>
        <extensions>
          <ns3:TrackPointExtension>
            <ns3:atemp>29.0</ns3:atemp>
            <ns3:hr>127</ns3:hr>
          </ns3:TrackPointExtension>
        </extensions>
      </trkpt>
      <trkpt lat="43.0133426003158092498779296875" lon="13.797457516193389892578125">
        <ele>254.1999969482421875</ele>
        <time>2020-05-09T13:03:27.000Z</time>
        <extensions>
          <ns3:TrackPointExtension>
            <ns3:atemp>28.0</ns3:atemp>
            <ns3:hr>128</ns3:hr>
          </ns3:TrackPointExtension>
        </extensions>
      </trkpt>
      <trkpt lat="43.01350479014217853546142578125" lon="13.79768877290189266204833984375">
        <ele>252</ele>
        <time>2020-05-09T13:03:29.000Z</time>
        <extensions>
          <ns3:TrackPointExtension>
            <ns3:atemp>28.0</ns3:atemp>
            <ns3:hr>129</ns3:hr>
          </ns3:TrackPointExtension>
        </extensions>
      </trkpt>
      <trkpt lat="43.01357570104300975799560546875" lon="13.79780947230756282806396484375">
        <ele>250.399993896484375</ele>
        <time>2020-05-09T13:03:30.000Z</time>
        <extensions>
          <ns3:TrackPointExtension>
            <ns3:atemp>28.0</ns3:atemp>
            <ns3:hr>127</ns3:hr>
          </ns3:TrackPointExtension>
        </extensions>
      </trkpt>
      <trkpt lat="43.013639487326145172119140625" lon="13.797926567494869232177734375">
        <ele>249</ele>
        <time>2020-05-09T13:03:31.000Z</time>
        <extensions>
          <ns3:TrackPointExtension>
            <ns3:atemp>28.0</ns3:atemp>
            <ns3:hr>128</ns3:hr>
          </ns3:TrackPointExtension>
        </extensions>
      </trkpt>
      <trkpt lat="43.0137023515999317169189453125" lon="13.79804600961506366729736328125">
        <ele>247.600006103515625</ele>
        <time>2020-05-09T13:03:32.000Z</time>
        <extensions>
          <ns3:TrackPointExtension>
            <ns3:atemp>28.0</ns3:atemp>
            <ns3:hr>127</ns3:hr>
          </ns3:TrackPointExtension>
        </extensions>
      </trkpt>
      <trkpt lat="43.01376454532146453857421875" lon="13.7981815449893474578857421875">
        <ele>246.1999969482421875</ele>
        <time>2020-05-09T13:03:33.000Z</time>
        <extensions>
          <ns3:TrackPointExtension>
            <ns3:atemp>28.0</ns3:atemp>
            <ns3:hr>127</ns3:hr>
          </ns3:TrackPointExtension>
        </extensions>
      </trkpt>
      <trkpt lat="43.013829253613948822021484375" lon="13.798302747309207916259765625">
        <ele>245.1999969482421875</ele>
        <time>2020-05-09T13:03:34.000Z</time>
        <extensions>
          <ns3:TrackPointExtension>
            <ns3:atemp>28.0</ns3:atemp>
            <ns3:hr>127</ns3:hr>
          </ns3:TrackPointExtension>
        </extensions>
      </trkpt>
      <trkpt lat="43.01397048868238925933837890625" lon="13.79851757548749446868896484375">
        <ele>243.8000030517578125</ele>
        <time>2020-05-09T13:03:36.000Z</time>
        <extensions>
          <ns3:TrackPointExtension>
            <ns3:atemp>28.0</ns3:atemp>
            <ns3:hr>128</ns3:hr>
          </ns3:TrackPointExtension>
        </extensions>
      </trkpt>
      <trkpt lat="43.01404810510575771331787109375" lon="13.79861153662204742431640625">
        <ele>243.399993896484375</ele>
        <time>2020-05-09T13:03:37.000Z</time>
        <extensions>
          <ns3:TrackPointExtension>
            <ns3:atemp>28.0</ns3:atemp>
            <ns3:hr>128</ns3:hr>
          </ns3:TrackPointExtension>
        </extensions>
      </trkpt>
      <trkpt lat="43.0141271464526653289794921875" lon="13.7987069226801395416259765625">
        <ele>242.399993896484375</ele>
        <time>2020-05-09T13:03:38.000Z</time>
        <extensions>
          <ns3:TrackPointExtension>
            <ns3:atemp>28.0</ns3:atemp>
            <ns3:hr>127</ns3:hr>
          </ns3:TrackPointExtension>
        </extensions>
      </trkpt>
      <trkpt lat="43.0142059363424777984619140625" lon="13.798807673156261444091796875">
        <ele>240.8000030517578125</ele>
        <time>2020-05-09T13:03:39.000Z</time>
        <extensions>
          <ns3:TrackPointExtension>
            <ns3:atemp>28.0</ns3:atemp>
          </ns3:TrackPointExtension>
        </extensions>
      </trkpt>
      <trkpt lat="43.01428087055683135986328125" lon="13.79891789518296718597412109375">
        <ele>239.399993896484375</ele>
        <time>2020-05-09T13:03:40.000Z</time>
        <extensions>
          <ns3:TrackPointExtension>
            <ns3:atemp>28.0</ns3:atemp>
            <ns3:hr>127</ns3:hr>
          </ns3:TrackPointExtension>
        </extensions>
      </trkpt>
      <trkpt lat="43.0143534578382968902587890625" lon="13.799022920429706573486328125">
        <ele>238.399993896484375</ele>
        <time>2020-05-09T13:03:41.000Z</time>
        <extensions>
          <ns3:TrackPointExtension>
            <ns3:atemp>28.0</ns3:atemp>
            <ns3:hr>126</ns3:hr>
          </ns3:TrackPointExtension>
        </extensions>
      </trkpt>
      <trkpt lat="43.01449284888803958892822265625" lon="13.7992250919342041015625">
        <ele>237.1999969482421875</ele>
        <time>2020-05-09T13:03:43.000Z</time>
        <extensions>
          <ns3:TrackPointExtension>
            <ns3:atemp>28.0</ns3:atemp>
            <ns3:hr>126</ns3:hr>
          </ns3:TrackPointExtension>
        </extensions>
      </trkpt>
      <trkpt lat="43.01467649638652801513671875" lon="13.79955089651048183441162109375">
        <ele>235.600006103515625</ele>
        <time>2020-05-09T13:03:46.000Z</time>
        <extensions>
          <ns3:TrackPointExtension>
            <ns3:atemp>28.0</ns3:atemp>
            <ns3:hr>123</ns3:hr>
          </ns3:TrackPointExtension>
        </extensions>
      </trkpt>
      <trkpt lat="43.01472955383360385894775390625" lon="13.7996594421565532684326171875">
        <ele>235.399993896484375</ele>
        <time>2020-05-09T13:03:47.000Z</time>
        <extensions>
          <ns3:TrackPointExtension>
            <ns3:atemp>28.0</ns3:atemp>
            <ns3:hr>126</ns3:hr>
          </ns3:TrackPointExtension>
        </extensions>
      </trkpt>
      <trkpt lat="43.014813624322414398193359375" lon="13.7998716719448566436767578125">
        <ele>234</ele>
        <time>2020-05-09T13:03:49.000Z</time>
        <extensions>
          <ns3:TrackPointExtension>
            <ns3:atemp>28.0</ns3:atemp>
            <ns3:hr>130</ns3:hr>
          </ns3:TrackPointExtension>
        </extensions>
      </trkpt>
      <trkpt lat="43.01484958268702030181884765625" lon="13.79998658783733844757080078125">
        <ele>233.1999969482421875</ele>
        <time>2020-05-09T13:03:50.000Z</time>
        <extensions>
          <ns3:TrackPointExtension>
            <ns3:atemp>28.0</ns3:atemp>
            <ns3:hr>132</ns3:hr>
          </ns3:TrackPointExtension>
        </extensions>
      </trkpt>
      <trkpt lat="43.01488160155713558197021484375" lon="13.80010929889976978302001953125">
        <ele>232</ele>
        <time>2020-05-09T13:03:51.000Z</time>
        <extensions>
          <ns3:TrackPointExtension>
            <ns3:atemp>28.0</ns3:atemp>
            <ns3:hr>132</ns3:hr>
          </ns3:TrackPointExtension>
        </extensions>
      </trkpt>
      <trkpt lat="43.0149137042462825775146484375" lon="13.8002334348857402801513671875">
        <ele>231</ele>
        <time>2020-05-09T13:03:52.000Z</time>
        <extensions>
          <ns3:TrackPointExtension>
            <ns3:atemp>27.0</ns3:atemp>
            <ns3:hr>133</ns3:hr>
          </ns3:TrackPointExtension>
        </extensions>
      </trkpt>
      <trkpt lat="43.01494396291673183441162109375" lon="13.80036712624132633209228515625">
        <ele>229.600006103515625</ele>
        <time>2020-05-09T13:03:53.000Z</time>
        <extensions>
          <ns3:TrackPointExtension>
            <ns3:atemp>27.0</ns3:atemp>
            <ns3:hr>134</ns3:hr>
          </ns3:TrackPointExtension>
        </extensions>
      </trkpt>
      <trkpt lat="43.01497212611138820648193359375" lon="13.80050492472946643829345703125">
        <ele>228</ele>
        <time>2020-05-09T13:03:54.000Z</time>
        <extensions>
          <ns3:TrackPointExtension>
            <ns3:atemp>27.0</ns3:atemp>
            <ns3:hr>134</ns3:hr>
          </ns3:TrackPointExtension>
        </extensions>
      </trkpt>
      <trkpt lat="43.01500230096280574798583984375" lon="13.8006340898573398590087890625">
        <ele>226.600006103515625</ele>
        <time>2020-05-09T13:03:55.000Z</time>
        <extensions>
          <ns3:TrackPointExtension>
            <ns3:atemp>27.0</ns3:atemp>
            <ns3:hr>134</ns3:hr>
          </ns3:TrackPointExtension>
        </extensions>
      </trkpt>
      <trkpt lat="43.0150325596332550048828125" lon="13.80075872875750064849853515625">
        <ele>225.399993896484375</ele>
        <time>2020-05-09T13:03:56.000Z</time>
        <extensions>
          <ns3:TrackPointExtension>
            <ns3:atemp>27.0</ns3:atemp>
            <ns3:hr>133</ns3:hr>
          </ns3:TrackPointExtension>
        </extensions>
      </trkpt>
      <trkpt lat="43.015067093074321746826171875" lon="13.80088604986667633056640625">
        <ele>224.1999969482421875</ele>
        <time>2020-05-09T13:03:57.000Z</time>
        <extensions>
          <ns3:TrackPointExtension>
            <ns3:atemp>27.0</ns3:atemp>
            <ns3:hr>133</ns3:hr>
          </ns3:TrackPointExtension>
        </extensions>
      </trkpt>
      <trkpt lat="43.01510556600987911224365234375" lon="13.80101806484162807464599609375">
        <ele>223</ele>
        <time>2020-05-09T13:03:58.000Z</time>
        <extensions>
          <ns3:TrackPointExtension>
            <ns3:atemp>27.0</ns3:atemp>
            <ns3:hr>133</ns3:hr>
          </ns3:TrackPointExtension>
        </extensions>
      </trkpt>
      <trkpt lat="43.0151453800499439239501953125" lon="13.80115603096783161163330078125">
        <ele>222</ele>
        <time>2020-05-09T13:03:59.000Z</time>
        <extensions>
          <ns3:TrackPointExtension>
            <ns3:atemp>27.0</ns3:atemp>
            <ns3:hr>134</ns3:hr>
          </ns3:TrackPointExtension>
        </extensions>
      </trkpt>
      <trkpt lat="43.015188463032245635986328125" lon="13.801291398704051971435546875">
        <ele>220.8000030517578125</ele>
        <time>2020-05-09T13:04:00.000Z</time>
        <extensions>
          <ns3:TrackPointExtension>
            <ns3:atemp>27.0</ns3:atemp>
            <ns3:hr>131</ns3:hr>
          </ns3:TrackPointExtension>
        </extensions>
      </trkpt>
      <trkpt lat="43.0152364075183868408203125" lon="13.80142291076481342315673828125">
        <ele>219.600006103515625</ele>
        <time>2020-05-09T13:04:01.000Z</time>
        <extensions>
          <ns3:TrackPointExtension>
            <ns3:atemp>27.0</ns3:atemp>
            <ns3:hr>131</ns3:hr>
          </ns3:TrackPointExtension>
        </extensions>
      </trkpt>
      <trkpt lat="43.01528871059417724609375" lon="13.801550231873989105224609375">
        <ele>218</ele>
        <time>2020-05-09T13:04:02.000Z</time>
        <extensions>
          <ns3:TrackPointExtension>
            <ns3:atemp>27.0</ns3:atemp>
            <ns3:hr>131</ns3:hr>
          </ns3:TrackPointExtension>
        </extensions>
      </trkpt>
      <trkpt lat="43.0153428576886653900146484375" lon="13.8016801513731479644775390625">
        <ele>216.1999969482421875</ele>
        <time>2020-05-09T13:04:03.000Z</time>
        <extensions>
          <ns3:TrackPointExtension>
            <ns3:atemp>27.0</ns3:atemp>
            <ns3:hr>129</ns3:hr>
          </ns3:TrackPointExtension>
        </extensions>
      </trkpt>
      <trkpt lat="43.0153973400592803955078125" lon="13.80180277861654758453369140625">
        <ele>214.600006103515625</ele>
        <time>2020-05-09T13:04:04.000Z</time>
        <extensions>
          <ns3:TrackPointExtension>
            <ns3:atemp>27.0</ns3:atemp>
            <ns3:hr>125</ns3:hr>
          </ns3:TrackPointExtension>
        </extensions>
      </trkpt>
      <trkpt lat="43.0154843442142009735107421875" lon="13.80205490626394748687744140625">
        <ele>213.1999969482421875</ele>
        <time>2020-05-09T13:04:06.000Z</time>
        <extensions>
          <ns3:TrackPointExtension>
            <ns3:atemp>27.0</ns3:atemp>
            <ns3:hr>121</ns3:hr>
          </ns3:TrackPointExtension>
        </extensions>
      </trkpt>
      <trkpt lat="43.01552013494074344635009765625" lon="13.80218298174440860748291015625">
        <ele>213</ele>
        <time>2020-05-09T13:04:07.000Z</time>
        <extensions>
          <ns3:TrackPointExtension>
            <ns3:atemp>27.0</ns3:atemp>
            <ns3:hr>120</ns3:hr>
          </ns3:TrackPointExtension>
        </extensions>
      </trkpt>
      <trkpt lat="43.01563882268965244293212890625" lon="13.802822940051555633544921875">
        <ele>212.8000030517578125</ele>
        <time>2020-05-09T13:04:12.000Z</time>
        <extensions>
          <ns3:TrackPointExtension>
            <ns3:atemp>27.0</ns3:atemp>
            <ns3:hr>118</ns3:hr>
          </ns3:TrackPointExtension>
        </extensions>
      </trkpt>
      <trkpt lat="43.01566078327596187591552734375" lon="13.80295445211231708526611328125">
        <ele>212.1999969482421875</ele>
        <time>2020-05-09T13:04:13.000Z</time>
        <extensions>
          <ns3:TrackPointExtension>
            <ns3:atemp>27.0</ns3:atemp>
            <ns3:hr>117</ns3:hr>
          </ns3:TrackPointExtension>
        </extensions>
      </trkpt>
      <trkpt lat="43.01572800613939762115478515625" lon="13.8033407740294933319091796875">
        <ele>210.8000030517578125</ele>
        <time>2020-05-09T13:04:16.000Z</time>
        <extensions>
          <ns3:TrackPointExtension>
            <ns3:atemp>27.0</ns3:atemp>
            <ns3:hr>115</ns3:hr>
          </ns3:TrackPointExtension>
        </extensions>
      </trkpt>
      <trkpt lat="43.01575164310634136199951171875" lon="13.80345870740711688995361328125">
        <ele>210</ele>
        <time>2020-05-09T13:04:17.000Z</time>
        <extensions>
          <ns3:TrackPointExtension>
            <ns3:atemp>27.0</ns3:atemp>
            <ns3:hr>115</ns3:hr>
          </ns3:TrackPointExtension>
        </extensions>
      </trkpt>
      <trkpt lat="43.0157753638923168182373046875" lon="13.80357203073799610137939453125">
        <ele>209</ele>
        <time>2020-05-09T13:04:18.000Z</time>
        <extensions>
          <ns3:TrackPointExtension>
            <ns3:atemp>27.0</ns3:atemp>
            <ns3:hr>114</ns3:hr>
          </ns3:TrackPointExtension>
        </extensions>
      </trkpt>
      <trkpt lat="43.01580092869699001312255859375" lon="13.80367957055568695068359375">
        <ele>208.399993896484375</ele>
        <time>2020-05-09T13:04:19.000Z</time>
        <extensions>
          <ns3:TrackPointExtension>
            <ns3:atemp>27.0</ns3:atemp>
            <ns3:hr>113</ns3:hr>
          </ns3:TrackPointExtension>
        </extensions>
      </trkpt>
      <trkpt lat="43.01582976244390010833740234375" lon="13.80378409288823604583740234375">
        <ele>208.1999969482421875</ele>
        <time>2020-05-09T13:04:20.000Z</time>
        <extensions>
          <ns3:TrackPointExtension>
            <ns3:atemp>27.0</ns3:atemp>
            <ns3:hr>113</ns3:hr>
          </ns3:TrackPointExtension>
        </extensions>
      </trkpt>
      <trkpt lat="43.01594425924122333526611328125" lon="13.80405348725616931915283203125">
        <ele>208.600006103515625</ele>
        <time>2020-05-09T13:04:23.000Z</time>
        <extensions>
          <ns3:TrackPointExtension>
            <ns3:atemp>27.0</ns3:atemp>
            <ns3:hr>111</ns3:hr>
          </ns3:TrackPointExtension>
        </extensions>
      </trkpt>
      <trkpt lat="43.01605272106826305389404296875" lon="13.80427745170891284942626953125">
        <ele>209.600006103515625</ele>
        <time>2020-05-09T13:04:26.000Z</time>
        <extensions>
          <ns3:TrackPointExtension>
            <ns3:atemp>27.0</ns3:atemp>
            <ns3:hr>112</ns3:hr>
          </ns3:TrackPointExtension>
        </extensions>
      </trkpt>
      <trkpt lat="43.0161269009113311767578125" lon="13.8043992407619953155517578125">
        <ele>210</ele>
        <time>2020-05-09T13:04:28.000Z</time>
        <extensions>
          <ns3:TrackPointExtension>
            <ns3:atemp>27.0</ns3:atemp>
            <ns3:hr>112</ns3:hr>
          </ns3:TrackPointExtension>
        </extensions>
      </trkpt>
      <trkpt lat="43.01623645238578319549560546875" lon="13.8046346046030521392822265625">
        <ele>210</ele>
        <time>2020-05-09T13:04:32.000Z</time>
        <extensions>
          <ns3:TrackPointExtension>
            <ns3:atemp>27.0</ns3:atemp>
            <ns3:hr>116</ns3:hr>
          </ns3:TrackPointExtension>
        </extensions>
      </trkpt>
      <trkpt lat="43.016278110444545745849609375" lon="13.8047579862177371978759765625">
        <ele>209</ele>
        <time>2020-05-09T13:04:34.000Z</time>
        <extensions>
          <ns3:TrackPointExtension>
            <ns3:atemp>27.0</ns3:atemp>
            <ns3:hr>120</ns3:hr>
          </ns3:TrackPointExtension>
        </extensions>
      </trkpt>
      <trkpt lat="43.0162983946502208709716796875" lon="13.80482529290020465850830078125">
        <ele>208.8000030517578125</ele>
        <time>2020-05-09T13:04:35.000Z</time>
        <extensions>
          <ns3:TrackPointExtension>
            <ns3:atemp>27.0</ns3:atemp>
            <ns3:hr>122</ns3:hr>
          </ns3:TrackPointExtension>
        </extensions>
      </trkpt>
      <trkpt lat="43.01638447679579257965087890625" lon="13.8051036559045314788818359375">
        <ele>208.600006103515625</ele>
        <time>2020-05-09T13:04:39.000Z</time>
        <extensions>
          <ns3:TrackPointExtension>
            <ns3:atemp>27.0</ns3:atemp>
            <ns3:hr>119</ns3:hr>
          </ns3:TrackPointExtension>
        </extensions>
      </trkpt>
      <trkpt lat="43.01640844903886318206787109375" lon="13.805169872939586639404296875">
        <ele>208.600006103515625</ele>
        <time>2020-05-09T13:04:40.000Z</time>
        <extensions>
          <ns3:TrackPointExtension>
            <ns3:atemp>27.0</ns3:atemp>
            <ns3:hr>120</ns3:hr>
          </ns3:TrackPointExtension>
        </extensions>
      </trkpt>
      <trkpt lat="43.0164781026542186737060546875" lon="13.805375061929225921630859375">
        <ele>208.8000030517578125</ele>
        <time>2020-05-09T13:04:43.000Z</time>
        <extensions>
          <ns3:TrackPointExtension>
            <ns3:atemp>27.0</ns3:atemp>
            <ns3:hr>123</ns3:hr>
          </ns3:TrackPointExtension>
        </extensions>
      </trkpt>
      <trkpt lat="43.016526885330677032470703125" lon="13.80551679991185665130615234375">
        <ele>208.1999969482421875</ele>
        <time>2020-05-09T13:04:45.000Z</time>
        <extensions>
          <ns3:TrackPointExtension>
            <ns3:atemp>27.0</ns3:atemp>
            <ns3:hr>126</ns3:hr>
          </ns3:TrackPointExtension>
        </extensions>
      </trkpt>
      <trkpt lat="43.0165505222976207733154296875" lon="13.80558796226978302001953125">
        <ele>207.8000030517578125</ele>
        <time>2020-05-09T13:04:46.000Z</time>
        <extensions>
          <ns3:TrackPointExtension>
            <ns3:atemp>27.0</ns3:atemp>
            <ns3:hr>128</ns3:hr>
          </ns3:TrackPointExtension>
        </extensions>
      </trkpt>
      <trkpt lat="43.016599304974079132080078125" lon="13.8057012856006622314453125">
        <ele>207.1999969482421875</ele>
        <time>2020-05-09T13:04:48.000Z</time>
        <extensions>
          <ns3:TrackPointExtension>
            <ns3:atemp>27.0</ns3:atemp>
            <ns3:hr>131</ns3:hr>
          </ns3:TrackPointExtension>
        </extensions>
      </trkpt>
      <trkpt lat="43.01664615981280803680419921875" lon="13.8058047182857990264892578125">
        <ele>206.8000030517578125</ele>
        <time>2020-05-09T13:04:50.000Z</time>
        <extensions>
          <ns3:TrackPointExtension>
            <ns3:atemp>27.0</ns3:atemp>
            <ns3:hr>134</ns3:hr>
          </ns3:TrackPointExtension>
        </extensions>
      </trkpt>
      <trkpt lat="43.01667231135070323944091796875" lon="13.80585392005741596221923828125">
        <ele>206.399993896484375</ele>
        <time>2020-05-09T13:04:51.000Z</time>
        <extensions>
          <ns3:TrackPointExtension>
            <ns3:atemp>27.0</ns3:atemp>
            <ns3:hr>132</ns3:hr>
          </ns3:TrackPointExtension>
        </extensions>
      </trkpt>
      <trkpt lat="43.01669896580278873443603515625" lon="13.80590555258095264434814453125">
        <ele>206.1999969482421875</ele>
        <time>2020-05-09T13:04:52.000Z</time>
        <extensions>
          <ns3:TrackPointExtension>
            <ns3:atemp>27.0</ns3:atemp>
            <ns3:hr>135</ns3:hr>
          </ns3:TrackPointExtension>
        </extensions>
      </trkpt>
      <trkpt lat="43.01672260276973247528076171875" lon="13.80596322007477283477783203125">
        <ele>206</ele>
        <time>2020-05-09T13:04:53.000Z</time>
        <extensions>
          <ns3:TrackPointExtension>
            <ns3:atemp>27.0</ns3:atemp>
            <ns3:hr>136</ns3:hr>
          </ns3:TrackPointExtension>
        </extensions>
      </trkpt>
      <trkpt lat="43.0167362652719020843505859375" lon="13.806104622781276702880859375">
        <ele>205.600006103515625</ele>
        <time>2020-05-09T13:04:55.000Z</time>
        <extensions>
          <ns3:TrackPointExtension>
            <ns3:atemp>27.0</ns3:atemp>
            <ns3:hr>136</ns3:hr>
          </ns3:TrackPointExtension>
        </extensions>
      </trkpt>
      <trkpt lat="43.0167191661894321441650390625" lon="13.8062744401395320892333984375">
        <ele>205.1999969482421875</ele>
        <time>2020-05-09T13:04:57.000Z</time>
        <extensions>
          <ns3:TrackPointExtension>
            <ns3:atemp>27.0</ns3:atemp>
            <ns3:hr>137</ns3:hr>
          </ns3:TrackPointExtension>
        </extensions>
      </trkpt>
      <trkpt lat="43.01670852117240428924560546875" lon="13.8063837401568889617919921875">
        <ele>205</ele>
        <time>2020-05-09T13:04:58.000Z</time>
        <extensions>
          <ns3:TrackPointExtension>
            <ns3:atemp>27.0</ns3:atemp>
            <ns3:hr>137</ns3:hr>
          </ns3:TrackPointExtension>
        </extensions>
      </trkpt>
      <trkpt lat="43.016714639961719512939453125" lon="13.80647267214953899383544921875">
        <ele>204.8000030517578125</ele>
        <time>2020-05-09T13:04:59.000Z</time>
        <extensions>
          <ns3:TrackPointExtension>
            <ns3:atemp>27.0</ns3:atemp>
            <ns3:hr>137</ns3:hr>
          </ns3:TrackPointExtension>
        </extensions>
      </trkpt>
      <trkpt lat="43.01671807654201984405517578125" lon="13.8065810501575469970703125">
        <ele>204</ele>
        <time>2020-05-09T13:05:00.000Z</time>
        <extensions>
          <ns3:TrackPointExtension>
            <ns3:atemp>27.0</ns3:atemp>
            <ns3:hr>135</ns3:hr>
          </ns3:TrackPointExtension>
        </extensions>
      </trkpt>
      <trkpt lat="43.01672637462615966796875" lon="13.8066802918910980224609375">
        <ele>202.600006103515625</ele>
        <time>2020-05-09T13:05:01.000Z</time>
        <extensions>
          <ns3:TrackPointExtension>
            <ns3:atemp>27.0</ns3:atemp>
            <ns3:hr>135</ns3:hr>
          </ns3:TrackPointExtension>
        </extensions>
      </trkpt>
      <trkpt lat="43.016738109290599822998046875" lon="13.80677626468241214752197265625">
        <ele>201.399993896484375</ele>
        <time>2020-05-09T13:05:02.000Z</time>
        <extensions>
          <ns3:TrackPointExtension>
            <ns3:atemp>27.0</ns3:atemp>
            <ns3:hr>135</ns3:hr>
          </ns3:TrackPointExtension>
        </extensions>
      </trkpt>
      <trkpt lat="43.01676015369594097137451171875" lon="13.80697893910109996795654296875">
        <ele>200.399993896484375</ele>
        <time>2020-05-09T13:05:04.000Z</time>
        <extensions>
          <ns3:TrackPointExtension>
            <ns3:atemp>27.0</ns3:atemp>
            <ns3:hr>135</ns3:hr>
          </ns3:TrackPointExtension>
        </extensions>
      </trkpt>
      <trkpt lat="43.016776330769062042236328125" lon="13.80707751028239727020263671875">
        <ele>200</ele>
        <time>2020-05-09T13:05:05.000Z</time>
        <extensions>
          <ns3:TrackPointExtension>
            <ns3:atemp>27.0</ns3:atemp>
            <ns3:hr>136</ns3:hr>
          </ns3:TrackPointExtension>
        </extensions>
      </trkpt>
      <trkpt lat="43.0168338306248188018798828125" lon="13.80735394544899463653564453125">
        <ele>199.1999969482421875</ele>
        <time>2020-05-09T13:05:08.000Z</time>
        <extensions>
          <ns3:TrackPointExtension>
            <ns3:atemp>27.0</ns3:atemp>
            <ns3:hr>136</ns3:hr>
          </ns3:TrackPointExtension>
        </extensions>
      </trkpt>
      <trkpt lat="43.016889654099941253662109375" lon="13.80753801204264163970947265625">
        <ele>199</ele>
        <time>2020-05-09T13:05:10.000Z</time>
        <extensions>
          <ns3:TrackPointExtension>
            <ns3:atemp>27.0</ns3:atemp>
            <ns3:hr>136</ns3:hr>
          </ns3:TrackPointExtension>
        </extensions>
      </trkpt>
      <trkpt lat="43.0170651711523532867431640625" lon="13.8080296106636524200439453125">
        <ele>197.8000030517578125</ele>
        <time>2020-05-09T13:05:15.000Z</time>
        <extensions>
          <ns3:TrackPointExtension>
            <ns3:atemp>27.0</ns3:atemp>
            <ns3:hr>137</ns3:hr>
          </ns3:TrackPointExtension>
        </extensions>
      </trkpt>
      <trkpt lat="43.01710515283048152923583984375" lon="13.8081281818449497222900390625">
        <ele>196.8000030517578125</ele>
        <time>2020-05-09T13:05:16.000Z</time>
        <extensions>
          <ns3:TrackPointExtension>
            <ns3:atemp>27.0</ns3:atemp>
            <ns3:hr>136</ns3:hr>
          </ns3:TrackPointExtension>
        </extensions>
      </trkpt>
      <trkpt lat="43.017142117023468017578125" lon="13.80822725594043731689453125">
        <ele>195.8000030517578125</ele>
        <time>2020-05-09T13:05:17.000Z</time>
        <extensions>
          <ns3:TrackPointExtension>
            <ns3:atemp>27.0</ns3:atemp>
            <ns3:hr>136</ns3:hr>
          </ns3:TrackPointExtension>
        </extensions>
      </trkpt>
      <trkpt lat="43.017211519181728363037109375" lon="13.80840537138283252716064453125">
        <ele>194.600006103515625</ele>
        <time>2020-05-09T13:05:19.000Z</time>
        <extensions>
          <ns3:TrackPointExtension>
            <ns3:atemp>27.0</ns3:atemp>
            <ns3:hr>136</ns3:hr>
          </ns3:TrackPointExtension>
        </extensions>
      </trkpt>
      <trkpt lat="43.017317466437816619873046875" lon="13.80868666805326938629150390625">
        <ele>193.399993896484375</ele>
        <time>2020-05-09T13:05:22.000Z</time>
        <extensions>
          <ns3:TrackPointExtension>
            <ns3:atemp>27.0</ns3:atemp>
            <ns3:hr>136</ns3:hr>
          </ns3:TrackPointExtension>
        </extensions>
      </trkpt>
      <trkpt lat="43.017572946846485137939453125" lon="13.8093143887817859649658203125">
        <ele>192.399993896484375</ele>
        <time>2020-05-09T13:05:29.000Z</time>
        <extensions>
          <ns3:TrackPointExtension>
            <ns3:atemp>27.0</ns3:atemp>
            <ns3:hr>135</ns3:hr>
          </ns3:TrackPointExtension>
        </extensions>
      </trkpt>
      <trkpt lat="43.0177092365920543670654296875" lon="13.80978268571197986602783203125">
        <ele>191</ele>
        <time>2020-05-09T13:05:34.000Z</time>
        <extensions>
          <ns3:TrackPointExtension>
            <ns3:atemp>27.0</ns3:atemp>
            <ns3:hr>136</ns3:hr>
          </ns3:TrackPointExtension>
        </extensions>
      </trkpt>
      <trkpt lat="43.0177367292344570159912109375" lon="13.809856362640857696533203125">
        <ele>190.600006103515625</ele>
        <time>2020-05-09T13:05:35.000Z</time>
        <extensions>
          <ns3:TrackPointExtension>
            <ns3:atemp>27.0</ns3:atemp>
            <ns3:hr>137</ns3:hr>
          </ns3:TrackPointExtension>
        </extensions>
      </trkpt>
      <trkpt lat="43.0178718455135822296142578125" lon="13.81024427711963653564453125">
        <ele>189.8000030517578125</ele>
        <time>2020-05-09T13:05:40.000Z</time>
        <extensions>
          <ns3:TrackPointExtension>
            <ns3:atemp>27.0</ns3:atemp>
            <ns3:hr>137</ns3:hr>
          </ns3:TrackPointExtension>
        </extensions>
      </trkpt>
      <trkpt lat="43.01790696568787097930908203125" lon="13.81032549776136875152587890625">
        <ele>189.399993896484375</ele>
        <time>2020-05-09T13:05:41.000Z</time>
        <extensions>
          <ns3:TrackPointExtension>
            <ns3:atemp>27.0</ns3:atemp>
            <ns3:hr>137</ns3:hr>
          </ns3:TrackPointExtension>
        </extensions>
      </trkpt>
      <trkpt lat="43.0179466120898723602294921875" lon="13.81041753105819225311279296875">
        <ele>188.8000030517578125</ele>
        <time>2020-05-09T13:05:42.000Z</time>
        <extensions>
          <ns3:TrackPointExtension>
            <ns3:atemp>27.0</ns3:atemp>
            <ns3:hr>138</ns3:hr>
          </ns3:TrackPointExtension>
        </extensions>
      </trkpt>
      <trkpt lat="43.0180314369499683380126953125" lon="13.810606040060520172119140625">
        <ele>186.600006103515625</ele>
        <time>2020-05-09T13:05:44.000Z</time>
        <extensions>
          <ns3:TrackPointExtension>
            <ns3:atemp>27.0</ns3:atemp>
            <ns3:hr>138</ns3:hr>
          </ns3:TrackPointExtension>
        </extensions>
      </trkpt>
      <trkpt lat="43.01807745359838008880615234375" lon="13.810699917376041412353515625">
        <ele>185.399993896484375</ele>
        <time>2020-05-09T13:05:45.000Z</time>
        <extensions>
          <ns3:TrackPointExtension>
            <ns3:atemp>27.0</ns3:atemp>
            <ns3:hr>136</ns3:hr>
          </ns3:TrackPointExtension>
        </extensions>
      </trkpt>
      <trkpt lat="43.01817585714161396026611328125" lon="13.8108859956264495849609375">
        <ele>183.8000030517578125</ele>
        <time>2020-05-09T13:05:47.000Z</time>
        <extensions>
          <ns3:TrackPointExtension>
            <ns3:atemp>27.0</ns3:atemp>
            <ns3:hr>137</ns3:hr>
          </ns3:TrackPointExtension>
        </extensions>
      </trkpt>
      <trkpt lat="43.01839864812791347503662109375" lon="13.81122923456132411956787109375">
        <ele>182.8000030517578125</ele>
        <time>2020-05-09T13:05:51.000Z</time>
        <extensions>
          <ns3:TrackPointExtension>
            <ns3:atemp>27.0</ns3:atemp>
            <ns3:hr>135</ns3:hr>
          </ns3:TrackPointExtension>
        </extensions>
      </trkpt>
      <trkpt lat="43.01851130090653896331787109375" lon="13.81138865835964679718017578125">
        <ele>182.399993896484375</ele>
        <time>2020-05-09T13:05:53.000Z</time>
        <extensions>
          <ns3:TrackPointExtension>
            <ns3:atemp>27.0</ns3:atemp>
            <ns3:hr>133</ns3:hr>
          </ns3:TrackPointExtension>
        </extensions>
      </trkpt>
      <trkpt lat="43.01867835223674774169921875" lon="13.81162695586681365966796875">
        <ele>181.399993896484375</ele>
        <time>2020-05-09T13:05:56.000Z</time>
        <extensions>
          <ns3:TrackPointExtension>
            <ns3:atemp>27.0</ns3:atemp>
            <ns3:hr>132</ns3:hr>
          </ns3:TrackPointExtension>
        </extensions>
      </trkpt>
      <trkpt lat="43.01872604526579380035400390625" lon="13.8117119483649730682373046875">
        <ele>180.8000030517578125</ele>
        <time>2020-05-09T13:05:57.000Z</time>
        <extensions>
          <ns3:TrackPointExtension>
            <ns3:atemp>26.0</ns3:atemp>
            <ns3:hr>132</ns3:hr>
          </ns3:TrackPointExtension>
        </extensions>
      </trkpt>
      <trkpt lat="43.018762506544589996337890625" lon="13.81180523894727230072021484375">
        <ele>180.1999969482421875</ele>
        <time>2020-05-09T13:05:58.000Z</time>
        <extensions>
          <ns3:TrackPointExtension>
            <ns3:atemp>26.0</ns3:atemp>
            <ns3:hr>134</ns3:hr>
          </ns3:TrackPointExtension>
        </extensions>
      </trkpt>
      <trkpt lat="43.018812127411365509033203125" lon="13.812012188136577606201171875">
        <ele>178.8000030517578125</ele>
        <time>2020-05-09T13:06:00.000Z</time>
        <extensions>
          <ns3:TrackPointExtension>
            <ns3:atemp>26.0</ns3:atemp>
            <ns3:hr>135</ns3:hr>
          </ns3:TrackPointExtension>
        </extensions>
      </trkpt>
      <trkpt lat="43.0188493430614471435546875" lon="13.8122405111789703369140625">
        <ele>177.600006103515625</ele>
        <time>2020-05-09T13:06:02.000Z</time>
        <extensions>
          <ns3:TrackPointExtension>
            <ns3:atemp>26.0</ns3:atemp>
            <ns3:hr>134</ns3:hr>
          </ns3:TrackPointExtension>
        </extensions>
      </trkpt>
      <trkpt lat="43.0188827030360698699951171875" lon="13.812466822564601898193359375">
        <ele>176</ele>
        <time>2020-05-09T13:06:04.000Z</time>
        <extensions>
          <ns3:TrackPointExtension>
            <ns3:atemp>26.0</ns3:atemp>
            <ns3:hr>132</ns3:hr>
          </ns3:TrackPointExtension>
        </extensions>
      </trkpt>
      <trkpt lat="43.01889427006244659423828125" lon="13.81268776953220367431640625">
        <ele>173.8000030517578125</ele>
        <time>2020-05-09T13:06:06.000Z</time>
        <extensions>
          <ns3:TrackPointExtension>
            <ns3:atemp>26.0</ns3:atemp>
            <ns3:hr>131</ns3:hr>
          </ns3:TrackPointExtension>
        </extensions>
      </trkpt>
      <trkpt lat="43.0188904143869876861572265625" lon="13.81280587054789066314697265625">
        <ele>172.8000030517578125</ele>
        <time>2020-05-09T13:06:07.000Z</time>
        <extensions>
          <ns3:TrackPointExtension>
            <ns3:atemp>26.0</ns3:atemp>
            <ns3:hr>131</ns3:hr>
          </ns3:TrackPointExtension>
        </extensions>
      </trkpt>
      <trkpt lat="43.0188810266554355621337890625" lon="13.8129333592951297760009765625">
        <ele>172.1999969482421875</ele>
        <time>2020-05-09T13:06:08.000Z</time>
        <extensions>
          <ns3:TrackPointExtension>
            <ns3:atemp>26.0</ns3:atemp>
            <ns3:hr>130</ns3:hr>
          </ns3:TrackPointExtension>
        </extensions>
      </trkpt>
      <trkpt lat="43.01885177381336688995361328125" lon="13.813215158879756927490234375">
        <ele>170.1999969482421875</ele>
        <time>2020-05-09T13:06:10.000Z</time>
        <extensions>
          <ns3:TrackPointExtension>
            <ns3:atemp>26.0</ns3:atemp>
            <ns3:hr>129</ns3:hr>
          </ns3:TrackPointExtension>
        </extensions>
      </trkpt>
      <trkpt lat="43.01883031614124774932861328125" lon="13.813371397554874420166015625">
        <ele>168.399993896484375</ele>
        <time>2020-05-09T13:06:11.000Z</time>
        <extensions>
          <ns3:TrackPointExtension>
            <ns3:atemp>26.0</ns3:atemp>
            <ns3:hr>128</ns3:hr>
          </ns3:TrackPointExtension>
        </extensions>
      </trkpt>
      <trkpt lat="43.0188122950494289398193359375" lon="13.8135177455842494964599609375">
        <ele>166</ele>
        <time>2020-05-09T13:06:12.000Z</time>
        <extensions>
          <ns3:TrackPointExtension>
            <ns3:atemp>26.0</ns3:atemp>
            <ns3:hr>128</ns3:hr>
          </ns3:TrackPointExtension>
        </extensions>
      </trkpt>
      <trkpt lat="43.01878991536796092987060546875" lon="13.813679851591587066650390625">
        <ele>163.600006103515625</ele>
        <time>2020-05-09T13:06:13.000Z</time>
        <extensions>
          <ns3:TrackPointExtension>
            <ns3:atemp>26.0</ns3:atemp>
            <ns3:hr>127</ns3:hr>
          </ns3:TrackPointExtension>
        </extensions>
      </trkpt>
      <trkpt lat="43.01877130754292011260986328125" lon="13.81384036503732204437255859375">
        <ele>161.8000030517578125</ele>
        <time>2020-05-09T13:06:14.000Z</time>
        <extensions>
          <ns3:TrackPointExtension>
            <ns3:atemp>26.0</ns3:atemp>
            <ns3:hr>127</ns3:hr>
          </ns3:TrackPointExtension>
        </extensions>
      </trkpt>
      <trkpt lat="43.0187482573091983795166015625" lon="13.81400867365300655364990234375">
        <ele>160.600006103515625</ele>
        <time>2020-05-09T13:06:15.000Z</time>
        <extensions>
          <ns3:TrackPointExtension>
            <ns3:atemp>26.0</ns3:atemp>
            <ns3:hr>125</ns3:hr>
          </ns3:TrackPointExtension>
        </extensions>
      </trkpt>
      <trkpt lat="43.01872353069484233856201171875" lon="13.81418486125767230987548828125">
        <ele>159.1999969482421875</ele>
        <time>2020-05-09T13:06:16.000Z</time>
        <extensions>
          <ns3:TrackPointExtension>
            <ns3:atemp>26.0</ns3:atemp>
            <ns3:hr>125</ns3:hr>
          </ns3:TrackPointExtension>
        </extensions>
      </trkpt>
      <trkpt lat="43.01870257593691349029541015625" lon="13.814352415502071380615234375">
        <ele>157</ele>
        <time>2020-05-09T13:06:17.000Z</time>
        <extensions>
          <ns3:TrackPointExtension>
            <ns3:atemp>26.0</ns3:atemp>
            <ns3:hr>125</ns3:hr>
          </ns3:TrackPointExtension>
        </extensions>
      </trkpt>
      <trkpt lat="43.018680028617382049560546875" lon="13.8145229034125804901123046875">
        <ele>154.600006103515625</ele>
        <time>2020-05-09T13:06:18.000Z</time>
        <extensions>
          <ns3:TrackPointExtension>
            <ns3:atemp>26.0</ns3:atemp>
            <ns3:hr>125</ns3:hr>
          </ns3:TrackPointExtension>
        </extensions>
      </trkpt>
      <trkpt lat="43.01865312270820140838623046875" lon="13.8147113285958766937255859375">
        <ele>152</ele>
        <time>2020-05-09T13:06:19.000Z</time>
        <extensions>
          <ns3:TrackPointExtension>
            <ns3:atemp>26.0</ns3:atemp>
            <ns3:hr>123</ns3:hr>
          </ns3:TrackPointExtension>
        </extensions>
      </trkpt>
      <trkpt lat="43.0186255462467670440673828125" lon="13.8149078004062175750732421875">
        <ele>149.600006103515625</ele>
        <time>2020-05-09T13:06:20.000Z</time>
        <extensions>
          <ns3:TrackPointExtension>
            <ns3:atemp>26.0</ns3:atemp>
            <ns3:hr>125</ns3:hr>
          </ns3:TrackPointExtension>
        </extensions>
      </trkpt>
      <trkpt lat="43.018601238727569580078125" lon="13.8150918669998645782470703125">
        <ele>147.399993896484375</ele>
        <time>2020-05-09T13:06:21.000Z</time>
        <extensions>
          <ns3:TrackPointExtension>
            <ns3:atemp>26.0</ns3:atemp>
            <ns3:hr>125</ns3:hr>
          </ns3:TrackPointExtension>
        </extensions>
      </trkpt>
      <trkpt lat="43.01857642829418182373046875" lon="13.815279118716716766357421875">
        <ele>145.1999969482421875</ele>
        <time>2020-05-09T13:06:22.000Z</time>
        <extensions>
          <ns3:TrackPointExtension>
            <ns3:atemp>26.0</ns3:atemp>
            <ns3:hr>123</ns3:hr>
          </ns3:TrackPointExtension>
        </extensions>
      </trkpt>
      <trkpt lat="43.01855153404176235198974609375" lon="13.815476261079311370849609375">
        <ele>142.600006103515625</ele>
        <time>2020-05-09T13:06:23.000Z</time>
        <extensions>
          <ns3:TrackPointExtension>
            <ns3:atemp>26.0</ns3:atemp>
            <ns3:hr>123</ns3:hr>
          </ns3:TrackPointExtension>
        </extensions>
      </trkpt>
      <trkpt lat="43.018527813255786895751953125" lon="13.81566527299582958221435546875">
        <ele>140.1999969482421875</ele>
        <time>2020-05-09T13:06:24.000Z</time>
        <extensions>
          <ns3:TrackPointExtension>
            <ns3:atemp>26.0</ns3:atemp>
            <ns3:hr>123</ns3:hr>
          </ns3:TrackPointExtension>
        </extensions>
      </trkpt>
      <trkpt lat="43.01850400865077972412109375" lon="13.8158529438078403472900390625">
        <ele>138.1999969482421875</ele>
        <time>2020-05-09T13:06:25.000Z</time>
        <extensions>
          <ns3:TrackPointExtension>
            <ns3:atemp>26.0</ns3:atemp>
            <ns3:hr>122</ns3:hr>
          </ns3:TrackPointExtension>
        </extensions>
      </trkpt>
      <trkpt lat="43.01848146133124828338623046875" lon="13.81602753885090351104736328125">
        <ele>136.8000030517578125</ele>
        <time>2020-05-09T13:06:26.000Z</time>
        <extensions>
          <ns3:TrackPointExtension>
            <ns3:atemp>26.0</ns3:atemp>
            <ns3:hr>123</ns3:hr>
          </ns3:TrackPointExtension>
        </extensions>
      </trkpt>
      <trkpt lat="43.0184555612504482269287109375" lon="13.816205151379108428955078125">
        <ele>135.600006103515625</ele>
        <time>2020-05-09T13:06:27.000Z</time>
        <extensions>
          <ns3:TrackPointExtension>
            <ns3:atemp>26.0</ns3:atemp>
            <ns3:hr>122</ns3:hr>
          </ns3:TrackPointExtension>
        </extensions>
      </trkpt>
      <trkpt lat="43.018433935940265655517578125" lon="13.8163665868341922760009765625">
        <ele>135</ele>
        <time>2020-05-09T13:06:28.000Z</time>
        <extensions>
          <ns3:TrackPointExtension>
            <ns3:atemp>26.0</ns3:atemp>
            <ns3:hr>121</ns3:hr>
          </ns3:TrackPointExtension>
        </extensions>
      </trkpt>
      <trkpt lat="43.018413484096527099609375" lon="13.816525675356388092041015625">
        <ele>134</ele>
        <time>2020-05-09T13:06:29.000Z</time>
        <extensions>
          <ns3:TrackPointExtension>
            <ns3:atemp>26.0</ns3:atemp>
            <ns3:hr>121</ns3:hr>
          </ns3:TrackPointExtension>
        </extensions>
      </trkpt>
      <trkpt lat="43.0183804593980312347412109375" lon="13.8168406672775745391845703125">
        <ele>132.1999969482421875</ele>
        <time>2020-05-09T13:06:31.000Z</time>
        <extensions>
          <ns3:TrackPointExtension>
            <ns3:atemp>26.0</ns3:atemp>
            <ns3:hr>119</ns3:hr>
          </ns3:TrackPointExtension>
        </extensions>
      </trkpt>
      <trkpt lat="43.01837165839970111846923828125" lon="13.81700822152197360992431640625">
        <ele>130.8000030517578125</ele>
        <time>2020-05-09T13:06:32.000Z</time>
        <extensions>
          <ns3:TrackPointExtension>
            <ns3:atemp>26.0</ns3:atemp>
            <ns3:hr>119</ns3:hr>
          </ns3:TrackPointExtension>
        </extensions>
      </trkpt>
      <trkpt lat="43.0183670483529567718505859375" lon="13.81717988289892673492431640625">
        <ele>128.600006103515625</ele>
        <time>2020-05-09T13:06:33.000Z</time>
        <extensions>
          <ns3:TrackPointExtension>
            <ns3:atemp>26.0</ns3:atemp>
            <ns3:hr>118</ns3:hr>
          </ns3:TrackPointExtension>
        </extensions>
      </trkpt>
      <trkpt lat="43.01836679689586162567138671875" lon="13.8173539750277996063232421875">
        <ele>126</ele>
        <time>2020-05-09T13:06:34.000Z</time>
        <extensions>
          <ns3:TrackPointExtension>
            <ns3:atemp>26.0</ns3:atemp>
            <ns3:hr>116</ns3:hr>
          </ns3:TrackPointExtension>
        </extensions>
      </trkpt>
      <trkpt lat="43.01836989820003509521484375" lon="13.81753586232662200927734375">
        <ele>123.40000152587890625</ele>
        <time>2020-05-09T13:06:35.000Z</time>
        <extensions>
          <ns3:TrackPointExtension>
            <ns3:atemp>25.0</ns3:atemp>
            <ns3:hr>117</ns3:hr>
          </ns3:TrackPointExtension>
        </extensions>
      </trkpt>
      <trkpt lat="43.01837392151355743408203125" lon="13.817720599472522735595703125">
        <ele>121</ele>
        <time>2020-05-09T13:06:36.000Z</time>
        <extensions>
          <ns3:TrackPointExtension>
            <ns3:atemp>25.0</ns3:atemp>
            <ns3:hr>115</ns3:hr>
          </ns3:TrackPointExtension>
        </extensions>
      </trkpt>
      <trkpt lat="43.018380291759967803955078125" lon="13.81790944375097751617431640625">
        <ele>118.59999847412109375</ele>
        <time>2020-05-09T13:06:37.000Z</time>
        <extensions>
          <ns3:TrackPointExtension>
            <ns3:atemp>25.0</ns3:atemp>
            <ns3:hr>113</ns3:hr>
          </ns3:TrackPointExtension>
        </extensions>
      </trkpt>
      <trkpt lat="43.0183878354728221893310546875" lon="13.81809510290622711181640625">
        <ele>116.8000030517578125</ele>
        <time>2020-05-09T13:06:38.000Z</time>
        <extensions>
          <ns3:TrackPointExtension>
            <ns3:atemp>25.0</ns3:atemp>
            <ns3:hr>113</ns3:hr>
          </ns3:TrackPointExtension>
        </extensions>
      </trkpt>
      <trkpt lat="43.01839613355696201324462890625" lon="13.81827824749052524566650390625">
        <ele>115.1999969482421875</ele>
        <time>2020-05-09T13:06:39.000Z</time>
        <extensions>
          <ns3:TrackPointExtension>
            <ns3:atemp>25.0</ns3:atemp>
            <ns3:hr>112</ns3:hr>
          </ns3:TrackPointExtension>
        </extensions>
      </trkpt>
      <trkpt lat="43.01840585656464099884033203125" lon="13.81845627911388874053955078125">
        <ele>113.8000030517578125</ele>
        <time>2020-05-09T13:06:40.000Z</time>
        <extensions>
          <ns3:TrackPointExtension>
            <ns3:atemp>25.0</ns3:atemp>
            <ns3:hr>112</ns3:hr>
          </ns3:TrackPointExtension>
        </extensions>
      </trkpt>
      <trkpt lat="43.01841289736330509185791015625" lon="13.81863422691822052001953125">
        <ele>112.8000030517578125</ele>
        <time>2020-05-09T13:06:41.000Z</time>
        <extensions>
          <ns3:TrackPointExtension>
            <ns3:atemp>25.0</ns3:atemp>
            <ns3:hr>111</ns3:hr>
          </ns3:TrackPointExtension>
        </extensions>
      </trkpt>
      <trkpt lat="43.0184156633913516998291015625" lon="13.81898668594658374786376953125">
        <ele>111.59999847412109375</ele>
        <time>2020-05-09T13:06:43.000Z</time>
        <extensions>
          <ns3:TrackPointExtension>
            <ns3:atemp>25.0</ns3:atemp>
            <ns3:hr>111</ns3:hr>
          </ns3:TrackPointExtension>
        </extensions>
      </trkpt>
      <trkpt lat="43.018410466611385345458984375" lon="13.81932682357728481292724609375">
        <ele>110.40000152587890625</ele>
        <time>2020-05-09T13:06:45.000Z</time>
        <extensions>
          <ns3:TrackPointExtension>
            <ns3:atemp>25.0</ns3:atemp>
            <ns3:hr>111</ns3:hr>
          </ns3:TrackPointExtension>
        </extensions>
      </trkpt>
      <trkpt lat="43.01841222681105136871337890625" lon="13.8194947130978107452392578125">
        <ele>109.59999847412109375</ele>
        <time>2020-05-09T13:06:46.000Z</time>
        <extensions>
          <ns3:TrackPointExtension>
            <ns3:atemp>25.0</ns3:atemp>
            <ns3:hr>111</ns3:hr>
          </ns3:TrackPointExtension>
        </extensions>
      </trkpt>
      <trkpt lat="43.0184183456003665924072265625" lon="13.8196586631238460540771484375">
        <ele>109.1999969482421875</ele>
        <time>2020-05-09T13:06:47.000Z</time>
        <extensions>
          <ns3:TrackPointExtension>
            <ns3:atemp>25.0</ns3:atemp>
            <ns3:hr>111</ns3:hr>
          </ns3:TrackPointExtension>
        </extensions>
      </trkpt>
      <trkpt lat="43.0184196867048740386962890625" lon="13.8198226131498813629150390625">
        <ele>108.8000030517578125</ele>
        <time>2020-05-09T13:06:48.000Z</time>
        <extensions>
          <ns3:TrackPointExtension>
            <ns3:atemp>25.0</ns3:atemp>
            <ns3:hr>110</ns3:hr>
          </ns3:TrackPointExtension>
        </extensions>
      </trkpt>
      <trkpt lat="43.0183831416070461273193359375" lon="13.8201324082911014556884765625">
        <ele>108.40000152587890625</ele>
        <time>2020-05-09T13:06:50.000Z</time>
        <extensions>
          <ns3:TrackPointExtension>
            <ns3:atemp>25.0</ns3:atemp>
            <ns3:hr>109</ns3:hr>
          </ns3:TrackPointExtension>
        </extensions>
      </trkpt>
      <trkpt lat="43.0183593370020389556884765625" lon="13.82027749903500080108642578125">
        <ele>108</ele>
        <time>2020-05-09T13:06:51.000Z</time>
        <extensions>
          <ns3:TrackPointExtension>
            <ns3:atemp>25.0</ns3:atemp>
            <ns3:hr>110</ns3:hr>
          </ns3:TrackPointExtension>
        </extensions>
      </trkpt>
      <trkpt lat="43.01833662204444408416748046875" lon="13.82041747681796550750732421875">
        <ele>108.59999847412109375</ele>
        <time>2020-05-09T13:06:52.000Z</time>
        <extensions>
          <ns3:TrackPointExtension>
            <ns3:atemp>25.0</ns3:atemp>
            <ns3:hr>107</ns3:hr>
          </ns3:TrackPointExtension>
        </extensions>
      </trkpt>
      <trkpt lat="43.01831625401973724365234375" lon="13.8205580413341522216796875">
        <ele>109.1999969482421875</ele>
        <time>2020-05-09T13:06:53.000Z</time>
        <extensions>
          <ns3:TrackPointExtension>
            <ns3:atemp>25.0</ns3:atemp>
            <ns3:hr>109</ns3:hr>
          </ns3:TrackPointExtension>
        </extensions>
      </trkpt>
      <trkpt lat="43.01827333867549896240234375" lon="13.82083623670041561126708984375">
        <ele>110.1999969482421875</ele>
        <time>2020-05-09T13:06:55.000Z</time>
        <extensions>
          <ns3:TrackPointExtension>
            <ns3:atemp>25.0</ns3:atemp>
            <ns3:hr>111</ns3:hr>
          </ns3:TrackPointExtension>
        </extensions>
      </trkpt>
      <trkpt lat="43.01825799979269504547119140625" lon="13.82097034715116024017333984375">
        <ele>110.1999969482421875</ele>
        <time>2020-05-09T13:06:56.000Z</time>
        <extensions>
          <ns3:TrackPointExtension>
            <ns3:atemp>25.0</ns3:atemp>
            <ns3:hr>109</ns3:hr>
          </ns3:TrackPointExtension>
        </extensions>
      </trkpt>
      <trkpt lat="43.01817535422742366790771484375" lon="13.82150008343160152435302734375">
        <ele>108.8000030517578125</ele>
        <time>2020-05-09T13:07:00.000Z</time>
        <extensions>
          <ns3:TrackPointExtension>
            <ns3:atemp>25.0</ns3:atemp>
            <ns3:hr>106</ns3:hr>
          </ns3:TrackPointExtension>
        </extensions>
      </trkpt>
      <trkpt lat="43.018134869635105133056640625" lon="13.82161944173276424407958984375">
        <ele>108</ele>
        <time>2020-05-09T13:07:01.000Z</time>
        <extensions>
          <ns3:TrackPointExtension>
            <ns3:atemp>25.0</ns3:atemp>
            <ns3:hr>106</ns3:hr>
          </ns3:TrackPointExtension>
        </extensions>
      </trkpt>
      <trkpt lat="43.0180803872644901275634765625" lon="13.821726143360137939453125">
        <ele>107</ele>
        <time>2020-05-09T13:07:02.000Z</time>
        <extensions>
          <ns3:TrackPointExtension>
            <ns3:atemp>25.0</ns3:atemp>
            <ns3:hr>107</ns3:hr>
          </ns3:TrackPointExtension>
        </extensions>
      </trkpt>
      <trkpt lat="43.01800503395497798919677734375" lon="13.82181935012340545654296875">
        <ele>106.40000152587890625</ele>
        <time>2020-05-09T13:07:03.000Z</time>
        <extensions>
          <ns3:TrackPointExtension>
            <ns3:atemp>25.0</ns3:atemp>
            <ns3:hr>106</ns3:hr>
          </ns3:TrackPointExtension>
        </extensions>
      </trkpt>
      <trkpt lat="43.017906211316585540771484375" lon="13.82187576033174991607666015625">
        <ele>105.59999847412109375</ele>
        <time>2020-05-09T13:07:04.000Z</time>
        <extensions>
          <ns3:TrackPointExtension>
            <ns3:atemp>25.0</ns3:atemp>
            <ns3:hr>106</ns3:hr>
          </ns3:TrackPointExtension>
        </extensions>
      </trkpt>
      <trkpt lat="43.01781157962977886199951171875" lon="13.8219221122562885284423828125">
        <ele>104.59999847412109375</ele>
        <time>2020-05-09T13:07:05.000Z</time>
        <extensions>
          <ns3:TrackPointExtension>
            <ns3:atemp>25.0</ns3:atemp>
            <ns3:hr>106</ns3:hr>
          </ns3:TrackPointExtension>
        </extensions>
      </trkpt>
      <trkpt lat="43.0177166126668453216552734375" lon="13.8219606690108776092529296875">
        <ele>103.8000030517578125</ele>
        <time>2020-05-09T13:07:06.000Z</time>
        <extensions>
          <ns3:TrackPointExtension>
            <ns3:atemp>25.0</ns3:atemp>
            <ns3:hr>104</ns3:hr>
          </ns3:TrackPointExtension>
        </extensions>
      </trkpt>
      <trkpt lat="43.0176297761499881744384765625" lon="13.8220009021461009979248046875">
        <ele>102.40000152587890625</ele>
        <time>2020-05-09T13:07:07.000Z</time>
        <extensions>
          <ns3:TrackPointExtension>
            <ns3:atemp>25.0</ns3:atemp>
            <ns3:hr>105</ns3:hr>
          </ns3:TrackPointExtension>
        </extensions>
      </trkpt>
      <trkpt lat="43.0175419338047504425048828125" lon="13.82204105146229267120361328125">
        <ele>101.40000152587890625</ele>
        <time>2020-05-09T13:07:08.000Z</time>
        <extensions>
          <ns3:TrackPointExtension>
            <ns3:atemp>25.0</ns3:atemp>
            <ns3:hr>104</ns3:hr>
          </ns3:TrackPointExtension>
        </extensions>
      </trkpt>
      <trkpt lat="43.01737136207520961761474609375" lon="13.822154290974140167236328125">
        <ele>99.59999847412109375</ele>
        <time>2020-05-09T13:07:10.000Z</time>
        <extensions>
          <ns3:TrackPointExtension>
            <ns3:atemp>25.0</ns3:atemp>
            <ns3:hr>105</ns3:hr>
          </ns3:TrackPointExtension>
        </extensions>
      </trkpt>
      <trkpt lat="43.01720674149692058563232421875" lon="13.82231555879116058349609375">
        <ele>98</ele>
        <time>2020-05-09T13:07:12.000Z</time>
        <extensions>
          <ns3:TrackPointExtension>
            <ns3:atemp>26.0</ns3:atemp>
            <ns3:hr>105</ns3:hr>
          </ns3:TrackPointExtension>
        </extensions>
      </trkpt>
      <trkpt lat="43.0170705355703830718994140625" lon="13.8225349970161914825439453125">
        <ele>97.40000152587890625</ele>
        <time>2020-05-09T13:07:14.000Z</time>
        <extensions>
          <ns3:TrackPointExtension>
            <ns3:atemp>26.0</ns3:atemp>
            <ns3:hr>105</ns3:hr>
          </ns3:TrackPointExtension>
        </extensions>
      </trkpt>
      <trkpt lat="43.01703155972063541412353515625" lon="13.8226583786308765411376953125">
        <ele>97.40000152587890625</ele>
        <time>2020-05-09T13:07:15.000Z</time>
        <extensions>
          <ns3:TrackPointExtension>
            <ns3:atemp>26.0</ns3:atemp>
            <ns3:hr>104</ns3:hr>
          </ns3:TrackPointExtension>
        </extensions>
      </trkpt>
      <trkpt lat="43.01689946092665195465087890625" lon="13.82301469333469867706298828125">
        <ele>96.8000030517578125</ele>
        <time>2020-05-09T13:07:18.000Z</time>
        <extensions>
          <ns3:TrackPointExtension>
            <ns3:atemp>26.0</ns3:atemp>
            <ns3:hr>102</ns3:hr>
          </ns3:TrackPointExtension>
        </extensions>
      </trkpt>
      <trkpt lat="43.01687213592231273651123046875" lon="13.82313765585422515869140625">
        <ele>96.40000152587890625</ele>
        <time>2020-05-09T13:07:19.000Z</time>
        <extensions>
          <ns3:TrackPointExtension>
            <ns3:atemp>26.0</ns3:atemp>
            <ns3:hr>101</ns3:hr>
          </ns3:TrackPointExtension>
        </extensions>
      </trkpt>
      <trkpt lat="43.01686576567590236663818359375" lon="13.8232662342488765716552734375">
        <ele>95.40000152587890625</ele>
        <time>2020-05-09T13:07:20.000Z</time>
        <extensions>
          <ns3:TrackPointExtension>
            <ns3:atemp>26.0</ns3:atemp>
            <ns3:hr>101</ns3:hr>
          </ns3:TrackPointExtension>
        </extensions>
      </trkpt>
      <trkpt lat="43.0168770812451839447021484375" lon="13.823520205914974212646484375">
        <ele>93.8000030517578125</ele>
        <time>2020-05-09T13:07:22.000Z</time>
        <extensions>
          <ns3:TrackPointExtension>
            <ns3:atemp>26.0</ns3:atemp>
            <ns3:hr>101</ns3:hr>
          </ns3:TrackPointExtension>
        </extensions>
      </trkpt>
      <trkpt lat="43.01693449728190898895263671875" lon="13.8240185938775539398193359375">
        <ele>92.40000152587890625</ele>
        <time>2020-05-09T13:07:26.000Z</time>
        <extensions>
          <ns3:TrackPointExtension>
            <ns3:atemp>26.0</ns3:atemp>
            <ns3:hr>101</ns3:hr>
          </ns3:TrackPointExtension>
        </extensions>
      </trkpt>
      <trkpt lat="43.01695394329726696014404296875" lon="13.82426359690725803375244140625">
        <ele>91.8000030517578125</ele>
        <time>2020-05-09T13:07:28.000Z</time>
        <extensions>
          <ns3:TrackPointExtension>
            <ns3:atemp>26.0</ns3:atemp>
            <ns3:hr>100</ns3:hr>
          </ns3:TrackPointExtension>
        </extensions>
      </trkpt>
      <trkpt lat="43.016897030174732208251953125" lon="13.8247045688331127166748046875">
        <ele>91.40000152587890625</ele>
        <time>2020-05-09T13:07:32.000Z</time>
        <extensions>
          <ns3:TrackPointExtension>
            <ns3:atemp>26.0</ns3:atemp>
            <ns3:hr>98</ns3:hr>
          </ns3:TrackPointExtension>
        </extensions>
      </trkpt>
      <trkpt lat="43.0168618261814117431640625" lon="13.82527160458266735076904296875">
        <ele>90.59999847412109375</ele>
        <time>2020-05-09T13:07:37.000Z</time>
        <extensions>
          <ns3:TrackPointExtension>
            <ns3:atemp>26.0</ns3:atemp>
            <ns3:hr>99</ns3:hr>
          </ns3:TrackPointExtension>
        </extensions>
      </trkpt>
      <trkpt lat="43.0168712139129638671875" lon="13.8253912143409252166748046875">
        <ele>90</ele>
        <time>2020-05-09T13:07:38.000Z</time>
        <extensions>
          <ns3:TrackPointExtension>
            <ns3:atemp>26.0</ns3:atemp>
            <ns3:hr>100</ns3:hr>
          </ns3:TrackPointExtension>
        </extensions>
      </trkpt>
      <trkpt lat="43.01688236184418201446533203125" lon="13.82549992762506008148193359375">
        <ele>88.8000030517578125</ele>
        <time>2020-05-09T13:07:39.000Z</time>
        <extensions>
          <ns3:TrackPointExtension>
            <ns3:atemp>26.0</ns3:atemp>
            <ns3:hr>100</ns3:hr>
          </ns3:TrackPointExtension>
        </extensions>
      </trkpt>
      <trkpt lat="43.0169441364705562591552734375" lon="13.8258247263729572296142578125">
        <ele>87.40000152587890625</ele>
        <time>2020-05-09T13:07:42.000Z</time>
        <extensions>
          <ns3:TrackPointExtension>
            <ns3:atemp>26.0</ns3:atemp>
            <ns3:hr>99</ns3:hr>
          </ns3:TrackPointExtension>
        </extensions>
      </trkpt>
      <trkpt lat="43.01699182949960231781005859375" lon="13.82612538523972034454345703125">
        <ele>86.1999969482421875</ele>
        <time>2020-05-09T13:07:45.000Z</time>
        <extensions>
          <ns3:TrackPointExtension>
            <ns3:atemp>26.0</ns3:atemp>
            <ns3:hr>97</ns3:hr>
          </ns3:TrackPointExtension>
        </extensions>
      </trkpt>
      <trkpt lat="43.017021752893924713134765625" lon="13.8263216055929660797119140625">
        <ele>85.1999969482421875</ele>
        <time>2020-05-09T13:07:47.000Z</time>
        <extensions>
          <ns3:TrackPointExtension>
            <ns3:atemp>26.0</ns3:atemp>
            <ns3:hr>96</ns3:hr>
          </ns3:TrackPointExtension>
        </extensions>
      </trkpt>
      <trkpt lat="43.017027117311954498291015625" lon="13.82641741074621677398681640625">
        <ele>84.8000030517578125</ele>
        <time>2020-05-09T13:07:48.000Z</time>
        <extensions>
          <ns3:TrackPointExtension>
            <ns3:atemp>26.0</ns3:atemp>
            <ns3:hr>96</ns3:hr>
          </ns3:TrackPointExtension>
        </extensions>
      </trkpt>
      <trkpt lat="43.01702477037906646728515625" lon="13.8265023194253444671630859375">
        <ele>84.8000030517578125</ele>
        <time>2020-05-09T13:07:49.000Z</time>
        <extensions>
          <ns3:TrackPointExtension>
            <ns3:atemp>26.0</ns3:atemp>
            <ns3:hr>96</ns3:hr>
          </ns3:TrackPointExtension>
        </extensions>
      </trkpt>
      <trkpt lat="43.01701328717172145843505859375" lon="13.8267427124083042144775390625">
        <ele>85.40000152587890625</ele>
        <time>2020-05-09T13:07:52.000Z</time>
        <extensions>
          <ns3:TrackPointExtension>
            <ns3:atemp>26.0</ns3:atemp>
            <ns3:hr>95</ns3:hr>
          </ns3:TrackPointExtension>
        </extensions>
      </trkpt>
      <trkpt lat="43.01696886308491230010986328125" lon="13.82721327245235443115234375">
        <ele>84</ele>
        <time>2020-05-09T13:07:57.000Z</time>
        <extensions>
          <ns3:TrackPointExtension>
            <ns3:atemp>26.0</ns3:atemp>
            <ns3:hr>95</ns3:hr>
          </ns3:TrackPointExtension>
        </extensions>
      </trkpt>
      <trkpt lat="43.01696567796170711517333984375" lon="13.82740211673080921173095703125">
        <ele>83</ele>
        <time>2020-05-09T13:07:59.000Z</time>
        <extensions>
          <ns3:TrackPointExtension>
            <ns3:atemp>26.0</ns3:atemp>
            <ns3:hr>96</ns3:hr>
          </ns3:TrackPointExtension>
        </extensions>
      </trkpt>
      <trkpt lat="43.0169652588665485382080078125" lon="13.82749767042696475982666015625">
        <ele>82.59999847412109375</ele>
        <time>2020-05-09T13:08:00.000Z</time>
        <extensions>
          <ns3:TrackPointExtension>
            <ns3:atemp>26.0</ns3:atemp>
            <ns3:hr>95</ns3:hr>
          </ns3:TrackPointExtension>
        </extensions>
      </trkpt>
      <trkpt lat="43.0169448070228099822998046875" lon="13.828034698963165283203125">
        <ele>82</ele>
        <time>2020-05-09T13:08:06.000Z</time>
        <extensions>
          <ns3:TrackPointExtension>
            <ns3:atemp>26.0</ns3:atemp>
            <ns3:hr>93</ns3:hr>
          </ns3:TrackPointExtension>
        </extensions>
      </trkpt>
      <trkpt lat="43.0169290490448474884033203125" lon="13.82831406779587268829345703125">
        <ele>81.59999847412109375</ele>
        <time>2020-05-09T13:08:09.000Z</time>
        <extensions>
          <ns3:TrackPointExtension>
            <ns3:atemp>26.0</ns3:atemp>
            <ns3:hr>93</ns3:hr>
          </ns3:TrackPointExtension>
        </extensions>
      </trkpt>
      <trkpt lat="43.01693759858608245849609375" lon="13.828505091369152069091796875">
        <ele>81.8000030517578125</ele>
        <time>2020-05-09T13:08:11.000Z</time>
        <extensions>
          <ns3:TrackPointExtension>
            <ns3:atemp>26.0</ns3:atemp>
            <ns3:hr>94</ns3:hr>
          </ns3:TrackPointExtension>
        </extensions>
      </trkpt>
      <trkpt lat="43.0170356668531894683837890625" lon="13.82897271774709224700927734375">
        <ele>82.1999969482421875</ele>
        <time>2020-05-09T13:08:16.000Z</time>
        <extensions>
          <ns3:TrackPointExtension>
            <ns3:atemp>26.0</ns3:atemp>
            <ns3:hr>92</ns3:hr>
          </ns3:TrackPointExtension>
        </extensions>
      </trkpt>
      <trkpt lat="43.0170990340411663055419921875" lon="13.8292525894939899444580078125">
        <ele>82.59999847412109375</ele>
        <time>2020-05-09T13:08:19.000Z</time>
        <extensions>
          <ns3:TrackPointExtension>
            <ns3:atemp>26.0</ns3:atemp>
            <ns3:hr>94</ns3:hr>
          </ns3:TrackPointExtension>
        </extensions>
      </trkpt>
      <trkpt lat="43.01714689470827579498291015625" lon="13.82943254895508289337158203125">
        <ele>82</ele>
        <time>2020-05-09T13:08:21.000Z</time>
        <extensions>
          <ns3:TrackPointExtension>
            <ns3:atemp>26.0</ns3:atemp>
            <ns3:hr>91</ns3:hr>
          </ns3:TrackPointExtension>
        </extensions>
      </trkpt>
      <trkpt lat="43.01717187277972698211669921875" lon="13.82951787672936916351318359375">
        <ele>80.59999847412109375</ele>
        <time>2020-05-09T13:08:22.000Z</time>
        <extensions>
          <ns3:TrackPointExtension>
            <ns3:atemp>26.0</ns3:atemp>
            <ns3:hr>90</ns3:hr>
          </ns3:TrackPointExtension>
        </extensions>
      </trkpt>
      <trkpt lat="43.01719777286052703857421875" lon="13.829601109027862548828125">
        <ele>79.59999847412109375</ele>
        <time>2020-05-09T13:08:23.000Z</time>
        <extensions>
          <ns3:TrackPointExtension>
            <ns3:atemp>26.0</ns3:atemp>
            <ns3:hr>93</ns3:hr>
          </ns3:TrackPointExtension>
        </extensions>
      </trkpt>
      <trkpt lat="43.017251752316951751708984375" lon="13.82976405322551727294921875">
        <ele>78.40000152587890625</ele>
        <time>2020-05-09T13:08:25.000Z</time>
        <extensions>
          <ns3:TrackPointExtension>
            <ns3:atemp>26.0</ns3:atemp>
            <ns3:hr>93</ns3:hr>
          </ns3:TrackPointExtension>
        </extensions>
      </trkpt>
      <trkpt lat="43.01729860715568065643310546875" lon="13.829917609691619873046875">
        <ele>78</ele>
        <time>2020-05-09T13:08:27.000Z</time>
        <extensions>
          <ns3:TrackPointExtension>
            <ns3:atemp>26.0</ns3:atemp>
            <ns3:hr>91</ns3:hr>
          </ns3:TrackPointExtension>
        </extensions>
      </trkpt>
      <trkpt lat="43.01735694520175457000732421875" lon="13.830058090388774871826171875">
        <ele>77.8000030517578125</ele>
        <time>2020-05-09T13:08:29.000Z</time>
        <extensions>
          <ns3:TrackPointExtension>
            <ns3:atemp>26.0</ns3:atemp>
            <ns3:hr>92</ns3:hr>
          </ns3:TrackPointExtension>
        </extensions>
      </trkpt>
      <trkpt lat="43.0174933187663555145263671875" lon="13.8303110562264919281005859375">
        <ele>77.59999847412109375</ele>
        <time>2020-05-09T13:08:33.000Z</time>
        <extensions>
          <ns3:TrackPointExtension>
            <ns3:atemp>26.0</ns3:atemp>
            <ns3:hr>93</ns3:hr>
          </ns3:TrackPointExtension>
        </extensions>
      </trkpt>
      <trkpt lat="43.01750781945884227752685546875" lon="13.83038909174501895904541015625">
        <ele>77.40000152587890625</ele>
        <time>2020-05-09T13:08:34.000Z</time>
        <extensions>
          <ns3:TrackPointExtension>
            <ns3:atemp>26.0</ns3:atemp>
            <ns3:hr>92</ns3:hr>
          </ns3:TrackPointExtension>
        </extensions>
      </trkpt>
      <trkpt lat="43.0175131000578403472900390625" lon="13.8304736651480197906494140625">
        <ele>76.8000030517578125</ele>
        <time>2020-05-09T13:08:35.000Z</time>
        <extensions>
          <ns3:TrackPointExtension>
            <ns3:atemp>26.0</ns3:atemp>
            <ns3:hr>92</ns3:hr>
          </ns3:TrackPointExtension>
        </extensions>
      </trkpt>
      <trkpt lat="43.01751117222011089324951171875" lon="13.830563686788082122802734375">
        <ele>75.8000030517578125</ele>
        <time>2020-05-09T13:08:36.000Z</time>
        <extensions>
          <ns3:TrackPointExtension>
            <ns3:atemp>26.0</ns3:atemp>
            <ns3:hr>92</ns3:hr>
          </ns3:TrackPointExtension>
        </extensions>
      </trkpt>
      <trkpt lat="43.01751636900007724761962890625" lon="13.83080801926553249359130859375">
        <ele>74.8000030517578125</ele>
        <time>2020-05-09T13:08:39.000Z</time>
        <extensions>
          <ns3:TrackPointExtension>
            <ns3:atemp>26.0</ns3:atemp>
            <ns3:hr>92</ns3:hr>
          </ns3:TrackPointExtension>
        </extensions>
      </trkpt>
      <trkpt lat="43.0175184644758701324462890625" lon="13.83088932372629642486572265625">
        <ele>74.59999847412109375</ele>
        <time>2020-05-09T13:08:40.000Z</time>
        <extensions>
          <ns3:TrackPointExtension>
            <ns3:atemp>26.0</ns3:atemp>
            <ns3:hr>96</ns3:hr>
          </ns3:TrackPointExtension>
        </extensions>
      </trkpt>
      <trkpt lat="43.0175114236772060394287109375" lon="13.8312179781496524810791015625">
        <ele>74.59999847412109375</ele>
        <time>2020-05-09T13:08:44.000Z</time>
        <extensions>
          <ns3:TrackPointExtension>
            <ns3:atemp>26.0</ns3:atemp>
            <ns3:hr>99</ns3:hr>
          </ns3:TrackPointExtension>
        </extensions>
      </trkpt>
      <trkpt lat="43.01750714890658855438232421875" lon="13.83139106445014476776123046875">
        <ele>74.40000152587890625</ele>
        <time>2020-05-09T13:08:46.000Z</time>
        <extensions>
          <ns3:TrackPointExtension>
            <ns3:atemp>26.0</ns3:atemp>
            <ns3:hr>102</ns3:hr>
          </ns3:TrackPointExtension>
        </extensions>
      </trkpt>
      <trkpt lat="43.01750312559306621551513671875" lon="13.831481672823429107666015625">
        <ele>74.40000152587890625</ele>
        <time>2020-05-09T13:08:47.000Z</time>
        <extensions>
          <ns3:TrackPointExtension>
            <ns3:atemp>26.0</ns3:atemp>
            <ns3:hr>105</ns3:hr>
          </ns3:TrackPointExtension>
        </extensions>
      </trkpt>
      <trkpt lat="43.01750262267887592315673828125" lon="13.83166179992258548736572265625">
        <ele>73.8000030517578125</ele>
        <time>2020-05-09T13:08:49.000Z</time>
        <extensions>
          <ns3:TrackPointExtension>
            <ns3:atemp>26.0</ns3:atemp>
            <ns3:hr>109</ns3:hr>
          </ns3:TrackPointExtension>
        </extensions>
      </trkpt>
      <trkpt lat="43.01750681363046169281005859375" lon="13.8317527435719966888427734375">
        <ele>73.40000152587890625</ele>
        <time>2020-05-09T13:08:50.000Z</time>
        <extensions>
          <ns3:TrackPointExtension>
            <ns3:atemp>26.0</ns3:atemp>
            <ns3:hr>112</ns3:hr>
          </ns3:TrackPointExtension>
        </extensions>
      </trkpt>
      <trkpt lat="43.01750798709690570831298828125" lon="13.8320325314998626708984375">
        <ele>73</ele>
        <time>2020-05-09T13:08:53.000Z</time>
        <extensions>
          <ns3:TrackPointExtension>
            <ns3:atemp>26.0</ns3:atemp>
            <ns3:hr>111</ns3:hr>
          </ns3:TrackPointExtension>
        </extensions>
      </trkpt>
      <trkpt lat="43.01749994046986103057861328125" lon="13.83234526030719280242919921875">
        <ele>72.1999969482421875</ele>
        <time>2020-05-09T13:08:56.000Z</time>
        <extensions>
          <ns3:TrackPointExtension>
            <ns3:atemp>26.0</ns3:atemp>
            <ns3:hr>109</ns3:hr>
          </ns3:TrackPointExtension>
        </extensions>
      </trkpt>
      <trkpt lat="43.01749139092862606048583984375" lon="13.832643069326877593994140625">
        <ele>71</ele>
        <time>2020-05-09T13:08:59.000Z</time>
        <extensions>
          <ns3:TrackPointExtension>
            <ns3:atemp>26.0</ns3:atemp>
            <ns3:hr>113</ns3:hr>
          </ns3:TrackPointExtension>
        </extensions>
      </trkpt>
      <trkpt lat="43.0174872837960720062255859375" lon="13.8327374495565891265869140625">
        <ele>70.40000152587890625</ele>
        <time>2020-05-09T13:09:00.000Z</time>
        <extensions>
          <ns3:TrackPointExtension>
            <ns3:atemp>26.0</ns3:atemp>
            <ns3:hr>117</ns3:hr>
          </ns3:TrackPointExtension>
        </extensions>
      </trkpt>
      <trkpt lat="43.017479740083217620849609375" lon="13.832925371825695037841796875">
        <ele>69.8000030517578125</ele>
        <time>2020-05-09T13:09:02.000Z</time>
        <extensions>
          <ns3:TrackPointExtension>
            <ns3:atemp>26.0</ns3:atemp>
            <ns3:hr>116</ns3:hr>
          </ns3:TrackPointExtension>
        </extensions>
      </trkpt>
      <trkpt lat="43.01747898571193218231201171875" lon="13.83321781642735004425048828125">
        <ele>68.8000030517578125</ele>
        <time>2020-05-09T13:09:05.000Z</time>
        <extensions>
          <ns3:TrackPointExtension>
            <ns3:atemp>26.0</ns3:atemp>
            <ns3:hr>119</ns3:hr>
          </ns3:TrackPointExtension>
        </extensions>
      </trkpt>
      <trkpt lat="43.017487116158008575439453125" lon="13.8334096781909465789794921875">
        <ele>68.59999847412109375</ele>
        <time>2020-05-09T13:09:07.000Z</time>
        <extensions>
          <ns3:TrackPointExtension>
            <ns3:atemp>26.0</ns3:atemp>
            <ns3:hr>122</ns3:hr>
          </ns3:TrackPointExtension>
        </extensions>
      </trkpt>
      <trkpt lat="43.01754570566117763519287109375" lon="13.83400060236454010009765625">
        <ele>67.40000152587890625</ele>
        <time>2020-05-09T13:09:13.000Z</time>
        <extensions>
          <ns3:TrackPointExtension>
            <ns3:atemp>26.0</ns3:atemp>
            <ns3:hr>125</ns3:hr>
          </ns3:TrackPointExtension>
        </extensions>
      </trkpt>
      <trkpt lat="43.01755542866885662078857421875" lon="13.834096491336822509765625">
        <ele>67.1999969482421875</ele>
        <time>2020-05-09T13:09:14.000Z</time>
        <extensions>
          <ns3:TrackPointExtension>
            <ns3:atemp>26.0</ns3:atemp>
            <ns3:hr>126</ns3:hr>
          </ns3:TrackPointExtension>
        </extensions>
      </trkpt>
      <trkpt lat="43.01758996210992336273193359375" lon="13.8343903608620166778564453125">
        <ele>66.1999969482421875</ele>
        <time>2020-05-09T13:09:17.000Z</time>
        <extensions>
          <ns3:TrackPointExtension>
            <ns3:atemp>26.0</ns3:atemp>
            <ns3:hr>124</ns3:hr>
          </ns3:TrackPointExtension>
        </extensions>
      </trkpt>
      <trkpt lat="43.0176187120378017425537109375" lon="13.83457752875983715057373046875">
        <ele>65.8000030517578125</ele>
        <time>2020-05-09T13:09:19.000Z</time>
        <extensions>
          <ns3:TrackPointExtension>
            <ns3:atemp>26.0</ns3:atemp>
            <ns3:hr>127</ns3:hr>
          </ns3:TrackPointExtension>
        </extensions>
      </trkpt>
      <trkpt lat="43.017652742564678192138671875" lon="13.8347561471164226531982421875">
        <ele>65.40000152587890625</ele>
        <time>2020-05-09T13:09:21.000Z</time>
        <extensions>
          <ns3:TrackPointExtension>
            <ns3:atemp>26.0</ns3:atemp>
            <ns3:hr>126</ns3:hr>
          </ns3:TrackPointExtension>
        </extensions>
      </trkpt>
      <trkpt lat="43.01771401427686214447021484375" lon="13.83502227254211902618408203125">
        <ele>65.8000030517578125</ele>
        <time>2020-05-09T13:09:24.000Z</time>
        <extensions>
          <ns3:TrackPointExtension>
            <ns3:atemp>26.0</ns3:atemp>
            <ns3:hr>123</ns3:hr>
          </ns3:TrackPointExtension>
        </extensions>
      </trkpt>
      <trkpt lat="43.01776430569589138031005859375" lon="13.83530289866030216217041015625">
        <ele>66</ele>
        <time>2020-05-09T13:09:27.000Z</time>
        <extensions>
          <ns3:TrackPointExtension>
            <ns3:atemp>26.0</ns3:atemp>
            <ns3:hr>123</ns3:hr>
          </ns3:TrackPointExtension>
        </extensions>
      </trkpt>
      <trkpt lat="43.01781141199171543121337890625" lon="13.8355956785380840301513671875">
        <ele>64.59999847412109375</ele>
        <time>2020-05-09T13:09:30.000Z</time>
        <extensions>
          <ns3:TrackPointExtension>
            <ns3:atemp>26.0</ns3:atemp>
            <ns3:hr>122</ns3:hr>
          </ns3:TrackPointExtension>
        </extensions>
      </trkpt>
      <trkpt lat="43.01782934926450252532958984375" lon="13.8356992788612842559814453125">
        <ele>63.40000152587890625</ele>
        <time>2020-05-09T13:09:31.000Z</time>
        <extensions>
          <ns3:TrackPointExtension>
            <ns3:atemp>26.0</ns3:atemp>
            <ns3:hr>120</ns3:hr>
          </ns3:TrackPointExtension>
        </extensions>
      </trkpt>
      <trkpt lat="43.01783823408186435699462890625" lon="13.83579910732805728912353515625">
        <ele>62.40000152587890625</ele>
        <time>2020-05-09T13:09:32.000Z</time>
        <extensions>
          <ns3:TrackPointExtension>
            <ns3:atemp>26.0</ns3:atemp>
            <ns3:hr>122</ns3:hr>
          </ns3:TrackPointExtension>
        </extensions>
      </trkpt>
      <trkpt lat="43.0178443528711795806884765625" lon="13.83589952252805233001708984375">
        <ele>61.59999847412109375</ele>
        <time>2020-05-09T13:09:33.000Z</time>
        <extensions>
          <ns3:TrackPointExtension>
            <ns3:atemp>26.0</ns3:atemp>
            <ns3:hr>118</ns3:hr>
          </ns3:TrackPointExtension>
        </extensions>
      </trkpt>
      <trkpt lat="43.01784561015665531158447265625" lon="13.8360043801367282867431640625">
        <ele>61</ele>
        <time>2020-05-09T13:09:34.000Z</time>
        <extensions>
          <ns3:TrackPointExtension>
            <ns3:atemp>26.0</ns3:atemp>
            <ns3:hr>119</ns3:hr>
          </ns3:TrackPointExtension>
        </extensions>
      </trkpt>
      <trkpt lat="43.0178681574761867523193359375" lon="13.83637930266559123992919921875">
        <ele>60</ele>
        <time>2020-05-09T13:09:38.000Z</time>
        <extensions>
          <ns3:TrackPointExtension>
            <ns3:atemp>26.0</ns3:atemp>
            <ns3:hr>119</ns3:hr>
          </ns3:TrackPointExtension>
        </extensions>
      </trkpt>
      <trkpt lat="43.01787578500807285308837890625" lon="13.83655808866024017333984375">
        <ele>59.799999237060546875</ele>
        <time>2020-05-09T13:09:40.000Z</time>
        <extensions>
          <ns3:TrackPointExtension>
            <ns3:atemp>26.0</ns3:atemp>
            <ns3:hr>117</ns3:hr>
          </ns3:TrackPointExtension>
        </extensions>
      </trkpt>
      <trkpt lat="43.01788517273962497711181640625" lon="13.83682840503752231597900390625">
        <ele>59</ele>
        <time>2020-05-09T13:09:43.000Z</time>
        <extensions>
          <ns3:TrackPointExtension>
            <ns3:atemp>26.0</ns3:atemp>
            <ns3:hr>115</ns3:hr>
          </ns3:TrackPointExtension>
        </extensions>
      </trkpt>
      <trkpt lat="43.01788651384413242340087890625" lon="13.83718161843717098236083984375">
        <ele>58.40000152587890625</ele>
        <time>2020-05-09T13:09:47.000Z</time>
        <extensions>
          <ns3:TrackPointExtension>
            <ns3:atemp>27.0</ns3:atemp>
            <ns3:hr>116</ns3:hr>
          </ns3:TrackPointExtension>
        </extensions>
      </trkpt>
      <trkpt lat="43.0178792215883731842041015625" lon="13.8374356739223003387451171875">
        <ele>57.799999237060546875</ele>
        <time>2020-05-09T13:09:50.000Z</time>
        <extensions>
          <ns3:TrackPointExtension>
            <ns3:atemp>26.0</ns3:atemp>
            <ns3:hr>114</ns3:hr>
          </ns3:TrackPointExtension>
        </extensions>
      </trkpt>
      <trkpt lat="43.01786170341074466705322265625" lon="13.8378369994461536407470703125">
        <ele>56.799999237060546875</ele>
        <time>2020-05-09T13:09:55.000Z</time>
        <extensions>
          <ns3:TrackPointExtension>
            <ns3:atemp>26.0</ns3:atemp>
            <ns3:hr>112</ns3:hr>
          </ns3:TrackPointExtension>
        </extensions>
      </trkpt>
      <trkpt lat="43.0178329534828662872314453125" lon="13.83814805187284946441650390625">
        <ele>56.799999237060546875</ele>
        <time>2020-05-09T13:09:59.000Z</time>
        <extensions>
          <ns3:TrackPointExtension>
            <ns3:atemp>26.0</ns3:atemp>
            <ns3:hr>117</ns3:hr>
          </ns3:TrackPointExtension>
        </extensions>
      </trkpt>
      <trkpt lat="43.01782079972326755523681640625" lon="13.838319964706897735595703125">
        <ele>56.40000152587890625</ele>
        <time>2020-05-09T13:10:01.000Z</time>
        <extensions>
          <ns3:TrackPointExtension>
            <ns3:atemp>26.0</ns3:atemp>
            <ns3:hr>122</ns3:hr>
          </ns3:TrackPointExtension>
        </extensions>
      </trkpt>
      <trkpt lat="43.0178168602287769317626953125" lon="13.83849238045513629913330078125">
        <ele>56</ele>
        <time>2020-05-09T13:10:03.000Z</time>
        <extensions>
          <ns3:TrackPointExtension>
            <ns3:atemp>26.0</ns3:atemp>
            <ns3:hr>122</ns3:hr>
          </ns3:TrackPointExtension>
        </extensions>
      </trkpt>
      <trkpt lat="43.0178051255643367767333984375" lon="13.8388904370367527008056640625">
        <ele>56</ele>
        <time>2020-05-09T13:10:08.000Z</time>
        <extensions>
          <ns3:TrackPointExtension>
            <ns3:atemp>26.0</ns3:atemp>
            <ns3:hr>125</ns3:hr>
          </ns3:TrackPointExtension>
        </extensions>
      </trkpt>
      <trkpt lat="43.01779665984213352203369140625" lon="13.83904516696929931640625">
        <ele>56</ele>
        <time>2020-05-09T13:10:10.000Z</time>
        <extensions>
          <ns3:TrackPointExtension>
            <ns3:atemp>26.0</ns3:atemp>
            <ns3:hr>128</ns3:hr>
          </ns3:TrackPointExtension>
        </extensions>
      </trkpt>
      <trkpt lat="43.0177856795489788055419921875" lon="13.83912856690585613250732421875">
        <ele>55.799999237060546875</ele>
        <time>2020-05-09T13:10:11.000Z</time>
        <extensions>
          <ns3:TrackPointExtension>
            <ns3:atemp>26.0</ns3:atemp>
            <ns3:hr>131</ns3:hr>
          </ns3:TrackPointExtension>
        </extensions>
      </trkpt>
      <trkpt lat="43.0177776329219341278076171875" lon="13.83921171538531780242919921875">
        <ele>55.40000152587890625</ele>
        <time>2020-05-09T13:10:12.000Z</time>
        <extensions>
          <ns3:TrackPointExtension>
            <ns3:atemp>26.0</ns3:atemp>
            <ns3:hr>130</ns3:hr>
          </ns3:TrackPointExtension>
        </extensions>
      </trkpt>
      <trkpt lat="43.01776237785816192626953125" lon="13.839401565492153167724609375">
        <ele>54.200000762939453125</ele>
        <time>2020-05-09T13:10:14.000Z</time>
        <extensions>
          <ns3:TrackPointExtension>
            <ns3:atemp>26.0</ns3:atemp>
            <ns3:hr>133</ns3:hr>
          </ns3:TrackPointExtension>
        </extensions>
      </trkpt>
      <trkpt lat="43.01775592379271984100341796875" lon="13.8395056687295436859130859375">
        <ele>53.799999237060546875</ele>
        <time>2020-05-09T13:10:15.000Z</time>
        <extensions>
          <ns3:TrackPointExtension>
            <ns3:atemp>26.0</ns3:atemp>
            <ns3:hr>134</ns3:hr>
          </ns3:TrackPointExtension>
        </extensions>
      </trkpt>
      <trkpt lat="43.01774888299405574798583984375" lon="13.839703984558582305908203125">
        <ele>52.799999237060546875</ele>
        <time>2020-05-09T13:10:17.000Z</time>
        <extensions>
          <ns3:TrackPointExtension>
            <ns3:atemp>26.0</ns3:atemp>
            <ns3:hr>135</ns3:hr>
          </ns3:TrackPointExtension>
        </extensions>
      </trkpt>
      <trkpt lat="43.0177347175776958465576171875" lon="13.84004605002701282501220703125">
        <ele>52.40000152587890625</ele>
        <time>2020-05-09T13:10:21.000Z</time>
        <extensions>
          <ns3:TrackPointExtension>
            <ns3:atemp>26.0</ns3:atemp>
            <ns3:hr>133</ns3:hr>
          </ns3:TrackPointExtension>
        </extensions>
      </trkpt>
      <trkpt lat="43.0177330411970615386962890625" lon="13.8401597924530506134033203125">
        <ele>53.59999847412109375</ele>
        <time>2020-05-09T13:10:24.000Z</time>
        <extensions>
          <ns3:TrackPointExtension>
            <ns3:atemp>26.0</ns3:atemp>
            <ns3:hr>130</ns3:hr>
          </ns3:TrackPointExtension>
        </extensions>
      </trkpt>
      <trkpt lat="43.01773019134998321533203125" lon="13.84020186960697174072265625">
        <ele>53.59999847412109375</ele>
        <time>2020-05-09T13:10:25.000Z</time>
        <extensions>
          <ns3:TrackPointExtension>
            <ns3:atemp>26.0</ns3:atemp>
            <ns3:hr>131</ns3:hr>
          </ns3:TrackPointExtension>
        </extensions>
      </trkpt>
      <trkpt lat="43.0177367292344570159912109375" lon="13.840464390814304351806640625">
        <ele>52.40000152587890625</ele>
        <time>2020-05-09T13:10:31.000Z</time>
        <extensions>
          <ns3:TrackPointExtension>
            <ns3:atemp>26.0</ns3:atemp>
            <ns3:hr>131</ns3:hr>
          </ns3:TrackPointExtension>
        </extensions>
      </trkpt>
      <trkpt lat="43.01773798651993274688720703125" lon="13.840775527060031890869140625">
        <ele>51.799999237060546875</ele>
        <time>2020-05-09T13:10:36.000Z</time>
        <extensions>
          <ns3:TrackPointExtension>
            <ns3:atemp>26.0</ns3:atemp>
            <ns3:hr>131</ns3:hr>
          </ns3:TrackPointExtension>
        </extensions>
      </trkpt>
      <trkpt lat="43.01773957908153533935546875" lon="13.84083596058189868927001953125">
        <ele>51.40000152587890625</ele>
        <time>2020-05-09T13:10:37.000Z</time>
        <extensions>
          <ns3:TrackPointExtension>
            <ns3:atemp>26.0</ns3:atemp>
            <ns3:hr>131</ns3:hr>
          </ns3:TrackPointExtension>
        </extensions>
      </trkpt>
      <trkpt lat="43.01775072701275348663330078125" lon="13.841024972498416900634765625">
        <ele>50.200000762939453125</ele>
        <time>2020-05-09T13:10:40.000Z</time>
        <extensions>
          <ns3:TrackPointExtension>
            <ns3:atemp>26.0</ns3:atemp>
            <ns3:hr>134</ns3:hr>
          </ns3:TrackPointExtension>
        </extensions>
      </trkpt>
      <trkpt lat="43.01777981221675872802734375" lon="13.84123896248638629913330078125">
        <ele>49.200000762939453125</ele>
        <time>2020-05-09T13:10:43.000Z</time>
        <extensions>
          <ns3:TrackPointExtension>
            <ns3:atemp>26.0</ns3:atemp>
            <ns3:hr>135</ns3:hr>
          </ns3:TrackPointExtension>
        </extensions>
      </trkpt>
      <trkpt lat="43.01785633899271488189697265625" lon="13.8417439721524715423583984375">
        <ele>48.40000152587890625</ele>
        <time>2020-05-09T13:10:51.000Z</time>
        <extensions>
          <ns3:TrackPointExtension>
            <ns3:atemp>26.0</ns3:atemp>
            <ns3:hr>134</ns3:hr>
          </ns3:TrackPointExtension>
        </extensions>
      </trkpt>
      <trkpt lat="43.01786966621875762939453125" lon="13.84181161411106586456298828125">
        <ele>48.200000762939453125</ele>
        <time>2020-05-09T13:10:52.000Z</time>
        <extensions>
          <ns3:TrackPointExtension>
            <ns3:atemp>26.0</ns3:atemp>
            <ns3:hr>135</ns3:hr>
          </ns3:TrackPointExtension>
        </extensions>
      </trkpt>
      <trkpt lat="43.01790663041174411773681640625" lon="13.84202803485095500946044921875">
        <ele>47.40000152587890625</ele>
        <time>2020-05-09T13:10:55.000Z</time>
        <extensions>
          <ns3:TrackPointExtension>
            <ns3:atemp>26.0</ns3:atemp>
            <ns3:hr>132</ns3:hr>
          </ns3:TrackPointExtension>
        </extensions>
      </trkpt>
      <trkpt lat="43.01791836507618427276611328125" lon="13.842099197208881378173828125">
        <ele>47.200000762939453125</ele>
        <time>2020-05-09T13:10:56.000Z</time>
        <extensions>
          <ns3:TrackPointExtension>
            <ns3:atemp>26.0</ns3:atemp>
            <ns3:hr>133</ns3:hr>
          </ns3:TrackPointExtension>
        </extensions>
      </trkpt>
      <trkpt lat="43.01793797872960567474365234375" lon="13.84224713779985904693603515625">
        <ele>46.799999237060546875</ele>
        <time>2020-05-09T13:10:58.000Z</time>
        <extensions>
          <ns3:TrackPointExtension>
            <ns3:atemp>26.0</ns3:atemp>
            <ns3:hr>134</ns3:hr>
          </ns3:TrackPointExtension>
        </extensions>
      </trkpt>
      <trkpt lat="43.01797318272292613983154296875" lon="13.8424788974225521087646484375">
        <ele>46.200000762939453125</ele>
        <time>2020-05-09T13:11:01.000Z</time>
        <extensions>
          <ns3:TrackPointExtension>
            <ns3:atemp>26.0</ns3:atemp>
            <ns3:hr>137</ns3:hr>
          </ns3:TrackPointExtension>
        </extensions>
      </trkpt>
      <trkpt lat="43.01798609085381031036376953125" lon="13.84255609475076198577880859375">
        <ele>45.799999237060546875</ele>
        <time>2020-05-09T13:11:02.000Z</time>
        <extensions>
          <ns3:TrackPointExtension>
            <ns3:atemp>26.0</ns3:atemp>
            <ns3:hr>138</ns3:hr>
          </ns3:TrackPointExtension>
        </extensions>
      </trkpt>
      <trkpt lat="43.01808767952024936676025390625" lon="13.84300905279815196990966796875">
        <ele>45.200000762939453125</ele>
        <time>2020-05-09T13:11:08.000Z</time>
        <extensions>
          <ns3:TrackPointExtension>
            <ns3:atemp>26.0</ns3:atemp>
            <ns3:hr>141</ns3:hr>
          </ns3:TrackPointExtension>
        </extensions>
      </trkpt>
      <trkpt lat="43.0181491188704967498779296875" lon="13.843229077756404876708984375">
        <ele>44.799999237060546875</ele>
        <time>2020-05-09T13:11:11.000Z</time>
        <extensions>
          <ns3:TrackPointExtension>
            <ns3:atemp>25.0</ns3:atemp>
            <ns3:hr>141</ns3:hr>
          </ns3:TrackPointExtension>
        </extensions>
      </trkpt>
      <trkpt lat="43.01822145469486713409423828125" lon="13.843489252030849456787109375">
        <ele>44</ele>
        <time>2020-05-09T13:11:15.000Z</time>
        <extensions>
          <ns3:TrackPointExtension>
            <ns3:atemp>25.0</ns3:atemp>
            <ns3:hr>145</ns3:hr>
          </ns3:TrackPointExtension>
        </extensions>
      </trkpt>
      <trkpt lat="43.018320612609386444091796875" lon="13.84374129585921764373779296875">
        <ele>43.799999237060546875</ele>
        <time>2020-05-09T13:11:19.000Z</time>
        <extensions>
          <ns3:TrackPointExtension>
            <ns3:atemp>25.0</ns3:atemp>
            <ns3:hr>142</ns3:hr>
          </ns3:TrackPointExtension>
        </extensions>
      </trkpt>
      <trkpt lat="43.018349446356296539306640625" lon="13.8438020646572113037109375">
        <ele>43.40000152587890625</ele>
        <time>2020-05-09T13:11:20.000Z</time>
        <extensions>
          <ns3:TrackPointExtension>
            <ns3:atemp>25.0</ns3:atemp>
            <ns3:hr>144</ns3:hr>
          </ns3:TrackPointExtension>
        </extensions>
      </trkpt>
      <trkpt lat="43.01863141357898712158203125" lon="13.84432232938706874847412109375">
        <ele>42.799999237060546875</ele>
        <time>2020-05-09T13:11:28.000Z</time>
        <extensions>
          <ns3:TrackPointExtension>
            <ns3:atemp>25.0</ns3:atemp>
            <ns3:hr>142</ns3:hr>
          </ns3:TrackPointExtension>
        </extensions>
      </trkpt>
      <trkpt lat="43.01870509050786495208740234375" lon="13.84445317089557647705078125">
        <ele>42.200000762939453125</ele>
        <time>2020-05-09T13:11:30.000Z</time>
        <extensions>
          <ns3:TrackPointExtension>
            <ns3:atemp>25.0</ns3:atemp>
            <ns3:hr>141</ns3:hr>
          </ns3:TrackPointExtension>
        </extensions>
      </trkpt>
      <trkpt lat="43.01883660256862640380859375" lon="13.8446442782878875732421875">
        <ele>41</ele>
        <time>2020-05-09T13:11:33.000Z</time>
        <extensions>
          <ns3:TrackPointExtension>
            <ns3:atemp>25.0</ns3:atemp>
            <ns3:hr>140</ns3:hr>
          </ns3:TrackPointExtension>
        </extensions>
      </trkpt>
      <trkpt lat="43.0189700424671173095703125" lon="13.84483630768954753875732421875">
        <ele>40.200000762939453125</ele>
        <time>2020-05-09T13:11:36.000Z</time>
        <extensions>
          <ns3:TrackPointExtension>
            <ns3:atemp>25.0</ns3:atemp>
            <ns3:hr>140</ns3:hr>
          </ns3:TrackPointExtension>
        </extensions>
      </trkpt>
      <trkpt lat="43.01910893060266971588134765625" lon="13.8450139202177524566650390625">
        <ele>40</ele>
        <time>2020-05-09T13:11:39.000Z</time>
        <extensions>
          <ns3:TrackPointExtension>
            <ns3:atemp>25.0</ns3:atemp>
            <ns3:hr>137</ns3:hr>
          </ns3:TrackPointExtension>
        </extensions>
      </trkpt>
      <trkpt lat="43.019201718270778656005859375" lon="13.845138810575008392333984375">
        <ele>39.799999237060546875</ele>
        <time>2020-05-09T13:11:41.000Z</time>
        <extensions>
          <ns3:TrackPointExtension>
            <ns3:atemp>25.0</ns3:atemp>
            <ns3:hr>134</ns3:hr>
          </ns3:TrackPointExtension>
        </extensions>
      </trkpt>
      <trkpt lat="43.01925100386142730712890625" lon="13.845203183591365814208984375">
        <ele>39.799999237060546875</ele>
        <time>2020-05-09T13:11:42.000Z</time>
        <extensions>
          <ns3:TrackPointExtension>
            <ns3:atemp>25.0</ns3:atemp>
            <ns3:hr>133</ns3:hr>
          </ns3:TrackPointExtension>
        </extensions>
      </trkpt>
      <trkpt lat="43.019530959427356719970703125" lon="13.84559168480336666107177734375">
        <ele>38.59999847412109375</ele>
        <time>2020-05-09T13:11:48.000Z</time>
        <extensions>
          <ns3:TrackPointExtension>
            <ns3:atemp>26.0</ns3:atemp>
            <ns3:hr>133</ns3:hr>
          </ns3:TrackPointExtension>
        </extensions>
      </trkpt>
      <trkpt lat="43.01963464356958866119384765625" lon="13.84570349939167499542236328125">
        <ele>38</ele>
        <time>2020-05-09T13:11:50.000Z</time>
        <extensions>
          <ns3:TrackPointExtension>
            <ns3:atemp>26.0</ns3:atemp>
            <ns3:hr>130</ns3:hr>
          </ns3:TrackPointExtension>
        </extensions>
      </trkpt>
      <trkpt lat="43.019683845341205596923828125" lon="13.84576351381838321685791015625">
        <ele>37.59999847412109375</ele>
        <time>2020-05-09T13:11:51.000Z</time>
        <extensions>
          <ns3:TrackPointExtension>
            <ns3:atemp>26.0</ns3:atemp>
            <ns3:hr>130</ns3:hr>
          </ns3:TrackPointExtension>
        </extensions>
      </trkpt>
      <trkpt lat="43.01988241262733936309814453125" lon="13.8460174016654491424560546875">
        <ele>36.40000152587890625</ele>
        <time>2020-05-09T13:11:55.000Z</time>
        <extensions>
          <ns3:TrackPointExtension>
            <ns3:atemp>26.0</ns3:atemp>
            <ns3:hr>128</ns3:hr>
          </ns3:TrackPointExtension>
        </extensions>
      </trkpt>
      <trkpt lat="43.01992893218994140625" lon="13.84608387015759944915771484375">
        <ele>36.200000762939453125</ele>
        <time>2020-05-09T13:11:56.000Z</time>
        <extensions>
          <ns3:TrackPointExtension>
            <ns3:atemp>26.0</ns3:atemp>
            <ns3:hr>126</ns3:hr>
          </ns3:TrackPointExtension>
        </extensions>
      </trkpt>
      <trkpt lat="43.02006497047841548919677734375" lon="13.84629358537495136260986328125">
        <ele>35.200000762939453125</ele>
        <time>2020-05-09T13:11:59.000Z</time>
        <extensions>
          <ns3:TrackPointExtension>
            <ns3:atemp>26.0</ns3:atemp>
            <ns3:hr>130</ns3:hr>
          </ns3:TrackPointExtension>
        </extensions>
      </trkpt>
      <trkpt lat="43.02015281282365322113037109375" lon="13.84643121622502803802490234375">
        <ele>35.200000762939453125</ele>
        <time>2020-05-09T13:12:01.000Z</time>
        <extensions>
          <ns3:TrackPointExtension>
            <ns3:atemp>26.0</ns3:atemp>
            <ns3:hr>133</ns3:hr>
          </ns3:TrackPointExtension>
        </extensions>
      </trkpt>
      <trkpt lat="43.020314164459705352783203125" lon="13.84671838022768497467041015625">
        <ele>35.200000762939453125</ele>
        <time>2020-05-09T13:12:05.000Z</time>
        <extensions>
          <ns3:TrackPointExtension>
            <ns3:atemp>26.0</ns3:atemp>
            <ns3:hr>133</ns3:hr>
          </ns3:TrackPointExtension>
        </extensions>
      </trkpt>
      <trkpt lat="43.0204333551228046417236328125" lon="13.846925832331180572509765625">
        <ele>35</ele>
        <time>2020-05-09T13:12:08.000Z</time>
        <extensions>
          <ns3:TrackPointExtension>
            <ns3:atemp>26.0</ns3:atemp>
            <ns3:hr>133</ns3:hr>
          </ns3:TrackPointExtension>
        </extensions>
      </trkpt>
      <trkpt lat="43.02054190076887607574462890625" lon="13.8471301831305027008056640625">
        <ele>34.40000152587890625</ele>
        <time>2020-05-09T13:12:11.000Z</time>
        <extensions>
          <ns3:TrackPointExtension>
            <ns3:atemp>26.0</ns3:atemp>
            <ns3:hr>132</ns3:hr>
          </ns3:TrackPointExtension>
        </extensions>
      </trkpt>
      <trkpt lat="43.02057492546737194061279296875" lon="13.8471958972513675689697265625">
        <ele>34.200000762939453125</ele>
        <time>2020-05-09T13:12:12.000Z</time>
        <extensions>
          <ns3:TrackPointExtension>
            <ns3:atemp>26.0</ns3:atemp>
            <ns3:hr>133</ns3:hr>
          </ns3:TrackPointExtension>
        </extensions>
      </trkpt>
      <trkpt lat="43.02081649191677570343017578125" lon="13.84761792607605457305908203125">
        <ele>33</ele>
        <time>2020-05-09T13:12:18.000Z</time>
        <extensions>
          <ns3:TrackPointExtension>
            <ns3:atemp>26.0</ns3:atemp>
            <ns3:hr>134</ns3:hr>
          </ns3:TrackPointExtension>
        </extensions>
      </trkpt>
      <trkpt lat="43.02091673947870731353759765625" lon="13.84774566628038883209228515625">
        <ele>31.799999237060546875</ele>
        <time>2020-05-09T13:12:20.000Z</time>
        <extensions>
          <ns3:TrackPointExtension>
            <ns3:atemp>26.0</ns3:atemp>
            <ns3:hr>134</ns3:hr>
          </ns3:TrackPointExtension>
        </extensions>
      </trkpt>
      <trkpt lat="43.021008856594562530517578125" lon="13.84787742979824542999267578125">
        <ele>30.6000003814697265625</ele>
        <time>2020-05-09T13:12:22.000Z</time>
        <extensions>
          <ns3:TrackPointExtension>
            <ns3:atemp>26.0</ns3:atemp>
            <ns3:hr>136</ns3:hr>
          </ns3:TrackPointExtension>
        </extensions>
      </trkpt>
      <trkpt lat="43.02105805836617946624755859375" lon="13.84793912060558795928955078125">
        <ele>30.200000762939453125</ele>
        <time>2020-05-09T13:12:23.000Z</time>
        <extensions>
          <ns3:TrackPointExtension>
            <ns3:atemp>26.0</ns3:atemp>
            <ns3:hr>137</ns3:hr>
          </ns3:TrackPointExtension>
        </extensions>
      </trkpt>
      <trkpt lat="43.02131689153611660003662109375" lon="13.84836240671575069427490234375">
        <ele>30.200000762939453125</ele>
        <time>2020-05-09T13:12:29.000Z</time>
        <extensions>
          <ns3:TrackPointExtension>
            <ns3:atemp>26.0</ns3:atemp>
            <ns3:hr>137</ns3:hr>
          </ns3:TrackPointExtension>
        </extensions>
      </trkpt>
      <trkpt lat="43.0217100866138935089111328125" lon="13.84889423847198486328125">
        <ele>30</ele>
        <time>2020-05-09T13:12:37.000Z</time>
        <extensions>
          <ns3:TrackPointExtension>
            <ns3:atemp>26.0</ns3:atemp>
            <ns3:hr>136</ns3:hr>
          </ns3:TrackPointExtension>
        </extensions>
      </trkpt>
      <trkpt lat="43.02186942659318447113037109375" lon="13.84907972998917102813720703125">
        <ele>29.6000003814697265625</ele>
        <time>2020-05-09T13:12:40.000Z</time>
        <extensions>
          <ns3:TrackPointExtension>
            <ns3:atemp>26.0</ns3:atemp>
            <ns3:hr>133</ns3:hr>
          </ns3:TrackPointExtension>
        </extensions>
      </trkpt>
      <trkpt lat="43.02199088037014007568359375" lon="13.8491834141314029693603515625">
        <ele>28.799999237060546875</ele>
        <time>2020-05-09T13:12:42.000Z</time>
        <extensions>
          <ns3:TrackPointExtension>
            <ns3:atemp>26.0</ns3:atemp>
            <ns3:hr>133</ns3:hr>
          </ns3:TrackPointExtension>
        </extensions>
      </trkpt>
      <trkpt lat="43.0220500566065311431884765625" lon="13.84923529811203479766845703125">
        <ele>28.6000003814697265625</ele>
        <time>2020-05-09T13:12:43.000Z</time>
        <extensions>
          <ns3:TrackPointExtension>
            <ns3:atemp>26.0</ns3:atemp>
            <ns3:hr>134</ns3:hr>
          </ns3:TrackPointExtension>
        </extensions>
      </trkpt>
      <trkpt lat="43.02222314290702342987060546875" lon="13.849380724132061004638671875">
        <ele>28.200000762939453125</ele>
        <time>2020-05-09T13:12:46.000Z</time>
        <extensions>
          <ns3:TrackPointExtension>
            <ns3:atemp>26.0</ns3:atemp>
            <ns3:hr>135</ns3:hr>
          </ns3:TrackPointExtension>
        </extensions>
      </trkpt>
      <trkpt lat="43.0222760327160358428955078125" lon="13.84943814016878604888916015625">
        <ele>27.799999237060546875</ele>
        <time>2020-05-09T13:12:47.000Z</time>
        <extensions>
          <ns3:TrackPointExtension>
            <ns3:atemp>26.0</ns3:atemp>
            <ns3:hr>135</ns3:hr>
          </ns3:TrackPointExtension>
        </extensions>
      </trkpt>
      <trkpt lat="43.0223249830305576324462890625" lon="13.8495025970041751861572265625">
        <ele>27.3999996185302734375</ele>
        <time>2020-05-09T13:12:48.000Z</time>
        <extensions>
          <ns3:TrackPointExtension>
            <ns3:atemp>26.0</ns3:atemp>
            <ns3:hr>134</ns3:hr>
          </ns3:TrackPointExtension>
        </extensions>
      </trkpt>
      <trkpt lat="43.0224745161831378936767578125" lon="13.849686495959758758544921875">
        <ele>26</ele>
        <time>2020-05-09T13:12:51.000Z</time>
        <extensions>
          <ns3:TrackPointExtension>
            <ns3:atemp>26.0</ns3:atemp>
            <ns3:hr>136</ns3:hr>
          </ns3:TrackPointExtension>
        </extensions>
      </trkpt>
      <trkpt lat="43.02262597717344760894775390625" lon="13.8498687185347080230712890625">
        <ele>25.6000003814697265625</ele>
        <time>2020-05-09T13:12:54.000Z</time>
        <extensions>
          <ns3:TrackPointExtension>
            <ns3:atemp>26.0</ns3:atemp>
            <ns3:hr>133</ns3:hr>
          </ns3:TrackPointExtension>
        </extensions>
      </trkpt>
      <trkpt lat="43.02267626859247684478759765625" lon="13.84993216954171657562255859375">
        <ele>25.6000003814697265625</ele>
        <time>2020-05-09T13:12:55.000Z</time>
        <extensions>
          <ns3:TrackPointExtension>
            <ns3:atemp>26.0</ns3:atemp>
            <ns3:hr>132</ns3:hr>
          </ns3:TrackPointExtension>
        </extensions>
      </trkpt>
      <trkpt lat="43.02298690192401409149169921875" lon="13.850375823676586151123046875">
        <ele>25.3999996185302734375</ele>
        <time>2020-05-09T13:13:02.000Z</time>
        <extensions>
          <ns3:TrackPointExtension>
            <ns3:atemp>26.0</ns3:atemp>
            <ns3:hr>130</ns3:hr>
          </ns3:TrackPointExtension>
        </extensions>
      </trkpt>
      <trkpt lat="43.02310123108327388763427734375" lon="13.8505634106695652008056640625">
        <ele>24.799999237060546875</ele>
        <time>2020-05-09T13:13:05.000Z</time>
        <extensions>
          <ns3:TrackPointExtension>
            <ns3:atemp>26.0</ns3:atemp>
            <ns3:hr>128</ns3:hr>
          </ns3:TrackPointExtension>
        </extensions>
      </trkpt>
      <trkpt lat="43.02318035624921321868896484375" lon="13.85073398239910602569580078125">
        <ele>24</ele>
        <time>2020-05-09T13:13:08.000Z</time>
        <extensions>
          <ns3:TrackPointExtension>
            <ns3:atemp>26.0</ns3:atemp>
            <ns3:hr>127</ns3:hr>
          </ns3:TrackPointExtension>
        </extensions>
      </trkpt>
      <trkpt lat="43.02333592437207698822021484375" lon="13.8511327095329761505126953125">
        <ele>24.200000762939453125</ele>
        <time>2020-05-09T13:13:15.000Z</time>
        <extensions>
          <ns3:TrackPointExtension>
            <ns3:atemp>26.0</ns3:atemp>
            <ns3:hr>124</ns3:hr>
          </ns3:TrackPointExtension>
        </extensions>
      </trkpt>
      <trkpt lat="43.02335687913000583648681640625" lon="13.85126707144081592559814453125">
        <ele>24.6000003814697265625</ele>
        <time>2020-05-09T13:13:19.000Z</time>
        <extensions>
          <ns3:TrackPointExtension>
            <ns3:atemp>26.0</ns3:atemp>
            <ns3:hr>125</ns3:hr>
          </ns3:TrackPointExtension>
        </extensions>
      </trkpt>
      <trkpt lat="43.02337062545120716094970703125" lon="13.851311244070529937744140625">
        <ele>24.799999237060546875</ele>
        <time>2020-05-09T13:13:22.000Z</time>
        <extensions>
          <ns3:TrackPointExtension>
            <ns3:atemp>26.0</ns3:atemp>
            <ns3:hr>128</ns3:hr>
          </ns3:TrackPointExtension>
        </extensions>
      </trkpt>
      <trkpt lat="43.02339208312332630157470703125" lon="13.85139095596969127655029296875">
        <ele>24</ele>
        <time>2020-05-09T13:13:25.000Z</time>
        <extensions>
          <ns3:TrackPointExtension>
            <ns3:atemp>26.0</ns3:atemp>
            <ns3:hr>131</ns3:hr>
          </ns3:TrackPointExtension>
        </extensions>
      </trkpt>
      <trkpt lat="43.02339627407491207122802734375" lon="13.8514267466962337493896484375">
        <ele>23.799999237060546875</ele>
        <time>2020-05-09T13:13:26.000Z</time>
        <extensions>
          <ns3:TrackPointExtension>
            <ns3:atemp>26.0</ns3:atemp>
            <ns3:hr>132</ns3:hr>
          </ns3:TrackPointExtension>
        </extensions>
      </trkpt>
      <trkpt lat="43.02344086579978466033935546875" lon="13.85160452686250209808349609375">
        <ele>23.6000003814697265625</ele>
        <time>2020-05-09T13:13:30.000Z</time>
        <extensions>
          <ns3:TrackPointExtension>
            <ns3:atemp>26.0</ns3:atemp>
            <ns3:hr>134</ns3:hr>
          </ns3:TrackPointExtension>
        </extensions>
      </trkpt>
      <trkpt lat="43.02350238896906375885009765625" lon="13.8519584946334362030029296875">
        <ele>22.799999237060546875</ele>
        <time>2020-05-09T13:13:37.000Z</time>
        <extensions>
          <ns3:TrackPointExtension>
            <ns3:atemp>26.0</ns3:atemp>
            <ns3:hr>129</ns3:hr>
          </ns3:TrackPointExtension>
        </extensions>
      </trkpt>
      <trkpt lat="43.0235118605196475982666015625" lon="13.8520000688731670379638671875">
        <ele>22.6000003814697265625</ele>
        <time>2020-05-09T13:13:38.000Z</time>
        <extensions>
          <ns3:TrackPointExtension>
            <ns3:atemp>26.0</ns3:atemp>
            <ns3:hr>129</ns3:hr>
          </ns3:TrackPointExtension>
        </extensions>
      </trkpt>
      <trkpt lat="43.02354597486555576324462890625" lon="13.852125294506549835205078125">
        <ele>22.6000003814697265625</ele>
        <time>2020-05-09T13:13:43.000Z</time>
        <extensions>
          <ns3:TrackPointExtension>
            <ns3:atemp>26.0</ns3:atemp>
            <ns3:hr>126</ns3:hr>
          </ns3:TrackPointExtension>
        </extensions>
      </trkpt>
      <trkpt lat="43.02354496903717517852783203125" lon="13.85223668999969959259033203125">
        <ele>22.6000003814697265625</ele>
        <time>2020-05-09T13:13:49.000Z</time>
        <extensions>
          <ns3:TrackPointExtension>
            <ns3:atemp>26.0</ns3:atemp>
            <ns3:hr>126</ns3:hr>
          </ns3:TrackPointExtension>
        </extensions>
      </trkpt>
      <trkpt lat="43.02355586551129817962646484375" lon="13.85228496976196765899658203125">
        <ele>22.799999237060546875</ele>
        <time>2020-05-09T13:13:52.000Z</time>
        <extensions>
          <ns3:TrackPointExtension>
            <ns3:atemp>26.0</ns3:atemp>
            <ns3:hr>125</ns3:hr>
          </ns3:TrackPointExtension>
        </extensions>
      </trkpt>
      <trkpt lat="43.02356441505253314971923828125" lon="13.85226451791822910308837890625">
        <ele>22.799999237060546875</ele>
        <time>2020-05-09T13:13:54.000Z</time>
        <extensions>
          <ns3:TrackPointExtension>
            <ns3:atemp>26.0</ns3:atemp>
            <ns3:hr>124</ns3:hr>
          </ns3:TrackPointExtension>
        </extensions>
      </trkpt>
      <trkpt lat="43.023528121411800384521484375" lon="13.85214901529252529144287109375">
        <ele>23</ele>
        <time>2020-05-09T13:13:58.000Z</time>
        <extensions>
          <ns3:TrackPointExtension>
            <ns3:atemp>26.0</ns3:atemp>
            <ns3:hr>122</ns3:hr>
          </ns3:TrackPointExtension>
        </extensions>
      </trkpt>
      <trkpt lat="43.02344438619911670684814453125" lon="13.851981796324253082275390625">
        <ele>23.6000003814697265625</ele>
        <time>2020-05-09T13:14:04.000Z</time>
        <extensions>
          <ns3:TrackPointExtension>
            <ns3:atemp>26.0</ns3:atemp>
            <ns3:hr>118</ns3:hr>
          </ns3:TrackPointExtension>
        </extensions>
      </trkpt>
      <trkpt lat="43.02336794324219226837158203125" lon="13.8519088737666606903076171875">
        <ele>22.200000762939453125</ele>
        <time>2020-05-09T13:14:10.000Z</time>
        <extensions>
          <ns3:TrackPointExtension>
            <ns3:atemp>26.0</ns3:atemp>
            <ns3:hr>118</ns3:hr>
          </ns3:TrackPointExtension>
        </extensions>
      </trkpt>
      <trkpt lat="43.023369200527667999267578125" lon="13.8519165851175785064697265625">
        <ele>21.6000003814697265625</ele>
        <time>2020-05-09T13:14:11.000Z</time>
        <extensions>
          <ns3:TrackPointExtension>
            <ns3:atemp>26.0</ns3:atemp>
            <ns3:hr>116</ns3:hr>
          </ns3:TrackPointExtension>
        </extensions>
      </trkpt>
      <trkpt lat="43.0234032310545444488525390625" lon="13.851963020861148834228515625">
        <ele>20.6000003814697265625</ele>
        <time>2020-05-09T13:14:14.000Z</time>
        <extensions>
          <ns3:TrackPointExtension>
            <ns3:atemp>26.0</ns3:atemp>
            <ns3:hr>116</ns3:hr>
          </ns3:TrackPointExtension>
        </extensions>
      </trkpt>
      <trkpt lat="43.0234117805957794189453125" lon="13.8519896753132343292236328125">
        <ele>20.3999996185302734375</ele>
        <time>2020-05-09T13:14:15.000Z</time>
        <extensions>
          <ns3:TrackPointExtension>
            <ns3:atemp>26.0</ns3:atemp>
            <ns3:hr>116</ns3:hr>
          </ns3:TrackPointExtension>
        </extensions>
      </trkpt>
      <trkpt lat="43.0234531871974468231201171875" lon="13.8521211035549640655517578125">
        <ele>20</ele>
        <time>2020-05-09T13:14:19.000Z</time>
        <extensions>
          <ns3:TrackPointExtension>
            <ns3:atemp>26.0</ns3:atemp>
            <ns3:hr>117</ns3:hr>
          </ns3:TrackPointExtension>
        </extensions>
      </trkpt>
      <trkpt lat="43.02345880307257175445556640625" lon="13.85215907357633113861083984375">
        <ele>19.799999237060546875</ele>
        <time>2020-05-09T13:14:20.000Z</time>
        <extensions>
          <ns3:TrackPointExtension>
            <ns3:atemp>26.0</ns3:atemp>
            <ns3:hr>121</ns3:hr>
          </ns3:TrackPointExtension>
        </extensions>
      </trkpt>
      <trkpt lat="43.02351077087223529815673828125" lon="13.85230843909084796905517578125">
        <ele>19.799999237060546875</ele>
        <time>2020-05-09T13:14:24.000Z</time>
        <extensions>
          <ns3:TrackPointExtension>
            <ns3:atemp>26.0</ns3:atemp>
            <ns3:hr>123</ns3:hr>
          </ns3:TrackPointExtension>
        </extensions>
      </trkpt>
      <trkpt lat="43.02358587272465229034423828125" lon="13.85255151428282260894775390625">
        <ele>19.799999237060546875</ele>
        <time>2020-05-09T13:14:29.000Z</time>
        <extensions>
          <ns3:TrackPointExtension>
            <ns3:atemp>26.0</ns3:atemp>
            <ns3:hr>124</ns3:hr>
          </ns3:TrackPointExtension>
        </extensions>
      </trkpt>
      <trkpt lat="43.02361303009092807769775390625" lon="13.85263700969517230987548828125">
        <ele>19.3999996185302734375</ele>
        <time>2020-05-09T13:14:31.000Z</time>
        <extensions>
          <ns3:TrackPointExtension>
            <ns3:atemp>26.0</ns3:atemp>
            <ns3:hr>120</ns3:hr>
          </ns3:TrackPointExtension>
        </extensions>
      </trkpt>
      <trkpt lat="43.023643456399440765380859375" lon="13.85276910848915576934814453125">
        <ele>18.3999996185302734375</ele>
        <time>2020-05-09T13:14:34.000Z</time>
        <extensions>
          <ns3:TrackPointExtension>
            <ns3:atemp>26.0</ns3:atemp>
            <ns3:hr>120</ns3:hr>
          </ns3:TrackPointExtension>
        </extensions>
      </trkpt>
      <trkpt lat="43.02366147749125957489013671875" lon="13.8528050668537616729736328125">
        <ele>18.3999996185302734375</ele>
        <time>2020-05-09T13:14:35.000Z</time>
        <extensions>
          <ns3:TrackPointExtension>
            <ns3:atemp>26.0</ns3:atemp>
            <ns3:hr>120</ns3:hr>
          </ns3:TrackPointExtension>
        </extensions>
      </trkpt>
      <trkpt lat="43.023754097521305084228515625" lon="13.85297329165041446685791015625">
        <ele>18</ele>
        <time>2020-05-09T13:14:39.000Z</time>
        <extensions>
          <ns3:TrackPointExtension>
            <ns3:atemp>26.0</ns3:atemp>
            <ns3:hr>119</ns3:hr>
          </ns3:TrackPointExtension>
        </extensions>
      </trkpt>
      <trkpt lat="43.0238508246839046478271484375" lon="13.85318451561033725738525390625">
        <ele>17.6000003814697265625</ele>
        <time>2020-05-09T13:14:43.000Z</time>
        <extensions>
          <ns3:TrackPointExtension>
            <ns3:atemp>26.0</ns3:atemp>
            <ns3:hr>121</ns3:hr>
          </ns3:TrackPointExtension>
        </extensions>
      </trkpt>
      <trkpt lat="43.02390187047421932220458984375" lon="13.85330705903470516204833984375">
        <ele>17.3999996185302734375</ele>
        <time>2020-05-09T13:14:45.000Z</time>
        <extensions>
          <ns3:TrackPointExtension>
            <ns3:atemp>26.0</ns3:atemp>
            <ns3:hr>122</ns3:hr>
          </ns3:TrackPointExtension>
        </extensions>
      </trkpt>
      <trkpt lat="43.0241037905216217041015625" lon="13.85364233516156673431396484375">
        <ele>16.6000003814697265625</ele>
        <time>2020-05-09T13:14:51.000Z</time>
        <extensions>
          <ns3:TrackPointExtension>
            <ns3:atemp>26.0</ns3:atemp>
            <ns3:hr>123</ns3:hr>
          </ns3:TrackPointExtension>
        </extensions>
      </trkpt>
      <trkpt lat="43.0242727696895599365234375" lon="13.85396168567240238189697265625">
        <ele>16</ele>
        <time>2020-05-09T13:14:56.000Z</time>
        <extensions>
          <ns3:TrackPointExtension>
            <ns3:atemp>26.0</ns3:atemp>
            <ns3:hr>126</ns3:hr>
          </ns3:TrackPointExtension>
        </extensions>
      </trkpt>
      <trkpt lat="43.02429682575166225433349609375" lon="13.8540373742580413818359375">
        <ele>15.80000019073486328125</ele>
        <time>2020-05-09T13:14:57.000Z</time>
        <extensions>
          <ns3:TrackPointExtension>
            <ns3:atemp>26.0</ns3:atemp>
            <ns3:hr>126</ns3:hr>
          </ns3:TrackPointExtension>
        </extensions>
      </trkpt>
      <trkpt lat="43.0243383161723613739013671875" lon="13.85420970618724822998046875">
        <ele>15.19999980926513671875</ele>
        <time>2020-05-09T13:14:59.000Z</time>
        <extensions>
          <ns3:TrackPointExtension>
            <ns3:atemp>27.0</ns3:atemp>
            <ns3:hr>128</ns3:hr>
          </ns3:TrackPointExtension>
        </extensions>
      </trkpt>
      <trkpt lat="43.02436999976634979248046875" lon="13.85427181608974933624267578125">
        <ele>14.80000019073486328125</ele>
        <time>2020-05-09T13:15:00.000Z</time>
        <extensions>
          <ns3:TrackPointExtension>
            <ns3:atemp>27.0</ns3:atemp>
            <ns3:hr>131</ns3:hr>
          </ns3:TrackPointExtension>
        </extensions>
      </trkpt>
      <trkpt lat="43.0243936367332935333251953125" lon="13.8545112870633602142333984375">
        <ele>14.3999996185302734375</ele>
        <time>2020-05-09T13:15:02.000Z</time>
        <extensions>
          <ns3:TrackPointExtension>
            <ns3:atemp>27.0</ns3:atemp>
            <ns3:hr>129</ns3:hr>
          </ns3:TrackPointExtension>
        </extensions>
      </trkpt>
      <trkpt lat="43.0245374701917171478271484375" lon="13.85468445718288421630859375">
        <ele>13.6000003814697265625</ele>
        <time>2020-05-09T13:15:06.000Z</time>
        <extensions>
          <ns3:TrackPointExtension>
            <ns3:atemp>27.0</ns3:atemp>
            <ns3:hr>132</ns3:hr>
          </ns3:TrackPointExtension>
        </extensions>
      </trkpt>
      <trkpt lat="43.02457108162343502044677734375" lon="13.85473265312612056732177734375">
        <ele>13.3999996185302734375</ele>
        <time>2020-05-09T13:15:07.000Z</time>
        <extensions>
          <ns3:TrackPointExtension>
            <ns3:atemp>27.0</ns3:atemp>
            <ns3:hr>132</ns3:hr>
          </ns3:TrackPointExtension>
        </extensions>
      </trkpt>
      <trkpt lat="43.0246048606932163238525390625" lon="13.8547852076590061187744140625">
        <ele>13.3999996185302734375</ele>
        <time>2020-05-09T13:15:08.000Z</time>
        <extensions>
          <ns3:TrackPointExtension>
            <ns3:atemp>26.0</ns3:atemp>
            <ns3:hr>133</ns3:hr>
          </ns3:TrackPointExtension>
        </extensions>
      </trkpt>
      <trkpt lat="43.02464266307651996612548828125" lon="13.85483742691576480865478515625">
        <ele>13.3999996185302734375</ele>
        <time>2020-05-09T13:15:09.000Z</time>
        <extensions>
          <ns3:TrackPointExtension>
            <ns3:atemp>26.0</ns3:atemp>
            <ns3:hr>132</ns3:hr>
          </ns3:TrackPointExtension>
        </extensions>
      </trkpt>
      <trkpt lat="43.02471776492893695831298828125" lon="13.854940943419933319091796875">
        <ele>13.19999980926513671875</ele>
        <time>2020-05-09T13:15:11.000Z</time>
        <extensions>
          <ns3:TrackPointExtension>
            <ns3:atemp>26.0</ns3:atemp>
            <ns3:hr>133</ns3:hr>
          </ns3:TrackPointExtension>
        </extensions>
      </trkpt>
      <trkpt lat="43.024789430201053619384765625" lon="13.855057619512081146240234375">
        <ele>12.80000019073486328125</ele>
        <time>2020-05-09T13:15:13.000Z</time>
        <extensions>
          <ns3:TrackPointExtension>
            <ns3:atemp>26.0</ns3:atemp>
            <ns3:hr>132</ns3:hr>
          </ns3:TrackPointExtension>
        </extensions>
      </trkpt>
      <trkpt lat="43.0248301662504673004150390625" lon="13.85512165725231170654296875">
        <ele>12.3999996185302734375</ele>
        <time>2020-05-09T13:15:14.000Z</time>
        <extensions>
          <ns3:TrackPointExtension>
            <ns3:atemp>26.0</ns3:atemp>
            <ns3:hr>132</ns3:hr>
          </ns3:TrackPointExtension>
        </extensions>
      </trkpt>
      <trkpt lat="43.024906106293201446533203125" lon="13.85525451041758060455322265625">
        <ele>11.6000003814697265625</ele>
        <time>2020-05-09T13:15:16.000Z</time>
        <extensions>
          <ns3:TrackPointExtension>
            <ns3:atemp>26.0</ns3:atemp>
            <ns3:hr>134</ns3:hr>
          </ns3:TrackPointExtension>
        </extensions>
      </trkpt>
      <trkpt lat="43.0249284021556377410888671875" lon="13.85532357729971408843994140625">
        <ele>11.19999980926513671875</ele>
        <time>2020-05-09T13:15:17.000Z</time>
        <extensions>
          <ns3:TrackPointExtension>
            <ns3:atemp>26.0</ns3:atemp>
            <ns3:hr>136</ns3:hr>
          </ns3:TrackPointExtension>
        </extensions>
      </trkpt>
      <trkpt lat="43.02500727586448192596435546875" lon="13.8554455339908599853515625">
        <ele>11.3999996185302734375</ele>
        <time>2020-05-09T13:15:19.000Z</time>
        <extensions>
          <ns3:TrackPointExtension>
            <ns3:atemp>26.0</ns3:atemp>
            <ns3:hr>136</ns3:hr>
          </ns3:TrackPointExtension>
        </extensions>
      </trkpt>
      <trkpt lat="43.025249429047107696533203125" lon="13.85582506656646728515625">
        <ele>11</ele>
        <time>2020-05-09T13:15:26.000Z</time>
        <extensions>
          <ns3:TrackPointExtension>
            <ns3:atemp>26.0</ns3:atemp>
            <ns3:hr>137</ns3:hr>
          </ns3:TrackPointExtension>
        </extensions>
      </trkpt>
      <trkpt lat="43.02531816065311431884765625" lon="13.8559422455728054046630859375">
        <ele>10.6000003814697265625</ele>
        <time>2020-05-09T13:15:28.000Z</time>
        <extensions>
          <ns3:TrackPointExtension>
            <ns3:atemp>26.0</ns3:atemp>
            <ns3:hr>134</ns3:hr>
          </ns3:TrackPointExtension>
        </extensions>
      </trkpt>
      <trkpt lat="43.02548152394592761993408203125" lon="13.85612337850034236907958984375">
        <ele>10.3999996185302734375</ele>
        <time>2020-05-09T13:15:32.000Z</time>
        <extensions>
          <ns3:TrackPointExtension>
            <ns3:atemp>26.0</ns3:atemp>
            <ns3:hr>133</ns3:hr>
          </ns3:TrackPointExtension>
        </extensions>
      </trkpt>
      <trkpt lat="43.02551974542438983917236328125" lon="13.856164030730724334716796875">
        <ele>10.19999980926513671875</ele>
        <time>2020-05-09T13:15:33.000Z</time>
        <extensions>
          <ns3:TrackPointExtension>
            <ns3:atemp>26.0</ns3:atemp>
            <ns3:hr>132</ns3:hr>
          </ns3:TrackPointExtension>
        </extensions>
      </trkpt>
      <trkpt lat="43.02559149451553821563720703125" lon="13.8562540523707866668701171875">
        <ele>10.19999980926513671875</ele>
        <time>2020-05-09T13:15:35.000Z</time>
        <extensions>
          <ns3:TrackPointExtension>
            <ns3:atemp>26.0</ns3:atemp>
            <ns3:hr>129</ns3:hr>
          </ns3:TrackPointExtension>
        </extensions>
      </trkpt>
      <trkpt lat="43.02565603516995906829833984375" lon="13.85637181811034679412841796875">
        <ele>10.19999980926513671875</ele>
        <time>2020-05-09T13:15:37.000Z</time>
        <extensions>
          <ns3:TrackPointExtension>
            <ns3:atemp>26.0</ns3:atemp>
            <ns3:hr>128</ns3:hr>
          </ns3:TrackPointExtension>
        </extensions>
      </trkpt>
      <trkpt lat="43.02572183310985565185546875" lon="13.8564927689731121063232421875">
        <ele>10</ele>
        <time>2020-05-09T13:15:39.000Z</time>
        <extensions>
          <ns3:TrackPointExtension>
            <ns3:atemp>26.0</ns3:atemp>
            <ns3:hr>128</ns3:hr>
          </ns3:TrackPointExtension>
        </extensions>
      </trkpt>
      <trkpt lat="43.025816045701503753662109375" lon="13.85665495879948139190673828125">
        <ele>8</ele>
        <time>2020-05-09T13:15:42.000Z</time>
        <extensions>
          <ns3:TrackPointExtension>
            <ns3:atemp>26.0</ns3:atemp>
            <ns3:hr>125</ns3:hr>
          </ns3:TrackPointExtension>
        </extensions>
      </trkpt>
      <trkpt lat="43.0258906446397304534912109375" lon="13.85679191909730434417724609375">
        <ele>6.599999904632568359375</ele>
        <time>2020-05-09T13:15:44.000Z</time>
        <extensions>
          <ns3:TrackPointExtension>
            <ns3:atemp>26.0</ns3:atemp>
            <ns3:hr>124</ns3:hr>
          </ns3:TrackPointExtension>
        </extensions>
      </trkpt>
      <trkpt lat="43.0259221605956554412841796875" lon="13.85685226880013942718505859375">
        <ele>6.19999980926513671875</ele>
        <time>2020-05-09T13:15:45.000Z</time>
        <extensions>
          <ns3:TrackPointExtension>
            <ns3:atemp>26.0</ns3:atemp>
            <ns3:hr>125</ns3:hr>
          </ns3:TrackPointExtension>
        </extensions>
      </trkpt>
      <trkpt lat="43.02602450363337993621826171875" lon="13.8570308871567249298095703125">
        <ele>5.599999904632568359375</ele>
        <time>2020-05-09T13:15:48.000Z</time>
        <extensions>
          <ns3:TrackPointExtension>
            <ns3:atemp>26.0</ns3:atemp>
            <ns3:hr>124</ns3:hr>
          </ns3:TrackPointExtension>
        </extensions>
      </trkpt>
      <trkpt lat="43.02613782696425914764404296875" lon="13.8571809232234954833984375">
        <ele>5</ele>
        <time>2020-05-09T13:15:51.000Z</time>
        <extensions>
          <ns3:TrackPointExtension>
            <ns3:atemp>26.0</ns3:atemp>
            <ns3:hr>121</ns3:hr>
          </ns3:TrackPointExtension>
        </extensions>
      </trkpt>
      <trkpt lat="43.0261860229074954986572265625" lon="13.85722224600613117218017578125">
        <ele>5</ele>
        <time>2020-05-09T13:15:52.000Z</time>
        <extensions>
          <ns3:TrackPointExtension>
            <ns3:atemp>26.0</ns3:atemp>
            <ns3:hr>120</ns3:hr>
          </ns3:TrackPointExtension>
        </extensions>
      </trkpt>
      <trkpt lat="43.02638174034655094146728515625" lon="13.85755299590528011322021484375">
        <ele>5.400000095367431640625</ele>
        <time>2020-05-09T13:15:58.000Z</time>
        <extensions>
          <ns3:TrackPointExtension>
            <ns3:atemp>26.0</ns3:atemp>
            <ns3:hr>121</ns3:hr>
          </ns3:TrackPointExtension>
        </extensions>
      </trkpt>
      <trkpt lat="43.02648835815489292144775390625" lon="13.857715018093585968017578125">
        <ele>4.80000019073486328125</ele>
        <time>2020-05-09T13:16:01.000Z</time>
        <extensions>
          <ns3:TrackPointExtension>
            <ns3:atemp>26.0</ns3:atemp>
            <ns3:hr>118</ns3:hr>
          </ns3:TrackPointExtension>
        </extensions>
      </trkpt>
      <trkpt lat="43.02651836536824703216552734375" lon="13.85777327232062816619873046875">
        <ele>4.400000095367431640625</ele>
        <time>2020-05-09T13:16:02.000Z</time>
        <extensions>
          <ns3:TrackPointExtension>
            <ns3:atemp>26.0</ns3:atemp>
            <ns3:hr>118</ns3:hr>
          </ns3:TrackPointExtension>
        </extensions>
      </trkpt>
      <trkpt lat="43.02664509974420070648193359375" lon="13.8580155931413173675537109375">
        <ele>3.400000095367431640625</ele>
        <time>2020-05-09T13:16:06.000Z</time>
        <extensions>
          <ns3:TrackPointExtension>
            <ns3:atemp>26.0</ns3:atemp>
            <ns3:hr>115</ns3:hr>
          </ns3:TrackPointExtension>
        </extensions>
      </trkpt>
      <trkpt lat="43.026697821915149688720703125" lon="13.858115673065185546875">
        <ele>3.400000095367431640625</ele>
        <time>2020-05-09T13:16:08.000Z</time>
        <extensions>
          <ns3:TrackPointExtension>
            <ns3:atemp>26.0</ns3:atemp>
            <ns3:hr>119</ns3:hr>
          </ns3:TrackPointExtension>
        </extensions>
      </trkpt>
      <trkpt lat="43.0267278291285037994384765625" lon="13.8581813871860504150390625">
        <ele>3.2000000476837158203125</ele>
        <time>2020-05-09T13:16:10.000Z</time>
        <extensions>
          <ns3:TrackPointExtension>
            <ns3:atemp>26.0</ns3:atemp>
            <ns3:hr>123</ns3:hr>
          </ns3:TrackPointExtension>
        </extensions>
      </trkpt>
      <trkpt lat="43.02677032537758350372314453125" lon="13.858246095478534698486328125">
        <ele>3</ele>
        <time>2020-05-09T13:16:12.000Z</time>
        <extensions>
          <ns3:TrackPointExtension>
            <ns3:atemp>26.0</ns3:atemp>
            <ns3:hr>126</ns3:hr>
          </ns3:TrackPointExtension>
        </extensions>
      </trkpt>
      <trkpt lat="43.0267372168600559234619140625" lon="13.85837425477802753448486328125">
        <ele>2.7999999523162841796875</ele>
        <time>2020-05-09T13:16:13.000Z</time>
        <extensions>
          <ns3:TrackPointExtension>
            <ns3:atemp>26.0</ns3:atemp>
            <ns3:hr>126</ns3:hr>
          </ns3:TrackPointExtension>
        </extensions>
      </trkpt>
      <trkpt lat="43.02674367092549800872802734375" lon="13.85851054452359676361083984375">
        <ele>2.599999904632568359375</ele>
        <time>2020-05-09T13:16:15.000Z</time>
        <extensions>
          <ns3:TrackPointExtension>
            <ns3:atemp>26.0</ns3:atemp>
            <ns3:hr>127</ns3:hr>
          </ns3:TrackPointExtension>
        </extensions>
      </trkpt>
      <trkpt lat="43.02677233703434467315673828125" lon="13.85856351815164089202880859375">
        <ele>2.400000095367431640625</ele>
        <time>2020-05-09T13:16:16.000Z</time>
        <extensions>
          <ns3:TrackPointExtension>
            <ns3:atemp>26.0</ns3:atemp>
            <ns3:hr>126</ns3:hr>
          </ns3:TrackPointExtension>
        </extensions>
      </trkpt>
      <trkpt lat="43.02682279609143733978271484375" lon="13.85867130942642688751220703125">
        <ele>2.400000095367431640625</ele>
        <time>2020-05-09T13:16:18.000Z</time>
        <extensions>
          <ns3:TrackPointExtension>
            <ns3:atemp>26.0</ns3:atemp>
            <ns3:hr>130</ns3:hr>
          </ns3:TrackPointExtension>
        </extensions>
      </trkpt>
      <trkpt lat="43.02687627263367176055908203125" lon="13.8587786816060543060302734375">
        <ele>2.7999999523162841796875</ele>
        <time>2020-05-09T13:16:20.000Z</time>
        <extensions>
          <ns3:TrackPointExtension>
            <ns3:atemp>26.0</ns3:atemp>
            <ns3:hr>129</ns3:hr>
          </ns3:TrackPointExtension>
        </extensions>
      </trkpt>
      <trkpt lat="43.02704072557389736175537109375" lon="13.85917807929217815399169921875">
        <ele>3</ele>
        <time>2020-05-09T13:16:27.000Z</time>
        <extensions>
          <ns3:TrackPointExtension>
            <ns3:atemp>26.0</ns3:atemp>
            <ns3:hr>127</ns3:hr>
          </ns3:TrackPointExtension>
        </extensions>
      </trkpt>
      <trkpt lat="43.02722328342497348785400390625" lon="13.85959583334624767303466796875">
        <ele>2</ele>
        <time>2020-05-09T13:16:35.000Z</time>
        <extensions>
          <ns3:TrackPointExtension>
            <ns3:atemp>26.0</ns3:atemp>
            <ns3:hr>125</ns3:hr>
          </ns3:TrackPointExtension>
        </extensions>
      </trkpt>
      <trkpt lat="43.027244322001934051513671875" lon="13.85964511893689632415771484375">
        <ele>1.7999999523162841796875</ele>
        <time>2020-05-09T13:16:36.000Z</time>
        <extensions>
          <ns3:TrackPointExtension>
            <ns3:atemp>26.0</ns3:atemp>
            <ns3:hr>124</ns3:hr>
          </ns3:TrackPointExtension>
        </extensions>
      </trkpt>
      <trkpt lat="43.027278520166873931884765625" lon="13.85971737094223499298095703125">
        <ele>1.7999999523162841796875</ele>
        <time>2020-05-09T13:16:38.000Z</time>
        <extensions>
          <ns3:TrackPointExtension>
            <ns3:atemp>26.0</ns3:atemp>
            <ns3:hr>123</ns3:hr>
          </ns3:TrackPointExtension>
        </extensions>
      </trkpt>
      <trkpt lat="43.0272853933274745941162109375" lon="13.85978073813021183013916015625">
        <ele>1.7999999523162841796875</ele>
        <time>2020-05-09T13:16:39.000Z</time>
        <extensions>
          <ns3:TrackPointExtension>
            <ns3:atemp>26.0</ns3:atemp>
            <ns3:hr>121</ns3:hr>
          </ns3:TrackPointExtension>
        </extensions>
      </trkpt>
      <trkpt lat="43.0272920988500118255615234375" lon="13.85997436009347438812255859375">
        <ele>1.39999997615814208984375</ele>
        <time>2020-05-09T13:16:41.000Z</time>
        <extensions>
          <ns3:TrackPointExtension>
            <ns3:atemp>26.0</ns3:atemp>
            <ns3:hr>121</ns3:hr>
          </ns3:TrackPointExtension>
        </extensions>
      </trkpt>
      <trkpt lat="43.0273075215518474578857421875" lon="13.86003873310983180999755859375">
        <ele>1</ele>
        <time>2020-05-09T13:16:42.000Z</time>
        <extensions>
          <ns3:TrackPointExtension>
            <ns3:atemp>26.0</ns3:atemp>
            <ns3:hr>121</ns3:hr>
          </ns3:TrackPointExtension>
        </extensions>
      </trkpt>
      <trkpt lat="43.02738572470843791961669921875" lon="13.8602854125201702117919921875">
        <ele>0</ele>
        <time>2020-05-09T13:16:47.000Z</time>
        <extensions>
          <ns3:TrackPointExtension>
            <ns3:atemp>26.0</ns3:atemp>
            <ns3:hr>118</ns3:hr>
          </ns3:TrackPointExtension>
        </extensions>
      </trkpt>
      <trkpt lat="43.02740114741027355194091796875" lon="13.86035171337425708770751953125">
        <ele>0</ele>
        <time>2020-05-09T13:16:48.000Z</time>
        <extensions>
          <ns3:TrackPointExtension>
            <ns3:atemp>26.0</ns3:atemp>
            <ns3:hr>119</ns3:hr>
          </ns3:TrackPointExtension>
        </extensions>
      </trkpt>
      <trkpt lat="43.02747331559658050537109375" lon="13.86044022627174854278564453125">
        <ele>0.4000000059604644775390625</ele>
        <time>2020-05-09T13:16:51.000Z</time>
        <extensions>
          <ns3:TrackPointExtension>
            <ns3:atemp>26.0</ns3:atemp>
            <ns3:hr>116</ns3:hr>
          </ns3:TrackPointExtension>
        </extensions>
      </trkpt>
    </trkseg>
  </trk>
</gpx>
